<?xml version='1.0' encoding='UTF-8'?><gpx version="1.1" creator="JPX - https://github.com/jenetics/jpx" xmlns="http://www.topografix.com/GPX/1/1"><trk><trkseg><trkpt lat="37.87967710353762" lon="15.12359949012734"><ele>549.0</ele><time>2026-04-19T05:58:57Z</time></trkpt><trkpt lat="37.87968689936567" lon="15.123699228346014"><ele>549.0</ele><time>2026-04-19T05:58:58Z</time></trkpt><trkpt lat="37.87970710647846" lon="15.123784590138392"><ele>549.0</ele><time>2026-04-19T05:58:59Z</time></trkpt><trkpt lat="37.87971273767713" lon="15.12387306571236"><ele>549.0</ele><time>2026-04-19T05:59:00Z</time></trkpt><trkpt lat="37.87972157344057" lon="15.123957558099692"><ele>549.0</ele><time>2026-04-19T05:59:01Z</time></trkpt><trkpt lat="37.879761781216594" lon="15.124029157359631"><ele>549.0</ele><time>2026-04-19T05:59:02Z</time></trkpt><trkpt lat="37.879835130966356" lon="15.124070968377673"><ele>549.0</ele><time>2026-04-19T05:59:03Z</time></trkpt><trkpt lat="37.879923417441056" lon="15.124079160602355"><ele>550.5</ele><time>2026-04-19T05:59:04Z</time></trkpt><trkpt lat="37.88002798263583" lon="15.124079266215592"><ele>552.0</ele><time>2026-04-19T05:59:05Z</time></trkpt><trkpt lat="37.88015216775064" lon="15.124090500775917"><ele>553.5</ele><time>2026-04-19T05:59:06Z</time></trkpt><trkpt lat="37.88027729639478" lon="15.124134074060786"><ele>555.0</ele><time>2026-04-19T05:59:07Z</time></trkpt><trkpt lat="37.88036801402228" lon="15.124147279564527"><ele>556.3333333333334</ele><time>2026-04-19T05:59:08Z</time></trkpt><trkpt lat="37.88043688424436" lon="15.12414131751649"><ele>557.6666666666666</ele><time>2026-04-19T05:59:09Z</time></trkpt><trkpt lat="37.88047714097748" lon="15.12423465924071"><ele>559.0</ele><time>2026-04-19T05:59:11Z</time></trkpt><trkpt lat="37.88042751687834" lon="15.124308105571773"><ele>560.3333333333333</ele><time>2026-04-19T05:59:24Z</time></trkpt><trkpt lat="37.88037663010575" lon="15.124364673833087"><ele>561.6666666666666</ele><time>2026-04-19T05:59:25Z</time></trkpt><trkpt lat="37.88031468251545" lon="15.12443508151234"><ele>563.0</ele><time>2026-04-19T05:59:26Z</time></trkpt><trkpt lat="37.88024124123419" lon="15.12450103270827"><ele>563.0</ele><time>2026-04-19T05:59:27Z</time></trkpt><trkpt lat="37.880169029233286" lon="15.124605338247642"><ele>563.0</ele><time>2026-04-19T05:59:28Z</time></trkpt><trkpt lat="37.880088443213296" lon="15.124717101251235"><ele>563.0</ele><time>2026-04-19T05:59:29Z</time></trkpt><trkpt lat="37.88001158781545" lon="15.124793422740773"><ele>563.0</ele><time>2026-04-19T05:59:30Z</time></trkpt><trkpt lat="37.8799469098571" lon="15.124828673577356"><ele>563.0</ele><time>2026-04-19T05:59:31Z</time></trkpt><trkpt lat="37.880059333316495" lon="15.124975277366099"><ele>562.0</ele><time>2026-04-19T05:59:34Z</time></trkpt><trkpt lat="37.88014137072976" lon="15.125036032186246"><ele>561.0</ele><time>2026-04-19T05:59:35Z</time></trkpt><trkpt lat="37.880237097292444" lon="15.125104308360875"><ele>560.0</ele><time>2026-04-19T05:59:36Z</time></trkpt><trkpt lat="37.88032146778809" lon="15.12517018276994"><ele>559.0</ele><time>2026-04-19T05:59:37Z</time></trkpt><trkpt lat="37.880394622689344" lon="15.125204455285393"><ele>558.0</ele><time>2026-04-19T05:59:38Z</time></trkpt><trkpt lat="37.88046411878772" lon="15.125232117296044"><ele>558.0</ele><time>2026-04-19T05:59:40Z</time></trkpt><trkpt lat="37.88052568178654" lon="15.125119547976917"><ele>558.0</ele><time>2026-04-19T05:59:42Z</time></trkpt><trkpt lat="37.880550001810775" lon="15.125019429710143"><ele>558.0</ele><time>2026-04-19T05:59:43Z</time></trkpt><trkpt lat="37.88058076737841" lon="15.124906082096807"><ele>558.0</ele><time>2026-04-19T05:59:44Z</time></trkpt><trkpt lat="37.88063645457665" lon="15.124794827541026"><ele>558.0</ele><time>2026-04-19T05:59:45Z</time></trkpt><trkpt lat="37.880697015092586" lon="15.124665613427508"><ele>559.0</ele><time>2026-04-19T05:59:46Z</time></trkpt><trkpt lat="37.880741176944774" lon="15.124529828302428"><ele>560.0</ele><time>2026-04-19T05:59:47Z</time></trkpt><trkpt lat="37.88080215909308" lon="15.124409594464277"><ele>561.0</ele><time>2026-04-19T05:59:48Z</time></trkpt><trkpt lat="37.88085341545192" lon="15.12428885511919"><ele>562.0</ele><time>2026-04-19T05:59:49Z</time></trkpt><trkpt lat="37.88089233109998" lon="15.1241907950083"><ele>563.0</ele><time>2026-04-19T05:59:50Z</time></trkpt><trkpt lat="37.88091650197462" lon="15.124092036081525"><ele>565.3333333333333</ele><time>2026-04-19T05:59:51Z</time></trkpt><trkpt lat="37.88096113768862" lon="15.124005922292929"><ele>567.6666666666666</ele><time>2026-04-19T05:59:52Z</time></trkpt><trkpt lat="37.881016234169365" lon="15.123927618797127"><ele>570.0</ele><time>2026-04-19T05:59:53Z</time></trkpt><trkpt lat="37.88106802922098" lon="15.123833806497899"><ele>572.3333333333334</ele><time>2026-04-19T05:59:54Z</time></trkpt><trkpt lat="37.88111702736587" lon="15.123741505187864"><ele>574.6666666666667</ele><time>2026-04-19T05:59:55Z</time></trkpt><trkpt lat="37.88115343895409" lon="15.123617864855866"><ele>577.0</ele><time>2026-04-19T05:59:56Z</time></trkpt><trkpt lat="37.881175818948925" lon="15.12347410694018"><ele>577.0</ele><time>2026-04-19T05:59:57Z</time></trkpt><trkpt lat="37.88121991333247" lon="15.123307623129424"><ele>577.0</ele><time>2026-04-19T05:59:58Z</time></trkpt><trkpt lat="37.88126428357736" lon="15.123136157831999"><ele>577.0</ele><time>2026-04-19T05:59:59Z</time></trkpt><trkpt lat="37.88131624796471" lon="15.122988104451746"><ele>577.0</ele><time>2026-04-19T06:00:00Z</time></trkpt><trkpt lat="37.88136535510529" lon="15.122859523695015"><ele>575.6</ele><time>2026-04-19T06:00:01Z</time></trkpt><trkpt lat="37.88140244325439" lon="15.122733709779332"><ele>574.2</ele><time>2026-04-19T06:00:02Z</time></trkpt><trkpt lat="37.881437173535794" lon="15.122611418894532"><ele>572.8</ele><time>2026-04-19T06:00:03Z</time></trkpt><trkpt lat="37.881446595767144" lon="15.122478312909944"><ele>571.4</ele><time>2026-04-19T06:00:04Z</time></trkpt><trkpt lat="37.88143988788747" lon="15.122329257180818"><ele>570.0</ele><time>2026-04-19T06:00:05Z</time></trkpt><trkpt lat="37.881470141153535" lon="15.122194887940823"><ele>567.75</ele><time>2026-04-19T06:00:06Z</time></trkpt><trkpt lat="37.88151874772037" lon="15.122086407564758"><ele>565.5</ele><time>2026-04-19T06:00:07Z</time></trkpt><trkpt lat="37.88158422829123" lon="15.121928658466205"><ele>563.25</ele><time>2026-04-19T06:00:08Z</time></trkpt><trkpt lat="37.881583726324116" lon="15.121755247946412"><ele>561.0</ele><time>2026-04-19T06:00:09Z</time></trkpt><trkpt lat="37.88158935474691" lon="15.121583912255733"><ele>559.6666666666666</ele><time>2026-04-19T06:00:10Z</time></trkpt><trkpt lat="37.88160606103134" lon="15.121399889823174"><ele>558.3333333333333</ele><time>2026-04-19T06:00:11Z</time></trkpt><trkpt lat="37.88159746609368" lon="15.121174397449387"><ele>557.0</ele><time>2026-04-19T06:00:12Z</time></trkpt><trkpt lat="37.88159371570322" lon="15.120963041711484"><ele>557.0</ele><time>2026-04-19T06:00:13Z</time></trkpt><trkpt lat="37.88158193819699" lon="15.120771780671951"><ele>557.0</ele><time>2026-04-19T06:00:14Z</time></trkpt><trkpt lat="37.88157330024369" lon="15.120595320300005"><ele>557.0</ele><time>2026-04-19T06:00:15Z</time></trkpt><trkpt lat="37.88158011600759" lon="15.120431776455222"><ele>557.0</ele><time>2026-04-19T06:00:16Z</time></trkpt><trkpt lat="37.88162450326987" lon="15.120268727371078"><ele>552.3333333333333</ele><time>2026-04-19T06:00:17Z</time></trkpt><trkpt lat="37.88165602098978" lon="15.12008813066782"><ele>547.6666666666666</ele><time>2026-04-19T06:00:18Z</time></trkpt><trkpt lat="37.881690452753446" lon="15.119884877878679"><ele>543.0</ele><time>2026-04-19T06:00:19Z</time></trkpt><trkpt lat="37.88172312081427" lon="15.119692036280293"><ele>543.75</ele><time>2026-04-19T06:00:20Z</time></trkpt><trkpt lat="37.88175556160141" lon="15.119506959649627"><ele>544.5</ele><time>2026-04-19T06:00:21Z</time></trkpt><trkpt lat="37.88178589588078" lon="15.119332366253206"><ele>545.25</ele><time>2026-04-19T06:00:22Z</time></trkpt><trkpt lat="37.8818023294105" lon="15.119187810496639"><ele>546.0</ele><time>2026-04-19T06:00:23Z</time></trkpt><trkpt lat="37.88182409337932" lon="15.119070170816155"><ele>541.8</ele><time>2026-04-19T06:00:24Z</time></trkpt><trkpt lat="37.88183554589182" lon="15.118971308628202"><ele>537.6</ele><time>2026-04-19T06:00:25Z</time></trkpt><trkpt lat="37.881862875882774" lon="15.11888929663817"><ele>533.4</ele><time>2026-04-19T06:00:26Z</time></trkpt><trkpt lat="37.88181207804495" lon="15.118776313975884"><ele>529.2</ele><time>2026-04-19T06:00:28Z</time></trkpt><trkpt lat="37.88183665962579" lon="15.11890845456377"><ele>525.0</ele><time>2026-04-19T06:05:01Z</time></trkpt><trkpt lat="37.88184262675932" lon="15.119054768471752"><ele>526.5</ele><time>2026-04-19T06:05:03Z</time></trkpt><trkpt lat="37.88181432591199" lon="15.119180586425673"><ele>528.0</ele><time>2026-04-19T06:05:04Z</time></trkpt><trkpt lat="37.88175752024475" lon="15.119299282527288"><ele>529.5</ele><time>2026-04-19T06:05:05Z</time></trkpt><trkpt lat="37.881732487251156" lon="15.11944336362385"><ele>531.0</ele><time>2026-04-19T06:05:06Z</time></trkpt><trkpt lat="37.88170392584022" lon="15.11960775303681"><ele>531.0</ele><time>2026-04-19T06:05:07Z</time></trkpt><trkpt lat="37.88167157785315" lon="15.119793936633924"><ele>531.0</ele><time>2026-04-19T06:05:08Z</time></trkpt><trkpt lat="37.88163388763663" lon="15.120017579054137"><ele>531.0</ele><time>2026-04-19T06:05:09Z</time></trkpt><trkpt lat="37.88160001516997" lon="15.120216911652657"><ele>534.0</ele><time>2026-04-19T06:05:10Z</time></trkpt><trkpt lat="37.88156569410356" lon="15.120404048624893"><ele>537.0</ele><time>2026-04-19T06:05:11Z</time></trkpt><trkpt lat="37.881548203812514" lon="15.120570638933117"><ele>540.0</ele><time>2026-04-19T06:05:12Z</time></trkpt><trkpt lat="37.88156894507719" lon="15.120723309069193"><ele>543.0</ele><time>2026-04-19T06:05:13Z</time></trkpt><trkpt lat="37.881559616563" lon="15.120900483767416"><ele>547.6666666666666</ele><time>2026-04-19T06:05:14Z</time></trkpt><trkpt lat="37.881566675099116" lon="15.121099931347102"><ele>552.3333333333333</ele><time>2026-04-19T06:05:15Z</time></trkpt><trkpt lat="37.881571270912694" lon="15.121281759965477"><ele>557.0</ele><time>2026-04-19T06:05:16Z</time></trkpt><trkpt lat="37.88157313388946" lon="15.121476039330087"><ele>558.0</ele><time>2026-04-19T06:05:17Z</time></trkpt><trkpt lat="37.88156929947746" lon="15.121670898055745"><ele>559.0</ele><time>2026-04-19T06:05:18Z</time></trkpt><trkpt lat="37.8815595055353" lon="15.121829112574039"><ele>560.0</ele><time>2026-04-19T06:05:19Z</time></trkpt><trkpt lat="37.88153895036169" lon="15.121972212475367"><ele>561.0</ele><time>2026-04-19T06:05:20Z</time></trkpt><trkpt lat="37.881497874342074" lon="15.122044969899527"><ele>561.0</ele><time>2026-04-19T06:05:21Z</time></trkpt><trkpt lat="37.88144445789451" lon="15.122185225670615"><ele>561.0</ele><time>2026-04-19T06:05:22Z</time></trkpt><trkpt lat="37.88141386441205" lon="15.122322131711352"><ele>561.0</ele><time>2026-04-19T06:05:23Z</time></trkpt><trkpt lat="37.881360495800855" lon="15.122444006465846"><ele>561.0</ele><time>2026-04-19T06:05:24Z</time></trkpt><trkpt lat="37.881418181165955" lon="15.12264981772032"><ele>563.25</ele><time>2026-04-19T06:05:25Z</time></trkpt><trkpt lat="37.88140670292027" lon="15.12280090969616"><ele>565.5</ele><time>2026-04-19T06:05:26Z</time></trkpt><trkpt lat="37.88136639379251" lon="15.122944556305235"><ele>567.75</ele><time>2026-04-19T06:05:27Z</time></trkpt><trkpt lat="37.881279858189835" lon="15.123099492292637"><ele>570.0</ele><time>2026-04-19T06:05:28Z</time></trkpt><trkpt lat="37.88119083210827" lon="15.123310910035151"><ele>571.75</ele><time>2026-04-19T06:05:29Z</time></trkpt><trkpt lat="37.88113795281847" lon="15.123541310768955"><ele>573.5</ele><time>2026-04-19T06:05:30Z</time></trkpt><trkpt lat="37.88109475945845" lon="15.123699803622218"><ele>575.25</ele><time>2026-04-19T06:05:31Z</time></trkpt><trkpt lat="37.88105489973634" lon="15.12379449435328"><ele>577.0</ele><time>2026-04-19T06:05:32Z</time></trkpt><trkpt lat="37.881008556167785" lon="15.123868194903002"><ele>577.0</ele><time>2026-04-19T06:05:33Z</time></trkpt><trkpt lat="37.880956047565554" lon="15.123952694937035"><ele>577.0</ele><time>2026-04-19T06:05:34Z</time></trkpt><trkpt lat="37.88091255017993" lon="15.124028986156041"><ele>577.0</ele><time>2026-04-19T06:05:35Z</time></trkpt><trkpt lat="37.88088086439527" lon="15.124103677332185"><ele>577.0</ele><time>2026-04-19T06:05:36Z</time></trkpt><trkpt lat="37.880853670519926" lon="15.124227968610878"><ele>577.0</ele><time>2026-04-19T06:05:38Z</time></trkpt><trkpt lat="37.880704106691404" lon="15.124137117783674"><ele>574.6666666666667</ele><time>2026-04-19T06:05:41Z</time></trkpt><trkpt lat="37.88062356534338" lon="15.12413183071492"><ele>572.3333333333334</ele><time>2026-04-19T06:05:42Z</time></trkpt><trkpt lat="37.880529902757715" lon="15.12412409088783"><ele>570.0</ele><time>2026-04-19T06:05:43Z</time></trkpt><trkpt lat="37.88045278553677" lon="15.124121860563235"><ele>567.6666666666666</ele><time>2026-04-19T06:05:44Z</time></trkpt><trkpt lat="37.880380339436506" lon="15.124121970971999"><ele>565.3333333333333</ele><time>2026-04-19T06:05:45Z</time></trkpt><trkpt lat="37.88030708891796" lon="15.124095785924208"><ele>563.0</ele><time>2026-04-19T06:05:46Z</time></trkpt><trkpt lat="37.880198878797856" lon="15.124134309415512"><ele>561.0</ele><time>2026-04-19T06:05:47Z</time></trkpt><trkpt lat="37.88006164108742" lon="15.124112938251615"><ele>559.0</ele><time>2026-04-19T06:05:48Z</time></trkpt><trkpt lat="37.87993408946912" lon="15.12407905459688"><ele>557.0</ele><time>2026-04-19T06:05:49Z</time></trkpt><trkpt lat="37.8798160613413" lon="15.124057811262816"><ele>555.0</ele><time>2026-04-19T06:05:50Z</time></trkpt><trkpt lat="37.87972159779212" lon="15.124018274317228"><ele>553.8</ele><time>2026-04-19T06:05:51Z</time></trkpt><trkpt lat="37.8796643467283" lon="15.123954979457274"><ele>552.6</ele><time>2026-04-19T06:05:52Z</time></trkpt><trkpt lat="37.87965615577123" lon="15.123858534854808"><ele>551.4</ele><time>2026-04-19T06:05:53Z</time></trkpt><trkpt lat="37.87970376174439" lon="15.123721869891217"><ele>550.2</ele><time>2026-04-19T06:05:54Z</time></trkpt><trkpt lat="37.879687615193546" lon="15.123579765743516"><ele>549.0</ele><time>2026-04-19T06:05:55Z</time></trkpt><trkpt lat="37.87966993376478" lon="15.123421998832875"><ele>549.0</ele><time>2026-04-19T06:05:56Z</time></trkpt><trkpt lat="37.8796502902573" lon="15.123246724739028"><ele>549.0</ele><time>2026-04-19T06:05:57Z</time></trkpt><trkpt lat="37.879636752762266" lon="15.123108627302797"><ele>544.0</ele><time>2026-04-19T06:05:58Z</time></trkpt><trkpt lat="37.879624772622876" lon="15.122993392097047"><ele>544.0</ele><time>2026-04-19T06:05:59Z</time></trkpt><trkpt lat="37.87961458857921" lon="15.122886255570373"><ele>544.0</ele><time>2026-04-19T06:06:01Z</time></trkpt></trkseg><trkseg><trkpt lat="37.88040730285891" lon="15.124309037220073"><ele>563.0</ele><time>2026-04-19T06:28:30Z</time></trkpt><trkpt lat="37.88034678754695" lon="15.124410367686169"><ele>563.0</ele><time>2026-04-19T06:28:32Z</time></trkpt><trkpt lat="37.88029046663389" lon="15.124449451283272"><ele>563.0</ele><time>2026-04-19T06:28:33Z</time></trkpt><trkpt lat="37.880243143984394" lon="15.124509005980158"><ele>563.0</ele><time>2026-04-19T06:28:34Z</time></trkpt><trkpt lat="37.88019537764929" lon="15.124564457674552"><ele>563.0</ele><time>2026-04-19T06:28:35Z</time></trkpt><trkpt lat="37.880150047513006" lon="15.124626860549872"><ele>563.0</ele><time>2026-04-19T06:28:36Z</time></trkpt><trkpt lat="37.88007205982333" lon="15.124734069491524"><ele>562.5</ele><time>2026-04-19T06:28:38Z</time></trkpt><trkpt lat="37.87996907017974" lon="15.124809562432304"><ele>562.0</ele><time>2026-04-19T06:28:40Z</time></trkpt><trkpt lat="37.879868085230896" lon="15.124862058678929"><ele>561.5</ele><time>2026-04-19T06:28:42Z</time></trkpt><trkpt lat="37.88000928385012" lon="15.124960029049388"><ele>561.0</ele><time>2026-04-19T06:28:44Z</time></trkpt><trkpt lat="37.88011771895702" lon="15.125032603195637"><ele>560.25</ele><time>2026-04-19T06:28:46Z</time></trkpt><trkpt lat="37.88017429284977" lon="15.125082109792466"><ele>559.5</ele><time>2026-04-19T06:28:47Z</time></trkpt><trkpt lat="37.8802539025413" lon="15.12511131343676"><ele>558.75</ele><time>2026-04-19T06:28:48Z</time></trkpt><trkpt lat="37.880353866488385" lon="15.125177597521054"><ele>558.0</ele><time>2026-04-19T06:28:50Z</time></trkpt><trkpt lat="37.88030442419665" lon="15.125497468133583"><ele>558.0</ele><time>2026-04-19T06:28:52Z</time></trkpt><trkpt lat="37.88028181908709" lon="15.125618587156444"><ele>558.0</ele><time>2026-04-19T06:28:54Z</time></trkpt><trkpt lat="37.88023501159589" lon="15.125737223648516"><ele>558.0</ele><time>2026-04-19T06:28:56Z</time></trkpt><trkpt lat="37.88018812312428" lon="15.125872553922157"><ele>558.0</ele><time>2026-04-19T06:28:58Z</time></trkpt><trkpt lat="37.88015585353799" lon="15.125954537430612"><ele>558.0</ele><time>2026-04-19T06:28:59Z</time></trkpt><trkpt lat="37.8801166516633" lon="15.12603910919828"><ele>557.8</ele><time>2026-04-19T06:29:00Z</time></trkpt><trkpt lat="37.880081881087975" lon="15.12612268104382"><ele>557.5999999999999</ele><time>2026-04-19T06:29:01Z</time></trkpt><trkpt lat="37.880051258730546" lon="15.126199322390388"><ele>557.4000000000001</ele><time>2026-04-19T06:29:02Z</time></trkpt><trkpt lat="37.880027806619026" lon="15.126345848967844"><ele>557.2</ele><time>2026-04-19T06:29:04Z</time></trkpt><trkpt lat="37.880049293547025" lon="15.126490378172972"><ele>557.0</ele><time>2026-04-19T06:29:06Z</time></trkpt><trkpt lat="37.880043210460094" lon="15.12658313714978"><ele>555.0</ele><time>2026-04-19T06:29:08Z</time></trkpt></trkseg><trkseg><trkpt lat="37.880021191216045" lon="15.1264006116633"><ele>557.0</ele><time>2026-04-19T06:44:10.001Z</time></trkpt><trkpt lat="37.88006082252605" lon="15.126318016818795"><ele>557.0</ele><time>2026-04-19T06:44:11.001Z</time></trkpt><trkpt lat="37.88009964348613" lon="15.126170031583527"><ele>557.0</ele><time>2026-04-19T06:44:13.001Z</time></trkpt><trkpt lat="37.88012871454835" lon="15.126095687833821"><ele>557.0</ele><time>2026-04-19T06:44:14.001Z</time></trkpt><trkpt lat="37.88018493178916" lon="15.125956861282331"><ele>557.0</ele><time>2026-04-19T06:44:16.001Z</time></trkpt><trkpt lat="37.880214863231494" lon="15.125882661345894"><ele>557.2</ele><time>2026-04-19T06:44:17.001Z</time></trkpt><trkpt lat="37.88023380707939" lon="15.125805329277922"><ele>557.4000000000001</ele><time>2026-04-19T06:44:18.001Z</time></trkpt><trkpt lat="37.880263807252014" lon="15.125727036757167"><ele>557.5999999999999</ele><time>2026-04-19T06:44:19.001Z</time></trkpt><trkpt lat="37.88031710776278" lon="15.125588990669714"><ele>557.8</ele><time>2026-04-19T06:44:21.001Z</time></trkpt><trkpt lat="37.88037400546002" lon="15.125447220815133"><ele>558.0</ele><time>2026-04-19T06:44:23.001Z</time></trkpt><trkpt lat="37.88040556240958" lon="15.12536672129924"><ele>557.9999999999999</ele><time>2026-04-19T06:44:24.001Z</time></trkpt><trkpt lat="37.880439751841166" lon="15.125281751758473"><ele>558.0</ele><time>2026-04-19T06:44:25.001Z</time></trkpt><trkpt lat="37.880474487569764" lon="15.125204996587561"><ele>558.0</ele><time>2026-04-19T06:44:26.001Z</time></trkpt><trkpt lat="37.88050891725281" lon="15.12512452665063"><ele>558.0</ele><time>2026-04-19T06:44:27.001Z</time></trkpt><trkpt lat="37.880543554797946" lon="15.125037986976585"><ele>558.0</ele><time>2026-04-19T06:44:28.001Z</time></trkpt><trkpt lat="37.88057618459456" lon="15.124950048832233"><ele>557.9999999999999</ele><time>2026-04-19T06:44:29.001Z</time></trkpt><trkpt lat="37.88061402704521" lon="15.124868483890724"><ele>558.0</ele><time>2026-04-19T06:44:30.001Z</time></trkpt><trkpt lat="37.88065011931252" lon="15.12478665695354"><ele>558.7142857142857</ele><time>2026-04-19T06:44:31.001Z</time></trkpt><trkpt lat="37.88068648539964" lon="15.124710313196722"><ele>559.4285714285714</ele><time>2026-04-19T06:44:32.001Z</time></trkpt><trkpt lat="37.88072178516073" lon="15.12462440539139"><ele>560.1428571428571</ele><time>2026-04-19T06:44:32.999Z</time></trkpt><trkpt lat="37.8807562996789" lon="15.124543120779805"><ele>560.8571428571429</ele><time>2026-04-19T06:44:33.999Z</time></trkpt><trkpt lat="37.88077808485152" lon="15.124459331516675"><ele>561.5714285714286</ele><time>2026-04-19T06:44:34.999Z</time></trkpt><trkpt lat="37.880815091082454" lon="15.124380984056998"><ele>562.2857142857142</ele><time>2026-04-19T06:44:35.999Z</time></trkpt><trkpt lat="37.880853353853254" lon="15.124316863874967"><ele>563.0</ele><time>2026-04-19T06:44:36.999Z</time></trkpt><trkpt lat="37.88087355789137" lon="15.124189240546118"><ele>563.8</ele><time>2026-04-19T06:44:38.999Z</time></trkpt><trkpt lat="37.88093292164618" lon="15.12406726679656"><ele>564.5999999999999</ele><time>2026-04-19T06:44:40.999Z</time></trkpt><trkpt lat="37.88096969945055" lon="15.12400076656963"><ele>565.4000000000001</ele><time>2026-04-19T06:44:41.999Z</time></trkpt><trkpt lat="37.88101420486296" lon="15.123928787078237"><ele>566.2</ele><time>2026-04-19T06:44:42.999Z</time></trkpt><trkpt lat="37.881058086311" lon="15.123852335985111"><ele>567.0</ele><time>2026-04-19T06:44:43.999Z</time></trkpt><trkpt lat="37.88113128384729" lon="15.123714649245976"><ele>567.5</ele><time>2026-04-19T06:44:45.999Z</time></trkpt><trkpt lat="37.88117195497124" lon="15.123638034188263"><ele>568.0</ele><time>2026-04-19T06:44:46.999Z</time></trkpt><trkpt lat="37.88116564803196" lon="15.123516650908707"><ele>568.5</ele><time>2026-04-19T06:44:47.999Z</time></trkpt><trkpt lat="37.881186171657035" lon="15.123412087472603"><ele>569.0</ele><time>2026-04-19T06:44:49Z</time></trkpt><trkpt lat="37.88122135306105" lon="15.123313681033167"><ele>569.5</ele><time>2026-04-19T06:44:50Z</time></trkpt><trkpt lat="37.88125583013765" lon="15.123211937549577"><ele>570.0</ele><time>2026-04-19T06:44:51Z</time></trkpt><trkpt lat="37.88128753777987" lon="15.123104528463857"><ele>570.0</ele><time>2026-04-19T06:44:52Z</time></trkpt><trkpt lat="37.88132115468888" lon="15.1230044375483"><ele>570.0</ele><time>2026-04-19T06:44:53Z</time></trkpt><trkpt lat="37.881350482317366" lon="15.122916359314653"><ele>570.0</ele><time>2026-04-19T06:44:54Z</time></trkpt><trkpt lat="37.88137643051718" lon="15.122835398073338"><ele>570.0</ele><time>2026-04-19T06:44:55Z</time></trkpt><trkpt lat="37.88142870078654" lon="15.12268871447044"><ele>570.0</ele><time>2026-04-19T06:44:57Z</time></trkpt><trkpt lat="37.88142980740198" lon="15.122601529811751"><ele>570.0</ele><time>2026-04-19T06:44:58Z</time></trkpt><trkpt lat="37.8814552104993" lon="15.122522550584627"><ele>570.0</ele><time>2026-04-19T06:44:59Z</time></trkpt><trkpt lat="37.88144244016296" lon="15.122435231913453"><ele>570.0</ele><time>2026-04-19T06:45:00Z</time></trkpt><trkpt lat="37.881439376203325" lon="15.12234857557329"><ele>570.0</ele><time>2026-04-19T06:45:01Z</time></trkpt><trkpt lat="37.88148062059745" lon="15.122178886437354"><ele>570.0</ele><time>2026-04-19T06:45:03Z</time></trkpt><trkpt lat="37.88150397499582" lon="15.122095774715104"><ele>570.0</ele><time>2026-04-19T06:45:04Z</time></trkpt><trkpt lat="37.88154619195316" lon="15.122022568558933"><ele>570.0</ele><time>2026-04-19T06:45:05Z</time></trkpt><trkpt lat="37.881575409934236" lon="15.121944877399693"><ele>568.5</ele><time>2026-04-19T06:45:06Z</time></trkpt><trkpt lat="37.88159228372363" lon="15.12186425159495"><ele>567.0</ele><time>2026-04-19T06:45:07Z</time></trkpt><trkpt lat="37.88157791353143" lon="15.121767898462945"><ele>565.5</ele><time>2026-04-19T06:45:08Z</time></trkpt><trkpt lat="37.8816165349092" lon="15.121620239777492"><ele>564.0</ele><time>2026-04-19T06:45:10Z</time></trkpt><trkpt lat="37.881607824031434" lon="15.121522562722364"><ele>562.5</ele><time>2026-04-19T06:45:11Z</time></trkpt><trkpt lat="37.88160002394525" lon="15.121440274641289"><ele>561.0</ele><time>2026-04-19T06:45:12Z</time></trkpt><trkpt lat="37.88159381055028" lon="15.121357271608405"><ele>560.3333333333334</ele><time>2026-04-19T06:45:13Z</time></trkpt><trkpt lat="37.88159718976883" lon="15.121274959736775"><ele>559.6666666666666</ele><time>2026-04-19T06:45:14Z</time></trkpt><trkpt lat="37.881595559581726" lon="15.121192605757265"><ele>559.0</ele><time>2026-04-19T06:45:15Z</time></trkpt><trkpt lat="37.881595408052064" lon="15.121110589565573"><ele>558.3333333333333</ele><time>2026-04-19T06:45:16Z</time></trkpt><trkpt lat="37.8815993093506" lon="15.121026761675406"><ele>557.6666666666666</ele><time>2026-04-19T06:45:17Z</time></trkpt><trkpt lat="37.8815772819154" lon="15.12086653869191"><ele>557.0</ele><time>2026-04-19T06:45:19Z</time></trkpt><trkpt lat="37.88158594524349" lon="15.120712448163143"><ele>553.5</ele><time>2026-04-19T06:45:21.001Z</time></trkpt><trkpt lat="37.88156901453531" lon="15.120559457914785"><ele>550.0</ele><time>2026-04-19T06:45:23.001Z</time></trkpt><trkpt lat="37.881596307666975" lon="15.120421528704037"><ele>546.5</ele><time>2026-04-19T06:45:25.001Z</time></trkpt><trkpt lat="37.8816246760899" lon="15.120267811255186"><ele>543.0</ele><time>2026-04-19T06:45:27.001Z</time></trkpt><trkpt lat="37.88165069591987" lon="15.120119564814587"><ele>543.0</ele><time>2026-04-19T06:45:29.001Z</time></trkpt><trkpt lat="37.88167289318956" lon="15.119988532985905"><ele>543.0</ele><time>2026-04-19T06:45:31.001Z</time></trkpt><trkpt lat="37.88168985845882" lon="15.119888385954377"><ele>543.0</ele><time>2026-04-19T06:45:33.001Z</time></trkpt><trkpt lat="37.8817034640973" lon="15.119808071054456"><ele>543.0</ele><time>2026-04-19T06:45:37.001Z</time></trkpt><trkpt lat="37.88171746861917" lon="15.119725401471753"><ele>543.0</ele><time>2026-04-19T06:45:41.001Z</time></trkpt><trkpt lat="37.8817317030048" lon="15.119644281196123"><ele>543.0</ele><time>2026-04-19T06:45:42.001Z</time></trkpt><trkpt lat="37.881747201794354" lon="15.119555075641925"><ele>543.5</ele><time>2026-04-19T06:45:43.001Z</time></trkpt><trkpt lat="37.88176319320692" lon="15.11946303473493"><ele>544.0</ele><time>2026-04-19T06:45:44.001Z</time></trkpt><trkpt lat="37.881780087016814" lon="15.119365799945058"><ele>544.5</ele><time>2026-04-19T06:45:45.001Z</time></trkpt><trkpt lat="37.881797682797526" lon="15.119264524854982"><ele>545.0</ele><time>2026-04-19T06:45:46.001Z</time></trkpt><trkpt lat="37.881815305632166" lon="15.119163094055954"><ele>545.5</ele><time>2026-04-19T06:45:47.001Z</time></trkpt><trkpt lat="37.881833151393074" lon="15.119060380176403"><ele>546.0</ele><time>2026-04-19T06:45:48.001Z</time></trkpt><trkpt lat="37.88185136162772" lon="15.118955568506404"><ele>542.5</ele><time>2026-04-19T06:45:49.001Z</time></trkpt><trkpt lat="37.881869128812596" lon="15.118853306936098"><ele>539.0</ele><time>2026-04-19T06:45:50.001Z</time></trkpt><trkpt lat="37.88184471237446" lon="15.118736664842048"><ele>535.5</ele><time>2026-04-19T06:45:51.001Z</time></trkpt><trkpt lat="37.88186789175102" lon="15.11863949685162"><ele>532.0</ele><time>2026-04-19T06:45:52.001Z</time></trkpt><trkpt lat="37.881884901626265" lon="15.118541419260996"><ele>528.5</ele><time>2026-04-19T06:45:53Z</time></trkpt><trkpt lat="37.88190981912872" lon="15.118442638865938"><ele>525.0</ele><time>2026-04-19T06:45:54Z</time></trkpt><trkpt lat="37.88192170462446" lon="15.11834595123209"><ele>525.0</ele><time>2026-04-19T06:45:55Z</time></trkpt><trkpt lat="37.881997193362125" lon="15.118301615757673"><ele>525.0</ele><time>2026-04-19T06:45:56Z</time></trkpt><trkpt lat="37.88207818434647" lon="15.118333389228983"><ele>525.0</ele><time>2026-04-19T06:45:57Z</time></trkpt><trkpt lat="37.88216498983435" lon="15.118337436290423"><ele>525.0</ele><time>2026-04-19T06:45:58Z</time></trkpt><trkpt lat="37.88222906113294" lon="15.118384360047763"><ele>525.0</ele><time>2026-04-19T06:45:59Z</time></trkpt><trkpt lat="37.882287388251065" lon="15.118432930936416"><ele>525.0</ele><time>2026-04-19T06:46:00Z</time></trkpt><trkpt lat="37.882345733266156" lon="15.118468848830904"><ele>525.0</ele><time>2026-04-19T06:46:01Z</time></trkpt><trkpt lat="37.88240883595071" lon="15.118509752733262"><ele>525.0</ele><time>2026-04-19T06:46:02Z</time></trkpt><trkpt lat="37.88247902705409" lon="15.11854958031739"><ele>525.0</ele><time>2026-04-19T06:46:03Z</time></trkpt><trkpt lat="37.88255598308026" lon="15.118588860421514"><ele>525.0</ele><time>2026-04-19T06:46:04Z</time></trkpt><trkpt lat="37.882638141979555" lon="15.118651520611746"><ele>525.0</ele><time>2026-04-19T06:46:05Z</time></trkpt><trkpt lat="37.882718696333676" lon="15.118710231751882"><ele>525.0</ele><time>2026-04-19T06:46:06Z</time></trkpt><trkpt lat="37.882798342395105" lon="15.118764266611098"><ele>524.0</ele><time>2026-04-19T06:46:07Z</time></trkpt><trkpt lat="37.88287491532197" lon="15.118800668519874"><ele>523.0</ele><time>2026-04-19T06:46:08Z</time></trkpt><trkpt lat="37.882956327446436" lon="15.11881749978838"><ele>522.0</ele><time>2026-04-19T06:46:09Z</time></trkpt><trkpt lat="37.88304120686597" lon="15.11881636823556"><ele>521.0</ele><time>2026-04-19T06:46:10Z</time></trkpt><trkpt lat="37.88312047393532" lon="15.118804625497573"><ele>520.0</ele><time>2026-04-19T06:46:11.001Z</time></trkpt><trkpt lat="37.88319776243169" lon="15.118780466003267"><ele>519.0</ele><time>2026-04-19T06:46:12.001Z</time></trkpt><trkpt lat="37.88326475783983" lon="15.118731254550815"><ele>519.0</ele><time>2026-04-19T06:46:13.001Z</time></trkpt><trkpt lat="37.88331371536237" lon="15.118653595263183"><ele>519.0</ele><time>2026-04-19T06:46:14.001Z</time></trkpt><trkpt lat="37.88337252821932" lon="15.11856778003141"><ele>519.0</ele><time>2026-04-19T06:46:15.001Z</time></trkpt><trkpt lat="37.883422398247355" lon="15.118469111488212"><ele>519.0</ele><time>2026-04-19T06:46:16.001Z</time></trkpt><trkpt lat="37.88347025521207" lon="15.118370564455182"><ele>519.0</ele><time>2026-04-19T06:46:17.001Z</time></trkpt><trkpt lat="37.88349765460235" lon="15.118256797957486"><ele>519.0</ele><time>2026-04-19T06:46:18.001Z</time></trkpt><trkpt lat="37.883552289764346" lon="15.11816260324624"><ele>515.8</ele><time>2026-04-19T06:46:19.001Z</time></trkpt><trkpt lat="37.883577510099684" lon="15.118049846866247"><ele>512.5999999999999</ele><time>2026-04-19T06:46:20.001Z</time></trkpt><trkpt lat="37.88362670979641" lon="15.117945436755873"><ele>509.4</ele><time>2026-04-19T06:46:21.001Z</time></trkpt><trkpt lat="37.883701120706725" lon="15.117867652988563"><ele>506.2</ele><time>2026-04-19T06:46:22.001Z</time></trkpt><trkpt lat="37.88377639378878" lon="15.117802539545364"><ele>503.0</ele><time>2026-04-19T06:46:23.001Z</time></trkpt><trkpt lat="37.88387686959835" lon="15.117783903325607"><ele>503.0</ele><time>2026-04-19T06:46:24.001Z</time></trkpt><trkpt lat="37.88397898429736" lon="15.117792617778386"><ele>502.99999999999994</ele><time>2026-04-19T06:46:25.001Z</time></trkpt><trkpt lat="37.88408712500486" lon="15.117805476207181"><ele>502.99999999999994</ele><time>2026-04-19T06:46:26.001Z</time></trkpt><trkpt lat="37.884200741465335" lon="15.117814315909088"><ele>503.0</ele><time>2026-04-19T06:46:27.001Z</time></trkpt><trkpt lat="37.884314945456545" lon="15.117814364509393"><ele>503.0</ele><time>2026-04-19T06:46:28.001Z</time></trkpt><trkpt lat="37.88442723490308" lon="15.117812664728095"><ele>501.0</ele><time>2026-04-19T06:46:29.001Z</time></trkpt><trkpt lat="37.88453416221725" lon="15.11780855099049"><ele>498.99999999999994</ele><time>2026-04-19T06:46:30.001Z</time></trkpt><trkpt lat="37.88463182166879" lon="15.117813932190456"><ele>496.99999999999994</ele><time>2026-04-19T06:46:31.001Z</time></trkpt><trkpt lat="37.88471709111231" lon="15.117779832455406"><ele>495.0</ele><time>2026-04-19T06:46:32.001Z</time></trkpt><trkpt lat="37.88477802203903" lon="15.117702939465739"><ele>493.0</ele><time>2026-04-19T06:46:33.001Z</time></trkpt><trkpt lat="37.884792015945706" lon="15.117587347110517"><ele>493.0</ele><time>2026-04-19T06:46:34.001Z</time></trkpt><trkpt lat="37.884750546472276" lon="15.11747940288664"><ele>492.99999999999994</ele><time>2026-04-19T06:46:35.001Z</time></trkpt><trkpt lat="37.88466153532315" lon="15.11741779509259"><ele>492.99999999999994</ele><time>2026-04-19T06:46:36.001Z</time></trkpt><trkpt lat="37.88456091386638" lon="15.117412189200884"><ele>493.0</ele><time>2026-04-19T06:46:37.001Z</time></trkpt><trkpt lat="37.88445899106525" lon="15.117460087596413"><ele>493.0</ele><time>2026-04-19T06:46:38.001Z</time></trkpt><trkpt lat="37.884359430967194" lon="15.117533678545138"><ele>495.0</ele><time>2026-04-19T06:46:38.998Z</time></trkpt><trkpt lat="37.8842585045809" lon="15.117529479031598"><ele>496.99999999999994</ele><time>2026-04-19T06:46:39.998Z</time></trkpt><trkpt lat="37.88416102223211" lon="15.117477196289105"><ele>498.99999999999994</ele><time>2026-04-19T06:46:40.998Z</time></trkpt><trkpt lat="37.88411047817634" lon="15.117380319100594"><ele>501.0</ele><time>2026-04-19T06:46:41.998Z</time></trkpt><trkpt lat="37.884050705513324" lon="15.11728065554908"><ele>503.0</ele><time>2026-04-19T06:46:42.998Z</time></trkpt><trkpt lat="37.88402623119407" lon="15.11715721415541"><ele>498.79999999999995</ele><time>2026-04-19T06:46:43.998Z</time></trkpt><trkpt lat="37.884008944556655" lon="15.117050225486638"><ele>494.59999999999997</ele><time>2026-04-19T06:46:44.998Z</time></trkpt><trkpt lat="37.88393191200478" lon="15.116988253591488"><ele>490.40000000000003</ele><time>2026-04-19T06:46:45.998Z</time></trkpt><trkpt lat="37.88384804810169" lon="15.116996232592612"><ele>486.20000000000005</ele><time>2026-04-19T06:46:46.998Z</time></trkpt><trkpt lat="37.88376064217686" lon="15.11704223610112"><ele>482.0</ele><time>2026-04-19T06:46:47.998Z</time></trkpt><trkpt lat="37.88366386281097" lon="15.117081224300412"><ele>482.0</ele><time>2026-04-19T06:46:48.998Z</time></trkpt><trkpt lat="37.88355507616244" lon="15.117122464391912"><ele>482.0</ele><time>2026-04-19T06:46:49.998Z</time></trkpt><trkpt lat="37.88343771474349" lon="15.117176474089383"><ele>482.0</ele><time>2026-04-19T06:46:50.998Z</time></trkpt><trkpt lat="37.883316366942786" lon="15.117240071290762"><ele>482.0</ele><time>2026-04-19T06:46:51.998Z</time></trkpt><trkpt lat="37.883201868974645" lon="15.117305649101533"><ele>481.20000000000005</ele><time>2026-04-19T06:46:52.999Z</time></trkpt><trkpt lat="37.88309041482765" lon="15.117367001459808"><ele>480.40000000000003</ele><time>2026-04-19T06:46:53.999Z</time></trkpt><trkpt lat="37.8829732200544" lon="15.117372262308548"><ele>479.59999999999997</ele><time>2026-04-19T06:46:54.999Z</time></trkpt><trkpt lat="37.88286206970849" lon="15.11737850891283"><ele>478.79999999999995</ele><time>2026-04-19T06:46:55.999Z</time></trkpt><trkpt lat="37.8827731576857" lon="15.117360960884389"><ele>478.0</ele><time>2026-04-19T06:46:56.999Z</time></trkpt><trkpt lat="37.88269200022214" lon="15.117320153384345"><ele>478.0</ele><time>2026-04-19T06:46:57.999Z</time></trkpt><trkpt lat="37.882689830324395" lon="15.117175476199666"><ele>478.0</ele><time>2026-04-19T06:46:58.999Z</time></trkpt><trkpt lat="37.88263738636447" lon="15.117045630806313"><ele>478.0</ele><time>2026-04-19T06:46:59.999Z</time></trkpt><trkpt lat="37.88257777637846" lon="15.116911130836735"><ele>478.0</ele><time>2026-04-19T06:47:00.999Z</time></trkpt><trkpt lat="37.88253469250019" lon="15.11675063670613"><ele>476.6666666666667</ele><time>2026-04-19T06:47:01.999Z</time></trkpt><trkpt lat="37.882518161880746" lon="15.116571576289651"><ele>475.33333333333337</ele><time>2026-04-19T06:47:02.999Z</time></trkpt><trkpt lat="37.88247392425526" lon="15.1163871052768"><ele>474.0</ele><time>2026-04-19T06:47:03.999Z</time></trkpt><trkpt lat="37.88242509224779" lon="15.116195476541893"><ele>474.0</ele><time>2026-04-19T06:47:04.999Z</time></trkpt><trkpt lat="37.88235063460529" lon="15.116023992833599"><ele>474.0</ele><time>2026-04-19T06:47:05.999Z</time></trkpt><trkpt lat="37.88228592119574" lon="15.115861811473362"><ele>474.0</ele><time>2026-04-19T06:47:06.999Z</time></trkpt><trkpt lat="37.88224952208092" lon="15.115691433097824"><ele>474.0</ele><time>2026-04-19T06:47:07.999Z</time></trkpt><trkpt lat="37.88223294905617" lon="15.115530547720388"><ele>471.5</ele><time>2026-04-19T06:47:08.999Z</time></trkpt><trkpt lat="37.88223277215314" lon="15.115353029502424"><ele>469.0</ele><time>2026-04-19T06:47:09.999Z</time></trkpt><trkpt lat="37.88223566740261" lon="15.115184897936867"><ele>466.5</ele><time>2026-04-19T06:47:10.999Z</time></trkpt><trkpt lat="37.88224357995233" lon="15.115033138454528"><ele>464.0</ele><time>2026-04-19T06:47:11.999Z</time></trkpt><trkpt lat="37.882211009539446" lon="15.114878824282584"><ele>461.25</ele><time>2026-04-19T06:47:12.999Z</time></trkpt><trkpt lat="37.882136354399506" lon="15.114753945961068"><ele>458.5</ele><time>2026-04-19T06:47:13.999Z</time></trkpt><trkpt lat="37.88203699550114" lon="15.114655639179121"><ele>455.75</ele><time>2026-04-19T06:47:14.999Z</time></trkpt><trkpt lat="37.88192530720368" lon="15.11456807266962"><ele>453.0</ele><time>2026-04-19T06:47:15.999Z</time></trkpt><trkpt lat="37.881821631161635" lon="15.114458639108538"><ele>455.5</ele><time>2026-04-19T06:47:16.999Z</time></trkpt><trkpt lat="37.881698704196495" lon="15.114381466776537"><ele>458.0</ele><time>2026-04-19T06:47:17.999Z</time></trkpt><trkpt lat="37.88158590831281" lon="15.114285381821462"><ele>460.5</ele><time>2026-04-19T06:47:18.999Z</time></trkpt><trkpt lat="37.881475854177644" lon="15.114198396902161"><ele>463.0</ele><time>2026-04-19T06:47:19.999Z</time></trkpt><trkpt lat="37.88137119978125" lon="15.114115557628645"><ele>459.6666666666667</ele><time>2026-04-19T06:47:21Z</time></trkpt><trkpt lat="37.88128166077776" lon="15.114052653606063"><ele>456.33333333333337</ele><time>2026-04-19T06:47:22Z</time></trkpt><trkpt lat="37.88122741649418" lon="15.113983637204884"><ele>453.0</ele><time>2026-04-19T06:47:23Z</time></trkpt><trkpt lat="37.881199914986176" lon="15.11390060519611"><ele>449.66666666666663</ele><time>2026-04-19T06:47:25Z</time></trkpt><trkpt lat="37.88126043953619" lon="15.113864487872974"><ele>446.3333333333333</ele><time>2026-04-19T06:47:26Z</time></trkpt><trkpt lat="37.88134130987086" lon="15.113875131054465"><ele>443.0</ele><time>2026-04-19T06:47:27Z</time></trkpt><trkpt lat="37.881437441318106" lon="15.113957761465654"><ele>443.0</ele><time>2026-04-19T06:47:28Z</time></trkpt><trkpt lat="37.88154016048064" lon="15.114039963891203"><ele>443.0</ele><time>2026-04-19T06:47:29Z</time></trkpt><trkpt lat="37.88165919365162" lon="15.114113722070366"><ele>443.0</ele><time>2026-04-19T06:47:30Z</time></trkpt><trkpt lat="37.881800708846896" lon="15.114166355153829"><ele>443.0</ele><time>2026-04-19T06:47:31Z</time></trkpt><trkpt lat="37.881945320996664" lon="15.114168936089344"><ele>445.5</ele><time>2026-04-19T06:47:32Z</time></trkpt><trkpt lat="37.88208191346716" lon="15.114140256742518"><ele>448.0</ele><time>2026-04-19T06:47:33Z</time></trkpt><trkpt lat="37.88221179354494" lon="15.114096565063132"><ele>450.5</ele><time>2026-04-19T06:47:34Z</time></trkpt><trkpt lat="37.88234019376022" lon="15.114072174464578"><ele>453.0</ele><time>2026-04-19T06:47:35Z</time></trkpt><trkpt lat="37.88245759082755" lon="15.114072418502266"><ele>453.0</ele><time>2026-04-19T06:47:36Z</time></trkpt><trkpt lat="37.88253862936436" lon="15.114160092517468"><ele>452.99999999999994</ele><time>2026-04-19T06:47:37Z</time></trkpt><trkpt lat="37.88265973032417" lon="15.114245039196875"><ele>452.99999999999994</ele><time>2026-04-19T06:47:38Z</time></trkpt><trkpt lat="37.88274365409178" lon="15.114300960016125"><ele>453.0</ele><time>2026-04-19T06:47:39Z</time></trkpt><trkpt lat="37.88280718372602" lon="15.114342593771338"><ele>453.0</ele><time>2026-04-19T06:47:40Z</time></trkpt><trkpt lat="37.88288344563679" lon="15.114375110329213"><ele>451.59999999999997</ele><time>2026-04-19T06:47:42Z</time></trkpt><trkpt lat="37.88296183771003" lon="15.114152555417188"><ele>450.19999999999993</ele><time>2026-04-19T06:47:43Z</time></trkpt><trkpt lat="37.882962656153445" lon="15.114043617692642"><ele>448.8</ele><time>2026-04-19T06:47:44Z</time></trkpt><trkpt lat="37.88295588151024" lon="15.113933828127543"><ele>447.4</ele><time>2026-04-19T06:47:45Z</time></trkpt><trkpt lat="37.882945020020294" lon="15.113832569800103"><ele>446.0</ele><time>2026-04-19T06:47:46Z</time></trkpt><trkpt lat="37.88292294929729" lon="15.113732110938333"><ele>446.0</ele><time>2026-04-19T06:47:47Z</time></trkpt><trkpt lat="37.88286897900792" lon="15.113634740961068"><ele>446.0</ele><time>2026-04-19T06:47:48Z</time></trkpt><trkpt lat="37.88278467434325" lon="15.113535382867097"><ele>446.0</ele><time>2026-04-19T06:47:49Z</time></trkpt><trkpt lat="37.88270876566078" lon="15.113431245220369"><ele>446.0</ele><time>2026-04-19T06:47:50Z</time></trkpt><trkpt lat="37.88265877870009" lon="15.113298953758518"><ele>446.0</ele><time>2026-04-19T06:47:51Z</time></trkpt><trkpt lat="37.882611246948734" lon="15.113170671688092"><ele>443.75</ele><time>2026-04-19T06:47:52Z</time></trkpt><trkpt lat="37.8825759483298" lon="15.113028606003855"><ele>441.5</ele><time>2026-04-19T06:47:53Z</time></trkpt><trkpt lat="37.88255606854821" lon="15.112874426940119"><ele>439.25</ele><time>2026-04-19T06:47:54Z</time></trkpt><trkpt lat="37.8825440127615" lon="15.112709959548956"><ele>437.0</ele><time>2026-04-19T06:47:55Z</time></trkpt><trkpt lat="37.88254031200598" lon="15.112534998419747"><ele>435.66666666666663</ele><time>2026-04-19T06:47:56Z</time></trkpt><trkpt lat="37.88252135803652" lon="15.1123371130795"><ele>434.33333333333337</ele><time>2026-04-19T06:47:57Z</time></trkpt><trkpt lat="37.8825179952952" lon="15.112123274309145"><ele>433.0</ele><time>2026-04-19T06:47:58Z</time></trkpt><trkpt lat="37.88250712006432" lon="15.11192189164321"><ele>433.0</ele><time>2026-04-19T06:47:59Z</time></trkpt><trkpt lat="37.88251637723084" lon="15.111719213819724"><ele>433.0</ele><time>2026-04-19T06:48:00Z</time></trkpt><trkpt lat="37.882508965529176" lon="15.111506372062742"><ele>433.0</ele><time>2026-04-19T06:48:01Z</time></trkpt><trkpt lat="37.88248240399164" lon="15.111286913083632"><ele>432.6666666666667</ele><time>2026-04-19T06:48:02Z</time></trkpt><trkpt lat="37.88247185546116" lon="15.111058574591105"><ele>432.33333333333337</ele><time>2026-04-19T06:48:03Z</time></trkpt><trkpt lat="37.882470944677635" lon="15.110825439376695"><ele>432.0</ele><time>2026-04-19T06:48:04Z</time></trkpt><trkpt lat="37.8824478885485" lon="15.110594182476348"><ele>432.0</ele><time>2026-04-19T06:48:05Z</time></trkpt><trkpt lat="37.88240345877836" lon="15.110367646786734"><ele>432.0</ele><time>2026-04-19T06:48:06.001Z</time></trkpt><trkpt lat="37.882406017415" lon="15.110136669324195"><ele>432.0</ele><time>2026-04-19T06:48:07.001Z</time></trkpt><trkpt lat="37.882412015139" lon="15.109904750462595"><ele>432.66666666666663</ele><time>2026-04-19T06:48:08.001Z</time></trkpt><trkpt lat="37.882422293413185" lon="15.109673334788669"><ele>433.3333333333333</ele><time>2026-04-19T06:48:09.001Z</time></trkpt><trkpt lat="37.88248555769037" lon="15.10945381858145"><ele>434.0</ele><time>2026-04-19T06:48:10.001Z</time></trkpt><trkpt lat="37.88252207832172" lon="15.109221805226694"><ele>434.66666666666663</ele><time>2026-04-19T06:48:11.001Z</time></trkpt><trkpt lat="37.88257315250102" lon="15.108999203240256"><ele>435.33333333333337</ele><time>2026-04-19T06:48:12.001Z</time></trkpt><trkpt lat="37.882617209155256" lon="15.108778794898218"><ele>436.0</ele><time>2026-04-19T06:48:13.001Z</time></trkpt><trkpt lat="37.882663138779805" lon="15.108562038259782"><ele>433.33333333333337</ele><time>2026-04-19T06:48:14.001Z</time></trkpt><trkpt lat="37.88270584035272" lon="15.108340327990302"><ele>430.66666666666663</ele><time>2026-04-19T06:48:15.001Z</time></trkpt><trkpt lat="37.88275063267517" lon="15.108114147178005"><ele>428.0</ele><time>2026-04-19T06:48:16.001Z</time></trkpt><trkpt lat="37.88280063884307" lon="15.107885852645255"><ele>427.0</ele><time>2026-04-19T06:48:17.001Z</time></trkpt><trkpt lat="37.88286790033632" lon="15.107665250159968"><ele>426.0</ele><time>2026-04-19T06:48:18.001Z</time></trkpt><trkpt lat="37.882904306962885" lon="15.107434111527017"><ele>425.0</ele><time>2026-04-19T06:48:19.001Z</time></trkpt><trkpt lat="37.88295776113434" lon="15.107210041983391"><ele>425.0</ele><time>2026-04-19T06:48:20.001Z</time></trkpt><trkpt lat="37.883009790447545" lon="15.106991499240802"><ele>425.0</ele><time>2026-04-19T06:48:21.001Z</time></trkpt><trkpt lat="37.88306491230454" lon="15.10677548774177"><ele>425.0</ele><time>2026-04-19T06:48:22.001Z</time></trkpt><trkpt lat="37.88312170874777" lon="15.106564943919116"><ele>425.0</ele><time>2026-04-19T06:48:23.001Z</time></trkpt><trkpt lat="37.883182271937336" lon="15.106354837228928"><ele>425.0</ele><time>2026-04-19T06:48:24.001Z</time></trkpt><trkpt lat="37.88324477720409" lon="15.106141928898587"><ele>425.0</ele><time>2026-04-19T06:48:25.001Z</time></trkpt><trkpt lat="37.883311413003106" lon="15.105933212934595"><ele>424.66666666666663</ele><time>2026-04-19T06:48:26.001Z</time></trkpt><trkpt lat="37.88337780841159" lon="15.10571975840964"><ele>424.33333333333337</ele><time>2026-04-19T06:48:27.001Z</time></trkpt><trkpt lat="37.88344301375423" lon="15.105504382361694"><ele>424.0</ele><time>2026-04-19T06:48:28.001Z</time></trkpt><trkpt lat="37.88350911026239" lon="15.105288100650556"><ele>424.0</ele><time>2026-04-19T06:48:29.001Z</time></trkpt><trkpt lat="37.883573397076255" lon="15.105074391117263"><ele>424.0</ele><time>2026-04-19T06:48:30.001Z</time></trkpt><trkpt lat="37.88363939219788" lon="15.104860006223396"><ele>424.0</ele><time>2026-04-19T06:48:31.001Z</time></trkpt><trkpt lat="37.88370298527456" lon="15.104649717502234"><ele>425.33333333333337</ele><time>2026-04-19T06:48:32.001Z</time></trkpt><trkpt lat="37.88376597397673" lon="15.104436321894953"><ele>426.66666666666663</ele><time>2026-04-19T06:48:33.001Z</time></trkpt><trkpt lat="37.883832143993835" lon="15.104226181079888"><ele>428.0</ele><time>2026-04-19T06:48:34.001Z</time></trkpt><trkpt lat="37.883897700105884" lon="15.10401530294"><ele>429.0</ele><time>2026-04-19T06:48:35.001Z</time></trkpt><trkpt lat="37.88396406434285" lon="15.103802236743494"><ele>430.0</ele><time>2026-04-19T06:48:36.001Z</time></trkpt><trkpt lat="37.884037650058396" lon="15.103590532694824"><ele>431.0</ele><time>2026-04-19T06:48:37.001Z</time></trkpt><trkpt lat="37.88413621121889" lon="15.10339742646716"><ele>430.66666666666663</ele><time>2026-04-19T06:48:38.001Z</time></trkpt><trkpt lat="37.88423355557562" lon="15.103204205265007"><ele>430.33333333333337</ele><time>2026-04-19T06:48:39.001Z</time></trkpt><trkpt lat="37.884329098673255" lon="15.103006947121532"><ele>430.0</ele><time>2026-04-19T06:48:40.001Z</time></trkpt><trkpt lat="37.884445230795066" lon="15.102827181911033"><ele>430.0</ele><time>2026-04-19T06:48:41.001Z</time></trkpt><trkpt lat="37.88455800821467" lon="15.102643357615278"><ele>430.0</ele><time>2026-04-19T06:48:42.001Z</time></trkpt><trkpt lat="37.88466608294514" lon="15.102448111624051"><ele>430.0</ele><time>2026-04-19T06:48:43.001Z</time></trkpt><trkpt lat="37.8847750414059" lon="15.102259251243161"><ele>431.33333333333337</ele><time>2026-04-19T06:48:44.001Z</time></trkpt><trkpt lat="37.8848904246521" lon="15.10207062214137"><ele>432.66666666666663</ele><time>2026-04-19T06:48:44.999Z</time></trkpt><trkpt lat="37.885003768399265" lon="15.101879420860266"><ele>434.0</ele><time>2026-04-19T06:48:45.999Z</time></trkpt><trkpt lat="37.88510988608597" lon="15.101685740988223"><ele>434.66666666666663</ele><time>2026-04-19T06:48:46.999Z</time></trkpt><trkpt lat="37.88520476499862" lon="15.10148741343108"><ele>435.33333333333337</ele><time>2026-04-19T06:48:47.999Z</time></trkpt><trkpt lat="37.88527827231635" lon="15.101280939830264"><ele>436.0</ele><time>2026-04-19T06:48:48.999Z</time></trkpt><trkpt lat="37.885326961400686" lon="15.101063734730873"><ele>436.0</ele><time>2026-04-19T06:48:49.999Z</time></trkpt><trkpt lat="37.88535083861953" lon="15.100835350368424"><ele>436.0</ele><time>2026-04-19T06:48:50.999Z</time></trkpt><trkpt lat="37.88535135603117" lon="15.100601398976892"><ele>436.0</ele><time>2026-04-19T06:48:51.999Z</time></trkpt><trkpt lat="37.88534061428848" lon="15.100362838545772"><ele>436.6666666666667</ele><time>2026-04-19T06:48:52.999Z</time></trkpt><trkpt lat="37.88530591379235" lon="15.100129539206442"><ele>437.33333333333337</ele><time>2026-04-19T06:48:53.999Z</time></trkpt><trkpt lat="37.88523659449428" lon="15.099901411396637"><ele>438.0</ele><time>2026-04-19T06:48:54.999Z</time></trkpt><trkpt lat="37.88517946654024" lon="15.099661427714"><ele>438.66666666666663</ele><time>2026-04-19T06:48:55.999Z</time></trkpt><trkpt lat="37.88512179684015" lon="15.099426779255362"><ele>439.3333333333333</ele><time>2026-04-19T06:48:56.999Z</time></trkpt><trkpt lat="37.88508517800914" lon="15.09918781736196"><ele>440.0</ele><time>2026-04-19T06:48:57.999Z</time></trkpt><trkpt lat="37.88503873118271" lon="15.098955104603442"><ele>441.0</ele><time>2026-04-19T06:48:58.999Z</time></trkpt><trkpt lat="37.884993938952235" lon="15.098724735421662"><ele>442.0</ele><time>2026-04-19T06:48:59.999Z</time></trkpt><trkpt lat="37.88495089467483" lon="15.098495440177933"><ele>443.0</ele><time>2026-04-19T06:49:00.999Z</time></trkpt><trkpt lat="37.884909282220065" lon="15.098267478929746"><ele>443.3333333333333</ele><time>2026-04-19T06:49:01.999Z</time></trkpt><trkpt lat="37.88485701107259" lon="15.09804539426897"><ele>443.66666666666663</ele><time>2026-04-19T06:49:02.999Z</time></trkpt><trkpt lat="37.884820004842226" lon="15.097819910377842"><ele>444.0</ele><time>2026-04-19T06:49:03.999Z</time></trkpt><trkpt lat="37.884780216894164" lon="15.097598356594693"><ele>445.33333333333337</ele><time>2026-04-19T06:49:04.999Z</time></trkpt><trkpt lat="37.884755605584694" lon="15.09737453651997"><ele>446.6666666666667</ele><time>2026-04-19T06:49:05.999Z</time></trkpt><trkpt lat="37.884714457128155" lon="15.097151637898621"><ele>448.0</ele><time>2026-04-19T06:49:06.999Z</time></trkpt><trkpt lat="37.88466433008548" lon="15.096931786436576"><ele>448.0</ele><time>2026-04-19T06:49:07.999Z</time></trkpt><trkpt lat="37.884629159610746" lon="15.096710232160376"><ele>448.0</ele><time>2026-04-19T06:49:08.999Z</time></trkpt><trkpt lat="37.88458278499143" lon="15.096490992846539"><ele>448.0</ele><time>2026-04-19T06:49:09.999Z</time></trkpt><trkpt lat="37.88452479837395" lon="15.096275850056887"><ele>448.6666666666667</ele><time>2026-04-19T06:49:10.999Z</time></trkpt><trkpt lat="37.884471742066175" lon="15.096058012893105"><ele>449.33333333333337</ele><time>2026-04-19T06:49:11.999Z</time></trkpt><trkpt lat="37.88436990793488" lon="15.095866160516788"><ele>450.0</ele><time>2026-04-19T06:49:12.999Z</time></trkpt><trkpt lat="37.88429987056557" lon="15.095656809293418"><ele>450.66666666666663</ele><time>2026-04-19T06:49:13.999Z</time></trkpt><trkpt lat="37.88421751201257" lon="15.095458628497086"><ele>451.3333333333333</ele><time>2026-04-19T06:49:15Z</time></trkpt><trkpt lat="37.88414784810963" lon="15.095258195535791"><ele>452.0</ele><time>2026-04-19T06:49:16Z</time></trkpt><trkpt lat="37.884094667796155" lon="15.095051134695465"><ele>454.0</ele><time>2026-04-19T06:49:17Z</time></trkpt><trkpt lat="37.88405600690667" lon="15.09483616926006"><ele>456.0</ele><time>2026-04-19T06:49:18Z</time></trkpt><trkpt lat="37.88399829342718" lon="15.094612948951683"><ele>458.0</ele><time>2026-04-19T06:49:19Z</time></trkpt><trkpt lat="37.883919455210574" lon="15.094400700534782"><ele>458.0</ele><time>2026-04-19T06:49:20Z</time></trkpt><trkpt lat="37.88381330202429" lon="15.094210904565601"><ele>458.0</ele><time>2026-04-19T06:49:21Z</time></trkpt><trkpt lat="37.88372970894505" lon="15.0940078079363"><ele>458.0</ele><time>2026-04-19T06:49:22Z</time></trkpt><trkpt lat="37.88365534294391" lon="15.093797305436926"><ele>459.66666666666663</ele><time>2026-04-19T06:49:23Z</time></trkpt><trkpt lat="37.88359693340088" lon="15.093582778115133"><ele>461.33333333333337</ele><time>2026-04-19T06:49:24Z</time></trkpt><trkpt lat="37.88354523332549" lon="15.09337236684885"><ele>463.0</ele><time>2026-04-19T06:49:25Z</time></trkpt><trkpt lat="37.88350519756333" lon="15.093162866690516"><ele>465.33333333333337</ele><time>2026-04-19T06:49:26Z</time></trkpt><trkpt lat="37.88342158231468" lon="15.092968870290358"><ele>467.66666666666663</ele><time>2026-04-19T06:49:27Z</time></trkpt><trkpt lat="37.883342705911055" lon="15.09278075047442"><ele>470.0</ele><time>2026-04-19T06:49:28Z</time></trkpt><trkpt lat="37.88325044453431" lon="15.092602854694887"><ele>471.0</ele><time>2026-04-19T06:49:29Z</time></trkpt><trkpt lat="37.88316965986671" lon="15.09241578035741"><ele>472.0</ele><time>2026-04-19T06:49:30Z</time></trkpt><trkpt lat="37.883077067650376" lon="15.092239828154339"><ele>473.0</ele><time>2026-04-19T06:49:31Z</time></trkpt><trkpt lat="37.88299102642993" lon="15.092062797245427"><ele>473.0</ele><time>2026-04-19T06:49:32Z</time></trkpt><trkpt lat="37.88290183270359" lon="15.091890913347791"><ele>473.0</ele><time>2026-04-19T06:49:33Z</time></trkpt><trkpt lat="37.882839780032704" lon="15.091704210947368"><ele>473.0</ele><time>2026-04-19T06:49:34Z</time></trkpt><trkpt lat="37.882785585482566" lon="15.091512474345132"><ele>475.66666666666663</ele><time>2026-04-19T06:49:35Z</time></trkpt><trkpt lat="37.88274288444503" lon="15.091320431973783"><ele>478.33333333333337</ele><time>2026-04-19T06:49:36Z</time></trkpt><trkpt lat="37.88273126080361" lon="15.091122535905829"><ele>481.0</ele><time>2026-04-19T06:49:37Z</time></trkpt><trkpt lat="37.88269149056739" lon="15.090933208580356"><ele>483.25</ele><time>2026-04-19T06:49:38Z</time></trkpt><trkpt lat="37.882668364648495" lon="15.090745330888351"><ele>485.5</ele><time>2026-04-19T06:49:39Z</time></trkpt><trkpt lat="37.882644959220464" lon="15.090561838048922"><ele>487.75</ele><time>2026-04-19T06:49:40Z</time></trkpt><trkpt lat="37.88262314393" lon="15.090381922705065"><ele>490.0</ele><time>2026-04-19T06:49:41Z</time></trkpt><trkpt lat="37.88260188127819" lon="15.090226171045405"><ele>490.0</ele><time>2026-04-19T06:49:42Z</time></trkpt><trkpt lat="37.88260086369223" lon="15.09008409578301"><ele>490.0</ele><time>2026-04-19T06:49:43Z</time></trkpt><trkpt lat="37.88257636534849" lon="15.089959540647083"><ele>490.0</ele><time>2026-04-19T06:49:44Z</time></trkpt><trkpt lat="37.88257724116289" lon="15.089842841114484"><ele>490.0</ele><time>2026-04-19T06:49:45Z</time></trkpt><trkpt lat="37.88258240334842" lon="15.089738106199285"><ele>490.0</ele><time>2026-04-19T06:49:46Z</time></trkpt><trkpt lat="37.88260865185589" lon="15.089652012710985"><ele>490.83333333333337</ele><time>2026-04-19T06:49:47Z</time></trkpt><trkpt lat="37.882640958698545" lon="15.089538289100362"><ele>491.6666666666667</ele><time>2026-04-19T06:49:49Z</time></trkpt><trkpt lat="37.882519059654484" lon="15.089465912774497"><ele>492.5</ele><time>2026-04-19T06:49:50Z</time></trkpt><trkpt lat="37.88244711122353" lon="15.089458661145573"><ele>493.33333333333337</ele><time>2026-04-19T06:49:52Z</time></trkpt><trkpt lat="37.88237263412493" lon="15.089467614513909"><ele>494.1666666666667</ele><time>2026-04-19T06:50:13.001Z</time></trkpt><trkpt lat="37.88230662925355" lon="15.089466428604755"><ele>495.0</ele><time>2026-04-19T06:50:14.001Z</time></trkpt><trkpt lat="37.8822190867901" lon="15.089465896510065"><ele>495.4</ele><time>2026-04-19T06:50:15.001Z</time></trkpt><trkpt lat="37.88212156132546" lon="15.08945524180837"><ele>495.8</ele><time>2026-04-19T06:50:16.001Z</time></trkpt><trkpt lat="37.882029028955046" lon="15.08940736644398"><ele>496.20000000000005</ele><time>2026-04-19T06:50:17.001Z</time></trkpt><trkpt lat="37.881929613504404" lon="15.08940514565585"><ele>496.6</ele><time>2026-04-19T06:50:18.001Z</time></trkpt><trkpt lat="37.881830645959226" lon="15.089384710794027"><ele>497.0</ele><time>2026-04-19T06:50:19.001Z</time></trkpt><trkpt lat="37.88172981115473" lon="15.089357789228975"><ele>497.40000000000003</ele><time>2026-04-19T06:50:20.001Z</time></trkpt><trkpt lat="37.88162890297324" lon="15.089313764998984"><ele>497.80000000000007</ele><time>2026-04-19T06:50:21.001Z</time></trkpt><trkpt lat="37.88154007998511" lon="15.089228236954629"><ele>498.2</ele><time>2026-04-19T06:50:22.001Z</time></trkpt><trkpt lat="37.8814582694542" lon="15.089133525083456"><ele>498.6</ele><time>2026-04-19T06:50:23.001Z</time></trkpt><trkpt lat="37.881390657704436" lon="15.089019156894253"><ele>499.0</ele><time>2026-04-19T06:50:24.001Z</time></trkpt><trkpt lat="37.88132295422417" lon="15.088904364030082"><ele>500.5</ele><time>2026-04-19T06:50:25.001Z</time></trkpt><trkpt lat="37.88125356859587" lon="15.088786719034108"><ele>502.0</ele><time>2026-04-19T06:50:26.001Z</time></trkpt><trkpt lat="37.881184055922645" lon="15.088673748433688"><ele>503.5</ele><time>2026-04-19T06:50:27.001Z</time></trkpt><trkpt lat="37.88110949488789" lon="15.08855453748106"><ele>505.0</ele><time>2026-04-19T06:50:28.001Z</time></trkpt><trkpt lat="37.88102607199456" lon="15.088451672670042"><ele>505.0</ele><time>2026-04-19T06:50:29.001Z</time></trkpt><trkpt lat="37.88096586012787" lon="15.088344288408889"><ele>505.0</ele><time>2026-04-19T06:50:30.001Z</time></trkpt><trkpt lat="37.88089963406968" lon="15.088285630480406"><ele>505.0</ele><time>2026-04-19T06:50:31.001Z</time></trkpt><trkpt lat="37.88082148527382" lon="15.088292311473932"><ele>505.0</ele><time>2026-04-19T06:50:32.001Z</time></trkpt><trkpt lat="37.880744292122934" lon="15.08836350119121"><ele>505.0</ele><time>2026-04-19T06:50:33.001Z</time></trkpt><trkpt lat="37.880672469646754" lon="15.088459051521754"><ele>505.0</ele><time>2026-04-19T06:50:34.001Z</time></trkpt><trkpt lat="37.880607757333976" lon="15.08855884858005"><ele>505.0</ele><time>2026-04-19T06:50:35.001Z</time></trkpt><trkpt lat="37.880545182727055" lon="15.088653825507723"><ele>505.0</ele><time>2026-04-19T06:50:36.001Z</time></trkpt><trkpt lat="37.880508667606385" lon="15.088757768768566"><ele>505.0</ele><time>2026-04-19T06:50:37.001Z</time></trkpt><trkpt lat="37.88051714019598" lon="15.088877076005568"><ele>505.0</ele><time>2026-04-19T06:50:38.001Z</time></trkpt><trkpt lat="37.88056621399178" lon="15.088980902233944"><ele>505.0</ele><time>2026-04-19T06:50:39.001Z</time></trkpt><trkpt lat="37.880652574595345" lon="15.089075954730676"><ele>505.0</ele><time>2026-04-19T06:50:40.001Z</time></trkpt><trkpt lat="37.88071800156606" lon="15.08917560184995"><ele>505.0</ele><time>2026-04-19T06:50:41.002Z</time></trkpt><trkpt lat="37.88073339145368" lon="15.08929569711943"><ele>505.0</ele><time>2026-04-19T06:50:42.002Z</time></trkpt><trkpt lat="37.88071430494856" lon="15.08943885945267"><ele>505.0</ele><time>2026-04-19T06:50:43.002Z</time></trkpt><trkpt lat="37.88067021677998" lon="15.089575881340364"><ele>505.0</ele><time>2026-04-19T06:50:44.002Z</time></trkpt><trkpt lat="37.88059643355222" lon="15.089685931269964"><ele>505.0</ele><time>2026-04-19T06:50:45.002Z</time></trkpt><trkpt lat="37.880484313750024" lon="15.089720541693882"><ele>505.0</ele><time>2026-04-19T06:50:46.002Z</time></trkpt><trkpt lat="37.880389578362085" lon="15.089723101582777"><ele>505.0</ele><time>2026-04-19T06:50:47.002Z</time></trkpt><trkpt lat="37.88026135763488" lon="15.089725686297426"><ele>505.0</ele><time>2026-04-19T06:50:48.002Z</time></trkpt><trkpt lat="37.88014468193656" lon="15.089760320667592"><ele>505.0</ele><time>2026-04-19T06:50:49.002Z</time></trkpt><trkpt lat="37.880020948929435" lon="15.089817147024961"><ele>505.0</ele><time>2026-04-19T06:50:50.002Z</time></trkpt><trkpt lat="37.87988810474009" lon="15.089915612647673"><ele>505.0</ele><time>2026-04-19T06:50:50.999Z</time></trkpt><trkpt lat="37.87976704096783" lon="15.090017139691396"><ele>507.5</ele><time>2026-04-19T06:50:51.999Z</time></trkpt><trkpt lat="37.87963376993447" lon="15.090069068856016"><ele>510.0</ele><time>2026-04-19T06:50:52.999Z</time></trkpt><trkpt lat="37.87949809358374" lon="15.090131296567376"><ele>512.5</ele><time>2026-04-19T06:50:53.999Z</time></trkpt><trkpt lat="37.879358246035125" lon="15.090157702659873"><ele>515.0</ele><time>2026-04-19T06:50:54.999Z</time></trkpt><trkpt lat="37.87921674197924" lon="15.090107668688633"><ele>517.75</ele><time>2026-04-19T06:50:55.999Z</time></trkpt><trkpt lat="37.87905866959329" lon="15.090054433451982"><ele>520.5</ele><time>2026-04-19T06:50:56.999Z</time></trkpt><trkpt lat="37.87892441849887" lon="15.090007465627751"><ele>523.25</ele><time>2026-04-19T06:50:57.999Z</time></trkpt><trkpt lat="37.87881937145216" lon="15.089970499532958"><ele>526.0</ele><time>2026-04-19T06:50:58.999Z</time></trkpt><trkpt lat="37.878736874213665" lon="15.089932866573324"><ele>528.0</ele><time>2026-04-19T06:50:59.999Z</time></trkpt><trkpt lat="37.87868150402083" lon="15.089800127096037"><ele>530.0</ele><time>2026-04-19T06:51:01.999Z</time></trkpt><trkpt lat="37.87873610294794" lon="15.089731096731471"><ele>532.0</ele><time>2026-04-19T06:51:02.999Z</time></trkpt><trkpt lat="37.87883039447641" lon="15.089726822380342"><ele>534.0</ele><time>2026-04-19T06:51:03.999Z</time></trkpt><trkpt lat="37.87891556327154" lon="15.08968606814156"><ele>536.0</ele><time>2026-04-19T06:51:04.999Z</time></trkpt><trkpt lat="37.87901248935643" lon="15.0896392422211"><ele>536.0</ele><time>2026-04-19T06:51:05.999Z</time></trkpt><trkpt lat="37.87910996915471" lon="15.089539885626754"><ele>536.0</ele><time>2026-04-19T06:51:06.999Z</time></trkpt><trkpt lat="37.87919630216658" lon="15.089424353047761"><ele>536.0</ele><time>2026-04-19T06:51:07.999Z</time></trkpt><trkpt lat="37.87926233733008" lon="15.089348238705535"><ele>536.0</ele><time>2026-04-19T06:51:09Z</time></trkpt><trkpt lat="37.87930601791543" lon="15.089281284270863"><ele>536.0</ele><time>2026-04-19T06:51:10Z</time></trkpt><trkpt lat="37.879329357641396" lon="15.089203256429753"><ele>536.0</ele><time>2026-04-19T06:51:11Z</time></trkpt><trkpt lat="37.87925164805199" lon="15.089122611751975"><ele>536.0</ele><time>2026-04-19T06:51:12Z</time></trkpt><trkpt lat="37.87917231201335" lon="15.089129164401733"><ele>536.0</ele><time>2026-04-19T06:51:13Z</time></trkpt><trkpt lat="37.87900500631953" lon="15.089294722684796"><ele>536.0</ele><time>2026-04-19T06:51:15Z</time></trkpt><trkpt lat="37.87891670417215" lon="15.089369342884563"><ele>536.0</ele><time>2026-04-19T06:51:16Z</time></trkpt><trkpt lat="37.87882168348845" lon="15.089434191913034"><ele>536.0</ele><time>2026-04-19T06:51:17Z</time></trkpt><trkpt lat="37.878738137516685" lon="15.089482106281576"><ele>536.0</ele><time>2026-04-19T06:51:18Z</time></trkpt><trkpt lat="37.87865816770161" lon="15.089484994454796"><ele>536.0</ele><time>2026-04-19T06:51:19Z</time></trkpt><trkpt lat="37.87857223142788" lon="15.089446771259766"><ele>536.0</ele><time>2026-04-19T06:51:20Z</time></trkpt><trkpt lat="37.87851363351451" lon="15.089357378921427"><ele>536.0</ele><time>2026-04-19T06:51:21Z</time></trkpt><trkpt lat="37.87851763008541" lon="15.089253990711876"><ele>536.0</ele><time>2026-04-19T06:51:22Z</time></trkpt><trkpt lat="37.87854713750054" lon="15.089152294510152"><ele>536.0</ele><time>2026-04-19T06:51:23Z</time></trkpt><trkpt lat="37.8785731212664" lon="15.089009283876544"><ele>536.0</ele><time>2026-04-19T06:51:24Z</time></trkpt><trkpt lat="37.87860466515323" lon="15.08886227532349"><ele>536.0</ele><time>2026-04-19T06:51:25Z</time></trkpt><trkpt lat="37.87863428317781" lon="15.088727971034764"><ele>536.6</ele><time>2026-04-19T06:51:26Z</time></trkpt><trkpt lat="37.87864762829919" lon="15.088598300112789"><ele>537.2</ele><time>2026-04-19T06:51:27Z</time></trkpt><trkpt lat="37.87865294426645" lon="15.088489532848442"><ele>537.8</ele><time>2026-04-19T06:51:28Z</time></trkpt><trkpt lat="37.87860725726546" lon="15.08838475089486"><ele>538.4</ele><time>2026-04-19T06:51:29Z</time></trkpt><trkpt lat="37.878515466036156" lon="15.08829544228623"><ele>539.0</ele><time>2026-04-19T06:51:30Z</time></trkpt><trkpt lat="37.87839794209197" lon="15.088212675635301"><ele>541.6666666666666</ele><time>2026-04-19T06:51:31Z</time></trkpt><trkpt lat="37.87826179256183" lon="15.088110256968394"><ele>544.3333333333334</ele><time>2026-04-19T06:51:32Z</time></trkpt><trkpt lat="37.87811741734858" lon="15.087999224519525"><ele>547.0</ele><time>2026-04-19T06:51:33Z</time></trkpt><trkpt lat="37.877963164836885" lon="15.087907115386738"><ele>547.0</ele><time>2026-04-19T06:51:34Z</time></trkpt><trkpt lat="37.877800112020864" lon="15.087801248968066"><ele>547.0</ele><time>2026-04-19T06:51:35Z</time></trkpt><trkpt lat="37.877633199353156" lon="15.08768603580786"><ele>547.0</ele><time>2026-04-19T06:51:36Z</time></trkpt><trkpt lat="37.87746213786244" lon="15.087565827463349"><ele>549.0</ele><time>2026-04-19T06:51:37Z</time></trkpt><trkpt lat="37.87728412444213" lon="15.0874502734029"><ele>551.0</ele><time>2026-04-19T06:51:38Z</time></trkpt><trkpt lat="37.8771044646228" lon="15.087358081730232"><ele>553.0</ele><time>2026-04-19T06:51:39Z</time></trkpt><trkpt lat="37.87692395635601" lon="15.087271388180612"><ele>555.6666666666667</ele><time>2026-04-19T06:51:40Z</time></trkpt><trkpt lat="37.8767604637695" lon="15.087197155609074"><ele>558.3333333333334</ele><time>2026-04-19T06:51:41Z</time></trkpt><trkpt lat="37.87660863848462" lon="15.087139193241134"><ele>561.0</ele><time>2026-04-19T06:51:42Z</time></trkpt><trkpt lat="37.876453173573196" lon="15.087102790636962"><ele>561.0</ele><time>2026-04-19T06:51:43Z</time></trkpt><trkpt lat="37.87628631711933" lon="15.087095273563925"><ele>561.0</ele><time>2026-04-19T06:51:44.001Z</time></trkpt><trkpt lat="37.87611061570678" lon="15.087055407636091"><ele>561.0</ele><time>2026-04-19T06:51:45.001Z</time></trkpt><trkpt lat="37.87593013313342" lon="15.08703994706218"><ele>564.0</ele><time>2026-04-19T06:51:46.001Z</time></trkpt><trkpt lat="37.87575916257018" lon="15.086987243896559"><ele>567.0</ele><time>2026-04-19T06:51:47.001Z</time></trkpt><trkpt lat="37.875601642212914" lon="15.086900497818256"><ele>570.0</ele><time>2026-04-19T06:51:48.001Z</time></trkpt><trkpt lat="37.875449236981595" lon="15.086820890958586"><ele>570.0</ele><time>2026-04-19T06:51:49.001Z</time></trkpt><trkpt lat="37.87532224553931" lon="15.086704988002056"><ele>570.0</ele><time>2026-04-19T06:51:50.001Z</time></trkpt><trkpt lat="37.875204060253566" lon="15.086567689417373"><ele>570.0</ele><time>2026-04-19T06:51:51.001Z</time></trkpt><trkpt lat="37.87509332112834" lon="15.086424693526954"><ele>574.3333333333334</ele><time>2026-04-19T06:51:52.001Z</time></trkpt><trkpt lat="37.87498434253298" lon="15.086275016909887"><ele>578.6666666666667</ele><time>2026-04-19T06:51:53.001Z</time></trkpt><trkpt lat="37.874874975445664" lon="15.08612494073244"><ele>583.0</ele><time>2026-04-19T06:51:54.001Z</time></trkpt><trkpt lat="37.874769573604596" lon="15.085984343939764"><ele>583.0</ele><time>2026-04-19T06:51:55.001Z</time></trkpt><trkpt lat="37.874666255409956" lon="15.085849344957714"><ele>583.0</ele><time>2026-04-19T06:51:56.001Z</time></trkpt><trkpt lat="37.87456024996412" lon="15.085719494985478"><ele>583.0</ele><time>2026-04-19T06:51:57.001Z</time></trkpt><trkpt lat="37.87443587918778" lon="15.085631585348919"><ele>583.0</ele><time>2026-04-19T06:51:58.001Z</time></trkpt><trkpt lat="37.874313379044324" lon="15.08554166312076"><ele>584.25</ele><time>2026-04-19T06:51:59.001Z</time></trkpt><trkpt lat="37.874214178078866" lon="15.085414096177221"><ele>585.5</ele><time>2026-04-19T06:52:00.001Z</time></trkpt><trkpt lat="37.87411540393164" lon="15.08528547677074"><ele>586.75</ele><time>2026-04-19T06:52:01.001Z</time></trkpt><trkpt lat="37.87401516288247" lon="15.085153195406235"><ele>588.0</ele><time>2026-04-19T06:52:02.001Z</time></trkpt><trkpt lat="37.87391742657839" lon="15.085025953659008"><ele>588.75</ele><time>2026-04-19T06:52:03.001Z</time></trkpt><trkpt lat="37.87379742602095" lon="15.0849267365863"><ele>589.5</ele><time>2026-04-19T06:52:04.001Z</time></trkpt><trkpt lat="37.87367747692816" lon="15.084827090407995"><ele>590.25</ele><time>2026-04-19T06:52:05.001Z</time></trkpt><trkpt lat="37.87355823454915" lon="15.084710475630736"><ele>591.0</ele><time>2026-04-19T06:52:06.001Z</time></trkpt><trkpt lat="37.87342952051165" lon="15.084616941148004"><ele>592.5</ele><time>2026-04-19T06:52:07.001Z</time></trkpt><trkpt lat="37.87330439266441" lon="15.084526979967139"><ele>594.0</ele><time>2026-04-19T06:52:08.001Z</time></trkpt><trkpt lat="37.87317972675475" lon="15.084438671074432"><ele>595.5</ele><time>2026-04-19T06:52:09.001Z</time></trkpt><trkpt lat="37.87304944064154" lon="15.084358908953408"><ele>597.0</ele><time>2026-04-19T06:52:10.001Z</time></trkpt><trkpt lat="37.87291934940265" lon="15.084285672404443"><ele>597.0</ele><time>2026-04-19T06:52:11.001Z</time></trkpt><trkpt lat="37.872788122122515" lon="15.084217616341547"><ele>597.0</ele><time>2026-04-19T06:52:12.001Z</time></trkpt><trkpt lat="37.872657800248106" lon="15.084157603548723"><ele>597.0</ele><time>2026-04-19T06:52:13.001Z</time></trkpt><trkpt lat="37.872534410009216" lon="15.084080960331196"><ele>597.0</ele><time>2026-04-19T06:52:14.001Z</time></trkpt><trkpt lat="37.87242793957282" lon="15.083981920981763"><ele>597.5</ele><time>2026-04-19T06:52:15.001Z</time></trkpt><trkpt lat="37.872315339430095" lon="15.08387843686239"><ele>598.0</ele><time>2026-04-19T06:52:16.001Z</time></trkpt><trkpt lat="37.87219847434302" lon="15.083788802679674"><ele>598.5</ele><time>2026-04-19T06:52:17.001Z</time></trkpt><trkpt lat="37.87205618004353" lon="15.083737170173352"><ele>599.0</ele><time>2026-04-19T06:52:18.001Z</time></trkpt><trkpt lat="37.87191146317567" lon="15.083706837502358"><ele>599.0</ele><time>2026-04-19T06:52:19.001Z</time></trkpt><trkpt lat="37.87178183070926" lon="15.08362363347716"><ele>599.0</ele><time>2026-04-19T06:52:20.001Z</time></trkpt><trkpt lat="37.871652782387265" lon="15.083544509141205"><ele>599.0</ele><time>2026-04-19T06:52:21.001Z</time></trkpt><trkpt lat="37.871519429094384" lon="15.083470618240169"><ele>599.0</ele><time>2026-04-19T06:52:22.001Z</time></trkpt><trkpt lat="37.87137319519434" lon="15.083429572776707"><ele>600.25</ele><time>2026-04-19T06:52:23.001Z</time></trkpt><trkpt lat="37.871224671221285" lon="15.083384992180976"><ele>601.5</ele><time>2026-04-19T06:52:24.001Z</time></trkpt><trkpt lat="37.871079444970306" lon="15.083340770754042"><ele>602.75</ele><time>2026-04-19T06:52:25.001Z</time></trkpt><trkpt lat="37.87093576550413" lon="15.083309272891762"><ele>604.0</ele><time>2026-04-19T06:52:26.002Z</time></trkpt><trkpt lat="37.87078810574251" lon="15.083302904569974"><ele>605.25</ele><time>2026-04-19T06:52:27.002Z</time></trkpt><trkpt lat="37.870636890282874" lon="15.083320972778761"><ele>606.5</ele><time>2026-04-19T06:52:28.002Z</time></trkpt><trkpt lat="37.870491434035735" lon="15.08330283716888"><ele>607.75</ele><time>2026-04-19T06:52:29.002Z</time></trkpt><trkpt lat="37.87034836648391" lon="15.083298155150658"><ele>609.0</ele><time>2026-04-19T06:52:30.002Z</time></trkpt><trkpt lat="37.87020810878946" lon="15.08328867062357"><ele>610.0</ele><time>2026-04-19T06:52:31.002Z</time></trkpt><trkpt lat="37.870078074150506" lon="15.083321141838272"><ele>611.0</ele><time>2026-04-19T06:52:32.002Z</time></trkpt><trkpt lat="37.8699531700053" lon="15.08331824007885"><ele>612.0</ele><time>2026-04-19T06:52:33.002Z</time></trkpt><trkpt lat="37.869844060509024" lon="15.083273961324357"><ele>613.0</ele><time>2026-04-19T06:52:34.002Z</time></trkpt><trkpt lat="37.86977461738576" lon="15.08317622148594"><ele>613.25</ele><time>2026-04-19T06:52:35.002Z</time></trkpt><trkpt lat="37.869737782407995" lon="15.083062088865988"><ele>613.5</ele><time>2026-04-19T06:52:36.002Z</time></trkpt><trkpt lat="37.869693925762" lon="15.082935496230949"><ele>613.75</ele><time>2026-04-19T06:52:37.002Z</time></trkpt><trkpt lat="37.869631381013576" lon="15.082809151498859"><ele>614.0</ele><time>2026-04-19T06:52:38.002Z</time></trkpt><trkpt lat="37.86956398174598" lon="15.082670725900178"><ele>614.0</ele><time>2026-04-19T06:52:39.002Z</time></trkpt><trkpt lat="37.869477168082916" lon="15.082550649861162"><ele>614.0</ele><time>2026-04-19T06:52:40.002Z</time></trkpt><trkpt lat="37.869369034500345" lon="15.082461269178928"><ele>614.0</ele><time>2026-04-19T06:52:41.002Z</time></trkpt><trkpt lat="37.86924747188304" lon="15.082367808825909"><ele>614.0</ele><time>2026-04-19T06:52:42.002Z</time></trkpt><trkpt lat="37.86911222297057" lon="15.082272002668919"><ele>617.0</ele><time>2026-04-19T06:52:43.002Z</time></trkpt><trkpt lat="37.86896498389103" lon="15.082167589590298"><ele>620.0</ele><time>2026-04-19T06:52:44.002Z</time></trkpt><trkpt lat="37.86880961103317" lon="15.08205740850409"><ele>623.0</ele><time>2026-04-19T06:52:45.002Z</time></trkpt><trkpt lat="37.86865717541069" lon="15.081949310357237"><ele>623.0</ele><time>2026-04-19T06:52:46.002Z</time></trkpt><trkpt lat="37.868495559760085" lon="15.081833100261084"><ele>623.0</ele><time>2026-04-19T06:52:47.002Z</time></trkpt><trkpt lat="37.868334231281736" lon="15.081724105903"><ele>623.0</ele><time>2026-04-19T06:52:48.002Z</time></trkpt><trkpt lat="37.86819295459086" lon="15.081636701650085"><ele>624.6666666666666</ele><time>2026-04-19T06:52:49.002Z</time></trkpt><trkpt lat="37.86803808383909" lon="15.081617214396676"><ele>626.3333333333334</ele><time>2026-04-19T06:52:50.002Z</time></trkpt><trkpt lat="37.867889074645184" lon="15.081608064968627"><ele>628.0</ele><time>2026-04-19T06:52:51.002Z</time></trkpt><trkpt lat="37.86774135338536" lon="15.081631431403535"><ele>629.6666666666667</ele><time>2026-04-19T06:52:52.002Z</time></trkpt><trkpt lat="37.86759070211753" lon="15.08167317665105"><ele>631.3333333333334</ele><time>2026-04-19T06:52:53.002Z</time></trkpt><trkpt lat="37.86744079441621" lon="15.081690176366315"><ele>633.0</ele><time>2026-04-19T06:52:54.002Z</time></trkpt><trkpt lat="37.86729392919853" lon="15.081709000060021"><ele>633.0</ele><time>2026-04-19T06:52:55.002Z</time></trkpt><trkpt lat="37.86714945123967" lon="15.08168904299635"><ele>633.0</ele><time>2026-04-19T06:52:56.002Z</time></trkpt><trkpt lat="37.86700548789381" lon="15.081641187346342"><ele>633.0</ele><time>2026-04-19T06:52:57Z</time></trkpt><trkpt lat="37.86686067529403" lon="15.081595307593082"><ele>633.0</ele><time>2026-04-19T06:52:58Z</time></trkpt><trkpt lat="37.86671541755735" lon="15.081554618474796"><ele>633.75</ele><time>2026-04-19T06:52:59Z</time></trkpt><trkpt lat="37.866571019949305" lon="15.081518349259383"><ele>634.5</ele><time>2026-04-19T06:53:00Z</time></trkpt><trkpt lat="37.86642800435438" lon="15.08148550937567"><ele>635.25</ele><time>2026-04-19T06:53:01Z</time></trkpt><trkpt lat="37.86628837755122" lon="15.081457046593862"><ele>636.0</ele><time>2026-04-19T06:53:02Z</time></trkpt><trkpt lat="37.86614890689808" lon="15.081430456691388"><ele>636.0</ele><time>2026-04-19T06:53:03Z</time></trkpt><trkpt lat="37.866014277317" lon="15.081407213265846"><ele>636.0</ele><time>2026-04-19T06:53:04Z</time></trkpt><trkpt lat="37.865879059727" lon="15.081383868327027"><ele>636.0</ele><time>2026-04-19T06:53:05Z</time></trkpt><trkpt lat="37.865750212833504" lon="15.081350637391202"><ele>636.0</ele><time>2026-04-19T06:53:06Z</time></trkpt><trkpt lat="37.865632816737076" lon="15.08128842793319"><ele>638.75</ele><time>2026-04-19T06:53:07Z</time></trkpt><trkpt lat="37.86551331430271" lon="15.081207547663647"><ele>641.5</ele><time>2026-04-19T06:53:08Z</time></trkpt><trkpt lat="37.865398659133504" lon="15.081118387299245"><ele>644.25</ele><time>2026-04-19T06:53:09Z</time></trkpt><trkpt lat="37.8652981402324" lon="15.081022140920762"><ele>647.0</ele><time>2026-04-19T06:53:10Z</time></trkpt><trkpt lat="37.86520929179243" lon="15.080901336498593"><ele>647.0</ele><time>2026-04-19T06:53:11Z</time></trkpt><trkpt lat="37.86511742900122" lon="15.080769500622464"><ele>647.0</ele><time>2026-04-19T06:53:12Z</time></trkpt><trkpt lat="37.86501092435412" lon="15.080654510555831"><ele>647.0</ele><time>2026-04-19T06:53:13Z</time></trkpt><trkpt lat="37.86491234362936" lon="15.080539039127155"><ele>647.0</ele><time>2026-04-19T06:53:14Z</time></trkpt><trkpt lat="37.86480593790217" lon="15.080435197231921"><ele>649.0</ele><time>2026-04-19T06:53:15Z</time></trkpt><trkpt lat="37.864705460786816" lon="15.080339940785018"><ele>651.0</ele><time>2026-04-19T06:53:16Z</time></trkpt><trkpt lat="37.86463185312056" lon="15.080237083733767"><ele>653.0</ele><time>2026-04-19T06:53:17Z</time></trkpt><trkpt lat="37.86455454082027" lon="15.08018332272522"><ele>655.0</ele><time>2026-04-19T06:53:18Z</time></trkpt><trkpt lat="37.864506774666914" lon="15.08012492689067"><ele>657.0</ele><time>2026-04-19T06:53:19Z</time></trkpt><trkpt lat="37.86445877842545" lon="15.08006741775106"><ele>657.0</ele><time>2026-04-19T06:53:21Z</time></trkpt><trkpt lat="37.86440433230107" lon="15.079990150672959"><ele>657.0</ele><time>2026-04-19T06:54:18.002Z</time></trkpt><trkpt lat="37.86432627085557" lon="15.079883525264137"><ele>657.0</ele><time>2026-04-19T06:54:20.002Z</time></trkpt><trkpt lat="37.864265631364326" lon="15.079820113400128"><ele>657.0</ele><time>2026-04-19T06:54:21.002Z</time></trkpt><trkpt lat="37.86423299757058" lon="15.079750355663565"><ele>657.0</ele><time>2026-04-19T06:54:22.002Z</time></trkpt><trkpt lat="37.8641982532418" lon="15.079676992876921"><ele>657.0</ele><time>2026-04-19T06:54:23.002Z</time></trkpt><trkpt lat="37.86416477417023" lon="15.079598977006844"><ele>658.8333333333334</ele><time>2026-04-19T06:54:24.002Z</time></trkpt><trkpt lat="37.864139836018694" lon="15.079515259128858"><ele>660.6666666666666</ele><time>2026-04-19T06:54:25.002Z</time></trkpt><trkpt lat="37.86411992356424" lon="15.07942683284021"><ele>662.5</ele><time>2026-04-19T06:54:26.002Z</time></trkpt><trkpt lat="37.86409270519852" lon="15.079340164547796"><ele>664.3333333333333</ele><time>2026-04-19T06:54:27.002Z</time></trkpt><trkpt lat="37.86406844353824" lon="15.079244077907468"><ele>666.1666666666666</ele><time>2026-04-19T06:54:28.002Z</time></trkpt><trkpt lat="37.8640461320105" lon="15.0791365142073"><ele>668.0</ele><time>2026-04-19T06:54:29.002Z</time></trkpt><trkpt lat="37.864026884641156" lon="15.079019763915708"><ele>668.8</ele><time>2026-04-19T06:54:30.002Z</time></trkpt><trkpt lat="37.86401732163497" lon="15.078905236021987"><ele>669.5999999999999</ele><time>2026-04-19T06:54:31.002Z</time></trkpt><trkpt lat="37.86400692641349" lon="15.078797135728792"><ele>670.4000000000001</ele><time>2026-04-19T06:54:32.002Z</time></trkpt><trkpt lat="37.86397619910966" lon="15.078700240586889"><ele>671.2</ele><time>2026-04-19T06:54:33.002Z</time></trkpt><trkpt lat="37.8638337079654" lon="15.078601992771391"><ele>672.0</ele><time>2026-04-19T06:54:35.002Z</time></trkpt><trkpt lat="37.86375007220827" lon="15.07860863579994"><ele>672.0</ele><time>2026-04-19T06:54:36.002Z</time></trkpt><trkpt lat="37.863670739661664" lon="15.078632199313553"><ele>672.0</ele><time>2026-04-19T06:54:37.002Z</time></trkpt><trkpt lat="37.86357432059937" lon="15.078638996076192"><ele>672.0</ele><time>2026-04-19T06:54:38.002Z</time></trkpt><trkpt lat="37.86349221912416" lon="15.078605394250442"><ele>672.0</ele><time>2026-04-19T06:54:39.002Z</time></trkpt><trkpt lat="37.86343747025537" lon="15.078513938631515"><ele>672.0</ele><time>2026-04-19T06:54:40.002Z</time></trkpt><trkpt lat="37.86337168879753" lon="15.078416830557622"><ele>674.25</ele><time>2026-04-19T06:54:41.002Z</time></trkpt><trkpt lat="37.86328615185193" lon="15.078312968442185"><ele>676.5</ele><time>2026-04-19T06:54:42.002Z</time></trkpt><trkpt lat="37.8632033095531" lon="15.078180172138158"><ele>678.75</ele><time>2026-04-19T06:54:43.002Z</time></trkpt><trkpt lat="37.863118925202244" lon="15.078055799334809"><ele>681.0</ele><time>2026-04-19T06:54:44.002Z</time></trkpt><trkpt lat="37.86305826969502" lon="15.077913200643634"><ele>681.5</ele><time>2026-04-19T06:54:45.002Z</time></trkpt><trkpt lat="37.86299071001548" lon="15.077781831994312"><ele>682.0</ele><time>2026-04-19T06:54:46.002Z</time></trkpt><trkpt lat="37.86293678620125" lon="15.077648115674593"><ele>682.5</ele><time>2026-04-19T06:54:47.002Z</time></trkpt><trkpt lat="37.8629019973844" lon="15.077508817428058"><ele>683.0</ele><time>2026-04-19T06:54:48.002Z</time></trkpt><trkpt lat="37.86285209675036" lon="15.077377978624495"><ele>683.5</ele><time>2026-04-19T06:54:49.002Z</time></trkpt><trkpt lat="37.86280218998346" lon="15.077251863941223"><ele>684.0</ele><time>2026-04-19T06:54:50.002Z</time></trkpt><trkpt lat="37.86271793038652" lon="15.0771565509029"><ele>684.5</ele><time>2026-04-19T06:54:51.002Z</time></trkpt><trkpt lat="37.862609636859766" lon="15.077088962216562"><ele>685.0</ele><time>2026-04-19T06:54:52.002Z</time></trkpt><trkpt lat="37.86252404509659" lon="15.076986640496228"><ele>686.5</ele><time>2026-04-19T06:54:53.002Z</time></trkpt><trkpt lat="37.862441345784184" lon="15.076897907271237"><ele>688.0</ele><time>2026-04-19T06:54:54.002Z</time></trkpt><trkpt lat="37.86236825968584" lon="15.07681419273049"><ele>689.5</ele><time>2026-04-19T06:54:55.002Z</time></trkpt><trkpt lat="37.862307808287625" lon="15.076744166103936"><ele>691.0</ele><time>2026-04-19T06:54:56.002Z</time></trkpt><trkpt lat="37.862246715834914" lon="15.076704924548496"><ele>692.5</ele><time>2026-04-19T06:54:57.002Z</time></trkpt><trkpt lat="37.86219518562126" lon="15.076645328223327"><ele>694.0</ele><time>2026-04-19T06:55:12Z</time></trkpt><trkpt lat="37.86218720657498" lon="15.076556106810903"><ele>694.75</ele><time>2026-04-19T06:55:14Z</time></trkpt><trkpt lat="37.86222373485717" lon="15.076385659082808"><ele>695.5</ele><time>2026-04-19T06:55:16Z</time></trkpt><trkpt lat="37.862257994524356" lon="15.076245155897709"><ele>696.25</ele><time>2026-04-19T06:55:18Z</time></trkpt><trkpt lat="37.8622964931662" lon="15.076117369692483"><ele>697.0</ele><time>2026-04-19T06:55:20Z</time></trkpt><trkpt lat="37.86233395331922" lon="15.075979935918511"><ele>697.0</ele><time>2026-04-19T06:55:22Z</time></trkpt><trkpt lat="37.862386336957634" lon="15.0758368647265"><ele>697.0</ele><time>2026-04-19T06:55:24Z</time></trkpt><trkpt lat="37.86242271435768" lon="15.0757628398436"><ele>697.0</ele><time>2026-04-19T06:55:25Z</time></trkpt><trkpt lat="37.86247078654033" lon="15.075682536154824"><ele>697.0</ele><time>2026-04-19T06:55:26Z</time></trkpt><trkpt lat="37.86252692581228" lon="15.075598145354451"><ele>697.0</ele><time>2026-04-19T06:55:27Z</time></trkpt><trkpt lat="37.862587963696" lon="15.075497260495478"><ele>698.2</ele><time>2026-04-19T06:55:28Z</time></trkpt><trkpt lat="37.862654273997585" lon="15.075385465697439"><ele>699.4000000000001</ele><time>2026-04-19T06:55:29Z</time></trkpt><trkpt lat="37.862729947712616" lon="15.075289598470578"><ele>700.5999999999999</ele><time>2026-04-19T06:55:30Z</time></trkpt><trkpt lat="37.86282719171416" lon="15.07523737899288"><ele>701.8</ele><time>2026-04-19T06:55:31Z</time></trkpt><trkpt lat="37.86294218071495" lon="15.075217299874915"><ele>703.0</ele><time>2026-04-19T06:55:32Z</time></trkpt><trkpt lat="37.86306115659016" lon="15.075215335333638"><ele>703.0</ele><time>2026-04-19T06:55:33Z</time></trkpt><trkpt lat="37.86318058815958" lon="15.075207282331972"><ele>703.0</ele><time>2026-04-19T06:55:34Z</time></trkpt><trkpt lat="37.86329666844787" lon="15.075192563032914"><ele>703.0</ele><time>2026-04-19T06:55:35Z</time></trkpt><trkpt lat="37.86340861743258" lon="15.075169657122785"><ele>703.0</ele><time>2026-04-19T06:55:36Z</time></trkpt><trkpt lat="37.863510185175315" lon="15.07509937087815"><ele>704.5</ele><time>2026-04-19T06:55:37Z</time></trkpt><trkpt lat="37.86360753040796" lon="15.07498595451887"><ele>706.0</ele><time>2026-04-19T06:55:38Z</time></trkpt><trkpt lat="37.86372217690887" lon="15.074895408447322"><ele>707.5</ele><time>2026-04-19T06:55:39Z</time></trkpt><trkpt lat="37.863828194793044" lon="15.07479328137468"><ele>709.0</ele><time>2026-04-19T06:55:40Z</time></trkpt><trkpt lat="37.86393853754618" lon="15.074686988068697"><ele>709.0</ele><time>2026-04-19T06:55:41Z</time></trkpt><trkpt lat="37.864046473262746" lon="15.07458301349719"><ele>709.0</ele><time>2026-04-19T06:55:42Z</time></trkpt><trkpt lat="37.86414020000742" lon="15.074469157733462"><ele>709.0</ele><time>2026-04-19T06:55:43.001Z</time></trkpt><trkpt lat="37.86424780861377" lon="15.074372789908486"><ele>709.0</ele><time>2026-04-19T06:55:44.001Z</time></trkpt><trkpt lat="37.86435014666837" lon="15.074259704643028"><ele>710.0</ele><time>2026-04-19T06:55:45.001Z</time></trkpt><trkpt lat="37.864445182345726" lon="15.074131575102802"><ele>711.0</ele><time>2026-04-19T06:55:46.001Z</time></trkpt><trkpt lat="37.86453127836913" lon="15.073990064359426"><ele>712.0</ele><time>2026-04-19T06:55:47.001Z</time></trkpt><trkpt lat="37.864604304916895" lon="15.073843517510879"><ele>713.0</ele><time>2026-04-19T06:55:48.001Z</time></trkpt><trkpt lat="37.864662177925645" lon="15.073692980873643"><ele>713.0</ele><time>2026-04-19T06:55:49.001Z</time></trkpt><trkpt lat="37.8647402801258" lon="15.073559555422204"><ele>713.0</ele><time>2026-04-19T06:55:50.001Z</time></trkpt><trkpt lat="37.8648059937018" lon="15.073419581192903"><ele>713.0</ele><time>2026-04-19T06:55:51.001Z</time></trkpt><trkpt lat="37.86486851717385" lon="15.07328640211065"><ele>713.0</ele><time>2026-04-19T06:55:52.001Z</time></trkpt><trkpt lat="37.864928346415056" lon="15.073146613720576"><ele>714.0</ele><time>2026-04-19T06:55:53.001Z</time></trkpt><trkpt lat="37.864978384448236" lon="15.07300548154314"><ele>715.0</ele><time>2026-04-19T06:55:54.001Z</time></trkpt><trkpt lat="37.86500704033704" lon="15.072844663990992"><ele>716.0</ele><time>2026-04-19T06:55:55.001Z</time></trkpt><trkpt lat="37.86499750993352" lon="15.072678425173889"><ele>717.0</ele><time>2026-04-19T06:55:56.001Z</time></trkpt><trkpt lat="37.86501227500159" lon="15.072505593385111"><ele>716.3333333333334</ele><time>2026-04-19T06:55:57.001Z</time></trkpt><trkpt lat="37.86500258820812" lon="15.072318200258973"><ele>715.6666666666667</ele><time>2026-04-19T06:55:58.001Z</time></trkpt><trkpt lat="37.86498268759767" lon="15.07211607084268"><ele>715.0</ele><time>2026-04-19T06:55:59.001Z</time></trkpt><trkpt lat="37.86496114030061" lon="15.071914838671582"><ele>715.0</ele><time>2026-04-19T06:56:00.001Z</time></trkpt><trkpt lat="37.86494026199378" lon="15.071718706983026"><ele>715.0</ele><time>2026-04-19T06:56:01.001Z</time></trkpt><trkpt lat="37.86491696584894" lon="15.071499986065668"><ele>715.0</ele><time>2026-04-19T06:56:02.001Z</time></trkpt><trkpt lat="37.86489342347087" lon="15.07127921433862"><ele>715.0</ele><time>2026-04-19T06:56:03.001Z</time></trkpt><trkpt lat="37.86487045202501" lon="15.0710625854743"><ele>715.0</ele><time>2026-04-19T06:56:04.001Z</time></trkpt><trkpt lat="37.86484789996205" lon="15.070850027849573"><ele>715.0</ele><time>2026-04-19T06:56:05.001Z</time></trkpt><trkpt lat="37.86482563328734" lon="15.070640563447364"><ele>715.0</ele><time>2026-04-19T06:56:06.001Z</time></trkpt><trkpt lat="37.864789597343716" lon="15.070435812399518"><ele>715.0</ele><time>2026-04-19T06:56:07.001Z</time></trkpt><trkpt lat="37.86476134963898" lon="15.070232166629062"><ele>715.0</ele><time>2026-04-19T06:56:08.001Z</time></trkpt><trkpt lat="37.86471063449565" lon="15.070033471344672"><ele>717.3333333333334</ele><time>2026-04-19T06:56:09.001Z</time></trkpt><trkpt lat="37.864629677571855" lon="15.069842937968199"><ele>719.6666666666666</ele><time>2026-04-19T06:56:10.001Z</time></trkpt><trkpt lat="37.86454540077958" lon="15.069648878958636"><ele>722.0</ele><time>2026-04-19T06:56:11.001Z</time></trkpt><trkpt lat="37.86446032750769" lon="15.06946377828251"><ele>722.0</ele><time>2026-04-19T06:56:12.001Z</time></trkpt><trkpt lat="37.86439294267683" lon="15.069284930402379"><ele>722.0</ele><time>2026-04-19T06:56:13.001Z</time></trkpt><trkpt lat="37.86438377011793" lon="15.06909844851383"><ele>722.0</ele><time>2026-04-19T06:56:14.001Z</time></trkpt><trkpt lat="37.86438350236449" lon="15.06890297563223"><ele>722.6666666666666</ele><time>2026-04-19T06:56:15.001Z</time></trkpt><trkpt lat="37.864385019687845" lon="15.06870044820866"><ele>723.3333333333334</ele><time>2026-04-19T06:56:16.001Z</time></trkpt><trkpt lat="37.86438618291236" lon="15.068496670110312"><ele>724.0</ele><time>2026-04-19T06:56:17.001Z</time></trkpt><trkpt lat="37.864387393609825" lon="15.0682892861354"><ele>726.3333333333334</ele><time>2026-04-19T06:56:18.001Z</time></trkpt><trkpt lat="37.864389649630624" lon="15.068080221057208"><ele>728.6666666666666</ele><time>2026-04-19T06:56:19.001Z</time></trkpt><trkpt lat="37.864400004390625" lon="15.06787461741952"><ele>731.0</ele><time>2026-04-19T06:56:20.001Z</time></trkpt><trkpt lat="37.86443603534438" lon="15.067674419839031"><ele>731.0</ele><time>2026-04-19T06:56:21.001Z</time></trkpt><trkpt lat="37.86448643084008" lon="15.067474673923964"><ele>731.0</ele><time>2026-04-19T06:56:22.001Z</time></trkpt><trkpt lat="37.86453684754168" lon="15.067273404797287"><ele>731.0</ele><time>2026-04-19T06:56:23.001Z</time></trkpt><trkpt lat="37.864535652184664" lon="15.067062582797202"><ele>731.6666666666666</ele><time>2026-04-19T06:56:24.001Z</time></trkpt><trkpt lat="37.86451548993429" lon="15.06684655423475"><ele>732.3333333333334</ele><time>2026-04-19T06:56:25.001Z</time></trkpt><trkpt lat="37.864484968683485" lon="15.066635101984298"><ele>733.0</ele><time>2026-04-19T06:56:26.002Z</time></trkpt><trkpt lat="37.864479314079325" lon="15.066415589212795"><ele>734.6666666666667</ele><time>2026-04-19T06:56:27.002Z</time></trkpt><trkpt lat="37.86444327862841" lon="15.066202600807538"><ele>736.3333333333334</ele><time>2026-04-19T06:56:28.002Z</time></trkpt><trkpt lat="37.86444637777252" lon="15.065985529466303"><ele>738.0</ele><time>2026-04-19T06:56:29.002Z</time></trkpt><trkpt lat="37.864439457989654" lon="15.065768023703464"><ele>739.6666666666666</ele><time>2026-04-19T06:56:30.002Z</time></trkpt><trkpt lat="37.864434671401284" lon="15.065546206571426"><ele>741.3333333333333</ele><time>2026-04-19T06:56:31.002Z</time></trkpt><trkpt lat="37.86443048933119" lon="15.065329593901982"><ele>743.0</ele><time>2026-04-19T06:56:32.002Z</time></trkpt><trkpt lat="37.86442639529935" lon="15.065117541143183"><ele>743.6666666666666</ele><time>2026-04-19T06:56:33.002Z</time></trkpt><trkpt lat="37.864422276573336" lon="15.064904209380904"><ele>744.3333333333334</ele><time>2026-04-19T06:56:34.002Z</time></trkpt><trkpt lat="37.86441829635208" lon="15.06469702103538"><ele>745.0</ele><time>2026-04-19T06:56:35.002Z</time></trkpt><trkpt lat="37.86441835603756" lon="15.064495181887414"><ele>745.0</ele><time>2026-04-19T06:56:36.002Z</time></trkpt><trkpt lat="37.86442795487791" lon="15.064284997353214"><ele>745.0</ele><time>2026-04-19T06:56:37.002Z</time></trkpt><trkpt lat="37.864464136572664" lon="15.064088085603347"><ele>745.0</ele><time>2026-04-19T06:56:38.002Z</time></trkpt><trkpt lat="37.864524800078165" lon="15.063874891172144"><ele>745.0</ele><time>2026-04-19T06:56:39.002Z</time></trkpt><trkpt lat="37.864574404206785" lon="15.063656672231403"><ele>745.0</ele><time>2026-04-19T06:56:40.002Z</time></trkpt><trkpt lat="37.864638688523556" lon="15.063453422687758"><ele>745.0</ele><time>2026-04-19T06:56:41.002Z</time></trkpt><trkpt lat="37.86469496135628" lon="15.063255900070418"><ele>744.3333333333334</ele><time>2026-04-19T06:56:42.002Z</time></trkpt><trkpt lat="37.864718891099145" lon="15.063054364296116"><ele>743.6666666666666</ele><time>2026-04-19T06:56:43.002Z</time></trkpt><trkpt lat="37.86469425354326" lon="15.062842281195268"><ele>743.0</ele><time>2026-04-19T06:56:44.002Z</time></trkpt><trkpt lat="37.864641688168625" lon="15.062624334279711"><ele>740.6666666666666</ele><time>2026-04-19T06:56:45.002Z</time></trkpt><trkpt lat="37.86461510956108" lon="15.062391836605816"><ele>738.3333333333334</ele><time>2026-04-19T06:56:46.002Z</time></trkpt><trkpt lat="37.86457292001835" lon="15.062158441681305"><ele>736.0</ele><time>2026-04-19T06:56:47.002Z</time></trkpt><trkpt lat="37.8645168954907" lon="15.06193192850998"><ele>736.0</ele><time>2026-04-19T06:56:48.002Z</time></trkpt><trkpt lat="37.864490208352215" lon="15.061707150132126"><ele>736.0</ele><time>2026-04-19T06:56:49.002Z</time></trkpt><trkpt lat="37.86444659172827" lon="15.061487711182615"><ele>736.0</ele><time>2026-04-19T06:56:50.002Z</time></trkpt><trkpt lat="37.86438274121084" lon="15.061290012347426"><ele>737.6666666666667</ele><time>2026-04-19T06:56:51.002Z</time></trkpt><trkpt lat="37.86427961469267" lon="15.061093209310668"><ele>739.3333333333334</ele><time>2026-04-19T06:56:52.002Z</time></trkpt><trkpt lat="37.86417106571845" lon="15.060929793679296"><ele>741.0</ele><time>2026-04-19T06:56:53.002Z</time></trkpt><trkpt lat="37.86407096401637" lon="15.060773127531439"><ele>741.3333333333334</ele><time>2026-04-19T06:56:54.002Z</time></trkpt><trkpt lat="37.864006814360614" lon="15.060587869329693"><ele>741.6666666666667</ele><time>2026-04-19T06:56:55.002Z</time></trkpt><trkpt lat="37.86397351115885" lon="15.060384564550256"><ele>742.0</ele><time>2026-04-19T06:56:56.002Z</time></trkpt><trkpt lat="37.863956890810826" lon="15.0601845074841"><ele>742.0</ele><time>2026-04-19T06:56:57.002Z</time></trkpt><trkpt lat="37.86396307476917" lon="15.059996671058396"><ele>742.0</ele><time>2026-04-19T06:56:58.002Z</time></trkpt><trkpt lat="37.86396113353253" lon="15.059816086355235"><ele>742.0</ele><time>2026-04-19T06:56:59.002Z</time></trkpt><trkpt lat="37.863917440948" lon="15.05964955380008"><ele>742.0</ele><time>2026-04-19T06:57:00.002Z</time></trkpt><trkpt lat="37.86384014584585" lon="15.059496990240778"><ele>741.3333333333334</ele><time>2026-04-19T06:57:01.002Z</time></trkpt><trkpt lat="37.86373173718833" lon="15.059354584175228"><ele>740.6666666666666</ele><time>2026-04-19T06:57:02.002Z</time></trkpt><trkpt lat="37.86363174671687" lon="15.059198059037396"><ele>740.0</ele><time>2026-04-19T06:57:03.002Z</time></trkpt><trkpt lat="37.86351444066244" lon="15.059053919682903"><ele>741.3333333333333</ele><time>2026-04-19T06:57:04.002Z</time></trkpt><trkpt lat="37.863393268372214" lon="15.058910806881151"><ele>742.6666666666666</ele><time>2026-04-19T06:57:05.002Z</time></trkpt><trkpt lat="37.86327157891335" lon="15.058771476082816"><ele>744.0</ele><time>2026-04-19T06:57:06.002Z</time></trkpt><trkpt lat="37.86316051958924" lon="15.058626766212479"><ele>744.0</ele><time>2026-04-19T06:57:07.003Z</time></trkpt><trkpt lat="37.863089026859285" lon="15.058462384052353"><ele>744.0</ele><time>2026-04-19T06:57:08.003Z</time></trkpt><trkpt lat="37.86302335651823" lon="15.058286757845021"><ele>744.0</ele><time>2026-04-19T06:57:09Z</time></trkpt><trkpt lat="37.86295822945122" lon="15.058108346384241"><ele>743.6666666666666</ele><time>2026-04-19T06:57:10Z</time></trkpt><trkpt lat="37.8628818689487" lon="15.057931296141517"><ele>743.3333333333333</ele><time>2026-04-19T06:57:11Z</time></trkpt><trkpt lat="37.862828004767266" lon="15.057736213579348"><ele>743.0</ele><time>2026-04-19T06:57:12Z</time></trkpt><trkpt lat="37.86279065023371" lon="15.057520169284173"><ele>743.3333333333333</ele><time>2026-04-19T06:57:13Z</time></trkpt><trkpt lat="37.86272834445257" lon="15.057292394701006"><ele>743.6666666666666</ele><time>2026-04-19T06:57:14Z</time></trkpt><trkpt lat="37.86266568609994" lon="15.057039472972667"><ele>744.0</ele><time>2026-04-19T06:57:15Z</time></trkpt><trkpt lat="37.86261029299893" lon="15.056779878707387"><ele>745.3333333333334</ele><time>2026-04-19T06:57:16Z</time></trkpt><trkpt lat="37.86253858799271" lon="15.056520567687778"><ele>746.6666666666667</ele><time>2026-04-19T06:57:17Z</time></trkpt><trkpt lat="37.86246642430788" lon="15.05627848585106"><ele>748.0</ele><time>2026-04-19T06:57:18Z</time></trkpt><trkpt lat="37.86240153284877" lon="15.05605097627376"><ele>748.0</ele><time>2026-04-19T06:57:19Z</time></trkpt><trkpt lat="37.8623522307454" lon="15.055825016146379"><ele>748.0</ele><time>2026-04-19T06:57:20Z</time></trkpt><trkpt lat="37.86230165679624" lon="15.05559110885264"><ele>748.0</ele><time>2026-04-19T06:57:21Z</time></trkpt><trkpt lat="37.86226625636652" lon="15.05534869352734"><ele>748.0</ele><time>2026-04-19T06:57:22Z</time></trkpt><trkpt lat="37.8622225343934" lon="15.055124541255319"><ele>748.0</ele><time>2026-04-19T06:57:23Z</time></trkpt><trkpt lat="37.86217553094833" lon="15.054916751444525"><ele>748.0</ele><time>2026-04-19T06:57:24Z</time></trkpt><trkpt lat="37.862072501048104" lon="15.054759924925778"><ele>747.0</ele><time>2026-04-19T06:57:25Z</time></trkpt><trkpt lat="37.86201620509392" lon="15.054610379967341"><ele>746.0</ele><time>2026-04-19T06:57:26Z</time></trkpt><trkpt lat="37.86199916206834" lon="15.054467659757314"><ele>745.0</ele><time>2026-04-19T06:57:27Z</time></trkpt><trkpt lat="37.862050883488635" lon="15.05433916268328"><ele>744.0</ele><time>2026-04-19T06:57:28Z</time></trkpt><trkpt lat="37.86211521760169" lon="15.05420740805689"><ele>742.75</ele><time>2026-04-19T06:57:29Z</time></trkpt><trkpt lat="37.86218927448119" lon="15.054088278638245"><ele>741.5</ele><time>2026-04-19T06:57:30Z</time></trkpt><trkpt lat="37.86230808732693" lon="15.054042877807143"><ele>740.25</ele><time>2026-04-19T06:57:31Z</time></trkpt><trkpt lat="37.86243530542262" lon="15.054041688709608"><ele>739.0</ele><time>2026-04-19T06:57:32Z</time></trkpt><trkpt lat="37.86256980572151" lon="15.05403404896897"><ele>738.3333333333334</ele><time>2026-04-19T06:57:33Z</time></trkpt><trkpt lat="37.86272830460216" lon="15.053968346962813"><ele>737.6666666666666</ele><time>2026-04-19T06:57:34Z</time></trkpt><trkpt lat="37.862870529719196" lon="15.053870059914834"><ele>737.0</ele><time>2026-04-19T06:57:35Z</time></trkpt><trkpt lat="37.862987790172646" lon="15.053744892714924"><ele>737.0</ele><time>2026-04-19T06:57:36Z</time></trkpt><trkpt lat="37.86303223642102" lon="15.053531789668916"><ele>737.0</ele><time>2026-04-19T06:57:37Z</time></trkpt><trkpt lat="37.86308221997504" lon="15.053344564942217"><ele>737.0</ele><time>2026-04-19T06:57:38Z</time></trkpt><trkpt lat="37.86314557208003" lon="15.053174725013964"><ele>736.6666666666666</ele><time>2026-04-19T06:57:39Z</time></trkpt><trkpt lat="37.86327245710973" lon="15.053056007500112"><ele>736.3333333333334</ele><time>2026-04-19T06:57:40Z</time></trkpt><trkpt lat="37.863424340842755" lon="15.052926123969081"><ele>736.0</ele><time>2026-04-19T06:57:41Z</time></trkpt><trkpt lat="37.86358491890295" lon="15.05277371261383"><ele>735.0</ele><time>2026-04-19T06:57:42Z</time></trkpt><trkpt lat="37.863758703692554" lon="15.052614428405136"><ele>734.0</ele><time>2026-04-19T06:57:43.001Z</time></trkpt><trkpt lat="37.863911964648324" lon="15.05247053126742"><ele>733.0</ele><time>2026-04-19T06:57:44.001Z</time></trkpt><trkpt lat="37.86411919075013" lon="15.052293578949634"><ele>730.0</ele><time>2026-04-19T06:57:45.001Z</time></trkpt><trkpt lat="37.86434169164813" lon="15.052099070511893"><ele>727.0</ele><time>2026-04-19T06:57:46.001Z</time></trkpt><trkpt lat="37.864558430967676" lon="15.051890749054898"><ele>727.0</ele><time>2026-04-19T06:57:47.001Z</time></trkpt><trkpt lat="37.86479095602247" lon="15.051688009466636"><ele>727.0</ele><time>2026-04-19T06:57:48.001Z</time></trkpt><trkpt lat="37.86501252238285" lon="15.051494727041751"><ele>724.0</ele><time>2026-04-19T06:57:49.001Z</time></trkpt><trkpt lat="37.865214694829966" lon="15.051326661949563"><ele>721.0</ele><time>2026-04-19T06:57:50.001Z</time></trkpt><trkpt lat="37.865392801987944" lon="15.051182498711732"><ele>721.0</ele><time>2026-04-19T06:57:51.001Z</time></trkpt><trkpt lat="37.86556538158687" lon="15.051016830865464"><ele>721.0</ele><time>2026-04-19T06:57:52.001Z</time></trkpt><trkpt lat="37.86572895218034" lon="15.05078508995112"><ele>719.5</ele><time>2026-04-19T06:57:53.001Z</time></trkpt><trkpt lat="37.86588305243331" lon="15.050554985754559"><ele>718.0</ele><time>2026-04-19T06:57:54.001Z</time></trkpt><trkpt lat="37.866037334494585" lon="15.050363307802009"><ele>716.6666666666667</ele><time>2026-04-19T06:57:55.001Z</time></trkpt><trkpt lat="37.86623171537761" lon="15.0502106223452"><ele>715.3333333333334</ele><time>2026-04-19T06:57:56.001Z</time></trkpt><trkpt lat="37.8664168280679" lon="15.050118648410976"><ele>714.0</ele><time>2026-04-19T06:57:57.001Z</time></trkpt><trkpt lat="37.86656418456266" lon="15.049976324843229"><ele>713.6666666666666</ele><time>2026-04-19T06:57:58.001Z</time></trkpt><trkpt lat="37.8667078648162" lon="15.049823522670563"><ele>713.3333333333333</ele><time>2026-04-19T06:57:59.001Z</time></trkpt><trkpt lat="37.8668193229254" lon="15.049619870681557"><ele>713.0</ele><time>2026-04-19T06:58:00.001Z</time></trkpt><trkpt lat="37.866922482673665" lon="15.049359520262785"><ele>709.3333333333333</ele><time>2026-04-19T06:58:01.001Z</time></trkpt><trkpt lat="37.86701065582058" lon="15.049108377038488"><ele>705.6666666666666</ele><time>2026-04-19T06:58:02.001Z</time></trkpt><trkpt lat="37.86707279385647" lon="15.048915000483383"><ele>702.0</ele><time>2026-04-19T06:58:03.001Z</time></trkpt><trkpt lat="37.86714199607946" lon="15.048690135961799"><ele>702.0</ele><time>2026-04-19T06:58:04.001Z</time></trkpt><trkpt lat="37.86714992461467" lon="15.048461100612887"><ele>702.0</ele><time>2026-04-19T06:58:05.001Z</time></trkpt><trkpt lat="37.867140286827464" lon="15.048218068939223"><ele>702.0</ele><time>2026-04-19T06:58:06.001Z</time></trkpt><trkpt lat="37.86717086717201" lon="15.047944895554913"><ele>700.0</ele><time>2026-04-19T06:58:07.001Z</time></trkpt><trkpt lat="37.86720830291696" lon="15.047638384645392"><ele>698.0</ele><time>2026-04-19T06:58:08.001Z</time></trkpt><trkpt lat="37.86726045170522" lon="15.047369500285273"><ele>697.0</ele><time>2026-04-19T06:58:09.001Z</time></trkpt><trkpt lat="37.867357267945025" lon="15.047134936139077"><ele>696.0</ele><time>2026-04-19T06:58:10.001Z</time></trkpt><trkpt lat="37.86746028391097" lon="15.046880177971888"><ele>695.0</ele><time>2026-04-19T06:58:11.001Z</time></trkpt><trkpt lat="37.86757722232612" lon="15.046590989692682"><ele>690.5</ele><time>2026-04-19T06:58:12.001Z</time></trkpt><trkpt lat="37.86770600449948" lon="15.046272511792399"><ele>686.0</ele><time>2026-04-19T06:58:13.001Z</time></trkpt><trkpt lat="37.867844552794026" lon="15.045927691473329"><ele>684.5</ele><time>2026-04-19T06:58:14.001Z</time></trkpt><trkpt lat="37.86798899574306" lon="15.045567892528505"><ele>683.0</ele><time>2026-04-19T06:58:15.001Z</time></trkpt><trkpt lat="37.8681258293871" lon="15.045186378943024"><ele>682.0</ele><time>2026-04-19T06:58:16.001Z</time></trkpt><trkpt lat="37.86827358245999" lon="15.044813056764527"><ele>681.0</ele><time>2026-04-19T06:58:17.001Z</time></trkpt><trkpt lat="37.86842914887129" lon="15.044469608486942"><ele>679.5</ele><time>2026-04-19T06:58:18.001Z</time></trkpt><trkpt lat="37.86856134455291" lon="15.044141935453688"><ele>678.0</ele><time>2026-04-19T06:58:19.002Z</time></trkpt><trkpt lat="37.8686851884696" lon="15.043833893184441"><ele>678.0</ele><time>2026-04-19T06:58:20.002Z</time></trkpt><trkpt lat="37.86878919841463" lon="15.043534621229618"><ele>678.0</ele><time>2026-04-19T06:58:21.002Z</time></trkpt><trkpt lat="37.86889877457463" lon="15.043269618306054"><ele>677.3333333333334</ele><time>2026-04-19T06:58:22.002Z</time></trkpt><trkpt lat="37.86899971800626" lon="15.043018680813642"><ele>676.6666666666667</ele><time>2026-04-19T06:58:23.002Z</time></trkpt><trkpt lat="37.86908880572455" lon="15.042784693193791"><ele>676.0</ele><time>2026-04-19T06:58:24.002Z</time></trkpt><trkpt lat="37.86918074131417" lon="15.042568704508092"><ele>675.6666666666667</ele><time>2026-04-19T06:58:25.002Z</time></trkpt><trkpt lat="37.86926122920509" lon="15.042354328403984"><ele>675.3333333333334</ele><time>2026-04-19T06:58:26.002Z</time></trkpt><trkpt lat="37.86930408193135" lon="15.042142636010587"><ele>675.0</ele><time>2026-04-19T06:58:27.002Z</time></trkpt><trkpt lat="37.869358856790846" lon="15.04197163975411"><ele>675.5</ele><time>2026-04-19T06:58:28.002Z</time></trkpt><trkpt lat="37.869376324004335" lon="15.041807640320325"><ele>676.0</ele><time>2026-04-19T06:58:29.002Z</time></trkpt><trkpt lat="37.86933667551231" lon="15.041644706780609"><ele>676.5</ele><time>2026-04-19T06:58:30.002Z</time></trkpt><trkpt lat="37.869267221804144" lon="15.041485277589478"><ele>677.0</ele><time>2026-04-19T06:58:31.002Z</time></trkpt><trkpt lat="37.869224814277395" lon="15.041331933848394"><ele>677.0</ele><time>2026-04-19T06:58:32.002Z</time></trkpt><trkpt lat="37.8692602975215" lon="15.041148306911415"><ele>677.0</ele><time>2026-04-19T06:58:33.002Z</time></trkpt><trkpt lat="37.86931367993592" lon="15.040942953420924"><ele>677.0</ele><time>2026-04-19T06:58:34.002Z</time></trkpt><trkpt lat="37.869312613603576" lon="15.04073694554006"><ele>676.0</ele><time>2026-04-19T06:58:35.002Z</time></trkpt><trkpt lat="37.86924726618829" lon="15.04049406290841"><ele>675.0</ele><time>2026-04-19T06:58:36.002Z</time></trkpt><trkpt lat="37.869162689377596" lon="15.0402454434063"><ele>674.0</ele><time>2026-04-19T06:58:37.002Z</time></trkpt><trkpt lat="37.86913237626384" lon="15.040029347536857"><ele>672.6666666666666</ele><time>2026-04-19T06:58:38.002Z</time></trkpt><trkpt lat="37.86915633740714" lon="15.039815822516214"><ele>671.3333333333334</ele><time>2026-04-19T06:58:39.002Z</time></trkpt><trkpt lat="37.86920195983912" lon="15.039607203631027"><ele>670.0</ele><time>2026-04-19T06:58:40.002Z</time></trkpt><trkpt lat="37.86927016187436" lon="15.039391551788178"><ele>667.6666666666667</ele><time>2026-04-19T06:58:41.002Z</time></trkpt><trkpt lat="37.869327358143565" lon="15.039159403106746"><ele>665.3333333333334</ele><time>2026-04-19T06:58:42.002Z</time></trkpt><trkpt lat="37.869376563905256" lon="15.038941181221105"><ele>663.0</ele><time>2026-04-19T06:58:43.002Z</time></trkpt><trkpt lat="37.86942684553905" lon="15.03874236954721"><ele>663.0</ele><time>2026-04-19T06:58:44.002Z</time></trkpt><trkpt lat="37.86949418818292" lon="15.038564512619454"><ele>663.0</ele><time>2026-04-19T06:58:45.002Z</time></trkpt><trkpt lat="37.86958774884199" lon="15.038421816640794"><ele>663.0</ele><time>2026-04-19T06:58:46.002Z</time></trkpt><trkpt lat="37.869703162101096" lon="15.03829594249494"><ele>663.0</ele><time>2026-04-19T06:58:47.002Z</time></trkpt><trkpt lat="37.86984275254845" lon="15.038174545319492"><ele>663.0</ele><time>2026-04-19T06:58:48.002Z</time></trkpt><trkpt lat="37.869991151367834" lon="15.038013876324532"><ele>663.0</ele><time>2026-04-19T06:58:49.002Z</time></trkpt><trkpt lat="37.87011784792721" lon="15.037873595905788"><ele>659.0</ele><time>2026-04-19T06:58:50.002Z</time></trkpt><trkpt lat="37.87022294905667" lon="15.037760643660578"><ele>659.0</ele><time>2026-04-19T06:58:51.002Z</time></trkpt><trkpt lat="37.870296366782966" lon="15.0376816928791"><ele>659.0</ele><time>2026-04-19T06:58:52.002Z</time></trkpt><trkpt lat="37.87037822713391" lon="15.037607492455713"><ele>659.0</ele><time>2026-04-19T06:58:54.002Z</time></trkpt></trkseg><trkseg><trkpt lat="37.870429072491426" lon="15.037499505443956"><ele>659.0</ele><time>2026-04-19T07:12:57.001Z</time></trkpt><trkpt lat="37.87051104151676" lon="15.037478760925595"><ele>659.0</ele><time>2026-04-19T07:13:07.002Z</time></trkpt><trkpt lat="37.870568553867884" lon="15.037414735256212"><ele>659.0</ele><time>2026-04-19T07:13:09.002Z</time></trkpt><trkpt lat="37.87063301872744" lon="15.037342969701918"><ele>659.0</ele><time>2026-04-19T07:13:11.002Z</time></trkpt><trkpt lat="37.870700256338175" lon="15.037268117371699"><ele>659.0</ele><time>2026-04-19T07:13:13.002Z</time></trkpt><trkpt lat="37.870767059073586" lon="15.03720106985704"><ele>659.0</ele><time>2026-04-19T07:13:15.002Z</time></trkpt><trkpt lat="37.87082721834945" lon="15.037139693457501"><ele>658.8333333333333</ele><time>2026-04-19T07:13:18.002Z</time></trkpt><trkpt lat="37.87090388686268" lon="15.03706800849691"><ele>658.6666666666666</ele><time>2026-04-19T07:13:27.002Z</time></trkpt><trkpt lat="37.8709661181196" lon="15.036987070601272"><ele>658.5</ele><time>2026-04-19T07:13:29.002Z</time></trkpt><trkpt lat="37.871067055901754" lon="15.036965070337827"><ele>658.3333333333334</ele><time>2026-04-19T07:13:31.002Z</time></trkpt><trkpt lat="37.87113765126407" lon="15.03698623958532"><ele>658.1666666666667</ele><time>2026-04-19T07:13:32.002Z</time></trkpt><trkpt lat="37.87122690632395" lon="15.036977219126687"><ele>658.0</ele><time>2026-04-19T07:13:33.002Z</time></trkpt><trkpt lat="37.871330260508294" lon="15.036964122988595"><ele>657.75</ele><time>2026-04-19T07:13:34.002Z</time></trkpt><trkpt lat="37.87146756833198" lon="15.036936837872465"><ele>657.5</ele><time>2026-04-19T07:13:35.002Z</time></trkpt><trkpt lat="37.87159545323189" lon="15.036842852896026"><ele>657.25</ele><time>2026-04-19T07:13:36.002Z</time></trkpt><trkpt lat="37.871710694177786" lon="15.036789347220875"><ele>657.0</ele><time>2026-04-19T07:13:37.002Z</time></trkpt><trkpt lat="37.871825281890615" lon="15.036737429303269"><ele>657.0</ele><time>2026-04-19T07:13:38.002Z</time></trkpt><trkpt lat="37.871915931899146" lon="15.036661179099172"><ele>657.0</ele><time>2026-04-19T07:13:39.002Z</time></trkpt><trkpt lat="37.87200667962882" lon="15.036566260857269"><ele>657.0</ele><time>2026-04-19T07:13:40.002Z</time></trkpt><trkpt lat="37.87210587220318" lon="15.036490695994026"><ele>657.0</ele><time>2026-04-19T07:13:41.002Z</time></trkpt><trkpt lat="37.87217856244522" lon="15.036399429357672"><ele>657.0</ele><time>2026-04-19T07:13:42.002Z</time></trkpt><trkpt lat="37.87224712243862" lon="15.03631680305902"><ele>657.5</ele><time>2026-04-19T07:13:43.002Z</time></trkpt><trkpt lat="37.87231217419807" lon="15.036248317034234"><ele>658.0</ele><time>2026-04-19T07:13:44.002Z</time></trkpt><trkpt lat="37.872378925891" lon="15.03620046671344"><ele>658.5</ele><time>2026-04-19T07:13:45.002Z</time></trkpt><trkpt lat="37.872447571777016" lon="15.036150542409983"><ele>659.0</ele><time>2026-04-19T07:13:46.002Z</time></trkpt><trkpt lat="37.872517287797166" lon="15.036122658776339"><ele>659.5</ele><time>2026-04-19T07:13:47.002Z</time></trkpt><trkpt lat="37.872587788968985" lon="15.036084802400332"><ele>660.0</ele><time>2026-04-19T07:13:48.002Z</time></trkpt><trkpt lat="37.872661443427" lon="15.03604638682342"><ele>659.1666666666666</ele><time>2026-04-19T07:13:49.002Z</time></trkpt><trkpt lat="37.87273549556958" lon="15.036008076117595"><ele>658.3333333333334</ele><time>2026-04-19T07:13:50.002Z</time></trkpt><trkpt lat="37.87280645726745" lon="15.035971364243565"><ele>657.5</ele><time>2026-04-19T07:13:51.002Z</time></trkpt><trkpt lat="37.872875874015136" lon="15.035934871985045"><ele>656.6666666666667</ele><time>2026-04-19T07:13:52.002Z</time></trkpt><trkpt lat="37.87298259689479" lon="15.035851793190878"><ele>655.8333333333334</ele><time>2026-04-19T07:13:54.002Z</time></trkpt><trkpt lat="37.87302442693758" lon="15.035783493667628"><ele>655.0</ele><time>2026-04-19T07:13:55.002Z</time></trkpt><trkpt lat="37.8730586880574" lon="15.035714852458415"><ele>655.0</ele><time>2026-04-19T07:13:56.002Z</time></trkpt><trkpt lat="37.873111046060444" lon="15.035579133285701"><ele>655.0</ele><time>2026-04-19T07:13:58.001Z</time></trkpt><trkpt lat="37.87312708642517" lon="15.035500054941366"><ele>655.0</ele><time>2026-04-19T07:13:59.001Z</time></trkpt><trkpt lat="37.87313785633375" lon="15.035337447250175"><ele>655.0</ele><time>2026-04-19T07:14:01.001Z</time></trkpt><trkpt lat="37.87318186453577" lon="15.035189178841922"><ele>655.0</ele><time>2026-04-19T07:14:03.001Z</time></trkpt><trkpt lat="37.873199455739005" lon="15.035107665222384"><ele>655.0</ele><time>2026-04-19T07:14:04.001Z</time></trkpt><trkpt lat="37.873213371408454" lon="15.035023838291373"><ele>655.0</ele><time>2026-04-19T07:14:05.001Z</time></trkpt><trkpt lat="37.87325455005841" lon="15.034945606168433"><ele>655.0</ele><time>2026-04-19T07:14:06.001Z</time></trkpt><trkpt lat="37.873273895010335" lon="15.034861140710596"><ele>655.0</ele><time>2026-04-19T07:14:07Z</time></trkpt><trkpt lat="37.873294390203455" lon="15.034773137867438"><ele>655.0</ele><time>2026-04-19T07:14:08Z</time></trkpt><trkpt lat="37.87331512268042" lon="15.03468438422677"><ele>655.0</ele><time>2026-04-19T07:14:09Z</time></trkpt><trkpt lat="37.87333758166863" lon="15.034599827639475"><ele>655.0</ele><time>2026-04-19T07:14:10Z</time></trkpt><trkpt lat="37.87336210730207" lon="15.034516012288142"><ele>655.0</ele><time>2026-04-19T07:14:11Z</time></trkpt><trkpt lat="37.87339570570042" lon="15.034437426292778"><ele>655.0</ele><time>2026-04-19T07:14:12Z</time></trkpt><trkpt lat="37.87342592284749" lon="15.034356194489778"><ele>655.0</ele><time>2026-04-19T07:14:13Z</time></trkpt><trkpt lat="37.87347117040869" lon="15.03429588204084"><ele>655.0</ele><time>2026-04-19T07:14:14Z</time></trkpt><trkpt lat="37.87352825227819" lon="15.034230205667772"><ele>655.0</ele><time>2026-04-19T07:14:15Z</time></trkpt><trkpt lat="37.87358807249405" lon="15.034177879057376"><ele>655.0</ele><time>2026-04-19T07:14:16Z</time></trkpt><trkpt lat="37.87365410749611" lon="15.03413403059029"><ele>655.0</ele><time>2026-04-19T07:14:17Z</time></trkpt><trkpt lat="37.87372110929702" lon="15.034093798429454"><ele>655.0</ele><time>2026-04-19T07:14:18Z</time></trkpt><trkpt lat="37.87379123577829" lon="15.034058276155244"><ele>655.0</ele><time>2026-04-19T07:14:19Z</time></trkpt><trkpt lat="37.87386305836537" lon="15.034022636903591"><ele>655.0</ele><time>2026-04-19T07:14:20Z</time></trkpt><trkpt lat="37.873933906137815" lon="15.033986192421349"><ele>655.0</ele><time>2026-04-19T07:14:21Z</time></trkpt><trkpt lat="37.873998776321436" lon="15.03395215815619"><ele>655.0</ele><time>2026-04-19T07:14:22Z</time></trkpt><trkpt lat="37.874061133133836" lon="15.033932936933116"><ele>655.0</ele><time>2026-04-19T07:14:23Z</time></trkpt><trkpt lat="37.87414517373047" lon="15.033858508435047"><ele>655.0</ele><time>2026-04-19T07:15:23.001Z</time></trkpt><trkpt lat="37.87420518690637" lon="15.033808036049301"><ele>655.0</ele><time>2026-04-19T07:15:24.001Z</time></trkpt><trkpt lat="37.874263308198564" lon="15.033746614334461"><ele>655.0</ele><time>2026-04-19T07:15:25.001Z</time></trkpt><trkpt lat="37.87432243296049" lon="15.03368209449269"><ele>655.0</ele><time>2026-04-19T07:15:26.001Z</time></trkpt><trkpt lat="37.87434571756035" lon="15.033566002172712"><ele>655.0</ele><time>2026-04-19T07:15:27.001Z</time></trkpt><trkpt lat="37.874333982680284" lon="15.033443657508888"><ele>655.0</ele><time>2026-04-19T07:15:28.001Z</time></trkpt><trkpt lat="37.8743178228982" lon="15.033320866621692"><ele>654.5</ele><time>2026-04-19T07:15:29.001Z</time></trkpt><trkpt lat="37.87428577053523" lon="15.033194146049922"><ele>654.0</ele><time>2026-04-19T07:15:30.001Z</time></trkpt><trkpt lat="37.87424723889194" lon="15.03305312919042"><ele>653.5</ele><time>2026-04-19T07:15:31.001Z</time></trkpt><trkpt lat="37.87420263242833" lon="15.032895854793281"><ele>653.0</ele><time>2026-04-19T07:15:32.001Z</time></trkpt><trkpt lat="37.874174353968584" lon="15.032755198257416"><ele>653.0</ele><time>2026-04-19T07:15:33.001Z</time></trkpt><trkpt lat="37.874145758328694" lon="15.032586534649026"><ele>653.0</ele><time>2026-04-19T07:15:34.001Z</time></trkpt><trkpt lat="37.87412991113982" lon="15.03240407620995"><ele>653.0</ele><time>2026-04-19T07:15:35.001Z</time></trkpt><trkpt lat="37.87413409963586" lon="15.032217043496892"><ele>653.0</ele><time>2026-04-19T07:15:36.001Z</time></trkpt><trkpt lat="37.87415222343814" lon="15.03202585962347"><ele>653.0</ele><time>2026-04-19T07:15:37.001Z</time></trkpt><trkpt lat="37.87417819431143" lon="15.031829647801269"><ele>653.0</ele><time>2026-04-19T07:15:38.001Z</time></trkpt><trkpt lat="37.874204289856564" lon="15.031637379466485"><ele>653.0</ele><time>2026-04-19T07:15:39.001Z</time></trkpt><trkpt lat="37.874227719837734" lon="15.03145755436123"><ele>653.25</ele><time>2026-04-19T07:15:40.001Z</time></trkpt><trkpt lat="37.87423558797452" lon="15.031275478416697"><ele>653.5</ele><time>2026-04-19T07:15:41.001Z</time></trkpt><trkpt lat="37.87426002408592" lon="15.031095133688803"><ele>653.75</ele><time>2026-04-19T07:15:42.001Z</time></trkpt><trkpt lat="37.874284873775856" lon="15.030920106902002"><ele>654.0</ele><time>2026-04-19T07:15:43.001Z</time></trkpt><trkpt lat="37.87430757753328" lon="15.03075033056096"><ele>655.0</ele><time>2026-04-19T07:15:44.001Z</time></trkpt><trkpt lat="37.87432576557053" lon="15.030596562092677"><ele>656.0</ele><time>2026-04-19T07:15:45.001Z</time></trkpt><trkpt lat="37.87433549986617" lon="15.03044352851057"><ele>657.0</ele><time>2026-04-19T07:15:46.001Z</time></trkpt><trkpt lat="37.874327632147086" lon="15.030289836964343"><ele>658.0</ele><time>2026-04-19T07:15:47.001Z</time></trkpt><trkpt lat="37.87432540103595" lon="15.030144920485284"><ele>658.0</ele><time>2026-04-19T07:15:48.001Z</time></trkpt><trkpt lat="37.87431779358045" lon="15.02999782441373"><ele>658.0</ele><time>2026-04-19T07:15:49.001Z</time></trkpt><trkpt lat="37.87430674894782" lon="15.02985422137782"><ele>658.0</ele><time>2026-04-19T07:15:50.001Z</time></trkpt><trkpt lat="37.87429594038431" lon="15.029703680951725"><ele>658.0</ele><time>2026-04-19T07:15:51.001Z</time></trkpt><trkpt lat="37.874282719578375" lon="15.029559477869087"><ele>658.8</ele><time>2026-04-19T07:15:52.001Z</time></trkpt><trkpt lat="37.87427085500068" lon="15.029428868854163"><ele>659.5999999999999</ele><time>2026-04-19T07:15:53.001Z</time></trkpt><trkpt lat="37.87425747709108" lon="15.029291781516866"><ele>660.4000000000001</ele><time>2026-04-19T07:15:54.001Z</time></trkpt><trkpt lat="37.8742440821685" lon="15.029153623702397"><ele>661.2</ele><time>2026-04-19T07:15:55.001Z</time></trkpt><trkpt lat="37.87423059477832" lon="15.029018889387602"><ele>662.0</ele><time>2026-04-19T07:15:56.001Z</time></trkpt><trkpt lat="37.874216947487106" lon="15.028881350480427"><ele>661.75</ele><time>2026-04-19T07:15:57.001Z</time></trkpt><trkpt lat="37.87420973572854" lon="15.028736125355245"><ele>661.5</ele><time>2026-04-19T07:15:58.001Z</time></trkpt><trkpt lat="37.874229728468286" lon="15.028588700969987"><ele>661.25</ele><time>2026-04-19T07:15:59.001Z</time></trkpt><trkpt lat="37.87426652800433" lon="15.028432399308786"><ele>661.0</ele><time>2026-04-19T07:16:00.001Z</time></trkpt><trkpt lat="37.87432369496977" lon="15.028284570451577"><ele>661.0</ele><time>2026-04-19T07:16:01.001Z</time></trkpt><trkpt lat="37.87433711106499" lon="15.028106934314408"><ele>661.0</ele><time>2026-04-19T07:16:02.001Z</time></trkpt><trkpt lat="37.87438460786452" lon="15.027939082179305"><ele>661.0</ele><time>2026-04-19T07:16:03Z</time></trkpt><trkpt lat="37.87442694257696" lon="15.027763739348574"><ele>661.0</ele><time>2026-04-19T07:16:04Z</time></trkpt><trkpt lat="37.87446973359623" lon="15.02758427548978"><ele>661.75</ele><time>2026-04-19T07:16:05Z</time></trkpt><trkpt lat="37.87451391696808" lon="15.027405814416973"><ele>662.5</ele><time>2026-04-19T07:16:06Z</time></trkpt><trkpt lat="37.87455888186512" lon="15.027227200723809"><ele>663.25</ele><time>2026-04-19T07:16:07Z</time></trkpt><trkpt lat="37.8746097236182" lon="15.027049283533593"><ele>664.0</ele><time>2026-04-19T07:16:08Z</time></trkpt><trkpt lat="37.87465291618456" lon="15.026883317474695"><ele>664.0</ele><time>2026-04-19T07:16:09Z</time></trkpt><trkpt lat="37.874693089626206" lon="15.026724678788174"><ele>664.0</ele><time>2026-04-19T07:16:10Z</time></trkpt><trkpt lat="37.87473366862119" lon="15.026577797822416"><ele>664.0</ele><time>2026-04-19T07:16:11Z</time></trkpt><trkpt lat="37.87476882618537" lon="15.026441179723815"><ele>664.0</ele><time>2026-04-19T07:16:12Z</time></trkpt><trkpt lat="37.87479364783429" lon="15.026310662534248"><ele>665.0</ele><time>2026-04-19T07:16:13Z</time></trkpt><trkpt lat="37.874801222710175" lon="15.026165633566627"><ele>666.0</ele><time>2026-04-19T07:16:14Z</time></trkpt><trkpt lat="37.87479761211332" lon="15.02603423395104"><ele>667.0</ele><time>2026-04-19T07:16:15Z</time></trkpt><trkpt lat="37.874788384523185" lon="15.02590709763194"><ele>668.0</ele><time>2026-04-19T07:16:16Z</time></trkpt><trkpt lat="37.874766193214434" lon="15.025787922830434"><ele>669.0</ele><time>2026-04-19T07:16:17Z</time></trkpt><trkpt lat="37.874724484945496" lon="15.025684125449418"><ele>669.1666666666666</ele><time>2026-04-19T07:16:18Z</time></trkpt><trkpt lat="37.87468970887416" lon="15.025578169458859"><ele>669.3333333333334</ele><time>2026-04-19T07:16:19Z</time></trkpt><trkpt lat="37.874663722440204" lon="15.025474222128198"><ele>669.5</ele><time>2026-04-19T07:16:20Z</time></trkpt><trkpt lat="37.874649354781376" lon="15.025360135915546"><ele>669.6666666666667</ele><time>2026-04-19T07:16:21Z</time></trkpt><trkpt lat="37.87464521996018" lon="15.025251615269283"><ele>669.8333333333334</ele><time>2026-04-19T07:16:22Z</time></trkpt><trkpt lat="37.87467254434973" lon="15.025155176968743"><ele>670.0</ele><time>2026-04-19T07:16:23Z</time></trkpt><trkpt lat="37.87474532804151" lon="15.025041710308287"><ele>673.0</ele><time>2026-04-19T07:16:24Z</time></trkpt><trkpt lat="37.874822879780886" lon="15.024894697221523"><ele>676.0</ele><time>2026-04-19T07:16:25Z</time></trkpt><trkpt lat="37.87491339738317" lon="15.024726128998998"><ele>679.0</ele><time>2026-04-19T07:16:26Z</time></trkpt><trkpt lat="37.87501338719591" lon="15.024541595718144"><ele>678.0</ele><time>2026-04-19T07:16:27Z</time></trkpt><trkpt lat="37.87511751403548" lon="15.024354960296959"><ele>677.0</ele><time>2026-04-19T07:16:28Z</time></trkpt><trkpt lat="37.875214095120214" lon="15.02419194405169"><ele>676.0</ele><time>2026-04-19T07:16:29Z</time></trkpt><trkpt lat="37.87529726509328" lon="15.024053775893835"><ele>676.0</ele><time>2026-04-19T07:16:30Z</time></trkpt><trkpt lat="37.875376903279324" lon="15.023933274720827"><ele>676.0</ele><time>2026-04-19T07:16:31Z</time></trkpt><trkpt lat="37.87545559230069" lon="15.023831362348702"><ele>676.0</ele><time>2026-04-19T07:16:32Z</time></trkpt><trkpt lat="37.87552838456977" lon="15.023736466034256"><ele>676.0</ele><time>2026-04-19T07:16:33Z</time></trkpt><trkpt lat="37.87559152423293" lon="15.023632079097247"><ele>676.0</ele><time>2026-04-19T07:16:34Z</time></trkpt><trkpt lat="37.87565911049246" lon="15.023520523375282"><ele>676.0</ele><time>2026-04-19T07:16:35Z</time></trkpt><trkpt lat="37.87569927153533" lon="15.023384001132886"><ele>676.0</ele><time>2026-04-19T07:16:36Z</time></trkpt><trkpt lat="37.87572255514143" lon="15.023237194178794"><ele>676.0</ele><time>2026-04-19T07:16:37Z</time></trkpt><trkpt lat="37.875751692481856" lon="15.023082651114779"><ele>676.0</ele><time>2026-04-19T07:16:38Z</time></trkpt><trkpt lat="37.875764402278605" lon="15.022926498533801"><ele>676.0</ele><time>2026-04-19T07:16:39Z</time></trkpt><trkpt lat="37.87576922468137" lon="15.022764479103035"><ele>676.0</ele><time>2026-04-19T07:16:40Z</time></trkpt><trkpt lat="37.87577073349815" lon="15.02259386998758"><ele>676.0</ele><time>2026-04-19T07:16:41Z</time></trkpt><trkpt lat="37.87577035116655" lon="15.022412895344472"><ele>676.0</ele><time>2026-04-19T07:16:42Z</time></trkpt><trkpt lat="37.875777965740355" lon="15.022223355657745"><ele>676.0</ele><time>2026-04-19T07:16:43Z</time></trkpt><trkpt lat="37.875790336898014" lon="15.022030280085861"><ele>676.0</ele><time>2026-04-19T07:16:44Z</time></trkpt><trkpt lat="37.87578974336917" lon="15.021838179710347"><ele>676.0</ele><time>2026-04-19T07:16:45Z</time></trkpt><trkpt lat="37.87580698393211" lon="15.021651215022105"><ele>676.25</ele><time>2026-04-19T07:16:46Z</time></trkpt><trkpt lat="37.87582358054636" lon="15.021473811889344"><ele>676.5</ele><time>2026-04-19T07:16:47Z</time></trkpt><trkpt lat="37.87584057658427" lon="15.021312061749631"><ele>676.75</ele><time>2026-04-19T07:16:48Z</time></trkpt><trkpt lat="37.875854269649935" lon="15.021164437793042"><ele>677.0</ele><time>2026-04-19T07:16:49Z</time></trkpt><trkpt lat="37.875868906027364" lon="15.021029086586022"><ele>677.0</ele><time>2026-04-19T07:16:50Z</time></trkpt><trkpt lat="37.87588050586905" lon="15.020903598446766"><ele>677.0</ele><time>2026-04-19T07:16:51Z</time></trkpt><trkpt lat="37.875887973800864" lon="15.020778360382392"><ele>677.0</ele><time>2026-04-19T07:16:52Z</time></trkpt><trkpt lat="37.875915172944076" lon="15.02064612606615"><ele>677.0</ele><time>2026-04-19T07:16:53Z</time></trkpt><trkpt lat="37.87592758260591" lon="15.020494760887049"><ele>677.0</ele><time>2026-04-19T07:16:54Z</time></trkpt><trkpt lat="37.875934907781854" lon="15.020330192750128"><ele>677.5</ele><time>2026-04-19T07:16:55Z</time></trkpt><trkpt lat="37.87593476182345" lon="15.020165365803658"><ele>678.0</ele><time>2026-04-19T07:16:56Z</time></trkpt><trkpt lat="37.875928759557425" lon="15.019999593656884"><ele>678.5</ele><time>2026-04-19T07:16:57Z</time></trkpt><trkpt lat="37.87592162433633" lon="15.019832338862704"><ele>679.0</ele><time>2026-04-19T07:16:58Z</time></trkpt><trkpt lat="37.87591462735767" lon="15.019668324565712"><ele>679.0</ele><time>2026-04-19T07:16:59Z</time></trkpt><trkpt lat="37.87590781371932" lon="15.01950860791576"><ele>679.0</ele><time>2026-04-19T07:17:00Z</time></trkpt><trkpt lat="37.875901275804075" lon="15.01935535443621"><ele>679.0</ele><time>2026-04-19T07:17:01Z</time></trkpt><trkpt lat="37.875894325904035" lon="15.01920168699832"><ele>679.0</ele><time>2026-04-19T07:17:02Z</time></trkpt><trkpt lat="37.87588725585345" lon="15.019047199993631"><ele>679.5</ele><time>2026-04-19T07:17:03Z</time></trkpt><trkpt lat="37.87586408830683" lon="15.018899543918536"><ele>680.0</ele><time>2026-04-19T07:17:04Z</time></trkpt><trkpt lat="37.875857804163985" lon="15.018757261810972"><ele>680.5</ele><time>2026-04-19T07:17:05Z</time></trkpt><trkpt lat="37.875848244022635" lon="15.018618650511792"><ele>681.0</ele><time>2026-04-19T07:17:06Z</time></trkpt><trkpt lat="37.87584483651548" lon="15.018471618609125"><ele>681.0</ele><time>2026-04-19T07:17:07Z</time></trkpt><trkpt lat="37.87577557832526" lon="15.01832491992277"><ele>681.0</ele><time>2026-04-19T07:17:08Z</time></trkpt><trkpt lat="37.87574444939458" lon="15.018160988482089"><ele>681.0</ele><time>2026-04-19T07:17:09Z</time></trkpt><trkpt lat="37.875699772106394" lon="15.018007813846943"><ele>681.0</ele><time>2026-04-19T07:17:10Z</time></trkpt><trkpt lat="37.87565434409936" lon="15.017852065394548"><ele>680.75</ele><time>2026-04-19T07:17:11Z</time></trkpt><trkpt lat="37.87560500920384" lon="15.017699237730996"><ele>680.5</ele><time>2026-04-19T07:17:12Z</time></trkpt><trkpt lat="37.875557355744505" lon="15.017547539707996"><ele>680.25</ele><time>2026-04-19T07:17:13Z</time></trkpt><trkpt lat="37.875513878577834" lon="15.01739667131587"><ele>680.0</ele><time>2026-04-19T07:17:14Z</time></trkpt><trkpt lat="37.87547752909886" lon="15.01724281399278"><ele>679.6666666666666</ele><time>2026-04-19T07:17:15Z</time></trkpt><trkpt lat="37.87543999303585" lon="15.017070279271977"><ele>679.3333333333334</ele><time>2026-04-19T07:17:16Z</time></trkpt><trkpt lat="37.87540449064992" lon="15.016864386566699"><ele>679.0</ele><time>2026-04-19T07:17:17Z</time></trkpt><trkpt lat="37.87536962300112" lon="15.016644219163727"><ele>680.0</ele><time>2026-04-19T07:17:18Z</time></trkpt><trkpt lat="37.87533646218329" lon="15.016422121060328"><ele>681.0</ele><time>2026-04-19T07:17:19Z</time></trkpt><trkpt lat="37.875309068159524" lon="15.016211807337308"><ele>682.0</ele><time>2026-04-19T07:17:20Z</time></trkpt><trkpt lat="37.875288152403016" lon="15.01601842873774"><ele>682.0</ele><time>2026-04-19T07:17:21Z</time></trkpt><trkpt lat="37.87526957688634" lon="15.015835238873967"><ele>682.0</ele><time>2026-04-19T07:17:22Z</time></trkpt><trkpt lat="37.875253669496544" lon="15.015658744356156"><ele>682.0</ele><time>2026-04-19T07:17:23Z</time></trkpt><trkpt lat="37.87524119100381" lon="15.015480827520992"><ele>682.0</ele><time>2026-04-19T07:17:24Z</time></trkpt><trkpt lat="37.875229270324" lon="15.015310863910859"><ele>682.6</ele><time>2026-04-19T07:17:25Z</time></trkpt><trkpt lat="37.87521872980135" lon="15.015154763196039"><ele>683.2</ele><time>2026-04-19T07:17:26Z</time></trkpt><trkpt lat="37.87521389408611" lon="15.015014663176627"><ele>683.8</ele><time>2026-04-19T07:17:27.001Z</time></trkpt><trkpt lat="37.87521306575799" lon="15.014880890735757"><ele>684.4</ele><time>2026-04-19T07:17:28.001Z</time></trkpt><trkpt lat="37.875197611327025" lon="15.01475365101375"><ele>685.0</ele><time>2026-04-19T07:17:29.001Z</time></trkpt><trkpt lat="37.87520020693567" lon="15.014617241923863"><ele>686.25</ele><time>2026-04-19T07:17:30.001Z</time></trkpt><trkpt lat="37.87520777074271" lon="15.01447321841111"><ele>687.5</ele><time>2026-04-19T07:17:31.001Z</time></trkpt><trkpt lat="37.87521514352018" lon="15.014318884792633"><ele>688.75</ele><time>2026-04-19T07:17:32.001Z</time></trkpt><trkpt lat="37.87522646850286" lon="15.014167950909274"><ele>690.0</ele><time>2026-04-19T07:17:33.001Z</time></trkpt><trkpt lat="37.875240873282515" lon="15.014020472320048"><ele>690.75</ele><time>2026-04-19T07:17:34.001Z</time></trkpt><trkpt lat="37.875274242151185" lon="15.013869893519233"><ele>691.5</ele><time>2026-04-19T07:17:35.001Z</time></trkpt><trkpt lat="37.87527690086346" lon="15.013715620980564"><ele>692.25</ele><time>2026-04-19T07:17:36.001Z</time></trkpt><trkpt lat="37.87529444314062" lon="15.013565895091983"><ele>693.0</ele><time>2026-04-19T07:17:37.001Z</time></trkpt><trkpt lat="37.875311187042236" lon="15.01341448774908"><ele>692.75</ele><time>2026-04-19T07:17:38.001Z</time></trkpt><trkpt lat="37.875327109185264" lon="15.013263831776085"><ele>692.5</ele><time>2026-04-19T07:17:39.001Z</time></trkpt><trkpt lat="37.87535722335789" lon="15.01311799970249"><ele>692.25</ele><time>2026-04-19T07:17:40.001Z</time></trkpt><trkpt lat="37.87537364790805" lon="15.012957973498835"><ele>692.0</ele><time>2026-04-19T07:17:41.001Z</time></trkpt><trkpt lat="37.87539203321394" lon="15.012778843425865"><ele>692.0</ele><time>2026-04-19T07:17:42.001Z</time></trkpt><trkpt lat="37.87541195498058" lon="15.012584743444828"><ele>692.0</ele><time>2026-04-19T07:17:43.001Z</time></trkpt><trkpt lat="37.87543233106104" lon="15.01238621705074"><ele>692.0</ele><time>2026-04-19T07:17:44.001Z</time></trkpt><trkpt lat="37.875452903034294" lon="15.012185782217673"><ele>692.75</ele><time>2026-04-19T07:17:45.001Z</time></trkpt><trkpt lat="37.87547366510855" lon="15.011992829936677"><ele>693.5</ele><time>2026-04-19T07:17:46.001Z</time></trkpt><trkpt lat="37.87549262350559" lon="15.011816020492283"><ele>694.25</ele><time>2026-04-19T07:17:47.001Z</time></trkpt><trkpt lat="37.87551122630558" lon="15.011642527397276"><ele>695.0</ele><time>2026-04-19T07:17:48.001Z</time></trkpt><trkpt lat="37.87552856860821" lon="15.01148372697793"><ele>696.5</ele><time>2026-04-19T07:17:49.001Z</time></trkpt><trkpt lat="37.87554547572316" lon="15.011331189440536"><ele>698.0</ele><time>2026-04-19T07:17:50.001Z</time></trkpt><trkpt lat="37.875561376197645" lon="15.011187733944176"><ele>699.5</ele><time>2026-04-19T07:17:51.001Z</time></trkpt><trkpt lat="37.87557811924633" lon="15.011051204204602"><ele>701.0</ele><time>2026-04-19T07:17:52.001Z</time></trkpt><trkpt lat="37.87559595099479" lon="15.01091774783605"><ele>702.0</ele><time>2026-04-19T07:17:53.001Z</time></trkpt><trkpt lat="37.87562161581908" lon="15.010786112399966"><ele>703.0</ele><time>2026-04-19T07:17:54.001Z</time></trkpt><trkpt lat="37.8756508686567" lon="15.010646355228674"><ele>704.0</ele><time>2026-04-19T07:17:55.001Z</time></trkpt><trkpt lat="37.8756806220526" lon="15.010498919002474"><ele>705.0</ele><time>2026-04-19T07:17:56.001Z</time></trkpt><trkpt lat="37.8757085223628" lon="15.010351783030181"><ele>705.0</ele><time>2026-04-19T07:17:57.001Z</time></trkpt><trkpt lat="37.87572979358593" lon="15.010205365299347"><ele>705.0</ele><time>2026-04-19T07:17:58.001Z</time></trkpt><trkpt lat="37.87574664989037" lon="15.010061490660071"><ele>705.0</ele><time>2026-04-19T07:17:59.001Z</time></trkpt><trkpt lat="37.875766339858565" lon="15.009914242924413"><ele>705.0</ele><time>2026-04-19T07:18:00.001Z</time></trkpt><trkpt lat="37.87579253090415" lon="15.009766001064897"><ele>705.0</ele><time>2026-04-19T07:18:01.001Z</time></trkpt><trkpt lat="37.87582970878374" lon="15.009615062337227"><ele>705.0</ele><time>2026-04-19T07:18:02.001Z</time></trkpt><trkpt lat="37.87586214767879" lon="15.009449021273173"><ele>705.0</ele><time>2026-04-19T07:18:03.001Z</time></trkpt><trkpt lat="37.87593389656908" lon="15.00929093439722"><ele>705.0</ele><time>2026-04-19T07:18:04.001Z</time></trkpt><trkpt lat="37.87600254670398" lon="15.009107520532528"><ele>705.0</ele><time>2026-04-19T07:18:05.001Z</time></trkpt><trkpt lat="37.87606149328912" lon="15.008909597876999"><ele>705.0</ele><time>2026-04-19T07:18:06.001Z</time></trkpt><trkpt lat="37.87614656441568" lon="15.00872274575605"><ele>705.0</ele><time>2026-04-19T07:18:07.001Z</time></trkpt><trkpt lat="37.87621594483637" lon="15.008537380797287"><ele>705.0</ele><time>2026-04-19T07:18:08.001Z</time></trkpt><trkpt lat="37.87628224725538" lon="15.008360239399181"><ele>705.0</ele><time>2026-04-19T07:18:08.999Z</time></trkpt><trkpt lat="37.87634398521683" lon="15.008193993970554"><ele>705.0</ele><time>2026-04-19T07:18:09.999Z</time></trkpt><trkpt lat="37.876401558803956" lon="15.008038625225613"><ele>705.0</ele><time>2026-04-19T07:18:10.999Z</time></trkpt><trkpt lat="37.876455833521895" lon="15.007892158840981"><ele>706.75</ele><time>2026-04-19T07:18:11.999Z</time></trkpt><trkpt lat="37.87650849372527" lon="15.007750049403214"><ele>708.5</ele><time>2026-04-19T07:18:12.999Z</time></trkpt><trkpt lat="37.876565322028206" lon="15.007596691888763"><ele>710.25</ele><time>2026-04-19T07:18:13.999Z</time></trkpt><trkpt lat="37.87662195390906" lon="15.0074438644386"><ele>712.0</ele><time>2026-04-19T07:18:14.999Z</time></trkpt><trkpt lat="37.87667589435878" lon="15.007298362036405"><ele>712.0</ele><time>2026-04-19T07:18:15.999Z</time></trkpt><trkpt lat="37.87672770192971" lon="15.00715880222543"><ele>712.0</ele><time>2026-04-19T07:18:16.999Z</time></trkpt><trkpt lat="37.87676115578127" lon="15.007024841379412"><ele>712.0</ele><time>2026-04-19T07:18:17.999Z</time></trkpt><trkpt lat="37.87680709261255" lon="15.006900628403507"><ele>712.0</ele><time>2026-04-19T07:18:18.999Z</time></trkpt><trkpt lat="37.876848501349855" lon="15.006769721838337"><ele>713.0</ele><time>2026-04-19T07:18:19.999Z</time></trkpt><trkpt lat="37.876880123533425" lon="15.00663054144081"><ele>714.0</ele><time>2026-04-19T07:18:20.999Z</time></trkpt><trkpt lat="37.876899038599674" lon="15.006484200110197"><ele>715.0</ele><time>2026-04-19T07:18:21.999Z</time></trkpt><trkpt lat="37.876895192441516" lon="15.006331835344"><ele>716.0</ele><time>2026-04-19T07:18:22.999Z</time></trkpt><trkpt lat="37.87687032594717" lon="15.006173368028636"><ele>716.0</ele><time>2026-04-19T07:18:23.999Z</time></trkpt><trkpt lat="37.876841983256924" lon="15.006017421526806"><ele>716.0</ele><time>2026-04-19T07:18:24.999Z</time></trkpt><trkpt lat="37.87680073122285" lon="15.005869561329868"><ele>716.0</ele><time>2026-04-19T07:18:25.999Z</time></trkpt><trkpt lat="37.87674146476714" lon="15.005732010653883"><ele>716.0</ele><time>2026-04-19T07:18:26.999Z</time></trkpt><trkpt lat="37.876664897646926" lon="15.005600526946699"><ele>717.0</ele><time>2026-04-19T07:18:27.999Z</time></trkpt><trkpt lat="37.87658232593427" lon="15.005461197090941"><ele>718.0</ele><time>2026-04-19T07:18:28.999Z</time></trkpt><trkpt lat="37.87650938705713" lon="15.005300023119228"><ele>719.0</ele><time>2026-04-19T07:18:29.999Z</time></trkpt><trkpt lat="37.87642115490785" lon="15.005152974407808"><ele>720.0</ele><time>2026-04-19T07:18:30.999Z</time></trkpt><trkpt lat="37.87633315427737" lon="15.005007593053564"><ele>718.5</ele><time>2026-04-19T07:18:31.999Z</time></trkpt><trkpt lat="37.87624113753897" lon="15.004854626418794"><ele>717.0</ele><time>2026-04-19T07:18:32.999Z</time></trkpt><trkpt lat="37.876150961996366" lon="15.00470472054532"><ele>715.5</ele><time>2026-04-19T07:18:34Z</time></trkpt><trkpt lat="37.87606457341599" lon="15.004561110035318"><ele>714.0</ele><time>2026-04-19T07:18:35Z</time></trkpt><trkpt lat="37.875984334025006" lon="15.004424393996242"><ele>716.0</ele><time>2026-04-19T07:18:36Z</time></trkpt><trkpt lat="37.87590687234946" lon="15.004291957064392"><ele>718.0</ele><time>2026-04-19T07:18:37Z</time></trkpt><trkpt lat="37.87583023184395" lon="15.00416092405601"><ele>720.0</ele><time>2026-04-19T07:18:38Z</time></trkpt><trkpt lat="37.87575978362927" lon="15.004040478084711"><ele>722.0</ele><time>2026-04-19T07:18:39Z</time></trkpt><trkpt lat="37.875695663363935" lon="15.003930286280326"><ele>722.0</ele><time>2026-04-19T07:18:40Z</time></trkpt><trkpt lat="37.87563691882157" lon="15.003829260464812"><ele>722.0</ele><time>2026-04-19T07:18:41Z</time></trkpt><trkpt lat="37.87558347666031" lon="15.00373735341391"><ele>722.0</ele><time>2026-04-19T07:18:42Z</time></trkpt><trkpt lat="37.87552987021774" lon="15.003645163840192"><ele>722.0</ele><time>2026-04-19T07:18:43Z</time></trkpt><trkpt lat="37.87546300606662" lon="15.00353102879242"><ele>722.0</ele><time>2026-04-19T07:18:44Z</time></trkpt><trkpt lat="37.87538899140511" lon="15.003404691576558"><ele>721.2</ele><time>2026-04-19T07:18:45Z</time></trkpt><trkpt lat="37.875322664440226" lon="15.003291476651711"><ele>720.4000000000001</ele><time>2026-04-19T07:18:46Z</time></trkpt><trkpt lat="37.87526123402781" lon="15.00318661977153"><ele>719.5999999999999</ele><time>2026-04-19T07:18:47Z</time></trkpt><trkpt lat="37.875206892300795" lon="15.00308536694421"><ele>718.8</ele><time>2026-04-19T07:18:48Z</time></trkpt><trkpt lat="37.87515817547606" lon="15.002985438632022"><ele>718.0</ele><time>2026-04-19T07:18:49Z</time></trkpt><trkpt lat="37.875114137096936" lon="15.002880304625188"><ele>718.25</ele><time>2026-04-19T07:18:50Z</time></trkpt><trkpt lat="37.87508177870266" lon="15.002767866419923"><ele>718.5</ele><time>2026-04-19T07:18:51Z</time></trkpt><trkpt lat="37.87505226826461" lon="15.002633117937426"><ele>718.75</ele><time>2026-04-19T07:18:52Z</time></trkpt><trkpt lat="37.87500773268487" lon="15.002487693387673"><ele>719.0</ele><time>2026-04-19T07:18:53Z</time></trkpt><trkpt lat="37.87497457761758" lon="15.002325292459133"><ele>719.0</ele><time>2026-04-19T07:18:54Z</time></trkpt><trkpt lat="37.87495451171254" lon="15.002138072739255"><ele>719.0</ele><time>2026-04-19T07:18:55Z</time></trkpt><trkpt lat="37.87491424388417" lon="15.00192941172252"><ele>719.0</ele><time>2026-04-19T07:18:56Z</time></trkpt><trkpt lat="37.874871047907966" lon="15.001704213186132"><ele>719.3333333333333</ele><time>2026-04-19T07:18:57Z</time></trkpt><trkpt lat="37.87482766290333" lon="15.001479215731758"><ele>719.6666666666666</ele><time>2026-04-19T07:18:58Z</time></trkpt><trkpt lat="37.87478208945023" lon="15.001238208580123"><ele>720.0</ele><time>2026-04-19T07:18:59Z</time></trkpt><trkpt lat="37.87474095406699" lon="15.001018948225687"><ele>719.3333333333334</ele><time>2026-04-19T07:19:00Z</time></trkpt><trkpt lat="37.87470163227968" lon="15.000809354724561"><ele>718.6666666666667</ele><time>2026-04-19T07:19:01Z</time></trkpt><trkpt lat="37.874665346595386" lon="15.000611717238964"><ele>718.0</ele><time>2026-04-19T07:19:02Z</time></trkpt><trkpt lat="37.87462267996882" lon="15.000431932419573"><ele>718.0</ele><time>2026-04-19T07:19:03Z</time></trkpt><trkpt lat="37.87459280966912" lon="15.00026337723731"><ele>718.0</ele><time>2026-04-19T07:19:04Z</time></trkpt><trkpt lat="37.874526537102085" lon="15.000089360347562"><ele>718.0</ele><time>2026-04-19T07:19:05Z</time></trkpt><trkpt lat="37.87445819287233" lon="14.99993910284922"><ele>718.0</ele><time>2026-04-19T07:19:06Z</time></trkpt><trkpt lat="37.874385493521075" lon="14.99978801957321"><ele>718.0</ele><time>2026-04-19T07:19:07Z</time></trkpt><trkpt lat="37.87431569762793" lon="14.999625047483727"><ele>718.0</ele><time>2026-04-19T07:19:08Z</time></trkpt><trkpt lat="37.8742463404459" lon="14.999449625440006"><ele>718.0</ele><time>2026-04-19T07:19:09Z</time></trkpt><trkpt lat="37.87417513081514" lon="14.99926879784506"><ele>719.3333333333334</ele><time>2026-04-19T07:19:10Z</time></trkpt><trkpt lat="37.8740980052608" lon="14.999083493985095"><ele>720.6666666666666</ele><time>2026-04-19T07:19:11Z</time></trkpt><trkpt lat="37.874020344186995" lon="14.99889496260667"><ele>722.0</ele><time>2026-04-19T07:19:12Z</time></trkpt><trkpt lat="37.87395720541491" lon="14.998702550631972"><ele>722.0</ele><time>2026-04-19T07:19:13Z</time></trkpt><trkpt lat="37.87388462339583" lon="14.99852378381296"><ele>722.0</ele><time>2026-04-19T07:19:14Z</time></trkpt><trkpt lat="37.87381341373317" lon="14.99834839704907"><ele>722.0</ele><time>2026-04-19T07:19:15Z</time></trkpt><trkpt lat="37.873745988752155" lon="14.998180291990723"><ele>722.75</ele><time>2026-04-19T07:19:16Z</time></trkpt><trkpt lat="37.873688090131125" lon="14.998024453375605"><ele>723.5</ele><time>2026-04-19T07:19:17Z</time></trkpt><trkpt lat="37.87364829820543" lon="14.997880746759469"><ele>724.25</ele><time>2026-04-19T07:19:18Z</time></trkpt><trkpt lat="37.87360160121173" lon="14.997744351060987"><ele>725.0</ele><time>2026-04-19T07:19:19Z</time></trkpt><trkpt lat="37.87357699984264" lon="14.997612708932031"><ele>725.6666666666666</ele><time>2026-04-19T07:19:20Z</time></trkpt><trkpt lat="37.87355392780077" lon="14.997501534679387"><ele>726.3333333333333</ele><time>2026-04-19T07:19:21Z</time></trkpt><trkpt lat="37.87353453595961" lon="14.997396004688342"><ele>727.0</ele><time>2026-04-19T07:19:22Z</time></trkpt><trkpt lat="37.87351766559837" lon="14.997304972998533"><ele>727.6666666666666</ele><time>2026-04-19T07:19:23Z</time></trkpt><trkpt lat="37.873509371648865" lon="14.997213096580557"><ele>728.3333333333334</ele><time>2026-04-19T07:19:24Z</time></trkpt><trkpt lat="37.87351549130819" lon="14.997132235887449"><ele>729.0</ele><time>2026-04-19T07:19:25Z</time></trkpt><trkpt lat="37.87354521901804" lon="14.997061769471749"><ele>729.0</ele><time>2026-04-19T07:19:26Z</time></trkpt><trkpt lat="37.87354858127797" lon="14.996978010357866"><ele>729.0</ele><time>2026-04-19T07:19:27Z</time></trkpt><trkpt lat="37.873571700407645" lon="14.996899847657458"><ele>729.0</ele><time>2026-04-19T07:19:28Z</time></trkpt><trkpt lat="37.8735936018271" lon="14.996799894218741"><ele>729.0</ele><time>2026-04-19T07:19:29Z</time></trkpt><trkpt lat="37.87361597225485" lon="14.99668952090482"><ele>729.0</ele><time>2026-04-19T07:19:30Z</time></trkpt><trkpt lat="37.87365943816158" lon="14.996571703782644"><ele>729.0</ele><time>2026-04-19T07:19:31.001Z</time></trkpt><trkpt lat="37.873678723103566" lon="14.99644638224785"><ele>729.6</ele><time>2026-04-19T07:19:32.001Z</time></trkpt><trkpt lat="37.87371067178205" lon="14.99632640587948"><ele>730.2</ele><time>2026-04-19T07:19:33.001Z</time></trkpt><trkpt lat="37.87373672319448" lon="14.996210865383727"><ele>730.8000000000001</ele><time>2026-04-19T07:19:34.001Z</time></trkpt><trkpt lat="37.87378010104767" lon="14.996103239207823"><ele>731.4000000000001</ele><time>2026-04-19T07:19:35.001Z</time></trkpt><trkpt lat="37.87379579698026" lon="14.995984060953448"><ele>732.0</ele><time>2026-04-19T07:19:36.001Z</time></trkpt><trkpt lat="37.87382649473528" lon="14.995872071651144"><ele>732.2</ele><time>2026-04-19T07:19:37.001Z</time></trkpt><trkpt lat="37.87385682954817" lon="14.995760643355583"><ele>732.4000000000001</ele><time>2026-04-19T07:19:38.001Z</time></trkpt><trkpt lat="37.87388862812689" lon="14.995642693286008"><ele>732.5999999999999</ele><time>2026-04-19T07:19:39.001Z</time></trkpt><trkpt lat="37.87392114271577" lon="14.995516353733665"><ele>732.8</ele><time>2026-04-19T07:19:40.001Z</time></trkpt><trkpt lat="37.8739529545434" lon="14.995375318098768"><ele>733.0</ele><time>2026-04-19T07:19:41.001Z</time></trkpt><trkpt lat="37.87398081338696" lon="14.99523302193622"><ele>733.0</ele><time>2026-04-19T07:19:42.001Z</time></trkpt><trkpt lat="37.87400022054423" lon="14.995090163210659"><ele>733.0</ele><time>2026-04-19T07:19:43.001Z</time></trkpt><trkpt lat="37.87402206834957" lon="14.994949293690693"><ele>733.0</ele><time>2026-04-19T07:19:44.001Z</time></trkpt><trkpt lat="37.874059273490744" lon="14.994810341320349"><ele>733.0</ele><time>2026-04-19T07:19:45.001Z</time></trkpt><trkpt lat="37.874082227652565" lon="14.994663760943702"><ele>732.75</ele><time>2026-04-19T07:19:46.001Z</time></trkpt><trkpt lat="37.874104993543824" lon="14.994518382817025"><ele>732.5</ele><time>2026-04-19T07:19:47.001Z</time></trkpt><trkpt lat="37.87412874983248" lon="14.994371662648268"><ele>732.25</ele><time>2026-04-19T07:19:48.001Z</time></trkpt><trkpt lat="37.87415428279525" lon="14.99422549681706"><ele>732.0</ele><time>2026-04-19T07:19:49.001Z</time></trkpt><trkpt lat="37.87418017801901" lon="14.994077257190149"><ele>732.0</ele><time>2026-04-19T07:19:50.001Z</time></trkpt><trkpt lat="37.874205762001644" lon="14.993930799283554"><ele>732.0</ele><time>2026-04-19T07:19:51.001Z</time></trkpt><trkpt lat="37.87421512848869" lon="14.993780664409833"><ele>732.0</ele><time>2026-04-19T07:19:52.001Z</time></trkpt><trkpt lat="37.874255476809" lon="14.99364895389795"><ele>732.0</ele><time>2026-04-19T07:19:53.001Z</time></trkpt><trkpt lat="37.87426622440476" lon="14.993499463971403"><ele>731.6</ele><time>2026-04-19T07:19:54.001Z</time></trkpt><trkpt lat="37.87430327219627" lon="14.9933665186838"><ele>731.2</ele><time>2026-04-19T07:19:55.001Z</time></trkpt><trkpt lat="37.87434492809263" lon="14.993247118533594"><ele>730.8</ele><time>2026-04-19T07:19:56.001Z</time></trkpt><trkpt lat="37.87442531671503" lon="14.993144713239628"><ele>730.4</ele><time>2026-04-19T07:19:57.001Z</time></trkpt><trkpt lat="37.874484921775164" lon="14.993034864508793"><ele>730.0</ele><time>2026-04-19T07:19:58.001Z</time></trkpt><trkpt lat="37.87455046773174" lon="14.992920819377755"><ele>731.2</ele><time>2026-04-19T07:19:59.001Z</time></trkpt><trkpt lat="37.87461142452399" lon="14.9928171490301"><ele>732.4</ele><time>2026-04-19T07:20:00.001Z</time></trkpt><trkpt lat="37.87467452089711" lon="14.992709839847393"><ele>733.5999999999999</ele><time>2026-04-19T07:20:01.001Z</time></trkpt><trkpt lat="37.87473335437448" lon="14.992604016804227"><ele>734.8</ele><time>2026-04-19T07:20:02.001Z</time></trkpt><trkpt lat="37.874780264369875" lon="14.992483009249144"><ele>736.0</ele><time>2026-04-19T07:20:03.001Z</time></trkpt><trkpt lat="37.87479591457108" lon="14.992347119649892"><ele>736.5</ele><time>2026-04-19T07:20:04.001Z</time></trkpt><trkpt lat="37.87481787890566" lon="14.992216417535186"><ele>737.0</ele><time>2026-04-19T07:20:05.001Z</time></trkpt><trkpt lat="37.87483086563057" lon="14.992064684810119"><ele>737.5</ele><time>2026-04-19T07:20:06.001Z</time></trkpt><trkpt lat="37.87481235027663" lon="14.991909510534034"><ele>738.0</ele><time>2026-04-19T07:20:07.001Z</time></trkpt><trkpt lat="37.87478573371488" lon="14.991746502585233"><ele>737.0</ele><time>2026-04-19T07:20:08.001Z</time></trkpt><trkpt lat="37.87475717489259" lon="14.991578716479628"><ele>736.0</ele><time>2026-04-19T07:20:09.001Z</time></trkpt><trkpt lat="37.87472542148401" lon="14.991395826718103"><ele>735.0</ele><time>2026-04-19T07:20:10.001Z</time></trkpt><trkpt lat="37.87469359266819" lon="14.991212272200162"><ele>734.0</ele><time>2026-04-19T07:20:11.001Z</time></trkpt><trkpt lat="37.87466397488072" lon="14.991041349847254"><ele>734.0</ele><time>2026-04-19T07:20:12.001Z</time></trkpt><trkpt lat="37.87463667503958" lon="14.99088380422836"><ele>734.0</ele><time>2026-04-19T07:20:13.001Z</time></trkpt><trkpt lat="37.874611743387845" lon="14.990739925253076"><ele>734.0</ele><time>2026-04-19T07:20:14.001Z</time></trkpt><trkpt lat="37.87458817330946" lon="14.990604113679497"><ele>734.0</ele><time>2026-04-19T07:20:14.999Z</time></trkpt><trkpt lat="37.8745644379586" lon="14.990468351880045"><ele>734.2</ele><time>2026-04-19T07:20:15.999Z</time></trkpt><trkpt lat="37.87454261260466" lon="14.990343514912045"><ele>734.4000000000001</ele><time>2026-04-19T07:20:16.999Z</time></trkpt><trkpt lat="37.874520364774305" lon="14.990216261461384"><ele>734.6</ele><time>2026-04-19T07:20:17.999Z</time></trkpt><trkpt lat="37.87449664445649" lon="14.99008058563772"><ele>734.8</ele><time>2026-04-19T07:20:18.999Z</time></trkpt><trkpt lat="37.8744730205043" lon="14.989945461032827"><ele>735.0</ele><time>2026-04-19T07:20:19.999Z</time></trkpt><trkpt lat="37.87444924840658" lon="14.98980402093874"><ele>735.25</ele><time>2026-04-19T07:20:20.999Z</time></trkpt><trkpt lat="37.87442553160685" lon="14.989659001966071"><ele>735.5</ele><time>2026-04-19T07:20:21.999Z</time></trkpt><trkpt lat="37.874402337243424" lon="14.989517177491066"><ele>735.75</ele><time>2026-04-19T07:20:22.999Z</time></trkpt><trkpt lat="37.874378840546754" lon="14.98937350440049"><ele>736.0</ele><time>2026-04-19T07:20:23.999Z</time></trkpt><trkpt lat="37.87435797797249" lon="14.989230053051639"><ele>735.25</ele><time>2026-04-19T07:20:24.999Z</time></trkpt><trkpt lat="37.874341877611464" lon="14.989091392910977"><ele>734.5</ele><time>2026-04-19T07:20:25.999Z</time></trkpt><trkpt lat="37.87432711496642" lon="14.988938415366995"><ele>733.75</ele><time>2026-04-19T07:20:26.999Z</time></trkpt><trkpt lat="37.87431855602351" lon="14.988783201320928"><ele>733.0</ele><time>2026-04-19T07:20:27.999Z</time></trkpt><trkpt lat="37.87431426562751" lon="14.988624253289904"><ele>733.0</ele><time>2026-04-19T07:20:28.999Z</time></trkpt><trkpt lat="37.874315683264896" lon="14.988471258075139"><ele>733.0</ele><time>2026-04-19T07:20:29.999Z</time></trkpt><trkpt lat="37.87432265784906" lon="14.988330688895863"><ele>733.0</ele><time>2026-04-19T07:20:30.999Z</time></trkpt><trkpt lat="37.874332455328805" lon="14.988200268820478"><ele>733.0</ele><time>2026-04-19T07:20:31.999Z</time></trkpt><trkpt lat="37.87434051762784" lon="14.98806976525075"><ele>733.0</ele><time>2026-04-19T07:20:32.999Z</time></trkpt><trkpt lat="37.87434814256826" lon="14.987947003708797"><ele>733.0</ele><time>2026-04-19T07:20:33.999Z</time></trkpt><trkpt lat="37.87433971804192" lon="14.987818398174413"><ele>733.0</ele><time>2026-04-19T07:20:34.999Z</time></trkpt><trkpt lat="37.87435904897459" lon="14.987677837401725"><ele>733.0</ele><time>2026-04-19T07:20:35.999Z</time></trkpt><trkpt lat="37.8743414072705" lon="14.987524425143617"><ele>733.0</ele><time>2026-04-19T07:20:36.999Z</time></trkpt><trkpt lat="37.87435139791721" lon="14.987353570678346"><ele>733.0</ele><time>2026-04-19T07:20:37.999Z</time></trkpt><trkpt lat="37.87433912521921" lon="14.987172467911494"><ele>733.0</ele><time>2026-04-19T07:20:38.999Z</time></trkpt><trkpt lat="37.87432204238639" lon="14.986978046168558"><ele>733.0</ele><time>2026-04-19T07:20:39.999Z</time></trkpt><trkpt lat="37.87430588791575" lon="14.986794190198042"><ele>733.0</ele><time>2026-04-19T07:20:40.999Z</time></trkpt><trkpt lat="37.87429101075954" lon="14.986624871522613"><ele>733.0</ele><time>2026-04-19T07:20:41.999Z</time></trkpt><trkpt lat="37.874277270953584" lon="14.986468497152059"><ele>733.0</ele><time>2026-04-19T07:20:43Z</time></trkpt><trkpt lat="37.87426452866095" lon="14.986323475593528"><ele>733.0</ele><time>2026-04-19T07:20:43.999Z</time></trkpt><trkpt lat="37.87425271632436" lon="14.986177785422784"><ele>733.0</ele><time>2026-04-19T07:20:45Z</time></trkpt><trkpt lat="37.874242458560786" lon="14.986042895830726"><ele>733.5999999999999</ele><time>2026-04-19T07:20:46Z</time></trkpt><trkpt lat="37.87423304105269" lon="14.985919055609692"><ele>734.1999999999999</ele><time>2026-04-19T07:20:47Z</time></trkpt><trkpt lat="37.87422381929434" lon="14.985797789441209"><ele>734.8</ele><time>2026-04-19T07:20:48Z</time></trkpt><trkpt lat="37.87421888401271" lon="14.985682933718355"><ele>735.4</ele><time>2026-04-19T07:20:49Z</time></trkpt><trkpt lat="37.87421803468811" lon="14.985580946997269"><ele>736.0</ele><time>2026-04-19T07:20:50Z</time></trkpt><trkpt lat="37.874222092233104" lon="14.985472350984594"><ele>736.0</ele><time>2026-04-19T07:20:51Z</time></trkpt><trkpt lat="37.874231776194655" lon="14.985351262075035"><ele>736.0</ele><time>2026-04-19T07:20:52Z</time></trkpt><trkpt lat="37.8742461457122" lon="14.985218667800936"><ele>736.0</ele><time>2026-04-19T07:20:53Z</time></trkpt><trkpt lat="37.87426457757172" lon="14.985070080011074"><ele>736.0</ele><time>2026-04-19T07:20:54Z</time></trkpt><trkpt lat="37.874291165114066" lon="14.984906046367161"><ele>735.6666666666667</ele><time>2026-04-19T07:20:55Z</time></trkpt><trkpt lat="37.87433456827754" lon="14.984703825778304"><ele>735.3333333333334</ele><time>2026-04-19T07:20:56Z</time></trkpt><trkpt lat="37.87438679826704" lon="14.984502869558892"><ele>735.0</ele><time>2026-04-19T07:20:57Z</time></trkpt><trkpt lat="37.87443604619049" lon="14.984314026289"><ele>735.6666666666666</ele><time>2026-04-19T07:20:58Z</time></trkpt><trkpt lat="37.8744886902622" lon="14.984113505016893"><ele>736.3333333333333</ele><time>2026-04-19T07:20:59Z</time></trkpt><trkpt lat="37.87453288220603" lon="14.983890606893654"><ele>737.0</ele><time>2026-04-19T07:21:00Z</time></trkpt><trkpt lat="37.874600062941354" lon="14.983648697485375"><ele>737.0</ele><time>2026-04-19T07:21:01Z</time></trkpt><trkpt lat="37.874669668077715" lon="14.98342426423774"><ele>737.0</ele><time>2026-04-19T07:21:02Z</time></trkpt><trkpt lat="37.874721850266056" lon="14.983225696103133"><ele>737.0</ele><time>2026-04-19T07:21:03Z</time></trkpt><trkpt lat="37.874767621598764" lon="14.983051523109728"><ele>737.6666666666666</ele><time>2026-04-19T07:21:04Z</time></trkpt><trkpt lat="37.874817891313484" lon="14.982860232475561"><ele>738.3333333333334</ele><time>2026-04-19T07:21:05Z</time></trkpt><trkpt lat="37.87487784256292" lon="14.982632211560155"><ele>739.0</ele><time>2026-04-19T07:21:06Z</time></trkpt><trkpt lat="37.87494295630365" lon="14.982389611501912"><ele>739.0</ele><time>2026-04-19T07:21:07Z</time></trkpt><trkpt lat="37.8749987672894" lon="14.982183023583936"><ele>739.0</ele><time>2026-04-19T07:21:08Z</time></trkpt><trkpt lat="37.87504617239743" lon="14.982005920213414"><ele>739.0</ele><time>2026-04-19T07:21:09Z</time></trkpt><trkpt lat="37.87508565287874" lon="14.98185644209945"><ele>739.0</ele><time>2026-04-19T07:21:10Z</time></trkpt><trkpt lat="37.87510540528298" lon="14.981718678290425"><ele>739.2</ele><time>2026-04-19T07:21:11Z</time></trkpt><trkpt lat="37.875135350724136" lon="14.981591099387643"><ele>739.4000000000001</ele><time>2026-04-19T07:21:12Z</time></trkpt><trkpt lat="37.87516047905797" lon="14.981477447290741"><ele>739.6</ele><time>2026-04-19T07:21:13Z</time></trkpt><trkpt lat="37.87517114647026" lon="14.981365351337494"><ele>739.8</ele><time>2026-04-19T07:21:14Z</time></trkpt><trkpt lat="37.87516506142912" lon="14.981224490971474"><ele>740.0</ele><time>2026-04-19T07:21:15Z</time></trkpt><trkpt lat="37.87516833080736" lon="14.981045357029524"><ele>740.0</ele><time>2026-04-19T07:21:16Z</time></trkpt><trkpt lat="37.87514458256861" lon="14.980818304600023"><ele>740.0</ele><time>2026-04-19T07:21:17Z</time></trkpt><trkpt lat="37.875117522135625" lon="14.980562282666757"><ele>740.0</ele><time>2026-04-19T07:21:18Z</time></trkpt><trkpt lat="37.8750894781387" lon="14.980297537065898"><ele>741.0</ele><time>2026-04-19T07:21:19Z</time></trkpt><trkpt lat="37.87505886738247" lon="14.980014457036175"><ele>742.0</ele><time>2026-04-19T07:21:20Z</time></trkpt><trkpt lat="37.87502805521244" lon="14.979707464220503"><ele>742.0</ele><time>2026-04-19T07:21:21Z</time></trkpt><trkpt lat="37.875006900719434" lon="14.979427630473445"><ele>742.0</ele><time>2026-04-19T07:21:22Z</time></trkpt><trkpt lat="37.875020489003276" lon="14.979163583854712"><ele>742.0</ele><time>2026-04-19T07:21:23Z</time></trkpt><trkpt lat="37.87506128499386" lon="14.978882075794106"><ele>739.5</ele><time>2026-04-19T07:21:24Z</time></trkpt><trkpt lat="37.87510851454562" lon="14.978572637454556"><ele>737.0</ele><time>2026-04-19T07:21:25Z</time></trkpt><trkpt lat="37.8751476378582" lon="14.97823404575175"><ele>736.5</ele><time>2026-04-19T07:21:26Z</time></trkpt><trkpt lat="37.87519979073453" lon="14.9779007489338"><ele>736.0</ele><time>2026-04-19T07:21:27Z</time></trkpt><trkpt lat="37.87525291843151" lon="14.977581900974258"><ele>737.0</ele><time>2026-04-19T07:21:28Z</time></trkpt><trkpt lat="37.875299453322334" lon="14.977288263214488"><ele>738.0</ele><time>2026-04-19T07:21:29Z</time></trkpt><trkpt lat="37.875348047291766" lon="14.977005823528247"><ele>738.0</ele><time>2026-04-19T07:21:30Z</time></trkpt><trkpt lat="37.87538805917843" lon="14.976733813887332"><ele>738.0</ele><time>2026-04-19T07:21:31Z</time></trkpt><trkpt lat="37.87543436587242" lon="14.976445372415775"><ele>737.5</ele><time>2026-04-19T07:21:32Z</time></trkpt><trkpt lat="37.87548624974582" lon="14.976141605935597"><ele>737.0</ele><time>2026-04-19T07:21:33Z</time></trkpt><trkpt lat="37.87553313915224" lon="14.975837412692773"><ele>736.5</ele><time>2026-04-19T07:21:34Z</time></trkpt><trkpt lat="37.87557569020519" lon="14.97554219766676"><ele>736.0</ele><time>2026-04-19T07:21:35Z</time></trkpt><trkpt lat="37.87561465130748" lon="14.975263774667164"><ele>736.0</ele><time>2026-04-19T07:21:36.001Z</time></trkpt><trkpt lat="37.87566882796082" lon="14.974998337119805"><ele>736.0</ele><time>2026-04-19T07:21:37.001Z</time></trkpt><trkpt lat="37.87570940526393" lon="14.974744426622973"><ele>736.0</ele><time>2026-04-19T07:21:38.001Z</time></trkpt><trkpt lat="37.875751710132036" lon="14.974506705059222"><ele>736.0</ele><time>2026-04-19T07:21:39.001Z</time></trkpt><trkpt lat="37.87580155561175" lon="14.97427441777366"><ele>736.0</ele><time>2026-04-19T07:21:40.001Z</time></trkpt><trkpt lat="37.87585498931918" lon="14.97405040211352"><ele>736.0</ele><time>2026-04-19T07:21:41.001Z</time></trkpt><trkpt lat="37.875909803528664" lon="14.973829395896642"><ele>734.0</ele><time>2026-04-19T07:21:42.001Z</time></trkpt><trkpt lat="37.87596665808849" lon="14.973605745288355"><ele>732.0</ele><time>2026-04-19T07:21:43.001Z</time></trkpt><trkpt lat="37.87602540560781" lon="14.973372968334173"><ele>730.0</ele><time>2026-04-19T07:21:44.001Z</time></trkpt><trkpt lat="37.876088076789834" lon="14.973124840258535"><ele>729.0</ele><time>2026-04-19T07:21:45.001Z</time></trkpt><trkpt lat="37.87615436963383" lon="14.972861797968628"><ele>728.0</ele><time>2026-04-19T07:21:46.001Z</time></trkpt><trkpt lat="37.87622311334113" lon="14.972583221646415"><ele>727.0</ele><time>2026-04-19T07:21:47.001Z</time></trkpt><trkpt lat="37.87629835337601" lon="14.972278319679388"><ele>726.0</ele><time>2026-04-19T07:21:48.001Z</time></trkpt><trkpt lat="37.8763760154591" lon="14.97196360262466"><ele>725.0</ele><time>2026-04-19T07:21:49.001Z</time></trkpt><trkpt lat="37.87644134838977" lon="14.971633762298534"><ele>725.0</ele><time>2026-04-19T07:21:50.001Z</time></trkpt><trkpt lat="37.876518958667056" lon="14.971312847311946"><ele>725.0</ele><time>2026-04-19T07:21:51.001Z</time></trkpt><trkpt lat="37.8766133619992" lon="14.970995534119593"><ele>726.0</ele><time>2026-04-19T07:21:52.001Z</time></trkpt><trkpt lat="37.87668881445563" lon="14.970689711248827"><ele>727.0</ele><time>2026-04-19T07:21:53.001Z</time></trkpt><trkpt lat="37.87676055357524" lon="14.970401610540582"><ele>726.0</ele><time>2026-04-19T07:21:54.001Z</time></trkpt><trkpt lat="37.87683410870206" lon="14.970135508706402"><ele>725.0</ele><time>2026-04-19T07:21:55.001Z</time></trkpt><trkpt lat="37.87690938049522" lon="14.969880776696582"><ele>724.0</ele><time>2026-04-19T07:21:56.001Z</time></trkpt><trkpt lat="37.8769775740222" lon="14.96965208180143"><ele>723.6666666666667</ele><time>2026-04-19T07:21:57.001Z</time></trkpt><trkpt lat="37.87704275589672" lon="14.96943810821119"><ele>723.3333333333334</ele><time>2026-04-19T07:21:58.001Z</time></trkpt><trkpt lat="37.87710735690314" lon="14.96922604145035"><ele>723.0</ele><time>2026-04-19T07:21:59.001Z</time></trkpt><trkpt lat="37.87715961872209" lon="14.969004031948916"><ele>723.0</ele><time>2026-04-19T07:22:00.001Z</time></trkpt><trkpt lat="37.877228116593095" lon="14.968776315513256"><ele>723.0</ele><time>2026-04-19T07:22:01.001Z</time></trkpt><trkpt lat="37.877314403683094" lon="14.968545850957815"><ele>723.0</ele><time>2026-04-19T07:22:02.001Z</time></trkpt><trkpt lat="37.87738614017564" lon="14.968308154374995"><ele>722.6666666666666</ele><time>2026-04-19T07:22:03.001Z</time></trkpt><trkpt lat="37.87745696436962" lon="14.968073480645455"><ele>722.3333333333333</ele><time>2026-04-19T07:22:04.001Z</time></trkpt><trkpt lat="37.877511943396804" lon="14.967835814220853"><ele>722.0</ele><time>2026-04-19T07:22:05.001Z</time></trkpt><trkpt lat="37.877577803545414" lon="14.967614336767353"><ele>722.0</ele><time>2026-04-19T07:22:06.001Z</time></trkpt><trkpt lat="37.877656897320364" lon="14.967407939019951"><ele>722.0</ele><time>2026-04-19T07:22:07.001Z</time></trkpt><trkpt lat="37.87770384845684" lon="14.967185568072033"><ele>722.0</ele><time>2026-04-19T07:22:08.001Z</time></trkpt><trkpt lat="37.87778092002665" lon="14.96697632534348"><ele>722.0</ele><time>2026-04-19T07:22:09.001Z</time></trkpt><trkpt lat="37.877844920790686" lon="14.966755433045414"><ele>722.0</ele><time>2026-04-19T07:22:10.001Z</time></trkpt><trkpt lat="37.87790902836391" lon="14.966536681195754"><ele>722.0</ele><time>2026-04-19T07:22:11.001Z</time></trkpt><trkpt lat="37.87797252280179" lon="14.966320021529318"><ele>722.0</ele><time>2026-04-19T07:22:12.001Z</time></trkpt><trkpt lat="37.87803313998787" lon="14.966105708119585"><ele>722.0</ele><time>2026-04-19T07:22:13.001Z</time></trkpt><trkpt lat="37.87809115016811" lon="14.965889254265589"><ele>722.0</ele><time>2026-04-19T07:22:14.001Z</time></trkpt><trkpt lat="37.87813997575206" lon="14.965677055893725"><ele>722.0</ele><time>2026-04-19T07:22:15.001Z</time></trkpt><trkpt lat="37.878178657049524" lon="14.965470788172546"><ele>722.0</ele><time>2026-04-19T07:22:16.001Z</time></trkpt><trkpt lat="37.878193795894674" lon="14.965266063876946"><ele>722.0</ele><time>2026-04-19T07:22:17.001Z</time></trkpt><trkpt lat="37.87821789069615" lon="14.965080692982838"><ele>722.5</ele><time>2026-04-19T07:22:18.001Z</time></trkpt><trkpt lat="37.87824478338064" lon="14.964907324567488"><ele>723.0</ele><time>2026-04-19T07:22:19.001Z</time></trkpt><trkpt lat="37.87826705087275" lon="14.96473585672675"><ele>723.5</ele><time>2026-04-19T07:22:20.001Z</time></trkpt><trkpt lat="37.87827902784963" lon="14.96455589304338"><ele>724.0</ele><time>2026-04-19T07:22:20.999Z</time></trkpt><trkpt lat="37.87830252907168" lon="14.964365643006836"><ele>725.0</ele><time>2026-04-19T07:22:21.999Z</time></trkpt><trkpt lat="37.87831571118732" lon="14.964165073867937"><ele>726.0</ele><time>2026-04-19T07:22:22.999Z</time></trkpt><trkpt lat="37.878316020944794" lon="14.96395623400303"><ele>727.0</ele><time>2026-04-19T07:22:23.999Z</time></trkpt><trkpt lat="37.87834545861628" lon="14.963744043725331"><ele>727.0</ele><time>2026-04-19T07:22:24.999Z</time></trkpt><trkpt lat="37.87833905399136" lon="14.963525213431554"><ele>727.0</ele><time>2026-04-19T07:22:25.999Z</time></trkpt><trkpt lat="37.87835730156849" lon="14.963306305682826"><ele>727.0</ele><time>2026-04-19T07:22:26.999Z</time></trkpt><trkpt lat="37.878375791689855" lon="14.963089096754727"><ele>727.3333333333334</ele><time>2026-04-19T07:22:27.999Z</time></trkpt><trkpt lat="37.8783974209809" lon="14.96286217265682"><ele>727.6666666666666</ele><time>2026-04-19T07:22:28.999Z</time></trkpt><trkpt lat="37.87840095592646" lon="14.962647167923205"><ele>728.0</ele><time>2026-04-19T07:22:29.999Z</time></trkpt><trkpt lat="37.878415120366796" lon="14.962436459637734"><ele>728.0</ele><time>2026-04-19T07:22:30.999Z</time></trkpt><trkpt lat="37.87844233468392" lon="14.962221410221167"><ele>728.0</ele><time>2026-04-19T07:22:31.999Z</time></trkpt><trkpt lat="37.87845139998528" lon="14.962030325822822"><ele>728.0</ele><time>2026-04-19T07:22:32.999Z</time></trkpt><trkpt lat="37.87846030841216" lon="14.961845007298283"><ele>729.5</ele><time>2026-04-19T07:22:33.999Z</time></trkpt><trkpt lat="37.87846911587437" lon="14.961658557094447"><ele>731.0</ele><time>2026-04-19T07:22:34.999Z</time></trkpt><trkpt lat="37.8784758027885" lon="14.961467269419456"><ele>732.5</ele><time>2026-04-19T07:22:35.999Z</time></trkpt><trkpt lat="37.8784855576523" lon="14.96127703444202"><ele>734.0</ele><time>2026-04-19T07:22:36.999Z</time></trkpt><trkpt lat="37.878494949818645" lon="14.961088205661476"><ele>734.0</ele><time>2026-04-19T07:22:37.999Z</time></trkpt><trkpt lat="37.87850024954876" lon="14.960914669859365"><ele>734.0</ele><time>2026-04-19T07:22:38.999Z</time></trkpt><trkpt lat="37.87850379374775" lon="14.960756124813551"><ele>734.0</ele><time>2026-04-19T07:22:39.999Z</time></trkpt><trkpt lat="37.87851136584449" lon="14.960608191299226"><ele>734.0</ele><time>2026-04-19T07:22:40.999Z</time></trkpt><trkpt lat="37.878519015432765" lon="14.960478123982552"><ele>734.0</ele><time>2026-04-19T07:22:41.999Z</time></trkpt><trkpt lat="37.8785285451819" lon="14.96036019125299"><ele>734.0</ele><time>2026-04-19T07:22:42.999Z</time></trkpt><trkpt lat="37.8785388349386" lon="14.960252537299517"><ele>734.0</ele><time>2026-04-19T07:22:44Z</time></trkpt><trkpt lat="37.87854937581767" lon="14.960152663841173"><ele>734.0</ele><time>2026-04-19T07:22:45Z</time></trkpt><trkpt lat="37.878563368730696" lon="14.960059974347299"><ele>734.0</ele><time>2026-04-19T07:22:46Z</time></trkpt><trkpt lat="37.87857919177527" lon="14.959969145601855"><ele>734.0</ele><time>2026-04-19T07:22:47Z</time></trkpt><trkpt lat="37.878596209248606" lon="14.959865891890049"><ele>735.1666666666666</ele><time>2026-04-19T07:22:48Z</time></trkpt><trkpt lat="37.87862220068871" lon="14.959758675340469"><ele>736.3333333333333</ele><time>2026-04-19T07:22:49Z</time></trkpt><trkpt lat="37.878654767130016" lon="14.959657118873864"><ele>737.5</ele><time>2026-04-19T07:22:50Z</time></trkpt><trkpt lat="37.87869703523811" lon="14.959555960988844"><ele>738.6666666666666</ele><time>2026-04-19T07:22:51Z</time></trkpt><trkpt lat="37.87874794268798" lon="14.959463136999814"><ele>739.8333333333334</ele><time>2026-04-19T07:22:52Z</time></trkpt><trkpt lat="37.87879109260103" lon="14.9593781549355"><ele>741.0</ele><time>2026-04-19T07:22:53Z</time></trkpt><trkpt lat="37.87883419125706" lon="14.95929524420077"><ele>741.0</ele><time>2026-04-19T07:22:54Z</time></trkpt><trkpt lat="37.87887646728695" lon="14.959215254424505"><ele>741.0</ele><time>2026-04-19T07:22:55Z</time></trkpt><trkpt lat="37.87891635042822" lon="14.95913476922811"><ele>741.0</ele><time>2026-04-19T07:22:56Z</time></trkpt><trkpt lat="37.87895458359736" lon="14.959053312266978"><ele>741.0</ele><time>2026-04-19T07:22:57Z</time></trkpt><trkpt lat="37.87899075186922" lon="14.958963321430222"><ele>741.0</ele><time>2026-04-19T07:22:58Z</time></trkpt><trkpt lat="37.8790228246396" lon="14.958862370934781"><ele>741.0</ele><time>2026-04-19T07:22:59Z</time></trkpt><trkpt lat="37.87905455406101" lon="14.958751614408348"><ele>742.0</ele><time>2026-04-19T07:23:00Z</time></trkpt><trkpt lat="37.87908611232377" lon="14.958639443166351"><ele>743.0</ele><time>2026-04-19T07:23:01Z</time></trkpt><trkpt lat="37.87912448665704" lon="14.958519673389556"><ele>744.0</ele><time>2026-04-19T07:23:02Z</time></trkpt><trkpt lat="37.87915734952428" lon="14.95840328707913"><ele>745.0</ele><time>2026-04-19T07:23:03Z</time></trkpt><trkpt lat="37.87919038584365" lon="14.958291288664025"><ele>746.0</ele><time>2026-04-19T07:23:04Z</time></trkpt><trkpt lat="37.879221565000364" lon="14.958182990125792"><ele>746.1666666666666</ele><time>2026-04-19T07:23:05Z</time></trkpt><trkpt lat="37.87925231145441" lon="14.95807834388535"><ele>746.3333333333333</ele><time>2026-04-19T07:23:06Z</time></trkpt><trkpt lat="37.87927834647255" lon="14.957980584367348"><ele>746.5</ele><time>2026-04-19T07:23:07Z</time></trkpt><trkpt lat="37.87930813848388" lon="14.957895576450701"><ele>746.6666666666666</ele><time>2026-04-19T07:23:08Z</time></trkpt><trkpt lat="37.879334731226805" lon="14.957813673030623"><ele>746.8333333333334</ele><time>2026-04-19T07:23:09Z</time></trkpt><trkpt lat="37.879372090278736" lon="14.957688725951641"><ele>747.0</ele><time>2026-04-19T07:23:11Z</time></trkpt><trkpt lat="37.87939624484672" lon="14.957599248568616"><ele>746.2</ele><time>2026-04-19T07:23:13Z</time></trkpt><trkpt lat="37.87942778637413" lon="14.957458496541518"><ele>745.4000000000001</ele><time>2026-04-19T07:23:15Z</time></trkpt><trkpt lat="37.87944510248539" lon="14.957356520430551"><ele>744.5999999999999</ele><time>2026-04-19T07:23:16Z</time></trkpt><trkpt lat="37.87946188062232" lon="14.957249238790528"><ele>743.8</ele><time>2026-04-19T07:23:17Z</time></trkpt><trkpt lat="37.87947798947706" lon="14.95712922245526"><ele>743.0</ele><time>2026-04-19T07:23:18Z</time></trkpt><trkpt lat="37.87948912904645" lon="14.956989354785687"><ele>743.0</ele><time>2026-04-19T07:23:19.001Z</time></trkpt><trkpt lat="37.879508184503976" lon="14.956840319741191"><ele>743.0</ele><time>2026-04-19T07:23:20.001Z</time></trkpt><trkpt lat="37.87954002123362" lon="14.956703228796155"><ele>743.0</ele><time>2026-04-19T07:23:21.001Z</time></trkpt><trkpt lat="37.87955879828897" lon="14.956555034045177"><ele>743.0</ele><time>2026-04-19T07:23:22.001Z</time></trkpt><trkpt lat="37.87960033176612" lon="14.956408179213465"><ele>743.25</ele><time>2026-04-19T07:23:23.001Z</time></trkpt><trkpt lat="37.87962234967838" lon="14.956258316828565"><ele>743.5</ele><time>2026-04-19T07:23:24.001Z</time></trkpt><trkpt lat="37.879645676711206" lon="14.956102939657685"><ele>743.75</ele><time>2026-04-19T07:23:25.001Z</time></trkpt><trkpt lat="37.87967022335344" lon="14.955939411876384"><ele>744.0</ele><time>2026-04-19T07:23:26.001Z</time></trkpt><trkpt lat="37.87969200584727" lon="14.955772594278772"><ele>744.25</ele><time>2026-04-19T07:23:27.001Z</time></trkpt><trkpt lat="37.87970722284594" lon="14.955617759273986"><ele>744.5</ele><time>2026-04-19T07:23:28.001Z</time></trkpt><trkpt lat="37.87971739089787" lon="14.955466695542096"><ele>744.75</ele><time>2026-04-19T07:23:29.001Z</time></trkpt><trkpt lat="37.879730624795386" lon="14.955315644480097"><ele>745.0</ele><time>2026-04-19T07:23:30.001Z</time></trkpt><trkpt lat="37.87974553927218" lon="14.95516377854604"><ele>744.5</ele><time>2026-04-19T07:23:31.001Z</time></trkpt><trkpt lat="37.87976370353353" lon="14.955014273628652"><ele>744.0</ele><time>2026-04-19T07:23:32.001Z</time></trkpt><trkpt lat="37.879781113427285" lon="14.954859872546193"><ele>743.5</ele><time>2026-04-19T07:23:33.001Z</time></trkpt><trkpt lat="37.87979781772339" lon="14.954711729805071"><ele>743.0</ele><time>2026-04-19T07:23:34.001Z</time></trkpt><trkpt lat="37.87981739304577" lon="14.954573835538785"><ele>743.0</ele><time>2026-04-19T07:23:35.001Z</time></trkpt><trkpt lat="37.87983546513185" lon="14.954442246953091"><ele>743.0</ele><time>2026-04-19T07:23:36.001Z</time></trkpt><trkpt lat="37.87985266784763" lon="14.954316526028256"><ele>743.0</ele><time>2026-04-19T07:23:37.001Z</time></trkpt><trkpt lat="37.879871312522866" lon="14.954173476521142"><ele>743.0</ele><time>2026-04-19T07:23:38.001Z</time></trkpt><trkpt lat="37.87988807056119" lon="14.954027873868846"><ele>743.0</ele><time>2026-04-19T07:23:39.001Z</time></trkpt><trkpt lat="37.87990366530747" lon="14.953892379145458"><ele>742.8333333333333</ele><time>2026-04-19T07:23:40.001Z</time></trkpt><trkpt lat="37.8799163867501" lon="14.953773158361116"><ele>742.6666666666666</ele><time>2026-04-19T07:23:41.001Z</time></trkpt><trkpt lat="37.879925524897835" lon="14.953659779023225"><ele>742.5</ele><time>2026-04-19T07:23:42.001Z</time></trkpt><trkpt lat="37.87993142201754" lon="14.953559036551622"><ele>742.3333333333334</ele><time>2026-04-19T07:23:43.001Z</time></trkpt><trkpt lat="37.87993330948183" lon="14.95347217105511"><ele>742.1666666666667</ele><time>2026-04-19T07:23:44.001Z</time></trkpt><trkpt lat="37.87990844140388" lon="14.953393065474923"><ele>742.0</ele><time>2026-04-19T07:23:45.001Z</time></trkpt><trkpt lat="37.879897301983505" lon="14.953303811270656"><ele>742.0</ele><time>2026-04-19T07:23:46.001Z</time></trkpt><trkpt lat="37.87987065292004" lon="14.953219929706076"><ele>742.0</ele><time>2026-04-19T07:23:47.001Z</time></trkpt><trkpt lat="37.87980519285329" lon="14.953135924580966"><ele>742.0</ele><time>2026-04-19T07:23:48.001Z</time></trkpt><trkpt lat="37.87972562553273" lon="14.953038839342579"><ele>742.0</ele><time>2026-04-19T07:23:49.001Z</time></trkpt><trkpt lat="37.879630190778656" lon="14.952935725460913"><ele>742.0</ele><time>2026-04-19T07:23:50.001Z</time></trkpt><trkpt lat="37.879516259548545" lon="14.952812690995431"><ele>742.0</ele><time>2026-04-19T07:23:51.001Z</time></trkpt><trkpt lat="37.87938649569728" lon="14.952700816093987"><ele>742.0</ele><time>2026-04-19T07:23:52.001Z</time></trkpt><trkpt lat="37.8792457265763" lon="14.952555217669875"><ele>742.0</ele><time>2026-04-19T07:23:53.001Z</time></trkpt><trkpt lat="37.87911511945201" lon="14.952402317073853"><ele>743.25</ele><time>2026-04-19T07:23:54.001Z</time></trkpt><trkpt lat="37.87899741310443" lon="14.952272257083958"><ele>744.5</ele><time>2026-04-19T07:23:55.001Z</time></trkpt><trkpt lat="37.8788987947395" lon="14.95215413108704"><ele>745.75</ele><time>2026-04-19T07:23:56.001Z</time></trkpt><trkpt lat="37.87880581793527" lon="14.952046671147063"><ele>747.0</ele><time>2026-04-19T07:23:57.001Z</time></trkpt><trkpt lat="37.87872482639984" lon="14.951949429753824"><ele>747.0</ele><time>2026-04-19T07:23:58.001Z</time></trkpt><trkpt lat="37.87865075153191" lon="14.951870989613383"><ele>747.0</ele><time>2026-04-19T07:23:59.001Z</time></trkpt><trkpt lat="37.87858207089841" lon="14.951800058897856"><ele>747.0</ele><time>2026-04-19T07:24:00.001Z</time></trkpt><trkpt lat="37.87852481299395" lon="14.95173548825607"><ele>747.0</ele><time>2026-04-19T07:24:01.001Z</time></trkpt><trkpt lat="37.878441748622464" lon="14.951693837753194"><ele>747.0</ele><time>2026-04-19T07:24:03.001Z</time></trkpt><trkpt lat="37.87839643321941" lon="14.951799750178385"><ele>747.0</ele><time>2026-04-19T07:24:05.001Z</time></trkpt><trkpt lat="37.87833245153897" lon="14.95180579245582"><ele>750.0</ele><time>2026-04-19T07:24:07.001Z</time></trkpt></trkseg><trkseg><trkpt lat="37.84182947561647" lon="14.711014857798205"><ele>1049.1</ele><time>2026-04-19T08:03:48.001Z</time></trkpt></trkseg><trkseg><trkpt lat="37.84184333116783" lon="14.710927263932696"><ele>1063.0</ele><time>2026-04-19T08:16:47.002Z</time></trkpt><trkpt lat="37.84190743091853" lon="14.71086544729705"><ele>1063.0</ele><time>2026-04-19T08:16:49.002Z</time></trkpt><trkpt lat="37.84190353103982" lon="14.710764569253953"><ele>1063.0</ele><time>2026-04-19T08:17:16.999Z</time></trkpt><trkpt lat="37.8418856426621" lon="14.710688010248541"><ele>1063.0</ele><time>2026-04-19T08:17:18.999Z</time></trkpt><trkpt lat="37.84189635661005" lon="14.710591336548896"><ele>1063.0</ele><time>2026-04-19T08:17:36Z</time></trkpt><trkpt lat="37.84192599334113" lon="14.710491273069426"><ele>1063.0</ele><time>2026-04-19T08:17:38Z</time></trkpt><trkpt lat="37.84198080366705" lon="14.71034942343373"><ele>1062.0</ele><time>2026-04-19T08:17:40Z</time></trkpt><trkpt lat="37.84203341279871" lon="14.710215515586961"><ele>1061.0</ele><time>2026-04-19T08:17:42Z</time></trkpt><trkpt lat="37.842075041029304" lon="14.71009324976547"><ele>1060.0</ele><time>2026-04-19T08:17:44Z</time></trkpt><trkpt lat="37.8421155547791" lon="14.70998475740723"><ele>1059.0</ele><time>2026-04-19T08:17:46Z</time></trkpt><trkpt lat="37.84216512582144" lon="14.70984314234452"><ele>1058.0</ele><time>2026-04-19T08:17:48Z</time></trkpt><trkpt lat="37.84218324482818" lon="14.709688363137829"><ele>1058.0</ele><time>2026-04-19T08:17:50Z</time></trkpt><trkpt lat="37.842118990905526" lon="14.709556876325953"><ele>1058.0</ele><time>2026-04-19T08:17:52Z</time></trkpt><trkpt lat="37.842067095913805" lon="14.70950079482554"><ele>1058.0</ele><time>2026-04-19T08:17:53Z</time></trkpt><trkpt lat="37.84202539537328" lon="14.709422996071066"><ele>1058.0</ele><time>2026-04-19T08:17:54Z</time></trkpt><trkpt lat="37.84196282072189" lon="14.709364360883226"><ele>1058.0</ele><time>2026-04-19T08:17:55Z</time></trkpt><trkpt lat="37.84192268514714" lon="14.709270583075906"><ele>1058.0</ele><time>2026-04-19T08:17:56Z</time></trkpt><trkpt lat="37.841893346957065" lon="14.709160327761662"><ele>1057.2</ele><time>2026-04-19T08:17:57Z</time></trkpt><trkpt lat="37.841876961321184" lon="14.709047754378554"><ele>1056.4</ele><time>2026-04-19T08:17:58Z</time></trkpt><trkpt lat="37.841870269010975" lon="14.708930414040735"><ele>1055.6000000000001</ele><time>2026-04-19T08:17:59Z</time></trkpt><trkpt lat="37.84186172890319" lon="14.708809971394038"><ele>1054.8</ele><time>2026-04-19T08:18:00Z</time></trkpt><trkpt lat="37.84184687927605" lon="14.708689610062965"><ele>1054.0</ele><time>2026-04-19T08:18:01.001Z</time></trkpt><trkpt lat="37.84181296642276" lon="14.708576809918814"><ele>1051.2</ele><time>2026-04-19T08:18:02.001Z</time></trkpt><trkpt lat="37.841769944839726" lon="14.708470237678128"><ele>1048.4</ele><time>2026-04-19T08:18:03.001Z</time></trkpt><trkpt lat="37.84167825726416" lon="14.708412505046706"><ele>1045.6</ele><time>2026-04-19T08:18:04.001Z</time></trkpt><trkpt lat="37.841590438431574" lon="14.708367025924733"><ele>1042.8</ele><time>2026-04-19T08:18:05.001Z</time></trkpt><trkpt lat="37.84150855288375" lon="14.708300024440303"><ele>1040.0</ele><time>2026-04-19T08:18:06.001Z</time></trkpt><trkpt lat="37.84141787234791" lon="14.708248481293655"><ele>1040.0</ele><time>2026-04-19T08:18:07.001Z</time></trkpt><trkpt lat="37.84131409948358" lon="14.70819482586268"><ele>1040.0</ele><time>2026-04-19T08:18:08.001Z</time></trkpt><trkpt lat="37.84123814299605" lon="14.708089965851926"><ele>1040.0</ele><time>2026-04-19T08:18:09.001Z</time></trkpt><trkpt lat="37.84116569597645" lon="14.70799109118202"><ele>1040.0</ele><time>2026-04-19T08:18:10.001Z</time></trkpt><trkpt lat="37.84108969423413" lon="14.70789740262889"><ele>1040.0</ele><time>2026-04-19T08:18:11.001Z</time></trkpt><trkpt lat="37.841017391311574" lon="14.707804286461814"><ele>1038.4</ele><time>2026-04-19T08:18:12.001Z</time></trkpt><trkpt lat="37.8409538758755" lon="14.707703519333215"><ele>1036.8</ele><time>2026-04-19T08:18:13.001Z</time></trkpt><trkpt lat="37.840903830678904" lon="14.70759183070396"><ele>1035.2</ele><time>2026-04-19T08:18:14.001Z</time></trkpt><trkpt lat="37.840885849245375" lon="14.707469406750997"><ele>1033.6</ele><time>2026-04-19T08:18:15.001Z</time></trkpt><trkpt lat="37.84087514916753" lon="14.707341644752159"><ele>1032.0</ele><time>2026-04-19T08:18:16.001Z</time></trkpt><trkpt lat="37.840861640630315" lon="14.707214787740886"><ele>1032.0</ele><time>2026-04-19T08:18:17.001Z</time></trkpt><trkpt lat="37.84083421503631" lon="14.707090767422697"><ele>1032.0</ele><time>2026-04-19T08:18:18.001Z</time></trkpt><trkpt lat="37.84079293266398" lon="14.706967285337457"><ele>1032.0</ele><time>2026-04-19T08:18:19.001Z</time></trkpt><trkpt lat="37.840739056678984" lon="14.706851503666408"><ele>1032.0</ele><time>2026-04-19T08:18:20.001Z</time></trkpt><trkpt lat="37.840684006829" lon="14.706735812338259"><ele>1032.0</ele><time>2026-04-19T08:18:21.001Z</time></trkpt><trkpt lat="37.84063303360662" lon="14.706629176992323"><ele>1031.2</ele><time>2026-04-19T08:18:22.001Z</time></trkpt><trkpt lat="37.840578891887546" lon="14.706520154889613"><ele>1030.4</ele><time>2026-04-19T08:18:23.001Z</time></trkpt><trkpt lat="37.8405221216618" lon="14.706419557138853"><ele>1029.6</ele><time>2026-04-19T08:18:24.001Z</time></trkpt><trkpt lat="37.84045363624695" lon="14.706331710252996"><ele>1028.8</ele><time>2026-04-19T08:18:25.001Z</time></trkpt><trkpt lat="37.84037462317693" lon="14.706274365571318"><ele>1028.0</ele><time>2026-04-19T08:18:26.001Z</time></trkpt><trkpt lat="37.84027966545058" lon="14.706257741998575"><ele>1028.0</ele><time>2026-04-19T08:18:27.001Z</time></trkpt><trkpt lat="37.84018231728987" lon="14.706329565726968"><ele>1028.0</ele><time>2026-04-19T08:18:28.001Z</time></trkpt><trkpt lat="37.84008149892312" lon="14.706387711223377"><ele>1028.0</ele><time>2026-04-19T08:18:29.001Z</time></trkpt><trkpt lat="37.839976376065295" lon="14.706452380900975"><ele>1028.0</ele><time>2026-04-19T08:18:30.001Z</time></trkpt><trkpt lat="37.83985423602551" lon="14.706499727905822"><ele>1026.0</ele><time>2026-04-19T08:18:31.001Z</time></trkpt><trkpt lat="37.83973508764726" lon="14.706539170035915"><ele>1024.0</ele><time>2026-04-19T08:18:32.001Z</time></trkpt><trkpt lat="37.83962177091532" lon="14.706570715720513"><ele>1022.0</ele><time>2026-04-19T08:18:33.001Z</time></trkpt><trkpt lat="37.83950329542236" lon="14.706602121255727"><ele>1020.0</ele><time>2026-04-19T08:18:34.001Z</time></trkpt><trkpt lat="37.83939235616479" lon="14.706627891992582"><ele>1018.8</ele><time>2026-04-19T08:18:35.001Z</time></trkpt><trkpt lat="37.83928055814769" lon="14.706647769582194"><ele>1017.6</ele><time>2026-04-19T08:18:36.001Z</time></trkpt><trkpt lat="37.83917006267924" lon="14.706626802526415"><ele>1016.4000000000001</ele><time>2026-04-19T08:18:37.001Z</time></trkpt><trkpt lat="37.83906426788297" lon="14.706600632242324"><ele>1015.2</ele><time>2026-04-19T08:18:38.002Z</time></trkpt><trkpt lat="37.83895095381179" lon="14.706584615933338"><ele>1014.0</ele><time>2026-04-19T08:18:39.002Z</time></trkpt><trkpt lat="37.838844469699495" lon="14.706540505415328"><ele>1014.0</ele><time>2026-04-19T08:18:40.002Z</time></trkpt><trkpt lat="37.83873676892137" lon="14.706492386502013"><ele>1014.0</ele><time>2026-04-19T08:18:41.002Z</time></trkpt><trkpt lat="37.838625583103976" lon="14.706442568100547"><ele>1014.0</ele><time>2026-04-19T08:18:42.002Z</time></trkpt><trkpt lat="37.83851529086457" lon="14.7063920108417"><ele>1014.0</ele><time>2026-04-19T08:18:43.002Z</time></trkpt><trkpt lat="37.83840402721324" lon="14.706348112499207"><ele>1011.25</ele><time>2026-04-19T08:18:44.002Z</time></trkpt><trkpt lat="37.8382938776048" lon="14.706308540658014"><ele>1008.5</ele><time>2026-04-19T08:18:45.002Z</time></trkpt><trkpt lat="37.83818432351649" lon="14.706301399803724"><ele>1005.75</ele><time>2026-04-19T08:18:46.002Z</time></trkpt><trkpt lat="37.83807756849753" lon="14.706346624434591"><ele>1003.0</ele><time>2026-04-19T08:18:47.002Z</time></trkpt><trkpt lat="37.837975355358466" lon="14.706414250834843"><ele>1003.0</ele><time>2026-04-19T08:18:48.002Z</time></trkpt><trkpt lat="37.837871964171164" lon="14.706488163098978"><ele>1003.0</ele><time>2026-04-19T08:18:49.002Z</time></trkpt><trkpt lat="37.83775729749393" lon="14.706558256463223"><ele>1003.0</ele><time>2026-04-19T08:18:50.002Z</time></trkpt><trkpt lat="37.837635178746496" lon="14.706609020069243"><ele>1003.0</ele><time>2026-04-19T08:18:51.002Z</time></trkpt><trkpt lat="37.83750841128187" lon="14.706644659145866"><ele>1002.5</ele><time>2026-04-19T08:18:52.002Z</time></trkpt><trkpt lat="37.8373849458125" lon="14.706677761605981"><ele>1002.0</ele><time>2026-04-19T08:18:53.002Z</time></trkpt><trkpt lat="37.83726271039585" lon="14.70671285121578"><ele>1001.5</ele><time>2026-04-19T08:18:54.002Z</time></trkpt><trkpt lat="37.83713920017768" lon="14.706750627817353"><ele>1001.0</ele><time>2026-04-19T08:18:55.002Z</time></trkpt><trkpt lat="37.83701793986999" lon="14.706789086859551"><ele>1001.0</ele><time>2026-04-19T08:18:56.002Z</time></trkpt><trkpt lat="37.83689572997628" lon="14.706819816227636"><ele>1001.0</ele><time>2026-04-19T08:18:57.002Z</time></trkpt><trkpt lat="37.83677185593405" lon="14.70684937198419"><ele>1001.0</ele><time>2026-04-19T08:18:58.002Z</time></trkpt><trkpt lat="37.8366488770431" lon="14.706879331708798"><ele>1001.0</ele><time>2026-04-19T08:18:59.002Z</time></trkpt><trkpt lat="37.83653029651313" lon="14.706925823881097"><ele>998.5</ele><time>2026-04-19T08:19:00.002Z</time></trkpt><trkpt lat="37.836419413685796" lon="14.706994721365607"><ele>996.0</ele><time>2026-04-19T08:19:00.998Z</time></trkpt><trkpt lat="37.836313345371366" lon="14.707082651174192"><ele>993.5</ele><time>2026-04-19T08:19:01.998Z</time></trkpt><trkpt lat="37.83620889346414" lon="14.707188216527584"><ele>991.0</ele><time>2026-04-19T08:19:02.998Z</time></trkpt><trkpt lat="37.83610064656569" lon="14.707293266210334"><ele>991.0</ele><time>2026-04-19T08:19:03.998Z</time></trkpt><trkpt lat="37.83598117184667" lon="14.707398074717833"><ele>991.0</ele><time>2026-04-19T08:19:04.999Z</time></trkpt><trkpt lat="37.83586799233165" lon="14.707505051482492"><ele>991.0</ele><time>2026-04-19T08:19:05.999Z</time></trkpt><trkpt lat="37.83575895909196" lon="14.707613340226136"><ele>991.0</ele><time>2026-04-19T08:19:06.999Z</time></trkpt><trkpt lat="37.83565172053184" lon="14.707723486424763"><ele>986.25</ele><time>2026-04-19T08:19:07.999Z</time></trkpt><trkpt lat="37.83554804126234" lon="14.707822859613913"><ele>981.5</ele><time>2026-04-19T08:19:08.999Z</time></trkpt><trkpt lat="37.83544669059849" lon="14.707917452610678"><ele>976.75</ele><time>2026-04-19T08:19:09.999Z</time></trkpt><trkpt lat="37.835351629279465" lon="14.708008323476527"><ele>972.0</ele><time>2026-04-19T08:19:10.999Z</time></trkpt><trkpt lat="37.83525208291969" lon="14.708070360038993"><ele>972.0</ele><time>2026-04-19T08:19:11.999Z</time></trkpt><trkpt lat="37.835138807119954" lon="14.708088462805325"><ele>972.0</ele><time>2026-04-19T08:19:12.999Z</time></trkpt><trkpt lat="37.83502795555766" lon="14.7080609415276"><ele>972.0</ele><time>2026-04-19T08:19:13.999Z</time></trkpt><trkpt lat="37.834920159695244" lon="14.708048346053133"><ele>972.0</ele><time>2026-04-19T08:19:14.999Z</time></trkpt><trkpt lat="37.8348121882301" lon="14.70805418058444"><ele>972.0</ele><time>2026-04-19T08:19:15.999Z</time></trkpt><trkpt lat="37.8347174349433" lon="14.708112517795572"><ele>973.6</ele><time>2026-04-19T08:19:16.999Z</time></trkpt><trkpt lat="37.83465281770398" lon="14.708224822566661"><ele>975.2</ele><time>2026-04-19T08:19:17.999Z</time></trkpt><trkpt lat="37.834604964879304" lon="14.708346260429641"><ele>976.8</ele><time>2026-04-19T08:19:18.999Z</time></trkpt><trkpt lat="37.83455429330148" lon="14.708465608317836"><ele>978.4</ele><time>2026-04-19T08:19:19.999Z</time></trkpt><trkpt lat="37.834500469128095" lon="14.70858113904867"><ele>980.0</ele><time>2026-04-19T08:19:20.999Z</time></trkpt><trkpt lat="37.834451081514146" lon="14.70870129133228"><ele>977.4</ele><time>2026-04-19T08:19:21.999Z</time></trkpt><trkpt lat="37.83437387723415" lon="14.708782776724954"><ele>974.8</ele><time>2026-04-19T08:19:22.999Z</time></trkpt><trkpt lat="37.83428514828603" lon="14.7088291726242"><ele>972.2</ele><time>2026-04-19T08:19:24Z</time></trkpt><trkpt lat="37.83418933699607" lon="14.708832045337818"><ele>969.6</ele><time>2026-04-19T08:19:25Z</time></trkpt><trkpt lat="37.83410559015838" lon="14.708788715659445"><ele>967.0</ele><time>2026-04-19T08:19:26Z</time></trkpt><trkpt lat="37.83403206977977" lon="14.708702469249161"><ele>967.0</ele><time>2026-04-19T08:19:27Z</time></trkpt><trkpt lat="37.833975370603966" lon="14.708605243182415"><ele>967.0</ele><time>2026-04-19T08:19:28Z</time></trkpt><trkpt lat="37.83388941453437" lon="14.708526056363432"><ele>967.0</ele><time>2026-04-19T08:19:29Z</time></trkpt><trkpt lat="37.83381588923772" lon="14.708433897493203"><ele>967.0</ele><time>2026-04-19T08:19:30Z</time></trkpt><trkpt lat="37.83373706408224" lon="14.708345013034613"><ele>967.0</ele><time>2026-04-19T08:19:31Z</time></trkpt><trkpt lat="37.833645524010144" lon="14.708274516606577"><ele>968.75</ele><time>2026-04-19T08:19:32Z</time></trkpt><trkpt lat="37.83354514198021" lon="14.708232766003718"><ele>970.5</ele><time>2026-04-19T08:19:33Z</time></trkpt><trkpt lat="37.833430162059926" lon="14.708292228186586"><ele>972.25</ele><time>2026-04-19T08:19:34Z</time></trkpt><trkpt lat="37.83333236600706" lon="14.708369968798122"><ele>974.0</ele><time>2026-04-19T08:19:35Z</time></trkpt><trkpt lat="37.83325059331264" lon="14.708459875116093"><ele>974.0</ele><time>2026-04-19T08:19:36Z</time></trkpt><trkpt lat="37.833147619291246" lon="14.708549644562902"><ele>974.0</ele><time>2026-04-19T08:19:37Z</time></trkpt><trkpt lat="37.833042481081435" lon="14.7086428612657"><ele>974.0</ele><time>2026-04-19T08:19:38Z</time></trkpt><trkpt lat="37.83293254272504" lon="14.708742313691593"><ele>974.0</ele><time>2026-04-19T08:19:39Z</time></trkpt><trkpt lat="37.83281694110589" lon="14.708843850744849"><ele>970.75</ele><time>2026-04-19T08:19:40Z</time></trkpt><trkpt lat="37.83270272274437" lon="14.708942870464158"><ele>967.5</ele><time>2026-04-19T08:19:41Z</time></trkpt><trkpt lat="37.832592556550715" lon="14.709040464356352"><ele>964.25</ele><time>2026-04-19T08:19:42Z</time></trkpt><trkpt lat="37.832480785103265" lon="14.70913280823909"><ele>961.0</ele><time>2026-04-19T08:19:43Z</time></trkpt><trkpt lat="37.8323689262513" lon="14.70922119964178"><ele>961.0</ele><time>2026-04-19T08:19:44Z</time></trkpt><trkpt lat="37.83225676587715" lon="14.70930634597393"><ele>961.0</ele><time>2026-04-19T08:19:45Z</time></trkpt><trkpt lat="37.83214587748112" lon="14.709377247002257"><ele>961.0</ele><time>2026-04-19T08:19:46Z</time></trkpt><trkpt lat="37.83203046044292" lon="14.709417119210707"><ele>961.0</ele><time>2026-04-19T08:19:47Z</time></trkpt><trkpt lat="37.8319309066941" lon="14.709458767807257"><ele>961.1999999999999</ele><time>2026-04-19T08:19:48Z</time></trkpt><trkpt lat="37.83183727073691" lon="14.709469141718936"><ele>961.3999999999999</ele><time>2026-04-19T08:19:49.001Z</time></trkpt><trkpt lat="37.8317447587512" lon="14.709450489270745"><ele>961.6</ele><time>2026-04-19T08:19:50.001Z</time></trkpt><trkpt lat="37.831649655833424" lon="14.709400961266471"><ele>961.8</ele><time>2026-04-19T08:19:51.001Z</time></trkpt><trkpt lat="37.83153949109094" lon="14.709348131596641"><ele>962.0</ele><time>2026-04-19T08:19:52.001Z</time></trkpt><trkpt lat="37.83143497314174" lon="14.709280527320338"><ele>962.0</ele><time>2026-04-19T08:19:53.001Z</time></trkpt><trkpt lat="37.83133805460886" lon="14.709196126988019"><ele>962.0</ele><time>2026-04-19T08:19:54.001Z</time></trkpt><trkpt lat="37.83124669489993" lon="14.709136070094662"><ele>962.0</ele><time>2026-04-19T08:19:55.001Z</time></trkpt><trkpt lat="37.831071350641125" lon="14.709325841749445"><ele>961.75</ele><time>2026-04-19T08:19:56.001Z</time></trkpt><trkpt lat="37.83094777945577" lon="14.709399991208569"><ele>961.5</ele><time>2026-04-19T08:19:57.001Z</time></trkpt><trkpt lat="37.830829131682265" lon="14.70946605509983"><ele>961.25</ele><time>2026-04-19T08:19:58.001Z</time></trkpt><trkpt lat="37.83070286930592" lon="14.709534742529481"><ele>961.0</ele><time>2026-04-19T08:19:59.001Z</time></trkpt><trkpt lat="37.83058963912866" lon="14.70960099992495"><ele>958.0</ele><time>2026-04-19T08:20:00.001Z</time></trkpt><trkpt lat="37.8304705311654" lon="14.709660102449288"><ele>955.0</ele><time>2026-04-19T08:20:01.001Z</time></trkpt><trkpt lat="37.83035393304294" lon="14.709721051162942"><ele>952.0</ele><time>2026-04-19T08:20:02.001Z</time></trkpt><trkpt lat="37.830237245646195" lon="14.70978323615645"><ele>949.0</ele><time>2026-04-19T08:20:03.001Z</time></trkpt><trkpt lat="37.83012312268416" lon="14.709843666638172"><ele>949.0</ele><time>2026-04-19T08:20:04.001Z</time></trkpt><trkpt lat="37.83001657550147" lon="14.709904327612746"><ele>949.0</ele><time>2026-04-19T08:20:05.001Z</time></trkpt><trkpt lat="37.829920583066155" lon="14.709994487925572"><ele>949.0</ele><time>2026-04-19T08:20:06.001Z</time></trkpt><trkpt lat="37.82985592617197" lon="14.710118223820668"><ele>949.0</ele><time>2026-04-19T08:20:07.001Z</time></trkpt><trkpt lat="37.8298297789458" lon="14.710262510297582"><ele>946.5</ele><time>2026-04-19T08:20:08.001Z</time></trkpt><trkpt lat="37.829832031935695" lon="14.710412722970837"><ele>944.0</ele><time>2026-04-19T08:20:09.001Z</time></trkpt><trkpt lat="37.82984381764132" lon="14.710570271625569"><ele>941.5</ele><time>2026-04-19T08:20:10.001Z</time></trkpt><trkpt lat="37.829853898866766" lon="14.71073394455581"><ele>939.0</ele><time>2026-04-19T08:20:11.001Z</time></trkpt><trkpt lat="37.82985647671759" lon="14.710900587086087"><ele>939.0</ele><time>2026-04-19T08:20:12.001Z</time></trkpt><trkpt lat="37.829857158651464" lon="14.711061967854762"><ele>939.0</ele><time>2026-04-19T08:20:13.001Z</time></trkpt><trkpt lat="37.829856305194454" lon="14.711219218283324"><ele>939.0</ele><time>2026-04-19T08:20:14.001Z</time></trkpt><trkpt lat="37.82986239211331" lon="14.711373529447032"><ele>939.0</ele><time>2026-04-19T08:20:15.001Z</time></trkpt><trkpt lat="37.82985880266709" lon="14.711521456296332"><ele>937.0</ele><time>2026-04-19T08:20:16.001Z</time></trkpt><trkpt lat="37.82982664960005" lon="14.711663196252951"><ele>935.0</ele><time>2026-04-19T08:20:17.001Z</time></trkpt><trkpt lat="37.829780752992434" lon="14.711798010955095"><ele>933.0</ele><time>2026-04-19T08:20:18.001Z</time></trkpt><trkpt lat="37.8297137380828" lon="14.71191162425969"><ele>931.0</ele><time>2026-04-19T08:20:19.001Z</time></trkpt><trkpt lat="37.829615468886864" lon="14.711984697623556"><ele>928.75</ele><time>2026-04-19T08:20:20.001Z</time></trkpt><trkpt lat="37.8295008492932" lon="14.712007984436116"><ele>926.5</ele><time>2026-04-19T08:20:21.001Z</time></trkpt><trkpt lat="37.82938493905699" lon="14.712020912566073"><ele>924.25</ele><time>2026-04-19T08:20:22.002Z</time></trkpt><trkpt lat="37.829263238488984" lon="14.712034538578884"><ele>922.0</ele><time>2026-04-19T08:20:23.002Z</time></trkpt><trkpt lat="37.82913923446715" lon="14.71207488736884"><ele>922.0</ele><time>2026-04-19T08:20:24.002Z</time></trkpt><trkpt lat="37.82901708867674" lon="14.712137537936444"><ele>922.0</ele><time>2026-04-19T08:20:25.002Z</time></trkpt><trkpt lat="37.828896436133725" lon="14.71219883476495"><ele>922.0</ele><time>2026-04-19T08:20:26.002Z</time></trkpt><trkpt lat="37.82878550051994" lon="14.712239782161774"><ele>922.0</ele><time>2026-04-19T08:20:27.002Z</time></trkpt><trkpt lat="37.828689368328845" lon="14.712257550558977"><ele>922.0</ele><time>2026-04-19T08:20:28.002Z</time></trkpt><trkpt lat="37.82859784945102" lon="14.71223081315855"><ele>922.0</ele><time>2026-04-19T08:20:29.002Z</time></trkpt><trkpt lat="37.82851878064387" lon="14.712159396776503"><ele>922.0</ele><time>2026-04-19T08:20:30.002Z</time></trkpt><trkpt lat="37.82846313932466" lon="14.712055640914194"><ele>922.0</ele><time>2026-04-19T08:20:31.002Z</time></trkpt><trkpt lat="37.828427305290525" lon="14.71193274565313"><ele>922.0</ele><time>2026-04-19T08:20:32.002Z</time></trkpt><trkpt lat="37.828396974809145" lon="14.711796942159754"><ele>922.25</ele><time>2026-04-19T08:20:33.002Z</time></trkpt><trkpt lat="37.82836702988" lon="14.711651560388331"><ele>922.5</ele><time>2026-04-19T08:20:34.002Z</time></trkpt><trkpt lat="37.828337069677346" lon="14.71149509222494"><ele>922.75</ele><time>2026-04-19T08:20:35.002Z</time></trkpt><trkpt lat="37.828311585182654" lon="14.711332836926625"><ele>923.0</ele><time>2026-04-19T08:20:36.002Z</time></trkpt><trkpt lat="37.82831726015404" lon="14.711180059793758"><ele>923.0</ele><time>2026-04-19T08:20:37.002Z</time></trkpt><trkpt lat="37.82833766434167" lon="14.711035904945778"><ele>923.0</ele><time>2026-04-19T08:20:38.002Z</time></trkpt><trkpt lat="37.828353254264016" lon="14.710899376771325"><ele>923.0</ele><time>2026-04-19T08:20:39.002Z</time></trkpt><trkpt lat="37.82835854114889" lon="14.71076517369539"><ele>923.0</ele><time>2026-04-19T08:20:40.002Z</time></trkpt><trkpt lat="37.828344963644405" lon="14.710633430993868"><ele>923.0</ele><time>2026-04-19T08:20:41.002Z</time></trkpt><trkpt lat="37.82830212641077" lon="14.71051882817676"><ele>923.0</ele><time>2026-04-19T08:20:42.002Z</time></trkpt><trkpt lat="37.828233366795985" lon="14.710414108259872"><ele>923.0</ele><time>2026-04-19T08:20:43.002Z</time></trkpt><trkpt lat="37.82813494596089" lon="14.71033098333344"><ele>923.0</ele><time>2026-04-19T08:20:44.002Z</time></trkpt><trkpt lat="37.82803364657271" lon="14.710256792771318"><ele>923.0</ele><time>2026-04-19T08:20:45.002Z</time></trkpt><trkpt lat="37.82793154640715" lon="14.710195573681409"><ele>922.4</ele><time>2026-04-19T08:20:46.002Z</time></trkpt><trkpt lat="37.827831808229135" lon="14.710138204147137"><ele>921.8</ele><time>2026-04-19T08:20:47.002Z</time></trkpt><trkpt lat="37.82773160448625" lon="14.710082648695883"><ele>921.2</ele><time>2026-04-19T08:20:48.002Z</time></trkpt><trkpt lat="37.82762693524559" lon="14.710053673302916"><ele>920.6</ele><time>2026-04-19T08:20:49.002Z</time></trkpt><trkpt lat="37.82752045257589" lon="14.710040459673174"><ele>920.0</ele><time>2026-04-19T08:20:50.002Z</time></trkpt><trkpt lat="37.82741844834906" lon="14.710020531700916"><ele>920.0</ele><time>2026-04-19T08:20:51.002Z</time></trkpt><trkpt lat="37.8273132564421" lon="14.710002776469596"><ele>920.0</ele><time>2026-04-19T08:20:52.002Z</time></trkpt><trkpt lat="37.827193561580025" lon="14.710024773600843"><ele>920.0</ele><time>2026-04-19T08:20:53.002Z</time></trkpt><trkpt lat="37.82706894508512" lon="14.710089212218593"><ele>920.0</ele><time>2026-04-19T08:20:54.002Z</time></trkpt><trkpt lat="37.82694016478379" lon="14.71018633177159"><ele>915.75</ele><time>2026-04-19T08:20:55.002Z</time></trkpt><trkpt lat="37.82681313058995" lon="14.71029651429998"><ele>911.5</ele><time>2026-04-19T08:20:56.003Z</time></trkpt><trkpt lat="37.8266827580488" lon="14.710379000916307"><ele>907.25</ele><time>2026-04-19T08:20:57.003Z</time></trkpt><trkpt lat="37.8265551756683" lon="14.710444511714364"><ele>903.0</ele><time>2026-04-19T08:20:58.003Z</time></trkpt><trkpt lat="37.8264250943138" lon="14.710505480544192"><ele>902.0</ele><time>2026-04-19T08:20:59.003Z</time></trkpt><trkpt lat="37.82629279779433" lon="14.71056846373214"><ele>901.0</ele><time>2026-04-19T08:21:00.003Z</time></trkpt><trkpt lat="37.826180401886404" lon="14.710619371777415"><ele>900.0</ele><time>2026-04-19T08:21:01.003Z</time></trkpt><trkpt lat="37.82608105367496" lon="14.710649816008052"><ele>899.0</ele><time>2026-04-19T08:21:02.003Z</time></trkpt><trkpt lat="37.82598628857115" lon="14.710639133176738"><ele>898.0</ele><time>2026-04-19T08:21:03.003Z</time></trkpt><trkpt lat="37.82590180390174" lon="14.710572803710088"><ele>897.0000000000001</ele><time>2026-04-19T08:21:04.003Z</time></trkpt><trkpt lat="37.82583490200862" lon="14.710481741182917"><ele>896.0000000000001</ele><time>2026-04-19T08:21:05.003Z</time></trkpt><trkpt lat="37.82578395659686" lon="14.710381345822363"><ele>895.0</ele><time>2026-04-19T08:21:06.003Z</time></trkpt><trkpt lat="37.825739861580395" lon="14.71027504674131"><ele>894.0</ele><time>2026-04-19T08:21:07Z</time></trkpt><trkpt lat="37.82568553315722" lon="14.710162147517373"><ele>896.5</ele><time>2026-04-19T08:21:08Z</time></trkpt><trkpt lat="37.82561761845051" lon="14.71003594736195"><ele>899.0</ele><time>2026-04-19T08:21:09Z</time></trkpt><trkpt lat="37.82554990603226" lon="14.70990118115311"><ele>901.5</ele><time>2026-04-19T08:21:10Z</time></trkpt><trkpt lat="37.82547728030369" lon="14.709759071457588"><ele>904.0</ele><time>2026-04-19T08:21:11Z</time></trkpt><trkpt lat="37.82540645775075" lon="14.709607680192686"><ele>904.0</ele><time>2026-04-19T08:21:12Z</time></trkpt><trkpt lat="37.82532843924484" lon="14.709475983322298"><ele>904.0</ele><time>2026-04-19T08:21:13Z</time></trkpt><trkpt lat="37.82523169232961" lon="14.709355466658888"><ele>904.0</ele><time>2026-04-19T08:21:14Z</time></trkpt><trkpt lat="37.82512641616692" lon="14.709254302837124"><ele>904.0</ele><time>2026-04-19T08:21:15Z</time></trkpt><trkpt lat="37.82502591762641" lon="14.7091599852738"><ele>901.5</ele><time>2026-04-19T08:21:16Z</time></trkpt><trkpt lat="37.82491465817095" lon="14.70907642913828"><ele>899.0</ele><time>2026-04-19T08:21:17Z</time></trkpt><trkpt lat="37.82480053324591" lon="14.708989283569952"><ele>896.5</ele><time>2026-04-19T08:21:18Z</time></trkpt><trkpt lat="37.82468550065369" lon="14.708903696059629"><ele>894.0</ele><time>2026-04-19T08:21:19Z</time></trkpt><trkpt lat="37.82457080314168" lon="14.708815162809032"><ele>894.0</ele><time>2026-04-19T08:21:20Z</time></trkpt><trkpt lat="37.82446755690875" lon="14.708707854749195"><ele>894.0</ele><time>2026-04-19T08:21:21Z</time></trkpt><trkpt lat="37.824381310267746" lon="14.708580462695165"><ele>894.0</ele><time>2026-04-19T08:21:22Z</time></trkpt><trkpt lat="37.82431345433521" lon="14.70842572291515"><ele>894.0</ele><time>2026-04-19T08:21:23Z</time></trkpt><trkpt lat="37.82425577605023" lon="14.708250568425335"><ele>892.5</ele><time>2026-04-19T08:21:24Z</time></trkpt><trkpt lat="37.82420293572738" lon="14.708081594231446"><ele>891.0</ele><time>2026-04-19T08:21:25Z</time></trkpt><trkpt lat="37.824148084108906" lon="14.707918464676876"><ele>889.5</ele><time>2026-04-19T08:21:26Z</time></trkpt><trkpt lat="37.82409596708294" lon="14.707757507537506"><ele>888.0</ele><time>2026-04-19T08:21:27Z</time></trkpt><trkpt lat="37.824047745976685" lon="14.707602641202048"><ele>888.0</ele><time>2026-04-19T08:21:28Z</time></trkpt><trkpt lat="37.82400243699515" lon="14.707447079663075"><ele>888.0</ele><time>2026-04-19T08:21:29Z</time></trkpt><trkpt lat="37.82397405436544" lon="14.707289084645685"><ele>888.0</ele><time>2026-04-19T08:21:30Z</time></trkpt><trkpt lat="37.8239790864577" lon="14.70712753650919"><ele>888.0</ele><time>2026-04-19T08:21:31Z</time></trkpt><trkpt lat="37.824008018708305" lon="14.706963838515005"><ele>887.3333333333333</ele><time>2026-04-19T08:21:32Z</time></trkpt><trkpt lat="37.82403000719013" lon="14.706785232902476"><ele>886.6666666666666</ele><time>2026-04-19T08:21:33Z</time></trkpt><trkpt lat="37.82402797563889" lon="14.70659436318662"><ele>886.0</ele><time>2026-04-19T08:21:34Z</time></trkpt><trkpt lat="37.82401351067906" lon="14.706397441853333"><ele>886.0</ele><time>2026-04-19T08:21:35Z</time></trkpt><trkpt lat="37.823996105981884" lon="14.706213209125597"><ele>886.0</ele><time>2026-04-19T08:21:36Z</time></trkpt><trkpt lat="37.82398128804812" lon="14.70603187132536"><ele>886.0</ele><time>2026-04-19T08:21:37.001Z</time></trkpt><trkpt lat="37.82396999985292" lon="14.705851159476703"><ele>886.0</ele><time>2026-04-19T08:21:38.001Z</time></trkpt><trkpt lat="37.82395893263539" lon="14.705674945317801"><ele>884.5</ele><time>2026-04-19T08:21:39.001Z</time></trkpt><trkpt lat="37.82394822851994" lon="14.705501518982224"><ele>883.0</ele><time>2026-04-19T08:21:40.001Z</time></trkpt><trkpt lat="37.823936916812784" lon="14.705332007301845"><ele>881.5</ele><time>2026-04-19T08:21:41.001Z</time></trkpt><trkpt lat="37.8239253653541" lon="14.705166415913553"><ele>880.0</ele><time>2026-04-19T08:21:42.001Z</time></trkpt><trkpt lat="37.82393021026265" lon="14.705004636882895"><ele>879.0</ele><time>2026-04-19T08:21:43.001Z</time></trkpt><trkpt lat="37.82396152797814" lon="14.704847758248183"><ele>878.0</ele><time>2026-04-19T08:21:44.001Z</time></trkpt><trkpt lat="37.82401124618268" lon="14.704700437743142"><ele>877.0</ele><time>2026-04-19T08:21:45.001Z</time></trkpt><trkpt lat="37.82407169167383" lon="14.70454949624646"><ele>876.0</ele><time>2026-04-19T08:21:46.001Z</time></trkpt><trkpt lat="37.82412850017136" lon="14.704401071691441"><ele>876.75</ele><time>2026-04-19T08:21:47.001Z</time></trkpt><trkpt lat="37.82418375087066" lon="14.704256419427574"><ele>877.5</ele><time>2026-04-19T08:21:48.001Z</time></trkpt><trkpt lat="37.824238424243205" lon="14.704114967033892"><ele>878.25</ele><time>2026-04-19T08:21:49.001Z</time></trkpt><trkpt lat="37.82429207399941" lon="14.703976219220372"><ele>879.0</ele><time>2026-04-19T08:21:50.001Z</time></trkpt><trkpt lat="37.82435142642485" lon="14.70384546859678"><ele>879.0</ele><time>2026-04-19T08:21:51.001Z</time></trkpt><trkpt lat="37.82443674611482" lon="14.703746627131382"><ele>879.0</ele><time>2026-04-19T08:21:52.001Z</time></trkpt><trkpt lat="37.82453835094733" lon="14.703681840877149"><ele>879.0</ele><time>2026-04-19T08:21:53.001Z</time></trkpt><trkpt lat="37.82464493778991" lon="14.703642133433371"><ele>879.0</ele><time>2026-04-19T08:21:54.001Z</time></trkpt><trkpt lat="37.82474981564813" lon="14.703594118867441"><ele>876.75</ele><time>2026-04-19T08:21:55.001Z</time></trkpt><trkpt lat="37.82483328464345" lon="14.703509705052273"><ele>874.5</ele><time>2026-04-19T08:21:56.001Z</time></trkpt><trkpt lat="37.82488922444892" lon="14.703376279880484"><ele>872.25</ele><time>2026-04-19T08:21:57.001Z</time></trkpt><trkpt lat="37.82491976638522" lon="14.703216525558792"><ele>870.0</ele><time>2026-04-19T08:21:58.001Z</time></trkpt><trkpt lat="37.824947946315596" lon="14.703049959347105"><ele>870.0</ele><time>2026-04-19T08:21:59.001Z</time></trkpt><trkpt lat="37.82498476968528" lon="14.702886454800266"><ele>870.0</ele><time>2026-04-19T08:22:00.001Z</time></trkpt><trkpt lat="37.825021414633426" lon="14.702732934052099"><ele>870.0</ele><time>2026-04-19T08:22:01.001Z</time></trkpt><trkpt lat="37.82505351708462" lon="14.70258789099463"><ele>870.0</ele><time>2026-04-19T08:22:02.001Z</time></trkpt><trkpt lat="37.825090164641246" lon="14.702457776302223"><ele>869.2</ele><time>2026-04-19T08:22:03.001Z</time></trkpt><trkpt lat="37.82515473354905" lon="14.702349269692618"><ele>868.4</ele><time>2026-04-19T08:22:04.001Z</time></trkpt><trkpt lat="37.8252451996557" lon="14.702278052711376"><ele>867.5999999999999</ele><time>2026-04-19T08:22:05.001Z</time></trkpt><trkpt lat="37.825355094077395" lon="14.702248135212969"><ele>866.8</ele><time>2026-04-19T08:22:06.001Z</time></trkpt><trkpt lat="37.825463454764375" lon="14.70223187251625"><ele>866.0</ele><time>2026-04-19T08:22:07.001Z</time></trkpt><trkpt lat="37.82557970929329" lon="14.702202336316896"><ele>866.0</ele><time>2026-04-19T08:22:08.002Z</time></trkpt><trkpt lat="37.825696602203955" lon="14.70213382378424"><ele>866.0</ele><time>2026-04-19T08:22:09.002Z</time></trkpt><trkpt lat="37.82580747808116" lon="14.702022053440704"><ele>866.0</ele><time>2026-04-19T08:22:10.002Z</time></trkpt><trkpt lat="37.825905539352874" lon="14.701881680649628"><ele>866.0</ele><time>2026-04-19T08:22:11.002Z</time></trkpt><trkpt lat="37.82599155434261" lon="14.701735399744956"><ele>864.0</ele><time>2026-04-19T08:22:12.002Z</time></trkpt><trkpt lat="37.8260704139394" lon="14.701588754743456"><ele>862.0</ele><time>2026-04-19T08:22:13.002Z</time></trkpt><trkpt lat="37.82614304773546" lon="14.70145460196111"><ele>860.0</ele><time>2026-04-19T08:22:14.002Z</time></trkpt><trkpt lat="37.8262081256575" lon="14.701310982577676"><ele>858.0</ele><time>2026-04-19T08:22:15.002Z</time></trkpt><trkpt lat="37.8263613692876" lon="14.701250435589987"><ele>858.0</ele><time>2026-04-19T08:22:16.002Z</time></trkpt><trkpt lat="37.82643949363359" lon="14.701126860663976"><ele>858.0</ele><time>2026-04-19T08:22:17.002Z</time></trkpt><trkpt lat="37.82652148008683" lon="14.701034733524377"><ele>858.0</ele><time>2026-04-19T08:22:18.002Z</time></trkpt><trkpt lat="37.82661543963264" lon="14.70097289658126"><ele>858.0</ele><time>2026-04-19T08:22:19.002Z</time></trkpt><trkpt lat="37.82671601294351" lon="14.700926875718064"><ele>858.0</ele><time>2026-04-19T08:22:20.002Z</time></trkpt><trkpt lat="37.826826565531526" lon="14.70089301987594"><ele>853.25</ele><time>2026-04-19T08:22:21.002Z</time></trkpt><trkpt lat="37.82694020903262" lon="14.700867037510044"><ele>848.5</ele><time>2026-04-19T08:22:22.002Z</time></trkpt><trkpt lat="37.82705405869862" lon="14.700851172353035"><ele>843.75</ele><time>2026-04-19T08:22:23.002Z</time></trkpt><trkpt lat="37.827170387323875" lon="14.700816568695839"><ele>839.0</ele><time>2026-04-19T08:22:24.002Z</time></trkpt><trkpt lat="37.82728331920947" lon="14.700739095882634"><ele>839.0</ele><time>2026-04-19T08:22:25.002Z</time></trkpt><trkpt lat="37.82737862690299" lon="14.700630803308382"><ele>839.0</ele><time>2026-04-19T08:22:26.002Z</time></trkpt><trkpt lat="37.827458499764255" lon="14.700505511418077"><ele>839.0</ele><time>2026-04-19T08:22:27.002Z</time></trkpt><trkpt lat="37.827523023339836" lon="14.700379673777073"><ele>839.0</ele><time>2026-04-19T08:22:28.002Z</time></trkpt><trkpt lat="37.82759050599151" lon="14.700270949859801"><ele>840.0</ele><time>2026-04-19T08:22:29.002Z</time></trkpt><trkpt lat="37.82764576003381" lon="14.700156679514478"><ele>841.0</ele><time>2026-04-19T08:22:30.002Z</time></trkpt><trkpt lat="37.82764704680379" lon="14.700028157914486"><ele>842.0</ele><time>2026-04-19T08:22:31.002Z</time></trkpt><trkpt lat="37.82758765190113" lon="14.699901901565362"><ele>843.0</ele><time>2026-04-19T08:22:32.002Z</time></trkpt><trkpt lat="37.82750792703505" lon="14.699796335685718"><ele>844.0</ele><time>2026-04-19T08:22:33.002Z</time></trkpt><trkpt lat="37.827438938158586" lon="14.699689004658078"><ele>844.0</ele><time>2026-04-19T08:22:34.002Z</time></trkpt><trkpt lat="37.827373843303484" lon="14.699578274329335"><ele>844.0</ele><time>2026-04-19T08:22:35.002Z</time></trkpt><trkpt lat="37.827315013886384" lon="14.699451575834098"><ele>844.0</ele><time>2026-04-19T08:22:36.002Z</time></trkpt><trkpt lat="37.827267181600405" lon="14.699317650201364"><ele>844.0</ele><time>2026-04-19T08:22:37.002Z</time></trkpt><trkpt lat="37.82725973751052" lon="14.699159480817936"><ele>846.75</ele><time>2026-04-19T08:22:38.002Z</time></trkpt><trkpt lat="37.827241637219664" lon="14.698995434899897"><ele>849.5</ele><time>2026-04-19T08:22:39.002Z</time></trkpt><trkpt lat="37.82722989085251" lon="14.69884126397038"><ele>852.25</ele><time>2026-04-19T08:22:40.002Z</time></trkpt><trkpt lat="37.82721369872234" lon="14.698687730958738"><ele>855.0</ele><time>2026-04-19T08:22:41.002Z</time></trkpt><trkpt lat="37.82719060537234" lon="14.698528535858264"><ele>855.75</ele><time>2026-04-19T08:22:42.003Z</time></trkpt><trkpt lat="37.82717680147723" lon="14.698365761133147"><ele>856.5</ele><time>2026-04-19T08:22:43.003Z</time></trkpt><trkpt lat="37.827162964261596" lon="14.698192124734662"><ele>857.25</ele><time>2026-04-19T08:22:44.003Z</time></trkpt><trkpt lat="37.82716321830951" lon="14.698022899031821"><ele>858.0</ele><time>2026-04-19T08:22:45.003Z</time></trkpt><trkpt lat="37.82720316524811" lon="14.697864491998589"><ele>858.25</ele><time>2026-04-19T08:22:46.003Z</time></trkpt><trkpt lat="37.82726092692894" lon="14.697708931795034"><ele>858.5</ele><time>2026-04-19T08:22:47.003Z</time></trkpt><trkpt lat="37.8273030042329" lon="14.697549907901257"><ele>858.75</ele><time>2026-04-19T08:22:48.003Z</time></trkpt><trkpt lat="37.827302733361876" lon="14.697372331181004"><ele>859.0</ele><time>2026-04-19T08:22:49.003Z</time></trkpt><trkpt lat="37.82728622864547" lon="14.69718214980828"><ele>859.0</ele><time>2026-04-19T08:22:50.003Z</time></trkpt><trkpt lat="37.827259492966654" lon="14.696991084363383"><ele>859.0</ele><time>2026-04-19T08:22:51.003Z</time></trkpt><trkpt lat="37.827230725605745" lon="14.69680047748946"><ele>859.0</ele><time>2026-04-19T08:22:52.003Z</time></trkpt><trkpt lat="37.82720115790215" lon="14.696618647441014"><ele>859.0</ele><time>2026-04-19T08:22:53.003Z</time></trkpt><trkpt lat="37.827172708980186" lon="14.696440602887284"><ele>859.0</ele><time>2026-04-19T08:22:54.003Z</time></trkpt><trkpt lat="37.82713698412046" lon="14.696265050633142"><ele>859.0</ele><time>2026-04-19T08:22:55.003Z</time></trkpt><trkpt lat="37.827077784015415" lon="14.696095710348011"><ele>859.0</ele><time>2026-04-19T08:22:56.003Z</time></trkpt><trkpt lat="37.826994663350014" lon="14.695932837638106"><ele>858.0</ele><time>2026-04-19T08:22:57.003Z</time></trkpt><trkpt lat="37.82689520505133" lon="14.695784499366475"><ele>857.0</ele><time>2026-04-19T08:22:58.003Z</time></trkpt><trkpt lat="37.8267797780457" lon="14.695650323442191"><ele>856.0</ele><time>2026-04-19T08:22:59.003Z</time></trkpt><trkpt lat="37.826649538024014" lon="14.695527666129859"><ele>855.5</ele><time>2026-04-19T08:23:00.003Z</time></trkpt><trkpt lat="37.826516200566" lon="14.695413356550628"><ele>855.0</ele><time>2026-04-19T08:23:01.003Z</time></trkpt><trkpt lat="37.82639262983573" lon="14.695312208655178"><ele>854.5</ele><time>2026-04-19T08:23:02.003Z</time></trkpt><trkpt lat="37.82627009453117" lon="14.695229903255244"><ele>854.0</ele><time>2026-04-19T08:23:03.003Z</time></trkpt><trkpt lat="37.82613616555527" lon="14.69519364686669"><ele>854.0</ele><time>2026-04-19T08:23:04.003Z</time></trkpt><trkpt lat="37.82599300040987" lon="14.695193137511055"><ele>854.0</ele><time>2026-04-19T08:23:05.003Z</time></trkpt><trkpt lat="37.82584631487517" lon="14.695222810013624"><ele>854.0</ele><time>2026-04-19T08:23:06.003Z</time></trkpt><trkpt lat="37.825703343464745" lon="14.69527833260047"><ele>854.0</ele><time>2026-04-19T08:23:07.003Z</time></trkpt><trkpt lat="37.82556594216877" lon="14.695355448811538"><ele>849.75</ele><time>2026-04-19T08:23:08.003Z</time></trkpt><trkpt lat="37.825437793455535" lon="14.695446704820815"><ele>845.5</ele><time>2026-04-19T08:23:09.003Z</time></trkpt><trkpt lat="37.825328845651434" lon="14.695542615852933"><ele>841.25</ele><time>2026-04-19T08:23:10.003Z</time></trkpt><trkpt lat="37.82521359629842" lon="14.695626361816318"><ele>837.0</ele><time>2026-04-19T08:23:11.003Z</time></trkpt><trkpt lat="37.8250908487082" lon="14.695687728620173"><ele>836.75</ele><time>2026-04-19T08:23:12.003Z</time></trkpt><trkpt lat="37.82496537714214" lon="14.695718833284902"><ele>836.5</ele><time>2026-04-19T08:23:13.001Z</time></trkpt><trkpt lat="37.824841964029666" lon="14.69573456096719"><ele>836.25</ele><time>2026-04-19T08:23:14.001Z</time></trkpt><trkpt lat="37.82472255017074" lon="14.695729807661204"><ele>836.0</ele><time>2026-04-19T08:23:15.001Z</time></trkpt><trkpt lat="37.82461728308644" lon="14.695678496652995"><ele>836.0</ele><time>2026-04-19T08:23:16.001Z</time></trkpt><trkpt lat="37.82453924144855" lon="14.695583477443478"><ele>836.0</ele><time>2026-04-19T08:23:17.001Z</time></trkpt><trkpt lat="37.82450825984384" lon="14.695451365177604"><ele>836.0</ele><time>2026-04-19T08:23:18.001Z</time></trkpt><trkpt lat="37.82451555875583" lon="14.695307243081736"><ele>836.0</ele><time>2026-04-19T08:23:19.001Z</time></trkpt><trkpt lat="37.8245362087563" lon="14.695146835259342"><ele>839.0</ele><time>2026-04-19T08:23:20.001Z</time></trkpt><trkpt lat="37.82454898223482" lon="14.694974242218485"><ele>842.0</ele><time>2026-04-19T08:23:21.001Z</time></trkpt><trkpt lat="37.82455167604826" lon="14.69480462176658"><ele>845.0</ele><time>2026-04-19T08:23:22.001Z</time></trkpt><trkpt lat="37.82455537031131" lon="14.694644347682772"><ele>848.0</ele><time>2026-04-19T08:23:23.001Z</time></trkpt><trkpt lat="37.824565937397985" lon="14.6944873087689"><ele>848.75</ele><time>2026-04-19T08:23:24.001Z</time></trkpt><trkpt lat="37.82456974111358" lon="14.694330603182054"><ele>849.5</ele><time>2026-04-19T08:23:25.001Z</time></trkpt><trkpt lat="37.82457404925065" lon="14.69417822539996"><ele>850.25</ele><time>2026-04-19T08:23:26.001Z</time></trkpt><trkpt lat="37.82458470512192" lon="14.694027915287311"><ele>851.0</ele><time>2026-04-19T08:23:27.001Z</time></trkpt><trkpt lat="37.82460321242162" lon="14.69388132278826"><ele>851.0</ele><time>2026-04-19T08:23:28.001Z</time></trkpt><trkpt lat="37.824633866045" lon="14.693732434308613"><ele>851.0</ele><time>2026-04-19T08:23:29.001Z</time></trkpt><trkpt lat="37.82467066101318" lon="14.693583251655145"><ele>851.0</ele><time>2026-04-19T08:23:30.001Z</time></trkpt><trkpt lat="37.82470919076939" lon="14.69343489110061"><ele>851.0</ele><time>2026-04-19T08:23:31.001Z</time></trkpt><trkpt lat="37.824746309989685" lon="14.693290068919525"><ele>849.0</ele><time>2026-04-19T08:23:32.001Z</time></trkpt><trkpt lat="37.82477917870372" lon="14.693148924821475"><ele>847.0</ele><time>2026-04-19T08:23:33.001Z</time></trkpt><trkpt lat="37.824808656377904" lon="14.693007612568966"><ele>845.0</ele><time>2026-04-19T08:23:34.001Z</time></trkpt><trkpt lat="37.82484032164222" lon="14.692867785132886"><ele>843.0</ele><time>2026-04-19T08:23:35.001Z</time></trkpt><trkpt lat="37.824872236672334" lon="14.69273276933171"><ele>841.75</ele><time>2026-04-19T08:23:36.001Z</time></trkpt><trkpt lat="37.82490080156091" lon="14.692591861414375"><ele>840.5</ele><time>2026-04-19T08:23:37.001Z</time></trkpt><trkpt lat="37.82491852416003" lon="14.69245120204236"><ele>839.25</ele><time>2026-04-19T08:23:38.001Z</time></trkpt><trkpt lat="37.82490968150118" lon="14.692315536667595"><ele>838.0</ele><time>2026-04-19T08:23:39.001Z</time></trkpt><trkpt lat="37.82485267299494" lon="14.69218016843296"><ele>838.0</ele><time>2026-04-19T08:23:40.001Z</time></trkpt><trkpt lat="37.82478322825456" lon="14.692058178948843"><ele>838.0</ele><time>2026-04-19T08:23:41.001Z</time></trkpt><trkpt lat="37.82469664736783" lon="14.691953717803663"><ele>838.0</ele><time>2026-04-19T08:23:42.001Z</time></trkpt><trkpt lat="37.82460060344407" lon="14.691868865622485"><ele>838.0</ele><time>2026-04-19T08:23:43.001Z</time></trkpt><trkpt lat="37.82449143790911" lon="14.691813085525492"><ele>839.25</ele><time>2026-04-19T08:23:44.001Z</time></trkpt><trkpt lat="37.82437620665964" lon="14.691772315254877"><ele>840.5</ele><time>2026-04-19T08:23:45.001Z</time></trkpt><trkpt lat="37.82425894288412" lon="14.691752557562493"><ele>841.75</ele><time>2026-04-19T08:23:46.001Z</time></trkpt><trkpt lat="37.82413955425093" lon="14.691748560526376"><ele>843.0</ele><time>2026-04-19T08:23:47.001Z</time></trkpt><trkpt lat="37.8240184342373" lon="14.691748581295762"><ele>843.0</ele><time>2026-04-19T08:23:48.001Z</time></trkpt><trkpt lat="37.82390018725141" lon="14.691745680367553"><ele>843.0</ele><time>2026-04-19T08:23:49.001Z</time></trkpt><trkpt lat="37.8237783185854" lon="14.691733655259767"><ele>843.0</ele><time>2026-04-19T08:23:50.001Z</time></trkpt><trkpt lat="37.82365833280868" lon="14.69169092905032"><ele>843.0</ele><time>2026-04-19T08:23:51.001Z</time></trkpt><trkpt lat="37.823537958077274" lon="14.69163720678609"><ele>842.0</ele><time>2026-04-19T08:23:52.001Z</time></trkpt><trkpt lat="37.82341306702295" lon="14.691577264795994"><ele>841.0</ele><time>2026-04-19T08:23:53.001Z</time></trkpt><trkpt lat="37.8232874109298" lon="14.691517093640908"><ele>840.0</ele><time>2026-04-19T08:23:54.001Z</time></trkpt><trkpt lat="37.82316546701913" lon="14.691458466769431"><ele>839.0</ele><time>2026-04-19T08:23:55.001Z</time></trkpt><trkpt lat="37.82304883235284" lon="14.691401247293344"><ele>839.0</ele><time>2026-04-19T08:23:56.001Z</time></trkpt><trkpt lat="37.82291990367842" lon="14.691340641676359"><ele>839.0</ele><time>2026-04-19T08:23:57.002Z</time></trkpt><trkpt lat="37.82280528340176" lon="14.69127146237717"><ele>839.0</ele><time>2026-04-19T08:23:58.001Z</time></trkpt><trkpt lat="37.82269310782076" lon="14.691186926801237"><ele>839.0</ele><time>2026-04-19T08:23:59.001Z</time></trkpt><trkpt lat="37.82258491036259" lon="14.69110271696018"><ele>840.0</ele><time>2026-04-19T08:24:00.001Z</time></trkpt><trkpt lat="37.8224806580644" lon="14.691014154689539"><ele>841.0</ele><time>2026-04-19T08:24:01.001Z</time></trkpt><trkpt lat="37.822384166907916" lon="14.690920195162784"><ele>842.0</ele><time>2026-04-19T08:24:02.001Z</time></trkpt><trkpt lat="37.82228367385842" lon="14.690825006528392"><ele>843.0</ele><time>2026-04-19T08:24:03.001Z</time></trkpt><trkpt lat="37.82218596084026" lon="14.690736471522266"><ele>843.0</ele><time>2026-04-19T08:24:04.001Z</time></trkpt><trkpt lat="37.82208481026381" lon="14.690649471874668"><ele>843.0</ele><time>2026-04-19T08:24:05.001Z</time></trkpt><trkpt lat="37.821990377235615" lon="14.690559737828949"><ele>843.0</ele><time>2026-04-19T08:24:06.001Z</time></trkpt><trkpt lat="37.8219021068387" lon="14.690457967410834"><ele>843.0</ele><time>2026-04-19T08:24:07.001Z</time></trkpt><trkpt lat="37.82181885363718" lon="14.690343690694531"><ele>842.25</ele><time>2026-04-19T08:24:08.001Z</time></trkpt><trkpt lat="37.821741616689934" lon="14.690219522565165"><ele>841.5</ele><time>2026-04-19T08:24:09.001Z</time></trkpt><trkpt lat="37.82167066781099" lon="14.690087767782824"><ele>840.75</ele><time>2026-04-19T08:24:10.001Z</time></trkpt><trkpt lat="37.82159358983706" lon="14.689949256596327"><ele>840.0</ele><time>2026-04-19T08:24:11.001Z</time></trkpt><trkpt lat="37.8215103217853" lon="14.68981792085955"><ele>840.0</ele><time>2026-04-19T08:24:12.001Z</time></trkpt><trkpt lat="37.82142454736011" lon="14.689686222754903"><ele>840.0</ele><time>2026-04-19T08:24:13.001Z</time></trkpt><trkpt lat="37.82134288085361" lon="14.689548189166784"><ele>840.0</ele><time>2026-04-19T08:24:14.001Z</time></trkpt><trkpt lat="37.82126495089213" lon="14.689413773769411"><ele>840.0</ele><time>2026-04-19T08:24:15.001Z</time></trkpt><trkpt lat="37.821196265663175" lon="14.689274197624977"><ele>842.5</ele><time>2026-04-19T08:24:16.001Z</time></trkpt><trkpt lat="37.821159189049396" lon="14.689113053890546"><ele>845.0</ele><time>2026-04-19T08:24:17.001Z</time></trkpt><trkpt lat="37.82116605977675" lon="14.688941027232895"><ele>847.5</ele><time>2026-04-19T08:24:18.001Z</time></trkpt><trkpt lat="37.82119854568905" lon="14.688772501600177"><ele>850.0</ele><time>2026-04-19T08:24:19.001Z</time></trkpt><trkpt lat="37.82125945771543" lon="14.688616693347626"><ele>849.25</ele><time>2026-04-19T08:24:20.001Z</time></trkpt><trkpt lat="37.82132590585946" lon="14.688462423785298"><ele>848.5</ele><time>2026-04-19T08:24:21.001Z</time></trkpt><trkpt lat="37.82138392758743" lon="14.688304831220652"><ele>847.75</ele><time>2026-04-19T08:24:22.001Z</time></trkpt><trkpt lat="37.821437587280414" lon="14.688151466719798"><ele>847.0</ele><time>2026-04-19T08:24:23.001Z</time></trkpt><trkpt lat="37.821481849125895" lon="14.688009593795888"><ele>847.0</ele><time>2026-04-19T08:24:24.001Z</time></trkpt><trkpt lat="37.82151457966117" lon="14.687867983912396"><ele>847.0</ele><time>2026-04-19T08:24:25.001Z</time></trkpt><trkpt lat="37.82151474519089" lon="14.687719763772005"><ele>847.0</ele><time>2026-04-19T08:24:26.001Z</time></trkpt><trkpt lat="37.82147684496124" lon="14.687573854031644"><ele>847.0</ele><time>2026-04-19T08:24:27.001Z</time></trkpt><trkpt lat="37.82142068383133" lon="14.68743394625802"><ele>846.75</ele><time>2026-04-19T08:24:28.001Z</time></trkpt><trkpt lat="37.82133322284608" lon="14.687306652521547"><ele>846.5</ele><time>2026-04-19T08:24:29.001Z</time></trkpt><trkpt lat="37.821236063449206" lon="14.687191223610593"><ele>846.25</ele><time>2026-04-19T08:24:30.001Z</time></trkpt><trkpt lat="37.82112165806483" lon="14.687097317113937"><ele>846.0</ele><time>2026-04-19T08:24:31.002Z</time></trkpt><trkpt lat="37.820998802087324" lon="14.687007370355571"><ele>845.0</ele><time>2026-04-19T08:24:32.002Z</time></trkpt><trkpt lat="37.82085532055287" lon="14.686931629027582"><ele>844.0</ele><time>2026-04-19T08:24:33.002Z</time></trkpt><trkpt lat="37.820706797595165" lon="14.686874830849721"><ele>843.0</ele><time>2026-04-19T08:24:34.002Z</time></trkpt><trkpt lat="37.820569236758566" lon="14.686813120820648"><ele>843.0</ele><time>2026-04-19T08:24:35.002Z</time></trkpt><trkpt lat="37.820438375742576" lon="14.686744840407146"><ele>843.0</ele><time>2026-04-19T08:24:36.002Z</time></trkpt><trkpt lat="37.820311796276" lon="14.686681688550522"><ele>843.0</ele><time>2026-04-19T08:24:37.002Z</time></trkpt><trkpt lat="37.820199055062744" lon="14.686629169722833"><ele>843.0</ele><time>2026-04-19T08:24:38.002Z</time></trkpt><trkpt lat="37.82009298239237" lon="14.68658112061524"><ele>840.5999999999999</ele><time>2026-04-19T08:24:39.002Z</time></trkpt><trkpt lat="37.81999650097768" lon="14.68653312420064"><ele>838.1999999999999</ele><time>2026-04-19T08:24:40.002Z</time></trkpt><trkpt lat="37.81991020260103" lon="14.6864694666209"><ele>835.8</ele><time>2026-04-19T08:24:41.002Z</time></trkpt><trkpt lat="37.81984531291195" lon="14.686367566850155"><ele>833.4</ele><time>2026-04-19T08:24:42.002Z</time></trkpt><trkpt lat="37.81980613302411" lon="14.686238971766684"><ele>831.0</ele><time>2026-04-19T08:24:43.002Z</time></trkpt><trkpt lat="37.81978247196533" lon="14.686090774464896"><ele>831.0</ele><time>2026-04-19T08:24:44.002Z</time></trkpt><trkpt lat="37.81978057394579" lon="14.68593710215362"><ele>831.0</ele><time>2026-04-19T08:24:45.002Z</time></trkpt><trkpt lat="37.819785336398475" lon="14.685788381089782"><ele>831.0</ele><time>2026-04-19T08:24:46.002Z</time></trkpt><trkpt lat="37.81980923335879" lon="14.68564984281339"><ele>831.0</ele><time>2026-04-19T08:24:47.002Z</time></trkpt><trkpt lat="37.81986712256784" lon="14.685531403485813"><ele>831.0</ele><time>2026-04-19T08:24:48.002Z</time></trkpt><trkpt lat="37.81994245901016" lon="14.685424275411398"><ele>831.0</ele><time>2026-04-19T08:24:49.002Z</time></trkpt><trkpt lat="37.82002736086916" lon="14.68533894975928"><ele>831.0</ele><time>2026-04-19T08:24:50.002Z</time></trkpt><trkpt lat="37.82011704726209" lon="14.685264025717848"><ele>831.0</ele><time>2026-04-19T08:24:51.002Z</time></trkpt><trkpt lat="37.82020639615022" lon="14.685186733007393"><ele>831.0</ele><time>2026-04-19T08:24:52.002Z</time></trkpt><trkpt lat="37.82029255092044" lon="14.685110132334954"><ele>830.4</ele><time>2026-04-19T08:24:53.002Z</time></trkpt><trkpt lat="37.82037926647069" lon="14.685032853601298"><ele>829.8</ele><time>2026-04-19T08:24:54.002Z</time></trkpt><trkpt lat="37.820468606813655" lon="14.684955162271521"><ele>829.1999999999999</ele><time>2026-04-19T08:24:55.002Z</time></trkpt><trkpt lat="37.820558538633875" lon="14.684882358100248"><ele>828.5999999999999</ele><time>2026-04-19T08:24:56.002Z</time></trkpt><trkpt lat="37.820633335831275" lon="14.684831467381104"><ele>828.0</ele><time>2026-04-19T08:24:57.002Z</time></trkpt><trkpt lat="37.82071974728394" lon="14.684779073663927"><ele>828.0</ele><time>2026-04-19T08:24:59.002Z</time></trkpt><trkpt lat="37.82079287023394" lon="14.684753812893012"><ele>828.0</ele><time>2026-04-19T08:25:01.002Z</time></trkpt><trkpt lat="37.82088540021791" lon="14.684726264714806"><ele>828.0</ele><time>2026-04-19T08:25:03.002Z</time></trkpt><trkpt lat="37.820946959906706" lon="14.684701305900155"><ele>828.0</ele><time>2026-04-19T08:25:04.002Z</time></trkpt><trkpt lat="37.82101995237326" lon="14.684675240189039"><ele>828.0</ele><time>2026-04-19T08:25:05.003Z</time></trkpt><trkpt lat="37.82109903804622" lon="14.684653394743739"><ele>828.0</ele><time>2026-04-19T08:25:06.003Z</time></trkpt><trkpt lat="37.82118675587225" lon="14.68463141538359"><ele>827.8</ele><time>2026-04-19T08:25:07.003Z</time></trkpt><trkpt lat="37.82127934183315" lon="14.684608521607993"><ele>827.5999999999999</ele><time>2026-04-19T08:25:08.003Z</time></trkpt><trkpt lat="37.821376629912685" lon="14.6845916306063"><ele>827.4000000000001</ele><time>2026-04-19T08:25:09.003Z</time></trkpt><trkpt lat="37.8214712931437" lon="14.684576600860279"><ele>827.2</ele><time>2026-04-19T08:25:10.003Z</time></trkpt><trkpt lat="37.82156977851506" lon="14.68457554870642"><ele>827.0</ele><time>2026-04-19T08:25:11.003Z</time></trkpt><trkpt lat="37.82166835780188" lon="14.684592882781182"><ele>827.0</ele><time>2026-04-19T08:25:12.003Z</time></trkpt><trkpt lat="37.82176987663262" lon="14.684619898092402"><ele>827.0</ele><time>2026-04-19T08:25:13.003Z</time></trkpt><trkpt lat="37.82187274899526" lon="14.684643615772806"><ele>827.0</ele><time>2026-04-19T08:25:14.003Z</time></trkpt><trkpt lat="37.82198224517289" lon="14.68466255711402"><ele>827.0</ele><time>2026-04-19T08:25:15.003Z</time></trkpt><trkpt lat="37.822094043951246" lon="14.684683993868136"><ele>827.0</ele><time>2026-04-19T08:25:16.003Z</time></trkpt><trkpt lat="37.82220534384038" lon="14.684709044791326"><ele>826.0</ele><time>2026-04-19T08:25:17.003Z</time></trkpt><trkpt lat="37.822324263987625" lon="14.68472652398989"><ele>825.0</ele><time>2026-04-19T08:25:18.003Z</time></trkpt><trkpt lat="37.822455219566976" lon="14.684724068019806"><ele>824.0</ele><time>2026-04-19T08:25:19Z</time></trkpt><trkpt lat="37.822591546651374" lon="14.684692355237443"><ele>823.0</ele><time>2026-04-19T08:25:20Z</time></trkpt><trkpt lat="37.82272731706716" lon="14.68462743550953"><ele>822.0</ele><time>2026-04-19T08:25:21Z</time></trkpt><trkpt lat="37.8228711668213" lon="14.684556310595843"><ele>821.0</ele><time>2026-04-19T08:25:22Z</time></trkpt><trkpt lat="37.823019436096956" lon="14.684500160543672"><ele>820.0</ele><time>2026-04-19T08:25:23Z</time></trkpt><trkpt lat="37.82316647891424" lon="14.684465726802104"><ele>820.0</ele><time>2026-04-19T08:25:24Z</time></trkpt><trkpt lat="37.8233080243413" lon="14.684438155049062"><ele>820.0</ele><time>2026-04-19T08:25:25Z</time></trkpt><trkpt lat="37.823446545708876" lon="14.684410056405847"><ele>820.0</ele><time>2026-04-19T08:25:26Z</time></trkpt><trkpt lat="37.82357653385711" lon="14.684385756543463"><ele>820.0</ele><time>2026-04-19T08:25:27Z</time></trkpt><trkpt lat="37.82369560412902" lon="14.684356024919033"><ele>818.5</ele><time>2026-04-19T08:25:28Z</time></trkpt><trkpt lat="37.823792600707776" lon="14.684300932908739"><ele>817.0</ele><time>2026-04-19T08:25:29Z</time></trkpt><trkpt lat="37.82386230716621" lon="14.68419759942469"><ele>815.5</ele><time>2026-04-19T08:25:30Z</time></trkpt><trkpt lat="37.82388891563585" lon="14.6840565075081"><ele>814.0</ele><time>2026-04-19T08:25:31Z</time></trkpt><trkpt lat="37.82389786192879" lon="14.683894125131806"><ele>814.0</ele><time>2026-04-19T08:25:32Z</time></trkpt><trkpt lat="37.82390588565846" lon="14.68373196832387"><ele>814.0</ele><time>2026-04-19T08:25:33Z</time></trkpt><trkpt lat="37.82393375987931" lon="14.68359912634901"><ele>814.0</ele><time>2026-04-19T08:25:34Z</time></trkpt><trkpt lat="37.82394686876536" lon="14.683449556161946"><ele>814.0</ele><time>2026-04-19T08:25:35Z</time></trkpt><trkpt lat="37.8239472358722" lon="14.683291712653949"><ele>813.25</ele><time>2026-04-19T08:25:36Z</time></trkpt><trkpt lat="37.82393925091633" lon="14.683133915200095"><ele>812.5</ele><time>2026-04-19T08:25:37Z</time></trkpt><trkpt lat="37.823921267517" lon="14.68297566197141"><ele>811.75</ele><time>2026-04-19T08:25:38Z</time></trkpt><trkpt lat="37.823892939763965" lon="14.682818508816514"><ele>811.0</ele><time>2026-04-19T08:25:39Z</time></trkpt><trkpt lat="37.823861492496086" lon="14.682665359590619"><ele>810.5999999999999</ele><time>2026-04-19T08:25:40Z</time></trkpt><trkpt lat="37.82383146921575" lon="14.682520143974982"><ele>810.2</ele><time>2026-04-19T08:25:41Z</time></trkpt><trkpt lat="37.82380705359899" lon="14.68238691976342"><ele>809.8</ele><time>2026-04-19T08:25:42Z</time></trkpt><trkpt lat="37.823794313915606" lon="14.682254411058961"><ele>809.4000000000001</ele><time>2026-04-19T08:25:43Z</time></trkpt><trkpt lat="37.82380942064908" lon="14.68212914130733"><ele>809.0</ele><time>2026-04-19T08:25:44Z</time></trkpt><trkpt lat="37.823854936750465" lon="14.68201302693739"><ele>806.6</ele><time>2026-04-19T08:25:45Z</time></trkpt><trkpt lat="37.82391762653112" lon="14.681907988483589"><ele>804.2</ele><time>2026-04-19T08:25:46Z</time></trkpt><trkpt lat="37.82398744676234" lon="14.681803125703516"><ele>801.8000000000001</ele><time>2026-04-19T08:25:47Z</time></trkpt><trkpt lat="37.82406234963042" lon="14.681696620157176"><ele>799.4000000000001</ele><time>2026-04-19T08:25:48.001Z</time></trkpt><trkpt lat="37.824141960887964" lon="14.681589060582104"><ele>797.0</ele><time>2026-04-19T08:25:49.001Z</time></trkpt><trkpt lat="37.82422770742612" lon="14.681482998692555"><ele>798.75</ele><time>2026-04-19T08:25:50.001Z</time></trkpt><trkpt lat="37.824321971162" lon="14.681391763804957"><ele>800.5</ele><time>2026-04-19T08:25:51.001Z</time></trkpt><trkpt lat="37.82442962763205" lon="14.68133194897057"><ele>802.25</ele><time>2026-04-19T08:25:52.001Z</time></trkpt><trkpt lat="37.82454540734677" lon="14.681311923558257"><ele>804.0</ele><time>2026-04-19T08:25:53.001Z</time></trkpt><trkpt lat="37.82466199978097" lon="14.681321288416473"><ele>804.0</ele><time>2026-04-19T08:25:54.001Z</time></trkpt><trkpt lat="37.82477491013121" lon="14.681303871290512"><ele>804.0</ele><time>2026-04-19T08:25:55.001Z</time></trkpt><trkpt lat="37.824877845935866" lon="14.681236835260195"><ele>804.0</ele><time>2026-04-19T08:25:56.001Z</time></trkpt><trkpt lat="37.8249681585251" lon="14.681131733740994"><ele>804.0</ele><time>2026-04-19T08:25:57.001Z</time></trkpt><trkpt lat="37.82504232230039" lon="14.68099468563026"><ele>805.25</ele><time>2026-04-19T08:25:58.001Z</time></trkpt><trkpt lat="37.825107866928846" lon="14.680854273065084"><ele>806.5</ele><time>2026-04-19T08:25:59.001Z</time></trkpt><trkpt lat="37.825172340201796" lon="14.680712701253041"><ele>807.75</ele><time>2026-04-19T08:26:00.001Z</time></trkpt><trkpt lat="37.82523743627686" lon="14.680568100347852"><ele>809.0</ele><time>2026-04-19T08:26:01.001Z</time></trkpt><trkpt lat="37.825301174985476" lon="14.680425473062451"><ele>809.0</ele><time>2026-04-19T08:26:02.001Z</time></trkpt><trkpt lat="37.82536575768693" lon="14.680284294997739"><ele>809.0</ele><time>2026-04-19T08:26:03.001Z</time></trkpt><trkpt lat="37.82542893778719" lon="14.680145207507488"><ele>809.0</ele><time>2026-04-19T08:26:04.001Z</time></trkpt><trkpt lat="37.82549082300495" lon="14.6800062382095"><ele>809.0</ele><time>2026-04-19T08:26:05.001Z</time></trkpt><trkpt lat="37.82555364646343" lon="14.679867986065709"><ele>805.75</ele><time>2026-04-19T08:26:06.001Z</time></trkpt><trkpt lat="37.82561507849608" lon="14.679728346440971"><ele>802.5</ele><time>2026-04-19T08:26:07.001Z</time></trkpt><trkpt lat="37.82567770227014" lon="14.679591474176755"><ele>799.25</ele><time>2026-04-19T08:26:08.001Z</time></trkpt><trkpt lat="37.82574144604423" lon="14.679451165377703"><ele>796.0</ele><time>2026-04-19T08:26:09.001Z</time></trkpt><trkpt lat="37.82580399926843" lon="14.679307733768631"><ele>797.0</ele><time>2026-04-19T08:26:10.001Z</time></trkpt><trkpt lat="37.825867710609174" lon="14.6791627001889"><ele>798.0</ele><time>2026-04-19T08:26:11.001Z</time></trkpt><trkpt lat="37.82593354425121" lon="14.679017555518495"><ele>799.0</ele><time>2026-04-19T08:26:12.001Z</time></trkpt><trkpt lat="37.826004504267146" lon="14.678876253936721"><ele>800.0</ele><time>2026-04-19T08:26:13.001Z</time></trkpt><trkpt lat="37.826061639604376" lon="14.678735258343211"><ele>796.5</ele><time>2026-04-19T08:26:14.001Z</time></trkpt><trkpt lat="37.82607472709148" lon="14.678580071500548"><ele>793.0</ele><time>2026-04-19T08:26:15.001Z</time></trkpt><trkpt lat="37.82603373457506" lon="14.678434224659867"><ele>789.5</ele><time>2026-04-19T08:26:16.001Z</time></trkpt><trkpt lat="37.82594480259089" lon="14.678304817928524"><ele>786.0</ele><time>2026-04-19T08:26:17.001Z</time></trkpt><trkpt lat="37.8258555139976" lon="14.678191056819372"><ele>784.25</ele><time>2026-04-19T08:26:18.001Z</time></trkpt><trkpt lat="37.82576512681718" lon="14.678071042613885"><ele>782.5</ele><time>2026-04-19T08:26:19.001Z</time></trkpt><trkpt lat="37.82568685541482" lon="14.677946460735045"><ele>780.75</ele><time>2026-04-19T08:26:20.001Z</time></trkpt><trkpt lat="37.82561161383867" lon="14.677827237721496"><ele>779.0</ele><time>2026-04-19T08:26:21.001Z</time></trkpt><trkpt lat="37.82552164855448" lon="14.677725442267707"><ele>779.0</ele><time>2026-04-19T08:26:22.001Z</time></trkpt><trkpt lat="37.82541242678578" lon="14.677671458162832"><ele>779.0</ele><time>2026-04-19T08:26:23.001Z</time></trkpt><trkpt lat="37.82528799028843" lon="14.677659327559763"><ele>779.0</ele><time>2026-04-19T08:26:24.001Z</time></trkpt><trkpt lat="37.825157710475004" lon="14.677670577827197"><ele>779.0</ele><time>2026-04-19T08:26:25.002Z</time></trkpt><trkpt lat="37.82501268399401" lon="14.677661663327063"><ele>781.0</ele><time>2026-04-19T08:26:26.002Z</time></trkpt><trkpt lat="37.82485719335505" lon="14.677656041056823"><ele>783.0</ele><time>2026-04-19T08:26:27.002Z</time></trkpt><trkpt lat="37.82469830030459" lon="14.677653498369882"><ele>785.0</ele><time>2026-04-19T08:26:28.002Z</time></trkpt><trkpt lat="37.824542927664645" lon="14.677655279995868"><ele>785.0</ele><time>2026-04-19T08:26:29.002Z</time></trkpt><trkpt lat="37.824379708795654" lon="14.677653426547755"><ele>785.0</ele><time>2026-04-19T08:26:30.002Z</time></trkpt><trkpt lat="37.82421699560544" lon="14.67764814618396"><ele>785.0</ele><time>2026-04-19T08:26:31.002Z</time></trkpt><trkpt lat="37.82406051798299" lon="14.677641012344488"><ele>786.3333333333334</ele><time>2026-04-19T08:26:32.002Z</time></trkpt><trkpt lat="37.82390309759237" lon="14.677622619191185"><ele>787.6666666666667</ele><time>2026-04-19T08:26:33.002Z</time></trkpt><trkpt lat="37.823745331336006" lon="14.677585023935682"><ele>789.0</ele><time>2026-04-19T08:26:34.002Z</time></trkpt><trkpt lat="37.823598636507185" lon="14.677538551294704"><ele>790.0</ele><time>2026-04-19T08:26:35.002Z</time></trkpt><trkpt lat="37.82346445197007" lon="14.677495941011193"><ele>791.0</ele><time>2026-04-19T08:26:36.002Z</time></trkpt><trkpt lat="37.823337381829106" lon="14.677453415559041"><ele>792.0</ele><time>2026-04-19T08:26:37.002Z</time></trkpt><trkpt lat="37.82321623224197" lon="14.6773959742422"><ele>793.0</ele><time>2026-04-19T08:26:38.002Z</time></trkpt><trkpt lat="37.82311091573727" lon="14.677316167555649"><ele>792.9999999999999</ele><time>2026-04-19T08:26:39.002Z</time></trkpt><trkpt lat="37.82303150390791" lon="14.677218378241891"><ele>793.0</ele><time>2026-04-19T08:26:40.002Z</time></trkpt><trkpt lat="37.82297380839123" lon="14.67711147737012"><ele>793.0</ele><time>2026-04-19T08:26:41.002Z</time></trkpt><trkpt lat="37.82293683179084" lon="14.677019087215745"><ele>793.0</ele><time>2026-04-19T08:26:42.002Z</time></trkpt><trkpt lat="37.822901054178615" lon="14.67694463665567"><ele>792.9999999999999</ele><time>2026-04-19T08:26:43.002Z</time></trkpt><trkpt lat="37.822859762032635" lon="14.676871823639509"><ele>793.0</ele><time>2026-04-19T08:26:44.002Z</time></trkpt><trkpt lat="37.82282739993596" lon="14.67678157295407"><ele>794.4</ele><time>2026-04-19T08:26:45.002Z</time></trkpt><trkpt lat="37.822792286036375" lon="14.676679730621103"><ele>795.8</ele><time>2026-04-19T08:26:46.002Z</time></trkpt><trkpt lat="37.82273814722052" lon="14.67658875524075"><ele>797.2</ele><time>2026-04-19T08:26:47.002Z</time></trkpt><trkpt lat="37.822663261891975" lon="14.676525668238815"><ele>798.6</ele><time>2026-04-19T08:26:48.002Z</time></trkpt><trkpt lat="37.82255937912132" lon="14.676507759671482"><ele>800.0</ele><time>2026-04-19T08:26:49.002Z</time></trkpt><trkpt lat="37.82245071927623" lon="14.676542638467696"><ele>800.0</ele><time>2026-04-19T08:26:50.002Z</time></trkpt><trkpt lat="37.8223467456646" lon="14.676622193421148"><ele>800.0</ele><time>2026-04-19T08:26:51.002Z</time></trkpt><trkpt lat="37.82224447590019" lon="14.67671148830144"><ele>800.0</ele><time>2026-04-19T08:26:52.002Z</time></trkpt><trkpt lat="37.82214890654213" lon="14.676780067623303"><ele>800.0</ele><time>2026-04-19T08:26:53.002Z</time></trkpt><trkpt lat="37.82205461912409" lon="14.676844174704705"><ele>800.0</ele><time>2026-04-19T08:26:54.002Z</time></trkpt><trkpt lat="37.82195404209911" lon="14.676910957371915"><ele>800.0</ele><time>2026-04-19T08:26:55.002Z</time></trkpt><trkpt lat="37.821851736468645" lon="14.676964752805493"><ele>800.0</ele><time>2026-04-19T08:26:56.002Z</time></trkpt><trkpt lat="37.821739602002935" lon="14.676997533770724"><ele>800.0</ele><time>2026-04-19T08:26:57.002Z</time></trkpt><trkpt lat="37.82161986973474" lon="14.677004748887077"><ele>798.75</ele><time>2026-04-19T08:26:58.002Z</time></trkpt><trkpt lat="37.82149957766989" lon="14.676996587925858"><ele>797.5</ele><time>2026-04-19T08:26:59.002Z</time></trkpt><trkpt lat="37.82138270499059" lon="14.67698055706381"><ele>796.25</ele><time>2026-04-19T08:27:00.003Z</time></trkpt><trkpt lat="37.82126558019479" lon="14.676966068481839"><ele>795.0</ele><time>2026-04-19T08:27:01.003Z</time></trkpt><trkpt lat="37.821153372012134" lon="14.676943850416757"><ele>798.5</ele><time>2026-04-19T08:27:02.003Z</time></trkpt><trkpt lat="37.8210498621899" lon="14.676890758615047"><ele>802.0</ele><time>2026-04-19T08:27:03.003Z</time></trkpt><trkpt lat="37.82096418966166" lon="14.676799068603644"><ele>805.5</ele><time>2026-04-19T08:27:04.003Z</time></trkpt><trkpt lat="37.82090773975985" lon="14.676671894786093"><ele>809.0</ele><time>2026-04-19T08:27:05.003Z</time></trkpt><trkpt lat="37.82087590005598" lon="14.676522642487669"><ele>809.0</ele><time>2026-04-19T08:27:06.003Z</time></trkpt><trkpt lat="37.820846503758226" lon="14.676378426343177"><ele>809.0</ele><time>2026-04-19T08:27:07.003Z</time></trkpt><trkpt lat="37.82080286018777" lon="14.676211788635019"><ele>809.0</ele><time>2026-04-19T08:27:08.003Z</time></trkpt><trkpt lat="37.82075316137612" lon="14.67604647406311"><ele>809.0</ele><time>2026-04-19T08:27:09.003Z</time></trkpt><trkpt lat="37.82071190432652" lon="14.675887235189213"><ele>811.25</ele><time>2026-04-19T08:27:10.003Z</time></trkpt><trkpt lat="37.82067521047744" lon="14.675741050907803"><ele>813.5</ele><time>2026-04-19T08:27:11.003Z</time></trkpt><trkpt lat="37.82062337422593" lon="14.675617999793271"><ele>815.75</ele><time>2026-04-19T08:27:12.003Z</time></trkpt><trkpt lat="37.82054013617018" lon="14.675534217596901"><ele>818.0</ele><time>2026-04-19T08:27:13.003Z</time></trkpt><trkpt lat="37.82042284076751" lon="14.675489512727218"><ele>818.0</ele><time>2026-04-19T08:27:14.003Z</time></trkpt><trkpt lat="37.820297982633726" lon="14.675496553747077"><ele>818.0</ele><time>2026-04-19T08:27:15.003Z</time></trkpt><trkpt lat="37.82018009455705" lon="14.67554205563278"><ele>818.0</ele><time>2026-04-19T08:27:16.003Z</time></trkpt><trkpt lat="37.82007393682311" lon="14.675568668868626"><ele>818.0</ele><time>2026-04-19T08:27:17.003Z</time></trkpt><trkpt lat="37.81997775911529" lon="14.675530611048954"><ele>817.25</ele><time>2026-04-19T08:27:18.003Z</time></trkpt><trkpt lat="37.819888219783" lon="14.675455376380597"><ele>816.5</ele><time>2026-04-19T08:27:19.003Z</time></trkpt><trkpt lat="37.81983907101436" lon="14.67532731761634"><ele>815.75</ele><time>2026-04-19T08:27:20.003Z</time></trkpt><trkpt lat="37.819817052845615" lon="14.675164832921439"><ele>815.0</ele><time>2026-04-19T08:27:21.003Z</time></trkpt><trkpt lat="37.81975683919015" lon="14.675052994730583"><ele>818.25</ele><time>2026-04-19T08:27:22.003Z</time></trkpt><trkpt lat="37.81970030574114" lon="14.674898779798319"><ele>821.5</ele><time>2026-04-19T08:27:23.003Z</time></trkpt><trkpt lat="37.81962465491409" lon="14.67474309710014"><ele>824.75</ele><time>2026-04-19T08:27:24.003Z</time></trkpt><trkpt lat="37.81954369793868" lon="14.674578298508441"><ele>828.0</ele><time>2026-04-19T08:27:25.001Z</time></trkpt><trkpt lat="37.81946386623195" lon="14.674421881535164"><ele>826.5</ele><time>2026-04-19T08:27:26.001Z</time></trkpt><trkpt lat="37.81936830717342" lon="14.674285031480293"><ele>825.0</ele><time>2026-04-19T08:27:27.001Z</time></trkpt><trkpt lat="37.81926775104413" lon="14.674167824701279"><ele>823.5</ele><time>2026-04-19T08:27:28.001Z</time></trkpt><trkpt lat="37.81917880340119" lon="14.674052441692956"><ele>822.0</ele><time>2026-04-19T08:27:29.001Z</time></trkpt><trkpt lat="37.81911292803931" lon="14.673927626611723"><ele>822.0</ele><time>2026-04-19T08:27:30.001Z</time></trkpt><trkpt lat="37.81907421347034" lon="14.673804104373993"><ele>822.0</ele><time>2026-04-19T08:27:31.001Z</time></trkpt><trkpt lat="37.819072611653716" lon="14.673682274283602"><ele>822.0</ele><time>2026-04-19T08:27:32.001Z</time></trkpt><trkpt lat="37.81910029708185" lon="14.673566769444413"><ele>822.0</ele><time>2026-04-19T08:27:33.001Z</time></trkpt><trkpt lat="37.81914835883798" lon="14.673457973630054"><ele>822.0</ele><time>2026-04-19T08:27:34.001Z</time></trkpt><trkpt lat="37.819170917338155" lon="14.673363322549376"><ele>821.75</ele><time>2026-04-19T08:27:35.001Z</time></trkpt><trkpt lat="37.819265892840164" lon="14.673272605080683"><ele>821.5</ele><time>2026-04-19T08:27:36.001Z</time></trkpt><trkpt lat="37.819385628859855" lon="14.673186831654078"><ele>821.25</ele><time>2026-04-19T08:27:37.001Z</time></trkpt><trkpt lat="37.81948602201548" lon="14.67309883960431"><ele>821.0</ele><time>2026-04-19T08:27:38Z</time></trkpt><trkpt lat="37.81956938999231" lon="14.672994366839388"><ele>823.25</ele><time>2026-04-19T08:27:39.001Z</time></trkpt><trkpt lat="37.81962596066116" lon="14.672866120718272"><ele>825.5</ele><time>2026-04-19T08:27:40.001Z</time></trkpt><trkpt lat="37.81964693461838" lon="14.672719638422052"><ele>827.75</ele><time>2026-04-19T08:27:41.001Z</time></trkpt><trkpt lat="37.819629380010326" lon="14.672555562244927"><ele>830.0</ele><time>2026-04-19T08:27:42.001Z</time></trkpt><trkpt lat="37.819588233225154" lon="14.672392592774145"><ele>830.0</ele><time>2026-04-19T08:27:43.001Z</time></trkpt><trkpt lat="37.81954153189786" lon="14.672233432622964"><ele>830.0</ele><time>2026-04-19T08:27:44.001Z</time></trkpt><trkpt lat="37.819496775749876" lon="14.672077255106796"><ele>830.0</ele><time>2026-04-19T08:27:45.001Z</time></trkpt><trkpt lat="37.81946148463045" lon="14.671921616083448"><ele>830.0</ele><time>2026-04-19T08:27:46.001Z</time></trkpt><trkpt lat="37.81942571806795" lon="14.671771899267734"><ele>828.4</ele><time>2026-04-19T08:27:47.001Z</time></trkpt><trkpt lat="37.81940317211867" lon="14.671641936131039"><ele>826.8</ele><time>2026-04-19T08:27:48.001Z</time></trkpt><trkpt lat="37.81939455787553" lon="14.671529169533287"><ele>825.2</ele><time>2026-04-19T08:27:49.001Z</time></trkpt><trkpt lat="37.81941705062376" lon="14.671437984774045"><ele>823.6</ele><time>2026-04-19T08:27:50.001Z</time></trkpt><trkpt lat="37.819476681373786" lon="14.671358476410344"><ele>822.0</ele><time>2026-04-19T08:27:51.001Z</time></trkpt><trkpt lat="37.81955241065393" lon="14.67128471333324"><ele>822.0</ele><time>2026-04-19T08:27:52.001Z</time></trkpt><trkpt lat="37.81964883399093" lon="14.671220557062142"><ele>822.0</ele><time>2026-04-19T08:27:53.001Z</time></trkpt><trkpt lat="37.819753135218654" lon="14.671154799506773"><ele>822.0</ele><time>2026-04-19T08:27:54.001Z</time></trkpt><trkpt lat="37.81986724673787" lon="14.671085846252241"><ele>822.0</ele><time>2026-04-19T08:27:55.001Z</time></trkpt><trkpt lat="37.81997783373805" lon="14.67102066601385"><ele>820.75</ele><time>2026-04-19T08:27:56.001Z</time></trkpt><trkpt lat="37.82006829607665" lon="14.670938545348635"><ele>819.5</ele><time>2026-04-19T08:27:57.001Z</time></trkpt><trkpt lat="37.82013961360164" lon="14.67081223116269"><ele>818.25</ele><time>2026-04-19T08:27:58.001Z</time></trkpt><trkpt lat="37.82020963629452" lon="14.670659130871016"><ele>817.0</ele><time>2026-04-19T08:27:59.001Z</time></trkpt><trkpt lat="37.82027701202381" lon="14.670507401591037"><ele>817.0</ele><time>2026-04-19T08:28:00.001Z</time></trkpt><trkpt lat="37.820342334612874" lon="14.670370453919656"><ele>817.0</ele><time>2026-04-19T08:28:01.001Z</time></trkpt><trkpt lat="37.82040416046945" lon="14.670250149708613"><ele>817.0</ele><time>2026-04-19T08:28:02.001Z</time></trkpt><trkpt lat="37.82047450157814" lon="14.670155066565755"><ele>817.0</ele><time>2026-04-19T08:28:03.001Z</time></trkpt><trkpt lat="37.82056065272325" lon="14.670103408034594"><ele>817.0</ele><time>2026-04-19T08:28:04.001Z</time></trkpt><trkpt lat="37.82065110857024" lon="14.670099843403152"><ele>815.2</ele><time>2026-04-19T08:28:05.001Z</time></trkpt><trkpt lat="37.82074284811659" lon="14.67011822750431"><ele>813.4000000000001</ele><time>2026-04-19T08:28:06.001Z</time></trkpt><trkpt lat="37.82084916672805" lon="14.6701326457737"><ele>811.5999999999999</ele><time>2026-04-19T08:28:07.001Z</time></trkpt><trkpt lat="37.82095383991474" lon="14.67014380264656"><ele>809.8</ele><time>2026-04-19T08:28:08.001Z</time></trkpt><trkpt lat="37.82105222356729" lon="14.670144049348155"><ele>808.0</ele><time>2026-04-19T08:28:09.001Z</time></trkpt><trkpt lat="37.82115026828322" lon="14.670114231810016"><ele>808.0</ele><time>2026-04-19T08:28:10.001Z</time></trkpt><trkpt lat="37.82124181610436" lon="14.67004691845296"><ele>808.0</ele><time>2026-04-19T08:28:11.001Z</time></trkpt><trkpt lat="37.821325118110494" lon="14.669956750242747"><ele>808.0</ele><time>2026-04-19T08:28:12.001Z</time></trkpt><trkpt lat="37.82140210789315" lon="14.669861577075517"><ele>808.0</ele><time>2026-04-19T08:28:13.001Z</time></trkpt><trkpt lat="37.82148583015068" lon="14.669774089847051"><ele>808.0</ele><time>2026-04-19T08:28:14.001Z</time></trkpt><trkpt lat="37.82157806077925" lon="14.669691519642328"><ele>808.0</ele><time>2026-04-19T08:28:15.001Z</time></trkpt><trkpt lat="37.821678953137685" lon="14.669607306659756"><ele>808.0</ele><time>2026-04-19T08:28:16.001Z</time></trkpt><trkpt lat="37.82179104884801" lon="14.669525185831445"><ele>808.0</ele><time>2026-04-19T08:28:17.001Z</time></trkpt><trkpt lat="37.82190401945474" lon="14.669452146274844"><ele>808.0</ele><time>2026-04-19T08:28:18.001Z</time></trkpt><trkpt lat="37.82200960390841" lon="14.669377629494306"><ele>804.75</ele><time>2026-04-19T08:28:19.001Z</time></trkpt><trkpt lat="37.82210514677163" lon="14.669284008523288"><ele>801.5</ele><time>2026-04-19T08:28:20.001Z</time></trkpt><trkpt lat="37.822191988115655" lon="14.66918393442289"><ele>798.25</ele><time>2026-04-19T08:28:21.001Z</time></trkpt><trkpt lat="37.82228108269192" lon="14.66908777303915"><ele>795.0</ele><time>2026-04-19T08:28:22.001Z</time></trkpt><trkpt lat="37.822374000287056" lon="14.669004115561192"><ele>795.0</ele><time>2026-04-19T08:28:23.001Z</time></trkpt><trkpt lat="37.82247589638648" lon="14.668936701084275"><ele>795.0</ele><time>2026-04-19T08:28:24.001Z</time></trkpt><trkpt lat="37.82258485113104" lon="14.66888324129891"><ele>795.0</ele><time>2026-04-19T08:28:25.002Z</time></trkpt><trkpt lat="37.82269695639409" lon="14.668830656948167"><ele>795.0</ele><time>2026-04-19T08:28:26.002Z</time></trkpt><trkpt lat="37.82280583035759" lon="14.66877401078119"><ele>795.75</ele><time>2026-04-19T08:28:27.002Z</time></trkpt><trkpt lat="37.82291086122904" lon="14.668711426892983"><ele>796.5</ele><time>2026-04-19T08:28:28.002Z</time></trkpt><trkpt lat="37.82300465054568" lon="14.668631370838417"><ele>797.25</ele><time>2026-04-19T08:28:29.002Z</time></trkpt><trkpt lat="37.82307880948555" lon="14.668525416502975"><ele>798.0</ele><time>2026-04-19T08:28:30.002Z</time></trkpt><trkpt lat="37.82312462414245" lon="14.668394609017014"><ele>795.0</ele><time>2026-04-19T08:28:31.002Z</time></trkpt><trkpt lat="37.8231368669681" lon="14.668249101943887"><ele>792.0</ele><time>2026-04-19T08:28:32.002Z</time></trkpt><trkpt lat="37.82312098296979" lon="14.668095137509415"><ele>789.0</ele><time>2026-04-19T08:28:33.002Z</time></trkpt><trkpt lat="37.82309440539142" lon="14.66793606723302"><ele>786.0</ele><time>2026-04-19T08:28:34.002Z</time></trkpt><trkpt lat="37.823069636444245" lon="14.667779693671655"><ele>785.25</ele><time>2026-04-19T08:28:35.002Z</time></trkpt><trkpt lat="37.82304863731479" lon="14.667627594228216"><ele>784.5</ele><time>2026-04-19T08:28:36.002Z</time></trkpt><trkpt lat="37.82302605495536" lon="14.667477041324322"><ele>783.75</ele><time>2026-04-19T08:28:37.002Z</time></trkpt><trkpt lat="37.8230047527385" lon="14.667326466394067"><ele>783.0</ele><time>2026-04-19T08:28:38.002Z</time></trkpt><trkpt lat="37.82298416944754" lon="14.667172879441086"><ele>783.0</ele><time>2026-04-19T08:28:39.002Z</time></trkpt><trkpt lat="37.822964511596616" lon="14.667024444943399"><ele>783.0</ele><time>2026-04-19T08:28:40.002Z</time></trkpt><trkpt lat="37.82294205264962" lon="14.666872358161129"><ele>783.0</ele><time>2026-04-19T08:28:41.002Z</time></trkpt><trkpt lat="37.82291564482381" lon="14.666734265817535"><ele>783.0</ele><time>2026-04-19T08:28:42.002Z</time></trkpt><trkpt lat="37.82286761968376" lon="14.666597894482903"><ele>783.75</ele><time>2026-04-19T08:28:43.002Z</time></trkpt><trkpt lat="37.82278614658759" lon="14.666481830535579"><ele>784.5</ele><time>2026-04-19T08:28:44.002Z</time></trkpt><trkpt lat="37.82267920635998" lon="14.666396289239016"><ele>785.25</ele><time>2026-04-19T08:28:45.002Z</time></trkpt><trkpt lat="37.822551473735764" lon="14.666349590234324"><ele>786.0</ele><time>2026-04-19T08:28:46.002Z</time></trkpt><trkpt lat="37.822402663869305" lon="14.666305852822592"><ele>786.0</ele><time>2026-04-19T08:28:47.002Z</time></trkpt><trkpt lat="37.82225054019461" lon="14.666253203229887"><ele>786.0</ele><time>2026-04-19T08:28:48.002Z</time></trkpt><trkpt lat="37.82210994496007" lon="14.666195841724006"><ele>786.0</ele><time>2026-04-19T08:28:49.002Z</time></trkpt><trkpt lat="37.82197553292613" lon="14.666149442397543"><ele>786.0</ele><time>2026-04-19T08:28:50.002Z</time></trkpt><trkpt lat="37.8218371312698" lon="14.666096488255823"><ele>788.75</ele><time>2026-04-19T08:28:51.002Z</time></trkpt><trkpt lat="37.821699054598895" lon="14.666045841715544"><ele>791.5</ele><time>2026-04-19T08:28:52.002Z</time></trkpt><trkpt lat="37.82157207166778" lon="14.666003460193767"><ele>794.25</ele><time>2026-04-19T08:28:53.002Z</time></trkpt><trkpt lat="37.82145426595155" lon="14.665963450693038"><ele>797.0</ele><time>2026-04-19T08:28:54.002Z</time></trkpt><trkpt lat="37.821326790326175" lon="14.66592387520857"><ele>797.0</ele><time>2026-04-19T08:28:55.002Z</time></trkpt><trkpt lat="37.82119839725039" lon="14.665889350798949"><ele>797.0</ele><time>2026-04-19T08:28:56.002Z</time></trkpt><trkpt lat="37.82107022451327" lon="14.665855938172843"><ele>797.0</ele><time>2026-04-19T08:28:57.002Z</time></trkpt><trkpt lat="37.820945206412475" lon="14.665821498230569"><ele>797.0</ele><time>2026-04-19T08:28:58.002Z</time></trkpt><trkpt lat="37.82082586017414" lon="14.665789429461976"><ele>796.75</ele><time>2026-04-19T08:28:59.002Z</time></trkpt><trkpt lat="37.82070495727888" lon="14.665760389497908"><ele>796.5</ele><time>2026-04-19T08:29:00.002Z</time></trkpt><trkpt lat="37.82058378958479" lon="14.66573460545136"><ele>796.25</ele><time>2026-04-19T08:29:01.003Z</time></trkpt><trkpt lat="37.82046729974536" lon="14.665708032319879"><ele>796.0</ele><time>2026-04-19T08:29:02.003Z</time></trkpt><trkpt lat="37.82035051293628" lon="14.665687519735345"><ele>796.0</ele><time>2026-04-19T08:29:03.003Z</time></trkpt><trkpt lat="37.82023142082551" lon="14.665686798839323"><ele>796.0</ele><time>2026-04-19T08:29:04.003Z</time></trkpt><trkpt lat="37.82012079094831" lon="14.665723111572927"><ele>796.0</ele><time>2026-04-19T08:29:05.003Z</time></trkpt><trkpt lat="37.81999446879012" lon="14.665790409152573"><ele>796.0</ele><time>2026-04-19T08:29:06.003Z</time></trkpt><trkpt lat="37.819884853689025" lon="14.66587210865508"><ele>797.5</ele><time>2026-04-19T08:29:07.003Z</time></trkpt><trkpt lat="37.81977776304421" lon="14.665948201728616"><ele>799.0</ele><time>2026-04-19T08:29:08.003Z</time></trkpt><trkpt lat="37.819675058015605" lon="14.666016513260498"><ele>800.5</ele><time>2026-04-19T08:29:09.003Z</time></trkpt><trkpt lat="37.819571286140835" lon="14.666080082692"><ele>802.0</ele><time>2026-04-19T08:29:10.003Z</time></trkpt><trkpt lat="37.81946708896511" lon="14.666135931271402"><ele>801.2</ele><time>2026-04-19T08:29:11.003Z</time></trkpt><trkpt lat="37.8193651938983" lon="14.666190130841047"><ele>800.4000000000001</ele><time>2026-04-19T08:29:12.003Z</time></trkpt><trkpt lat="37.81926401404624" lon="14.666255455394458"><ele>799.5999999999999</ele><time>2026-04-19T08:29:13.003Z</time></trkpt><trkpt lat="37.819166274931035" lon="14.666316109124924"><ele>798.8</ele><time>2026-04-19T08:29:14.003Z</time></trkpt><trkpt lat="37.819066134723066" lon="14.666350006823752"><ele>798.0</ele><time>2026-04-19T08:29:15.003Z</time></trkpt><trkpt lat="37.818963277087676" lon="14.66634446953331"><ele>798.0</ele><time>2026-04-19T08:29:16.003Z</time></trkpt><trkpt lat="37.818855172586844" lon="14.666305467632835"><ele>798.0</ele><time>2026-04-19T08:29:17.003Z</time></trkpt><trkpt lat="37.8187660905052" lon="14.666227769131494"><ele>798.0</ele><time>2026-04-19T08:29:18.003Z</time></trkpt><trkpt lat="37.8186898355305" lon="14.66612064271916"><ele>798.0</ele><time>2026-04-19T08:29:19.003Z</time></trkpt><trkpt lat="37.81861557893607" lon="14.666004271944697"><ele>801.0</ele><time>2026-04-19T08:29:20.003Z</time></trkpt><trkpt lat="37.81852470778273" lon="14.665904783739002"><ele>804.0</ele><time>2026-04-19T08:29:21.003Z</time></trkpt><trkpt lat="37.81840549665788" lon="14.665828107488734"><ele>807.0</ele><time>2026-04-19T08:29:22.003Z</time></trkpt><trkpt lat="37.81828115679965" lon="14.665778889970097"><ele>810.0</ele><time>2026-04-19T08:29:23.003Z</time></trkpt><trkpt lat="37.818158219153574" lon="14.665743715764732"><ele>810.4</ele><time>2026-04-19T08:29:24.003Z</time></trkpt><trkpt lat="37.81804210721417" lon="14.665710121504008"><ele>810.8</ele><time>2026-04-19T08:29:25.003Z</time></trkpt><trkpt lat="37.81793216847419" lon="14.665680930460537"><ele>811.2</ele><time>2026-04-19T08:29:26.003Z</time></trkpt><trkpt lat="37.817833027993956" lon="14.665652535525913"><ele>811.6</ele><time>2026-04-19T08:29:27.003Z</time></trkpt><trkpt lat="37.81775253255445" lon="14.665622181005745"><ele>812.0</ele><time>2026-04-19T08:29:28.003Z</time></trkpt><trkpt lat="37.81768815908875" lon="14.665583579880883"><ele>812.0000000000001</ele><time>2026-04-19T08:29:29.003Z</time></trkpt><trkpt lat="37.81764605103309" lon="14.665518649040582"><ele>812.0</ele><time>2026-04-19T08:29:30.003Z</time></trkpt><trkpt lat="37.81763829711987" lon="14.665429370695898"><ele>812.0</ele><time>2026-04-19T08:29:31.001Z</time></trkpt><trkpt lat="37.81767178763396" lon="14.665332144193808"><ele>812.0</ele><time>2026-04-19T08:29:32.001Z</time></trkpt><trkpt lat="37.81774672782646" lon="14.665257918828393"><ele>812.0000000000001</ele><time>2026-04-19T08:29:33.001Z</time></trkpt><trkpt lat="37.81784507613408" lon="14.665223035421034"><ele>812.0</ele><time>2026-04-19T08:29:34.001Z</time></trkpt><trkpt lat="37.817952952457986" lon="14.665242457418008"><ele>812.0</ele><time>2026-04-19T08:29:35.001Z</time></trkpt><trkpt lat="37.818061547987924" lon="14.665285393758708"><ele>812.0</ele><time>2026-04-19T08:29:36.001Z</time></trkpt><trkpt lat="37.8181629634109" lon="14.665343989231717"><ele>812.0</ele><time>2026-04-19T08:29:37.001Z</time></trkpt><trkpt lat="37.81827805358667" lon="14.66539941252011"><ele>812.0</ele><time>2026-04-19T08:29:38.001Z</time></trkpt><trkpt lat="37.818380602221005" lon="14.665451806570928"><ele>812.0000000000001</ele><time>2026-04-19T08:29:39.001Z</time></trkpt><trkpt lat="37.81847506038101" lon="14.665491278468025"><ele>812.0</ele><time>2026-04-19T08:29:40.001Z</time></trkpt><trkpt lat="37.818564703554664" lon="14.665525305313949"><ele>812.0</ele><time>2026-04-19T08:29:41.001Z</time></trkpt><trkpt lat="37.818649844264264" lon="14.665553678904391"><ele>812.0</ele><time>2026-04-19T08:29:42.001Z</time></trkpt><trkpt lat="37.81873114489492" lon="14.66556494739386"><ele>812.0000000000001</ele><time>2026-04-19T08:29:43.001Z</time></trkpt><trkpt lat="37.81880631472763" lon="14.665554281661455"><ele>812.0</ele><time>2026-04-19T08:29:44.001Z</time></trkpt><trkpt lat="37.81887558424114" lon="14.665513380140696"><ele>811.6</ele><time>2026-04-19T08:29:45.001Z</time></trkpt><trkpt lat="37.81894115189963" lon="14.665425121849266"><ele>811.2</ele><time>2026-04-19T08:29:46.001Z</time></trkpt><trkpt lat="37.81900145445239" lon="14.665320296451675"><ele>810.8</ele><time>2026-04-19T08:29:47.001Z</time></trkpt><trkpt lat="37.819061099566454" lon="14.665222155665221"><ele>810.4</ele><time>2026-04-19T08:29:48.001Z</time></trkpt><trkpt lat="37.81912665257634" lon="14.665121582965408"><ele>810.0</ele><time>2026-04-19T08:29:49.001Z</time></trkpt><trkpt lat="37.81921228998425" lon="14.665036671019203"><ele>811.2</ele><time>2026-04-19T08:29:50.001Z</time></trkpt><trkpt lat="37.81930381394073" lon="14.664976017949328"><ele>812.4</ele><time>2026-04-19T08:29:51.001Z</time></trkpt><trkpt lat="37.81939297041421" lon="14.664923300530699"><ele>813.5999999999999</ele><time>2026-04-19T08:29:52.001Z</time></trkpt><trkpt lat="37.819479564914936" lon="14.664877271055579"><ele>814.8</ele><time>2026-04-19T08:29:53.001Z</time></trkpt><trkpt lat="37.81956172702053" lon="14.664832372247044"><ele>816.0</ele><time>2026-04-19T08:29:54.001Z</time></trkpt><trkpt lat="37.819633757721654" lon="14.664764193810718"><ele>816.0</ele><time>2026-04-19T08:29:55.001Z</time></trkpt><trkpt lat="37.819683539916966" lon="14.664676854412757"><ele>816.0</ele><time>2026-04-19T08:29:56.001Z</time></trkpt><trkpt lat="37.81970089044927" lon="14.664563297587021"><ele>816.0</ele><time>2026-04-19T08:29:57.001Z</time></trkpt><trkpt lat="37.819682758728135" lon="14.664441644012902"><ele>816.0</ele><time>2026-04-19T08:29:58.001Z</time></trkpt><trkpt lat="37.819631586425736" lon="14.664342085278308"><ele>816.0</ele><time>2026-04-19T08:29:59.001Z</time></trkpt><trkpt lat="37.81955367004928" lon="14.664248962657297"><ele>819.5999999999999</ele><time>2026-04-19T08:30:00.001Z</time></trkpt><trkpt lat="37.81946941308863" lon="14.664149938121655"><ele>823.2</ele><time>2026-04-19T08:30:01.001Z</time></trkpt><trkpt lat="37.81938490186311" lon="14.664044862498281"><ele>826.8</ele><time>2026-04-19T08:30:02.001Z</time></trkpt><trkpt lat="37.81930603088818" lon="14.663933248239502"><ele>830.4000000000001</ele><time>2026-04-19T08:30:03.001Z</time></trkpt><trkpt lat="37.819248480393895" lon="14.6638458075806"><ele>834.0</ele><time>2026-04-19T08:30:04.001Z</time></trkpt><trkpt lat="37.819188541934686" lon="14.6637687577768"><ele>834.2</ele><time>2026-04-19T08:30:05.001Z</time></trkpt><trkpt lat="37.819134553893775" lon="14.663691613012272"><ele>834.4000000000001</ele><time>2026-04-19T08:30:06.001Z</time></trkpt><trkpt lat="37.81908679606133" lon="14.663599227172847"><ele>834.6</ele><time>2026-04-19T08:30:07.001Z</time></trkpt><trkpt lat="37.81903323613363" lon="14.663473477895344"><ele>834.8</ele><time>2026-04-19T08:30:08.001Z</time></trkpt><trkpt lat="37.819020725760346" lon="14.663357837021447"><ele>835.0</ele><time>2026-04-19T08:30:09.001Z</time></trkpt><trkpt lat="37.81900919147012" lon="14.663239640652806"><ele>835.0</ele><time>2026-04-19T08:30:10.001Z</time></trkpt><trkpt lat="37.819006851183" lon="14.66311123064095"><ele>835.0</ele><time>2026-04-19T08:30:11.001Z</time></trkpt><trkpt lat="37.819011616809334" lon="14.662977505369419"><ele>835.0</ele><time>2026-04-19T08:30:12.001Z</time></trkpt><trkpt lat="37.819021733950784" lon="14.662846428413935"><ele>835.0</ele><time>2026-04-19T08:30:13.001Z</time></trkpt><trkpt lat="37.81902689373311" lon="14.662704634404085"><ele>835.0</ele><time>2026-04-19T08:30:14.001Z</time></trkpt><trkpt lat="37.81903362088883" lon="14.662560149562141"><ele>834.0</ele><time>2026-04-19T08:30:15.001Z</time></trkpt><trkpt lat="37.819053272533004" lon="14.662417984449608"><ele>833.0</ele><time>2026-04-19T08:30:16.001Z</time></trkpt><trkpt lat="37.819083910127084" lon="14.662274744887497"><ele>832.0</ele><time>2026-04-19T08:30:17.001Z</time></trkpt><trkpt lat="37.819116950162375" lon="14.662133877217665"><ele>831.0</ele><time>2026-04-19T08:30:18.001Z</time></trkpt><trkpt lat="37.81914614450603" lon="14.66198996760497"><ele>831.5</ele><time>2026-04-19T08:30:19.001Z</time></trkpt><trkpt lat="37.81918169148686" lon="14.661844426794557"><ele>832.0</ele><time>2026-04-19T08:30:20.001Z</time></trkpt><trkpt lat="37.81922992483753" lon="14.661705534686858"><ele>832.5</ele><time>2026-04-19T08:30:21.001Z</time></trkpt><trkpt lat="37.819287487522026" lon="14.661577391624045"><ele>833.0</ele><time>2026-04-19T08:30:22.001Z</time></trkpt><trkpt lat="37.81934374402668" lon="14.66145572964059"><ele>833.0</ele><time>2026-04-19T08:30:23.001Z</time></trkpt><trkpt lat="37.81940010199853" lon="14.661337383564234"><ele>833.0</ele><time>2026-04-19T08:30:24.001Z</time></trkpt><trkpt lat="37.81945522651789" lon="14.661221823037335"><ele>833.0</ele><time>2026-04-19T08:30:25.001Z</time></trkpt><trkpt lat="37.81950885173103" lon="14.661099022570593"><ele>833.0</ele><time>2026-04-19T08:30:26.002Z</time></trkpt><trkpt lat="37.81956755284178" lon="14.660967363395933"><ele>833.0</ele><time>2026-04-19T08:30:27.002Z</time></trkpt><trkpt lat="37.81963808169836" lon="14.660828037816746"><ele>830.0</ele><time>2026-04-19T08:30:28.002Z</time></trkpt><trkpt lat="37.81972243745745" lon="14.66069626269712"><ele>827.0</ele><time>2026-04-19T08:30:29.002Z</time></trkpt><trkpt lat="37.81981427907826" lon="14.66058653118507"><ele>824.0</ele><time>2026-04-19T08:30:30.002Z</time></trkpt><trkpt lat="37.81991264227068" lon="14.660496617875694"><ele>821.0</ele><time>2026-04-19T08:30:31.002Z</time></trkpt><trkpt lat="37.820007287321666" lon="14.660414996565683"><ele>821.0</ele><time>2026-04-19T08:30:32.002Z</time></trkpt><trkpt lat="37.820083709148" lon="14.660336632113347"><ele>821.0</ele><time>2026-04-19T08:30:33.002Z</time></trkpt><trkpt lat="37.82013491183758" lon="14.660228522684609"><ele>821.0</ele><time>2026-04-19T08:30:34.002Z</time></trkpt><trkpt lat="37.820171174710524" lon="14.660109576332152"><ele>821.0</ele><time>2026-04-19T08:30:35.002Z</time></trkpt><trkpt lat="37.82019241837443" lon="14.659990072893958"><ele>821.0</ele><time>2026-04-19T08:30:36.002Z</time></trkpt><trkpt lat="37.820191053571534" lon="14.659871072770922"><ele>819.1999999999999</ele><time>2026-04-19T08:30:37.002Z</time></trkpt><trkpt lat="37.820148888525225" lon="14.659764017142786"><ele>817.4</ele><time>2026-04-19T08:30:38.002Z</time></trkpt><trkpt lat="37.82006909726846" lon="14.659685454809315"><ele>815.6</ele><time>2026-04-19T08:30:39.002Z</time></trkpt><trkpt lat="37.81997058355498" lon="14.659628799700206"><ele>813.8</ele><time>2026-04-19T08:30:40.002Z</time></trkpt><trkpt lat="37.81986502691749" lon="14.659587785316315"><ele>812.0</ele><time>2026-04-19T08:30:41.002Z</time></trkpt><trkpt lat="37.819735669812815" lon="14.659524216772805"><ele>812.0</ele><time>2026-04-19T08:30:42.002Z</time></trkpt><trkpt lat="37.8196226945499" lon="14.659459207465186"><ele>812.0</ele><time>2026-04-19T08:30:43.002Z</time></trkpt><trkpt lat="37.81950328902581" lon="14.659406743635941"><ele>812.0</ele><time>2026-04-19T08:30:44.002Z</time></trkpt><trkpt lat="37.819384473210874" lon="14.65937433546177"><ele>812.0</ele><time>2026-04-19T08:30:45.002Z</time></trkpt><trkpt lat="37.81926942071244" lon="14.659351428319464"><ele>813.6</ele><time>2026-04-19T08:30:46.002Z</time></trkpt><trkpt lat="37.81916473772547" lon="14.659332867789015"><ele>815.2</ele><time>2026-04-19T08:30:47.002Z</time></trkpt><trkpt lat="37.81907216044863" lon="14.659307814681483"><ele>816.8</ele><time>2026-04-19T08:30:48.002Z</time></trkpt><trkpt lat="37.81898559320216" lon="14.659259412085492"><ele>818.4</ele><time>2026-04-19T08:30:49.002Z</time></trkpt><trkpt lat="37.81891414081933" lon="14.659187585607773"><ele>820.0</ele><time>2026-04-19T08:30:50.002Z</time></trkpt><trkpt lat="37.81886746722849" lon="14.65909762666715"><ele>820.0</ele><time>2026-04-19T08:30:51.002Z</time></trkpt><trkpt lat="37.81882384148835" lon="14.659000087094233"><ele>820.0</ele><time>2026-04-19T08:30:52.002Z</time></trkpt><trkpt lat="37.8187733876011" lon="14.658895527173508"><ele>820.0</ele><time>2026-04-19T08:30:53.002Z</time></trkpt><trkpt lat="37.818724683015056" lon="14.65878648135815"><ele>820.0</ele><time>2026-04-19T08:30:54.002Z</time></trkpt><trkpt lat="37.818679510676475" lon="14.658667819751683"><ele>820.0</ele><time>2026-04-19T08:30:55.002Z</time></trkpt><trkpt lat="37.81864547472952" lon="14.658538262727994"><ele>822.0</ele><time>2026-04-19T08:30:56.002Z</time></trkpt><trkpt lat="37.818614344266415" lon="14.658396540421654"><ele>824.0</ele><time>2026-04-19T08:30:57.002Z</time></trkpt><trkpt lat="37.81858085287788" lon="14.65822650774464"><ele>826.0</ele><time>2026-04-19T08:30:58.002Z</time></trkpt><trkpt lat="37.81854440819312" lon="14.658053142413024"><ele>828.0</ele><time>2026-04-19T08:30:59.002Z</time></trkpt><trkpt lat="37.81851032247207" lon="14.657893373887587"><ele>822.5</ele><time>2026-04-19T08:31:00.002Z</time></trkpt><trkpt lat="37.81848417064237" lon="14.657746078897521"><ele>817.0</ele><time>2026-04-19T08:31:01.002Z</time></trkpt><trkpt lat="37.81845512447285" lon="14.657595671242683"><ele>811.5</ele><time>2026-04-19T08:31:02.002Z</time></trkpt><trkpt lat="37.81842373902685" lon="14.657446806034121"><ele>806.0</ele><time>2026-04-19T08:31:03.002Z</time></trkpt><trkpt lat="37.81839254291892" lon="14.657301564856896"><ele>806.0</ele><time>2026-04-19T08:31:04.002Z</time></trkpt><trkpt lat="37.81836877132132" lon="14.657161498096917"><ele>806.0</ele><time>2026-04-19T08:31:05.003Z</time></trkpt><trkpt lat="37.81836604117768" lon="14.657018483813673"><ele>806.0</ele><time>2026-04-19T08:31:06.003Z</time></trkpt><trkpt lat="37.818397490025646" lon="14.656875530862516"><ele>806.0</ele><time>2026-04-19T08:31:07.003Z</time></trkpt><trkpt lat="37.81844259869172" lon="14.656736774315561"><ele>810.0</ele><time>2026-04-19T08:31:08.003Z</time></trkpt><trkpt lat="37.81850205185158" lon="14.656600656769493"><ele>814.0</ele><time>2026-04-19T08:31:09.003Z</time></trkpt><trkpt lat="37.81856042025331" lon="14.656469468164051"><ele>818.0</ele><time>2026-04-19T08:31:10.003Z</time></trkpt><trkpt lat="37.818607329142345" lon="14.656331228164781"><ele>822.0</ele><time>2026-04-19T08:31:11.003Z</time></trkpt><trkpt lat="37.81863082973058" lon="14.65618158462351"><ele>819.5</ele><time>2026-04-19T08:31:12.003Z</time></trkpt><trkpt lat="37.81861341432942" lon="14.65601402007979"><ele>817.0</ele><time>2026-04-19T08:31:13.003Z</time></trkpt><trkpt lat="37.8185849674634" lon="14.65587758302173"><ele>814.5</ele><time>2026-04-19T08:31:14.003Z</time></trkpt><trkpt lat="37.81853133631885" lon="14.655738010877297"><ele>812.0</ele><time>2026-04-19T08:31:15.003Z</time></trkpt><trkpt lat="37.818450117290794" lon="14.65561633537984"><ele>809.5</ele><time>2026-04-19T08:31:16.003Z</time></trkpt><trkpt lat="37.8183434900831" lon="14.655531062445528"><ele>807.0</ele><time>2026-04-19T08:31:17.003Z</time></trkpt><trkpt lat="37.81822087046362" lon="14.655480613645919"><ele>804.5</ele><time>2026-04-19T08:31:18.003Z</time></trkpt><trkpt lat="37.818098797183595" lon="14.65544423994723"><ele>802.0</ele><time>2026-04-19T08:31:19.003Z</time></trkpt><trkpt lat="37.81797589475988" lon="14.65540776337544"><ele>802.0</ele><time>2026-04-19T08:31:20.003Z</time></trkpt><trkpt lat="37.81785394728211" lon="14.655360793782151"><ele>802.0</ele><time>2026-04-19T08:31:21.003Z</time></trkpt><trkpt lat="37.817731836717925" lon="14.6553153242538"><ele>802.0</ele><time>2026-04-19T08:31:22.003Z</time></trkpt><trkpt lat="37.81760259571084" lon="14.655280659035034"><ele>802.0</ele><time>2026-04-19T08:31:23.003Z</time></trkpt><trkpt lat="37.817473198381215" lon="14.65524509347114"><ele>805.75</ele><time>2026-04-19T08:31:24.003Z</time></trkpt><trkpt lat="37.81734915906534" lon="14.655202070660858"><ele>809.5</ele><time>2026-04-19T08:31:25.003Z</time></trkpt><trkpt lat="37.81722865989366" lon="14.655158731946166"><ele>813.25</ele><time>2026-04-19T08:31:26.003Z</time></trkpt><trkpt lat="37.81711203623951" lon="14.65511623620046"><ele>817.0</ele><time>2026-04-19T08:31:27.003Z</time></trkpt><trkpt lat="37.81700278953613" lon="14.655055578208447"><ele>817.0</ele><time>2026-04-19T08:31:28.003Z</time></trkpt><trkpt lat="37.81690422961672" lon="14.654974704997619"><ele>817.0</ele><time>2026-04-19T08:31:29.003Z</time></trkpt><trkpt lat="37.81682459102758" lon="14.654868190125939"><ele>817.0</ele><time>2026-04-19T08:31:30.003Z</time></trkpt><trkpt lat="37.816768748221214" lon="14.654737027188897"><ele>817.0</ele><time>2026-04-19T08:31:31.003Z</time></trkpt><trkpt lat="37.816747834485" lon="14.654595937465652"><ele>816.0</ele><time>2026-04-19T08:31:32.003Z</time></trkpt><trkpt lat="37.8167378220249" lon="14.654458863341763"><ele>815.0</ele><time>2026-04-19T08:31:33.003Z</time></trkpt><trkpt lat="37.816711106414715" lon="14.65433249169628"><ele>814.0</ele><time>2026-04-19T08:31:34.003Z</time></trkpt><trkpt lat="37.81665139048698" lon="14.654217331937769"><ele>813.0</ele><time>2026-04-19T08:31:35.003Z</time></trkpt><trkpt lat="37.81656864057934" lon="14.654125654553512"><ele>812.0</ele><time>2026-04-19T08:31:36.003Z</time></trkpt><trkpt lat="37.81646015795844" lon="14.654078372508925"><ele>814.2</ele><time>2026-04-19T08:31:37.001Z</time></trkpt><trkpt lat="37.81634911500086" lon="14.654071908924193"><ele>816.4000000000001</ele><time>2026-04-19T08:31:38.001Z</time></trkpt><trkpt lat="37.816245234903235" lon="14.654059518254927"><ele>818.5999999999999</ele><time>2026-04-19T08:31:39.001Z</time></trkpt><trkpt lat="37.81614732774705" lon="14.654007869691878"><ele>820.8</ele><time>2026-04-19T08:31:40.001Z</time></trkpt><trkpt lat="37.81607015581217" lon="14.653914553843187"><ele>823.0</ele><time>2026-04-19T08:31:41.001Z</time></trkpt><trkpt lat="37.81601281397915" lon="14.653789696770167"><ele>823.25</ele><time>2026-04-19T08:31:42.001Z</time></trkpt><trkpt lat="37.81595205935034" lon="14.653666004798675"><ele>823.5</ele><time>2026-04-19T08:31:43.001Z</time></trkpt><trkpt lat="37.81591084580657" lon="14.6535204120537"><ele>823.75</ele><time>2026-04-19T08:31:44.001Z</time></trkpt><trkpt lat="37.815885016825696" lon="14.653369915640326"><ele>824.0</ele><time>2026-04-19T08:31:45.001Z</time></trkpt><trkpt lat="37.81587041004456" lon="14.653222259399682"><ele>824.0</ele><time>2026-04-19T08:31:46.001Z</time></trkpt><trkpt lat="37.81584629643146" lon="14.653077675784814"><ele>824.0</ele><time>2026-04-19T08:31:47.001Z</time></trkpt><trkpt lat="37.815793819882884" lon="14.652938117065403"><ele>824.0</ele><time>2026-04-19T08:31:48.001Z</time></trkpt><trkpt lat="37.8157168964102" lon="14.652804375960553"><ele>824.0</ele><time>2026-04-19T08:31:49.001Z</time></trkpt><trkpt lat="37.815645140076775" lon="14.65266370638797"><ele>827.0</ele><time>2026-04-19T08:31:50.001Z</time></trkpt><trkpt lat="37.81557911810291" lon="14.652515592524379"><ele>830.0</ele><time>2026-04-19T08:31:51.001Z</time></trkpt><trkpt lat="37.815524370157874" lon="14.652361052399675"><ele>833.0</ele><time>2026-04-19T08:31:52.001Z</time></trkpt><trkpt lat="37.81548208128483" lon="14.652204797247654"><ele>836.0</ele><time>2026-04-19T08:31:53.001Z</time></trkpt><trkpt lat="37.815445367724266" lon="14.65203829729031"><ele>836.25</ele><time>2026-04-19T08:31:54.001Z</time></trkpt><trkpt lat="37.815409703991136" lon="14.651875938442867"><ele>836.5</ele><time>2026-04-19T08:31:55.001Z</time></trkpt><trkpt lat="37.81538949750572" lon="14.651719085442858"><ele>836.75</ele><time>2026-04-19T08:31:56.001Z</time></trkpt><trkpt lat="37.815373603461076" lon="14.651560874872233"><ele>837.0</ele><time>2026-04-19T08:31:57.001Z</time></trkpt><trkpt lat="37.81535427958406" lon="14.651404685284803"><ele>837.0</ele><time>2026-04-19T08:31:58.001Z</time></trkpt><trkpt lat="37.815329497062194" lon="14.651264246526141"><ele>837.0</ele><time>2026-04-19T08:31:59.001Z</time></trkpt><trkpt lat="37.815312027636665" lon="14.651138292414839"><ele>837.0</ele><time>2026-04-19T08:32:00.001Z</time></trkpt><trkpt lat="37.81533442906009" lon="14.651021981554583"><ele>837.0</ele><time>2026-04-19T08:32:01.001Z</time></trkpt><trkpt lat="37.815414258090904" lon="14.650926871119058"><ele>837.0</ele><time>2026-04-19T08:32:02.001Z</time></trkpt><trkpt lat="37.81554546168058" lon="14.65087937900134"><ele>834.25</ele><time>2026-04-19T08:32:03.001Z</time></trkpt><trkpt lat="37.81565182643224" lon="14.65082688400253"><ele>831.5</ele><time>2026-04-19T08:32:04.001Z</time></trkpt><trkpt lat="37.81575943370732" lon="14.650739894828117"><ele>828.75</ele><time>2026-04-19T08:32:05.001Z</time></trkpt><trkpt lat="37.815842991834096" lon="14.650630103466003"><ele>826.0</ele><time>2026-04-19T08:32:06.001Z</time></trkpt><trkpt lat="37.8159118160469" lon="14.650507201084096"><ele>826.0</ele><time>2026-04-19T08:32:07.001Z</time></trkpt><trkpt lat="37.81598081685368" lon="14.650391024440596"><ele>826.0</ele><time>2026-04-19T08:32:08.001Z</time></trkpt><trkpt lat="37.81602800499118" lon="14.650253468995253"><ele>826.0</ele><time>2026-04-19T08:32:09.001Z</time></trkpt><trkpt lat="37.81604730324002" lon="14.650096137950017"><ele>826.0</ele><time>2026-04-19T08:32:10.001Z</time></trkpt><trkpt lat="37.81604318154592" lon="14.649938243223394"><ele>827.0</ele><time>2026-04-19T08:32:11.001Z</time></trkpt><trkpt lat="37.8160282690342" lon="14.649787029393893"><ele>828.0</ele><time>2026-04-19T08:32:12.001Z</time></trkpt><trkpt lat="37.81602625185235" lon="14.649637496680963"><ele>829.0</ele><time>2026-04-19T08:32:13.001Z</time></trkpt><trkpt lat="37.8160310237588" lon="14.64949065464972"><ele>830.0</ele><time>2026-04-19T08:32:14.001Z</time></trkpt><trkpt lat="37.81604019392431" lon="14.649356794193634"><ele>830.0</ele><time>2026-04-19T08:32:15.001Z</time></trkpt><trkpt lat="37.81602924381678" lon="14.649216242159799"><ele>830.0</ele><time>2026-04-19T08:32:16.001Z</time></trkpt><trkpt lat="37.815998434143715" lon="14.649079173461939"><ele>830.0</ele><time>2026-04-19T08:32:17.001Z</time></trkpt><trkpt lat="37.81596183883648" lon="14.648944454379544"><ele>830.0</ele><time>2026-04-19T08:32:18.001Z</time></trkpt><trkpt lat="37.81592474311565" lon="14.648814155340228"><ele>830.0</ele><time>2026-04-19T08:32:19.001Z</time></trkpt><trkpt lat="37.81590086873918" lon="14.64868193585304"><ele>828.0</ele><time>2026-04-19T08:32:20.001Z</time></trkpt><trkpt lat="37.81591001231233" lon="14.648547549252797"><ele>826.0</ele><time>2026-04-19T08:32:21.001Z</time></trkpt><trkpt lat="37.81594318197975" lon="14.648414861721992"><ele>824.0</ele><time>2026-04-19T08:32:22.001Z</time></trkpt><trkpt lat="37.81599685599032" lon="14.648285732087867"><ele>822.0</ele><time>2026-04-19T08:32:23.001Z</time></trkpt><trkpt lat="37.816069005586016" lon="14.648160838214269"><ele>822.0</ele><time>2026-04-19T08:32:24.001Z</time></trkpt><trkpt lat="37.816146599552276" lon="14.648045445207194"><ele>822.0</ele><time>2026-04-19T08:32:25.001Z</time></trkpt><trkpt lat="37.81621511212271" lon="14.647936763028717"><ele>822.0</ele><time>2026-04-19T08:32:26.001Z</time></trkpt><trkpt lat="37.81628266061766" lon="14.647822030570072"><ele>822.0</ele><time>2026-04-19T08:32:27.001Z</time></trkpt><trkpt lat="37.81634625368666" lon="14.647710202349792"><ele>818.8</ele><time>2026-04-19T08:32:28.002Z</time></trkpt><trkpt lat="37.81640618162266" lon="14.647593389788442"><ele>815.6</ele><time>2026-04-19T08:32:29.002Z</time></trkpt><trkpt lat="37.816467624976106" lon="14.64748496470381"><ele>812.4</ele><time>2026-04-19T08:32:30.002Z</time></trkpt><trkpt lat="37.81654931288565" lon="14.647408409471353"><ele>809.1999999999999</ele><time>2026-04-19T08:32:31.002Z</time></trkpt><trkpt lat="37.81664998271298" lon="14.647365994978067"><ele>806.0</ele><time>2026-04-19T08:32:32.002Z</time></trkpt><trkpt lat="37.816763695504015" lon="14.647362537148174"><ele>805.1666666666667</ele><time>2026-04-19T08:32:33.002Z</time></trkpt><trkpt lat="37.81685658621377" lon="14.647362205137586"><ele>804.3333333333334</ele><time>2026-04-19T08:32:34.002Z</time></trkpt><trkpt lat="37.8169289617407" lon="14.647361189139303"><ele>803.5</ele><time>2026-04-19T08:32:35.002Z</time></trkpt><trkpt lat="37.81699671407677" lon="14.647356421328936"><ele>802.6666666666667</ele><time>2026-04-19T08:32:37.002Z</time></trkpt><trkpt lat="37.81706527547151" lon="14.647350327186068"><ele>801.8333333333334</ele><time>2026-04-19T08:32:39.002Z</time></trkpt><trkpt lat="37.81715368146784" lon="14.6473199469973"><ele>801.0</ele><time>2026-04-19T08:33:22.003Z</time></trkpt><trkpt lat="37.81721971498919" lon="14.647294537483509"><ele>801.0</ele><time>2026-04-19T08:33:24.003Z</time></trkpt><trkpt lat="37.817289430346236" lon="14.647236747408002"><ele>801.0</ele><time>2026-04-19T08:33:26.003Z</time></trkpt><trkpt lat="37.81738368799443" lon="14.647141191573967"><ele>801.0</ele><time>2026-04-19T08:33:28.003Z</time></trkpt><trkpt lat="37.817419764453625" lon="14.647073583746474"><ele>801.0</ele><time>2026-04-19T08:33:29.003Z</time></trkpt><trkpt lat="37.81744948365666" lon="14.646996679144634"><ele>801.0</ele><time>2026-04-19T08:33:30.003Z</time></trkpt><trkpt lat="37.81746707818395" lon="14.646905350866675"><ele>801.0</ele><time>2026-04-19T08:33:31.003Z</time></trkpt><trkpt lat="37.81748605108274" lon="14.646812553212458"><ele>799.1666666666666</ele><time>2026-04-19T08:33:32.003Z</time></trkpt><trkpt lat="37.81749873351417" lon="14.646718633909774"><ele>797.3333333333333</ele><time>2026-04-19T08:33:33.003Z</time></trkpt><trkpt lat="37.817505000070845" lon="14.646621677769915"><ele>795.5</ele><time>2026-04-19T08:33:34.003Z</time></trkpt><trkpt lat="37.8175143230302" lon="14.646513416389551"><ele>793.6666666666666</ele><time>2026-04-19T08:33:35.003Z</time></trkpt><trkpt lat="37.81752341642596" lon="14.646401660000532"><ele>791.8333333333333</ele><time>2026-04-19T08:33:36.003Z</time></trkpt><trkpt lat="37.81753344823864" lon="14.646291743302074"><ele>790.0</ele><time>2026-04-19T08:33:37.003Z</time></trkpt><trkpt lat="37.81754343117496" lon="14.646186275372472"><ele>790.1666666666666</ele><time>2026-04-19T08:33:38.003Z</time></trkpt><trkpt lat="37.81755127964759" lon="14.64608390824721"><ele>790.3333333333333</ele><time>2026-04-19T08:33:39.003Z</time></trkpt><trkpt lat="37.81755828771055" lon="14.645981292389115"><ele>790.5</ele><time>2026-04-19T08:33:40.003Z</time></trkpt><trkpt lat="37.817562715005515" lon="14.645885382803222"><ele>790.6666666666667</ele><time>2026-04-19T08:33:41.003Z</time></trkpt><trkpt lat="37.81754774440812" lon="14.64579340340745"><ele>790.8333333333334</ele><time>2026-04-19T08:33:42.003Z</time></trkpt><trkpt lat="37.81750801940277" lon="14.645717055754679"><ele>791.0</ele><time>2026-04-19T08:33:43.001Z</time></trkpt><trkpt lat="37.81743916631491" lon="14.645664723538994"><ele>791.0</ele><time>2026-04-19T08:33:44.001Z</time></trkpt><trkpt lat="37.817355392720906" lon="14.645619597634472"><ele>791.0</ele><time>2026-04-19T08:33:45.001Z</time></trkpt><trkpt lat="37.81725544065258" lon="14.645580578919505"><ele>791.0</ele><time>2026-04-19T08:33:46.001Z</time></trkpt><trkpt lat="37.81714700835519" lon="14.645545625508205"><ele>791.0</ele><time>2026-04-19T08:33:47.001Z</time></trkpt><trkpt lat="37.81703935340291" lon="14.64552121363358"><ele>791.0</ele><time>2026-04-19T08:33:48.001Z</time></trkpt><trkpt lat="37.816929194830806" lon="14.645500450861526"><ele>790.5</ele><time>2026-04-19T08:33:49.001Z</time></trkpt><trkpt lat="37.81681574553232" lon="14.645476268420184"><ele>790.0</ele><time>2026-04-19T08:33:50.001Z</time></trkpt><trkpt lat="37.81669558212356" lon="14.64545448744613"><ele>789.5</ele><time>2026-04-19T08:33:51.001Z</time></trkpt><trkpt lat="37.816568766809276" lon="14.645449103383834"><ele>789.0</ele><time>2026-04-19T08:33:52.001Z</time></trkpt><trkpt lat="37.816438327780276" lon="14.645464505048317"><ele>789.0</ele><time>2026-04-19T08:33:53.001Z</time></trkpt><trkpt lat="37.81631050097958" lon="14.645499873466614"><ele>789.0</ele><time>2026-04-19T08:33:54.001Z</time></trkpt><trkpt lat="37.816186687286994" lon="14.645540072633226"><ele>789.0</ele><time>2026-04-19T08:33:55.001Z</time></trkpt><trkpt lat="37.81606216093843" lon="14.645585073523435"><ele>789.0</ele><time>2026-04-19T08:33:56.001Z</time></trkpt><trkpt lat="37.81593354208611" lon="14.645627430043001"><ele>789.0</ele><time>2026-04-19T08:33:57.001Z</time></trkpt><trkpt lat="37.8158125348793" lon="14.645664904400828"><ele>789.0</ele><time>2026-04-19T08:33:58.001Z</time></trkpt><trkpt lat="37.81569502350345" lon="14.645707424728442"><ele>789.0</ele><time>2026-04-19T08:33:59.001Z</time></trkpt><trkpt lat="37.81557795822651" lon="14.645751196156263"><ele>789.0</ele><time>2026-04-19T08:34:00.001Z</time></trkpt><trkpt lat="37.81546198142181" lon="14.645791720955174"><ele>789.0</ele><time>2026-04-19T08:34:01.001Z</time></trkpt><trkpt lat="37.81534629697358" lon="14.64582569517957"><ele>789.0</ele><time>2026-04-19T08:34:02.001Z</time></trkpt><trkpt lat="37.81523687479118" lon="14.645851330262165"><ele>789.0</ele><time>2026-04-19T08:34:03.001Z</time></trkpt><trkpt lat="37.815125309595935" lon="14.645861450690434"><ele>789.0</ele><time>2026-04-19T08:34:04.001Z</time></trkpt><trkpt lat="37.815008822967755" lon="14.645840599534882"><ele>789.0</ele><time>2026-04-19T08:34:05.001Z</time></trkpt><trkpt lat="37.814895697001134" lon="14.645793531816276"><ele>789.0</ele><time>2026-04-19T08:34:06.001Z</time></trkpt><trkpt lat="37.81479469003115" lon="14.645719624599824"><ele>789.0</ele><time>2026-04-19T08:34:07.001Z</time></trkpt><trkpt lat="37.814709902492574" lon="14.645626109561361"><ele>789.0</ele><time>2026-04-19T08:34:08.001Z</time></trkpt><trkpt lat="37.81461386263467" lon="14.645535229665276"><ele>789.0</ele><time>2026-04-19T08:34:09.001Z</time></trkpt><trkpt lat="37.81451223528823" lon="14.645450178597782"><ele>789.0</ele><time>2026-04-19T08:34:10.001Z</time></trkpt><trkpt lat="37.81441478494097" lon="14.645368676523189"><ele>789.0</ele><time>2026-04-19T08:34:11.001Z</time></trkpt><trkpt lat="37.81431787256173" lon="14.64528414678503"><ele>789.0</ele><time>2026-04-19T08:34:12.001Z</time></trkpt><trkpt lat="37.81421450040086" lon="14.645200841069837"><ele>788.75</ele><time>2026-04-19T08:34:13.001Z</time></trkpt><trkpt lat="37.81411452333403" lon="14.645110701480585"><ele>788.5</ele><time>2026-04-19T08:34:14.001Z</time></trkpt><trkpt lat="37.81401672587458" lon="14.645033096185713"><ele>788.25</ele><time>2026-04-19T08:34:15.001Z</time></trkpt><trkpt lat="37.81391588324114" lon="14.644982519733555"><ele>788.0</ele><time>2026-04-19T08:34:16.001Z</time></trkpt><trkpt lat="37.81379913900314" lon="14.644974479346645"><ele>788.0</ele><time>2026-04-19T08:34:17.001Z</time></trkpt><trkpt lat="37.81368016461953" lon="14.645018452842605"><ele>788.0</ele><time>2026-04-19T08:34:18.001Z</time></trkpt><trkpt lat="37.81356137396235" lon="14.645081648663442"><ele>788.0</ele><time>2026-04-19T08:34:19.001Z</time></trkpt><trkpt lat="37.81345150893767" lon="14.645142651889767"><ele>788.0</ele><time>2026-04-19T08:34:20.001Z</time></trkpt><trkpt lat="37.81332376753175" lon="14.645176440277808"><ele>789.0</ele><time>2026-04-19T08:34:21.001Z</time></trkpt><trkpt lat="37.813203476311465" lon="14.645209636906293"><ele>790.0</ele><time>2026-04-19T08:34:22.001Z</time></trkpt><trkpt lat="37.8130883162423" lon="14.64524994951187"><ele>791.0</ele><time>2026-04-19T08:34:23.001Z</time></trkpt><trkpt lat="37.81298014510477" lon="14.645293197254244"><ele>792.0</ele><time>2026-04-19T08:34:24.001Z</time></trkpt><trkpt lat="37.81287642937736" lon="14.645334955580504"><ele>788.25</ele><time>2026-04-19T08:34:25.001Z</time></trkpt><trkpt lat="37.812772552406166" lon="14.64536930831619"><ele>784.5</ele><time>2026-04-19T08:34:26.001Z</time></trkpt><trkpt lat="37.81266495353304" lon="14.645401715323192"><ele>780.75</ele><time>2026-04-19T08:34:27.001Z</time></trkpt><trkpt lat="37.812547787579746" lon="14.645429108875721"><ele>777.0</ele><time>2026-04-19T08:34:28.001Z</time></trkpt><trkpt lat="37.81242139507981" lon="14.645426208772758"><ele>776.75</ele><time>2026-04-19T08:34:29.001Z</time></trkpt><trkpt lat="37.81230008949689" lon="14.645384474536561"><ele>776.5</ele><time>2026-04-19T08:34:30.001Z</time></trkpt><trkpt lat="37.81218321470224" lon="14.645328477848677"><ele>776.25</ele><time>2026-04-19T08:34:31.001Z</time></trkpt><trkpt lat="37.81205652464138" lon="14.645286545043641"><ele>776.0</ele><time>2026-04-19T08:34:32.001Z</time></trkpt><trkpt lat="37.81192246396259" lon="14.645297438093065"><ele>774.75</ele><time>2026-04-19T08:34:33.001Z</time></trkpt><trkpt lat="37.81177572150398" lon="14.645348236822887"><ele>773.5</ele><time>2026-04-19T08:34:34.001Z</time></trkpt><trkpt lat="37.811641250079596" lon="14.645397886031821"><ele>772.25</ele><time>2026-04-19T08:34:35.002Z</time></trkpt><trkpt lat="37.811512115234976" lon="14.645441297539493"><ele>771.0</ele><time>2026-04-19T08:34:36.002Z</time></trkpt><trkpt lat="37.81137856068731" lon="14.645464918967537"><ele>771.0</ele><time>2026-04-19T08:34:37.002Z</time></trkpt><trkpt lat="37.811243360832556" lon="14.64546274953675"><ele>771.0</ele><time>2026-04-19T08:34:38.002Z</time></trkpt><trkpt lat="37.81111028049671" lon="14.645436938736651"><ele>771.0</ele><time>2026-04-19T08:34:39.002Z</time></trkpt><trkpt lat="37.81097486636794" lon="14.645390030024297"><ele>771.0</ele><time>2026-04-19T08:34:40.002Z</time></trkpt><trkpt lat="37.810838759568895" lon="14.645338302021171"><ele>770.5</ele><time>2026-04-19T08:34:41.002Z</time></trkpt><trkpt lat="37.81070797732283" lon="14.645296315215413"><ele>770.0</ele><time>2026-04-19T08:34:42.002Z</time></trkpt><trkpt lat="37.81058068557915" lon="14.645258576965219"><ele>769.5</ele><time>2026-04-19T08:34:43.002Z</time></trkpt><trkpt lat="37.81045953917367" lon="14.645214752425057"><ele>769.0</ele><time>2026-04-19T08:34:44.002Z</time></trkpt><trkpt lat="37.81034718337837" lon="14.645147344382694"><ele>768.75</ele><time>2026-04-19T08:34:45.002Z</time></trkpt><trkpt lat="37.81025225126562" lon="14.645059962664636"><ele>768.5</ele><time>2026-04-19T08:34:46.002Z</time></trkpt><trkpt lat="37.81017513251138" lon="14.644943016756573"><ele>768.25</ele><time>2026-04-19T08:34:47.002Z</time></trkpt><trkpt lat="37.8101186826878" lon="14.64479869691261"><ele>768.0</ele><time>2026-04-19T08:34:48.002Z</time></trkpt><trkpt lat="37.81008214767775" lon="14.64463478053389"><ele>768.0</ele><time>2026-04-19T08:34:49.002Z</time></trkpt><trkpt lat="37.810050490482936" lon="14.644463255681893"><ele>768.0</ele><time>2026-04-19T08:34:50.002Z</time></trkpt><trkpt lat="37.81001672032707" lon="14.644280924376735"><ele>768.0</ele><time>2026-04-19T08:34:51.002Z</time></trkpt><trkpt lat="37.809988362667255" lon="14.644100389505407"><ele>768.0</ele><time>2026-04-19T08:34:52.002Z</time></trkpt><trkpt lat="37.80996800270649" lon="14.643902303132903"><ele>769.3333333333333</ele><time>2026-04-19T08:34:53.002Z</time></trkpt><trkpt lat="37.809958730934206" lon="14.643700844807638"><ele>770.6666666666666</ele><time>2026-04-19T08:34:54.002Z</time></trkpt><trkpt lat="37.80995840131255" lon="14.643508019019755"><ele>772.0</ele><time>2026-04-19T08:34:55.002Z</time></trkpt><trkpt lat="37.809957621536554" lon="14.643322897556775"><ele>772.0</ele><time>2026-04-19T08:34:56.002Z</time></trkpt><trkpt lat="37.80996275516659" lon="14.643142041230284"><ele>772.0</ele><time>2026-04-19T08:34:57.002Z</time></trkpt><trkpt lat="37.8099875187616" lon="14.642963110307466"><ele>772.0</ele><time>2026-04-19T08:34:58.002Z</time></trkpt><trkpt lat="37.810031969197844" lon="14.642792135268257"><ele>772.0</ele><time>2026-04-19T08:34:59.002Z</time></trkpt><trkpt lat="37.810077889992236" lon="14.642617901396092"><ele>771.5</ele><time>2026-04-19T08:35:00.002Z</time></trkpt><trkpt lat="37.810109466241336" lon="14.6424380969525"><ele>771.0</ele><time>2026-04-19T08:35:01.002Z</time></trkpt><trkpt lat="37.810116199906574" lon="14.642253270195571"><ele>770.5</ele><time>2026-04-19T08:35:02.002Z</time></trkpt><trkpt lat="37.810095778465985" lon="14.642068793455312"><ele>770.0</ele><time>2026-04-19T08:35:03.002Z</time></trkpt><trkpt lat="37.810069054365655" lon="14.641886644936623"><ele>769.75</ele><time>2026-04-19T08:35:04.002Z</time></trkpt><trkpt lat="37.81004890951328" lon="14.641700074377848"><ele>769.5</ele><time>2026-04-19T08:35:05.002Z</time></trkpt><trkpt lat="37.81002947927055" lon="14.641514336299327"><ele>769.25</ele><time>2026-04-19T08:35:06.002Z</time></trkpt><trkpt lat="37.809990491281695" lon="14.641341076460149"><ele>769.0</ele><time>2026-04-19T08:35:07.002Z</time></trkpt><trkpt lat="37.80992996319392" lon="14.641164510837347"><ele>770.3333333333333</ele><time>2026-04-19T08:35:08.002Z</time></trkpt><trkpt lat="37.80985364052485" lon="14.640992442439837"><ele>771.6666666666667</ele><time>2026-04-19T08:35:09.002Z</time></trkpt><trkpt lat="37.80977377533824" lon="14.640827474233157"><ele>773.0</ele><time>2026-04-19T08:35:10.002Z</time></trkpt><trkpt lat="37.80969897894391" lon="14.640669034907129"><ele>773.0</ele><time>2026-04-19T08:35:11.002Z</time></trkpt><trkpt lat="37.80962592449281" lon="14.640513725874515"><ele>773.0</ele><time>2026-04-19T08:35:12.002Z</time></trkpt><trkpt lat="37.809556725841006" lon="14.640365802059867"><ele>773.0</ele><time>2026-04-19T08:35:13.002Z</time></trkpt><trkpt lat="37.809503145798544" lon="14.640215124661898"><ele>773.0</ele><time>2026-04-19T08:35:14.002Z</time></trkpt><trkpt lat="37.80948256183519" lon="14.640053557445675"><ele>772.75</ele><time>2026-04-19T08:35:15.002Z</time></trkpt><trkpt lat="37.80949727995389" lon="14.639894485379806"><ele>772.5</ele><time>2026-04-19T08:35:16.002Z</time></trkpt><trkpt lat="37.809533233805055" lon="14.639740919590889"><ele>772.25</ele><time>2026-04-19T08:35:17.002Z</time></trkpt><trkpt lat="37.80957690291276" lon="14.639579452608787"><ele>772.0</ele><time>2026-04-19T08:35:18.003Z</time></trkpt><trkpt lat="37.809614717284134" lon="14.639414492469795"><ele>772.0</ele><time>2026-04-19T08:35:19.003Z</time></trkpt><trkpt lat="37.809652455286056" lon="14.63925418681912"><ele>772.0</ele><time>2026-04-19T08:35:20.003Z</time></trkpt><trkpt lat="37.80968942948103" lon="14.639111828551274"><ele>772.0</ele><time>2026-04-19T08:35:21.003Z</time></trkpt><trkpt lat="37.809704545915025" lon="14.638975821116418"><ele>772.0</ele><time>2026-04-19T08:35:22.003Z</time></trkpt><trkpt lat="37.809672303189615" lon="14.638844855353188"><ele>772.0</ele><time>2026-04-19T08:35:23.003Z</time></trkpt><trkpt lat="37.80959883872384" lon="14.638738097526089"><ele>772.0</ele><time>2026-04-19T08:35:24.003Z</time></trkpt><trkpt lat="37.80949890368711" lon="14.63865438518626"><ele>772.0</ele><time>2026-04-19T08:35:25.003Z</time></trkpt><trkpt lat="37.80938093822648" lon="14.638580699868445"><ele>772.0</ele><time>2026-04-19T08:35:26.003Z</time></trkpt><trkpt lat="37.80926058331497" lon="14.638506318074292"><ele>769.0</ele><time>2026-04-19T08:35:27.003Z</time></trkpt><trkpt lat="37.809145696320954" lon="14.638430243061958"><ele>766.0</ele><time>2026-04-19T08:35:28.003Z</time></trkpt><trkpt lat="37.80903232482197" lon="14.638359200548113"><ele>763.0</ele><time>2026-04-19T08:35:29.003Z</time></trkpt><trkpt lat="37.80891794641627" lon="14.63828804771619"><ele>760.0</ele><time>2026-04-19T08:35:30.003Z</time></trkpt><trkpt lat="37.80880139970659" lon="14.638220744743784"><ele>760.0</ele><time>2026-04-19T08:35:31.003Z</time></trkpt><trkpt lat="37.80868292756444" lon="14.638162977468419"><ele>760.0</ele><time>2026-04-19T08:35:32.003Z</time></trkpt><trkpt lat="37.80855993338008" lon="14.638124532067186"><ele>760.0</ele><time>2026-04-19T08:35:33.003Z</time></trkpt><trkpt lat="37.808436176039216" lon="14.638109294609777"><ele>760.0</ele><time>2026-04-19T08:35:34.003Z</time></trkpt><trkpt lat="37.80831103343306" lon="14.638108671514045"><ele>760.0</ele><time>2026-04-19T08:35:35.003Z</time></trkpt><trkpt lat="37.80818092355181" lon="14.63812166338748"><ele>760.0</ele><time>2026-04-19T08:35:36.003Z</time></trkpt><trkpt lat="37.80804367023281" lon="14.638146941885779"><ele>760.0</ele><time>2026-04-19T08:35:37.003Z</time></trkpt><trkpt lat="37.807903954562356" lon="14.638180928343282"><ele>760.0</ele><time>2026-04-19T08:35:38.003Z</time></trkpt><trkpt lat="37.80775595356854" lon="14.638229401243922"><ele>760.3333333333334</ele><time>2026-04-19T08:35:39.003Z</time></trkpt><trkpt lat="37.807590977392664" lon="14.638289088301532"><ele>760.6666666666666</ele><time>2026-04-19T08:35:40.003Z</time></trkpt><trkpt lat="37.80741086651669" lon="14.638359163591511"><ele>761.0</ele><time>2026-04-19T08:35:41.003Z</time></trkpt><trkpt lat="37.80722344243999" lon="14.638430684209911"><ele>761.0</ele><time>2026-04-19T08:35:42.003Z</time></trkpt><trkpt lat="37.80704880274335" lon="14.638492129705075"><ele>761.0</ele><time>2026-04-19T08:35:43.003Z</time></trkpt><trkpt lat="37.8068980688748" lon="14.638533776491919"><ele>761.0</ele><time>2026-04-19T08:35:44.003Z</time></trkpt><trkpt lat="37.80676203285231" lon="14.638578032977673"><ele>761.0</ele><time>2026-04-19T08:35:45.003Z</time></trkpt><trkpt lat="37.80663324433216" lon="14.638627985175324"><ele>761.0</ele><time>2026-04-19T08:35:46.003Z</time></trkpt><trkpt lat="37.80651356375667" lon="14.638668795469435"><ele>761.0</ele><time>2026-04-19T08:35:47.003Z</time></trkpt><trkpt lat="37.80640483813967" lon="14.638701189609819"><ele>761.0</ele><time>2026-04-19T08:35:48.003Z</time></trkpt><trkpt lat="37.80630783717392" lon="14.638716545795166"><ele>761.0</ele><time>2026-04-19T08:35:49.001Z</time></trkpt><trkpt lat="37.80621809636322" lon="14.63870614129914"><ele>761.0</ele><time>2026-04-19T08:35:50.001Z</time></trkpt><trkpt lat="37.80613214314708" lon="14.638653158925116"><ele>761.0</ele><time>2026-04-19T08:35:51.001Z</time></trkpt><trkpt lat="37.80605405996983" lon="14.638566490806767"><ele>761.0</ele><time>2026-04-19T08:35:52.001Z</time></trkpt><trkpt lat="37.80598460095889" lon="14.638454820342151"><ele>761.0</ele><time>2026-04-19T08:35:53.001Z</time></trkpt><trkpt lat="37.805932537778496" lon="14.638335796771923"><ele>761.0</ele><time>2026-04-19T08:35:54.001Z</time></trkpt><trkpt lat="37.80591625447993" lon="14.638206987582446"><ele>761.0</ele><time>2026-04-19T08:35:55.001Z</time></trkpt><trkpt lat="37.80592947540152" lon="14.63807009273022"><ele>761.0</ele><time>2026-04-19T08:35:56.001Z</time></trkpt><trkpt lat="37.80597660797916" lon="14.637937657755243"><ele>761.0</ele><time>2026-04-19T08:35:57.001Z</time></trkpt><trkpt lat="37.80601418108881" lon="14.637804337040341"><ele>761.0</ele><time>2026-04-19T08:35:58.001Z</time></trkpt><trkpt lat="37.80601050180452" lon="14.637667394198715"><ele>764.0</ele><time>2026-04-19T08:35:59.001Z</time></trkpt><trkpt lat="37.805951299971525" lon="14.637543297029575"><ele>767.0</ele><time>2026-04-19T08:36:00.001Z</time></trkpt><trkpt lat="37.805840498345475" lon="14.637460149029918"><ele>770.0</ele><time>2026-04-19T08:36:01.001Z</time></trkpt><trkpt lat="37.80570946940425" lon="14.637402276283908"><ele>773.0</ele><time>2026-04-19T08:36:02.001Z</time></trkpt><trkpt lat="37.80557638606719" lon="14.637310883384718"><ele>773.0</ele><time>2026-04-19T08:36:03.001Z</time></trkpt><trkpt lat="37.805463798613296" lon="14.637192028648702"><ele>773.0</ele><time>2026-04-19T08:36:04.001Z</time></trkpt><trkpt lat="37.805370430215014" lon="14.637059941490712"><ele>773.0</ele><time>2026-04-19T08:36:05.001Z</time></trkpt><trkpt lat="37.805300801039316" lon="14.636919213220319"><ele>773.0</ele><time>2026-04-19T08:36:06.001Z</time></trkpt><trkpt lat="37.805249733053294" lon="14.636772359819856"><ele>773.0</ele><time>2026-04-19T08:36:07.001Z</time></trkpt><trkpt lat="37.805198525072534" lon="14.636625242107536"><ele>773.0</ele><time>2026-04-19T08:36:08.001Z</time></trkpt><trkpt lat="37.80513839725609" lon="14.636493089816625"><ele>773.0</ele><time>2026-04-19T08:36:09.001Z</time></trkpt><trkpt lat="37.80504455811313" lon="14.636391964004398"><ele>773.0</ele><time>2026-04-19T08:36:10.001Z</time></trkpt><trkpt lat="37.80492872418109" lon="14.636329785465051"><ele>774.5</ele><time>2026-04-19T08:36:11.001Z</time></trkpt><trkpt lat="37.80480148260006" lon="14.636301615471481"><ele>776.0</ele><time>2026-04-19T08:36:12.001Z</time></trkpt><trkpt lat="37.80467247788017" lon="14.63627369623051"><ele>777.5</ele><time>2026-04-19T08:36:13.001Z</time></trkpt><trkpt lat="37.80455492809128" lon="14.636208781330533"><ele>779.0</ele><time>2026-04-19T08:36:14.001Z</time></trkpt><trkpt lat="37.80445064481234" lon="14.636114924776736"><ele>779.0</ele><time>2026-04-19T08:36:15.001Z</time></trkpt><trkpt lat="37.804373379542945" lon="14.635991578480102"><ele>779.0</ele><time>2026-04-19T08:36:16.001Z</time></trkpt><trkpt lat="37.80431880883182" lon="14.635844331070421"><ele>779.0</ele><time>2026-04-19T08:36:17.001Z</time></trkpt><trkpt lat="37.80428422660972" lon="14.635678242823584"><ele>779.0</ele><time>2026-04-19T08:36:18.001Z</time></trkpt><trkpt lat="37.804275477078036" lon="14.635512052632668"><ele>779.0</ele><time>2026-04-19T08:36:19.001Z</time></trkpt><trkpt lat="37.804306104291555" lon="14.635338076279565"><ele>779.0</ele><time>2026-04-19T08:36:20.001Z</time></trkpt><trkpt lat="37.80435642124509" lon="14.635172608518436"><ele>779.0</ele><time>2026-04-19T08:36:21.001Z</time></trkpt><trkpt lat="37.80438699566904" lon="14.634992725783079"><ele>779.0</ele><time>2026-04-19T08:36:22.001Z</time></trkpt><trkpt lat="37.804372070300786" lon="14.634773214116374"><ele>779.0</ele><time>2026-04-19T08:36:23.001Z</time></trkpt><trkpt lat="37.80434764508544" lon="14.634572255297334"><ele>779.0</ele><time>2026-04-19T08:36:24.001Z</time></trkpt><trkpt lat="37.80433786997416" lon="14.634395197124222"><ele>779.0</ele><time>2026-04-19T08:36:25.001Z</time></trkpt><trkpt lat="37.804330934955956" lon="14.634235086632998"><ele>779.0</ele><time>2026-04-19T08:36:26.001Z</time></trkpt><trkpt lat="37.80432801609287" lon="14.63409057034122"><ele>783.6</ele><time>2026-04-19T08:36:27.001Z</time></trkpt><trkpt lat="37.80432514300363" lon="14.633952291081714"><ele>788.2</ele><time>2026-04-19T08:36:28.001Z</time></trkpt><trkpt lat="37.80432138741197" lon="14.633839558118906"><ele>792.8000000000001</ele><time>2026-04-19T08:36:29.001Z</time></trkpt><trkpt lat="37.8043184873512" lon="14.633741246905288"><ele>797.4000000000001</ele><time>2026-04-19T08:36:30.001Z</time></trkpt><trkpt lat="37.80430299607479" lon="14.633633434066631"><ele>802.0</ele><time>2026-04-19T08:36:31.001Z</time></trkpt><trkpt lat="37.80424967447907" lon="14.633504441052784"><ele>802.0</ele><time>2026-04-19T08:36:32.001Z</time></trkpt><trkpt lat="37.80416035446301" lon="14.633356464365054"><ele>802.0</ele><time>2026-04-19T08:36:33.001Z</time></trkpt><trkpt lat="37.80405542804203" lon="14.633202429362756"><ele>802.0</ele><time>2026-04-19T08:36:34.001Z</time></trkpt><trkpt lat="37.80396353225106" lon="14.63306656357612"><ele>802.0</ele><time>2026-04-19T08:36:35.001Z</time></trkpt><trkpt lat="37.80389546945635" lon="14.632955828387512"><ele>802.0</ele><time>2026-04-19T08:36:36.001Z</time></trkpt><trkpt lat="37.80384012440593" lon="14.63285191477009"><ele>802.0</ele><time>2026-04-19T08:36:37.001Z</time></trkpt><trkpt lat="37.80380714678671" lon="14.632728562861065"><ele>802.0</ele><time>2026-04-19T08:36:38.001Z</time></trkpt><trkpt lat="37.80381051465109" lon="14.632586430504077"><ele>802.0</ele><time>2026-04-19T08:36:39.001Z</time></trkpt><trkpt lat="37.80384443280733" lon="14.632435219916823"><ele>802.0</ele><time>2026-04-19T08:36:40.001Z</time></trkpt><trkpt lat="37.803909376888406" lon="14.632296588473196"><ele>802.5</ele><time>2026-04-19T08:36:41.001Z</time></trkpt><trkpt lat="37.80399609573911" lon="14.632184299236558"><ele>803.0</ele><time>2026-04-19T08:36:42.001Z</time></trkpt><trkpt lat="37.804068839516326" lon="14.632066889632906"><ele>803.5</ele><time>2026-04-19T08:36:43.001Z</time></trkpt><trkpt lat="37.804116771873154" lon="14.631934735968052"><ele>804.0</ele><time>2026-04-19T08:36:44.001Z</time></trkpt><trkpt lat="37.8041262581342" lon="14.631781592339589"><ele>804.25</ele><time>2026-04-19T08:36:45.001Z</time></trkpt><trkpt lat="37.80411018994434" lon="14.631616692164563"><ele>804.5</ele><time>2026-04-19T08:36:46.002Z</time></trkpt><trkpt lat="37.804085421836575" lon="14.631459344135612"><ele>804.75</ele><time>2026-04-19T08:36:47.002Z</time></trkpt><trkpt lat="37.80405246251116" lon="14.631296798547485"><ele>805.0</ele><time>2026-04-19T08:36:48.002Z</time></trkpt><trkpt lat="37.804004597009495" lon="14.63113171742849"><ele>805.0</ele><time>2026-04-19T08:36:49.002Z</time></trkpt><trkpt lat="37.80391724794253" lon="14.630964641598071"><ele>805.0</ele><time>2026-04-19T08:36:50.002Z</time></trkpt><trkpt lat="37.80381274159596" lon="14.630799798794083"><ele>805.0</ele><time>2026-04-19T08:36:51.002Z</time></trkpt><trkpt lat="37.803706534587945" lon="14.630638094372703"><ele>805.0</ele><time>2026-04-19T08:36:52.002Z</time></trkpt><trkpt lat="37.80362021644092" lon="14.630477274062583"><ele>805.0</ele><time>2026-04-19T08:36:53.002Z</time></trkpt><trkpt lat="37.80354825138551" lon="14.63031895118347"><ele>805.0</ele><time>2026-04-19T08:36:54.002Z</time></trkpt><trkpt lat="37.803496119295" lon="14.630156050224132"><ele>805.0</ele><time>2026-04-19T08:36:55.002Z</time></trkpt><trkpt lat="37.80345696381965" lon="14.629999035228364"><ele>808.25</ele><time>2026-04-19T08:36:56.002Z</time></trkpt><trkpt lat="37.803403065153766" lon="14.629846024444165"><ele>811.5</ele><time>2026-04-19T08:36:57.002Z</time></trkpt><trkpt lat="37.803307139687746" lon="14.629708052858264"><ele>814.75</ele><time>2026-04-19T08:36:58.002Z</time></trkpt><trkpt lat="37.80322425275574" lon="14.629575465509808"><ele>818.0</ele><time>2026-04-19T08:36:59.002Z</time></trkpt><trkpt lat="37.803167366851156" lon="14.629426806462245"><ele>818.0</ele><time>2026-04-19T08:37:00.002Z</time></trkpt><trkpt lat="37.80313624902125" lon="14.629261810504977"><ele>818.0</ele><time>2026-04-19T08:37:01.002Z</time></trkpt><trkpt lat="37.80312032421229" lon="14.629094142833814"><ele>818.0</ele><time>2026-04-19T08:37:02.002Z</time></trkpt><trkpt lat="37.80308865392408" lon="14.628926307587141"><ele>818.0</ele><time>2026-04-19T08:37:03.002Z</time></trkpt><trkpt lat="37.803022745201496" lon="14.628761931738525"><ele>816.75</ele><time>2026-04-19T08:37:04.002Z</time></trkpt><trkpt lat="37.80295230372092" lon="14.62861098222968"><ele>815.5</ele><time>2026-04-19T08:37:05.002Z</time></trkpt><trkpt lat="37.802886147966035" lon="14.62846263096367"><ele>814.25</ele><time>2026-04-19T08:37:06.002Z</time></trkpt><trkpt lat="37.802832812846205" lon="14.628312122949454"><ele>813.0</ele><time>2026-04-19T08:37:07.002Z</time></trkpt><trkpt lat="37.80277193928853" lon="14.628168695734576"><ele>813.0</ele><time>2026-04-19T08:37:08.002Z</time></trkpt><trkpt lat="37.80268710173081" lon="14.628038480341168"><ele>813.0</ele><time>2026-04-19T08:37:09.002Z</time></trkpt><trkpt lat="37.8025866123938" lon="14.627924718174553"><ele>813.0</ele><time>2026-04-19T08:37:10.002Z</time></trkpt><trkpt lat="37.80249086862843" lon="14.62783012744206"><ele>813.0</ele><time>2026-04-19T08:37:11.002Z</time></trkpt><trkpt lat="37.80240786833114" lon="14.627743099515678"><ele>816.0</ele><time>2026-04-19T08:37:12.002Z</time></trkpt><trkpt lat="37.802340916920514" lon="14.62764740364746"><ele>819.0</ele><time>2026-04-19T08:37:13.002Z</time></trkpt><trkpt lat="37.802295498452935" lon="14.627533304911925"><ele>822.0</ele><time>2026-04-19T08:37:14.002Z</time></trkpt><trkpt lat="37.80228398930328" lon="14.627390252536633"><ele>825.0</ele><time>2026-04-19T08:37:15.002Z</time></trkpt><trkpt lat="37.8023033876153" lon="14.627242951378985"><ele>828.0</ele><time>2026-04-19T08:37:16.002Z</time></trkpt><trkpt lat="37.80234550879235" lon="14.627095380009466"><ele>828.75</ele><time>2026-04-19T08:37:17.002Z</time></trkpt><trkpt lat="37.80239039873982" lon="14.626945125597793"><ele>829.5</ele><time>2026-04-19T08:37:18.002Z</time></trkpt><trkpt lat="37.80243657552047" lon="14.626794238098945"><ele>830.25</ele><time>2026-04-19T08:37:19.002Z</time></trkpt><trkpt lat="37.8024749353007" lon="14.626638368351422"><ele>831.0</ele><time>2026-04-19T08:37:20.002Z</time></trkpt><trkpt lat="37.80249415963703" lon="14.626485904407412"><ele>831.0</ele><time>2026-04-19T08:37:21.002Z</time></trkpt><trkpt lat="37.80247930160834" lon="14.626334708759593"><ele>831.0</ele><time>2026-04-19T08:37:22.002Z</time></trkpt><trkpt lat="37.802426060845946" lon="14.626204693235282"><ele>831.0</ele><time>2026-04-19T08:37:23.002Z</time></trkpt><trkpt lat="37.80233243501412" lon="14.62610477911685"><ele>831.0</ele><time>2026-04-19T08:37:24.002Z</time></trkpt><trkpt lat="37.80222353831344" lon="14.626022314492129"><ele>829.75</ele><time>2026-04-19T08:37:25.002Z</time></trkpt><trkpt lat="37.80211131350097" lon="14.625942491696948"><ele>828.5</ele><time>2026-04-19T08:37:26.002Z</time></trkpt><trkpt lat="37.802003440562856" lon="14.625858973083897"><ele>827.25</ele><time>2026-04-19T08:37:27.002Z</time></trkpt><trkpt lat="37.80189689913881" lon="14.625782191039496"><ele>826.0</ele><time>2026-04-19T08:37:28.002Z</time></trkpt><trkpt lat="37.80178203702118" lon="14.6257100090037"><ele>830.75</ele><time>2026-04-19T08:37:29.003Z</time></trkpt><trkpt lat="37.80165230363947" lon="14.62565931423734"><ele>835.5</ele><time>2026-04-19T08:37:30.003Z</time></trkpt><trkpt lat="37.801502691221984" lon="14.625635499220811"><ele>840.25</ele><time>2026-04-19T08:37:31.003Z</time></trkpt><trkpt lat="37.801340309446246" lon="14.625637619586431"><ele>845.0</ele><time>2026-04-19T08:37:32.003Z</time></trkpt><trkpt lat="37.80119067862571" lon="14.62563752247943"><ele>845.0</ele><time>2026-04-19T08:37:33.003Z</time></trkpt><trkpt lat="37.801046977179944" lon="14.625605341957916"><ele>845.0</ele><time>2026-04-19T08:37:34.003Z</time></trkpt><trkpt lat="37.800908417973666" lon="14.625546354885575"><ele>845.0</ele><time>2026-04-19T08:37:35.003Z</time></trkpt><trkpt lat="37.80076672711523" lon="14.625487577642229"><ele>845.0</ele><time>2026-04-19T08:37:36.003Z</time></trkpt><trkpt lat="37.80061434029737" lon="14.625436557993183"><ele>844.0</ele><time>2026-04-19T08:37:37.003Z</time></trkpt><trkpt lat="37.8004631527608" lon="14.625386472299228"><ele>843.0</ele><time>2026-04-19T08:37:38.003Z</time></trkpt><trkpt lat="37.80031637396015" lon="14.625337223788312"><ele>842.0</ele><time>2026-04-19T08:37:39.003Z</time></trkpt><trkpt lat="37.80017508351501" lon="14.625295014896944"><ele>844.25</ele><time>2026-04-19T08:37:40.003Z</time></trkpt><trkpt lat="37.80004113957441" lon="14.625246712906868"><ele>846.5</ele><time>2026-04-19T08:37:41.003Z</time></trkpt><trkpt lat="37.79991160692234" lon="14.625205043019763"><ele>848.75</ele><time>2026-04-19T08:37:42.003Z</time></trkpt><trkpt lat="37.79978075076579" lon="14.625188445801689"><ele>851.0</ele><time>2026-04-19T08:37:43.003Z</time></trkpt><trkpt lat="37.79964632642283" lon="14.62522314829752"><ele>851.0</ele><time>2026-04-19T08:37:44.003Z</time></trkpt><trkpt lat="37.799505839135755" lon="14.625267076670642"><ele>851.0</ele><time>2026-04-19T08:37:45.003Z</time></trkpt><trkpt lat="37.79936754981173" lon="14.625306255651628"><ele>851.0</ele><time>2026-04-19T08:37:46.003Z</time></trkpt><trkpt lat="37.79922614180422" lon="14.625343768632463"><ele>851.0</ele><time>2026-04-19T08:37:47.003Z</time></trkpt><trkpt lat="37.79909258576949" lon="14.62538356127725"><ele>853.75</ele><time>2026-04-19T08:37:48.003Z</time></trkpt><trkpt lat="37.79896487682789" lon="14.62542114645493"><ele>856.5</ele><time>2026-04-19T08:37:49.003Z</time></trkpt><trkpt lat="37.7988459609836" lon="14.625452939179116"><ele>859.25</ele><time>2026-04-19T08:37:50.003Z</time></trkpt><trkpt lat="37.7987347372768" lon="14.625465574630992"><ele>862.0</ele><time>2026-04-19T08:37:51.003Z</time></trkpt><trkpt lat="37.798625734879344" lon="14.625452911629555"><ele>862.0</ele><time>2026-04-19T08:37:52.003Z</time></trkpt><trkpt lat="37.79851590534028" lon="14.625403490331841"><ele>862.0</ele><time>2026-04-19T08:37:53.003Z</time></trkpt><trkpt lat="37.798412226016715" lon="14.625325998890398"><ele>862.0</ele><time>2026-04-19T08:37:54.002Z</time></trkpt><trkpt lat="37.7983188504393" lon="14.625218510858941"><ele>862.0</ele><time>2026-04-19T08:37:55Z</time></trkpt><trkpt lat="37.798231580192905" lon="14.625096027882595"><ele>863.0</ele><time>2026-04-19T08:37:56Z</time></trkpt><trkpt lat="37.79815064654687" lon="14.624945419364456"><ele>864.0</ele><time>2026-04-19T08:37:57Z</time></trkpt><trkpt lat="37.79806606533759" lon="14.624784982718468"><ele>865.0</ele><time>2026-04-19T08:37:58Z</time></trkpt><trkpt lat="37.797979560368326" lon="14.624628014401464"><ele>866.0</ele><time>2026-04-19T08:37:59Z</time></trkpt><trkpt lat="37.797892279041726" lon="14.624472737987844"><ele>867.25</ele><time>2026-04-19T08:38:00Z</time></trkpt><trkpt lat="37.79781104083414" lon="14.62432526646653"><ele>868.5</ele><time>2026-04-19T08:38:01Z</time></trkpt><trkpt lat="37.79773320335283" lon="14.624189145009579"><ele>869.75</ele><time>2026-04-19T08:38:02Z</time></trkpt><trkpt lat="37.797652355646626" lon="14.624063118143317"><ele>871.0</ele><time>2026-04-19T08:38:03Z</time></trkpt><trkpt lat="37.797544568574594" lon="14.623969176133684"><ele>871.0</ele><time>2026-04-19T08:38:04Z</time></trkpt><trkpt lat="37.79741627303635" lon="14.623916594354752"><ele>871.0</ele><time>2026-04-19T08:38:05Z</time></trkpt><trkpt lat="37.79727623238351" lon="14.623921627982503"><ele>871.0</ele><time>2026-04-19T08:38:06Z</time></trkpt><trkpt lat="37.79714190835401" lon="14.623967961531392"><ele>871.0</ele><time>2026-04-19T08:38:06.999Z</time></trkpt><trkpt lat="37.797012076733736" lon="14.624049727406481"><ele>871.0</ele><time>2026-04-19T08:38:07.999Z</time></trkpt><trkpt lat="37.79689066457522" lon="14.62409501746905"><ele>871.0</ele><time>2026-04-19T08:38:08.999Z</time></trkpt><trkpt lat="37.796786604225225" lon="14.62421404602012"><ele>871.0</ele><time>2026-04-19T08:38:09.999Z</time></trkpt><trkpt lat="37.79667730021635" lon="14.624297670137716"><ele>871.0</ele><time>2026-04-19T08:38:10.999Z</time></trkpt><trkpt lat="37.79656192121341" lon="14.6243692000904"><ele>870.25</ele><time>2026-04-19T08:38:11.999Z</time></trkpt><trkpt lat="37.79643507609678" lon="14.624414202396329"><ele>869.5</ele><time>2026-04-19T08:38:12.999Z</time></trkpt><trkpt lat="37.79629937147554" lon="14.62445528555335"><ele>868.75</ele><time>2026-04-19T08:38:13.999Z</time></trkpt><trkpt lat="37.79616271669254" lon="14.624483008585486"><ele>868.0</ele><time>2026-04-19T08:38:14.999Z</time></trkpt><trkpt lat="37.796047581609756" lon="14.624518265934052"><ele>869.0</ele><time>2026-04-19T08:38:15.999Z</time></trkpt><trkpt lat="37.79593849329794" lon="14.624543104001333"><ele>870.0</ele><time>2026-04-19T08:38:16.999Z</time></trkpt><trkpt lat="37.795840670187424" lon="14.624561504278217"><ele>871.0</ele><time>2026-04-19T08:38:17.999Z</time></trkpt><trkpt lat="37.7957259420577" lon="14.624556760969018"><ele>872.0</ele><time>2026-04-19T08:38:18.999Z</time></trkpt><trkpt lat="37.7956193167573" lon="14.624505624999145"><ele>873.0</ele><time>2026-04-19T08:38:19.999Z</time></trkpt><trkpt lat="37.79552069028884" lon="14.624408000456674"><ele>876.25</ele><time>2026-04-19T08:38:21Z</time></trkpt><trkpt lat="37.79544317365699" lon="14.624271857168397"><ele>879.5</ele><time>2026-04-19T08:38:22Z</time></trkpt><trkpt lat="37.7954036736306" lon="14.624118452165314"><ele>882.75</ele><time>2026-04-19T08:38:23Z</time></trkpt><trkpt lat="37.79537256854923" lon="14.623962996460472"><ele>886.0</ele><time>2026-04-19T08:38:24Z</time></trkpt><trkpt lat="37.79532746369054" lon="14.623810328046158"><ele>886.0</ele><time>2026-04-19T08:38:25Z</time></trkpt><trkpt lat="37.79527285864947" lon="14.623666233710754"><ele>886.0</ele><time>2026-04-19T08:38:26Z</time></trkpt><trkpt lat="37.79522133932806" lon="14.623523855147152"><ele>886.0</ele><time>2026-04-19T08:38:27Z</time></trkpt><trkpt lat="37.79517100349158" lon="14.623394960162011"><ele>886.0</ele><time>2026-04-19T08:38:28Z</time></trkpt><trkpt lat="37.7951249244141" lon="14.62328805540926"><ele>885.4</ele><time>2026-04-19T08:38:29Z</time></trkpt><trkpt lat="37.79508863630051" lon="14.623193658634923"><ele>884.8</ele><time>2026-04-19T08:38:30Z</time></trkpt><trkpt lat="37.79508112408878" lon="14.623098445835344"><ele>884.1999999999999</ele><time>2026-04-19T08:38:31Z</time></trkpt><trkpt lat="37.79512237022909" lon="14.622997502895604"><ele>883.5999999999999</ele><time>2026-04-19T08:38:32Z</time></trkpt><trkpt lat="37.79519839914641" lon="14.622917339784497"><ele>883.0</ele><time>2026-04-19T08:38:33Z</time></trkpt><trkpt lat="37.795300354625844" lon="14.622898424904859"><ele>886.25</ele><time>2026-04-19T08:38:34Z</time></trkpt><trkpt lat="37.795410056354875" lon="14.622941723596082"><ele>889.5</ele><time>2026-04-19T08:38:35Z</time></trkpt><trkpt lat="37.795502922905065" lon="14.623029466815627"><ele>892.75</ele><time>2026-04-19T08:38:36Z</time></trkpt><trkpt lat="37.79560060741177" lon="14.623121677042901"><ele>896.0</ele><time>2026-04-19T08:38:37Z</time></trkpt><trkpt lat="37.79571500381544" lon="14.623216955396927"><ele>896.0</ele><time>2026-04-19T08:38:38Z</time></trkpt><trkpt lat="37.79581497125983" lon="14.623295393518035"><ele>896.0</ele><time>2026-04-19T08:38:39Z</time></trkpt><trkpt lat="37.79592095216697" lon="14.623371896715488"><ele>896.0</ele><time>2026-04-19T08:38:40Z</time></trkpt><trkpt lat="37.79602536954003" lon="14.623433821879518"><ele>896.0</ele><time>2026-04-19T08:38:41Z</time></trkpt><trkpt lat="37.796141739737756" lon="14.623439224524876"><ele>893.75</ele><time>2026-04-19T08:38:42Z</time></trkpt><trkpt lat="37.796259414657975" lon="14.623387891531229"><ele>891.5</ele><time>2026-04-19T08:38:43Z</time></trkpt><trkpt lat="37.7963561143296" lon="14.623287579547256"><ele>889.25</ele><time>2026-04-19T08:38:44Z</time></trkpt><trkpt lat="37.79642651938835" lon="14.623151317602899"><ele>887.0</ele><time>2026-04-19T08:38:45Z</time></trkpt><trkpt lat="37.79649432277355" lon="14.62301490478182"><ele>887.0</ele><time>2026-04-19T08:38:46Z</time></trkpt><trkpt lat="37.79657327489238" lon="14.622888429394482"><ele>887.0</ele><time>2026-04-19T08:38:47Z</time></trkpt><trkpt lat="37.796668024856835" lon="14.622773136478283"><ele>887.0</ele><time>2026-04-19T08:38:48Z</time></trkpt><trkpt lat="37.79674813503077" lon="14.622649052450582"><ele>887.0</ele><time>2026-04-19T08:38:49Z</time></trkpt><trkpt lat="37.79682906389813" lon="14.622523948826515"><ele>889.75</ele><time>2026-04-19T08:38:50Z</time></trkpt><trkpt lat="37.796918744859866" lon="14.622400439878907"><ele>892.5</ele><time>2026-04-19T08:38:51.001Z</time></trkpt><trkpt lat="37.79701179892305" lon="14.622296596557241"><ele>895.25</ele><time>2026-04-19T08:38:52.001Z</time></trkpt><trkpt lat="37.797122792145714" lon="14.622207770860673"><ele>898.0</ele><time>2026-04-19T08:38:53.001Z</time></trkpt><trkpt lat="37.7972445049142" lon="14.622153340045394"><ele>898.0</ele><time>2026-04-19T08:38:54.001Z</time></trkpt><trkpt lat="37.797367687194736" lon="14.62210324665617"><ele>898.0</ele><time>2026-04-19T08:38:55.001Z</time></trkpt><trkpt lat="37.79748483157497" lon="14.62204414907651"><ele>898.0</ele><time>2026-04-19T08:38:56.001Z</time></trkpt><trkpt lat="37.79759839688136" lon="14.621976779792547"><ele>898.0</ele><time>2026-04-19T08:38:57.001Z</time></trkpt><trkpt lat="37.79770723761908" lon="14.621895086864424"><ele>898.0</ele><time>2026-04-19T08:38:58.001Z</time></trkpt><trkpt lat="37.79780562909064" lon="14.621778387191654"><ele>898.0</ele><time>2026-04-19T08:38:59.001Z</time></trkpt><trkpt lat="37.79789299480676" lon="14.621618909009962"><ele>898.0</ele><time>2026-04-19T08:39:00.001Z</time></trkpt><trkpt lat="37.79796966062005" lon="14.621457438807328"><ele>898.0</ele><time>2026-04-19T08:39:01.001Z</time></trkpt><trkpt lat="37.79802178369366" lon="14.621288766702328"><ele>899.75</ele><time>2026-04-19T08:39:02.001Z</time></trkpt><trkpt lat="37.7980570285594" lon="14.621109146535956"><ele>901.5</ele><time>2026-04-19T08:39:03.001Z</time></trkpt><trkpt lat="37.79809061819678" lon="14.620953384662135"><ele>903.25</ele><time>2026-04-19T08:39:04.001Z</time></trkpt><trkpt lat="37.798111183792656" lon="14.620778857039243"><ele>905.0</ele><time>2026-04-19T08:39:05.001Z</time></trkpt><trkpt lat="37.798096122412936" lon="14.620624006866187"><ele>905.0</ele><time>2026-04-19T08:39:06.001Z</time></trkpt><trkpt lat="37.798050381787476" lon="14.620444946724604"><ele>905.0</ele><time>2026-04-19T08:39:07.001Z</time></trkpt><trkpt lat="37.798004495867886" lon="14.62028957995132"><ele>905.0</ele><time>2026-04-19T08:39:08.001Z</time></trkpt><trkpt lat="37.79796938432234" lon="14.620127959997518"><ele>905.0</ele><time>2026-04-19T08:39:09.001Z</time></trkpt><trkpt lat="37.797959271019806" lon="14.619980418932464"><ele>907.5</ele><time>2026-04-19T08:39:10.001Z</time></trkpt><trkpt lat="37.797994893173595" lon="14.61983652481719"><ele>910.0</ele><time>2026-04-19T08:39:11.001Z</time></trkpt><trkpt lat="37.79807403205527" lon="14.61972052794222"><ele>912.5</ele><time>2026-04-19T08:39:12.001Z</time></trkpt><trkpt lat="37.79818399486606" lon="14.619643085968988"><ele>915.0</ele><time>2026-04-19T08:39:13.001Z</time></trkpt><trkpt lat="37.79830825777571" lon="14.61958545706847"><ele>915.0</ele><time>2026-04-19T08:39:14.001Z</time></trkpt><trkpt lat="37.79841878123987" lon="14.619527407033804"><ele>915.0</ele><time>2026-04-19T08:39:15.001Z</time></trkpt><trkpt lat="37.79852626643217" lon="14.619459746097382"><ele>915.0</ele><time>2026-04-19T08:39:16.001Z</time></trkpt><trkpt lat="37.79862374486051" lon="14.61938384393884"><ele>915.0</ele><time>2026-04-19T08:39:17.001Z</time></trkpt><trkpt lat="37.7986870542775" lon="14.619259636911892"><ele>912.75</ele><time>2026-04-19T08:39:18.001Z</time></trkpt><trkpt lat="37.79868114850756" lon="14.619092494631898"><ele>910.5</ele><time>2026-04-19T08:39:19.001Z</time></trkpt><trkpt lat="37.79866802823266" lon="14.61892421612145"><ele>908.25</ele><time>2026-04-19T08:39:20.001Z</time></trkpt><trkpt lat="37.79866653967775" lon="14.61876087195722"><ele>906.0</ele><time>2026-04-19T08:39:21.001Z</time></trkpt><trkpt lat="37.79867492315345" lon="14.618601779785102"><ele>910.5</ele><time>2026-04-19T08:39:22.001Z</time></trkpt><trkpt lat="37.798690296930985" lon="14.618428317503383"><ele>915.0</ele><time>2026-04-19T08:39:23.001Z</time></trkpt><trkpt lat="37.79869848475574" lon="14.618262622680959"><ele>919.5</ele><time>2026-04-19T08:39:24.001Z</time></trkpt><trkpt lat="37.798703722810615" lon="14.618109169525775"><ele>924.0</ele><time>2026-04-19T08:39:25.001Z</time></trkpt><trkpt lat="37.798680465675446" lon="14.61796618157555"><ele>924.0</ele><time>2026-04-19T08:39:26.001Z</time></trkpt><trkpt lat="37.79860140806507" lon="14.617849860760698"><ele>924.0</ele><time>2026-04-19T08:39:27.001Z</time></trkpt><trkpt lat="37.7984944717096" lon="14.61778076102004"><ele>924.0</ele><time>2026-04-19T08:39:28.001Z</time></trkpt><trkpt lat="37.798384041411445" lon="14.617772488507994"><ele>924.0</ele><time>2026-04-19T08:39:29.001Z</time></trkpt><trkpt lat="37.79827053090835" lon="14.61783108153238"><ele>924.75</ele><time>2026-04-19T08:39:30.001Z</time></trkpt><trkpt lat="37.79814796900696" lon="14.617888732717494"><ele>925.5</ele><time>2026-04-19T08:39:31.001Z</time></trkpt><trkpt lat="37.79802058942782" lon="14.61793915879007"><ele>926.25</ele><time>2026-04-19T08:39:32.001Z</time></trkpt><trkpt lat="37.79788690942938" lon="14.617990987833846"><ele>927.0</ele><time>2026-04-19T08:39:33.002Z</time></trkpt><trkpt lat="37.79774331988587" lon="14.618027277211135"><ele>928.75</ele><time>2026-04-19T08:39:34.002Z</time></trkpt><trkpt lat="37.79760604739316" lon="14.618078276832044"><ele>930.5</ele><time>2026-04-19T08:39:35.002Z</time></trkpt><trkpt lat="37.7974679177695" lon="14.61812329707161"><ele>932.25</ele><time>2026-04-19T08:39:36.002Z</time></trkpt><trkpt lat="37.79733379110709" lon="14.618177141827978"><ele>934.0</ele><time>2026-04-19T08:39:37.002Z</time></trkpt><trkpt lat="37.79720022130908" lon="14.618224705563469"><ele>934.0</ele><time>2026-04-19T08:39:38.002Z</time></trkpt><trkpt lat="37.79708553545169" lon="14.618247697813805"><ele>934.0</ele><time>2026-04-19T08:39:39.002Z</time></trkpt><trkpt lat="37.796951974818285" lon="14.618279722771375"><ele>934.0</ele><time>2026-04-19T08:39:40.002Z</time></trkpt><trkpt lat="37.79681979668013" lon="14.618276586956535"><ele>934.0</ele><time>2026-04-19T08:39:41.002Z</time></trkpt><trkpt lat="37.796679974509004" lon="14.618229683976011"><ele>935.25</ele><time>2026-04-19T08:39:42.002Z</time></trkpt><trkpt lat="37.79654992446116" lon="14.61817494834467"><ele>936.5</ele><time>2026-04-19T08:39:43.002Z</time></trkpt><trkpt lat="37.79642392585674" lon="14.61812109170293"><ele>937.75</ele><time>2026-04-19T08:39:44.002Z</time></trkpt><trkpt lat="37.796301229769675" lon="14.618067171812374"><ele>939.0</ele><time>2026-04-19T08:39:45.002Z</time></trkpt><trkpt lat="37.79618377049304" lon="14.61801728054043"><ele>939.0</ele><time>2026-04-19T08:39:46.002Z</time></trkpt><trkpt lat="37.7960723704158" lon="14.617965091942272"><ele>939.0</ele><time>2026-04-19T08:39:47.002Z</time></trkpt><trkpt lat="37.79596950690805" lon="14.61788806174338"><ele>939.0</ele><time>2026-04-19T08:39:48.002Z</time></trkpt><trkpt lat="37.79587628023977" lon="14.61777868250333"><ele>939.0</ele><time>2026-04-19T08:39:49.002Z</time></trkpt><trkpt lat="37.79578699071737" lon="14.617657993750237"><ele>937.5</ele><time>2026-04-19T08:39:50.002Z</time></trkpt><trkpt lat="37.79570440912523" lon="14.617534267745466"><ele>936.0</ele><time>2026-04-19T08:39:51.002Z</time></trkpt><trkpt lat="37.795635616098075" lon="14.617405095258665"><ele>934.5</ele><time>2026-04-19T08:39:52.002Z</time></trkpt><trkpt lat="37.79558632172045" lon="14.617256598254768"><ele>933.0</ele><time>2026-04-19T08:39:53.002Z</time></trkpt><trkpt lat="37.795564993738665" lon="14.617092030561963"><ele>930.75</ele><time>2026-04-19T08:39:54.002Z</time></trkpt><trkpt lat="37.79555140431829" lon="14.61692383537926"><ele>928.5</ele><time>2026-04-19T08:39:55.002Z</time></trkpt><trkpt lat="37.79553584872012" lon="14.616750942328881"><ele>926.25</ele><time>2026-04-19T08:39:56.002Z</time></trkpt><trkpt lat="37.7955167287899" lon="14.616577970971424"><ele>924.0</ele><time>2026-04-19T08:39:57.002Z</time></trkpt><trkpt lat="37.79549834219884" lon="14.616405919393914"><ele>924.0</ele><time>2026-04-19T08:39:58.002Z</time></trkpt><trkpt lat="37.795499148490386" lon="14.616240904578204"><ele>924.0</ele><time>2026-04-19T08:39:59.002Z</time></trkpt><trkpt lat="37.795523869734296" lon="14.616080764969649"><ele>924.0</ele><time>2026-04-19T08:40:00.002Z</time></trkpt><trkpt lat="37.79556975580531" lon="14.615914055327401"><ele>924.0</ele><time>2026-04-19T08:40:01Z</time></trkpt><trkpt lat="37.79563998620435" lon="14.615752414808476"><ele>926.0</ele><time>2026-04-19T08:40:02Z</time></trkpt><trkpt lat="37.79573321434598" lon="14.61558481630862"><ele>928.0</ele><time>2026-04-19T08:40:03Z</time></trkpt><trkpt lat="37.79582244339943" lon="14.615433261616154"><ele>930.0</ele><time>2026-04-19T08:40:04Z</time></trkpt><trkpt lat="37.795889681056394" lon="14.61528942430765"><ele>932.0</ele><time>2026-04-19T08:40:05Z</time></trkpt><trkpt lat="37.79595554940403" lon="14.615160528491408"><ele>932.2</ele><time>2026-04-19T08:40:06Z</time></trkpt><trkpt lat="37.79603595256723" lon="14.615060239233562"><ele>932.4000000000001</ele><time>2026-04-19T08:40:07Z</time></trkpt><trkpt lat="37.79613095506359" lon="14.614982460588298"><ele>932.5999999999999</ele><time>2026-04-19T08:40:08Z</time></trkpt><trkpt lat="37.796245121696316" lon="14.614945450511055"><ele>932.8</ele><time>2026-04-19T08:40:09Z</time></trkpt><trkpt lat="37.79635000005141" lon="14.61494320868492"><ele>933.0</ele><time>2026-04-19T08:40:10Z</time></trkpt><trkpt lat="37.79644260122194" lon="14.614986940003122"><ele>933.0</ele><time>2026-04-19T08:40:11Z</time></trkpt><trkpt lat="37.79653004864491" lon="14.614999932800547"><ele>933.0</ele><time>2026-04-19T08:40:12Z</time></trkpt><trkpt lat="37.79660686824648" lon="14.614935568294499"><ele>933.0</ele><time>2026-04-19T08:40:13Z</time></trkpt><trkpt lat="37.79666340750626" lon="14.614823024682597"><ele>933.0</ele><time>2026-04-19T08:40:14Z</time></trkpt><trkpt lat="37.796691983484735" lon="14.614660316587901"><ele>933.0</ele><time>2026-04-19T08:40:15Z</time></trkpt><trkpt lat="37.79671872750697" lon="14.61449842555411"><ele>935.5</ele><time>2026-04-19T08:40:16Z</time></trkpt><trkpt lat="37.796744933938186" lon="14.61436196071005"><ele>938.0</ele><time>2026-04-19T08:40:17Z</time></trkpt><trkpt lat="37.79675620842872" lon="14.614229829677118"><ele>940.5</ele><time>2026-04-19T08:40:18Z</time></trkpt><trkpt lat="37.79670557923143" lon="14.61409373706737"><ele>943.0</ele><time>2026-04-19T08:40:19Z</time></trkpt><trkpt lat="37.796617794318635" lon="14.613956408415728"><ele>943.0</ele><time>2026-04-19T08:40:20Z</time></trkpt><trkpt lat="37.7965278161604" lon="14.613827085319626"><ele>943.0</ele><time>2026-04-19T08:40:21Z</time></trkpt><trkpt lat="37.79644205647738" lon="14.613693748146698"><ele>943.0</ele><time>2026-04-19T08:40:22Z</time></trkpt><trkpt lat="37.79635956499985" lon="14.613548858342755"><ele>943.0</ele><time>2026-04-19T08:40:23Z</time></trkpt><trkpt lat="37.79628016780026" lon="14.613407247380467"><ele>941.0</ele><time>2026-04-19T08:40:24Z</time></trkpt><trkpt lat="37.79619159324058" lon="14.613275461540269"><ele>939.0</ele><time>2026-04-19T08:40:25Z</time></trkpt><trkpt lat="37.796081794888266" lon="14.61316505445275"><ele>937.0</ele><time>2026-04-19T08:40:26Z</time></trkpt><trkpt lat="37.7959495381898" lon="14.613078297922842"><ele>935.0</ele><time>2026-04-19T08:40:27Z</time></trkpt><trkpt lat="37.79582211426253" lon="14.612999950443793"><ele>938.8</ele><time>2026-04-19T08:40:28Z</time></trkpt><trkpt lat="37.795715941293835" lon="14.612933595247132"><ele>942.6</ele><time>2026-04-19T08:40:29Z</time></trkpt><trkpt lat="37.7956189416964" lon="14.612867333676054"><ele>946.4000000000001</ele><time>2026-04-19T08:40:30Z</time></trkpt><trkpt lat="37.795540220640916" lon="14.61277633830188"><ele>950.2</ele><time>2026-04-19T08:40:31Z</time></trkpt><trkpt lat="37.79549534746208" lon="14.612654851084491"><ele>954.0</ele><time>2026-04-19T08:40:32Z</time></trkpt><trkpt lat="37.795480006013925" lon="14.612507591157412"><ele>954.0</ele><time>2026-04-19T08:40:33Z</time></trkpt><trkpt lat="37.79546547974535" lon="14.612341986274682"><ele>954.0</ele><time>2026-04-19T08:40:34Z</time></trkpt><trkpt lat="37.79543878867934" lon="14.61218627426867"><ele>954.0</ele><time>2026-04-19T08:40:35Z</time></trkpt><trkpt lat="37.79542391891801" lon="14.612024672617409"><ele>954.0</ele><time>2026-04-19T08:40:36Z</time></trkpt><trkpt lat="37.79540986858427" lon="14.611852705541954"><ele>954.25</ele><time>2026-04-19T08:40:37Z</time></trkpt><trkpt lat="37.79539115533575" lon="14.611682864687024"><ele>954.5</ele><time>2026-04-19T08:40:38Z</time></trkpt><trkpt lat="37.795378118889374" lon="14.611514177605871"><ele>954.75</ele><time>2026-04-19T08:40:39Z</time></trkpt><trkpt lat="37.795367023473" lon="14.611350273230848"><ele>955.0</ele><time>2026-04-19T08:40:40Z</time></trkpt><trkpt lat="37.7953547706177" lon="14.611189475378627"><ele>953.25</ele><time>2026-04-19T08:40:41Z</time></trkpt><trkpt lat="37.79534091155852" lon="14.61103620398852"><ele>951.5</ele><time>2026-04-19T08:40:42Z</time></trkpt><trkpt lat="37.79530003988372" lon="14.610890434635849"><ele>949.75</ele><time>2026-04-19T08:40:43Z</time></trkpt><trkpt lat="37.795223620935175" lon="14.610759032925582"><ele>948.0</ele><time>2026-04-19T08:40:44Z</time></trkpt><trkpt lat="37.795121823169225" lon="14.610646509199878"><ele>952.25</ele><time>2026-04-19T08:40:45Z</time></trkpt><trkpt lat="37.79501249649492" lon="14.61055309556682"><ele>956.5</ele><time>2026-04-19T08:40:46Z</time></trkpt><trkpt lat="37.79491022133071" lon="14.610455463328833"><ele>960.75</ele><time>2026-04-19T08:40:47Z</time></trkpt><trkpt lat="37.79484800744515" lon="14.610322427710782"><ele>965.0</ele><time>2026-04-19T08:40:48Z</time></trkpt><trkpt lat="37.794832035817294" lon="14.6101833007142"><ele>965.0</ele><time>2026-04-19T08:40:49.001Z</time></trkpt><trkpt lat="37.79486466521652" lon="14.610045817902176"><ele>965.0</ele><time>2026-04-19T08:40:50.001Z</time></trkpt><trkpt lat="37.794877113682425" lon="14.609890111862557"><ele>965.0</ele><time>2026-04-19T08:40:51.001Z</time></trkpt><trkpt lat="37.794882261267624" lon="14.609711842235725"><ele>965.0</ele><time>2026-04-19T08:40:52.001Z</time></trkpt><trkpt lat="37.79486249401389" lon="14.609560343770426"><ele>965.25</ele><time>2026-04-19T08:40:53.001Z</time></trkpt><trkpt lat="37.794833454644916" lon="14.609406429675358"><ele>965.5</ele><time>2026-04-19T08:40:54.001Z</time></trkpt><trkpt lat="37.7947995632231" lon="14.609249171078206"><ele>965.75</ele><time>2026-04-19T08:40:55.001Z</time></trkpt><trkpt lat="37.794758540766345" lon="14.60910797206116"><ele>966.0</ele><time>2026-04-19T08:40:56.001Z</time></trkpt><trkpt lat="37.79469346434721" lon="14.608982871663606"><ele>966.0</ele><time>2026-04-19T08:40:57.001Z</time></trkpt><trkpt lat="37.794605927119385" lon="14.608861814863033"><ele>966.0</ele><time>2026-04-19T08:40:58.001Z</time></trkpt><trkpt lat="37.794507404610364" lon="14.608729023932502"><ele>966.0</ele><time>2026-04-19T08:40:59.001Z</time></trkpt><trkpt lat="37.794410856989884" lon="14.608593012812909"><ele>966.0</ele><time>2026-04-19T08:41:00.001Z</time></trkpt><trkpt lat="37.79430187548675" lon="14.608464970506965"><ele>969.75</ele><time>2026-04-19T08:41:01.001Z</time></trkpt><trkpt lat="37.79421341770872" lon="14.60833764607624"><ele>973.5</ele><time>2026-04-19T08:41:02.001Z</time></trkpt><trkpt lat="37.79413397234832" lon="14.608229562813717"><ele>977.25</ele><time>2026-04-19T08:41:03.001Z</time></trkpt><trkpt lat="37.794068267391" lon="14.608127714800371"><ele>981.0</ele><time>2026-04-19T08:41:04.001Z</time></trkpt><trkpt lat="37.79400385422863" lon="14.608029112475993"><ele>981.0</ele><time>2026-04-19T08:41:05.001Z</time></trkpt><trkpt lat="37.793935880922234" lon="14.607942690988239"><ele>980.9999999999999</ele><time>2026-04-19T08:41:06.001Z</time></trkpt><trkpt lat="37.793861825464994" lon="14.607880510018036"><ele>980.9999999999999</ele><time>2026-04-19T08:41:07.001Z</time></trkpt><trkpt lat="37.79377051178295" lon="14.607865756168769"><ele>981.0</ele><time>2026-04-19T08:41:08.001Z</time></trkpt><trkpt lat="37.79368267963165" lon="14.607903908259479"><ele>981.0</ele><time>2026-04-19T08:41:09.001Z</time></trkpt><trkpt lat="37.793612777099284" lon="14.607993371523413"><ele>981.0</ele><time>2026-04-19T08:41:10.001Z</time></trkpt><trkpt lat="37.79357821328339" lon="14.608118667942556"><ele>981.0</ele><time>2026-04-19T08:41:11.001Z</time></trkpt><trkpt lat="37.79354462376913" lon="14.608261306750322"><ele>981.0</ele><time>2026-04-19T08:41:12.001Z</time></trkpt><trkpt lat="37.79349192641776" lon="14.608413503478317"><ele>981.0</ele><time>2026-04-19T08:41:13.001Z</time></trkpt><trkpt lat="37.79343691231894" lon="14.608576862288402"><ele>984.75</ele><time>2026-04-19T08:41:14.001Z</time></trkpt><trkpt lat="37.79338245533348" lon="14.608723100331808"><ele>988.5</ele><time>2026-04-19T08:41:15.001Z</time></trkpt><trkpt lat="37.79333957607267" lon="14.608867364744661"><ele>992.25</ele><time>2026-04-19T08:41:16.001Z</time></trkpt><trkpt lat="37.79328837617211" lon="14.609017833301222"><ele>996.0</ele><time>2026-04-19T08:41:17.001Z</time></trkpt><trkpt lat="37.79320796441307" lon="14.609138371540457"><ele>996.0</ele><time>2026-04-19T08:41:18.001Z</time></trkpt><trkpt lat="37.79312239489664" lon="14.609252404564332"><ele>996.0</ele><time>2026-04-19T08:41:19.001Z</time></trkpt><trkpt lat="37.79302993922858" lon="14.609361407163062"><ele>996.0</ele><time>2026-04-19T08:41:20.001Z</time></trkpt><trkpt lat="37.792928234445554" lon="14.609454987251969"><ele>996.0</ele><time>2026-04-19T08:41:21.001Z</time></trkpt><trkpt lat="37.792816375313635" lon="14.609527782522946"><ele>997.5</ele><time>2026-04-19T08:41:22.001Z</time></trkpt><trkpt lat="37.79269799228773" lon="14.609578129939198"><ele>999.0</ele><time>2026-04-19T08:41:23.001Z</time></trkpt><trkpt lat="37.792575988450274" lon="14.609598499172964"><ele>1000.5</ele><time>2026-04-19T08:41:24.001Z</time></trkpt><trkpt lat="37.792451701875116" lon="14.609608523797199"><ele>1002.0</ele><time>2026-04-19T08:41:25.001Z</time></trkpt><trkpt lat="37.792333804249964" lon="14.609573121843255"><ele>1002.0</ele><time>2026-04-19T08:41:26.001Z</time></trkpt><trkpt lat="37.792211938095164" lon="14.60952553104895"><ele>1002.0</ele><time>2026-04-19T08:41:27.001Z</time></trkpt><trkpt lat="37.792086320000884" lon="14.609493951573992"><ele>1002.0</ele><time>2026-04-19T08:41:28.001Z</time></trkpt><trkpt lat="37.79196641491873" lon="14.609453734307094"><ele>1002.0</ele><time>2026-04-19T08:41:29.001Z</time></trkpt><trkpt lat="37.79183752702904" lon="14.609448185658385"><ele>1004.75</ele><time>2026-04-19T08:41:30.001Z</time></trkpt><trkpt lat="37.79170598772364" lon="14.609451919959248"><ele>1007.5</ele><time>2026-04-19T08:41:31.001Z</time></trkpt><trkpt lat="37.7915709527924" lon="14.60947787492313"><ele>1010.25</ele><time>2026-04-19T08:41:32.002Z</time></trkpt><trkpt lat="37.79143790878396" lon="14.609520655886504"><ele>1013.0</ele><time>2026-04-19T08:41:33.002Z</time></trkpt><trkpt lat="37.79130216568268" lon="14.609566222256692"><ele>1013.0</ele><time>2026-04-19T08:41:34.002Z</time></trkpt><trkpt lat="37.79117104685801" lon="14.609618219579424"><ele>1013.0</ele><time>2026-04-19T08:41:35.002Z</time></trkpt><trkpt lat="37.79104431457067" lon="14.60966561882698"><ele>1013.0</ele><time>2026-04-19T08:41:36.002Z</time></trkpt><trkpt lat="37.79091763725101" lon="14.609690206437632"><ele>1013.0</ele><time>2026-04-19T08:41:37.002Z</time></trkpt><trkpt lat="37.79079641084469" lon="14.609703828983843"><ele>1015.25</ele><time>2026-04-19T08:41:38.002Z</time></trkpt><trkpt lat="37.790682902111314" lon="14.609667694536158"><ele>1017.5</ele><time>2026-04-19T08:41:39.002Z</time></trkpt><trkpt lat="37.79057843735859" lon="14.609597248820975"><ele>1019.75</ele><time>2026-04-19T08:41:40.002Z</time></trkpt><trkpt lat="37.79050313649244" lon="14.609481139552727"><ele>1022.0</ele><time>2026-04-19T08:41:41.002Z</time></trkpt><trkpt lat="37.79042103149815" lon="14.609360524161113"><ele>1019.75</ele><time>2026-04-19T08:41:42.002Z</time></trkpt><trkpt lat="37.790318279303825" lon="14.609264657140221"><ele>1017.5</ele><time>2026-04-19T08:41:43.002Z</time></trkpt><trkpt lat="37.79020191543379" lon="14.609200950184995"><ele>1015.25</ele><time>2026-04-19T08:41:44.002Z</time></trkpt><trkpt lat="37.79007837595554" lon="14.609156339321242"><ele>1013.0</ele><time>2026-04-19T08:41:45.002Z</time></trkpt><trkpt lat="37.78994959784637" lon="14.60910027507803"><ele>1013.0</ele><time>2026-04-19T08:41:46.002Z</time></trkpt><trkpt lat="37.7898718558358" lon="14.609004644453762"><ele>1013.0</ele><time>2026-04-19T08:41:47.002Z</time></trkpt><trkpt lat="37.789802935686765" lon="14.608891854933022"><ele>1013.0</ele><time>2026-04-19T08:41:48.002Z</time></trkpt><trkpt lat="37.7897837442722" lon="14.608751113284695"><ele>1013.0</ele><time>2026-04-19T08:41:49.002Z</time></trkpt><trkpt lat="37.789753278153746" lon="14.608599657919926"><ele>1008.25</ele><time>2026-04-19T08:41:50.002Z</time></trkpt><trkpt lat="37.78971330688898" lon="14.608457520764947"><ele>1003.5</ele><time>2026-04-19T08:41:51.002Z</time></trkpt><trkpt lat="37.78968752353209" lon="14.608301613267166"><ele>998.75</ele><time>2026-04-19T08:41:52.002Z</time></trkpt><trkpt lat="37.78963040119838" lon="14.60813807053923"><ele>994.0</ele><time>2026-04-19T08:41:53.002Z</time></trkpt><trkpt lat="37.78957350157185" lon="14.607990829080336"><ele>994.0</ele><time>2026-04-19T08:41:54.002Z</time></trkpt><trkpt lat="37.78951800792472" lon="14.607863677040347"><ele>994.0000000000001</ele><time>2026-04-19T08:41:55.002Z</time></trkpt><trkpt lat="37.789447070164634" lon="14.60776045910536"><ele>994.0000000000001</ele><time>2026-04-19T08:41:56.002Z</time></trkpt><trkpt lat="37.789361986986194" lon="14.60769874928978"><ele>994.0</ele><time>2026-04-19T08:41:57.002Z</time></trkpt><trkpt lat="37.7892664197275" lon="14.607683861688772"><ele>994.0</ele><time>2026-04-19T08:41:58.002Z</time></trkpt><trkpt lat="37.78915484661314" lon="14.607693907615776"><ele>997.8000000000001</ele><time>2026-04-19T08:41:59.002Z</time></trkpt><trkpt lat="37.78904414497661" lon="14.607733464147849"><ele>1001.6000000000001</ele><time>2026-04-19T08:42:00.002Z</time></trkpt><trkpt lat="37.788934987258756" lon="14.607787948607854"><ele>1005.4</ele><time>2026-04-19T08:42:01.002Z</time></trkpt><trkpt lat="37.78882087999147" lon="14.607777301273218"><ele>1009.2</ele><time>2026-04-19T08:42:02.002Z</time></trkpt><trkpt lat="37.78873835368081" lon="14.60772555105181"><ele>1013.0</ele><time>2026-04-19T08:42:03.002Z</time></trkpt><trkpt lat="37.788666783497824" lon="14.607641777560579"><ele>1013.0</ele><time>2026-04-19T08:42:04.002Z</time></trkpt><trkpt lat="37.78859155869311" lon="14.607539212482754"><ele>1013.0</ele><time>2026-04-19T08:42:05.002Z</time></trkpt><trkpt lat="37.78850384775321" lon="14.607424827338344"><ele>1013.0</ele><time>2026-04-19T08:42:06.002Z</time></trkpt><trkpt lat="37.788406823443985" lon="14.607323207996481"><ele>1013.0</ele><time>2026-04-19T08:42:07Z</time></trkpt><trkpt lat="37.78830675608321" lon="14.607229638475975"><ele>1015.75</ele><time>2026-04-19T08:42:08Z</time></trkpt><trkpt lat="37.78821046733512" lon="14.607131128494414"><ele>1018.5</ele><time>2026-04-19T08:42:09Z</time></trkpt><trkpt lat="37.788105052798876" lon="14.607013515975826"><ele>1021.25</ele><time>2026-04-19T08:42:10Z</time></trkpt><trkpt lat="37.78803187506705" lon="14.606887231110573"><ele>1024.0</ele><time>2026-04-19T08:42:11Z</time></trkpt><trkpt lat="37.7879642702992" lon="14.606772500844093"><ele>1024.0</ele><time>2026-04-19T08:42:12Z</time></trkpt><trkpt lat="37.78789643007477" lon="14.606674355813144"><ele>1024.0</ele><time>2026-04-19T08:42:13Z</time></trkpt><trkpt lat="37.78783255462367" lon="14.606573838814056"><ele>1024.0</ele><time>2026-04-19T08:42:14Z</time></trkpt><trkpt lat="37.787757865644735" lon="14.60646168988684"><ele>1024.0</ele><time>2026-04-19T08:42:15Z</time></trkpt><trkpt lat="37.78767150932439" lon="14.606344298110645"><ele>1024.0</ele><time>2026-04-19T08:42:16Z</time></trkpt><trkpt lat="37.78757458130237" lon="14.606238514856534"><ele>1026.2</ele><time>2026-04-19T08:42:17Z</time></trkpt><trkpt lat="37.78748007518464" lon="14.606143658682802"><ele>1028.4</ele><time>2026-04-19T08:42:18Z</time></trkpt><trkpt lat="37.787395109254184" lon="14.606060682735352"><ele>1030.6</ele><time>2026-04-19T08:42:19Z</time></trkpt><trkpt lat="37.78732389010588" lon="14.605984097787008"><ele>1032.8</ele><time>2026-04-19T08:42:20Z</time></trkpt><trkpt lat="37.78726338748924" lon="14.605919698082861"><ele>1035.0</ele><time>2026-04-19T08:42:21Z</time></trkpt><trkpt lat="37.78718818256775" lon="14.605840654872381"><ele>1035.0</ele><time>2026-04-19T08:42:23Z</time></trkpt><trkpt lat="37.78713824755392" lon="14.605772583940604"><ele>1035.0</ele><time>2026-04-19T08:42:27Z</time></trkpt><trkpt lat="37.78710239596737" lon="14.605702163195778"><ele>1035.0</ele><time>2026-04-19T08:42:32Z</time></trkpt><trkpt lat="37.78703844475726" lon="14.605616865707587"><ele>1035.0</ele><time>2026-04-19T08:42:34Z</time></trkpt><trkpt lat="37.78697984443073" lon="14.605581053161819"><ele>1035.0</ele><time>2026-04-19T08:42:36Z</time></trkpt><trkpt lat="37.786942636730444" lon="14.605508610975457"><ele>1035.0</ele><time>2026-04-19T08:42:48.001Z</time></trkpt><trkpt lat="37.786880861932964" lon="14.605362912817455"><ele>1035.0</ele><time>2026-04-19T08:42:50.001Z</time></trkpt><trkpt lat="37.786823066716245" lon="14.605268445691094"><ele>1035.0</ele><time>2026-04-19T08:42:52.001Z</time></trkpt><trkpt lat="37.78680819539024" lon="14.605352405960064"><ele>1035.0</ele><time>2026-04-19T08:42:56.001Z</time></trkpt><trkpt lat="37.78686338035822" lon="14.6054068003239"><ele>1035.0</ele><time>2026-04-19T08:42:57.001Z</time></trkpt><trkpt lat="37.786926818406414" lon="14.605484293583498"><ele>1035.0</ele><time>2026-04-19T08:42:59.001Z</time></trkpt><trkpt lat="37.786965545688105" lon="14.605552460793461"><ele>1035.0</ele><time>2026-04-19T08:55:16Z</time></trkpt><trkpt lat="37.786993247953895" lon="14.605648613514866"><ele>1035.0</ele><time>2026-04-19T08:55:20Z</time></trkpt><trkpt lat="37.78706430273982" lon="14.605703295975474"><ele>1035.0</ele><time>2026-04-19T08:55:25Z</time></trkpt><trkpt lat="37.78714229642228" lon="14.605654028575556"><ele>1035.0</ele><time>2026-04-19T08:55:28Z</time></trkpt><trkpt lat="37.78720813003565" lon="14.605599873367101"><ele>1035.0</ele><time>2026-04-19T08:55:30.001Z</time></trkpt><trkpt lat="37.78729164787494" lon="14.605552546064903"><ele>1035.0</ele><time>2026-04-19T08:55:32.001Z</time></trkpt><trkpt lat="37.78738219473561" lon="14.605510258363191"><ele>1035.0</ele><time>2026-04-19T08:55:34.001Z</time></trkpt><trkpt lat="37.78748107383378" lon="14.60548251706289"><ele>1035.0</ele><time>2026-04-19T08:55:36.001Z</time></trkpt><trkpt lat="37.787554948357965" lon="14.605454942567643"><ele>1035.0</ele><time>2026-04-19T08:55:38.001Z</time></trkpt><trkpt lat="37.78763715028089" lon="14.605424267370093"><ele>1035.0</ele><time>2026-04-19T08:55:41.001Z</time></trkpt><trkpt lat="37.78769978204151" lon="14.60539780682191"><ele>1035.0</ele><time>2026-04-19T08:55:43.001Z</time></trkpt><trkpt lat="37.78775677164414" lon="14.605360165616492"><ele>1035.0</ele><time>2026-04-19T08:56:10.001Z</time></trkpt><trkpt lat="37.78778171689006" lon="14.60528248273543"><ele>1035.0</ele><time>2026-04-19T08:56:15.001Z</time></trkpt><trkpt lat="37.78781462958501" lon="14.60520104963582"><ele>1035.0</ele><time>2026-04-19T08:56:27.001Z</time></trkpt><trkpt lat="37.787854571201294" lon="14.605096008140496"><ele>1036.3333333333333</ele><time>2026-04-19T08:56:36.002Z</time></trkpt><trkpt lat="37.78790136208267" lon="14.60495931317299"><ele>1037.6666666666667</ele><time>2026-04-19T08:56:38.002Z</time></trkpt><trkpt lat="37.78792270865782" lon="14.604874749354197"><ele>1039.0</ele><time>2026-04-19T08:56:39.002Z</time></trkpt><trkpt lat="37.787936144366185" lon="14.60479247036932"><ele>1040.3333333333335</ele><time>2026-04-19T08:56:40.002Z</time></trkpt><trkpt lat="37.787946497605745" lon="14.604705299335663"><ele>1041.6666666666667</ele><time>2026-04-19T08:56:41.002Z</time></trkpt><trkpt lat="37.78795517322455" lon="14.604616424941128"><ele>1043.0</ele><time>2026-04-19T08:56:42.002Z</time></trkpt><trkpt lat="37.7879574472606" lon="14.604528160916747"><ele>1039.8333333333335</ele><time>2026-04-19T08:56:43.002Z</time></trkpt><trkpt lat="37.78795306013348" lon="14.604444754945114"><ele>1036.6666666666667</ele><time>2026-04-19T08:56:44.002Z</time></trkpt><trkpt lat="37.787908402267725" lon="14.604302549260524"><ele>1033.5</ele><time>2026-04-19T08:56:46.002Z</time></trkpt><trkpt lat="37.78786425991639" lon="14.604245274660078"><ele>1030.3333333333333</ele><time>2026-04-19T08:56:47.002Z</time></trkpt><trkpt lat="37.78781602608269" lon="14.604183221549516"><ele>1027.1666666666665</ele><time>2026-04-19T08:56:48Z</time></trkpt><trkpt lat="37.78776550999443" lon="14.604113950886198"><ele>1024.0</ele><time>2026-04-19T08:56:49Z</time></trkpt><trkpt lat="37.787715144639826" lon="14.604043001531652"><ele>1026.8333333333333</ele><time>2026-04-19T08:56:50Z</time></trkpt><trkpt lat="37.78766180787263" lon="14.603973929852975"><ele>1029.6666666666665</ele><time>2026-04-19T08:56:51Z</time></trkpt><trkpt lat="37.78761149298424" lon="14.603906484250329"><ele>1032.5</ele><time>2026-04-19T08:56:52Z</time></trkpt><trkpt lat="37.78755926261557" lon="14.603840911500816"><ele>1035.3333333333333</ele><time>2026-04-19T08:56:53Z</time></trkpt><trkpt lat="37.78750647278624" lon="14.603771985211155"><ele>1038.1666666666667</ele><time>2026-04-19T08:56:54Z</time></trkpt><trkpt lat="37.78745693271539" lon="14.603702732049552"><ele>1041.0</ele><time>2026-04-19T08:56:55Z</time></trkpt><trkpt lat="37.78738696178107" lon="14.603607115726996"><ele>1041.0</ele><time>2026-04-19T08:56:57Z</time></trkpt><trkpt lat="37.78733469532763" lon="14.60352588811396"><ele>1041.0</ele><time>2026-04-19T08:57:08Z</time></trkpt><trkpt lat="37.78725402719515" lon="14.60342541512285"><ele>1041.0</ele><time>2026-04-19T08:57:10Z</time></trkpt><trkpt lat="37.78720255393654" lon="14.603366750953006"><ele>1041.0</ele><time>2026-04-19T08:57:11Z</time></trkpt><trkpt lat="37.787154909486276" lon="14.603305881255153"><ele>1041.0</ele><time>2026-04-19T08:57:12Z</time></trkpt><trkpt lat="37.78710806590686" lon="14.603239858904253"><ele>1041.0</ele><time>2026-04-19T08:57:13Z</time></trkpt><trkpt lat="37.78706434764029" lon="14.603176538272423"><ele>1041.0</ele><time>2026-04-19T08:57:14Z</time></trkpt><trkpt lat="37.78702190534376" lon="14.603107544035828"><ele>1041.0</ele><time>2026-04-19T08:57:15Z</time></trkpt><trkpt lat="37.78698091068239" lon="14.603036062674613"><ele>1041.0</ele><time>2026-04-19T08:57:16Z</time></trkpt><trkpt lat="37.78694148747476" lon="14.6029541581368"><ele>1041.0</ele><time>2026-04-19T08:57:17Z</time></trkpt><trkpt lat="37.78690360352712" lon="14.602868522593711"><ele>1041.0</ele><time>2026-04-19T08:57:18Z</time></trkpt><trkpt lat="37.78686864483816" lon="14.602770194113527"><ele>1041.0</ele><time>2026-04-19T08:57:19Z</time></trkpt><trkpt lat="37.78683528645602" lon="14.602674736233082"><ele>1045.5</ele><time>2026-04-19T08:57:20Z</time></trkpt><trkpt lat="37.78680608445379" lon="14.60258244853399"><ele>1050.0</ele><time>2026-04-19T08:57:21Z</time></trkpt><trkpt lat="37.78678638510448" lon="14.602485217770091"><ele>1054.5</ele><time>2026-04-19T08:57:22Z</time></trkpt><trkpt lat="37.7867811840885" lon="14.602388700695178"><ele>1059.0</ele><time>2026-04-19T08:57:23Z</time></trkpt><trkpt lat="37.78678615592326" lon="14.602285107862498"><ele>1063.5</ele><time>2026-04-19T08:57:24Z</time></trkpt><trkpt lat="37.786796149154334" lon="14.602181860110782"><ele>1068.0</ele><time>2026-04-19T08:57:25Z</time></trkpt><trkpt lat="37.786803032546835" lon="14.602083186864625"><ele>1066.1666666666667</ele><time>2026-04-19T08:57:26Z</time></trkpt><trkpt lat="37.786820329220916" lon="14.601981578209184"><ele>1064.3333333333333</ele><time>2026-04-19T08:57:27Z</time></trkpt><trkpt lat="37.78683066355843" lon="14.60186436851671"><ele>1062.5</ele><time>2026-04-19T08:57:28Z</time></trkpt><trkpt lat="37.78683995602111" lon="14.601760521429327"><ele>1060.6666666666665</ele><time>2026-04-19T08:57:29Z</time></trkpt><trkpt lat="37.7868486465689" lon="14.601656630782445"><ele>1058.8333333333333</ele><time>2026-04-19T08:57:30Z</time></trkpt><trkpt lat="37.786857382754846" lon="14.601540979298248"><ele>1057.0</ele><time>2026-04-19T08:57:31Z</time></trkpt><trkpt lat="37.78686285476289" lon="14.60142889532374"><ele>1056.0</ele><time>2026-04-19T08:57:32Z</time></trkpt><trkpt lat="37.786863118450995" lon="14.601321672231588"><ele>1055.0</ele><time>2026-04-19T08:57:33Z</time></trkpt><trkpt lat="37.78686123131658" lon="14.601220114829971"><ele>1054.0</ele><time>2026-04-19T08:57:34Z</time></trkpt><trkpt lat="37.78686294611153" lon="14.601119670347279"><ele>1053.0</ele><time>2026-04-19T08:57:35Z</time></trkpt><trkpt lat="37.7868512991701" lon="14.601029940652875"><ele>1052.0</ele><time>2026-04-19T08:57:36Z</time></trkpt><trkpt lat="37.7868395577209" lon="14.600928216477337"><ele>1051.0</ele><time>2026-04-19T08:57:37Z</time></trkpt><trkpt lat="37.78682524777576" lon="14.600827489380366"><ele>1051.0</ele><time>2026-04-19T08:57:38Z</time></trkpt><trkpt lat="37.78680319604158" lon="14.60072774108385"><ele>1051.0</ele><time>2026-04-19T08:57:39Z</time></trkpt><trkpt lat="37.786778696925225" lon="14.60062428029068"><ele>1051.0</ele><time>2026-04-19T08:57:40Z</time></trkpt><trkpt lat="37.78674681284756" lon="14.600536298650898"><ele>1051.0</ele><time>2026-04-19T08:57:41Z</time></trkpt><trkpt lat="37.786714407733314" lon="14.600444959673618"><ele>1051.0</ele><time>2026-04-19T08:57:42Z</time></trkpt><trkpt lat="37.786681675494485" lon="14.600360608785163"><ele>1051.0</ele><time>2026-04-19T08:57:43.001Z</time></trkpt><trkpt lat="37.786640653915484" lon="14.600271805060647"><ele>1050.3999999999999</ele><time>2026-04-19T08:57:44.001Z</time></trkpt><trkpt lat="37.786596927949574" lon="14.60017715936565"><ele>1049.8</ele><time>2026-04-19T08:57:45.001Z</time></trkpt><trkpt lat="37.78655017336484" lon="14.60008287695854"><ele>1049.1999999999998</ele><time>2026-04-19T08:57:46.001Z</time></trkpt><trkpt lat="37.786498825935915" lon="14.599985153482923"><ele>1048.6</ele><time>2026-04-19T08:57:47.001Z</time></trkpt><trkpt lat="37.78645289326374" lon="14.599881655999754"><ele>1048.0</ele><time>2026-04-19T08:57:48.001Z</time></trkpt><trkpt lat="37.7864097392832" lon="14.599767263362693"><ele>1048.0</ele><time>2026-04-19T08:57:49.001Z</time></trkpt><trkpt lat="37.786360786046586" lon="14.599650916608248"><ele>1048.0</ele><time>2026-04-19T08:57:50.001Z</time></trkpt><trkpt lat="37.78631221951149" lon="14.599548755998006"><ele>1048.0</ele><time>2026-04-19T08:57:51.001Z</time></trkpt><trkpt lat="37.78626443567188" lon="14.59944523643376"><ele>1048.0</ele><time>2026-04-19T08:57:52.001Z</time></trkpt><trkpt lat="37.786218587957976" lon="14.599343368286439"><ele>1048.0</ele><time>2026-04-19T08:57:53.001Z</time></trkpt><trkpt lat="37.78616846439114" lon="14.599242767748093"><ele>1047.1666666666665</ele><time>2026-04-19T08:57:54.001Z</time></trkpt><trkpt lat="37.786119890028814" lon="14.599140065703095"><ele>1046.3333333333333</ele><time>2026-04-19T08:57:55.001Z</time></trkpt><trkpt lat="37.786071085635186" lon="14.59903992932369"><ele>1045.5</ele><time>2026-04-19T08:57:56.001Z</time></trkpt><trkpt lat="37.78602575029658" lon="14.598948164036658"><ele>1044.6666666666667</ele><time>2026-04-19T08:57:57.001Z</time></trkpt><trkpt lat="37.78598686388056" lon="14.598862343028372"><ele>1043.8333333333335</ele><time>2026-04-19T08:57:58.001Z</time></trkpt><trkpt lat="37.785960209138764" lon="14.598781764596335"><ele>1043.0</ele><time>2026-04-19T08:57:59.001Z</time></trkpt><trkpt lat="37.785942546717095" lon="14.598623751012363"><ele>1042.6</ele><time>2026-04-19T08:58:01.001Z</time></trkpt><trkpt lat="37.78595663812899" lon="14.598489206341885"><ele>1042.1999999999998</ele><time>2026-04-19T08:58:03.001Z</time></trkpt><trkpt lat="37.78597812058833" lon="14.598363358508344"><ele>1041.8</ele><time>2026-04-19T08:58:05.001Z</time></trkpt><trkpt lat="37.78602007405444" lon="14.598217878103712"><ele>1041.3999999999999</ele><time>2026-04-19T08:58:07.001Z</time></trkpt><trkpt lat="37.78604548587646" lon="14.598136789782668"><ele>1041.0</ele><time>2026-04-19T08:58:08.001Z</time></trkpt><trkpt lat="37.78606939690886" lon="14.5980504228845"><ele>1041.0</ele><time>2026-04-19T08:58:09.001Z</time></trkpt><trkpt lat="37.78609453294647" lon="14.597956258883276"><ele>1041.0</ele><time>2026-04-19T08:58:10.001Z</time></trkpt><trkpt lat="37.78611428338208" lon="14.597854537465926"><ele>1041.0</ele><time>2026-04-19T08:58:11.001Z</time></trkpt><trkpt lat="37.786137823902074" lon="14.597751999991592"><ele>1041.0</ele><time>2026-04-19T08:58:12.001Z</time></trkpt><trkpt lat="37.78616597115576" lon="14.597656462528256"><ele>1041.0</ele><time>2026-04-19T08:58:13.001Z</time></trkpt><trkpt lat="37.78619349165716" lon="14.597561899352288"><ele>1041.0</ele><time>2026-04-19T08:58:14.001Z</time></trkpt><trkpt lat="37.78621525154784" lon="14.597463617457933"><ele>1040.8333333333333</ele><time>2026-04-19T08:58:15.001Z</time></trkpt><trkpt lat="37.78624068665016" lon="14.59735258493794"><ele>1040.6666666666667</ele><time>2026-04-19T08:58:16.001Z</time></trkpt><trkpt lat="37.78626770857896" lon="14.597252048844135"><ele>1040.5</ele><time>2026-04-19T08:58:17.001Z</time></trkpt><trkpt lat="37.786291673529135" lon="14.597149485049455"><ele>1040.3333333333335</ele><time>2026-04-19T08:58:18.001Z</time></trkpt><trkpt lat="37.78631467419915" lon="14.59705032950447"><ele>1040.1666666666667</ele><time>2026-04-19T08:58:19.001Z</time></trkpt><trkpt lat="37.786331465086896" lon="14.596947517134325"><ele>1040.0</ele><time>2026-04-19T08:58:20.001Z</time></trkpt><trkpt lat="37.78633506227923" lon="14.596848212960225"><ele>1040.0</ele><time>2026-04-19T08:58:21.001Z</time></trkpt><trkpt lat="37.786334520582194" lon="14.596750050278969"><ele>1040.0</ele><time>2026-04-19T08:58:22.001Z</time></trkpt><trkpt lat="37.786326440089105" lon="14.596652927637358"><ele>1040.0</ele><time>2026-04-19T08:58:23.001Z</time></trkpt><trkpt lat="37.78631658141405" lon="14.596551142399882"><ele>1040.0</ele><time>2026-04-19T08:58:24.001Z</time></trkpt><trkpt lat="37.78631084186515" lon="14.596448484159405"><ele>1040.0</ele><time>2026-04-19T08:58:25.001Z</time></trkpt><trkpt lat="37.78632046549257" lon="14.596341624745305"><ele>1040.0</ele><time>2026-04-19T08:58:26.001Z</time></trkpt><trkpt lat="37.78634358929216" lon="14.59622730658606"><ele>1039.8</ele><time>2026-04-19T08:58:27.001Z</time></trkpt><trkpt lat="37.786383018190435" lon="14.596122543267624"><ele>1039.6</ele><time>2026-04-19T08:58:28.001Z</time></trkpt><trkpt lat="37.78643581296401" lon="14.59602051167783"><ele>1039.4</ele><time>2026-04-19T08:58:29.001Z</time></trkpt><trkpt lat="37.786491340268086" lon="14.595925683469881"><ele>1039.2</ele><time>2026-04-19T08:58:30.001Z</time></trkpt><trkpt lat="37.78655001818074" lon="14.59584023045107"><ele>1039.0</ele><time>2026-04-19T08:58:31.001Z</time></trkpt><trkpt lat="37.78660377182682" lon="14.59574410831132"><ele>1039.0</ele><time>2026-04-19T08:58:32.001Z</time></trkpt><trkpt lat="37.78664107558884" lon="14.595635810644863"><ele>1039.0</ele><time>2026-04-19T08:58:33.001Z</time></trkpt><trkpt lat="37.786679199537026" lon="14.59550974862344"><ele>1039.0</ele><time>2026-04-19T08:58:34.001Z</time></trkpt><trkpt lat="37.78671368366678" lon="14.59538103578813"><ele>1039.0</ele><time>2026-04-19T08:58:35.001Z</time></trkpt><trkpt lat="37.78674031480005" lon="14.595251935750229"><ele>1039.0</ele><time>2026-04-19T08:58:36.001Z</time></trkpt><trkpt lat="37.78677162495826" lon="14.595127732731129"><ele>1038.8</ele><time>2026-04-19T08:58:37.001Z</time></trkpt><trkpt lat="37.786789308740794" lon="14.59501246541962"><ele>1038.6000000000001</ele><time>2026-04-19T08:58:38.001Z</time></trkpt><trkpt lat="37.78680449225431" lon="14.59489161378108"><ele>1038.4</ele><time>2026-04-19T08:58:39.001Z</time></trkpt><trkpt lat="37.786819388994864" lon="14.594771137457071"><ele>1038.2</ele><time>2026-04-19T08:58:40.001Z</time></trkpt><trkpt lat="37.78682420362343" lon="14.59464327326134"><ele>1038.0</ele><time>2026-04-19T08:58:41.001Z</time></trkpt><trkpt lat="37.78681159707163" lon="14.594512095500086"><ele>1038.0</ele><time>2026-04-19T08:58:42.001Z</time></trkpt><trkpt lat="37.78679703108675" lon="14.594376335183757"><ele>1036.0</ele><time>2026-04-19T08:58:43.001Z</time></trkpt></trkseg><trkseg><trkpt lat="37.81527229242052" lon="14.154044449039029"><ele>1026.0</ele><time>2026-04-19T10:28:58.999Z</time></trkpt><trkpt lat="37.815339283586944" lon="14.15405768457024"><ele>1026.0</ele><time>2026-04-19T10:29:00.999Z</time></trkpt><trkpt lat="37.815409245221495" lon="14.154069520792154"><ele>1026.0</ele><time>2026-04-19T10:29:35.999Z</time></trkpt><trkpt lat="37.815518067125886" lon="14.15407336672565"><ele>1026.0</ele><time>2026-04-19T10:30:46.998Z</time></trkpt><trkpt lat="37.8155843664948" lon="14.154071693436832"><ele>1026.0</ele><time>2026-04-19T10:30:47.998Z</time></trkpt><trkpt lat="37.815667247371714" lon="14.154082351176744"><ele>1026.0</ele><time>2026-04-19T10:30:48.999Z</time></trkpt><trkpt lat="37.815744728410614" lon="14.154100533854324"><ele>1026.0</ele><time>2026-04-19T10:30:49.999Z</time></trkpt><trkpt lat="37.81581570758363" lon="14.154123560121413"><ele>1026.0</ele><time>2026-04-19T10:30:50.999Z</time></trkpt><trkpt lat="37.8158882677089" lon="14.154156582962472"><ele>1026.0</ele><time>2026-04-19T10:30:51.999Z</time></trkpt><trkpt lat="37.81596451910396" lon="14.154212132543522"><ele>1026.0</ele><time>2026-04-19T10:30:52.999Z</time></trkpt><trkpt lat="37.81604950869961" lon="14.154279465736781"><ele>1026.0</ele><time>2026-04-19T10:30:53.999Z</time></trkpt><trkpt lat="37.8161329282102" lon="14.15435709895841"><ele>1026.0</ele><time>2026-04-19T10:30:54.999Z</time></trkpt><trkpt lat="37.81623630614077" lon="14.15443613453053"><ele>1025.25</ele><time>2026-04-19T10:30:55.999Z</time></trkpt><trkpt lat="37.81634585870586" lon="14.154525423352508"><ele>1024.5</ele><time>2026-04-19T10:30:56.999Z</time></trkpt><trkpt lat="37.81645541113426" lon="14.15460590216214"><ele>1023.75</ele><time>2026-04-19T10:30:57.999Z</time></trkpt><trkpt lat="37.81656115197888" lon="14.154672697722594"><ele>1023.0</ele><time>2026-04-19T10:30:58.999Z</time></trkpt><trkpt lat="37.81667164756282" lon="14.154726940177635"><ele>1023.0</ele><time>2026-04-19T10:30:59.999Z</time></trkpt><trkpt lat="37.81678249651533" lon="14.15477912920145"><ele>1023.0</ele><time>2026-04-19T10:31:00.999Z</time></trkpt><trkpt lat="37.81689243802358" lon="14.154832355628207"><ele>1023.0</ele><time>2026-04-19T10:31:01.999Z</time></trkpt><trkpt lat="37.81700840430037" lon="14.154888742558187"><ele>1023.0</ele><time>2026-04-19T10:31:02.999Z</time></trkpt><trkpt lat="37.81711896921234" lon="14.154952002893888"><ele>1025.75</ele><time>2026-04-19T10:31:03.999Z</time></trkpt><trkpt lat="37.81722882248017" lon="14.15502076570475"><ele>1028.5</ele><time>2026-04-19T10:31:04.999Z</time></trkpt><trkpt lat="37.817334941829415" lon="14.155099941720303"><ele>1031.25</ele><time>2026-04-19T10:31:05.999Z</time></trkpt><trkpt lat="37.817448724353994" lon="14.155174088612398"><ele>1034.0</ele><time>2026-04-19T10:31:06.999Z</time></trkpt><trkpt lat="37.817569851836325" lon="14.155254254509677"><ele>1033.3333333333335</ele><time>2026-04-19T10:31:07.999Z</time></trkpt><trkpt lat="37.817706760633286" lon="14.155336745846174"><ele>1032.6666666666667</ele><time>2026-04-19T10:31:08.999Z</time></trkpt><trkpt lat="37.817852057406974" lon="14.155418299021827"><ele>1032.0</ele><time>2026-04-19T10:31:09.999Z</time></trkpt><trkpt lat="37.81800829843362" lon="14.15548767719819"><ele>1032.0</ele><time>2026-04-19T10:31:10.999Z</time></trkpt><trkpt lat="37.81816165597064" lon="14.155549795503799"><ele>1032.0</ele><time>2026-04-19T10:31:11.999Z</time></trkpt><trkpt lat="37.81831153635696" lon="14.155625782140463"><ele>1032.0</ele><time>2026-04-19T10:31:12.999Z</time></trkpt><trkpt lat="37.81844960735604" lon="14.15568327586465"><ele>1035.0</ele><time>2026-04-19T10:31:13.999Z</time></trkpt><trkpt lat="37.81858939690042" lon="14.155749240250795"><ele>1038.0</ele><time>2026-04-19T10:31:14.999Z</time></trkpt><trkpt lat="37.8187228526474" lon="14.155817153132505"><ele>1041.0</ele><time>2026-04-19T10:31:15.999Z</time></trkpt><trkpt lat="37.818857604690315" lon="14.155882772413301"><ele>1044.0</ele><time>2026-04-19T10:31:16.999Z</time></trkpt><trkpt lat="37.81898531576253" lon="14.155952660533897"><ele>1044.0</ele><time>2026-04-19T10:31:17.999Z</time></trkpt><trkpt lat="37.81911333571833" lon="14.156019029861854"><ele>1044.0</ele><time>2026-04-19T10:31:18.999Z</time></trkpt><trkpt lat="37.81923910714296" lon="14.156084087624107"><ele>1044.0</ele><time>2026-04-19T10:31:19.999Z</time></trkpt><trkpt lat="37.81936923102222" lon="14.156154882874672"><ele>1044.0</ele><time>2026-04-19T10:31:21Z</time></trkpt><trkpt lat="37.81949394468453" lon="14.156227593067726"><ele>1044.0</ele><time>2026-04-19T10:31:22Z</time></trkpt><trkpt lat="37.819615256190254" lon="14.156297389704612"><ele>1044.0</ele><time>2026-04-19T10:31:23Z</time></trkpt><trkpt lat="37.81973781486943" lon="14.15635161724685"><ele>1044.0</ele><time>2026-04-19T10:31:24Z</time></trkpt><trkpt lat="37.81986108356766" lon="14.156387386170923"><ele>1044.0</ele><time>2026-04-19T10:31:25Z</time></trkpt><trkpt lat="37.81998462780906" lon="14.15640680995734"><ele>1044.0</ele><time>2026-04-19T10:31:26Z</time></trkpt><trkpt lat="37.8201090159704" lon="14.156410638679253"><ele>1044.0</ele><time>2026-04-19T10:31:27Z</time></trkpt><trkpt lat="37.8202353797537" lon="14.15638200526101"><ele>1044.0</ele><time>2026-04-19T10:31:28Z</time></trkpt><trkpt lat="37.8203547418513" lon="14.156333533646917"><ele>1044.0</ele><time>2026-04-19T10:31:29Z</time></trkpt><trkpt lat="37.82046583961953" lon="14.156260004246167"><ele>1047.0</ele><time>2026-04-19T10:31:30Z</time></trkpt><trkpt lat="37.82056917190029" lon="14.156182415569427"><ele>1050.0</ele><time>2026-04-19T10:31:31Z</time></trkpt><trkpt lat="37.82066165019279" lon="14.156080774196832"><ele>1053.0</ele><time>2026-04-19T10:31:32Z</time></trkpt><trkpt lat="37.820718860670745" lon="14.155963849120726"><ele>1056.0</ele><time>2026-04-19T10:31:33Z</time></trkpt><trkpt lat="37.82075475201376" lon="14.155841413771219"><ele>1056.0</ele><time>2026-04-19T10:31:34Z</time></trkpt><trkpt lat="37.82080856518037" lon="14.155742550071425"><ele>1056.0</ele><time>2026-04-19T10:31:35Z</time></trkpt><trkpt lat="37.82089095640256" lon="14.155668275958305"><ele>1056.0</ele><time>2026-04-19T10:31:36Z</time></trkpt><trkpt lat="37.82098763119798" lon="14.155617872986245"><ele>1056.0</ele><time>2026-04-19T10:31:37Z</time></trkpt><trkpt lat="37.821095764459656" lon="14.155605158951774"><ele>1056.0</ele><time>2026-04-19T10:31:38Z</time></trkpt><trkpt lat="37.821209801179194" lon="14.155612844591978"><ele>1057.2</ele><time>2026-04-19T10:31:39Z</time></trkpt><trkpt lat="37.821322815593824" lon="14.15561520638905"><ele>1058.3999999999999</ele><time>2026-04-19T10:31:40Z</time></trkpt><trkpt lat="37.82143252301145" lon="14.15560165926452"><ele>1059.6</ele><time>2026-04-19T10:31:41Z</time></trkpt><trkpt lat="37.821535748012124" lon="14.155574971111372"><ele>1060.8</ele><time>2026-04-19T10:31:42Z</time></trkpt><trkpt lat="37.821624290036475" lon="14.155521446340376"><ele>1062.0</ele><time>2026-04-19T10:31:43Z</time></trkpt><trkpt lat="37.821697651169984" lon="14.155419769825212"><ele>1062.0</ele><time>2026-04-19T10:31:44Z</time></trkpt><trkpt lat="37.82174138211949" lon="14.155275784161253"><ele>1062.0</ele><time>2026-04-19T10:31:45Z</time></trkpt><trkpt lat="37.82177792284431" lon="14.155130221648415"><ele>1062.0</ele><time>2026-04-19T10:31:46Z</time></trkpt><trkpt lat="37.82182648968344" lon="14.15499988012043"><ele>1062.0</ele><time>2026-04-19T10:31:47Z</time></trkpt><trkpt lat="37.82189548487947" lon="14.154883632015094"><ele>1062.8</ele><time>2026-04-19T10:31:48Z</time></trkpt><trkpt lat="37.82199467053947" lon="14.154819178146353"><ele>1063.6</ele><time>2026-04-19T10:31:49Z</time></trkpt><trkpt lat="37.82209915245163" lon="14.154790676902286"><ele>1064.3999999999999</ele><time>2026-04-19T10:31:50Z</time></trkpt><trkpt lat="37.82220410112094" lon="14.15480126317878"><ele>1065.2</ele><time>2026-04-19T10:31:51Z</time></trkpt><trkpt lat="37.82231139420735" lon="14.154846718616918"><ele>1066.0</ele><time>2026-04-19T10:31:52Z</time></trkpt><trkpt lat="37.82243114651285" lon="14.154881719419228"><ele>1066.0</ele><time>2026-04-19T10:31:53Z</time></trkpt><trkpt lat="37.822541793555644" lon="14.1549346349615"><ele>1066.0</ele><time>2026-04-19T10:31:54Z</time></trkpt><trkpt lat="37.82265446005961" lon="14.154977842946096"><ele>1066.0</ele><time>2026-04-19T10:31:55Z</time></trkpt><trkpt lat="37.82276129085473" lon="14.155024527148258"><ele>1066.0</ele><time>2026-04-19T10:31:56Z</time></trkpt><trkpt lat="37.82286284633609" lon="14.15508297288632"><ele>1064.75</ele><time>2026-04-19T10:31:57Z</time></trkpt><trkpt lat="37.822951703126485" lon="14.155179716933345"><ele>1063.5</ele><time>2026-04-19T10:31:58Z</time></trkpt><trkpt lat="37.82305043421596" lon="14.155253462531764"><ele>1062.25</ele><time>2026-04-19T10:31:59Z</time></trkpt><trkpt lat="37.8231305832773" lon="14.155358623380636"><ele>1061.0</ele><time>2026-04-19T10:32:00Z</time></trkpt><trkpt lat="37.82320282815506" lon="14.155466207013978"><ele>1061.0</ele><time>2026-04-19T10:32:01Z</time></trkpt><trkpt lat="37.82327843100936" lon="14.155575768710339"><ele>1061.0</ele><time>2026-04-19T10:32:02Z</time></trkpt><trkpt lat="37.823351483701636" lon="14.15567412016041"><ele>1061.0</ele><time>2026-04-19T10:32:03Z</time></trkpt><trkpt lat="37.823431963851995" lon="14.155754966992893"><ele>1061.0</ele><time>2026-04-19T10:32:04Z</time></trkpt><trkpt lat="37.823530285288186" lon="14.155804237818542"><ele>1061.0</ele><time>2026-04-19T10:32:05Z</time></trkpt><trkpt lat="37.82363912595664" lon="14.155818020166615"><ele>1063.6</ele><time>2026-04-19T10:32:06Z</time></trkpt><trkpt lat="37.82375272093921" lon="14.155797938728616"><ele>1066.1999999999998</ele><time>2026-04-19T10:32:07Z</time></trkpt><trkpt lat="37.823863718544615" lon="14.155756010092258"><ele>1068.8000000000002</ele><time>2026-04-19T10:32:08Z</time></trkpt><trkpt lat="37.82395661594431" lon="14.155691158483618"><ele>1071.4</ele><time>2026-04-19T10:32:09Z</time></trkpt><trkpt lat="37.8240500070882" lon="14.155613352807697"><ele>1074.0</ele><time>2026-04-19T10:32:10Z</time></trkpt><trkpt lat="37.824131361557654" lon="14.155520119009458"><ele>1074.0</ele><time>2026-04-19T10:32:11Z</time></trkpt><trkpt lat="37.82418743235953" lon="14.155395207367468"><ele>1074.0</ele><time>2026-04-19T10:32:12Z</time></trkpt><trkpt lat="37.82422769744519" lon="14.155249677090849"><ele>1074.0</ele><time>2026-04-19T10:32:13Z</time></trkpt><trkpt lat="37.82426658496323" lon="14.155102939094627"><ele>1074.0</ele><time>2026-04-19T10:32:14Z</time></trkpt><trkpt lat="37.824314476723266" lon="14.154952554001774"><ele>1074.75</ele><time>2026-04-19T10:32:15Z</time></trkpt><trkpt lat="37.824381700778225" lon="14.154805091541062"><ele>1075.5</ele><time>2026-04-19T10:32:16Z</time></trkpt><trkpt lat="37.824450094516" lon="14.15465342951685"><ele>1076.25</ele><time>2026-04-19T10:32:17Z</time></trkpt><trkpt lat="37.82452112348009" lon="14.154505508172216"><ele>1077.0</ele><time>2026-04-19T10:32:18Z</time></trkpt><trkpt lat="37.82463286967699" lon="14.154405018410747"><ele>1077.0</ele><time>2026-04-19T10:32:19Z</time></trkpt><trkpt lat="37.82474265277054" lon="14.154320329126664"><ele>1077.0</ele><time>2026-04-19T10:32:20Z</time></trkpt><trkpt lat="37.82484797844865" lon="14.154266140083841"><ele>1077.0</ele><time>2026-04-19T10:32:21Z</time></trkpt><trkpt lat="37.8249712496398" lon="14.154289751553684"><ele>1077.0</ele><time>2026-04-19T10:32:22.001Z</time></trkpt><trkpt lat="37.825091315601384" lon="14.154331847556112"><ele>1078.8333333333333</ele><time>2026-04-19T10:32:23.001Z</time></trkpt><trkpt lat="37.82518407946512" lon="14.154383240053107"><ele>1080.6666666666667</ele><time>2026-04-19T10:32:24.001Z</time></trkpt><trkpt lat="37.82525763377756" lon="14.15440511936194"><ele>1082.5</ele><time>2026-04-19T10:32:25.001Z</time></trkpt><trkpt lat="37.82535011604555" lon="14.154419967346934"><ele>1084.3333333333335</ele><time>2026-04-19T10:32:26.001Z</time></trkpt><trkpt lat="37.82544707158492" lon="14.154414746146323"><ele>1086.1666666666667</ele><time>2026-04-19T10:32:27.001Z</time></trkpt><trkpt lat="37.82552713203358" lon="14.154411599707005"><ele>1088.0</ele><time>2026-04-19T10:32:28.001Z</time></trkpt><trkpt lat="37.82561326339412" lon="14.154355925311119"><ele>1088.0</ele><time>2026-04-19T10:32:29.001Z</time></trkpt><trkpt lat="37.82570485408405" lon="14.154287166610217"><ele>1088.0</ele><time>2026-04-19T10:32:30.001Z</time></trkpt><trkpt lat="37.825809786923585" lon="14.154223377997177"><ele>1088.0</ele><time>2026-04-19T10:32:30.997Z</time></trkpt><trkpt lat="37.82591931862554" lon="14.154163844415564"><ele>1088.0</ele><time>2026-04-19T10:32:31.997Z</time></trkpt><trkpt lat="37.826025648274936" lon="14.154092820468884"><ele>1088.0</ele><time>2026-04-19T10:32:32.997Z</time></trkpt><trkpt lat="37.82611778723835" lon="14.154000931614378"><ele>1088.0</ele><time>2026-04-19T10:32:33.997Z</time></trkpt><trkpt lat="37.82618989932999" lon="14.153877134302867"><ele>1088.0</ele><time>2026-04-19T10:32:34.998Z</time></trkpt><trkpt lat="37.82624465382151" lon="14.15373973965026"><ele>1088.0</ele><time>2026-04-19T10:32:35.998Z</time></trkpt><trkpt lat="37.8263069838054" lon="14.153616471360973"><ele>1088.0</ele><time>2026-04-19T10:32:36.998Z</time></trkpt><trkpt lat="37.82639478638108" lon="14.153520075459605"><ele>1088.0</ele><time>2026-04-19T10:32:37.998Z</time></trkpt><trkpt lat="37.82650483749488" lon="14.15345371138631"><ele>1088.0</ele><time>2026-04-19T10:32:38.998Z</time></trkpt><trkpt lat="37.826621347877754" lon="14.153414879153914"><ele>1088.0</ele><time>2026-04-19T10:32:39.998Z</time></trkpt><trkpt lat="37.82674668123004" lon="14.153398430279106"><ele>1090.0</ele><time>2026-04-19T10:32:40.998Z</time></trkpt><trkpt lat="37.82687856200237" lon="14.153402107930049"><ele>1092.0</ele><time>2026-04-19T10:32:41.998Z</time></trkpt><trkpt lat="37.8270085149574" lon="14.153411342691316"><ele>1094.0</ele><time>2026-04-19T10:32:42.998Z</time></trkpt><trkpt lat="37.82713166710588" lon="14.153422383631154"><ele>1096.0</ele><time>2026-04-19T10:32:43.998Z</time></trkpt><trkpt lat="37.827261566403315" lon="14.153427379048175"><ele>1096.0</ele><time>2026-04-19T10:32:44.998Z</time></trkpt><trkpt lat="37.827389395813725" lon="14.153440541514549"><ele>1096.0</ele><time>2026-04-19T10:32:45.998Z</time></trkpt><trkpt lat="37.827525666337706" lon="14.153464270981614"><ele>1096.0</ele><time>2026-04-19T10:32:46.998Z</time></trkpt><trkpt lat="37.82768010633282" lon="14.153501843266806"><ele>1096.0</ele><time>2026-04-19T10:32:47.998Z</time></trkpt><trkpt lat="37.827856051252695" lon="14.153568628949955"><ele>1098.3333333333333</ele><time>2026-04-19T10:32:48.998Z</time></trkpt><trkpt lat="37.82805082270048" lon="14.153623587905438"><ele>1100.6666666666667</ele><time>2026-04-19T10:32:49.998Z</time></trkpt><trkpt lat="37.8282366170605" lon="14.153657351839799"><ele>1103.0</ele><time>2026-04-19T10:32:50.998Z</time></trkpt><trkpt lat="37.828400195390294" lon="14.1537146346083"><ele>1102.6666666666667</ele><time>2026-04-19T10:32:51.999Z</time></trkpt><trkpt lat="37.82855975942322" lon="14.153743120367713"><ele>1102.3333333333333</ele><time>2026-04-19T10:32:52.999Z</time></trkpt><trkpt lat="37.828718532273754" lon="14.153732229917301"><ele>1102.0</ele><time>2026-04-19T10:32:53.999Z</time></trkpt><trkpt lat="37.8288700536296" lon="14.15370309621383"><ele>1102.0</ele><time>2026-04-19T10:32:54.999Z</time></trkpt><trkpt lat="37.82901097567111" lon="14.153683711793112"><ele>1102.0</ele><time>2026-04-19T10:32:55.999Z</time></trkpt><trkpt lat="37.829141905931124" lon="14.153658168807027"><ele>1102.0</ele><time>2026-04-19T10:32:56.999Z</time></trkpt><trkpt lat="37.829256988650066" lon="14.153604201651223"><ele>1102.0</ele><time>2026-04-19T10:32:57.999Z</time></trkpt><trkpt lat="37.82934747844167" lon="14.15351272853304"><ele>1099.0</ele><time>2026-04-19T10:32:58.999Z</time></trkpt><trkpt lat="37.82942239862293" lon="14.153405173631503"><ele>1096.0</ele><time>2026-04-19T10:32:59.999Z</time></trkpt><trkpt lat="37.82950024492144" lon="14.153299884602893"><ele>1093.0</ele><time>2026-04-19T10:33:00.999Z</time></trkpt><trkpt lat="37.829582524226154" lon="14.153198364579643"><ele>1090.0</ele><time>2026-04-19T10:33:01.999Z</time></trkpt><trkpt lat="37.829663981643854" lon="14.153107158038834"><ele>1096.0</ele><time>2026-04-19T10:33:02.999Z</time></trkpt><trkpt lat="37.829737659612114" lon="14.153032945199959"><ele>1102.0</ele><time>2026-04-19T10:33:03.999Z</time></trkpt><trkpt lat="37.82982121387854" lon="14.152967444576667"><ele>1108.0</ele><time>2026-04-19T10:33:04.999Z</time></trkpt><trkpt lat="37.82991931025943" lon="14.152945912744334"><ele>1114.0</ele><time>2026-04-19T10:33:05.999Z</time></trkpt><trkpt lat="37.8300250079849" lon="14.152965898260229"><ele>1120.0</ele><time>2026-04-19T10:33:06.999Z</time></trkpt><trkpt lat="37.8301233935059" lon="14.153012084125411"><ele>1121.2</ele><time>2026-04-19T10:33:07.999Z</time></trkpt><trkpt lat="37.83021801460533" lon="14.153039414883327"><ele>1122.4</ele><time>2026-04-19T10:33:08.999Z</time></trkpt><trkpt lat="37.83033196595329" lon="14.153011884409658"><ele>1123.6</ele><time>2026-04-19T10:33:09.999Z</time></trkpt><trkpt lat="37.83043826798301" lon="14.152999257408956"><ele>1124.8</ele><time>2026-04-19T10:33:11Z</time></trkpt><trkpt lat="37.83052515803745" lon="14.15305908147178"><ele>1126.0</ele><time>2026-04-19T10:33:12Z</time></trkpt><trkpt lat="37.830644167632826" lon="14.153130751499992"><ele>1125.3999999999999</ele><time>2026-04-19T10:33:13Z</time></trkpt><trkpt lat="37.83074019505835" lon="14.153206524121096"><ele>1124.8</ele><time>2026-04-19T10:33:14Z</time></trkpt><trkpt lat="37.83083653550144" lon="14.153278679431615"><ele>1124.1999999999998</ele><time>2026-04-19T10:33:15Z</time></trkpt><trkpt lat="37.83092524184856" lon="14.153360806625928"><ele>1123.6</ele><time>2026-04-19T10:33:16Z</time></trkpt><trkpt lat="37.83098118799159" lon="14.153484934492653"><ele>1123.0</ele><time>2026-04-19T10:33:17Z</time></trkpt><trkpt lat="37.8310574551709" lon="14.153601608010886"><ele>1123.0</ele><time>2026-04-19T10:33:18Z</time></trkpt><trkpt lat="37.831123165952604" lon="14.153748270402698"><ele>1123.0</ele><time>2026-04-19T10:33:19Z</time></trkpt><trkpt lat="37.831209273008035" lon="14.153859730747406"><ele>1123.0</ele><time>2026-04-19T10:33:20Z</time></trkpt><trkpt lat="37.831318880093214" lon="14.153951474052487"><ele>1123.0</ele><time>2026-04-19T10:33:21Z</time></trkpt><trkpt lat="37.83143777782983" lon="14.154019782022278"><ele>1123.0</ele><time>2026-04-19T10:33:22Z</time></trkpt><trkpt lat="37.83155376422229" lon="14.154043821169216"><ele>1123.0</ele><time>2026-04-19T10:33:23Z</time></trkpt><trkpt lat="37.831675270192605" lon="14.154016294672825"><ele>1123.0</ele><time>2026-04-19T10:33:24Z</time></trkpt><trkpt lat="37.831791930045505" lon="14.153961790595009"><ele>1123.0</ele><time>2026-04-19T10:33:25Z</time></trkpt><trkpt lat="37.83190504808381" lon="14.153908878253347"><ele>1124.2</ele><time>2026-04-19T10:33:26Z</time></trkpt><trkpt lat="37.83201392071614" lon="14.153862602817572"><ele>1125.4</ele><time>2026-04-19T10:33:27Z</time></trkpt><trkpt lat="37.832112068241955" lon="14.153849051752188"><ele>1126.6000000000001</ele><time>2026-04-19T10:33:28Z</time></trkpt><trkpt lat="37.83220162540772" lon="14.153850735151885"><ele>1127.8</ele><time>2026-04-19T10:33:29Z</time></trkpt><trkpt lat="37.83228895305246" lon="14.153863178012996"><ele>1129.0</ele><time>2026-04-19T10:33:30Z</time></trkpt><trkpt lat="37.83236135666826" lon="14.153955172623478"><ele>1125.0</ele><time>2026-04-19T10:33:31Z</time></trkpt><trkpt lat="37.83239134694022" lon="14.154086749577804"><ele>1121.0</ele><time>2026-04-19T10:33:32Z</time></trkpt><trkpt lat="37.83242105708683" lon="14.154209096758722"><ele>1117.0</ele><time>2026-04-19T10:33:33Z</time></trkpt><trkpt lat="37.83244881514449" lon="14.154335756308216"><ele>1113.0</ele><time>2026-04-19T10:33:34Z</time></trkpt><trkpt lat="37.83249115607263" lon="14.15446976722784"><ele>1109.0</ele><time>2026-04-19T10:33:35Z</time></trkpt><trkpt lat="37.83251413330669" lon="14.154604389837859"><ele>1109.0</ele><time>2026-04-19T10:33:36Z</time></trkpt><trkpt lat="37.83253738789589" lon="14.154733587067842"><ele>1109.0</ele><time>2026-04-19T10:33:37Z</time></trkpt><trkpt lat="37.83257380279573" lon="14.154857133220007"><ele>1109.0</ele><time>2026-04-19T10:33:38Z</time></trkpt><trkpt lat="37.83264164840427" lon="14.154967900260505"><ele>1109.0</ele><time>2026-04-19T10:33:39Z</time></trkpt><trkpt lat="37.832738955467235" lon="14.155045973185368"><ele>1109.0</ele><time>2026-04-19T10:33:40Z</time></trkpt><trkpt lat="37.832848682157284" lon="14.155083534562381"><ele>1109.6000000000001</ele><time>2026-04-19T10:33:41Z</time></trkpt><trkpt lat="37.832959366006854" lon="14.155078510697063"><ele>1110.2</ele><time>2026-04-19T10:33:42Z</time></trkpt><trkpt lat="37.83305994061183" lon="14.155030665261965"><ele>1110.8000000000002</ele><time>2026-04-19T10:33:43Z</time></trkpt><trkpt lat="37.8331554523372" lon="14.15496655049695"><ele>1111.4</ele><time>2026-04-19T10:33:44Z</time></trkpt><trkpt lat="37.83325138969262" lon="14.15497114880607"><ele>1112.0</ele><time>2026-04-19T10:33:45Z</time></trkpt><trkpt lat="37.833343199130006" lon="14.154988039831494"><ele>1112.0</ele><time>2026-04-19T10:33:46Z</time></trkpt><trkpt lat="37.83342604692094" lon="14.155045069494845"><ele>1112.0</ele><time>2026-04-19T10:33:47.001Z</time></trkpt><trkpt lat="37.83352090281076" lon="14.155082944463148"><ele>1112.0</ele><time>2026-04-19T10:33:48.001Z</time></trkpt><trkpt lat="37.83359360042227" lon="14.15517478995564"><ele>1112.0</ele><time>2026-04-19T10:33:49.001Z</time></trkpt><trkpt lat="37.83359836351011" lon="14.15531192516746"><ele>1112.0</ele><time>2026-04-19T10:33:50.001Z</time></trkpt><trkpt lat="37.833625507714075" lon="14.155446389364975"><ele>1114.25</ele><time>2026-04-19T10:33:51.001Z</time></trkpt><trkpt lat="37.83365272999037" lon="14.155580270166878"><ele>1116.5</ele><time>2026-04-19T10:33:52.001Z</time></trkpt><trkpt lat="37.83367600929728" lon="14.155717157394674"><ele>1118.75</ele><time>2026-04-19T10:33:53.001Z</time></trkpt><trkpt lat="37.83369333035951" lon="14.155860133641857"><ele>1121.0</ele><time>2026-04-19T10:33:54.001Z</time></trkpt><trkpt lat="37.83370233695608" lon="14.156018325410063"><ele>1121.0</ele><time>2026-04-19T10:33:55.001Z</time></trkpt><trkpt lat="37.83369415428748" lon="14.156167095820127"><ele>1121.0</ele><time>2026-04-19T10:33:56.001Z</time></trkpt><trkpt lat="37.83370322576381" lon="14.156309774662944"><ele>1121.0</ele><time>2026-04-19T10:33:57.001Z</time></trkpt><trkpt lat="37.83368514516214" lon="14.156435993551595"><ele>1121.0</ele><time>2026-04-19T10:33:58.001Z</time></trkpt><trkpt lat="37.833695011591814" lon="14.156555052249352"><ele>1121.0</ele><time>2026-04-19T10:33:59.001Z</time></trkpt><trkpt lat="37.83375285073047" lon="14.156653349709146"><ele>1118.2</ele><time>2026-04-19T10:34:00.001Z</time></trkpt><trkpt lat="37.833833611352254" lon="14.156711688359943"><ele>1115.3999999999999</ele><time>2026-04-19T10:34:01.001Z</time></trkpt><trkpt lat="37.833941560231274" lon="14.156720717484578"><ele>1112.6</ele><time>2026-04-19T10:34:02.001Z</time></trkpt><trkpt lat="37.83402407790848" lon="14.156656548836402"><ele>1109.8</ele><time>2026-04-19T10:34:03.001Z</time></trkpt><trkpt lat="37.834092894468824" lon="14.156607748818448"><ele>1107.0</ele><time>2026-04-19T10:34:04.001Z</time></trkpt><trkpt lat="37.83417305113931" lon="14.156586946342138"><ele>1107.0</ele><time>2026-04-19T10:34:05.001Z</time></trkpt><trkpt lat="37.83426011619091" lon="14.156587961572967"><ele>1107.0</ele><time>2026-04-19T10:34:06.001Z</time></trkpt><trkpt lat="37.83435040660291" lon="14.156619570485658"><ele>1107.0</ele><time>2026-04-19T10:34:07.001Z</time></trkpt><trkpt lat="37.83442549187288" lon="14.156682483195267"><ele>1107.0</ele><time>2026-04-19T10:34:08.001Z</time></trkpt><trkpt lat="37.83450759269494" lon="14.156756610308301"><ele>1107.0</ele><time>2026-04-19T10:34:09.001Z</time></trkpt><trkpt lat="37.83459503158341" lon="14.156816327279957"><ele>1108.0</ele><time>2026-04-19T10:34:10.001Z</time></trkpt><trkpt lat="37.834702621547166" lon="14.156847243020232"><ele>1109.0</ele><time>2026-04-19T10:34:11.001Z</time></trkpt><trkpt lat="37.83485474528444" lon="14.156842138910944"><ele>1110.0</ele><time>2026-04-19T10:34:12.001Z</time></trkpt><trkpt lat="37.835030291147646" lon="14.15685911209822"><ele>1111.0</ele><time>2026-04-19T10:34:13.001Z</time></trkpt><trkpt lat="37.83520362885599" lon="14.156859112096777"><ele>1112.0</ele><time>2026-04-19T10:34:14.001Z</time></trkpt><trkpt lat="37.83536327806683" lon="14.156838797060068"><ele>1113.0</ele><time>2026-04-19T10:34:15.001Z</time></trkpt><trkpt lat="37.835504267857644" lon="14.156846778470687"><ele>1114.0</ele><time>2026-04-19T10:34:16.001Z</time></trkpt><trkpt lat="37.835622458495386" lon="14.1568558398274"><ele>1115.0</ele><time>2026-04-19T10:34:17.001Z</time></trkpt><trkpt lat="37.83571467034068" lon="14.15690186923236"><ele>1115.0</ele><time>2026-04-19T10:34:18.001Z</time></trkpt><trkpt lat="37.83576374241121" lon="14.157025750804474"><ele>1115.0</ele><time>2026-04-19T10:34:19.001Z</time></trkpt><trkpt lat="37.83577971646576" lon="14.157133943796747"><ele>1115.0</ele><time>2026-04-19T10:34:20.001Z</time></trkpt><trkpt lat="37.83583337244158" lon="14.157217447034038"><ele>1115.0</ele><time>2026-04-19T10:34:21.001Z</time></trkpt><trkpt lat="37.83587621311168" lon="14.157301552210917"><ele>1115.0</ele><time>2026-04-19T10:34:22.001Z</time></trkpt><trkpt lat="37.835951040731274" lon="14.157350550618682"><ele>1115.0</ele><time>2026-04-19T10:34:23.001Z</time></trkpt><trkpt lat="37.836043800455876" lon="14.157327153027092"><ele>1115.4</ele><time>2026-04-19T10:34:24.001Z</time></trkpt><trkpt lat="37.83613738390946" lon="14.157271746426957"><ele>1115.8</ele><time>2026-04-19T10:34:25.001Z</time></trkpt><trkpt lat="37.83622324223471" lon="14.157215643063305"><ele>1116.2</ele><time>2026-04-19T10:34:26.001Z</time></trkpt><trkpt lat="37.83629829411438" lon="14.15717416927487"><ele>1116.6</ele><time>2026-04-19T10:34:27.001Z</time></trkpt><trkpt lat="37.83638087368692" lon="14.157110704544248"><ele>1117.0</ele><time>2026-04-19T10:34:28.001Z</time></trkpt><trkpt lat="37.83646259064321" lon="14.157108209672943"><ele>1117.0</ele><time>2026-04-19T10:34:29.001Z</time></trkpt><trkpt lat="37.836541380550514" lon="14.15712103843405"><ele>1117.0</ele><time>2026-04-19T10:34:30.001Z</time></trkpt><trkpt lat="37.836606370484645" lon="14.157201772448902"><ele>1117.0</ele><time>2026-04-19T10:34:31.002Z</time></trkpt><trkpt lat="37.83667897848262" lon="14.157283265501059"><ele>1117.0</ele><time>2026-04-19T10:34:32.002Z</time></trkpt><trkpt lat="37.83675415161399" lon="14.157362829848926"><ele>1117.0</ele><time>2026-04-19T10:34:33.002Z</time></trkpt><trkpt lat="37.83681930820809" lon="14.157450528957307"><ele>1116.6666666666665</ele><time>2026-04-19T10:34:34.002Z</time></trkpt><trkpt lat="37.836887899236636" lon="14.157526046614386"><ele>1116.3333333333333</ele><time>2026-04-19T10:34:35.002Z</time></trkpt><trkpt lat="37.83695985879027" lon="14.157576855930394"><ele>1116.0</ele><time>2026-04-19T10:34:36.002Z</time></trkpt><trkpt lat="37.83703962277416" lon="14.15758414443029"><ele>1115.6666666666667</ele><time>2026-04-19T10:34:36.998Z</time></trkpt><trkpt lat="37.8371267800619" lon="14.157530001118769"><ele>1115.3333333333335</ele><time>2026-04-19T10:34:37.998Z</time></trkpt><trkpt lat="37.83719173845781" lon="14.157451006814451"><ele>1115.0</ele><time>2026-04-19T10:34:38.998Z</time></trkpt><trkpt lat="37.83725866032042" lon="14.157357449745858"><ele>1115.0</ele><time>2026-04-19T10:34:39.998Z</time></trkpt><trkpt lat="37.83732665338192" lon="14.157256013307022"><ele>1115.0</ele><time>2026-04-19T10:34:40.998Z</time></trkpt><trkpt lat="37.837399435430974" lon="14.157157639951246"><ele>1115.0</ele><time>2026-04-19T10:34:41.998Z</time></trkpt><trkpt lat="37.83750440918723" lon="14.157088306404999"><ele>1115.0</ele><time>2026-04-19T10:34:42.998Z</time></trkpt><trkpt lat="37.837643720342896" lon="14.157093874190323"><ele>1116.25</ele><time>2026-04-19T10:34:43.998Z</time></trkpt><trkpt lat="37.83778521034663" lon="14.157109584324632"><ele>1117.5</ele><time>2026-04-19T10:34:44.998Z</time></trkpt><trkpt lat="37.837919719177165" lon="14.157119918160545"><ele>1118.75</ele><time>2026-04-19T10:34:45.998Z</time></trkpt><trkpt lat="37.838035396535844" lon="14.157161773517457"><ele>1120.0</ele><time>2026-04-19T10:34:46.998Z</time></trkpt><trkpt lat="37.83814994962294" lon="14.157223029237626"><ele>1120.0</ele><time>2026-04-19T10:34:47.999Z</time></trkpt><trkpt lat="37.83825833280475" lon="14.157320958429843"><ele>1120.0</ele><time>2026-04-19T10:34:48.999Z</time></trkpt><trkpt lat="37.83836318371432" lon="14.15740657307609"><ele>1120.0</ele><time>2026-04-19T10:34:49.999Z</time></trkpt><trkpt lat="37.83847965942774" lon="14.157456495409335"><ele>1120.0</ele><time>2026-04-19T10:34:50.999Z</time></trkpt><trkpt lat="37.83859179790212" lon="14.157430182263838"><ele>1119.3333333333333</ele><time>2026-04-19T10:34:51.999Z</time></trkpt><trkpt lat="37.8387281047433" lon="14.157366110765599"><ele>1118.6666666666667</ele><time>2026-04-19T10:34:52.999Z</time></trkpt><trkpt lat="37.83888812860483" lon="14.157272572600213"><ele>1118.0</ele><time>2026-04-19T10:34:53.999Z</time></trkpt><trkpt lat="37.83905595300681" lon="14.157192402563453"><ele>1118.0</ele><time>2026-04-19T10:34:54.999Z</time></trkpt><trkpt lat="37.8391885407719" lon="14.15712606319772"><ele>1118.0</ele><time>2026-04-19T10:34:55.999Z</time></trkpt><trkpt lat="37.83929483894995" lon="14.157099871548542"><ele>1118.0</ele><time>2026-04-19T10:34:56.999Z</time></trkpt><trkpt lat="37.83938437396947" lon="14.157174845989815"><ele>1118.0</ele><time>2026-04-19T10:34:57.999Z</time></trkpt><trkpt lat="37.83943293021738" lon="14.157282652888666"><ele>1112.5</ele><time>2026-04-19T10:34:58.999Z</time></trkpt><trkpt lat="37.83947698171431" lon="14.15738902118463"><ele>1107.0</ele><time>2026-04-19T10:34:59.999Z</time></trkpt><trkpt lat="37.83957149943343" lon="14.157478579616427"><ele>1101.5</ele><time>2026-04-19T10:35:00.999Z</time></trkpt><trkpt lat="37.83968372178303" lon="14.157545286023451"><ele>1096.0</ele><time>2026-04-19T10:35:01.999Z</time></trkpt><trkpt lat="37.839792142782514" lon="14.157584195999792"><ele>1096.0</ele><time>2026-04-19T10:35:02.999Z</time></trkpt><trkpt lat="37.83990293127925" lon="14.157575574197194"><ele>1096.0</ele><time>2026-04-19T10:35:03.999Z</time></trkpt><trkpt lat="37.84002802066746" lon="14.157519540045596"><ele>1096.0</ele><time>2026-04-19T10:35:05Z</time></trkpt><trkpt lat="37.84016218777698" lon="14.157456066778966"><ele>1096.0</ele><time>2026-04-19T10:35:06Z</time></trkpt><trkpt lat="37.840310750237876" lon="14.157390615995125"><ele>1097.3333333333333</ele><time>2026-04-19T10:35:07Z</time></trkpt><trkpt lat="37.840474073105696" lon="14.157317586998559"><ele>1098.6666666666667</ele><time>2026-04-19T10:35:08Z</time></trkpt><trkpt lat="37.840614031059594" lon="14.157264575839058"><ele>1100.0</ele><time>2026-04-19T10:35:09Z</time></trkpt><trkpt lat="37.840757816890594" lon="14.157229554341857"><ele>1100.0</ele><time>2026-04-19T10:35:10Z</time></trkpt><trkpt lat="37.840887893060724" lon="14.157190073279908"><ele>1100.0</ele><time>2026-04-19T10:35:11Z</time></trkpt><trkpt lat="37.84099256067816" lon="14.157118157404298"><ele>1100.0</ele><time>2026-04-19T10:35:12Z</time></trkpt><trkpt lat="37.84105709307306" lon="14.157001702899489"><ele>1100.0</ele><time>2026-04-19T10:35:13Z</time></trkpt><trkpt lat="37.84106380562286" lon="14.156849504525768"><ele>1099.75</ele><time>2026-04-19T10:35:14Z</time></trkpt><trkpt lat="37.84100933480608" lon="14.156689241055874"><ele>1099.5</ele><time>2026-04-19T10:35:15Z</time></trkpt><trkpt lat="37.8409931644881" lon="14.156531238860222"><ele>1099.25</ele><time>2026-04-19T10:35:16Z</time></trkpt><trkpt lat="37.84097164569785" lon="14.156379746345712"><ele>1099.0</ele><time>2026-04-19T10:35:17Z</time></trkpt><trkpt lat="37.840947334622285" lon="14.156224734736934"><ele>1099.0</ele><time>2026-04-19T10:35:18Z</time></trkpt><trkpt lat="37.84091999205484" lon="14.156051481230602"><ele>1099.0</ele><time>2026-04-19T10:35:19Z</time></trkpt><trkpt lat="37.84089561233501" lon="14.15587042161964"><ele>1099.0</ele><time>2026-04-19T10:35:20Z</time></trkpt><trkpt lat="37.84089668839442" lon="14.155695442280425"><ele>1099.0</ele><time>2026-04-19T10:35:21Z</time></trkpt><trkpt lat="37.84091367320087" lon="14.15553544114937"><ele>1092.75</ele><time>2026-04-19T10:35:22Z</time></trkpt><trkpt lat="37.8409668222723" lon="14.155383438439271"><ele>1086.5</ele><time>2026-04-19T10:35:23Z</time></trkpt><trkpt lat="37.84104299296415" lon="14.155237130081504"><ele>1080.25</ele><time>2026-04-19T10:35:24Z</time></trkpt><trkpt lat="37.84113324311652" lon="14.155102487147603"><ele>1074.0</ele><time>2026-04-19T10:35:25Z</time></trkpt><trkpt lat="37.84123473683774" lon="14.154957662021356"><ele>1078.75</ele><time>2026-04-19T10:35:26Z</time></trkpt><trkpt lat="37.841349083589535" lon="14.154829208384031"><ele>1083.5</ele><time>2026-04-19T10:35:27Z</time></trkpt><trkpt lat="37.84146605032365" lon="14.154736150104954"><ele>1088.25</ele><time>2026-04-19T10:35:28Z</time></trkpt><trkpt lat="37.841563157228755" lon="14.15461907953989"><ele>1093.0</ele><time>2026-04-19T10:35:29Z</time></trkpt><trkpt lat="37.841661911223945" lon="14.154504416036508"><ele>1093.0</ele><time>2026-04-19T10:35:30Z</time></trkpt><trkpt lat="37.84171819038195" lon="14.154358785397767"><ele>1093.0</ele><time>2026-04-19T10:35:31.001Z</time></trkpt><trkpt lat="37.841748247116605" lon="14.15419028512297"><ele>1093.0</ele><time>2026-04-19T10:35:32.001Z</time></trkpt><trkpt lat="37.841761432053524" lon="14.154015984981012"><ele>1093.0</ele><time>2026-04-19T10:35:33.001Z</time></trkpt><trkpt lat="37.84181197064185" lon="14.153858953787301"><ele>1087.75</ele><time>2026-04-19T10:35:34.001Z</time></trkpt><trkpt lat="37.841883931502196" lon="14.153713638318534"><ele>1082.5</ele><time>2026-04-19T10:35:35.001Z</time></trkpt><trkpt lat="37.84194306726746" lon="14.153553784795882"><ele>1077.25</ele><time>2026-04-19T10:35:36.001Z</time></trkpt><trkpt lat="37.8420053433643" lon="14.153409746574031"><ele>1072.0</ele><time>2026-04-19T10:35:37.001Z</time></trkpt><trkpt lat="37.84205526313279" lon="14.153244366351108"><ele>1074.25</ele><time>2026-04-19T10:35:38.001Z</time></trkpt><trkpt lat="37.842099834632535" lon="14.15307406915336"><ele>1076.5</ele><time>2026-04-19T10:35:39.001Z</time></trkpt><trkpt lat="37.842131613892626" lon="14.152899487605064"><ele>1078.75</ele><time>2026-04-19T10:35:40.001Z</time></trkpt><trkpt lat="37.842160114673355" lon="14.15271571029818"><ele>1081.0</ele><time>2026-04-19T10:35:41.001Z</time></trkpt><trkpt lat="37.842185962514904" lon="14.152527823629885"><ele>1082.0</ele><time>2026-04-19T10:35:42.001Z</time></trkpt><trkpt lat="37.84221261010815" lon="14.152338107034906"><ele>1083.0</ele><time>2026-04-19T10:35:43.001Z</time></trkpt><trkpt lat="37.8422374711504" lon="14.152151529779774"><ele>1084.0</ele><time>2026-04-19T10:35:44.001Z</time></trkpt><trkpt lat="37.842261964401686" lon="14.151968533192797"><ele>1085.0</ele><time>2026-04-19T10:35:45.001Z</time></trkpt><trkpt lat="37.84228358519454" lon="14.151795183202749"><ele>1085.0</ele><time>2026-04-19T10:35:46.001Z</time></trkpt><trkpt lat="37.84232426505174" lon="14.151634030955703"><ele>1085.0</ele><time>2026-04-19T10:35:47.001Z</time></trkpt><trkpt lat="37.84235774422268" lon="14.151475222050847"><ele>1085.0</ele><time>2026-04-19T10:35:48.001Z</time></trkpt><trkpt lat="37.84242294492979" lon="14.151381184840082"><ele>1085.0</ele><time>2026-04-19T10:35:49.001Z</time></trkpt><trkpt lat="37.842508664895355" lon="14.151368006774714"><ele>1085.0</ele><time>2026-04-19T10:35:50.001Z</time></trkpt><trkpt lat="37.842601196441464" lon="14.15132851301754"><ele>1087.0</ele><time>2026-04-19T10:35:51.001Z</time></trkpt><trkpt lat="37.84270060689154" lon="14.151273691720812"><ele>1089.0</ele><time>2026-04-19T10:35:52.001Z</time></trkpt><trkpt lat="37.842809933430054" lon="14.151227730356904"><ele>1091.0</ele><time>2026-04-19T10:35:53.001Z</time></trkpt><trkpt lat="37.84292023334918" lon="14.151157582148981"><ele>1093.0</ele><time>2026-04-19T10:35:54.001Z</time></trkpt><trkpt lat="37.843030121219044" lon="14.151101423426603"><ele>1093.0</ele><time>2026-04-19T10:35:55.001Z</time></trkpt><trkpt lat="37.843119473971065" lon="14.151041280746613"><ele>1093.0</ele><time>2026-04-19T10:35:56.001Z</time></trkpt><trkpt lat="37.84322792292634" lon="14.151036153561028"><ele>1093.0</ele><time>2026-04-19T10:35:57.001Z</time></trkpt><trkpt lat="37.84333666534398" lon="14.151075186222812"><ele>1093.0</ele><time>2026-04-19T10:35:58.001Z</time></trkpt><trkpt lat="37.843430162218496" lon="14.1511725422583"><ele>1093.0</ele><time>2026-04-19T10:35:59.001Z</time></trkpt><trkpt lat="37.84354129237876" lon="14.151251529377845"><ele>1097.5</ele><time>2026-04-19T10:36:00.001Z</time></trkpt><trkpt lat="37.84364838725366" lon="14.151347800904416"><ele>1102.0</ele><time>2026-04-19T10:36:01.001Z</time></trkpt><trkpt lat="37.843767649254865" lon="14.151432114465287"><ele>1106.5</ele><time>2026-04-19T10:36:02.001Z</time></trkpt><trkpt lat="37.843904474781546" lon="14.151494005001599"><ele>1111.0</ele><time>2026-04-19T10:36:03.001Z</time></trkpt><trkpt lat="37.84405210854967" lon="14.15153333196372"><ele>1106.75</ele><time>2026-04-19T10:36:04.001Z</time></trkpt><trkpt lat="37.844201887542184" lon="14.151548354264355"><ele>1102.5</ele><time>2026-04-19T10:36:05.001Z</time></trkpt><trkpt lat="37.8443479270307" lon="14.151570891260405"><ele>1098.25</ele><time>2026-04-19T10:36:06.001Z</time></trkpt><trkpt lat="37.844493416567296" lon="14.151605496369271"><ele>1094.0</ele><time>2026-04-19T10:36:07.002Z</time></trkpt><trkpt lat="37.84463373728023" lon="14.151647313913942"><ele>1094.0</ele><time>2026-04-19T10:36:08.002Z</time></trkpt><trkpt lat="37.844770688511964" lon="14.151694616135522"><ele>1094.0</ele><time>2026-04-19T10:36:09.002Z</time></trkpt><trkpt lat="37.84490535747503" lon="14.151759423636433"><ele>1094.0</ele><time>2026-04-19T10:36:10.002Z</time></trkpt><trkpt lat="37.84503421989807" lon="14.151849252962982"><ele>1094.0</ele><time>2026-04-19T10:36:11.002Z</time></trkpt><trkpt lat="37.845161845860495" lon="14.151952089186947"><ele>1095.5</ele><time>2026-04-19T10:36:12.002Z</time></trkpt><trkpt lat="37.84528907071833" lon="14.152054723726325"><ele>1097.0</ele><time>2026-04-19T10:36:13.002Z</time></trkpt><trkpt lat="37.84541819975209" lon="14.152148984151035"><ele>1098.5</ele><time>2026-04-19T10:36:14.002Z</time></trkpt><trkpt lat="37.84553590985176" lon="14.152245581974107"><ele>1100.0</ele><time>2026-04-19T10:36:15.002Z</time></trkpt><trkpt lat="37.8456499302503" lon="14.152335203684624"><ele>1100.0</ele><time>2026-04-19T10:36:16.002Z</time></trkpt><trkpt lat="37.845769751818615" lon="14.152377827214938"><ele>1100.0</ele><time>2026-04-19T10:36:17.002Z</time></trkpt><trkpt lat="37.84589303752263" lon="14.152369555769184"><ele>1100.0</ele><time>2026-04-19T10:36:18.002Z</time></trkpt><trkpt lat="37.846002804189034" lon="14.152285053208525"><ele>1100.0</ele><time>2026-04-19T10:36:19.002Z</time></trkpt><trkpt lat="37.84609337127382" lon="14.15219301124539"><ele>1101.75</ele><time>2026-04-19T10:36:20.002Z</time></trkpt><trkpt lat="37.84619225654832" lon="14.152210299924507"><ele>1103.5</ele><time>2026-04-19T10:36:21.002Z</time></trkpt><trkpt lat="37.84629756801383" lon="14.152240814903378"><ele>1105.25</ele><time>2026-04-19T10:36:22.002Z</time></trkpt><trkpt lat="37.84638590685525" lon="14.152347955673788"><ele>1107.0</ele><time>2026-04-19T10:36:23.002Z</time></trkpt><trkpt lat="37.84646935413216" lon="14.152470400664669"><ele>1105.75</ele><time>2026-04-19T10:36:24.002Z</time></trkpt><trkpt lat="37.84654558074081" lon="14.152604527149148"><ele>1104.5</ele><time>2026-04-19T10:36:25.002Z</time></trkpt><trkpt lat="37.84662729006498" lon="14.152749601402784"><ele>1103.25</ele><time>2026-04-19T10:36:26.002Z</time></trkpt><trkpt lat="37.84670499668471" lon="14.152885693151008"><ele>1102.0</ele><time>2026-04-19T10:36:27.002Z</time></trkpt><trkpt lat="37.84680042307012" lon="14.153023759030427"><ele>1102.0</ele><time>2026-04-19T10:36:28.002Z</time></trkpt><trkpt lat="37.846901239075464" lon="14.153179344349356"><ele>1102.0</ele><time>2026-04-19T10:36:29.002Z</time></trkpt><trkpt lat="37.84699861833399" lon="14.15333081737613"><ele>1102.0</ele><time>2026-04-19T10:36:30.002Z</time></trkpt><trkpt lat="37.84709406730199" lon="14.15347562171351"><ele>1098.25</ele><time>2026-04-19T10:36:31.002Z</time></trkpt><trkpt lat="37.847202697436906" lon="14.153610839110481"><ele>1094.5</ele><time>2026-04-19T10:36:32.002Z</time></trkpt><trkpt lat="37.84731872122359" lon="14.153730360285182"><ele>1090.75</ele><time>2026-04-19T10:36:33.002Z</time></trkpt><trkpt lat="37.84743486838995" lon="14.15384104527428"><ele>1087.0</ele><time>2026-04-19T10:36:34.002Z</time></trkpt><trkpt lat="37.84753934856066" lon="14.153950507766027"><ele>1082.75</ele><time>2026-04-19T10:36:35.002Z</time></trkpt><trkpt lat="37.847637197211874" lon="14.154056063985516"><ele>1078.5</ele><time>2026-04-19T10:36:36.002Z</time></trkpt><trkpt lat="37.84773326854432" lon="14.15415725936582"><ele>1074.25</ele><time>2026-04-19T10:36:37.002Z</time></trkpt><trkpt lat="37.84783009955633" lon="14.154247817062553"><ele>1070.0</ele><time>2026-04-19T10:36:38.002Z</time></trkpt><trkpt lat="37.84793008033261" lon="14.154300168825769"><ele>1070.0</ele><time>2026-04-19T10:36:39.002Z</time></trkpt><trkpt lat="37.848038461339264" lon="14.154279607099353"><ele>1070.0</ele><time>2026-04-19T10:36:40.002Z</time></trkpt><trkpt lat="37.84813909994387" lon="14.154180186235433"><ele>1070.0</ele><time>2026-04-19T10:36:41.002Z</time></trkpt><trkpt lat="37.84823657633326" lon="14.154058174636388"><ele>1070.0</ele><time>2026-04-19T10:36:42.002Z</time></trkpt><trkpt lat="37.848354517970066" lon="14.15399324969421"><ele>1076.75</ele><time>2026-04-19T10:36:42.999Z</time></trkpt><trkpt lat="37.8484602809002" lon="14.153892303349151"><ele>1083.5</ele><time>2026-04-19T10:36:43.999Z</time></trkpt><trkpt lat="37.848585183736915" lon="14.15381729142867"><ele>1090.25</ele><time>2026-04-19T10:36:44.999Z</time></trkpt><trkpt lat="37.8486965316564" lon="14.153759140856854"><ele>1097.0</ele><time>2026-04-19T10:36:45.999Z</time></trkpt><trkpt lat="37.84884656942497" lon="14.153738069865065"><ele>1097.0</ele><time>2026-04-19T10:36:46.999Z</time></trkpt><trkpt lat="37.84902525225168" lon="14.153767452375137"><ele>1097.0</ele><time>2026-04-19T10:36:47.999Z</time></trkpt><trkpt lat="37.84918041699494" lon="14.153823943115135"><ele>1097.0</ele><time>2026-04-19T10:36:48.999Z</time></trkpt><trkpt lat="37.849308984997414" lon="14.153853402573958"><ele>1095.5</ele><time>2026-04-19T10:36:49.999Z</time></trkpt><trkpt lat="37.84946750643175" lon="14.153873527974577"><ele>1094.0</ele><time>2026-04-19T10:36:50.999Z</time></trkpt><trkpt lat="37.84961026011577" lon="14.153882310336698"><ele>1092.5</ele><time>2026-04-19T10:36:51.999Z</time></trkpt><trkpt lat="37.84975489998902" lon="14.153867515106835"><ele>1091.0</ele><time>2026-04-19T10:36:52.999Z</time></trkpt><trkpt lat="37.84989023765567" lon="14.153812779557605"><ele>1091.0</ele><time>2026-04-19T10:36:53.999Z</time></trkpt><trkpt lat="37.85002332041312" lon="14.15372890839254"><ele>1091.0</ele><time>2026-04-19T10:36:54.999Z</time></trkpt><trkpt lat="37.85015537014839" lon="14.15362114924766"><ele>1091.0</ele><time>2026-04-19T10:36:55.999Z</time></trkpt><trkpt lat="37.850298476232645" lon="14.15352994920006"><ele>1086.6666666666667</ele><time>2026-04-19T10:36:56.999Z</time></trkpt><trkpt lat="37.85043552464507" lon="14.15343479306526"><ele>1082.3333333333333</ele><time>2026-04-19T10:36:57.999Z</time></trkpt><trkpt lat="37.85058060967703" lon="14.153364928281873"><ele>1078.0</ele><time>2026-04-19T10:36:58.999Z</time></trkpt><trkpt lat="37.850706076301286" lon="14.15326286894632"><ele>1079.75</ele><time>2026-04-19T10:37:00Z</time></trkpt><trkpt lat="37.85083831106854" lon="14.153184023752194"><ele>1081.5</ele><time>2026-04-19T10:37:01Z</time></trkpt><trkpt lat="37.850975424753116" lon="14.153097889973242"><ele>1083.25</ele><time>2026-04-19T10:37:02Z</time></trkpt><trkpt lat="37.85110052757091" lon="14.153020204874686"><ele>1085.0</ele><time>2026-04-19T10:37:03Z</time></trkpt><trkpt lat="37.8512189956939" lon="14.152951696241427"><ele>1085.0</ele><time>2026-04-19T10:37:04Z</time></trkpt><trkpt lat="37.85133136762499" lon="14.152893994056033"><ele>1085.0</ele><time>2026-04-19T10:37:05Z</time></trkpt><trkpt lat="37.85143214669456" lon="14.152847868385521"><ele>1085.0</ele><time>2026-04-19T10:37:06Z</time></trkpt><trkpt lat="37.8515355032948" lon="14.152836685958158"><ele>1085.0</ele><time>2026-04-19T10:37:07Z</time></trkpt><trkpt lat="37.851632103376" lon="14.152861422444232"><ele>1085.0</ele><time>2026-04-19T10:37:08Z</time></trkpt><trkpt lat="37.85171724923424" lon="14.152906928688983"><ele>1084.8</ele><time>2026-04-19T10:37:09Z</time></trkpt><trkpt lat="37.85179960814549" lon="14.15295276203039"><ele>1084.6</ele><time>2026-04-19T10:37:10Z</time></trkpt><trkpt lat="37.851881629019346" lon="14.152994019682117"><ele>1084.4</ele><time>2026-04-19T10:37:11Z</time></trkpt><trkpt lat="37.85196800038503" lon="14.153010808330498"><ele>1084.2</ele><time>2026-04-19T10:37:12Z</time></trkpt><trkpt lat="37.85205826984585" lon="14.152985049122087"><ele>1084.0</ele><time>2026-04-19T10:37:13Z</time></trkpt><trkpt lat="37.85214419247279" lon="14.15292728281133"><ele>1084.0</ele><time>2026-04-19T10:37:14Z</time></trkpt><trkpt lat="37.852231064758456" lon="14.152859695512431"><ele>1084.0</ele><time>2026-04-19T10:37:15Z</time></trkpt><trkpt lat="37.85230998871124" lon="14.152781783807438"><ele>1084.0</ele><time>2026-04-19T10:37:16Z</time></trkpt><trkpt lat="37.852411765565904" lon="14.152714546510817"><ele>1084.0</ele><time>2026-04-19T10:37:17Z</time></trkpt><trkpt lat="37.85251256347613" lon="14.152646256008675"><ele>1084.0</ele><time>2026-04-19T10:37:18Z</time></trkpt><trkpt lat="37.852614955221846" lon="14.152572931806933"><ele>1088.5</ele><time>2026-04-19T10:37:19Z</time></trkpt><trkpt lat="37.85271880360059" lon="14.15249168074891"><ele>1093.0</ele><time>2026-04-19T10:37:20Z</time></trkpt><trkpt lat="37.85282335874362" lon="14.152409567700415"><ele>1097.5</ele><time>2026-04-19T10:37:21Z</time></trkpt><trkpt lat="37.85293371238351" lon="14.152328683641963"><ele>1102.0</ele><time>2026-04-19T10:37:22Z</time></trkpt><trkpt lat="37.853045945440265" lon="14.152252296597139"><ele>1093.5</ele><time>2026-04-19T10:37:23Z</time></trkpt><trkpt lat="37.85316043900918" lon="14.152172029816985"><ele>1085.0</ele><time>2026-04-19T10:37:24.001Z</time></trkpt><trkpt lat="37.85327299005566" lon="14.152087839557717"><ele>1076.5</ele><time>2026-04-19T10:37:25.001Z</time></trkpt><trkpt lat="37.853389902089845" lon="14.15200440066142"><ele>1068.0</ele><time>2026-04-19T10:37:26.001Z</time></trkpt><trkpt lat="37.85350897340817" lon="14.151938602495543"><ele>1068.0</ele><time>2026-04-19T10:37:27.001Z</time></trkpt><trkpt lat="37.85363679225835" lon="14.151884605981023"><ele>1068.0</ele><time>2026-04-19T10:37:28.001Z</time></trkpt><trkpt lat="37.85375823825507" lon="14.15185054598789"><ele>1068.0</ele><time>2026-04-19T10:37:29.001Z</time></trkpt><trkpt lat="37.85387141925946" lon="14.151813423118657"><ele>1068.0</ele><time>2026-04-19T10:37:30.001Z</time></trkpt><trkpt lat="37.853995805244374" lon="14.151776638077326"><ele>1068.0</ele><time>2026-04-19T10:37:31.001Z</time></trkpt><trkpt lat="37.85411750971016" lon="14.15178675550554"><ele>1068.0</ele><time>2026-04-19T10:37:32.001Z</time></trkpt><trkpt lat="37.85424362526902" lon="14.151774773208235"><ele>1068.0</ele><time>2026-04-19T10:37:33.001Z</time></trkpt><trkpt lat="37.85437179481153" lon="14.151806228837371"><ele>1068.0</ele><time>2026-04-19T10:37:34.001Z</time></trkpt><trkpt lat="37.854505199770294" lon="14.15185265884709"><ele>1063.0</ele><time>2026-04-19T10:37:35.001Z</time></trkpt><trkpt lat="37.85463563483059" lon="14.15191647644657"><ele>1058.0</ele><time>2026-04-19T10:37:36.001Z</time></trkpt><trkpt lat="37.85474779915808" lon="14.152022322734743"><ele>1053.0</ele><time>2026-04-19T10:37:37.001Z</time></trkpt><trkpt lat="37.85487322088001" lon="14.152099239597193"><ele>1048.0</ele><time>2026-04-19T10:37:38.001Z</time></trkpt><trkpt lat="37.85498461075995" lon="14.15219247060527"><ele>1048.0</ele><time>2026-04-19T10:37:39.001Z</time></trkpt><trkpt lat="37.855101292611884" lon="14.152276393057463"><ele>1048.0</ele><time>2026-04-19T10:37:40.001Z</time></trkpt><trkpt lat="37.85521346754004" lon="14.152362245638896"><ele>1048.0</ele><time>2026-04-19T10:37:41.001Z</time></trkpt><trkpt lat="37.855328655536056" lon="14.15245446163832"><ele>1048.0</ele><time>2026-04-19T10:37:42.001Z</time></trkpt><trkpt lat="37.85544250228886" lon="14.152551580758994"><ele>1051.75</ele><time>2026-04-19T10:37:43.001Z</time></trkpt><trkpt lat="37.85555189875833" lon="14.152643471588561"><ele>1055.5</ele><time>2026-04-19T10:37:44.001Z</time></trkpt><trkpt lat="37.85567022445585" lon="14.152726101405273"><ele>1059.25</ele><time>2026-04-19T10:37:45.001Z</time></trkpt><trkpt lat="37.85579587912905" lon="14.152799357053047"><ele>1063.0</ele><time>2026-04-19T10:37:46.001Z</time></trkpt><trkpt lat="37.855920807334165" lon="14.15286627633213"><ele>1057.5</ele><time>2026-04-19T10:37:47.001Z</time></trkpt><trkpt lat="37.856047059029976" lon="14.15293042120752"><ele>1052.0</ele><time>2026-04-19T10:37:48.001Z</time></trkpt><trkpt lat="37.856172156486586" lon="14.152991205688167"><ele>1046.5</ele><time>2026-04-19T10:37:49.001Z</time></trkpt><trkpt lat="37.85630933433555" lon="14.153033918778101"><ele>1041.0</ele><time>2026-04-19T10:37:50.001Z</time></trkpt><trkpt lat="37.85644295825013" lon="14.153071650942058"><ele>1041.0</ele><time>2026-04-19T10:37:51.001Z</time></trkpt><trkpt lat="37.85657183422349" lon="14.15310733209035"><ele>1041.0</ele><time>2026-04-19T10:37:52.001Z</time></trkpt><trkpt lat="37.8567040794839" lon="14.153136372870906"><ele>1041.0</ele><time>2026-04-19T10:37:53.001Z</time></trkpt><trkpt lat="37.85683229586666" lon="14.153159103330907"><ele>1041.0</ele><time>2026-04-19T10:37:54.001Z</time></trkpt><trkpt lat="37.856958714956" lon="14.15318408373343"><ele>1045.0</ele><time>2026-04-19T10:37:55.002Z</time></trkpt><trkpt lat="37.85708568314411" lon="14.153204029501612"><ele>1049.0</ele><time>2026-04-19T10:37:56.002Z</time></trkpt><trkpt lat="37.85721153719801" lon="14.153236403518402"><ele>1053.0</ele><time>2026-04-19T10:37:57.002Z</time></trkpt><trkpt lat="37.85733956283727" lon="14.153265570030058"><ele>1057.0</ele><time>2026-04-19T10:37:58.002Z</time></trkpt><trkpt lat="37.857464862854634" lon="14.153299970675272"><ele>1057.0</ele><time>2026-04-19T10:37:59.002Z</time></trkpt><trkpt lat="37.857587823201996" lon="14.153330560762011"><ele>1057.0</ele><time>2026-04-19T10:38:00.002Z</time></trkpt><trkpt lat="37.857710133796516" lon="14.153357479923468"><ele>1057.0</ele><time>2026-04-19T10:38:01.002Z</time></trkpt><trkpt lat="37.857826546410955" lon="14.153385069919619"><ele>1057.0</ele><time>2026-04-19T10:38:02.002Z</time></trkpt><trkpt lat="37.85794243449366" lon="14.153419602054312"><ele>1055.25</ele><time>2026-04-19T10:38:03.002Z</time></trkpt><trkpt lat="37.85805575011689" lon="14.153458333825327"><ele>1053.5</ele><time>2026-04-19T10:38:04.002Z</time></trkpt><trkpt lat="37.858166403444976" lon="14.153502085954615"><ele>1051.75</ele><time>2026-04-19T10:38:05.002Z</time></trkpt><trkpt lat="37.858283739472256" lon="14.153540743819976"><ele>1050.0</ele><time>2026-04-19T10:38:06.002Z</time></trkpt><trkpt lat="37.858400358168794" lon="14.153548103315764"><ele>1052.75</ele><time>2026-04-19T10:38:07.002Z</time></trkpt><trkpt lat="37.85850835597448" lon="14.153502563125532"><ele>1055.5</ele><time>2026-04-19T10:38:08.002Z</time></trkpt><trkpt lat="37.85859518440092" lon="14.153413004161022"><ele>1058.25</ele><time>2026-04-19T10:38:09.002Z</time></trkpt><trkpt lat="37.858678872915895" lon="14.153294317711302"><ele>1061.0</ele><time>2026-04-19T10:38:10.002Z</time></trkpt><trkpt lat="37.85875140274067" lon="14.153189043447288"><ele>1053.3999999999999</ele><time>2026-04-19T10:38:11.002Z</time></trkpt><trkpt lat="37.858827654618004" lon="14.15310595056466"><ele>1045.8</ele><time>2026-04-19T10:38:12.002Z</time></trkpt><trkpt lat="37.85890384055704" lon="14.153032582898577"><ele>1038.1999999999998</ele><time>2026-04-19T10:38:13.002Z</time></trkpt><trkpt lat="37.85901083517204" lon="14.152973343060795"><ele>1030.6</ele><time>2026-04-19T10:38:14.002Z</time></trkpt><trkpt lat="37.85911082021489" lon="14.152874904557672"><ele>1023.0</ele><time>2026-04-19T10:38:15.002Z</time></trkpt><trkpt lat="37.859210167374236" lon="14.15280254988326"><ele>1020.75</ele><time>2026-04-19T10:38:16.002Z</time></trkpt><trkpt lat="37.85931056239028" lon="14.152746551877598"><ele>1018.5</ele><time>2026-04-19T10:38:17.002Z</time></trkpt><trkpt lat="37.859417200457806" lon="14.152725818624214"><ele>1016.25</ele><time>2026-04-19T10:38:18.002Z</time></trkpt><trkpt lat="37.8595374836081" lon="14.15276332436405"><ele>1014.0</ele><time>2026-04-19T10:38:19.002Z</time></trkpt><trkpt lat="37.8596504504089" lon="14.152792727160366"><ele>1014.0</ele><time>2026-04-19T10:38:20.002Z</time></trkpt><trkpt lat="37.859766535887026" lon="14.152826248510774"><ele>1014.0</ele><time>2026-04-19T10:38:21.002Z</time></trkpt><trkpt lat="37.85987694498432" lon="14.152868600436742"><ele>1014.0</ele><time>2026-04-19T10:38:22.002Z</time></trkpt><trkpt lat="37.85998367012038" lon="14.152921549411575"><ele>1014.0</ele><time>2026-04-19T10:38:23.002Z</time></trkpt><trkpt lat="37.860089023045" lon="14.152983722419796"><ele>1013.25</ele><time>2026-04-19T10:38:24.002Z</time></trkpt><trkpt lat="37.86019620845306" lon="14.153052084211684"><ele>1012.5</ele><time>2026-04-19T10:38:25.002Z</time></trkpt><trkpt lat="37.860302963117476" lon="14.15313137196194"><ele>1011.75</ele><time>2026-04-19T10:38:26.002Z</time></trkpt><trkpt lat="37.86039946960459" lon="14.153217724615688"><ele>1011.0</ele><time>2026-04-19T10:38:27.002Z</time></trkpt><trkpt lat="37.86048654520876" lon="14.153315329796701"><ele>1011.0</ele><time>2026-04-19T10:38:28.002Z</time></trkpt><trkpt lat="37.86058271966827" lon="14.153406399901568"><ele>1011.0</ele><time>2026-04-19T10:38:29.003Z</time></trkpt><trkpt lat="37.86066467914128" lon="14.153513048290721"><ele>1011.0</ele><time>2026-04-19T10:38:30.003Z</time></trkpt><trkpt lat="37.86073166972898" lon="14.153631445280551"><ele>1011.0</ele><time>2026-04-19T10:38:31.003Z</time></trkpt><trkpt lat="37.86077993091834" lon="14.15376150951763"><ele>1011.0</ele><time>2026-04-19T10:38:32.003Z</time></trkpt><trkpt lat="37.860805578621346" lon="14.153893700378775"><ele>1010.9999999999999</ele><time>2026-04-19T10:38:33.003Z</time></trkpt><trkpt lat="37.86082134701515" lon="14.154025218777173"><ele>1010.9999999999999</ele><time>2026-04-19T10:38:34.003Z</time></trkpt><trkpt lat="37.86083589647096" lon="14.154155860265144"><ele>1011.0</ele><time>2026-04-19T10:38:35.003Z</time></trkpt><trkpt lat="37.86084939883389" lon="14.154280998573315"><ele>1011.0</ele><time>2026-04-19T10:38:36.003Z</time></trkpt><trkpt lat="37.86086319484384" lon="14.154399914029538"><ele>1012.1999999999999</ele><time>2026-04-19T10:38:37.003Z</time></trkpt><trkpt lat="37.860891283754064" lon="14.154513297372622"><ele>1013.3999999999999</ele><time>2026-04-19T10:38:38.003Z</time></trkpt><trkpt lat="37.86093367245092" lon="14.154614872116465"><ele>1014.6</ele><time>2026-04-19T10:38:39.003Z</time></trkpt><trkpt lat="37.86099018868979" lon="14.15470798824334"><ele>1015.8</ele><time>2026-04-19T10:38:40.003Z</time></trkpt><trkpt lat="37.8610439389007" lon="14.15480287984495"><ele>1017.0</ele><time>2026-04-19T10:38:41.003Z</time></trkpt><trkpt lat="37.8610972362716" lon="14.154895544490689"><ele>1017.0</ele><time>2026-04-19T10:38:42.003Z</time></trkpt><trkpt lat="37.8611530180783" lon="14.154983829092869"><ele>1017.0</ele><time>2026-04-19T10:38:43.003Z</time></trkpt><trkpt lat="37.861212011124444" lon="14.155067848865865"><ele>1017.0</ele><time>2026-04-19T10:38:44.003Z</time></trkpt><trkpt lat="37.861268465005345" lon="14.155155345355148"><ele>1017.0</ele><time>2026-04-19T10:38:45.003Z</time></trkpt><trkpt lat="37.861322082014006" lon="14.155244356061278"><ele>1017.0</ele><time>2026-04-19T10:38:46.003Z</time></trkpt><trkpt lat="37.86137259076885" lon="14.155331994493773"><ele>1017.0</ele><time>2026-04-19T10:38:47.003Z</time></trkpt><trkpt lat="37.86141916701461" lon="14.155407763912542"><ele>1017.0</ele><time>2026-04-19T10:38:48.003Z</time></trkpt><trkpt lat="37.86146537974995" lon="14.15546921751646"><ele>1017.0</ele><time>2026-04-19T10:38:49Z</time></trkpt><trkpt lat="37.86154579615912" lon="14.15553465951184"><ele>1017.0</ele><time>2026-04-19T10:38:51Z</time></trkpt><trkpt lat="37.86160765031914" lon="14.155550978471684"><ele>1017.0</ele><time>2026-04-19T10:38:53Z</time></trkpt><trkpt lat="37.86169754863491" lon="14.155542966102695"><ele>1017.0</ele><time>2026-04-19T10:38:56Z</time></trkpt><trkpt lat="37.86176433550903" lon="14.155510475797382"><ele>1017.0</ele><time>2026-04-19T10:38:58Z</time></trkpt><trkpt lat="37.86182551665336" lon="14.155440808379067"><ele>1016.8</ele><time>2026-04-19T10:38:59.999Z</time></trkpt><trkpt lat="37.86187499874738" lon="14.155336775177572"><ele>1016.6</ele><time>2026-04-19T10:39:01.999Z</time></trkpt><trkpt lat="37.86190306813325" lon="14.155207558156185"><ele>1016.3999999999999</ele><time>2026-04-19T10:39:03.999Z</time></trkpt><trkpt lat="37.861922576211256" lon="14.155064107281126"><ele>1016.1999999999999</ele><time>2026-04-19T10:39:05.999Z</time></trkpt><trkpt lat="37.861954834915835" lon="14.15491245601582"><ele>1016.0</ele><time>2026-04-19T10:39:07.999Z</time></trkpt><trkpt lat="37.861974197532504" lon="14.154831888741663"><ele>1015.0000000000001</ele><time>2026-04-19T10:39:08.999Z</time></trkpt><trkpt lat="37.861992591702894" lon="14.154749118948905"><ele>1014.0</ele><time>2026-04-19T10:39:09.999Z</time></trkpt><trkpt lat="37.86200669778866" lon="14.154662126380572"><ele>1013.0</ele><time>2026-04-19T10:39:10.999Z</time></trkpt><trkpt lat="37.86202019890704" lon="14.154572857162877"><ele>1012.0</ele><time>2026-04-19T10:39:11.999Z</time></trkpt><trkpt lat="37.86203752385735" lon="14.154485725942148"><ele>1011.0000000000001</ele><time>2026-04-19T10:39:12.999Z</time></trkpt><trkpt lat="37.86206157067799" lon="14.154389309431044"><ele>1010.0</ele><time>2026-04-19T10:39:13.999Z</time></trkpt><trkpt lat="37.862096438247015" lon="14.154279259095519"><ele>1010.0</ele><time>2026-04-19T10:39:14.999Z</time></trkpt><trkpt lat="37.86215960602731" lon="14.154176534228721"><ele>1010.0</ele><time>2026-04-19T10:39:15.999Z</time></trkpt><trkpt lat="37.8622374467114" lon="14.154090396113627"><ele>1010.0</ele><time>2026-04-19T10:39:16.999Z</time></trkpt><trkpt lat="37.862333887467" lon="14.154007018650331"><ele>1010.0</ele><time>2026-04-19T10:39:18Z</time></trkpt><trkpt lat="37.86243161524401" lon="14.153922694600164"><ele>1010.0</ele><time>2026-04-19T10:39:19Z</time></trkpt><trkpt lat="37.86252455365507" lon="14.153846191020078"><ele>1007.2</ele><time>2026-04-19T10:39:20Z</time></trkpt><trkpt lat="37.862617927889495" lon="14.153770125099724"><ele>1004.4</ele><time>2026-04-19T10:39:21Z</time></trkpt><trkpt lat="37.86271196055655" lon="14.153713634507456"><ele>1001.5999999999999</ele><time>2026-04-19T10:39:22Z</time></trkpt><trkpt lat="37.862815126058244" lon="14.153707613325272"><ele>998.8</ele><time>2026-04-19T10:39:23Z</time></trkpt><trkpt lat="37.862903876033855" lon="14.153768587192548"><ele>996.0</ele><time>2026-04-19T10:39:24Z</time></trkpt><trkpt lat="37.86296338807077" lon="14.153877677139475"><ele>996.0</ele><time>2026-04-19T10:39:25Z</time></trkpt><trkpt lat="37.86300969955443" lon="14.154001424813915"><ele>996.0</ele><time>2026-04-19T10:39:26Z</time></trkpt><trkpt lat="37.86305857917606" lon="14.154146117990145"><ele>996.0</ele><time>2026-04-19T10:39:27Z</time></trkpt><trkpt lat="37.863104352512046" lon="14.154299297983092"><ele>996.0</ele><time>2026-04-19T10:39:28Z</time></trkpt><trkpt lat="37.8631605077829" lon="14.154454189188296"><ele>997.5</ele><time>2026-04-19T10:39:29Z</time></trkpt><trkpt lat="37.863208930528174" lon="14.154608923924913"><ele>999.0</ele><time>2026-04-19T10:39:30Z</time></trkpt><trkpt lat="37.863260310384696" lon="14.154756156403035"><ele>1000.5</ele><time>2026-04-19T10:39:31Z</time></trkpt><trkpt lat="37.863307460386444" lon="14.154890651906118"><ele>1002.0</ele><time>2026-04-19T10:39:32Z</time></trkpt><trkpt lat="37.863359171935194" lon="14.155024790223038"><ele>1002.2</ele><time>2026-04-19T10:39:33Z</time></trkpt><trkpt lat="37.86342442672981" lon="14.155144872228393"><ele>1002.4000000000001</ele><time>2026-04-19T10:39:34Z</time></trkpt><trkpt lat="37.86351223571031" lon="14.155239032873364"><ele>1002.5999999999999</ele><time>2026-04-19T10:39:35Z</time></trkpt><trkpt lat="37.86360966156739" lon="14.155302401474321"><ele>1002.8</ele><time>2026-04-19T10:39:36Z</time></trkpt><trkpt lat="37.863710962386385" lon="14.155344170913912"><ele>1003.0</ele><time>2026-04-19T10:39:37Z</time></trkpt><trkpt lat="37.86382131041322" lon="14.155352212345075"><ele>1001.75</ele><time>2026-04-19T10:39:38Z</time></trkpt><trkpt lat="37.863927572218685" lon="14.15532033669175"><ele>1000.5</ele><time>2026-04-19T10:39:39Z</time></trkpt><trkpt lat="37.864023034901635" lon="14.155249865447225"><ele>999.25</ele><time>2026-04-19T10:39:40Z</time></trkpt><trkpt lat="37.86410265719304" lon="14.155144563044884"><ele>998.0</ele><time>2026-04-19T10:39:41Z</time></trkpt><trkpt lat="37.86415535609405" lon="14.155012827864477"><ele>997.25</ele><time>2026-04-19T10:39:42Z</time></trkpt><trkpt lat="37.86418276478229" lon="14.154863551400453"><ele>996.5</ele><time>2026-04-19T10:39:43Z</time></trkpt><trkpt lat="37.86418694883424" lon="14.15470175086857"><ele>995.75</ele><time>2026-04-19T10:39:44Z</time></trkpt><trkpt lat="37.864183396194726" lon="14.15454144136645"><ele>995.0</ele><time>2026-04-19T10:39:45Z</time></trkpt><trkpt lat="37.864180783213634" lon="14.15438130596024"><ele>995.0</ele><time>2026-04-19T10:39:46Z</time></trkpt><trkpt lat="37.864208824572756" lon="14.154218845218105"><ele>995.0</ele><time>2026-04-19T10:39:47.001Z</time></trkpt><trkpt lat="37.86420274089438" lon="14.154046870505613"><ele>995.0</ele><time>2026-04-19T10:39:48.001Z</time></trkpt><trkpt lat="37.864222907239956" lon="14.153869010600504"><ele>995.0</ele><time>2026-04-19T10:39:49.001Z</time></trkpt><trkpt lat="37.86426426339203" lon="14.153701580341247"><ele>994.0</ele><time>2026-04-19T10:39:50.001Z</time></trkpt><trkpt lat="37.86432599279478" lon="14.15354307273343"><ele>993.0</ele><time>2026-04-19T10:39:51.001Z</time></trkpt><trkpt lat="37.86437122632637" lon="14.153375921994538"><ele>992.0</ele><time>2026-04-19T10:39:52.001Z</time></trkpt><trkpt lat="37.86440818821055" lon="14.153203730858854"><ele>991.0</ele><time>2026-04-19T10:39:53.001Z</time></trkpt><trkpt lat="37.864432460759836" lon="14.153030614176972"><ele>991.0</ele><time>2026-04-19T10:39:54.001Z</time></trkpt><trkpt lat="37.86444877613482" lon="14.152859779726036"><ele>991.0</ele><time>2026-04-19T10:39:55.001Z</time></trkpt><trkpt lat="37.86448509236841" lon="14.152694164596172"><ele>991.0</ele><time>2026-04-19T10:39:56.001Z</time></trkpt><trkpt lat="37.864508429637965" lon="14.152527441131841"><ele>991.0</ele><time>2026-04-19T10:39:57.001Z</time></trkpt><trkpt lat="37.86456797478417" lon="14.15238070268689"><ele>981.75</ele><time>2026-04-19T10:39:58.001Z</time></trkpt><trkpt lat="37.86465020842194" lon="14.152250638980917"><ele>972.5</ele><time>2026-04-19T10:39:59.001Z</time></trkpt><trkpt lat="37.86475568344876" lon="14.15215383547397"><ele>963.25</ele><time>2026-04-19T10:40:00.001Z</time></trkpt><trkpt lat="37.864871094480264" lon="14.152094953701322"><ele>954.0</ele><time>2026-04-19T10:40:01.001Z</time></trkpt><trkpt lat="37.86499104795923" lon="14.15206679721685"><ele>954.0</ele><time>2026-04-19T10:40:02.001Z</time></trkpt><trkpt lat="37.86511000521897" lon="14.152046592586162"><ele>954.0</ele><time>2026-04-19T10:40:03.001Z</time></trkpt><trkpt lat="37.86522744831153" lon="14.152033303333795"><ele>954.0</ele><time>2026-04-19T10:40:04.001Z</time></trkpt><trkpt lat="37.86534378756257" lon="14.15202493856187"><ele>954.0</ele><time>2026-04-19T10:40:05.001Z</time></trkpt><trkpt lat="37.86545883617684" lon="14.152024275802393"><ele>953.25</ele><time>2026-04-19T10:40:06.001Z</time></trkpt><trkpt lat="37.86557368187976" lon="14.152043138156351"><ele>952.5</ele><time>2026-04-19T10:40:07.001Z</time></trkpt><trkpt lat="37.865686172606935" lon="14.152086678619826"><ele>951.75</ele><time>2026-04-19T10:40:08.001Z</time></trkpt><trkpt lat="37.86579372435106" lon="14.15214657062845"><ele>951.0</ele><time>2026-04-19T10:40:09.001Z</time></trkpt><trkpt lat="37.865896664431325" lon="14.152206085259849"><ele>952.5999999999999</ele><time>2026-04-19T10:40:10.001Z</time></trkpt><trkpt lat="37.86600019421611" lon="14.152265125090219"><ele>954.1999999999999</ele><time>2026-04-19T10:40:11.001Z</time></trkpt><trkpt lat="37.866105218803206" lon="14.152321918770856"><ele>955.8000000000001</ele><time>2026-04-19T10:40:12.001Z</time></trkpt><trkpt lat="37.86620723730326" lon="14.152374229100982"><ele>957.4000000000001</ele><time>2026-04-19T10:40:13.001Z</time></trkpt><trkpt lat="37.86630044480582" lon="14.152435397066162"><ele>959.0</ele><time>2026-04-19T10:40:14.001Z</time></trkpt><trkpt lat="37.86638373886207" lon="14.152514160665797"><ele>959.0</ele><time>2026-04-19T10:40:15.001Z</time></trkpt><trkpt lat="37.866450354924716" lon="14.152608096819232"><ele>959.0000000000001</ele><time>2026-04-19T10:40:16.001Z</time></trkpt><trkpt lat="37.86649390495604" lon="14.152716753358646"><ele>959.0000000000001</ele><time>2026-04-19T10:40:17.001Z</time></trkpt><trkpt lat="37.86652512902054" lon="14.152828299644579"><ele>959.0</ele><time>2026-04-19T10:40:18.001Z</time></trkpt><trkpt lat="37.8665556124906" lon="14.152946915417466"><ele>959.0</ele><time>2026-04-19T10:40:19.001Z</time></trkpt><trkpt lat="37.866588169339046" lon="14.153070265985333"><ele>959.0</ele><time>2026-04-19T10:40:20.002Z</time></trkpt><trkpt lat="37.86662070605417" lon="14.153200121202088"><ele>959.0000000000001</ele><time>2026-04-19T10:40:21.002Z</time></trkpt><trkpt lat="37.86665125140402" lon="14.153325568240348"><ele>959.0000000000001</ele><time>2026-04-19T10:40:22.002Z</time></trkpt><trkpt lat="37.866681693561716" lon="14.153445411043855"><ele>959.0</ele><time>2026-04-19T10:40:23.002Z</time></trkpt><trkpt lat="37.86670999038044" lon="14.153558911225463"><ele>959.0</ele><time>2026-04-19T10:40:24.002Z</time></trkpt><trkpt lat="37.866750701119834" lon="14.153658909175187"><ele>958.1666666666667</ele><time>2026-04-19T10:40:25.002Z</time></trkpt><trkpt lat="37.86680976278926" lon="14.153740348792313"><ele>957.3333333333334</ele><time>2026-04-19T10:40:26.002Z</time></trkpt><trkpt lat="37.866882940367205" lon="14.153793663938941"><ele>956.5</ele><time>2026-04-19T10:40:27.002Z</time></trkpt><trkpt lat="37.86696379014074" lon="14.153821588524707"><ele>955.6666666666667</ele><time>2026-04-19T10:40:28.002Z</time></trkpt><trkpt lat="37.86704677347116" lon="14.153830474164767"><ele>954.8333333333334</ele><time>2026-04-19T10:40:29.002Z</time></trkpt><trkpt lat="37.86713039408164" lon="14.153823656245024"><ele>954.0</ele><time>2026-04-19T10:40:30.002Z</time></trkpt><trkpt lat="37.8672182920377" lon="14.153802683108282"><ele>954.0</ele><time>2026-04-19T10:40:31.002Z</time></trkpt><trkpt lat="37.86731059032046" lon="14.153781054039014"><ele>954.0000000000001</ele><time>2026-04-19T10:40:32.002Z</time></trkpt><trkpt lat="37.867405356602" lon="14.153765635969656"><ele>954.0000000000001</ele><time>2026-04-19T10:40:33.002Z</time></trkpt><trkpt lat="37.86750053447631" lon="14.153755484783195"><ele>954.0</ele><time>2026-04-19T10:40:34.002Z</time></trkpt><trkpt lat="37.86759542344024" lon="14.153767235280194"><ele>954.0</ele><time>2026-04-19T10:40:35.002Z</time></trkpt><trkpt lat="37.86768603267148" lon="14.153803653291764"><ele>954.6</ele><time>2026-04-19T10:40:36.002Z</time></trkpt><trkpt lat="37.86776232632719" lon="14.153876440723467"><ele>955.2</ele><time>2026-04-19T10:40:37.002Z</time></trkpt><trkpt lat="37.867813699675445" lon="14.153975480577282"><ele>955.8000000000001</ele><time>2026-04-19T10:40:38.002Z</time></trkpt><trkpt lat="37.86785753601918" lon="14.15408456325971"><ele>956.4000000000001</ele><time>2026-04-19T10:40:39.002Z</time></trkpt><trkpt lat="37.86790832416699" lon="14.154204217954883"><ele>957.0</ele><time>2026-04-19T10:40:40.002Z</time></trkpt><trkpt lat="37.867972082387446" lon="14.15433735992204"><ele>957.0</ele><time>2026-04-19T10:40:41.002Z</time></trkpt><trkpt lat="37.868038457234036" lon="14.154479681015392"><ele>957.0</ele><time>2026-04-19T10:40:42.002Z</time></trkpt><trkpt lat="37.86810296893792" lon="14.154617477181704"><ele>957.0</ele><time>2026-04-19T10:40:43.002Z</time></trkpt><trkpt lat="37.86816745685595" lon="14.154748163101207"><ele>957.0</ele><time>2026-04-19T10:40:44.002Z</time></trkpt><trkpt lat="37.86822494641833" lon="14.154879458061243"><ele>957.0</ele><time>2026-04-19T10:40:45.002Z</time></trkpt><trkpt lat="37.86827634077939" lon="14.154999024443043"><ele>957.0</ele><time>2026-04-19T10:40:46.002Z</time></trkpt><trkpt lat="37.8683453855329" lon="14.15509758852369"><ele>957.0</ele><time>2026-04-19T10:40:47.002Z</time></trkpt><trkpt lat="37.86844254435645" lon="14.155154586193134"><ele>957.0</ele><time>2026-04-19T10:40:48.002Z</time></trkpt><trkpt lat="37.868547888966496" lon="14.155160169954778"><ele>957.0</ele><time>2026-04-19T10:40:49.002Z</time></trkpt><trkpt lat="37.868646679099164" lon="14.155127259219233"><ele>954.0</ele><time>2026-04-19T10:40:50.002Z</time></trkpt><trkpt lat="37.86874580203224" lon="14.15503117229554"><ele>951.0</ele><time>2026-04-19T10:40:51.002Z</time></trkpt><trkpt lat="37.86885027721702" lon="14.154936668756024"><ele>948.0</ele><time>2026-04-19T10:40:52.003Z</time></trkpt><trkpt lat="37.86893367480874" lon="14.154859914886964"><ele>945.0</ele><time>2026-04-19T10:40:53.003Z</time></trkpt><trkpt lat="37.869014125883126" lon="14.154764314656976"><ele>945.0</ele><time>2026-04-19T10:40:54.003Z</time></trkpt><trkpt lat="37.86906557068822" lon="14.15464242156186"><ele>945.0</ele><time>2026-04-19T10:40:54.999Z</time></trkpt><trkpt lat="37.869070214891615" lon="14.154500888229776"><ele>945.0</ele><time>2026-04-19T10:40:55.999Z</time></trkpt><trkpt lat="37.86904766349356" lon="14.154359634275684"><ele>945.0</ele><time>2026-04-19T10:40:56.999Z</time></trkpt><trkpt lat="37.869024201514094" lon="14.154226998084376"><ele>945.0</ele><time>2026-04-19T10:40:57.999Z</time></trkpt><trkpt lat="37.86902696475275" lon="14.154090565822308"><ele>943.5</ele><time>2026-04-19T10:40:58.999Z</time></trkpt><trkpt lat="37.86908567700435" lon="14.153951431684554"><ele>942.0</ele><time>2026-04-19T10:40:59.999Z</time></trkpt><trkpt lat="37.869180979933724" lon="14.153848073506246"><ele>940.5</ele><time>2026-04-19T10:41:00.999Z</time></trkpt><trkpt lat="37.86927925423482" lon="14.153783082768687"><ele>939.0</ele><time>2026-04-19T10:41:01.999Z</time></trkpt><trkpt lat="37.86939624746031" lon="14.15371119425104"><ele>939.0</ele><time>2026-04-19T10:41:02.999Z</time></trkpt><trkpt lat="37.869522590838685" lon="14.153636980883089"><ele>939.0</ele><time>2026-04-19T10:41:03.999Z</time></trkpt><trkpt lat="37.86964171494024" lon="14.15355397704183"><ele>939.0</ele><time>2026-04-19T10:41:04.999Z</time></trkpt><trkpt lat="37.869752007448376" lon="14.153461074765566"><ele>939.0</ele><time>2026-04-19T10:41:05.999Z</time></trkpt><trkpt lat="37.869870845177424" lon="14.153375216872972"><ele>939.0</ele><time>2026-04-19T10:41:06.999Z</time></trkpt><trkpt lat="37.869994744521065" lon="14.153307784855134"><ele>939.0</ele><time>2026-04-19T10:41:07.999Z</time></trkpt><trkpt lat="37.87010307645351" lon="14.153211605142987"><ele>939.0</ele><time>2026-04-19T10:41:08.999Z</time></trkpt><trkpt lat="37.87022841902321" lon="14.15316131909147"><ele>939.0</ele><time>2026-04-19T10:41:09.999Z</time></trkpt><trkpt lat="37.87034966179625" lon="14.153166254933097"><ele>939.5</ele><time>2026-04-19T10:41:10.999Z</time></trkpt><trkpt lat="37.870466005354" lon="14.153209223668883"><ele>940.0</ele><time>2026-04-19T10:41:11.999Z</time></trkpt><trkpt lat="37.87057268721773" lon="14.153288479913124"><ele>940.5</ele><time>2026-04-19T10:41:12.999Z</time></trkpt><trkpt lat="37.87067455850131" lon="14.153383026855591"><ele>941.0</ele><time>2026-04-19T10:41:13.999Z</time></trkpt><trkpt lat="37.87077806758112" lon="14.153481045159802"><ele>941.0</ele><time>2026-04-19T10:41:15Z</time></trkpt><trkpt lat="37.870897185438146" lon="14.1535787421197"><ele>941.0</ele><time>2026-04-19T10:41:16Z</time></trkpt><trkpt lat="37.871022446044485" lon="14.153671473630022"><ele>941.0</ele><time>2026-04-19T10:41:17Z</time></trkpt><trkpt lat="37.87114814670574" lon="14.153735605654717"><ele>941.0</ele><time>2026-04-19T10:41:18Z</time></trkpt><trkpt lat="37.87128012773212" lon="14.153780707016029"><ele>942.0</ele><time>2026-04-19T10:41:19Z</time></trkpt><trkpt lat="37.871406512445965" lon="14.153793230096783"><ele>943.0</ele><time>2026-04-19T10:41:20Z</time></trkpt><trkpt lat="37.871532121983314" lon="14.153791423472091"><ele>944.0</ele><time>2026-04-19T10:41:21Z</time></trkpt><trkpt lat="37.8716644645591" lon="14.153749738190461"><ele>945.0</ele><time>2026-04-19T10:41:22Z</time></trkpt><trkpt lat="37.87178827786667" lon="14.153681263708727"><ele>945.0</ele><time>2026-04-19T10:41:23Z</time></trkpt><trkpt lat="37.87190402424662" lon="14.15362464869217"><ele>945.0</ele><time>2026-04-19T10:41:24Z</time></trkpt><trkpt lat="37.872026951037384" lon="14.153662672825675"><ele>945.0</ele><time>2026-04-19T10:41:25Z</time></trkpt><trkpt lat="37.8721349311261" lon="14.153732419295451"><ele>945.0</ele><time>2026-04-19T10:41:26Z</time></trkpt><trkpt lat="37.8722518336232" lon="14.153783449426106"><ele>945.0</ele><time>2026-04-19T10:41:27Z</time></trkpt><trkpt lat="37.87235914751446" lon="14.153859566289913"><ele>945.0</ele><time>2026-04-19T10:41:28Z</time></trkpt><trkpt lat="37.87248052167108" lon="14.15392321379641"><ele>945.0</ele><time>2026-04-19T10:41:29Z</time></trkpt><trkpt lat="37.8726094458796" lon="14.15394302578943"><ele>945.0</ele><time>2026-04-19T10:41:30Z</time></trkpt><trkpt lat="37.872750274129544" lon="14.15393845230132"><ele>947.25</ele><time>2026-04-19T10:41:31Z</time></trkpt><trkpt lat="37.87289123815971" lon="14.153934598744053"><ele>949.5</ele><time>2026-04-19T10:41:32Z</time></trkpt><trkpt lat="37.873028359282145" lon="14.153938856800922"><ele>951.75</ele><time>2026-04-19T10:41:33Z</time></trkpt><trkpt lat="37.87315376569837" lon="14.153952559578272"><ele>954.0</ele><time>2026-04-19T10:41:34Z</time></trkpt><trkpt lat="37.87327063613888" lon="14.154026151608809"><ele>948.75</ele><time>2026-04-19T10:41:35Z</time></trkpt><trkpt lat="37.87339286782319" lon="14.15410221961256"><ele>943.5</ele><time>2026-04-19T10:41:36Z</time></trkpt><trkpt lat="37.87351745280289" lon="14.15415967714858"><ele>938.25</ele><time>2026-04-19T10:41:37Z</time></trkpt><trkpt lat="37.87362188304973" lon="14.15424176520754"><ele>933.0</ele><time>2026-04-19T10:41:38Z</time></trkpt><trkpt lat="37.8737300834613" lon="14.15432540558311"><ele>933.0</ele><time>2026-04-19T10:41:39Z</time></trkpt><trkpt lat="37.873820647375744" lon="14.154436938678993"><ele>933.0</ele><time>2026-04-19T10:41:40Z</time></trkpt><trkpt lat="37.87386534591604" lon="14.154586855112722"><ele>933.0</ele><time>2026-04-19T10:41:41Z</time></trkpt><trkpt lat="37.873926579467216" lon="14.154710168297395"><ele>933.0</ele><time>2026-04-19T10:41:42Z</time></trkpt><trkpt lat="37.873982075880036" lon="14.154835371816668"><ele>933.25</ele><time>2026-04-19T10:41:43.001Z</time></trkpt><trkpt lat="37.87407609285488" lon="14.154915921005392"><ele>933.5</ele><time>2026-04-19T10:41:44.001Z</time></trkpt><trkpt lat="37.874192793437956" lon="14.154942287132378"><ele>933.75</ele><time>2026-04-19T10:41:45.001Z</time></trkpt><trkpt lat="37.87431157358144" lon="14.154931239416726"><ele>934.0</ele><time>2026-04-19T10:41:46.001Z</time></trkpt><trkpt lat="37.87442331410858" lon="14.154920923517896"><ele>934.0</ele><time>2026-04-19T10:41:47.001Z</time></trkpt><trkpt lat="37.87452291044656" lon="14.15496682006877"><ele>934.0</ele><time>2026-04-19T10:41:48.001Z</time></trkpt><trkpt lat="37.87458867403311" lon="14.155082199282223"><ele>934.0</ele><time>2026-04-19T10:41:49.001Z</time></trkpt><trkpt lat="37.8745833727982" lon="14.155239437585456"><ele>934.0</ele><time>2026-04-19T10:41:50.001Z</time></trkpt><trkpt lat="37.87461256286167" lon="14.155381161444947"><ele>934.0</ele><time>2026-04-19T10:41:51.001Z</time></trkpt><trkpt lat="37.874634053930315" lon="14.155524542160842"><ele>934.0</ele><time>2026-04-19T10:41:52.001Z</time></trkpt><trkpt lat="37.874674497941214" lon="14.15565645916371"><ele>934.0</ele><time>2026-04-19T10:41:53.001Z</time></trkpt><trkpt lat="37.87473499568491" lon="14.155781874168554"><ele>934.0</ele><time>2026-04-19T10:41:54.001Z</time></trkpt><trkpt lat="37.87481054381839" lon="14.155905771147761"><ele>933.0</ele><time>2026-04-19T10:41:55.001Z</time></trkpt><trkpt lat="37.87488017806103" lon="14.156008731234811"><ele>932.0000000000001</ele><time>2026-04-19T10:41:56.001Z</time></trkpt><trkpt lat="37.87496446345335" lon="14.156112775007513"><ele>931.0000000000001</ele><time>2026-04-19T10:41:57.001Z</time></trkpt><trkpt lat="37.87504116252411" lon="14.156216423091646"><ele>930.0</ele><time>2026-04-19T10:41:58.001Z</time></trkpt><trkpt lat="37.875122414654605" lon="14.156313400343727"><ele>929.0</ele><time>2026-04-19T10:41:59.001Z</time></trkpt><trkpt lat="37.87521735270662" lon="14.156384219258756"><ele>929.0</ele><time>2026-04-19T10:42:00.001Z</time></trkpt><trkpt lat="37.87532519571234" lon="14.1564293199088"><ele>929.0</ele><time>2026-04-19T10:42:01.001Z</time></trkpt><trkpt lat="37.87543714750187" lon="14.156469545805697"><ele>929.0</ele><time>2026-04-19T10:42:02.001Z</time></trkpt><trkpt lat="37.875547643733505" lon="14.156517648350842"><ele>929.0</ele><time>2026-04-19T10:42:03.001Z</time></trkpt><trkpt lat="37.875656000327766" lon="14.156574318709527"><ele>923.0</ele><time>2026-04-19T10:42:04.001Z</time></trkpt><trkpt lat="37.87576525798955" lon="14.156630963998206"><ele>917.0</ele><time>2026-04-19T10:42:05.001Z</time></trkpt><trkpt lat="37.87587561553379" lon="14.156684526739218"><ele>911.0</ele><time>2026-04-19T10:42:06.001Z</time></trkpt><trkpt lat="37.87598443159636" lon="14.156740015175156"><ele>905.0</ele><time>2026-04-19T10:42:07.001Z</time></trkpt><trkpt lat="37.876091915584304" lon="14.156795919343946"><ele>905.0</ele><time>2026-04-19T10:42:08.001Z</time></trkpt><trkpt lat="37.87620177748268" lon="14.156849728105687"><ele>905.0</ele><time>2026-04-19T10:42:09.001Z</time></trkpt><trkpt lat="37.87630966797742" lon="14.156898201853313"><ele>905.0</ele><time>2026-04-19T10:42:10.001Z</time></trkpt><trkpt lat="37.876416914004" lon="14.156948913530789"><ele>905.0</ele><time>2026-04-19T10:42:11.001Z</time></trkpt><trkpt lat="37.876521695177395" lon="14.157000844179398"><ele>905.0</ele><time>2026-04-19T10:42:12.001Z</time></trkpt><trkpt lat="37.87662264518654" lon="14.157066011086302"><ele>905.0</ele><time>2026-04-19T10:42:13.001Z</time></trkpt><trkpt lat="37.87671804402948" lon="14.157126056150178"><ele>905.0</ele><time>2026-04-19T10:42:14.002Z</time></trkpt><trkpt lat="37.87682476807877" lon="14.157161865705946"><ele>905.0</ele><time>2026-04-19T10:42:15.002Z</time></trkpt><trkpt lat="37.87693666839438" lon="14.157160199231726"><ele>905.0</ele><time>2026-04-19T10:42:16.002Z</time></trkpt><trkpt lat="37.87704574820267" lon="14.157125002625698"><ele>903.6</ele><time>2026-04-19T10:42:17.002Z</time></trkpt><trkpt lat="37.877151187917505" lon="14.157075306070345"><ele>902.2</ele><time>2026-04-19T10:42:18.002Z</time></trkpt><trkpt lat="37.87725126657057" lon="14.157028272194324"><ele>900.8</ele><time>2026-04-19T10:42:19.002Z</time></trkpt><trkpt lat="37.87735034277719" lon="14.156993933883092"><ele>899.4</ele><time>2026-04-19T10:42:20.002Z</time></trkpt><trkpt lat="37.877449228884124" lon="14.156966886900069"><ele>898.0</ele><time>2026-04-19T10:42:21.002Z</time></trkpt><trkpt lat="37.87754001534476" lon="14.156918779814982"><ele>897.0</ele><time>2026-04-19T10:42:22.002Z</time></trkpt><trkpt lat="37.87761614130148" lon="14.156843752667358"><ele>896.0</ele><time>2026-04-19T10:42:23.002Z</time></trkpt><trkpt lat="37.87766586751989" lon="14.156731121198145"><ele>895.0</ele><time>2026-04-19T10:42:24.002Z</time></trkpt><trkpt lat="37.87768461770081" lon="14.15660294845373"><ele>894.0</ele><time>2026-04-19T10:42:25.002Z</time></trkpt><trkpt lat="37.877687704917015" lon="14.156473408888706"><ele>893.0</ele><time>2026-04-19T10:42:26.002Z</time></trkpt><trkpt lat="37.87773001167737" lon="14.15636647465694"><ele>893.0</ele><time>2026-04-19T10:42:27.002Z</time></trkpt><trkpt lat="37.87778308310417" lon="14.156261738790294"><ele>893.0</ele><time>2026-04-19T10:42:28.002Z</time></trkpt><trkpt lat="37.87787098960728" lon="14.156183944767012"><ele>893.0</ele><time>2026-04-19T10:42:29.002Z</time></trkpt><trkpt lat="37.87796695606981" lon="14.156132156819345"><ele>893.0</ele><time>2026-04-19T10:42:30.002Z</time></trkpt><trkpt lat="37.878064896073816" lon="14.156105487846865"><ele>893.0</ele><time>2026-04-19T10:42:31.002Z</time></trkpt><trkpt lat="37.87814628488036" lon="14.15611745452952"><ele>893.0000000000001</ele><time>2026-04-19T10:42:32.002Z</time></trkpt><trkpt lat="37.878264387906704" lon="14.156112797869682"><ele>893.0</ele><time>2026-04-19T10:42:34.002Z</time></trkpt><trkpt lat="37.878333181106555" lon="14.156105831366906"><ele>893.0</ele><time>2026-04-19T10:42:35.002Z</time></trkpt><trkpt lat="37.87839360074849" lon="14.156063878674267"><ele>893.0</ele><time>2026-04-19T10:42:36.002Z</time></trkpt><trkpt lat="37.87844254287385" lon="14.156002631974571"><ele>893.0000000000001</ele><time>2026-04-19T10:42:37.002Z</time></trkpt><trkpt lat="37.878490578251586" lon="14.155939265686014"><ele>893.0</ele><time>2026-04-19T10:42:38.002Z</time></trkpt><trkpt lat="37.878541682834815" lon="14.155883022811608"><ele>893.0</ele><time>2026-04-19T10:42:39.002Z</time></trkpt><trkpt lat="37.87861067497021" lon="14.155830896017633"><ele>893.0</ele><time>2026-04-19T10:42:40.002Z</time></trkpt><trkpt lat="37.8786938480874" lon="14.15578879852954"><ele>893.0</ele><time>2026-04-19T10:42:41.002Z</time></trkpt><trkpt lat="37.87878405376263" lon="14.155750026358978"><ele>893.0</ele><time>2026-04-19T10:42:42.002Z</time></trkpt><trkpt lat="37.87888355552837" lon="14.155710635649262"><ele>893.0</ele><time>2026-04-19T10:42:43.002Z</time></trkpt><trkpt lat="37.87898392204298" lon="14.155666659732935"><ele>893.0</ele><time>2026-04-19T10:42:44.002Z</time></trkpt><trkpt lat="37.879079232958404" lon="14.1556156627062"><ele>893.0</ele><time>2026-04-19T10:42:45.002Z</time></trkpt><trkpt lat="37.87916805551657" lon="14.15556043095944"><ele>893.0</ele><time>2026-04-19T10:42:46.003Z</time></trkpt><trkpt lat="37.87925156438983" lon="14.155488429434225"><ele>893.0</ele><time>2026-04-19T10:42:47.003Z</time></trkpt><trkpt lat="37.87932609283077" lon="14.155408686977152"><ele>893.0</ele><time>2026-04-19T10:42:48.003Z</time></trkpt><trkpt lat="37.87939361287888" lon="14.155321415156417"><ele>888.4</ele><time>2026-04-19T10:42:49.003Z</time></trkpt><trkpt lat="37.879459125584454" lon="14.15523831209083"><ele>883.8</ele><time>2026-04-19T10:42:50.003Z</time></trkpt><trkpt lat="37.879524736251625" lon="14.155162565960934"><ele>879.2</ele><time>2026-04-19T10:42:51.003Z</time></trkpt><trkpt lat="37.87958975712894" lon="14.15508864535813"><ele>874.6</ele><time>2026-04-19T10:42:52.003Z</time></trkpt><trkpt lat="37.879654352337205" lon="14.155007093820059"><ele>870.0</ele><time>2026-04-19T10:42:53.003Z</time></trkpt><trkpt lat="37.879716641596815" lon="14.154922771574975"><ele>872.4</ele><time>2026-04-19T10:42:54.003Z</time></trkpt><trkpt lat="37.87977258999582" lon="14.154832723336831"><ele>874.8</ele><time>2026-04-19T10:42:55.003Z</time></trkpt><trkpt lat="37.879821347527226" lon="14.154734576666252"><ele>877.2</ele><time>2026-04-19T10:42:56.003Z</time></trkpt><trkpt lat="37.87986238232525" lon="14.154628217278255"><ele>879.6</ele><time>2026-04-19T10:42:57.003Z</time></trkpt><trkpt lat="37.87991304810327" lon="14.15451577629135"><ele>882.0</ele><time>2026-04-19T10:42:58.003Z</time></trkpt><trkpt lat="37.879978479917646" lon="14.154404272097752"><ele>882.0</ele><time>2026-04-19T10:42:59.003Z</time></trkpt><trkpt lat="37.880052388417546" lon="14.154292525399653"><ele>882.0</ele><time>2026-04-19T10:43:00.003Z</time></trkpt><trkpt lat="37.88012745409831" lon="14.154177810043864"><ele>882.0</ele><time>2026-04-19T10:43:01Z</time></trkpt><trkpt lat="37.88020095141287" lon="14.154068934651834"><ele>882.0</ele><time>2026-04-19T10:43:02Z</time></trkpt><trkpt lat="37.8802709729743" lon="14.153967329144418"><ele>880.4000000000001</ele><time>2026-04-19T10:43:03Z</time></trkpt><trkpt lat="37.880332794840065" lon="14.153871495796242"><ele>878.8000000000001</ele><time>2026-04-19T10:43:04Z</time></trkpt><trkpt lat="37.88039983918304" lon="14.153789112531634"><ele>877.2</ele><time>2026-04-19T10:43:05Z</time></trkpt><trkpt lat="37.88042750057703" lon="14.153684632351565"><ele>875.6</ele><time>2026-04-19T10:43:06Z</time></trkpt><trkpt lat="37.880476287268756" lon="14.153596055351763"><ele>874.0</ele><time>2026-04-19T10:43:07Z</time></trkpt><trkpt lat="37.88056039480331" lon="14.153517542624243"><ele>874.0</ele><time>2026-04-19T10:43:08Z</time></trkpt><trkpt lat="37.880667317082036" lon="14.153472310651875"><ele>874.0</ele><time>2026-04-19T10:43:09Z</time></trkpt><trkpt lat="37.880809888396556" lon="14.153402960552066"><ele>874.0</ele><time>2026-04-19T10:43:10Z</time></trkpt><trkpt lat="37.880944828763525" lon="14.153318184533877"><ele>874.0</ele><time>2026-04-19T10:43:10.999Z</time></trkpt><trkpt lat="37.88106356740967" lon="14.1532105725509"><ele>875.0</ele><time>2026-04-19T10:43:11.999Z</time></trkpt><trkpt lat="37.881186110933214" lon="14.153107177927893"><ele>876.0</ele><time>2026-04-19T10:43:12.999Z</time></trkpt><trkpt lat="37.881308795953956" lon="14.152991837286375"><ele>877.0</ele><time>2026-04-19T10:43:13.999Z</time></trkpt><trkpt lat="37.881448425945486" lon="14.152883519429356"><ele>877.0</ele><time>2026-04-19T10:43:15Z</time></trkpt><trkpt lat="37.88161196483255" lon="14.152790864426649"><ele>877.0</ele><time>2026-04-19T10:43:16Z</time></trkpt><trkpt lat="37.88177766627009" lon="14.152716378986558"><ele>877.0</ele><time>2026-04-19T10:43:17Z</time></trkpt><trkpt lat="37.88193372891472" lon="14.152646942691947"><ele>876.6666666666666</ele><time>2026-04-19T10:43:18Z</time></trkpt><trkpt lat="37.88207576740848" lon="14.152563379077947"><ele>876.3333333333333</ele><time>2026-04-19T10:43:19Z</time></trkpt><trkpt lat="37.88220607858221" lon="14.152457281056169"><ele>876.0</ele><time>2026-04-19T10:43:20Z</time></trkpt><trkpt lat="37.88231405020704" lon="14.152326065969246"><ele>876.0</ele><time>2026-04-19T10:43:21Z</time></trkpt><trkpt lat="37.882418614204745" lon="14.15220151000686"><ele>876.0</ele><time>2026-04-19T10:43:22Z</time></trkpt><trkpt lat="37.88254925399305" lon="14.152172961352878"><ele>876.0</ele><time>2026-04-19T10:43:23Z</time></trkpt><trkpt lat="37.882682695709384" lon="14.152121202624638"><ele>876.0</ele><time>2026-04-19T10:43:24Z</time></trkpt><trkpt lat="37.88279027026969" lon="14.152103316700613"><ele>869.75</ele><time>2026-04-19T10:43:25Z</time></trkpt><trkpt lat="37.882896000761804" lon="14.152022749595538"><ele>863.5</ele><time>2026-04-19T10:43:26Z</time></trkpt><trkpt lat="37.88296676818476" lon="14.151888139729248"><ele>857.25</ele><time>2026-04-19T10:43:27Z</time></trkpt><trkpt lat="37.88302769374727" lon="14.15175793606096"><ele>851.0</ele><time>2026-04-19T10:43:28Z</time></trkpt><trkpt lat="37.8830835701162" lon="14.15161391323958"><ele>854.0</ele><time>2026-04-19T10:43:29Z</time></trkpt><trkpt lat="37.883113052112286" lon="14.151467877746265"><ele>857.0</ele><time>2026-04-19T10:43:30Z</time></trkpt><trkpt lat="37.88315329883552" lon="14.15134806745764"><ele>859.9999999999999</ele><time>2026-04-19T10:43:31Z</time></trkpt><trkpt lat="37.8832067555989" lon="14.151225776116162"><ele>863.0</ele><time>2026-04-19T10:43:32Z</time></trkpt><trkpt lat="37.88329224459974" lon="14.151136353589445"><ele>866.0</ele><time>2026-04-19T10:43:33Z</time></trkpt><trkpt lat="37.88340455532673" lon="14.151087543801971"><ele>863.0</ele><time>2026-04-19T10:43:34Z</time></trkpt><trkpt lat="37.883532187517005" lon="14.151048529014421"><ele>860.0</ele><time>2026-04-19T10:43:35Z</time></trkpt><trkpt lat="37.88366280344788" lon="14.151013124497068"><ele>857.0</ele><time>2026-04-19T10:43:36Z</time></trkpt><trkpt lat="37.883788949932615" lon="14.150971669021537"><ele>854.0</ele><time>2026-04-19T10:43:37Z</time></trkpt><trkpt lat="37.883915120144124" lon="14.150925679050655"><ele>854.0</ele><time>2026-04-19T10:43:38.001Z</time></trkpt><trkpt lat="37.88403849550923" lon="14.150886098802774"><ele>854.0</ele><time>2026-04-19T10:43:39.001Z</time></trkpt><trkpt lat="37.88416299539344" lon="14.150877232373196"><ele>854.0</ele><time>2026-04-19T10:43:40.001Z</time></trkpt><trkpt lat="37.88428362562172" lon="14.15089660411068"><ele>854.0</ele><time>2026-04-19T10:43:41.001Z</time></trkpt><trkpt lat="37.88439195859231" lon="14.150931991703695"><ele>855.0</ele><time>2026-04-19T10:43:42.001Z</time></trkpt><trkpt lat="37.88449672677656" lon="14.150948767610064"><ele>856.0000000000001</ele><time>2026-04-19T10:43:43.001Z</time></trkpt><trkpt lat="37.884603198715205" lon="14.15091858708088"><ele>857.0000000000001</ele><time>2026-04-19T10:43:44.001Z</time></trkpt><trkpt lat="37.88469781765321" lon="14.150848281449012"><ele>858.0</ele><time>2026-04-19T10:43:45.001Z</time></trkpt><trkpt lat="37.88477329802444" lon="14.150749293333572"><ele>859.0</ele><time>2026-04-19T10:43:46.001Z</time></trkpt><trkpt lat="37.88482557624537" lon="14.15063511101442"><ele>859.0</ele><time>2026-04-19T10:43:47.001Z</time></trkpt><trkpt lat="37.88487243715102" lon="14.150522453571885"><ele>859.0000000000001</ele><time>2026-04-19T10:43:48.001Z</time></trkpt><trkpt lat="37.884928547025" lon="14.150422026941772"><ele>859.0000000000001</ele><time>2026-04-19T10:43:49.001Z</time></trkpt><trkpt lat="37.8850041968942" lon="14.150342738834045"><ele>859.0</ele><time>2026-04-19T10:43:50.001Z</time></trkpt><trkpt lat="37.88509899985782" lon="14.150294849996959"><ele>859.0</ele><time>2026-04-19T10:43:51.001Z</time></trkpt><trkpt lat="37.885209404047686" lon="14.150276235977074"><ele>853.25</ele><time>2026-04-19T10:43:52.001Z</time></trkpt><trkpt lat="37.88532995144548" lon="14.150254751252781"><ele>847.5</ele><time>2026-04-19T10:43:53.001Z</time></trkpt><trkpt lat="37.88545290503998" lon="14.150203461516144"><ele>841.75</ele><time>2026-04-19T10:43:54.001Z</time></trkpt><trkpt lat="37.88555636820631" lon="14.150130360382118"><ele>836.0</ele><time>2026-04-19T10:43:55.001Z</time></trkpt><trkpt lat="37.88566851971534" lon="14.150042922050384"><ele>836.0</ele><time>2026-04-19T10:43:56.001Z</time></trkpt><trkpt lat="37.88578104507147" lon="14.149965538548011"><ele>836.0</ele><time>2026-04-19T10:43:57.001Z</time></trkpt><trkpt lat="37.88588063946372" lon="14.14987416521925"><ele>836.0</ele><time>2026-04-19T10:43:58.001Z</time></trkpt><trkpt lat="37.88597442513669" lon="14.149766870878207"><ele>836.0</ele><time>2026-04-19T10:43:59.001Z</time></trkpt><trkpt lat="37.88606180822721" lon="14.149653016310667"><ele>837.0</ele><time>2026-04-19T10:44:00.001Z</time></trkpt><trkpt lat="37.88615199560648" lon="14.14954316548883"><ele>838.0</ele><time>2026-04-19T10:44:01.001Z</time></trkpt><trkpt lat="37.88624993235557" lon="14.149444028911656"><ele>839.0</ele><time>2026-04-19T10:44:02.001Z</time></trkpt><trkpt lat="37.88635838705606" lon="14.149363195313882"><ele>840.0</ele><time>2026-04-19T10:44:03.001Z</time></trkpt><trkpt lat="37.88647484891846" lon="14.149313813845469"><ele>840.0</ele><time>2026-04-19T10:44:04.001Z</time></trkpt><trkpt lat="37.88659681501522" lon="14.149283691527602"><ele>840.0</ele><time>2026-04-19T10:44:05.001Z</time></trkpt><trkpt lat="37.88672254176846" lon="14.149265462419429"><ele>840.0</ele><time>2026-04-19T10:44:06.001Z</time></trkpt><trkpt lat="37.88684831838355" lon="14.149261011054973"><ele>840.0</ele><time>2026-04-19T10:44:07.001Z</time></trkpt><trkpt lat="37.88697156949" lon="14.149263805885234"><ele>837.25</ele><time>2026-04-19T10:44:08.002Z</time></trkpt><trkpt lat="37.887092892974664" lon="14.14926300527299"><ele>834.5</ele><time>2026-04-19T10:44:09.002Z</time></trkpt><trkpt lat="37.88721189172066" lon="14.149257695745291"><ele>831.75</ele><time>2026-04-19T10:44:10.002Z</time></trkpt><trkpt lat="37.887327741556376" lon="14.149248163959196"><ele>829.0</ele><time>2026-04-19T10:44:11.002Z</time></trkpt><trkpt lat="37.88744151397604" lon="14.149220157478146"><ele>829.0</ele><time>2026-04-19T10:44:12.002Z</time></trkpt><trkpt lat="37.88754981218692" lon="14.149158744729746"><ele>829.0</ele><time>2026-04-19T10:44:13.002Z</time></trkpt><trkpt lat="37.887654849147815" lon="14.149072107124871"><ele>829.0</ele><time>2026-04-19T10:44:14.002Z</time></trkpt><trkpt lat="37.88774667345505" lon="14.148988306261376"><ele>829.0</ele><time>2026-04-19T10:44:15.002Z</time></trkpt><trkpt lat="37.887847652557475" lon="14.148936679004246"><ele>830.6</ele><time>2026-04-19T10:44:16.002Z</time></trkpt><trkpt lat="37.88795382319079" lon="14.148928206237764"><ele>832.2</ele><time>2026-04-19T10:44:17.002Z</time></trkpt><trkpt lat="37.88806409655514" lon="14.14895876756424"><ele>833.8000000000001</ele><time>2026-04-19T10:44:18.002Z</time></trkpt><trkpt lat="37.88816781993032" lon="14.148992343273447"><ele>835.4000000000001</ele><time>2026-04-19T10:44:19.002Z</time></trkpt><trkpt lat="37.888277219797665" lon="14.148998845158085"><ele>837.0</ele><time>2026-04-19T10:44:20.002Z</time></trkpt><trkpt lat="37.8883933600219" lon="14.148964957720624"><ele>834.0</ele><time>2026-04-19T10:44:21.002Z</time></trkpt><trkpt lat="37.88850052298069" lon="14.148903017252177"><ele>831.0</ele><time>2026-04-19T10:44:22.002Z</time></trkpt><trkpt lat="37.88859117239939" lon="14.14881956037834"><ele>828.0</ele><time>2026-04-19T10:44:23.002Z</time></trkpt><trkpt lat="37.88865990409297" lon="14.14870619619802"><ele>825.0</ele><time>2026-04-19T10:44:24.002Z</time></trkpt><trkpt lat="37.88870057579575" lon="14.14857380132878"><ele>825.0</ele><time>2026-04-19T10:44:25.002Z</time></trkpt><trkpt lat="37.88876351190185" lon="14.148468182904098"><ele>825.0</ele><time>2026-04-19T10:44:26.002Z</time></trkpt><trkpt lat="37.88881898952214" lon="14.148382632127628"><ele>825.0</ele><time>2026-04-19T10:44:27.002Z</time></trkpt><trkpt lat="37.888897332241015" lon="14.148348919158957"><ele>825.0</ele><time>2026-04-19T10:44:28.002Z</time></trkpt><trkpt lat="37.888986533436096" lon="14.148386401514362"><ele>825.0</ele><time>2026-04-19T10:44:29.002Z</time></trkpt><trkpt lat="37.889061533787405" lon="14.148442018237532"><ele>825.0</ele><time>2026-04-19T10:44:30.002Z</time></trkpt><trkpt lat="37.88914144587397" lon="14.148489794100641"><ele>825.0</ele><time>2026-04-19T10:44:31.002Z</time></trkpt><trkpt lat="37.88922657666944" lon="14.148514002057846"><ele>825.0</ele><time>2026-04-19T10:44:32.002Z</time></trkpt><trkpt lat="37.88931749240418" lon="14.148497720478662"><ele>825.0</ele><time>2026-04-19T10:44:33.002Z</time></trkpt><trkpt lat="37.88939661507277" lon="14.148448789532711"><ele>825.0</ele><time>2026-04-19T10:44:34.002Z</time></trkpt><trkpt lat="37.889474272570276" lon="14.148385801465356"><ele>825.0</ele><time>2026-04-19T10:44:35.002Z</time></trkpt><trkpt lat="37.88955471327281" lon="14.148333862126755"><ele>824.8</ele><time>2026-04-19T10:44:36.002Z</time></trkpt><trkpt lat="37.889644823766844" lon="14.148330208813707"><ele>824.6</ele><time>2026-04-19T10:44:37.002Z</time></trkpt><trkpt lat="37.8897262731586" lon="14.14838240361812"><ele>824.4000000000001</ele><time>2026-04-19T10:44:38.002Z</time></trkpt><trkpt lat="37.889792767170896" lon="14.14847442825739"><ele>824.2</ele><time>2026-04-19T10:44:39.002Z</time></trkpt><trkpt lat="37.889854556738406" lon="14.148564398618943"><ele>824.0</ele><time>2026-04-19T10:44:40.003Z</time></trkpt><trkpt lat="37.88992778276799" lon="14.148644679088383"><ele>824.0</ele><time>2026-04-19T10:44:41.003Z</time></trkpt><trkpt lat="37.889995217442014" lon="14.148723970407643"><ele>824.0</ele><time>2026-04-19T10:44:42.003Z</time></trkpt><trkpt lat="37.890060056868876" lon="14.148793317842467"><ele>824.0</ele><time>2026-04-19T10:44:43.003Z</time></trkpt><trkpt lat="37.890137224447216" lon="14.148816381416419"><ele>824.0</ele><time>2026-04-19T10:44:44.003Z</time></trkpt><trkpt lat="37.89022575042519" lon="14.14880052706338"><ele>824.0</ele><time>2026-04-19T10:44:45.003Z</time></trkpt><trkpt lat="37.890328966480624" lon="14.14873749486703"><ele>818.6666666666667</ele><time>2026-04-19T10:44:46.003Z</time></trkpt><trkpt lat="37.89044333344108" lon="14.148650999858749"><ele>813.3333333333333</ele><time>2026-04-19T10:44:47.003Z</time></trkpt><trkpt lat="37.89057464319997" lon="14.148549821816284"><ele>808.0</ele><time>2026-04-19T10:44:48.003Z</time></trkpt><trkpt lat="37.890741884882566" lon="14.14845646815131"><ele>808.0</ele><time>2026-04-19T10:44:49.003Z</time></trkpt><trkpt lat="37.890910285521" lon="14.148341014236152"><ele>808.0</ele><time>2026-04-19T10:44:50.003Z</time></trkpt><trkpt lat="37.891060250048504" lon="14.148222400529542"><ele>808.0</ele><time>2026-04-19T10:44:51.003Z</time></trkpt><trkpt lat="37.89121115373525" lon="14.148142287195723"><ele>807.3333333333333</ele><time>2026-04-19T10:44:52.003Z</time></trkpt><trkpt lat="37.89135224522164" lon="14.148046646414087"><ele>806.6666666666667</ele><time>2026-04-19T10:44:53.003Z</time></trkpt><trkpt lat="37.89149115881971" lon="14.147948486007826"><ele>806.0</ele><time>2026-04-19T10:44:54.003Z</time></trkpt><trkpt lat="37.891630028808365" lon="14.147850039263338"><ele>807.3333333333334</ele><time>2026-04-19T10:44:55.003Z</time></trkpt><trkpt lat="37.89175766881808" lon="14.147719008792977"><ele>808.6666666666667</ele><time>2026-04-19T10:44:56.003Z</time></trkpt><trkpt lat="37.89185336427954" lon="14.147547536796584"><ele>810.0</ele><time>2026-04-19T10:44:57.003Z</time></trkpt><trkpt lat="37.891945176109154" lon="14.147376076326292"><ele>810.0</ele><time>2026-04-19T10:44:58.003Z</time></trkpt><trkpt lat="37.89203670299919" lon="14.147215783821535"><ele>810.0</ele><time>2026-04-19T10:44:59.003Z</time></trkpt><trkpt lat="37.89216060862331" lon="14.147100587065827"><ele>810.0</ele><time>2026-04-19T10:45:00.003Z</time></trkpt><trkpt lat="37.89229525426565" lon="14.1470370417782"><ele>810.0</ele><time>2026-04-19T10:45:01.003Z</time></trkpt><trkpt lat="37.89244257860465" lon="14.146989373749424"><ele>810.0</ele><time>2026-04-19T10:45:02.003Z</time></trkpt><trkpt lat="37.892590537027026" lon="14.14693340604119"><ele>810.0</ele><time>2026-04-19T10:45:03.003Z</time></trkpt><trkpt lat="37.89273285422109" lon="14.146892682200793"><ele>803.25</ele><time>2026-04-19T10:45:04.003Z</time></trkpt><trkpt lat="37.892872803538246" lon="14.146852488235677"><ele>796.5</ele><time>2026-04-19T10:45:05.003Z</time></trkpt><trkpt lat="37.89301147548635" lon="14.146847126042148"><ele>789.75</ele><time>2026-04-19T10:45:06.003Z</time></trkpt><trkpt lat="37.89313452366361" lon="14.146867706957714"><ele>783.0</ele><time>2026-04-19T10:45:07Z</time></trkpt><trkpt lat="37.89323820664498" lon="14.146857042524665"><ele>783.0</ele><time>2026-04-19T10:45:08Z</time></trkpt><trkpt lat="37.893293551332455" lon="14.146787245670481"><ele>783.0</ele><time>2026-04-19T10:45:09Z</time></trkpt><trkpt lat="37.89332682060154" lon="14.146684163251923"><ele>783.0</ele><time>2026-04-19T10:45:10Z</time></trkpt><trkpt lat="37.893270894736546" lon="14.146543856545362"><ele>783.0</ele><time>2026-04-19T10:45:11Z</time></trkpt><trkpt lat="37.89320961747034" lon="14.146408464342088"><ele>783.0</ele><time>2026-04-19T10:45:12Z</time></trkpt><trkpt lat="37.89314221371881" lon="14.146266516829721"><ele>781.75</ele><time>2026-04-19T10:45:13Z</time></trkpt><trkpt lat="37.89305615035578" lon="14.1460985164634"><ele>780.5</ele><time>2026-04-19T10:45:14Z</time></trkpt><trkpt lat="37.8929722049209" lon="14.145946172954714"><ele>779.25</ele><time>2026-04-19T10:45:15Z</time></trkpt><trkpt lat="37.89288195949294" lon="14.145807796990796"><ele>778.0</ele><time>2026-04-19T10:45:16Z</time></trkpt><trkpt lat="37.8927964749046" lon="14.145687411035173"><ele>780.0</ele><time>2026-04-19T10:45:17Z</time></trkpt><trkpt lat="37.89272784906837" lon="14.145584740035588"><ele>782.0</ele><time>2026-04-19T10:45:18Z</time></trkpt><trkpt lat="37.892702439400786" lon="14.14548277993982"><ele>784.0</ele><time>2026-04-19T10:45:19Z</time></trkpt><trkpt lat="37.89272817012826" lon="14.145387512859541"><ele>786.0</ele><time>2026-04-19T10:45:20Z</time></trkpt><trkpt lat="37.892788899671125" lon="14.145300312677692"><ele>788.0</ele><time>2026-04-19T10:45:21Z</time></trkpt><trkpt lat="37.892867587493086" lon="14.145220154326688"><ele>788.0</ele><time>2026-04-19T10:45:22Z</time></trkpt><trkpt lat="37.89296907986118" lon="14.145149563568014"><ele>788.0</ele><time>2026-04-19T10:45:23Z</time></trkpt><trkpt lat="37.893080300677866" lon="14.145087459123701"><ele>788.0</ele><time>2026-04-19T10:45:24Z</time></trkpt><trkpt lat="37.89319880240307" lon="14.145047178022182"><ele>788.0</ele><time>2026-04-19T10:45:25Z</time></trkpt><trkpt lat="37.89332444238819" lon="14.14504042958351"><ele>785.4</ele><time>2026-04-19T10:45:26Z</time></trkpt><trkpt lat="37.89344627347228" lon="14.145039568978234"><ele>782.8</ele><time>2026-04-19T10:45:27Z</time></trkpt><trkpt lat="37.893549074066954" lon="14.145013468205072"><ele>780.2</ele><time>2026-04-19T10:45:28Z</time></trkpt><trkpt lat="37.893651408179586" lon="14.144993321470869"><ele>777.6</ele><time>2026-04-19T10:45:29Z</time></trkpt><trkpt lat="37.89375439049573" lon="14.14498269629729"><ele>775.0</ele><time>2026-04-19T10:45:30Z</time></trkpt><trkpt lat="37.89388326181405" lon="14.144966912597889"><ele>775.0</ele><time>2026-04-19T10:45:31Z</time></trkpt><trkpt lat="37.89401330702229" lon="14.14496198441197"><ele>775.0</ele><time>2026-04-19T10:45:32Z</time></trkpt><trkpt lat="37.89414208019987" lon="14.144921836225288"><ele>775.0</ele><time>2026-04-19T10:45:33Z</time></trkpt><trkpt lat="37.894277216232005" lon="14.144861769278299"><ele>775.0</ele><time>2026-04-19T10:45:34Z</time></trkpt><trkpt lat="37.894397910695744" lon="14.144760175918217"><ele>776.5</ele><time>2026-04-19T10:45:35Z</time></trkpt><trkpt lat="37.89451709177654" lon="14.14465407328579"><ele>778.0</ele><time>2026-04-19T10:45:36Z</time></trkpt><trkpt lat="37.894634025856874" lon="14.144576161262703"><ele>779.5</ele><time>2026-04-19T10:45:37Z</time></trkpt><trkpt lat="37.894783568672324" lon="14.144527947716112"><ele>781.0</ele><time>2026-04-19T10:45:38.001Z</time></trkpt><trkpt lat="37.894917821865256" lon="14.14450013320704"><ele>781.0</ele><time>2026-04-19T10:45:39.001Z</time></trkpt><trkpt lat="37.89503787016513" lon="14.14444943289565"><ele>781.0</ele><time>2026-04-19T10:45:40.001Z</time></trkpt><trkpt lat="37.8951614975533" lon="14.144397915649229"><ele>781.0</ele><time>2026-04-19T10:45:41.001Z</time></trkpt><trkpt lat="37.89529220278807" lon="14.144334370242857"><ele>781.0</ele><time>2026-04-19T10:45:42.001Z</time></trkpt><trkpt lat="37.89542064602559" lon="14.144282782227979"><ele>777.0</ele><time>2026-04-19T10:45:43.001Z</time></trkpt><trkpt lat="37.895541442080486" lon="14.144233640119612"><ele>773.0</ele><time>2026-04-19T10:45:44.001Z</time></trkpt><trkpt lat="37.89565617999548" lon="14.144185164002462"><ele>769.0</ele><time>2026-04-19T10:45:45.001Z</time></trkpt><trkpt lat="37.8957496944027" lon="14.144124360886453"><ele>765.0</ele><time>2026-04-19T10:45:46.001Z</time></trkpt><trkpt lat="37.89580067022539" lon="14.144031622456511"><ele>761.0</ele><time>2026-04-19T10:45:47.001Z</time></trkpt><trkpt lat="37.89579058040276" lon="14.143905783305494"><ele>758.5</ele><time>2026-04-19T10:45:48.001Z</time></trkpt><trkpt lat="37.895730700769214" lon="14.143799446130133"><ele>756.0</ele><time>2026-04-19T10:45:49.001Z</time></trkpt><trkpt lat="37.895633310578724" lon="14.143720443411183"><ele>753.5</ele><time>2026-04-19T10:45:50.001Z</time></trkpt><trkpt lat="37.89553000882966" lon="14.143632532622357"><ele>751.0</ele><time>2026-04-19T10:45:51.001Z</time></trkpt><trkpt lat="37.89543045224446" lon="14.143538209406834"><ele>751.0</ele><time>2026-04-19T10:45:52.001Z</time></trkpt><trkpt lat="37.89533911452868" lon="14.143442889498054"><ele>751.0</ele><time>2026-04-19T10:45:53.001Z</time></trkpt><trkpt lat="37.89526216147951" lon="14.143341007735703"><ele>751.0</ele><time>2026-04-19T10:45:54.001Z</time></trkpt><trkpt lat="37.8952219583264" lon="14.143170893321729"><ele>751.0</ele><time>2026-04-19T10:45:55.001Z</time></trkpt><trkpt lat="37.89518735834175" lon="14.143013594106593"><ele>752.25</ele><time>2026-04-19T10:45:56.001Z</time></trkpt><trkpt lat="37.89514935791398" lon="14.142894603573142"><ele>753.5</ele><time>2026-04-19T10:45:57.001Z</time></trkpt><trkpt lat="37.895121636914446" lon="14.14273009903849"><ele>754.75</ele><time>2026-04-19T10:45:58.001Z</time></trkpt><trkpt lat="37.89508690003231" lon="14.142583994611705"><ele>756.0</ele><time>2026-04-19T10:45:59.001Z</time></trkpt><trkpt lat="37.895043061483946" lon="14.142452221206955"><ele>756.0</ele><time>2026-04-19T10:46:00.001Z</time></trkpt><trkpt lat="37.89494750216053" lon="14.142369249301415"><ele>756.0</ele><time>2026-04-19T10:46:01.001Z</time></trkpt><trkpt lat="37.89482659151307" lon="14.142363698668726"><ele>756.0</ele><time>2026-04-19T10:46:02.001Z</time></trkpt><trkpt lat="37.89470246703597" lon="14.142412533382062"><ele>756.0</ele><time>2026-04-19T10:46:03.001Z</time></trkpt><trkpt lat="37.894576199008974" lon="14.14241024121234"><ele>756.0</ele><time>2026-04-19T10:46:04.001Z</time></trkpt><trkpt lat="37.89445345409429" lon="14.142427802281954"><ele>756.0</ele><time>2026-04-19T10:46:05.001Z</time></trkpt><trkpt lat="37.894342504152135" lon="14.142443675838852"><ele>756.0</ele><time>2026-04-19T10:46:06.001Z</time></trkpt><trkpt lat="37.89423006742231" lon="14.142458906603066"><ele>756.0</ele><time>2026-04-19T10:46:07.001Z</time></trkpt><trkpt lat="37.89412933135956" lon="14.14245165713218"><ele>756.0</ele><time>2026-04-19T10:46:08.001Z</time></trkpt><trkpt lat="37.894060768006234" lon="14.142383067953798"><ele>754.5999999999999</ele><time>2026-04-19T10:46:09.002Z</time></trkpt><trkpt lat="37.89401287990859" lon="14.142279735833426"><ele>753.2</ele><time>2026-04-19T10:46:10.002Z</time></trkpt><trkpt lat="37.89401914275904" lon="14.142146702322519"><ele>751.8</ele><time>2026-04-19T10:46:11.002Z</time></trkpt><trkpt lat="37.89400919943742" lon="14.142011427829374"><ele>750.4000000000001</ele><time>2026-04-19T10:46:12.002Z</time></trkpt><trkpt lat="37.894026867560775" lon="14.141859818830756"><ele>749.0</ele><time>2026-04-19T10:46:13.002Z</time></trkpt><trkpt lat="37.894033084687656" lon="14.141688502156091"><ele>747.0</ele><time>2026-04-19T10:46:14.002Z</time></trkpt><trkpt lat="37.89402722440241" lon="14.14151848744835"><ele>745.0</ele><time>2026-04-19T10:46:15.002Z</time></trkpt><trkpt lat="37.89404007217284" lon="14.141374425659404"><ele>743.0</ele><time>2026-04-19T10:46:16.002Z</time></trkpt><trkpt lat="37.89403736120535" lon="14.141230780097237"><ele>741.0</ele><time>2026-04-19T10:46:17.002Z</time></trkpt><trkpt lat="37.89402056463198" lon="14.141095048089943"><ele>741.0</ele><time>2026-04-19T10:46:18.002Z</time></trkpt><trkpt lat="37.89393579425657" lon="14.140960242419883"><ele>741.0</ele><time>2026-04-19T10:46:19.002Z</time></trkpt><trkpt lat="37.89385480268764" lon="14.140812035984869"><ele>741.0</ele><time>2026-04-19T10:46:20.002Z</time></trkpt><trkpt lat="37.89376555726503" lon="14.140661357442617"><ele>741.0</ele><time>2026-04-19T10:46:21.002Z</time></trkpt><trkpt lat="37.893699018784055" lon="14.14053720037156"><ele>741.0</ele><time>2026-04-19T10:46:22.002Z</time></trkpt><trkpt lat="37.893625323063304" lon="14.140404366907065"><ele>741.0</ele><time>2026-04-19T10:46:23.002Z</time></trkpt><trkpt lat="37.89353478390843" lon="14.140284333650994"><ele>741.0</ele><time>2026-04-19T10:46:24.002Z</time></trkpt><trkpt lat="37.89342901978442" lon="14.140196880843167"><ele>741.0</ele><time>2026-04-19T10:46:25.002Z</time></trkpt><trkpt lat="37.893308882984485" lon="14.140148022106475"><ele>741.0</ele><time>2026-04-19T10:46:26.002Z</time></trkpt><trkpt lat="37.89321222505645" lon="14.140050911245117"><ele>741.0</ele><time>2026-04-19T10:46:27.002Z</time></trkpt><trkpt lat="37.893135838279704" lon="14.139943338453893"><ele>741.0</ele><time>2026-04-19T10:46:28.002Z</time></trkpt><trkpt lat="37.89308452141683" lon="14.139791975748414"><ele>741.0</ele><time>2026-04-19T10:46:29.002Z</time></trkpt><trkpt lat="37.893015952289744" lon="14.139638206828822"><ele>736.25</ele><time>2026-04-19T10:46:30.002Z</time></trkpt><trkpt lat="37.89297147859542" lon="14.1394794183744"><ele>731.5</ele><time>2026-04-19T10:46:31.002Z</time></trkpt><trkpt lat="37.89293195185621" lon="14.139325995839004"><ele>726.75</ele><time>2026-04-19T10:46:32.002Z</time></trkpt><trkpt lat="37.89287930107526" lon="14.139185004837815"><ele>722.0</ele><time>2026-04-19T10:46:33.002Z</time></trkpt><trkpt lat="37.89278513125346" lon="14.13908386445538"><ele>720.5</ele><time>2026-04-19T10:46:34.002Z</time></trkpt><trkpt lat="37.892664520935156" lon="14.13902374896884"><ele>719.0</ele><time>2026-04-19T10:46:35.002Z</time></trkpt><trkpt lat="37.892549220334445" lon="14.138943855208638"><ele>717.5</ele><time>2026-04-19T10:46:36.002Z</time></trkpt><trkpt lat="37.89242063268146" lon="14.138862801749612"><ele>716.0</ele><time>2026-04-19T10:46:37.002Z</time></trkpt><trkpt lat="37.89229137518872" lon="14.138797138694201"><ele>716.0</ele><time>2026-04-19T10:46:38.002Z</time></trkpt><trkpt lat="37.89216954942401" lon="14.13871249137371"><ele>716.0</ele><time>2026-04-19T10:46:39.002Z</time></trkpt><trkpt lat="37.892046428550316" lon="14.138649627802787"><ele>716.0</ele><time>2026-04-19T10:46:40.002Z</time></trkpt><trkpt lat="37.89191687629733" lon="14.13862297988151"><ele>716.0</ele><time>2026-04-19T10:46:41.003Z</time></trkpt><trkpt lat="37.89178712455361" lon="14.138622716216199"><ele>719.0</ele><time>2026-04-19T10:46:42.003Z</time></trkpt><trkpt lat="37.891669950110895" lon="14.138566899585024"><ele>722.0</ele><time>2026-04-19T10:46:43.003Z</time></trkpt><trkpt lat="37.89154472818215" lon="14.138505151869097"><ele>725.0</ele><time>2026-04-19T10:46:44.003Z</time></trkpt><trkpt lat="37.89142466713699" lon="14.138410126270744"><ele>728.0</ele><time>2026-04-19T10:46:45.003Z</time></trkpt><trkpt lat="37.89130354430078" lon="14.138320096681342"><ele>728.0</ele><time>2026-04-19T10:46:46.003Z</time></trkpt><trkpt lat="37.8911685450571" lon="14.138295124433819"><ele>728.0</ele><time>2026-04-19T10:46:47.003Z</time></trkpt><trkpt lat="37.89103448370261" lon="14.138285069596238"><ele>728.0</ele><time>2026-04-19T10:46:48.003Z</time></trkpt><trkpt lat="37.89090661489762" lon="14.138261037581309"><ele>728.0</ele><time>2026-04-19T10:46:49.003Z</time></trkpt><trkpt lat="37.89077961406538" lon="14.138247470396172"><ele>729.75</ele><time>2026-04-19T10:46:50.003Z</time></trkpt><trkpt lat="37.890658022844555" lon="14.13823704367258"><ele>731.5</ele><time>2026-04-19T10:46:51.003Z</time></trkpt><trkpt lat="37.89054231753815" lon="14.138193685191801"><ele>733.25</ele><time>2026-04-19T10:46:52.003Z</time></trkpt><trkpt lat="37.89043167533296" lon="14.138132890157964"><ele>735.0</ele><time>2026-04-19T10:46:53.003Z</time></trkpt><trkpt lat="37.890329542388265" lon="14.138045944355897"><ele>733.0</ele><time>2026-04-19T10:46:54.003Z</time></trkpt><trkpt lat="37.890263815535064" lon="14.137912648157009"><ele>731.0</ele><time>2026-04-19T10:46:55.003Z</time></trkpt><trkpt lat="37.89019743458793" lon="14.13777331996054"><ele>729.0</ele><time>2026-04-19T10:46:56.003Z</time></trkpt><trkpt lat="37.8901591006347" lon="14.137601613105412"><ele>727.0</ele><time>2026-04-19T10:46:57.003Z</time></trkpt><trkpt lat="37.89008898599376" lon="14.13747573610276"><ele>723.0</ele><time>2026-04-19T10:46:58.003Z</time></trkpt><trkpt lat="37.89000683230377" lon="14.137320248206699"><ele>719.0</ele><time>2026-04-19T10:46:59.003Z</time></trkpt><trkpt lat="37.88992899623246" lon="14.137168567466706"><ele>715.0</ele><time>2026-04-19T10:47:00.003Z</time></trkpt><trkpt lat="37.8898450510697" lon="14.13700239962808"><ele>711.0</ele><time>2026-04-19T10:47:01.003Z</time></trkpt><trkpt lat="37.88977248558711" lon="14.136833456793473"><ele>711.0</ele><time>2026-04-19T10:47:02.003Z</time></trkpt><trkpt lat="37.88970176577688" lon="14.136696720503537"><ele>711.0</ele><time>2026-04-19T10:47:03.003Z</time></trkpt><trkpt lat="37.8896170549197" lon="14.136542846086883"><ele>711.0</ele><time>2026-04-19T10:47:04.003Z</time></trkpt><trkpt lat="37.88954024735732" lon="14.136410116876995"><ele>711.0</ele><time>2026-04-19T10:47:05.003Z</time></trkpt><trkpt lat="37.88946763566791" lon="14.136264147376698"><ele>711.5</ele><time>2026-04-19T10:47:06.003Z</time></trkpt><trkpt lat="37.88938632150024" lon="14.136124334896358"><ele>712.0</ele><time>2026-04-19T10:47:07.003Z</time></trkpt><trkpt lat="37.88930747551538" lon="14.135988817045297"><ele>712.5</ele><time>2026-04-19T10:47:08.003Z</time></trkpt><trkpt lat="37.88924744014486" lon="14.135841930493056"><ele>713.0</ele><time>2026-04-19T10:47:09.003Z</time></trkpt><trkpt lat="37.88918437121923" lon="14.135710194942185"><ele>710.25</ele><time>2026-04-19T10:47:10.003Z</time></trkpt><trkpt lat="37.88913937385939" lon="14.135576220044237"><ele>707.5</ele><time>2026-04-19T10:47:11.003Z</time></trkpt><trkpt lat="37.88915032929653" lon="14.135429384007795"><ele>704.75</ele><time>2026-04-19T10:47:12.003Z</time></trkpt><trkpt lat="37.88922315751334" lon="14.135306694131588"><ele>702.0</ele><time>2026-04-19T10:47:13Z</time></trkpt><trkpt lat="37.88929436564459" lon="14.135202107135521"><ele>701.0</ele><time>2026-04-19T10:47:14Z</time></trkpt><trkpt lat="37.88938415525255" lon="14.13511464020259"><ele>700.0</ele><time>2026-04-19T10:47:15Z</time></trkpt><trkpt lat="37.88947091770764" lon="14.135013861562454"><ele>699.0</ele><time>2026-04-19T10:47:16Z</time></trkpt><trkpt lat="37.889565027545636" lon="14.134943794112376"><ele>698.0</ele><time>2026-04-19T10:47:17Z</time></trkpt><trkpt lat="37.889691649730366" lon="14.134884108682556"><ele>698.0</ele><time>2026-04-19T10:47:18Z</time></trkpt><trkpt lat="37.88979718136904" lon="14.134861081331165"><ele>698.0</ele><time>2026-04-19T10:47:19Z</time></trkpt><trkpt lat="37.88988409031001" lon="14.134938743370718"><ele>698.0</ele><time>2026-04-19T10:47:20Z</time></trkpt><trkpt lat="37.88995032285484" lon="14.135030237264065"><ele>698.0</ele><time>2026-04-19T10:47:21Z</time></trkpt><trkpt lat="37.889999624053836" lon="14.135164471228062"><ele>698.0</ele><time>2026-04-19T10:47:22Z</time></trkpt><trkpt lat="37.890007637790795" lon="14.135310823514825"><ele>698.0</ele><time>2026-04-19T10:47:23Z</time></trkpt><trkpt lat="37.89002083258004" lon="14.135467930063678"><ele>698.0</ele><time>2026-04-19T10:47:24Z</time></trkpt><trkpt lat="37.89003908372587" lon="14.135626934028565"><ele>698.0</ele><time>2026-04-19T10:47:25Z</time></trkpt><trkpt lat="37.89005242909232" lon="14.135780051213708"><ele>698.0</ele><time>2026-04-19T10:47:26Z</time></trkpt><trkpt lat="37.8900755732907" lon="14.135926152163368"><ele>695.4</ele><time>2026-04-19T10:47:27Z</time></trkpt><trkpt lat="37.89009596673907" lon="14.136067425000753"><ele>692.8</ele><time>2026-04-19T10:47:28Z</time></trkpt><trkpt lat="37.890114145453396" lon="14.13620398940781"><ele>690.2</ele><time>2026-04-19T10:47:29Z</time></trkpt><trkpt lat="37.89014443682292" lon="14.13633327096488"><ele>687.6</ele><time>2026-04-19T10:47:30Z</time></trkpt><trkpt lat="37.89020138392693" lon="14.136445462846044"><ele>685.0</ele><time>2026-04-19T10:47:31Z</time></trkpt><trkpt lat="37.89028528953037" lon="14.136529275313448"><ele>687.0</ele><time>2026-04-19T10:47:32Z</time></trkpt><trkpt lat="37.89038617980969" lon="14.136578888730112"><ele>689.0</ele><time>2026-04-19T10:47:33Z</time></trkpt><trkpt lat="37.89049233152227" lon="14.136613586611896"><ele>691.0</ele><time>2026-04-19T10:47:34Z</time></trkpt><trkpt lat="37.890595574597334" lon="14.136659909027872"><ele>693.0</ele><time>2026-04-19T10:47:35Z</time></trkpt><trkpt lat="37.89069947236707" lon="14.136714690738657"><ele>695.0</ele><time>2026-04-19T10:47:36Z</time></trkpt><trkpt lat="37.8908047421768" lon="14.136771961260159"><ele>695.0</ele><time>2026-04-19T10:47:37Z</time></trkpt><trkpt lat="37.890915285892625" lon="14.136813069725848"><ele>695.0</ele><time>2026-04-19T10:47:38.001Z</time></trkpt><trkpt lat="37.89102583351923" lon="14.13685783056853"><ele>695.0</ele><time>2026-04-19T10:47:39.001Z</time></trkpt><trkpt lat="37.89113319361886" lon="14.136882632786724"><ele>695.0</ele><time>2026-04-19T10:47:40.001Z</time></trkpt><trkpt lat="37.89124168348527" lon="14.13692448215387"><ele>694.0</ele><time>2026-04-19T10:47:41.001Z</time></trkpt><trkpt lat="37.89136063676761" lon="14.136954895136194"><ele>693.0</ele><time>2026-04-19T10:47:42.001Z</time></trkpt><trkpt lat="37.891474796332666" lon="14.137004106084959"><ele>692.0</ele><time>2026-04-19T10:47:43.001Z</time></trkpt><trkpt lat="37.8915946142551" lon="14.137033906404255"><ele>691.0</ele><time>2026-04-19T10:47:44.001Z</time></trkpt><trkpt lat="37.89171275707819" lon="14.137035765136241"><ele>687.0</ele><time>2026-04-19T10:47:45.001Z</time></trkpt><trkpt lat="37.89183082721492" lon="14.137034556175415"><ele>683.0</ele><time>2026-04-19T10:47:46.001Z</time></trkpt><trkpt lat="37.89193808306378" lon="14.13704081459979"><ele>679.0</ele><time>2026-04-19T10:47:47.001Z</time></trkpt><trkpt lat="37.89204869756131" lon="14.137057657550482"><ele>675.0</ele><time>2026-04-19T10:47:48.001Z</time></trkpt><trkpt lat="37.892154753013585" lon="14.137095818897402"><ele>671.0</ele><time>2026-04-19T10:47:49.001Z</time></trkpt><trkpt lat="37.89224440981173" lon="14.137179795281854"><ele>671.0</ele><time>2026-04-19T10:47:50.001Z</time></trkpt><trkpt lat="37.892346589669856" lon="14.137235147139398"><ele>671.0</ele><time>2026-04-19T10:47:51.001Z</time></trkpt><trkpt lat="37.89243359711095" lon="14.1373175321104"><ele>671.0</ele><time>2026-04-19T10:47:52.001Z</time></trkpt><trkpt lat="37.892512861086814" lon="14.137412888598838"><ele>671.0</ele><time>2026-04-19T10:47:53.001Z</time></trkpt><trkpt lat="37.892585815172694" lon="14.137520988708179"><ele>671.0</ele><time>2026-04-19T10:47:54.001Z</time></trkpt><trkpt lat="37.8926745368181" lon="14.137623099385774"><ele>670.6666666666666</ele><time>2026-04-19T10:47:55.001Z</time></trkpt><trkpt lat="37.89279912997725" lon="14.13770411674137"><ele>670.3333333333334</ele><time>2026-04-19T10:47:56.001Z</time></trkpt><trkpt lat="37.89294605880947" lon="14.137791695337508"><ele>670.0</ele><time>2026-04-19T10:47:57.001Z</time></trkpt><trkpt lat="37.89308536313275" lon="14.137892664566994"><ele>670.0</ele><time>2026-04-19T10:47:58.001Z</time></trkpt><trkpt lat="37.893203245348936" lon="14.137999899813948"><ele>670.0</ele><time>2026-04-19T10:47:59.001Z</time></trkpt><trkpt lat="37.89331083813582" lon="14.13810375228563"><ele>670.0</ele><time>2026-04-19T10:48:00.001Z</time></trkpt><trkpt lat="37.89341402053903" lon="14.138175792030848"><ele>670.0</ele><time>2026-04-19T10:48:01.001Z</time></trkpt><trkpt lat="37.893539799363104" lon="14.138181110967771"><ele>667.3333333333334</ele><time>2026-04-19T10:48:02.001Z</time></trkpt><trkpt lat="37.89368023271272" lon="14.138136169757889"><ele>664.6666666666666</ele><time>2026-04-19T10:48:03.001Z</time></trkpt><trkpt lat="37.89383057947451" lon="14.138085600645438"><ele>662.0</ele><time>2026-04-19T10:48:04.001Z</time></trkpt><trkpt lat="37.89401032593616" lon="14.138050356658281"><ele>662.0</ele><time>2026-04-19T10:48:05.001Z</time></trkpt><trkpt lat="37.89418311903155" lon="14.138040935999006"><ele>662.0</ele><time>2026-04-19T10:48:06.001Z</time></trkpt><trkpt lat="37.89434116221818" lon="14.138000646863176"><ele>662.0</ele><time>2026-04-19T10:48:07.001Z</time></trkpt><trkpt lat="37.89449758752621" lon="14.137977199025352"><ele>661.3333333333333</ele><time>2026-04-19T10:48:08.001Z</time></trkpt><trkpt lat="37.894661083168735" lon="14.137942458266785"><ele>660.6666666666666</ele><time>2026-04-19T10:48:09.002Z</time></trkpt><trkpt lat="37.89481384537707" lon="14.137936559816886"><ele>660.0</ele><time>2026-04-19T10:48:10.002Z</time></trkpt><trkpt lat="37.89494655837527" lon="14.137925213127065"><ele>660.0</ele><time>2026-04-19T10:48:11.002Z</time></trkpt><trkpt lat="37.89506288245516" lon="14.137943678311643"><ele>660.0</ele><time>2026-04-19T10:48:12.002Z</time></trkpt><trkpt lat="37.89510873146354" lon="14.138088044461336"><ele>660.0</ele><time>2026-04-19T10:48:13.002Z</time></trkpt><trkpt lat="37.89518137361625" lon="14.138222941905674"><ele>660.0</ele><time>2026-04-19T10:48:14.002Z</time></trkpt><trkpt lat="37.89527321071614" lon="14.138389642002371"><ele>659.5</ele><time>2026-04-19T10:48:15.002Z</time></trkpt><trkpt lat="37.895364492347454" lon="14.138535819663332"><ele>659.0</ele><time>2026-04-19T10:48:16.002Z</time></trkpt><trkpt lat="37.89545044498107" lon="14.13869800721461"><ele>658.5</ele><time>2026-04-19T10:48:17.002Z</time></trkpt><trkpt lat="37.8955289790146" lon="14.138854380950649"><ele>658.0</ele><time>2026-04-19T10:48:18.002Z</time></trkpt><trkpt lat="37.8955952952513" lon="14.13900601710137"><ele>658.0</ele><time>2026-04-19T10:48:19.002Z</time></trkpt><trkpt lat="37.8956591562102" lon="14.139108697978681"><ele>658.0</ele><time>2026-04-19T10:48:20.002Z</time></trkpt><trkpt lat="37.89574560937225" lon="14.139149306215645"><ele>658.0</ele><time>2026-04-19T10:48:21.002Z</time></trkpt><trkpt lat="37.89583056899174" lon="14.139112215584722"><ele>658.0</ele><time>2026-04-19T10:48:22.002Z</time></trkpt><trkpt lat="37.89590060503933" lon="14.13899980774678"><ele>658.0</ele><time>2026-04-19T10:48:23.002Z</time></trkpt><trkpt lat="37.89592901438359" lon="14.13886714178467"><ele>658.0</ele><time>2026-04-19T10:48:24.002Z</time></trkpt><trkpt lat="37.895872000921685" lon="14.138740165067157"><ele>658.0</ele><time>2026-04-19T10:48:25.002Z</time></trkpt><trkpt lat="37.895826608468965" lon="14.138584668415605"><ele>658.0</ele><time>2026-04-19T10:48:26.002Z</time></trkpt><trkpt lat="37.895767118530664" lon="14.138396081634962"><ele>658.0</ele><time>2026-04-19T10:48:27.002Z</time></trkpt><trkpt lat="37.89570966592081" lon="14.13819633569342"><ele>655.75</ele><time>2026-04-19T10:48:28.002Z</time></trkpt><trkpt lat="37.89567729574709" lon="14.138010152623027"><ele>653.5</ele><time>2026-04-19T10:48:29.002Z</time></trkpt><trkpt lat="37.89561474727982" lon="14.137840147984667"><ele>651.25</ele><time>2026-04-19T10:48:30.002Z</time></trkpt><trkpt lat="37.89554556807898" lon="14.137672677626718"><ele>649.0</ele><time>2026-04-19T10:48:31.002Z</time></trkpt><trkpt lat="37.895472896417694" lon="14.137520623404079"><ele>646.75</ele><time>2026-04-19T10:48:32.002Z</time></trkpt><trkpt lat="37.89538943149302" lon="14.137381330605585"><ele>644.5</ele><time>2026-04-19T10:48:33.002Z</time></trkpt><trkpt lat="37.89527949458404" lon="14.13728419380256"><ele>642.25</ele><time>2026-04-19T10:48:34.002Z</time></trkpt><trkpt lat="37.89516642971552" lon="14.1372280325949"><ele>640.0</ele><time>2026-04-19T10:48:35.002Z</time></trkpt><trkpt lat="37.89504422228332" lon="14.137231632939136"><ele>640.0</ele><time>2026-04-19T10:48:36.002Z</time></trkpt><trkpt lat="37.89491549119949" lon="14.137295767736031"><ele>640.0</ele><time>2026-04-19T10:48:37.002Z</time></trkpt><trkpt lat="37.89479932234752" lon="14.13737854623675"><ele>640.0</ele><time>2026-04-19T10:48:38.002Z</time></trkpt><trkpt lat="37.894675531509236" lon="14.137474175312857"><ele>640.0</ele><time>2026-04-19T10:48:39.002Z</time></trkpt><trkpt lat="37.89452920271857" lon="14.137480506189725"><ele>639.5</ele><time>2026-04-19T10:48:40.002Z</time></trkpt><trkpt lat="37.89438054371512" lon="14.137449051485625"><ele>639.0</ele><time>2026-04-19T10:48:41.003Z</time></trkpt><trkpt lat="37.8942447793124" lon="14.137426379555299"><ele>638.5</ele><time>2026-04-19T10:48:42.003Z</time></trkpt><trkpt lat="37.89411200362533" lon="14.13739952921815"><ele>638.0</ele><time>2026-04-19T10:48:43.003Z</time></trkpt><trkpt lat="37.89398722304186" lon="14.137349457287554"><ele>638.0</ele><time>2026-04-19T10:48:44.003Z</time></trkpt><trkpt lat="37.89388482834591" lon="14.137266979721081"><ele>638.0</ele><time>2026-04-19T10:48:45.003Z</time></trkpt><trkpt lat="37.89376801306104" lon="14.137145800028746"><ele>638.0</ele><time>2026-04-19T10:48:46.003Z</time></trkpt><trkpt lat="37.89366158917327" lon="14.137043781990778"><ele>638.0</ele><time>2026-04-19T10:48:47.003Z</time></trkpt><trkpt lat="37.893536038349396" lon="14.136927484939534"><ele>637.75</ele><time>2026-04-19T10:48:48.003Z</time></trkpt><trkpt lat="37.89341497502317" lon="14.136834577583697"><ele>637.5</ele><time>2026-04-19T10:48:49.003Z</time></trkpt><trkpt lat="37.893281514036694" lon="14.13675623955884"><ele>637.25</ele><time>2026-04-19T10:48:50.003Z</time></trkpt><trkpt lat="37.893175831098" lon="14.136657290920516"><ele>637.0</ele><time>2026-04-19T10:48:51.003Z</time></trkpt><trkpt lat="37.893068899464716" lon="14.13651238961906"><ele>637.0</ele><time>2026-04-19T10:48:52.003Z</time></trkpt><trkpt lat="37.89297332578594" lon="14.13637030469095"><ele>637.0</ele><time>2026-04-19T10:48:53.003Z</time></trkpt><trkpt lat="37.892901030429165" lon="14.136251830633736"><ele>637.0</ele><time>2026-04-19T10:48:54.003Z</time></trkpt><trkpt lat="37.89283522315776" lon="14.136094570814219"><ele>637.0</ele><time>2026-04-19T10:48:55.003Z</time></trkpt><trkpt lat="37.89281921274808" lon="14.135936016421594"><ele>637.0</ele><time>2026-04-19T10:48:56.003Z</time></trkpt><trkpt lat="37.89281084631029" lon="14.13576347413322"><ele>637.0</ele><time>2026-04-19T10:48:57.003Z</time></trkpt><trkpt lat="37.892767125957995" lon="14.135624171871866"><ele>637.0</ele><time>2026-04-19T10:48:58.003Z</time></trkpt><trkpt lat="37.89271093622645" lon="14.135484183194222"><ele>637.0</ele><time>2026-04-19T10:48:59.003Z</time></trkpt><trkpt lat="37.89267000092912" lon="14.13533353895197"><ele>635.5</ele><time>2026-04-19T10:49:00.003Z</time></trkpt><trkpt lat="37.8926507155722" lon="14.135181090536387"><ele>634.0</ele><time>2026-04-19T10:49:01.003Z</time></trkpt><trkpt lat="37.89264686660371" lon="14.135017607213523"><ele>632.5</ele><time>2026-04-19T10:49:02.003Z</time></trkpt><trkpt lat="37.892626298780385" lon="14.134850911621585"><ele>631.0</ele><time>2026-04-19T10:49:03.003Z</time></trkpt><trkpt lat="37.89262664686244" lon="14.134694535498214"><ele>630.5</ele><time>2026-04-19T10:49:04.003Z</time></trkpt><trkpt lat="37.89261625829302" lon="14.134534641529946"><ele>630.0</ele><time>2026-04-19T10:49:05.003Z</time></trkpt><trkpt lat="37.89260521199623" lon="14.13438092780199"><ele>629.5</ele><time>2026-04-19T10:49:06.003Z</time></trkpt><trkpt lat="37.89260060614248" lon="14.134232100200878"><ele>629.0</ele><time>2026-04-19T10:49:07.003Z</time></trkpt><trkpt lat="37.892591721254774" lon="14.134083592404084"><ele>630.0</ele><time>2026-04-19T10:49:08.003Z</time></trkpt><trkpt lat="37.89256238584186" lon="14.133938712778647"><ele>631.0</ele><time>2026-04-19T10:49:09.003Z</time></trkpt><trkpt lat="37.892504300956524" lon="14.13380632691476"><ele>632.0</ele><time>2026-04-19T10:49:10.003Z</time></trkpt><trkpt lat="37.89241419171254" lon="14.133688206805553"><ele>633.0</ele><time>2026-04-19T10:49:11.003Z</time></trkpt><trkpt lat="37.8923221084329" lon="14.133571437737546"><ele>633.0</ele><time>2026-04-19T10:49:12.003Z</time></trkpt><trkpt lat="37.892214923345605" lon="14.133467749568776"><ele>633.0</ele><time>2026-04-19T10:49:13.004Z</time></trkpt><trkpt lat="37.89210396621468" lon="14.13337662763216"><ele>633.0</ele><time>2026-04-19T10:49:14.004Z</time></trkpt><trkpt lat="37.891997542005456" lon="14.133290072089656"><ele>633.0</ele><time>2026-04-19T10:49:15.004Z</time></trkpt><trkpt lat="37.89189331375445" lon="14.133204061509545"><ele>629.25</ele><time>2026-04-19T10:49:16.004Z</time></trkpt><trkpt lat="37.89178028558297" lon="14.13312609792903"><ele>625.5</ele><time>2026-04-19T10:49:17.004Z</time></trkpt><trkpt lat="37.89167329882851" lon="14.133045675618037"><ele>621.75</ele><time>2026-04-19T10:49:18.004Z</time></trkpt><trkpt lat="37.89158445686942" lon="14.13295866401427"><ele>618.0</ele><time>2026-04-19T10:49:19Z</time></trkpt><trkpt lat="37.891541010449515" lon="14.132830066232016"><ele>618.0</ele><time>2026-04-19T10:49:20Z</time></trkpt><trkpt lat="37.89149033596522" lon="14.132698535822373"><ele>618.0</ele><time>2026-04-19T10:49:21Z</time></trkpt><trkpt lat="37.89143962270992" lon="14.132579748015797"><ele>618.0</ele><time>2026-04-19T10:49:22Z</time></trkpt><trkpt lat="37.89135084314676" lon="14.132499219807887"><ele>618.0</ele><time>2026-04-19T10:49:23Z</time></trkpt><trkpt lat="37.8912534273785" lon="14.132439481652039"><ele>618.0</ele><time>2026-04-19T10:49:24Z</time></trkpt><trkpt lat="37.89114987830132" lon="14.132392004150446"><ele>620.5</ele><time>2026-04-19T10:49:25Z</time></trkpt><trkpt lat="37.89103061996013" lon="14.132382873731666"><ele>623.0</ele><time>2026-04-19T10:49:26Z</time></trkpt><trkpt lat="37.89091012115625" lon="14.132401587527928"><ele>625.5</ele><time>2026-04-19T10:49:27Z</time></trkpt><trkpt lat="37.89079115655738" lon="14.13237706228489"><ele>628.0</ele><time>2026-04-19T10:49:28Z</time></trkpt><trkpt lat="37.89068853829992" lon="14.13232829380403"><ele>623.4</ele><time>2026-04-19T10:49:29Z</time></trkpt><trkpt lat="37.89058051456933" lon="14.132293794899294"><ele>618.8</ele><time>2026-04-19T10:49:30Z</time></trkpt><trkpt lat="37.89047853288692" lon="14.132242895130053"><ele>614.2</ele><time>2026-04-19T10:49:31Z</time></trkpt><trkpt lat="37.890372040925406" lon="14.132225884710838"><ele>609.6</ele><time>2026-04-19T10:49:32Z</time></trkpt><trkpt lat="37.89025789276437" lon="14.132245618563024"><ele>605.0</ele><time>2026-04-19T10:49:33Z</time></trkpt><trkpt lat="37.890144916161184" lon="14.13230285563372"><ele>602.25</ele><time>2026-04-19T10:49:34Z</time></trkpt><trkpt lat="37.89003538651998" lon="14.132374801317212"><ele>599.5</ele><time>2026-04-19T10:49:35Z</time></trkpt><trkpt lat="37.889919115587965" lon="14.132412531633802"><ele>596.75</ele><time>2026-04-19T10:49:36Z</time></trkpt><trkpt lat="37.889804942179666" lon="14.132440876053"><ele>594.0</ele><time>2026-04-19T10:49:37.001Z</time></trkpt><trkpt lat="37.88967810792099" lon="14.132427640987965"><ele>594.0</ele><time>2026-04-19T10:49:38.001Z</time></trkpt><trkpt lat="37.889539373240986" lon="14.132403888809273"><ele>594.0</ele><time>2026-04-19T10:49:39.001Z</time></trkpt><trkpt lat="37.88940180253069" lon="14.13239483990398"><ele>594.0</ele><time>2026-04-19T10:49:40.001Z</time></trkpt><trkpt lat="37.889269815702434" lon="14.132372379780254"><ele>594.0</ele><time>2026-04-19T10:49:41.001Z</time></trkpt><trkpt lat="37.889145736895905" lon="14.13231849440309"><ele>594.75</ele><time>2026-04-19T10:49:42.001Z</time></trkpt><trkpt lat="37.88902559493853" lon="14.132265726751848"><ele>595.5</ele><time>2026-04-19T10:49:43.001Z</time></trkpt><trkpt lat="37.88891976852387" lon="14.132182183350814"><ele>596.25</ele><time>2026-04-19T10:49:44.001Z</time></trkpt><trkpt lat="37.888817331866704" lon="14.132093040882381"><ele>597.0</ele><time>2026-04-19T10:49:45.001Z</time></trkpt><trkpt lat="37.88871273452404" lon="14.131997552483467"><ele>597.0</ele><time>2026-04-19T10:49:46.001Z</time></trkpt><trkpt lat="37.88862640104988" lon="14.131904390580699"><ele>597.0</ele><time>2026-04-19T10:49:47.001Z</time></trkpt><trkpt lat="37.88856199596949" lon="14.131789955346596"><ele>597.0</ele><time>2026-04-19T10:49:48.001Z</time></trkpt><trkpt lat="37.88852928715619" lon="14.13167817226329"><ele>597.0</ele><time>2026-04-19T10:49:49.001Z</time></trkpt><trkpt lat="37.888539949608294" lon="14.131576916160244"><ele>597.0</ele><time>2026-04-19T10:49:50.001Z</time></trkpt><trkpt lat="37.88861235181137" lon="14.131529351233146"><ele>597.0</ele><time>2026-04-19T10:49:51.001Z</time></trkpt><trkpt lat="37.88869904922607" lon="14.131540508054545"><ele>597.0</ele><time>2026-04-19T10:49:52.001Z</time></trkpt><trkpt lat="37.88877154613743" lon="14.131592126259179"><ele>597.0</ele><time>2026-04-19T10:49:53.001Z</time></trkpt><trkpt lat="37.88884104077649" lon="14.13165646503668"><ele>597.0</ele><time>2026-04-19T10:49:54.001Z</time></trkpt><trkpt lat="37.88891034219879" lon="14.131724669441164"><ele>597.0</ele><time>2026-04-19T10:49:55.001Z</time></trkpt><trkpt lat="37.88897267707985" lon="14.131783101932623"><ele>597.0</ele><time>2026-04-19T10:49:56.001Z</time></trkpt><trkpt lat="37.88905416286326" lon="14.131870175202282"><ele>597.0</ele><time>2026-04-19T10:49:57.001Z</time></trkpt><trkpt lat="37.889120783995395" lon="14.131950770526172"><ele>597.0</ele><time>2026-04-19T10:49:58.001Z</time></trkpt><trkpt lat="37.889182430747816" lon="14.132023156132007"><ele>597.0</ele><time>2026-04-19T10:49:59.001Z</time></trkpt><trkpt lat="37.889261787963534" lon="14.132098521548343"><ele>597.0</ele><time>2026-04-19T10:50:00.001Z</time></trkpt><trkpt lat="37.88934970382085" lon="14.13213979992316"><ele>597.0</ele><time>2026-04-19T10:50:01.001Z</time></trkpt><trkpt lat="37.88946739624673" lon="14.132126938542589"><ele>596.25</ele><time>2026-04-19T10:50:02.001Z</time></trkpt><trkpt lat="37.88958820567562" lon="14.132091824625956"><ele>595.5</ele><time>2026-04-19T10:50:03.001Z</time></trkpt><trkpt lat="37.88971119733243" lon="14.132051430773382"><ele>594.75</ele><time>2026-04-19T10:50:04.001Z</time></trkpt><trkpt lat="37.88983006342474" lon="14.13199403335456"><ele>594.0</ele><time>2026-04-19T10:50:05.001Z</time></trkpt><trkpt lat="37.889954492652585" lon="14.131940418019473"><ele>594.0</ele><time>2026-04-19T10:50:06.001Z</time></trkpt><trkpt lat="37.89007676873502" lon="14.131905470714795"><ele>594.0</ele><time>2026-04-19T10:50:07.001Z</time></trkpt><trkpt lat="37.89019728640628" lon="14.131858959851012"><ele>594.0</ele><time>2026-04-19T10:50:08.001Z</time></trkpt><trkpt lat="37.8903097788883" lon="14.13178612550027"><ele>594.0</ele><time>2026-04-19T10:50:09.001Z</time></trkpt><trkpt lat="37.890418282472005" lon="14.13166997176876"><ele>592.75</ele><time>2026-04-19T10:50:10.002Z</time></trkpt><trkpt lat="37.89051061927602" lon="14.13152135179246"><ele>591.5</ele><time>2026-04-19T10:50:11.002Z</time></trkpt><trkpt lat="37.89060231733781" lon="14.131380422214038"><ele>590.25</ele><time>2026-04-19T10:50:12.002Z</time></trkpt><trkpt lat="37.890691627196894" lon="14.131244872337291"><ele>589.0</ele><time>2026-04-19T10:50:13.002Z</time></trkpt><trkpt lat="37.890787187554565" lon="14.131131842389783"><ele>589.0</ele><time>2026-04-19T10:50:14.002Z</time></trkpt><trkpt lat="37.890840583266936" lon="14.13099856346907"><ele>589.0</ele><time>2026-04-19T10:50:15.002Z</time></trkpt><trkpt lat="37.890841959788986" lon="14.13084659474876"><ele>589.0</ele><time>2026-04-19T10:50:16.002Z</time></trkpt><trkpt lat="37.89083687304629" lon="14.130703011445616"><ele>589.0</ele><time>2026-04-19T10:50:17.002Z</time></trkpt><trkpt lat="37.890879511263115" lon="14.130587194122779"><ele>584.0</ele><time>2026-04-19T10:50:18.002Z</time></trkpt><trkpt lat="37.89097434531323" lon="14.130507270388879"><ele>579.0</ele><time>2026-04-19T10:50:19.002Z</time></trkpt><trkpt lat="37.89108893046069" lon="14.130496753263978"><ele>574.0</ele><time>2026-04-19T10:50:20.002Z</time></trkpt><trkpt lat="37.8911947633039" lon="14.130532630964536"><ele>569.0</ele><time>2026-04-19T10:50:21.002Z</time></trkpt><trkpt lat="37.89130658047731" lon="14.13058836086511"><ele>569.0</ele><time>2026-04-19T10:50:22.002Z</time></trkpt><trkpt lat="37.891421788301145" lon="14.13065132995242"><ele>569.0</ele><time>2026-04-19T10:50:23.002Z</time></trkpt><trkpt lat="37.89154450775452" lon="14.130713123134765"><ele>569.0</ele><time>2026-04-19T10:50:24.002Z</time></trkpt><trkpt lat="37.891661641098736" lon="14.130782124244387"><ele>569.0</ele><time>2026-04-19T10:50:25.002Z</time></trkpt><trkpt lat="37.89176981572681" lon="14.130851735917934"><ele>569.0</ele><time>2026-04-19T10:50:26.002Z</time></trkpt><trkpt lat="37.89185518058848" lon="14.130928470584434"><ele>569.0</ele><time>2026-04-19T10:50:27.002Z</time></trkpt><trkpt lat="37.89193047563173" lon="14.131053416413147"><ele>569.0</ele><time>2026-04-19T10:50:28.002Z</time></trkpt><trkpt lat="37.892034679956886" lon="14.131170048470839"><ele>569.0</ele><time>2026-04-19T10:50:29.002Z</time></trkpt><trkpt lat="37.892130442347565" lon="14.1312335835676"><ele>569.0</ele><time>2026-04-19T10:50:30.002Z</time></trkpt><trkpt lat="37.89226864596145" lon="14.131263609513047"><ele>569.0</ele><time>2026-04-19T10:50:31.002Z</time></trkpt><trkpt lat="37.89239804455993" lon="14.131267251911359"><ele>569.0</ele><time>2026-04-19T10:50:32.002Z</time></trkpt><trkpt lat="37.89251336438685" lon="14.131333394384278"><ele>569.0</ele><time>2026-04-19T10:50:33.002Z</time></trkpt><trkpt lat="37.8926223209329" lon="14.131410423510694"><ele>569.0</ele><time>2026-04-19T10:50:34.002Z</time></trkpt><trkpt lat="37.892745253970446" lon="14.131443097957243"><ele>569.0</ele><time>2026-04-19T10:50:35.002Z</time></trkpt><trkpt lat="37.89288625877578" lon="14.131414939331112"><ele>569.0</ele><time>2026-04-19T10:50:36.002Z</time></trkpt><trkpt lat="37.893020950568555" lon="14.13138295556415"><ele>569.0</ele><time>2026-04-19T10:50:37.002Z</time></trkpt><trkpt lat="37.89315543368058" lon="14.131352877995367"><ele>569.0</ele><time>2026-04-19T10:50:38.002Z</time></trkpt><trkpt lat="37.8932808140613" lon="14.131311686142947"><ele>569.0</ele><time>2026-04-19T10:50:39.002Z</time></trkpt><trkpt lat="37.89339125004831" lon="14.131226761872115"><ele>569.0</ele><time>2026-04-19T10:50:40.002Z</time></trkpt><trkpt lat="37.89346548921781" lon="14.131088950942448"><ele>569.0</ele><time>2026-04-19T10:50:41.002Z</time></trkpt><trkpt lat="37.89353145300795" lon="14.13095507043275"><ele>569.5</ele><time>2026-04-19T10:50:42.002Z</time></trkpt><trkpt lat="37.893626950575296" lon="14.13086176887565"><ele>570.0</ele><time>2026-04-19T10:50:43.003Z</time></trkpt><trkpt lat="37.89371331318889" lon="14.130758916344"><ele>570.5</ele><time>2026-04-19T10:50:44.003Z</time></trkpt><trkpt lat="37.89383118532405" lon="14.130720833027635"><ele>571.0</ele><time>2026-04-19T10:50:45.003Z</time></trkpt><trkpt lat="37.893950694877056" lon="14.130739715718653"><ele>571.0</ele><time>2026-04-19T10:50:46.003Z</time></trkpt><trkpt lat="37.89404721417666" lon="14.130839834456683"><ele>571.0</ele><time>2026-04-19T10:50:47.003Z</time></trkpt><trkpt lat="37.89414929952188" lon="14.130907072837052"><ele>571.0</ele><time>2026-04-19T10:50:48.003Z</time></trkpt><trkpt lat="37.89424527175613" lon="14.130966157284417"><ele>571.0</ele><time>2026-04-19T10:50:49.003Z</time></trkpt><trkpt lat="37.89436155039955" lon="14.130968677799787"><ele>569.6</ele><time>2026-04-19T10:50:50.003Z</time></trkpt><trkpt lat="37.89446363008221" lon="14.130910729053591"><ele>568.2</ele><time>2026-04-19T10:50:51.003Z</time></trkpt><trkpt lat="37.894552058217904" lon="14.130806356185595"><ele>566.8</ele><time>2026-04-19T10:50:52.003Z</time></trkpt><trkpt lat="37.89463167320803" lon="14.130730762422893"><ele>565.4</ele><time>2026-04-19T10:50:53.003Z</time></trkpt><trkpt lat="37.89474114389478" lon="14.130726228632744"><ele>564.0</ele><time>2026-04-19T10:50:54.003Z</time></trkpt><trkpt lat="37.89486760681765" lon="14.130746867208488"><ele>564.0</ele><time>2026-04-19T10:50:55.003Z</time></trkpt><trkpt lat="37.89498423685854" lon="14.130789081185744"><ele>564.0</ele><time>2026-04-19T10:50:56.003Z</time></trkpt><trkpt lat="37.89509599223411" lon="14.130810116308073"><ele>564.0</ele><time>2026-04-19T10:50:57.003Z</time></trkpt><trkpt lat="37.895207326854404" lon="14.130863481214492"><ele>564.0</ele><time>2026-04-19T10:50:58.003Z</time></trkpt><trkpt lat="37.895294618012855" lon="14.130894106534788"><ele>564.0</ele><time>2026-04-19T10:50:59.003Z</time></trkpt><trkpt lat="37.8953757131022" lon="14.131009227925848"><ele>558.75</ele><time>2026-04-19T10:51:00.003Z</time></trkpt><trkpt lat="37.89542330634356" lon="14.131131198317869"><ele>553.5</ele><time>2026-04-19T10:51:01.003Z</time></trkpt><trkpt lat="37.89548418814802" lon="14.13126788781425"><ele>548.25</ele><time>2026-04-19T10:51:02.003Z</time></trkpt><trkpt lat="37.89554318690411" lon="14.131407458034355"><ele>543.0</ele><time>2026-04-19T10:51:03.003Z</time></trkpt><trkpt lat="37.89564397821264" lon="14.131536764611862"><ele>539.75</ele><time>2026-04-19T10:51:04.003Z</time></trkpt><trkpt lat="37.895724058303145" lon="14.13164257363318"><ele>536.5</ele><time>2026-04-19T10:51:05.003Z</time></trkpt><trkpt lat="37.89581316346199" lon="14.131755863900988"><ele>533.25</ele><time>2026-04-19T10:51:06.003Z</time></trkpt><trkpt lat="37.89589773360495" lon="14.131869153995067"><ele>530.0</ele><time>2026-04-19T10:51:07.003Z</time></trkpt><trkpt lat="37.89596567660241" lon="14.131995943122918"><ele>530.0</ele><time>2026-04-19T10:51:08.003Z</time></trkpt><trkpt lat="37.89601670195075" lon="14.132139536974535"><ele>530.0</ele><time>2026-04-19T10:51:09.003Z</time></trkpt><trkpt lat="37.89604000402549" lon="14.132305516950128"><ele>530.0</ele><time>2026-04-19T10:51:10.003Z</time></trkpt><trkpt lat="37.896077134962006" lon="14.132473729928718"><ele>530.0</ele><time>2026-04-19T10:51:11.003Z</time></trkpt><trkpt lat="37.896124883714094" lon="14.132628385442697"><ele>531.25</ele><time>2026-04-19T10:51:12.003Z</time></trkpt><trkpt lat="37.89615672049889" lon="14.132787420522359"><ele>532.5</ele><time>2026-04-19T10:51:13.003Z</time></trkpt><trkpt lat="37.89619258836322" lon="14.13294271759194"><ele>533.75</ele><time>2026-04-19T10:51:14.003Z</time></trkpt><trkpt lat="37.89621400700128" lon="14.133101006796888"><ele>535.0</ele><time>2026-04-19T10:51:15.003Z</time></trkpt><trkpt lat="37.89620832597364" lon="14.133257892758468"><ele>535.0</ele><time>2026-04-19T10:51:16.003Z</time></trkpt><trkpt lat="37.89617553126723" lon="14.133410582901003"><ele>535.0</ele><time>2026-04-19T10:51:17.004Z</time></trkpt><trkpt lat="37.89611430727424" lon="14.133547197833995"><ele>535.0</ele><time>2026-04-19T10:51:18.004Z</time></trkpt><trkpt lat="37.89602246833657" lon="14.13363855463673"><ele>535.0</ele><time>2026-04-19T10:51:19.004Z</time></trkpt><trkpt lat="37.89593792405702" lon="14.13373065425841"><ele>535.0</ele><time>2026-04-19T10:51:20.004Z</time></trkpt><trkpt lat="37.89589566513952" lon="14.13383644505087"><ele>535.0</ele><time>2026-04-19T10:51:21.004Z</time></trkpt><trkpt lat="37.89590143393754" lon="14.133965586344047"><ele>535.0</ele><time>2026-04-19T10:51:22.004Z</time></trkpt><trkpt lat="37.89601260466776" lon="14.134059244635939"><ele>535.0</ele><time>2026-04-19T10:51:23.004Z</time></trkpt><trkpt lat="37.89611151079539" lon="14.134070667538355"><ele>535.0</ele><time>2026-04-19T10:51:24.004Z</time></trkpt><trkpt lat="37.89621788604243" lon="14.134047977073669"><ele>535.0</ele><time>2026-04-19T10:51:25.001Z</time></trkpt><trkpt lat="37.89632177820384" lon="14.134015180490675"><ele>535.0</ele><time>2026-04-19T10:51:26.001Z</time></trkpt><trkpt lat="37.89639213975712" lon="14.134078752548008"><ele>535.0</ele><time>2026-04-19T10:51:27.001Z</time></trkpt><trkpt lat="37.89644954846201" lon="14.134165550623049"><ele>535.0</ele><time>2026-04-19T10:51:28.001Z</time></trkpt><trkpt lat="37.89648021622083" lon="14.134265618391247"><ele>535.0</ele><time>2026-04-19T10:51:29.001Z</time></trkpt><trkpt lat="37.89654663938747" lon="14.13437485439139"><ele>536.25</ele><time>2026-04-19T10:51:30.001Z</time></trkpt><trkpt lat="37.89667264581004" lon="14.134434834474359"><ele>537.5</ele><time>2026-04-19T10:51:31.001Z</time></trkpt><trkpt lat="37.896794505546026" lon="14.134474298398288"><ele>538.75</ele><time>2026-04-19T10:51:32.001Z</time></trkpt><trkpt lat="37.896928487974506" lon="14.134505356742105"><ele>540.0</ele><time>2026-04-19T10:51:33.001Z</time></trkpt><trkpt lat="37.897054167030355" lon="14.134569452912165"><ele>534.6666666666666</ele><time>2026-04-19T10:51:34.001Z</time></trkpt><trkpt lat="37.89719862569104" lon="14.134605111979353"><ele>529.3333333333333</ele><time>2026-04-19T10:51:35.001Z</time></trkpt><trkpt lat="37.89736936869989" lon="14.134597936004452"><ele>524.0</ele><time>2026-04-19T10:51:36.001Z</time></trkpt><trkpt lat="37.89755940769418" lon="14.134615293512786"><ele>520.0</ele><time>2026-04-19T10:51:37.001Z</time></trkpt><trkpt lat="37.897737879827545" lon="14.134613271587654"><ele>516.0</ele><time>2026-04-19T10:51:38.001Z</time></trkpt><trkpt lat="37.89790823467148" lon="14.134610112720443"><ele>512.0</ele><time>2026-04-19T10:51:39.001Z</time></trkpt><trkpt lat="37.89805692425938" lon="14.13459720520351"><ele>512.0</ele><time>2026-04-19T10:51:40.001Z</time></trkpt><trkpt lat="37.89821454771279" lon="14.134622000304567"><ele>512.0</ele><time>2026-04-19T10:51:41.001Z</time></trkpt><trkpt lat="37.89836142546155" lon="14.134653805287986"><ele>512.0</ele><time>2026-04-19T10:51:42.001Z</time></trkpt><trkpt lat="37.89851598947699" lon="14.134699542176003"><ele>509.3333333333333</ele><time>2026-04-19T10:51:43.001Z</time></trkpt><trkpt lat="37.89867488688817" lon="14.134736484882676"><ele>506.66666666666663</ele><time>2026-04-19T10:51:44.001Z</time></trkpt><trkpt lat="37.89881417272298" lon="14.134794758810848"><ele>504.0</ele><time>2026-04-19T10:51:45.001Z</time></trkpt><trkpt lat="37.89895595519719" lon="14.134855279265889"><ele>504.0</ele><time>2026-04-19T10:51:46.001Z</time></trkpt><trkpt lat="37.89908697850246" lon="14.134898952160277"><ele>504.0</ele><time>2026-04-19T10:51:47.001Z</time></trkpt><trkpt lat="37.8992274523678" lon="14.13487963050402"><ele>504.0</ele><time>2026-04-19T10:51:48.001Z</time></trkpt><trkpt lat="37.89934673279875" lon="14.134800741187423"><ele>504.0</ele><time>2026-04-19T10:51:49.001Z</time></trkpt><trkpt lat="37.89947208694881" lon="14.134744736444436"><ele>502.75</ele><time>2026-04-19T10:51:50.001Z</time></trkpt><trkpt lat="37.89960020236105" lon="14.134738932397168"><ele>501.5</ele><time>2026-04-19T10:51:51.001Z</time></trkpt><trkpt lat="37.899711029744275" lon="14.134753494217637"><ele>500.25</ele><time>2026-04-19T10:51:52.001Z</time></trkpt><trkpt lat="37.89978377735006" lon="14.134828435228872"><ele>499.0</ele><time>2026-04-19T10:51:53.001Z</time></trkpt><trkpt lat="37.89980211324652" lon="14.134979479661073"><ele>503.75</ele><time>2026-04-19T10:51:54.001Z</time></trkpt><trkpt lat="37.89986901312743" lon="14.135076897159298"><ele>508.5</ele><time>2026-04-19T10:51:55.001Z</time></trkpt><trkpt lat="37.89995129989789" lon="14.135170451649634"><ele>513.25</ele><time>2026-04-19T10:51:56.001Z</time></trkpt><trkpt lat="37.90005235993518" lon="14.135192518585017"><ele>518.0</ele><time>2026-04-19T10:51:57.001Z</time></trkpt><trkpt lat="37.90017934660515" lon="14.13508179313649"><ele>518.0</ele><time>2026-04-19T10:51:58.001Z</time></trkpt><trkpt lat="37.90027747437865" lon="14.13498020691298"><ele>518.0</ele><time>2026-04-19T10:51:59.001Z</time></trkpt><trkpt lat="37.90039061507436" lon="14.134884362338061"><ele>518.0</ele><time>2026-04-19T10:52:00.001Z</time></trkpt><trkpt lat="37.90049341857554" lon="14.134819118092834"><ele>518.0</ele><time>2026-04-19T10:52:01.001Z</time></trkpt><trkpt lat="37.900620202726515" lon="14.134812822049874"><ele>510.0</ele><time>2026-04-19T10:52:02.001Z</time></trkpt><trkpt lat="37.90076268323436" lon="14.134839002143917"><ele>502.0</ele><time>2026-04-19T10:52:03.001Z</time></trkpt><trkpt lat="37.90091883704825" lon="14.134844368764654"><ele>494.0</ele><time>2026-04-19T10:52:04.001Z</time></trkpt><trkpt lat="37.90106735802308" lon="14.134805324924447"><ele>492.0</ele><time>2026-04-19T10:52:05.001Z</time></trkpt><trkpt lat="37.901222596561944" lon="14.134762366290438"><ele>490.0</ele><time>2026-04-19T10:52:06.001Z</time></trkpt><trkpt lat="37.901363021495676" lon="14.134711806813957"><ele>488.0</ele><time>2026-04-19T10:52:07.001Z</time></trkpt><trkpt lat="37.901497233508" lon="14.134702168208888"><ele>486.0</ele><time>2026-04-19T10:52:08.001Z</time></trkpt><trkpt lat="37.90161900419339" lon="14.13478908280602"><ele>490.20000000000005</ele><time>2026-04-19T10:52:09.001Z</time></trkpt><trkpt lat="37.90170071647386" lon="14.134898722351945"><ele>494.40000000000003</ele><time>2026-04-19T10:52:10.001Z</time></trkpt><trkpt lat="37.9017460986153" lon="14.135048142271119"><ele>498.6</ele><time>2026-04-19T10:52:11.001Z</time></trkpt><trkpt lat="37.90171336049478" lon="14.135152972041553"><ele>502.8</ele><time>2026-04-19T10:52:12.002Z</time></trkpt><trkpt lat="37.901669634113446" lon="14.135282434555153"><ele>507.0</ele><time>2026-04-19T10:52:13.002Z</time></trkpt><trkpt lat="37.90161304581458" lon="14.1354226684038"><ele>507.0</ele><time>2026-04-19T10:52:14.002Z</time></trkpt><trkpt lat="37.90158571328162" lon="14.135584294041857"><ele>507.0</ele><time>2026-04-19T10:52:15.002Z</time></trkpt><trkpt lat="37.90158601735303" lon="14.135740559508575"><ele>507.0</ele><time>2026-04-19T10:52:16.002Z</time></trkpt><trkpt lat="37.90158951610425" lon="14.135889182865585"><ele>507.0</ele><time>2026-04-19T10:52:17.002Z</time></trkpt><trkpt lat="37.901581401105624" lon="14.136030369669346"><ele>507.40000000000003</ele><time>2026-04-19T10:52:18.002Z</time></trkpt><trkpt lat="37.90156915939347" lon="14.136150896185288"><ele>507.80000000000007</ele><time>2026-04-19T10:52:19.001Z</time></trkpt><trkpt lat="37.90159119226908" lon="14.136251440356128"><ele>508.2</ele><time>2026-04-19T10:52:20.001Z</time></trkpt><trkpt lat="37.901701224876476" lon="14.136328878860695"><ele>508.6</ele><time>2026-04-19T10:52:21.001Z</time></trkpt><trkpt lat="37.901810773727966" lon="14.136336686262196"><ele>509.0</ele><time>2026-04-19T10:52:22.001Z</time></trkpt><trkpt lat="37.9019161140301" lon="14.136329179584788"><ele>505.6</ele><time>2026-04-19T10:52:23.001Z</time></trkpt><trkpt lat="37.90202007257595" lon="14.13633439432452"><ele>502.2</ele><time>2026-04-19T10:52:24.001Z</time></trkpt><trkpt lat="37.902119986618956" lon="14.136350155481423"><ele>498.80000000000007</ele><time>2026-04-19T10:52:25.001Z</time></trkpt><trkpt lat="37.902219628773985" lon="14.136365629639213"><ele>495.40000000000003</ele><time>2026-04-19T10:52:26.001Z</time></trkpt><trkpt lat="37.9023039341008" lon="14.136387940101207"><ele>492.0</ele><time>2026-04-19T10:52:27.001Z</time></trkpt><trkpt lat="37.9023988773665" lon="14.136438483978576"><ele>492.0</ele><time>2026-04-19T10:52:28.001Z</time></trkpt><trkpt lat="37.90248299817634" lon="14.13653892141527"><ele>492.00000000000006</ele><time>2026-04-19T10:52:29.001Z</time></trkpt><trkpt lat="37.90250772262779" lon="14.136645635137782"><ele>492.00000000000006</ele><time>2026-04-19T10:52:30.001Z</time></trkpt><trkpt lat="37.90247770024218" lon="14.136773117654194"><ele>492.0</ele><time>2026-04-19T10:52:31.001Z</time></trkpt><trkpt lat="37.90248145996732" lon="14.136904036616544"><ele>492.0</ele><time>2026-04-19T10:52:32.001Z</time></trkpt><trkpt lat="37.90246108421895" lon="14.137037642435104"><ele>492.40000000000003</ele><time>2026-04-19T10:52:33.001Z</time></trkpt><trkpt lat="37.902428142491104" lon="14.137164643699561"><ele>492.80000000000007</ele><time>2026-04-19T10:52:34.001Z</time></trkpt><trkpt lat="37.90237356565081" lon="14.137288206492041"><ele>493.2</ele><time>2026-04-19T10:52:35.001Z</time></trkpt><trkpt lat="37.902318071525215" lon="14.137402365665585"><ele>493.6</ele><time>2026-04-19T10:52:36.001Z</time></trkpt><trkpt lat="37.902287760376225" lon="14.137525024115822"><ele>494.0</ele><time>2026-04-19T10:52:37.001Z</time></trkpt><trkpt lat="37.90229466177901" lon="14.137656316608838"><ele>494.0</ele><time>2026-04-19T10:52:38.001Z</time></trkpt><trkpt lat="37.90232732897586" lon="14.137787417581732"><ele>494.0</ele><time>2026-04-19T10:52:39.001Z</time></trkpt><trkpt lat="37.90237137567459" lon="14.137903176347596"><ele>494.0</ele><time>2026-04-19T10:52:40.001Z</time></trkpt><trkpt lat="37.90243241123684" lon="14.138003151588828"><ele>494.0</ele><time>2026-04-19T10:52:41.001Z</time></trkpt><trkpt lat="37.90252306889295" lon="14.138061949770828"><ele>494.0</ele><time>2026-04-19T10:52:42.001Z</time></trkpt><trkpt lat="37.902635651828504" lon="14.138084402595286"><ele>492.2</ele><time>2026-04-19T10:52:43.001Z</time></trkpt><trkpt lat="37.902743303571164" lon="14.138110174069334"><ele>490.4</ele><time>2026-04-19T10:52:44.001Z</time></trkpt><trkpt lat="37.9028477158176" lon="14.13815756066776"><ele>488.6</ele><time>2026-04-19T10:52:45.001Z</time></trkpt><trkpt lat="37.902944509562104" lon="14.13822650011596"><ele>486.8</ele><time>2026-04-19T10:52:46.001Z</time></trkpt><trkpt lat="37.903032685106425" lon="14.138299890710378"><ele>485.0</ele><time>2026-04-19T10:52:47.001Z</time></trkpt><trkpt lat="37.903104730788925" lon="14.138416651041068"><ele>485.0</ele><time>2026-04-19T10:52:48.001Z</time></trkpt><trkpt lat="37.903185611006954" lon="14.13848036845906"><ele>485.0</ele><time>2026-04-19T10:52:49.002Z</time></trkpt><trkpt lat="37.903279213567295" lon="14.138512255838181"><ele>485.0</ele><time>2026-04-19T10:52:50.002Z</time></trkpt><trkpt lat="37.90337466957313" lon="14.138448320142919"><ele>485.0</ele><time>2026-04-19T10:52:51.002Z</time></trkpt><trkpt lat="37.90342785194782" lon="14.13834677280576"><ele>485.0</ele><time>2026-04-19T10:52:52.002Z</time></trkpt><trkpt lat="37.903519043681904" lon="14.13825362518131"><ele>479.2</ele><time>2026-04-19T10:52:53.002Z</time></trkpt><trkpt lat="37.90359430540954" lon="14.138170843349377"><ele>473.4</ele><time>2026-04-19T10:52:54.002Z</time></trkpt><trkpt lat="37.90367960352157" lon="14.13810152425616"><ele>467.6</ele><time>2026-04-19T10:52:55.002Z</time></trkpt><trkpt lat="37.90376734691122" lon="14.138039729608284"><ele>461.8</ele><time>2026-04-19T10:52:56.002Z</time></trkpt><trkpt lat="37.903876105824494" lon="14.13805138482087"><ele>456.0</ele><time>2026-04-19T10:52:57.002Z</time></trkpt><trkpt lat="37.90398027094007" lon="14.138089253537126"><ele>456.0</ele><time>2026-04-19T10:52:58.002Z</time></trkpt><trkpt lat="37.90408598155781" lon="14.138141325495647"><ele>456.0</ele><time>2026-04-19T10:52:59.002Z</time></trkpt><trkpt lat="37.904179907772374" lon="14.13820933070101"><ele>456.0</ele><time>2026-04-19T10:53:00.002Z</time></trkpt><trkpt lat="37.904263125277446" lon="14.138295534405009"><ele>456.0</ele><time>2026-04-19T10:53:01.002Z</time></trkpt><trkpt lat="37.90432361206338" lon="14.138405679279597"><ele>456.0</ele><time>2026-04-19T10:53:02.002Z</time></trkpt><trkpt lat="37.9043629391574" lon="14.138533162127251"><ele>456.25</ele><time>2026-04-19T10:53:03.002Z</time></trkpt><trkpt lat="37.904401453421514" lon="14.138671383420435"><ele>456.5</ele><time>2026-04-19T10:53:04.002Z</time></trkpt><trkpt lat="37.90443025582734" lon="14.138813599012227"><ele>456.75</ele><time>2026-04-19T10:53:05.002Z</time></trkpt><trkpt lat="37.904447402163775" lon="14.138955571694959"><ele>457.0</ele><time>2026-04-19T10:53:06.002Z</time></trkpt><trkpt lat="37.90444430619149" lon="14.13909096896314"><ele>457.40000000000003</ele><time>2026-04-19T10:53:07.002Z</time></trkpt><trkpt lat="37.90444908243208" lon="14.13923084292957"><ele>457.80000000000007</ele><time>2026-04-19T10:53:08.002Z</time></trkpt><trkpt lat="37.90442695532675" lon="14.139364711463637"><ele>458.2</ele><time>2026-04-19T10:53:09.002Z</time></trkpt><trkpt lat="37.90437346751235" lon="14.139486900377012"><ele>458.6</ele><time>2026-04-19T10:53:10.002Z</time></trkpt><trkpt lat="37.904320116537036" lon="14.139615317534506"><ele>459.0</ele><time>2026-04-19T10:53:11.002Z</time></trkpt><trkpt lat="37.90428262143187" lon="14.139751476724465"><ele>457.4</ele><time>2026-04-19T10:53:12.002Z</time></trkpt><trkpt lat="37.90427970431263" lon="14.139899686875586"><ele>455.79999999999995</ele><time>2026-04-19T10:53:13.002Z</time></trkpt><trkpt lat="37.90428182114807" lon="14.140044284222528"><ele>454.20000000000005</ele><time>2026-04-19T10:53:14.002Z</time></trkpt><trkpt lat="37.90428469770572" lon="14.140171905880452"><ele>452.6</ele><time>2026-04-19T10:53:15.002Z</time></trkpt><trkpt lat="37.9042810319369" lon="14.140310076478507"><ele>451.0</ele><time>2026-04-19T10:53:16.002Z</time></trkpt><trkpt lat="37.904271160951154" lon="14.140441480963341"><ele>451.0</ele><time>2026-04-19T10:53:17.002Z</time></trkpt><trkpt lat="37.90426997429353" lon="14.140576679929758"><ele>451.0</ele><time>2026-04-19T10:53:18.002Z</time></trkpt><trkpt lat="37.90426688446578" lon="14.140706444476754"><ele>451.0</ele><time>2026-04-19T10:53:19.002Z</time></trkpt><trkpt lat="37.90426393489669" lon="14.140835508875663"><ele>451.0</ele><time>2026-04-19T10:53:20.002Z</time></trkpt><trkpt lat="37.904258740142446" lon="14.140960157867038"><ele>451.0</ele><time>2026-04-19T10:53:21.002Z</time></trkpt><trkpt lat="37.90425006911118" lon="14.1410861712954"><ele>451.20000000000005</ele><time>2026-04-19T10:53:22.002Z</time></trkpt><trkpt lat="37.904255085576175" lon="14.141207315041095"><ele>451.40000000000003</ele><time>2026-04-19T10:53:23.002Z</time></trkpt><trkpt lat="37.90428258504939" lon="14.141323891265268"><ele>451.6</ele><time>2026-04-19T10:53:24.002Z</time></trkpt><trkpt lat="37.904338421217936" lon="14.141423440063376"><ele>451.8</ele><time>2026-04-19T10:53:25.003Z</time></trkpt><trkpt lat="37.904420680163724" lon="14.141502723196561"><ele>452.0</ele><time>2026-04-19T10:53:26.003Z</time></trkpt><trkpt lat="37.90450963387824" lon="14.141578609184297"><ele>453.0</ele><time>2026-04-19T10:53:27.003Z</time></trkpt><trkpt lat="37.904600228957634" lon="14.141676504027966"><ele>454.0</ele><time>2026-04-19T10:53:28.003Z</time></trkpt><trkpt lat="37.90469493708928" lon="14.141796701266223"><ele>455.0</ele><time>2026-04-19T10:53:29.003Z</time></trkpt><trkpt lat="37.904814286313254" lon="14.141932968331572"><ele>456.0</ele><time>2026-04-19T10:53:30.003Z</time></trkpt><trkpt lat="37.90492012656687" lon="14.142053893567251"><ele>456.0</ele><time>2026-04-19T10:53:31Z</time></trkpt><trkpt lat="37.905008169068644" lon="14.142169264098621"><ele>456.0</ele><time>2026-04-19T10:53:32Z</time></trkpt><trkpt lat="37.905096554416424" lon="14.142278770802418"><ele>456.0</ele><time>2026-04-19T10:53:33Z</time></trkpt><trkpt lat="37.90518915731891" lon="14.142354583093312"><ele>456.0</ele><time>2026-04-19T10:53:34Z</time></trkpt><trkpt lat="37.905294472624334" lon="14.14237510317033"><ele>452.0</ele><time>2026-04-19T10:53:35Z</time></trkpt><trkpt lat="37.90539944213329" lon="14.142346252820838"><ele>448.0</ele><time>2026-04-19T10:53:36Z</time></trkpt><trkpt lat="37.9054776618039" lon="14.14225040896532"><ele>444.0</ele><time>2026-04-19T10:53:37Z</time></trkpt><trkpt lat="37.90552154841047" lon="14.142131272986461"><ele>440.0</ele><time>2026-04-19T10:53:38Z</time></trkpt><trkpt lat="37.905524272576265" lon="14.141997768014166"><ele>436.0</ele><time>2026-04-19T10:53:39Z</time></trkpt><trkpt lat="37.90550301875108" lon="14.141854435122399"><ele>436.0</ele><time>2026-04-19T10:53:40Z</time></trkpt><trkpt lat="37.90548751327591" lon="14.14169486826182"><ele>436.0</ele><time>2026-04-19T10:53:41Z</time></trkpt><trkpt lat="37.90546204113863" lon="14.14154415920745"><ele>436.0</ele><time>2026-04-19T10:53:42Z</time></trkpt><trkpt lat="37.90542329176794" lon="14.141387764625586"><ele>436.0</ele><time>2026-04-19T10:53:43Z</time></trkpt><trkpt lat="37.90540031795165" lon="14.141219737452062"><ele>435.25</ele><time>2026-04-19T10:53:44Z</time></trkpt><trkpt lat="37.905366410414764" lon="14.141047141505883"><ele>434.5</ele><time>2026-04-19T10:53:45Z</time></trkpt><trkpt lat="37.90533154321403" lon="14.140872299390187"><ele>433.75</ele><time>2026-04-19T10:53:46Z</time></trkpt><trkpt lat="37.90531950741848" lon="14.140700840678077"><ele>433.0</ele><time>2026-04-19T10:53:47Z</time></trkpt><trkpt lat="37.905293320749536" lon="14.140544137037697"><ele>433.0</ele><time>2026-04-19T10:53:48Z</time></trkpt><trkpt lat="37.905268176978836" lon="14.140387432820157"><ele>433.0</ele><time>2026-04-19T10:53:49Z</time></trkpt><trkpt lat="37.90524438824542" lon="14.140239582676433"><ele>433.0</ele><time>2026-04-19T10:53:50Z</time></trkpt><trkpt lat="37.90526611473706" lon="14.140064389330155"><ele>433.0</ele><time>2026-04-19T10:53:51Z</time></trkpt><trkpt lat="37.905277952615315" lon="14.139879469564292"><ele>434.33333333333337</ele><time>2026-04-19T10:53:52Z</time></trkpt><trkpt lat="37.90532132583348" lon="14.139687560607667"><ele>435.66666666666663</ele><time>2026-04-19T10:53:53Z</time></trkpt><trkpt lat="37.90537226035191" lon="14.139487217126062"><ele>437.0</ele><time>2026-04-19T10:53:54Z</time></trkpt><trkpt lat="37.90543328145434" lon="14.139275569401729"><ele>437.66666666666663</ele><time>2026-04-19T10:53:55Z</time></trkpt><trkpt lat="37.90549183681817" lon="14.139045256676324"><ele>438.33333333333337</ele><time>2026-04-19T10:53:56Z</time></trkpt><trkpt lat="37.90555045714827" lon="14.13881856262421"><ele>439.0</ele><time>2026-04-19T10:53:57Z</time></trkpt><trkpt lat="37.905603834135576" lon="14.138610437926628"><ele>439.0</ele><time>2026-04-19T10:53:58Z</time></trkpt><trkpt lat="37.90565592033579" lon="14.138413662010908"><ele>439.0</ele><time>2026-04-19T10:53:59Z</time></trkpt><trkpt lat="37.905704522430504" lon="14.138221443751556"><ele>439.0</ele><time>2026-04-19T10:54:00Z</time></trkpt><trkpt lat="37.90575230222293" lon="14.138033813158966"><ele>438.75</ele><time>2026-04-19T10:54:01Z</time></trkpt><trkpt lat="37.90580389438484" lon="14.13786016028642"><ele>438.5</ele><time>2026-04-19T10:54:02Z</time></trkpt><trkpt lat="37.90585049417704" lon="14.137698868380205"><ele>438.25</ele><time>2026-04-19T10:54:03Z</time></trkpt><trkpt lat="37.905876463064594" lon="14.137553598369818"><ele>438.0</ele><time>2026-04-19T10:54:04Z</time></trkpt><trkpt lat="37.905864326740904" lon="14.137409421004175"><ele>435.75</ele><time>2026-04-19T10:54:05Z</time></trkpt><trkpt lat="37.90579033016882" lon="14.137289703649369"><ele>433.5</ele><time>2026-04-19T10:54:06Z</time></trkpt><trkpt lat="37.90570098379242" lon="14.137196185708484"><ele>431.25</ele><time>2026-04-19T10:54:07Z</time></trkpt><trkpt lat="37.905599961843556" lon="14.137118157597016"><ele>429.0</ele><time>2026-04-19T10:54:08Z</time></trkpt><trkpt lat="37.905500515439705" lon="14.137060678021205"><ele>429.0</ele><time>2026-04-19T10:54:09Z</time></trkpt><trkpt lat="37.905382278709" lon="14.137012724057618"><ele>429.0</ele><time>2026-04-19T10:54:10Z</time></trkpt><trkpt lat="37.90527592121376" lon="14.137060120697917"><ele>429.0</ele><time>2026-04-19T10:54:11Z</time></trkpt><trkpt lat="37.905177942565885" lon="14.137146993422563"><ele>429.0</ele><time>2026-04-19T10:54:12Z</time></trkpt><trkpt lat="37.90506928967628" lon="14.137183903017357"><ele>429.0</ele><time>2026-04-19T10:54:13Z</time></trkpt><trkpt lat="37.90496362009856" lon="14.137180952261687"><ele>429.0</ele><time>2026-04-19T10:54:14Z</time></trkpt><trkpt lat="37.90485665241238" lon="14.137149816512421"><ele>429.0</ele><time>2026-04-19T10:54:15.001Z</time></trkpt><trkpt lat="37.904740519042655" lon="14.137143016335914"><ele>429.0</ele><time>2026-04-19T10:54:16.001Z</time></trkpt><trkpt lat="37.90463051834026" lon="14.13710745047763"><ele>429.0</ele><time>2026-04-19T10:54:17.001Z</time></trkpt><trkpt lat="37.904541146872646" lon="14.13703482400321"><ele>429.0</ele><time>2026-04-19T10:54:18.001Z</time></trkpt><trkpt lat="37.904453906251426" lon="14.1369555885968"><ele>429.0</ele><time>2026-04-19T10:54:19.001Z</time></trkpt><trkpt lat="37.90438346655836" lon="14.136856679238324"><ele>429.0</ele><time>2026-04-19T10:54:20.001Z</time></trkpt><trkpt lat="37.904332608724204" lon="14.136749591486812"><ele>429.0</ele><time>2026-04-19T10:54:21.001Z</time></trkpt><trkpt lat="37.904346178130574" lon="14.136606160514086"><ele>429.0</ele><time>2026-04-19T10:54:22.001Z</time></trkpt><trkpt lat="37.90434292691679" lon="14.136456793017825"><ele>427.0</ele><time>2026-04-19T10:54:23.001Z</time></trkpt><trkpt lat="37.90436157678561" lon="14.136296486524355"><ele>425.0</ele><time>2026-04-19T10:54:24.001Z</time></trkpt><trkpt lat="37.904396137339226" lon="14.136139039973267"><ele>423.0</ele><time>2026-04-19T10:54:25.001Z</time></trkpt><trkpt lat="37.9044544335779" lon="14.135981634446187"><ele>421.0</ele><time>2026-04-19T10:54:26.001Z</time></trkpt><trkpt lat="37.90451816226955" lon="14.135831880309452"><ele>420.25</ele><time>2026-04-19T10:54:27.001Z</time></trkpt><trkpt lat="37.90457711083897" lon="14.13569282294167"><ele>419.5</ele><time>2026-04-19T10:54:28.001Z</time></trkpt><trkpt lat="37.90463151083365" lon="14.135548632983248"><ele>418.75</ele><time>2026-04-19T10:54:29.001Z</time></trkpt><trkpt lat="37.904684702699925" lon="14.135405180498376"><ele>418.0</ele><time>2026-04-19T10:54:30.001Z</time></trkpt><trkpt lat="37.90472799873676" lon="14.135259334409096"><ele>418.0</ele><time>2026-04-19T10:54:31.001Z</time></trkpt><trkpt lat="37.90474088234291" lon="14.135100150832603"><ele>418.0</ele><time>2026-04-19T10:54:32.001Z</time></trkpt><trkpt lat="37.904735363516096" lon="14.134945683115907"><ele>418.0</ele><time>2026-04-19T10:54:33.001Z</time></trkpt><trkpt lat="37.904709593441765" lon="14.134798261695842"><ele>418.0</ele><time>2026-04-19T10:54:34.001Z</time></trkpt><trkpt lat="37.90464888491751" lon="14.134661197889269"><ele>416.75</ele><time>2026-04-19T10:54:35.001Z</time></trkpt><trkpt lat="37.90459003420114" lon="14.134540921962579"><ele>415.5</ele><time>2026-04-19T10:54:36.001Z</time></trkpt><trkpt lat="37.90457366915329" lon="14.134390951311389"><ele>414.25</ele><time>2026-04-19T10:54:37.001Z</time></trkpt><trkpt lat="37.90454938223114" lon="14.134237125786546"><ele>413.0</ele><time>2026-04-19T10:54:38.001Z</time></trkpt><trkpt lat="37.90454188845994" lon="14.13407655491144"><ele>411.25</ele><time>2026-04-19T10:54:39.001Z</time></trkpt><trkpt lat="37.904532286481135" lon="14.133919482329627"><ele>409.5</ele><time>2026-04-19T10:54:40.001Z</time></trkpt><trkpt lat="37.90452636830565" lon="14.133768241130145"><ele>407.75</ele><time>2026-04-19T10:54:41.001Z</time></trkpt><trkpt lat="37.90450574712776" lon="14.133625108502581"><ele>406.0</ele><time>2026-04-19T10:54:42.001Z</time></trkpt><trkpt lat="37.904440544688185" lon="14.133491987589696"><ele>406.0</ele><time>2026-04-19T10:54:43.001Z</time></trkpt><trkpt lat="37.90435639912582" lon="14.133369165115964"><ele>406.0</ele><time>2026-04-19T10:54:44.001Z</time></trkpt><trkpt lat="37.90426810293791" lon="14.133246344416293"><ele>406.0</ele><time>2026-04-19T10:54:45.001Z</time></trkpt><trkpt lat="37.90417797507892" lon="14.133138374563597"><ele>406.0</ele><time>2026-04-19T10:54:46.001Z</time></trkpt><trkpt lat="37.904066404690376" lon="14.133045373688951"><ele>405.5</ele><time>2026-04-19T10:54:47.001Z</time></trkpt><trkpt lat="37.90395112083897" lon="14.132960408691636"><ele>405.0</ele><time>2026-04-19T10:54:48.001Z</time></trkpt><trkpt lat="37.903824969292096" lon="14.132905340148161"><ele>404.5</ele><time>2026-04-19T10:54:49.001Z</time></trkpt><trkpt lat="37.903695273429804" lon="14.13286722166017"><ele>404.0</ele><time>2026-04-19T10:54:50.001Z</time></trkpt><trkpt lat="37.90357031491551" lon="14.132816682263229"><ele>404.0</ele><time>2026-04-19T10:54:51.002Z</time></trkpt><trkpt lat="37.9034402106408" lon="14.132809426779078"><ele>404.0</ele><time>2026-04-19T10:54:52.002Z</time></trkpt><trkpt lat="37.90331223330848" lon="14.132815307271171"><ele>404.0</ele><time>2026-04-19T10:54:53.002Z</time></trkpt><trkpt lat="37.903203952670516" lon="14.132823165843163"><ele>404.0</ele><time>2026-04-19T10:54:54.002Z</time></trkpt><trkpt lat="37.9031087829762" lon="14.132811773487735"><ele>403.6</ele><time>2026-04-19T10:54:55.002Z</time></trkpt><trkpt lat="37.90306272477825" lon="14.132718459262703"><ele>403.2</ele><time>2026-04-19T10:54:56.002Z</time></trkpt><trkpt lat="37.90307087580814" lon="14.13260699261629"><ele>402.8</ele><time>2026-04-19T10:54:57.002Z</time></trkpt><trkpt lat="37.90306211476259" lon="14.132501915123822"><ele>402.40000000000003</ele><time>2026-04-19T10:54:58.002Z</time></trkpt><trkpt lat="37.9030690306876" lon="14.132389883141412"><ele>402.0</ele><time>2026-04-19T10:54:59.002Z</time></trkpt><trkpt lat="37.90306637366872" lon="14.13225470069029"><ele>402.0</ele><time>2026-04-19T10:55:00.002Z</time></trkpt><trkpt lat="37.90305902314127" lon="14.13211608550967"><ele>402.0</ele><time>2026-04-19T10:55:01.002Z</time></trkpt><trkpt lat="37.90305086265336" lon="14.13197103034876"><ele>402.0</ele><time>2026-04-19T10:55:02.002Z</time></trkpt><trkpt lat="37.90304304393678" lon="14.131825891522562"><ele>402.0</ele><time>2026-04-19T10:55:03.002Z</time></trkpt><trkpt lat="37.90304771375986" lon="14.131686901166917"><ele>402.0</ele><time>2026-04-19T10:55:04.002Z</time></trkpt><trkpt lat="37.90306183415239" lon="14.131550018527587"><ele>399.8</ele><time>2026-04-19T10:55:05.002Z</time></trkpt><trkpt lat="37.90308320661668" lon="14.131415899439583"><ele>397.6</ele><time>2026-04-19T10:55:06.002Z</time></trkpt><trkpt lat="37.903064620807235" lon="14.131291780906357"><ele>395.40000000000003</ele><time>2026-04-19T10:55:07.002Z</time></trkpt><trkpt lat="37.90299814718151" lon="14.131184155621337"><ele>393.20000000000005</ele><time>2026-04-19T10:55:08.002Z</time></trkpt><trkpt lat="37.90290350404921" lon="14.131098545732517"><ele>391.0</ele><time>2026-04-19T10:55:09.002Z</time></trkpt><trkpt lat="37.90280371243949" lon="14.13101781206731"><ele>391.0</ele><time>2026-04-19T10:55:10.002Z</time></trkpt><trkpt lat="37.9027081691732" lon="14.130938174193599"><ele>391.0</ele><time>2026-04-19T10:55:11.002Z</time></trkpt><trkpt lat="37.902611159537656" lon="14.13086055073004"><ele>391.0</ele><time>2026-04-19T10:55:12.002Z</time></trkpt><trkpt lat="37.90250472917751" lon="14.130804121731105"><ele>391.0</ele><time>2026-04-19T10:55:13.002Z</time></trkpt><trkpt lat="37.90240460029111" lon="14.130766939306852"><ele>391.0</ele><time>2026-04-19T10:55:14.002Z</time></trkpt><trkpt lat="37.90232589228071" lon="14.130696697555695"><ele>390.8</ele><time>2026-04-19T10:55:15.002Z</time></trkpt><trkpt lat="37.90228050359056" lon="14.130582096256381"><ele>390.6</ele><time>2026-04-19T10:55:16.002Z</time></trkpt><trkpt lat="37.90227790764575" lon="14.130456123540405"><ele>390.4</ele><time>2026-04-19T10:55:17.002Z</time></trkpt><trkpt lat="37.90229653686811" lon="14.130340819246298"><ele>390.2</ele><time>2026-04-19T10:55:18.002Z</time></trkpt><trkpt lat="37.9023130289511" lon="14.130225084698568"><ele>390.0</ele><time>2026-04-19T10:55:19.002Z</time></trkpt><trkpt lat="37.902327092567866" lon="14.130109801429956"><ele>390.0</ele><time>2026-04-19T10:55:20.002Z</time></trkpt><trkpt lat="37.902299790057796" lon="14.130010317367923"><ele>390.0</ele><time>2026-04-19T10:55:21.002Z</time></trkpt><trkpt lat="37.90223388846296" lon="14.129938303498811"><ele>390.0</ele><time>2026-04-19T10:55:22.002Z</time></trkpt><trkpt lat="37.90214269556742" lon="14.12991084498704"><ele>390.0</ele><time>2026-04-19T10:55:23.002Z</time></trkpt><trkpt lat="37.902044972638016" lon="14.129930275759163"><ele>390.0</ele><time>2026-04-19T10:55:24.002Z</time></trkpt><trkpt lat="37.9019458041044" lon="14.12997852109237"><ele>390.0</ele><time>2026-04-19T10:55:25.002Z</time></trkpt><trkpt lat="37.90184796335885" lon="14.130033511845058"><ele>390.0</ele><time>2026-04-19T10:55:26.002Z</time></trkpt><trkpt lat="37.90175195399821" lon="14.130088146585276"><ele>390.0</ele><time>2026-04-19T10:55:27.002Z</time></trkpt><trkpt lat="37.9016523176781" lon="14.130143675025135"><ele>390.0</ele><time>2026-04-19T10:55:28.003Z</time></trkpt><trkpt lat="37.90155930286806" lon="14.13021228181617"><ele>390.0</ele><time>2026-04-19T10:55:29.003Z</time></trkpt><trkpt lat="37.90146758050746" lon="14.130283057825629"><ele>389.8</ele><time>2026-04-19T10:55:30.003Z</time></trkpt><trkpt lat="37.90139748310791" lon="14.130392506364906"><ele>389.6</ele><time>2026-04-19T10:55:31.003Z</time></trkpt><trkpt lat="37.90135227708031" lon="14.130480252118886"><ele>389.4</ele><time>2026-04-19T10:55:32.003Z</time></trkpt><trkpt lat="37.90126842449807" lon="14.130535978130178"><ele>389.2</ele><time>2026-04-19T10:55:33.003Z</time></trkpt><trkpt lat="37.90117702757553" lon="14.130503683624038"><ele>389.0</ele><time>2026-04-19T10:55:34.003Z</time></trkpt><trkpt lat="37.90111560796826" lon="14.130412079461566"><ele>389.0</ele><time>2026-04-19T10:55:35.003Z</time></trkpt><trkpt lat="37.901099494295465" lon="14.130294282879724"><ele>389.0</ele><time>2026-04-19T10:55:36.003Z</time></trkpt><trkpt lat="37.90110423285823" lon="14.130165654925175"><ele>389.0</ele><time>2026-04-19T10:55:37Z</time></trkpt><trkpt lat="37.90111234775892" lon="14.130026096050273"><ele>389.0</ele><time>2026-04-19T10:55:38Z</time></trkpt><trkpt lat="37.90110888610768" lon="14.129871089413143"><ele>389.0</ele><time>2026-04-19T10:55:39Z</time></trkpt><trkpt lat="37.90110867101242" lon="14.129710173901957"><ele>385.25</ele><time>2026-04-19T10:55:40Z</time></trkpt><trkpt lat="37.9011142409896" lon="14.129555091300706"><ele>381.5</ele><time>2026-04-19T10:55:41Z</time></trkpt><trkpt lat="37.90113024012519" lon="14.129406482375884"><ele>377.75</ele><time>2026-04-19T10:55:42Z</time></trkpt><trkpt lat="37.90115455103034" lon="14.129263131636169"><ele>374.0</ele><time>2026-04-19T10:55:43Z</time></trkpt><trkpt lat="37.90118160816381" lon="14.12912046889208"><ele>370.75</ele><time>2026-04-19T10:55:44Z</time></trkpt><trkpt lat="37.90120242209399" lon="14.128982598584868"><ele>367.5</ele><time>2026-04-19T10:55:45Z</time></trkpt><trkpt lat="37.90121167417937" lon="14.128821894040541"><ele>364.25</ele><time>2026-04-19T10:55:46Z</time></trkpt><trkpt lat="37.90121208445274" lon="14.128667859205375"><ele>361.0</ele><time>2026-04-19T10:55:47Z</time></trkpt><trkpt lat="37.9012097543202" lon="14.128518891541548"><ele>361.0</ele><time>2026-04-19T10:55:48Z</time></trkpt><trkpt lat="37.901201712215766" lon="14.1283718844586"><ele>361.0</ele><time>2026-04-19T10:55:49Z</time></trkpt><trkpt lat="37.90116491072312" lon="14.128241397181373"><ele>361.0</ele><time>2026-04-19T10:55:50Z</time></trkpt><trkpt lat="37.901098580807975" lon="14.128126064055156"><ele>361.0</ele><time>2026-04-19T10:55:51Z</time></trkpt><trkpt lat="37.901002801975274" lon="14.128043542998293"><ele>361.5</ele><time>2026-04-19T10:55:52Z</time></trkpt><trkpt lat="37.90088411291531" lon="14.127987084735162"><ele>362.0</ele><time>2026-04-19T10:55:53Z</time></trkpt><trkpt lat="37.90077041176148" lon="14.127905658425034"><ele>362.5</ele><time>2026-04-19T10:55:54Z</time></trkpt><trkpt lat="37.90066964918131" lon="14.127791118082268"><ele>363.0</ele><time>2026-04-19T10:55:55Z</time></trkpt><trkpt lat="37.9005761233369" lon="14.127676935817108"><ele>363.0</ele><time>2026-04-19T10:55:56Z</time></trkpt><trkpt lat="37.90048770220854" lon="14.127562549675046"><ele>363.0</ele><time>2026-04-19T10:55:57Z</time></trkpt><trkpt lat="37.90040505981332" lon="14.127447455358977"><ele>363.0</ele><time>2026-04-19T10:55:58Z</time></trkpt><trkpt lat="37.900320413095244" lon="14.12734021393238"><ele>363.0</ele><time>2026-04-19T10:55:59Z</time></trkpt><trkpt lat="37.90021561938087" lon="14.127268868076603"><ele>358.75</ele><time>2026-04-19T10:56:00Z</time></trkpt><trkpt lat="37.90010073078659" lon="14.127240859337482"><ele>354.5</ele><time>2026-04-19T10:56:01Z</time></trkpt><trkpt lat="37.89998702959685" lon="14.127274669096696"><ele>350.25</ele><time>2026-04-19T10:56:02Z</time></trkpt><trkpt lat="37.89987429554786" lon="14.127306046656361"><ele>346.0</ele><time>2026-04-19T10:56:03Z</time></trkpt><trkpt lat="37.899759877386465" lon="14.127320376956876"><ele>346.0</ele><time>2026-04-19T10:56:04Z</time></trkpt><trkpt lat="37.89963848605498" lon="14.127305366537335"><ele>346.0</ele><time>2026-04-19T10:56:05Z</time></trkpt><trkpt lat="37.89951933311232" lon="14.127250525108042"><ele>346.0</ele><time>2026-04-19T10:56:06Z</time></trkpt><trkpt lat="37.89941016740303" lon="14.127174554344506"><ele>346.0</ele><time>2026-04-19T10:56:07Z</time></trkpt><trkpt lat="37.89930478053246" lon="14.127098261998867"><ele>349.0</ele><time>2026-04-19T10:56:08Z</time></trkpt><trkpt lat="37.89920828274662" lon="14.127019424661897"><ele>352.0</ele><time>2026-04-19T10:56:09Z</time></trkpt><trkpt lat="37.89911881326578" lon="14.126930507730822"><ele>355.0</ele><time>2026-04-19T10:56:10Z</time></trkpt><trkpt lat="37.899042897558665" lon="14.126833779067608"><ele>358.0</ele><time>2026-04-19T10:56:11Z</time></trkpt><trkpt lat="37.89898317911278" lon="14.126726134793332"><ele>361.0</ele><time>2026-04-19T10:56:12Z</time></trkpt><trkpt lat="37.89893188652527" lon="14.126599991116441"><ele>361.0</ele><time>2026-04-19T10:56:13Z</time></trkpt><trkpt lat="37.8988911954252" lon="14.126464804442143"><ele>361.0</ele><time>2026-04-19T10:56:14Z</time></trkpt><trkpt lat="37.89885229240826" lon="14.126327117052504"><ele>361.0</ele><time>2026-04-19T10:56:15.001Z</time></trkpt><trkpt lat="37.898818260432066" lon="14.126195326978735"><ele>361.0</ele><time>2026-04-19T10:56:16.001Z</time></trkpt><trkpt lat="37.89881784989664" lon="14.12606670019258"><ele>361.0</ele><time>2026-04-19T10:56:17.001Z</time></trkpt><trkpt lat="37.89884518721941" lon="14.125941630660469"><ele>361.0</ele><time>2026-04-19T10:56:18.001Z</time></trkpt><trkpt lat="37.89887395854472" lon="14.125823494114167"><ele>361.0</ele><time>2026-04-19T10:56:19.001Z</time></trkpt><trkpt lat="37.89889344863312" lon="14.125709401323899"><ele>361.0</ele><time>2026-04-19T10:56:20.001Z</time></trkpt><trkpt lat="37.89895862348424" lon="14.125635574114623"><ele>361.0</ele><time>2026-04-19T10:56:21.001Z</time></trkpt><trkpt lat="37.899045431069695" lon="14.125626177028096"><ele>361.0</ele><time>2026-04-19T10:56:22.001Z</time></trkpt><trkpt lat="37.89912612322911" lon="14.125664389778608"><ele>360.0</ele><time>2026-04-19T10:56:23.001Z</time></trkpt><trkpt lat="37.89921158972129" lon="14.125700217055062"><ele>359.0</ele><time>2026-04-19T10:56:24.001Z</time></trkpt><trkpt lat="37.899305474270975" lon="14.125736091531973"><ele>358.0</ele><time>2026-04-19T10:56:25.001Z</time></trkpt><trkpt lat="37.8994002148873" lon="14.125778923219341"><ele>357.0</ele><time>2026-04-19T10:56:26.001Z</time></trkpt><trkpt lat="37.89949440418325" lon="14.125818160362378"><ele>356.0</ele><time>2026-04-19T10:56:27.001Z</time></trkpt><trkpt lat="37.89959391073089" lon="14.125828172208148"><ele>356.0</ele><time>2026-04-19T10:56:28.001Z</time></trkpt><trkpt lat="37.89969745839811" lon="14.125795993271463"><ele>356.0</ele><time>2026-04-19T10:56:29.001Z</time></trkpt><trkpt lat="37.89980109444541" lon="14.125737466341612"><ele>356.0</ele><time>2026-04-19T10:56:30.001Z</time></trkpt><trkpt lat="37.89990717741417" lon="14.125673661562471"><ele>356.0</ele><time>2026-04-19T10:56:31.001Z</time></trkpt><trkpt lat="37.90002679894998" lon="14.125621858520715"><ele>362.25</ele><time>2026-04-19T10:56:32.001Z</time></trkpt><trkpt lat="37.90014259539546" lon="14.125571399977838"><ele>368.5</ele><time>2026-04-19T10:56:33.001Z</time></trkpt><trkpt lat="37.9002836953421" lon="14.125567437061136"><ele>374.75</ele><time>2026-04-19T10:56:34.001Z</time></trkpt><trkpt lat="37.900410899677865" lon="14.125573413385808"><ele>381.0</ele><time>2026-04-19T10:56:35.001Z</time></trkpt><trkpt lat="37.90054352776463" lon="14.125593149186388"><ele>381.0</ele><time>2026-04-19T10:56:36.001Z</time></trkpt><trkpt lat="37.90070630600337" lon="14.12565089281557"><ele>381.0</ele><time>2026-04-19T10:56:37.001Z</time></trkpt><trkpt lat="37.900859561512476" lon="14.125712188353925"><ele>381.0</ele><time>2026-04-19T10:56:38.001Z</time></trkpt><trkpt lat="37.90101282660357" lon="14.125770053022048"><ele>371.0</ele><time>2026-04-19T10:56:39.001Z</time></trkpt><trkpt lat="37.90117435028478" lon="14.12579973183875"><ele>361.0</ele><time>2026-04-19T10:56:40.001Z</time></trkpt><trkpt lat="37.90131721314544" lon="14.125771046382837"><ele>351.0</ele><time>2026-04-19T10:56:41.001Z</time></trkpt><trkpt lat="37.9014771922047" lon="14.125737891687349"><ele>353.6666666666667</ele><time>2026-04-19T10:56:42.001Z</time></trkpt><trkpt lat="37.90164403289921" lon="14.12570265783878"><ele>356.33333333333337</ele><time>2026-04-19T10:56:43.001Z</time></trkpt><trkpt lat="37.90181033179621" lon="14.12567549411965"><ele>359.0</ele><time>2026-04-19T10:56:44.001Z</time></trkpt><trkpt lat="37.9019633296264" lon="14.125640133760587"><ele>359.0</ele><time>2026-04-19T10:56:45.001Z</time></trkpt><trkpt lat="37.90210801545826" lon="14.125606798221485"><ele>359.0</ele><time>2026-04-19T10:56:46.001Z</time></trkpt><trkpt lat="37.9022453888383" lon="14.125581643462137"><ele>359.0</ele><time>2026-04-19T10:56:47.001Z</time></trkpt><trkpt lat="37.90238589992899" lon="14.125554084336796"><ele>359.0</ele><time>2026-04-19T10:56:48.001Z</time></trkpt><trkpt lat="37.90251415641779" lon="14.125509491248392"><ele>352.75</ele><time>2026-04-19T10:56:49.001Z</time></trkpt><trkpt lat="37.90260737245254" lon="14.125396857629022"><ele>346.5</ele><time>2026-04-19T10:56:50.001Z</time></trkpt><trkpt lat="37.902658415221836" lon="14.125241860604831"><ele>340.25</ele><time>2026-04-19T10:56:51.001Z</time></trkpt><trkpt lat="37.902684272006454" lon="14.125070556581525"><ele>334.0</ele><time>2026-04-19T10:56:52.002Z</time></trkpt><trkpt lat="37.90278726636845" lon="14.124939581992873"><ele>338.0</ele><time>2026-04-19T10:56:53.002Z</time></trkpt><trkpt lat="37.90291556704924" lon="14.12481864943097"><ele>342.0</ele><time>2026-04-19T10:56:54.002Z</time></trkpt><trkpt lat="37.9030388861383" lon="14.124699795576838"><ele>346.0</ele><time>2026-04-19T10:56:55.002Z</time></trkpt><trkpt lat="37.90317939831991" lon="14.124643515080695"><ele>346.0</ele><time>2026-04-19T10:56:56.002Z</time></trkpt><trkpt lat="37.90330752487746" lon="14.124567226180213"><ele>346.0</ele><time>2026-04-19T10:56:57.002Z</time></trkpt><trkpt lat="37.9034137927153" lon="14.124454684931049"><ele>346.0</ele><time>2026-04-19T10:56:58.002Z</time></trkpt><trkpt lat="37.903498907351384" lon="14.12430567398305"><ele>346.0</ele><time>2026-04-19T10:56:59.002Z</time></trkpt><trkpt lat="37.90354232196621" lon="14.124118208489849"><ele>341.75</ele><time>2026-04-19T10:57:00.002Z</time></trkpt><trkpt lat="37.903579926300374" lon="14.123931594909465"><ele>337.5</ele><time>2026-04-19T10:57:01.002Z</time></trkpt><trkpt lat="37.90363133100931" lon="14.123752859424092"><ele>333.25</ele><time>2026-04-19T10:57:02.002Z</time></trkpt><trkpt lat="37.903709807682105" lon="14.123597742236583"><ele>329.0</ele><time>2026-04-19T10:57:03.002Z</time></trkpt><trkpt lat="37.90378830135686" lon="14.123462028778494"><ele>329.0</ele><time>2026-04-19T10:57:04.002Z</time></trkpt><trkpt lat="37.903854693096704" lon="14.123315200714245"><ele>329.0</ele><time>2026-04-19T10:57:05.002Z</time></trkpt><trkpt lat="37.90393430074487" lon="14.123180050170681"><ele>329.0</ele><time>2026-04-19T10:57:06.002Z</time></trkpt><trkpt lat="37.90400788487014" lon="14.123047294345131"><ele>329.0</ele><time>2026-04-19T10:57:07.002Z</time></trkpt><trkpt lat="37.90407515333018" lon="14.122894230453927"><ele>329.75</ele><time>2026-04-19T10:57:08.002Z</time></trkpt><trkpt lat="37.90415779817871" lon="14.122745066954497"><ele>330.5</ele><time>2026-04-19T10:57:09.002Z</time></trkpt><trkpt lat="37.90422296214675" lon="14.122580926718792"><ele>331.25</ele><time>2026-04-19T10:57:10.002Z</time></trkpt><trkpt lat="37.904280052841656" lon="14.12241836671007"><ele>332.0</ele><time>2026-04-19T10:57:11.002Z</time></trkpt><trkpt lat="37.9043307439164" lon="14.122257210005984"><ele>332.25</ele><time>2026-04-19T10:57:12.002Z</time></trkpt><trkpt lat="37.9043749561004" lon="14.122096950920326"><ele>332.5</ele><time>2026-04-19T10:57:13.002Z</time></trkpt><trkpt lat="37.90447710142228" lon="14.121960459701459"><ele>332.75</ele><time>2026-04-19T10:57:14.002Z</time></trkpt><trkpt lat="37.9045727872908" lon="14.121807642159814"><ele>333.0</ele><time>2026-04-19T10:57:15.002Z</time></trkpt><trkpt lat="37.90463847991952" lon="14.121646055188762"><ele>334.25</ele><time>2026-04-19T10:57:16.002Z</time></trkpt><trkpt lat="37.90472001213053" lon="14.121501941572527"><ele>335.5</ele><time>2026-04-19T10:57:17.002Z</time></trkpt><trkpt lat="37.904784463238336" lon="14.121355834253784"><ele>336.75</ele><time>2026-04-19T10:57:18.002Z</time></trkpt><trkpt lat="37.90484705304512" lon="14.121218897031918"><ele>338.0</ele><time>2026-04-19T10:57:19.002Z</time></trkpt><trkpt lat="37.904902207178715" lon="14.121099078405773"><ele>338.0</ele><time>2026-04-19T10:57:20.002Z</time></trkpt><trkpt lat="37.904953782807695" lon="14.121008497149962"><ele>338.0</ele><time>2026-04-19T10:57:21.002Z</time></trkpt><trkpt lat="37.90505017221778" lon="14.120995735864868"><ele>338.0</ele><time>2026-04-19T10:57:22.002Z</time></trkpt><trkpt lat="37.905131234154325" lon="14.1210637494968"><ele>338.0</ele><time>2026-04-19T10:57:23.002Z</time></trkpt><trkpt lat="37.90518852966644" lon="14.121159880629751"><ele>338.0</ele><time>2026-04-19T10:57:24.002Z</time></trkpt><trkpt lat="37.90525022170509" lon="14.121260313933158"><ele>341.5</ele><time>2026-04-19T10:57:25.002Z</time></trkpt><trkpt lat="37.90530374852501" lon="14.121376474369502"><ele>345.0</ele><time>2026-04-19T10:57:26.002Z</time></trkpt><trkpt lat="37.90533490743667" lon="14.121504350877057"><ele>348.5</ele><time>2026-04-19T10:57:27.002Z</time></trkpt><trkpt lat="37.90529994325015" lon="14.121638977872902"><ele>352.0</ele><time>2026-04-19T10:57:28.002Z</time></trkpt><trkpt lat="37.90525188452018" lon="14.121786635094834"><ele>352.0</ele><time>2026-04-19T10:57:29.003Z</time></trkpt><trkpt lat="37.90524052587466" lon="14.121919708700803"><ele>352.0</ele><time>2026-04-19T10:57:30.003Z</time></trkpt><trkpt lat="37.9052619675892" lon="14.122061942654943"><ele>352.0</ele><time>2026-04-19T10:57:31.003Z</time></trkpt><trkpt lat="37.90530711687263" lon="14.122200806268427"><ele>352.0</ele><time>2026-04-19T10:57:32.003Z</time></trkpt><trkpt lat="37.90535329600672" lon="14.1223392330809"><ele>352.5</ele><time>2026-04-19T10:57:33.003Z</time></trkpt><trkpt lat="37.90536367820441" lon="14.122484099838383"><ele>353.0</ele><time>2026-04-19T10:57:34.003Z</time></trkpt><trkpt lat="37.905336549875" lon="14.122628651304963"><ele>353.5</ele><time>2026-04-19T10:57:35.003Z</time></trkpt><trkpt lat="37.905293520195926" lon="14.122771056527197"><ele>354.0</ele><time>2026-04-19T10:57:36.003Z</time></trkpt><trkpt lat="37.90526376434381" lon="14.122919441539198"><ele>354.0</ele><time>2026-04-19T10:57:37.003Z</time></trkpt><trkpt lat="37.90522220638352" lon="14.123053014319055"><ele>354.0</ele><time>2026-04-19T10:57:38.003Z</time></trkpt><trkpt lat="37.90517653497202" lon="14.123175782000189"><ele>354.0</ele><time>2026-04-19T10:57:39.003Z</time></trkpt><trkpt lat="37.905143806533864" lon="14.123302262656969"><ele>354.0</ele><time>2026-04-19T10:57:40.003Z</time></trkpt><trkpt lat="37.90511108311838" lon="14.123426897411095"><ele>354.0</ele><time>2026-04-19T10:57:41.003Z</time></trkpt><trkpt lat="37.90508551848421" lon="14.12356518039004"><ele>349.75</ele><time>2026-04-19T10:57:42.003Z</time></trkpt><trkpt lat="37.905075641858566" lon="14.123725642719451"><ele>345.5</ele><time>2026-04-19T10:57:43Z</time></trkpt><trkpt lat="37.90507597771009" lon="14.123902853435009"><ele>341.25</ele><time>2026-04-19T10:57:44Z</time></trkpt><trkpt lat="37.90507098620779" lon="14.124091434147573"><ele>337.0</ele><time>2026-04-19T10:57:45Z</time></trkpt><trkpt lat="37.905065777734606" lon="14.12426510987365"><ele>337.0</ele><time>2026-04-19T10:57:46Z</time></trkpt><trkpt lat="37.90505869149539" lon="14.124412093142865"><ele>337.0</ele><time>2026-04-19T10:57:47Z</time></trkpt><trkpt lat="37.9050505517449" lon="14.124546868907112"><ele>337.0</ele><time>2026-04-19T10:57:48Z</time></trkpt><trkpt lat="37.90505153463339" lon="14.124688367657157"><ele>337.0</ele><time>2026-04-19T10:57:49Z</time></trkpt><trkpt lat="37.905060542550444" lon="14.124826222081808"><ele>337.0</ele><time>2026-04-19T10:57:50Z</time></trkpt><trkpt lat="37.90508515167898" lon="14.124965640186034"><ele>340.40000000000003</ele><time>2026-04-19T10:57:51Z</time></trkpt><trkpt lat="37.90512161256487" lon="14.125104817835089"><ele>343.8</ele><time>2026-04-19T10:57:52Z</time></trkpt><trkpt lat="37.905163281817266" lon="14.12522954874066"><ele>347.2</ele><time>2026-04-19T10:57:53Z</time></trkpt><trkpt lat="37.90519730039207" lon="14.12535167683994"><ele>350.6</ele><time>2026-04-19T10:57:54Z</time></trkpt><trkpt lat="37.90523673383197" lon="14.12546994955984"><ele>354.0</ele><time>2026-04-19T10:57:55Z</time></trkpt><trkpt lat="37.9052957907493" lon="14.12557323156909"><ele>354.0</ele><time>2026-04-19T10:57:56Z</time></trkpt><trkpt lat="37.90538531799015" lon="14.125639736598817"><ele>354.0</ele><time>2026-04-19T10:57:57Z</time></trkpt><trkpt lat="37.90549648091941" lon="14.125645972018082"><ele>354.0</ele><time>2026-04-19T10:57:58Z</time></trkpt><trkpt lat="37.905610988181635" lon="14.125623654455042"><ele>354.0</ele><time>2026-04-19T10:57:59Z</time></trkpt><trkpt lat="37.905722603251704" lon="14.125607189862317"><ele>354.0</ele><time>2026-04-19T10:58:00Z</time></trkpt><trkpt lat="37.90583348938178" lon="14.125605118034867"><ele>351.79999999999995</ele><time>2026-04-19T10:58:01Z</time></trkpt><trkpt lat="37.905937175968354" lon="14.125602795049883"><ele>349.59999999999997</ele><time>2026-04-19T10:58:02Z</time></trkpt><trkpt lat="37.90603501526992" lon="14.12557134260445"><ele>347.4</ele><time>2026-04-19T10:58:03Z</time></trkpt><trkpt lat="37.90611372659576" lon="14.125487170920016"><ele>345.2</ele><time>2026-04-19T10:58:04Z</time></trkpt><trkpt lat="37.906161481689985" lon="14.125363398416948"><ele>343.0</ele><time>2026-04-19T10:58:05Z</time></trkpt><trkpt lat="37.90617035304506" lon="14.125212678708863"><ele>343.0</ele><time>2026-04-19T10:58:06Z</time></trkpt><trkpt lat="37.90617683284539" lon="14.125064552590263"><ele>343.0</ele><time>2026-04-19T10:58:07Z</time></trkpt><trkpt lat="37.90619263454689" lon="14.124913411923988"><ele>343.0</ele><time>2026-04-19T10:58:08Z</time></trkpt><trkpt lat="37.90621525197198" lon="14.124759243722051"><ele>343.0</ele><time>2026-04-19T10:58:09.001Z</time></trkpt><trkpt lat="37.906232343582445" lon="14.12460740089834"><ele>344.59999999999997</ele><time>2026-04-19T10:58:10.001Z</time></trkpt><trkpt lat="37.906264801713895" lon="14.124468742598264"><ele>346.2</ele><time>2026-04-19T10:58:11.001Z</time></trkpt><trkpt lat="37.906286066452985" lon="14.12433867866383"><ele>347.8</ele><time>2026-04-19T10:58:12.001Z</time></trkpt><trkpt lat="37.90631217261935" lon="14.124217941961778"><ele>349.4</ele><time>2026-04-19T10:58:13.001Z</time></trkpt><trkpt lat="37.90639647983983" lon="14.12415303513335"><ele>351.0</ele><time>2026-04-19T10:58:14.001Z</time></trkpt><trkpt lat="37.90650186463191" lon="14.124159313983554"><ele>351.0</ele><time>2026-04-19T10:58:15.001Z</time></trkpt><trkpt lat="37.906609461421574" lon="14.124141161620823"><ele>351.0</ele><time>2026-04-19T10:58:16.001Z</time></trkpt><trkpt lat="37.9067197822525" lon="14.124132993376376"><ele>351.0</ele><time>2026-04-19T10:58:17.001Z</time></trkpt><trkpt lat="37.90682411797901" lon="14.12407890172405"><ele>351.0</ele><time>2026-04-19T10:58:18.001Z</time></trkpt><trkpt lat="37.906922407572594" lon="14.123989274137099"><ele>351.5</ele><time>2026-04-19T10:58:19.001Z</time></trkpt><trkpt lat="37.907006586257346" lon="14.123874187356542"><ele>352.0</ele><time>2026-04-19T10:58:20.001Z</time></trkpt><trkpt lat="37.90707598832703" lon="14.123751460423602"><ele>352.5</ele><time>2026-04-19T10:58:21.001Z</time></trkpt><trkpt lat="37.907117897585906" lon="14.123616661334696"><ele>353.0</ele><time>2026-04-19T10:58:22.001Z</time></trkpt><trkpt lat="37.90715965711594" lon="14.123485265177274"><ele>353.0</ele><time>2026-04-19T10:58:23.001Z</time></trkpt><trkpt lat="37.90721084189853" lon="14.123359944906333"><ele>353.0</ele><time>2026-04-19T10:58:24.001Z</time></trkpt><trkpt lat="37.907209003254785" lon="14.123219864466575"><ele>353.0</ele><time>2026-04-19T10:58:25.001Z</time></trkpt><trkpt lat="37.90720644523491" lon="14.123084185881089"><ele>353.0</ele><time>2026-04-19T10:58:26.001Z</time></trkpt><trkpt lat="37.90717886247649" lon="14.122950433244615"><ele>353.0</ele><time>2026-04-19T10:58:27.001Z</time></trkpt><trkpt lat="37.90711837484194" lon="14.12281073628816"><ele>353.2</ele><time>2026-04-19T10:58:28.001Z</time></trkpt><trkpt lat="37.90708539248268" lon="14.122664557306157"><ele>353.4</ele><time>2026-04-19T10:58:29.001Z</time></trkpt><trkpt lat="37.90706591139111" lon="14.122533172456642"><ele>353.59999999999997</ele><time>2026-04-19T10:58:30.001Z</time></trkpt><trkpt lat="37.90709006487246" lon="14.122407567481682"><ele>353.79999999999995</ele><time>2026-04-19T10:58:31.001Z</time></trkpt><trkpt lat="37.9071494565304" lon="14.122301293293521"><ele>354.0</ele><time>2026-04-19T10:58:32.001Z</time></trkpt><trkpt lat="37.90722002995269" lon="14.12219262999743"><ele>354.0</ele><time>2026-04-19T10:58:33.001Z</time></trkpt><trkpt lat="37.907277091894684" lon="14.122080637244107"><ele>354.0</ele><time>2026-04-19T10:58:34.001Z</time></trkpt><trkpt lat="37.90732001138915" lon="14.121965724907955"><ele>354.0</ele><time>2026-04-19T10:58:35.001Z</time></trkpt><trkpt lat="37.90733721466375" lon="14.121831233960915"><ele>354.0</ele><time>2026-04-19T10:58:36.001Z</time></trkpt><trkpt lat="37.90731665165778" lon="14.12169323358672"><ele>354.0</ele><time>2026-04-19T10:58:37.001Z</time></trkpt><trkpt lat="37.907302541523975" lon="14.121568597913877"><ele>356.0</ele><time>2026-04-19T10:58:38.001Z</time></trkpt><trkpt lat="37.907301909757464" lon="14.121458107021587"><ele>358.0</ele><time>2026-04-19T10:58:39.001Z</time></trkpt><trkpt lat="37.907312990889466" lon="14.1213388159929"><ele>360.0</ele><time>2026-04-19T10:58:40.001Z</time></trkpt><trkpt lat="37.9074006574507" lon="14.121263161015706"><ele>362.0</ele><time>2026-04-19T10:58:41.001Z</time></trkpt><trkpt lat="37.90748512176667" lon="14.12119695835537"><ele>364.0</ele><time>2026-04-19T10:58:42.001Z</time></trkpt><trkpt lat="37.90757071116388" lon="14.12111368889656"><ele>361.6</ele><time>2026-04-19T10:58:43.001Z</time></trkpt><trkpt lat="37.90765483763904" lon="14.12102411051604"><ele>359.2</ele><time>2026-04-19T10:58:44.001Z</time></trkpt><trkpt lat="37.90774062724144" lon="14.12094482735094"><ele>356.8</ele><time>2026-04-19T10:58:45.001Z</time></trkpt><trkpt lat="37.90782251053724" lon="14.12086407590002"><ele>354.40000000000003</ele><time>2026-04-19T10:58:46.001Z</time></trkpt><trkpt lat="37.90790126189455" lon="14.120796874166585"><ele>352.0</ele><time>2026-04-19T10:58:47.001Z</time></trkpt><trkpt lat="37.90796422650682" lon="14.120704895109087"><ele>352.0</ele><time>2026-04-19T10:58:48.001Z</time></trkpt><trkpt lat="37.90799797081402" lon="14.120589523374527"><ele>352.0</ele><time>2026-04-19T10:58:49.002Z</time></trkpt><trkpt lat="37.907994816970835" lon="14.120464450948583"><ele>352.0</ele><time>2026-04-19T10:58:50.002Z</time></trkpt><trkpt lat="37.907964132028546" lon="14.120344263627082"><ele>352.0</ele><time>2026-04-19T10:58:51.002Z</time></trkpt><trkpt lat="37.907942802816834" lon="14.120216969412958"><ele>352.0</ele><time>2026-04-19T10:58:52.002Z</time></trkpt><trkpt lat="37.90790780072287" lon="14.120090566556582"><ele>352.0</ele><time>2026-04-19T10:58:53.002Z</time></trkpt><trkpt lat="37.90787268527646" lon="14.119959247739837"><ele>352.0</ele><time>2026-04-19T10:58:54.002Z</time></trkpt><trkpt lat="37.90782104941242" lon="14.119830062487834"><ele>352.0</ele><time>2026-04-19T10:58:55.002Z</time></trkpt><trkpt lat="37.90779812185335" lon="14.11967794098445"><ele>352.0</ele><time>2026-04-19T10:58:56.002Z</time></trkpt><trkpt lat="37.90776207670668" lon="14.119541908287614"><ele>353.25</ele><time>2026-04-19T10:58:57.002Z</time></trkpt><trkpt lat="37.90772719803886" lon="14.119410277801792"><ele>354.5</ele><time>2026-04-19T10:58:58.002Z</time></trkpt><trkpt lat="37.90767809806048" lon="14.119282013540477"><ele>355.75</ele><time>2026-04-19T10:58:59.002Z</time></trkpt><trkpt lat="37.90761340063464" lon="14.119159508437047"><ele>357.0</ele><time>2026-04-19T10:59:00.002Z</time></trkpt><trkpt lat="37.90752676135344" lon="14.1190655840282"><ele>360.6</ele><time>2026-04-19T10:59:01.002Z</time></trkpt><trkpt lat="37.90743718859674" lon="14.118980284204422"><ele>364.20000000000005</ele><time>2026-04-19T10:59:02.002Z</time></trkpt><trkpt lat="37.90736197111178" lon="14.118894449881052"><ele>367.8</ele><time>2026-04-19T10:59:03.002Z</time></trkpt><trkpt lat="37.907295187637175" lon="14.118826226718227"><ele>371.4</ele><time>2026-04-19T10:59:04.002Z</time></trkpt><trkpt lat="37.90724750824689" lon="14.118751025739428"><ele>375.0</ele><time>2026-04-19T10:59:05.002Z</time></trkpt><trkpt lat="37.90726017828231" lon="14.118648919455069"><ele>375.0</ele><time>2026-04-19T10:59:06.002Z</time></trkpt><trkpt lat="37.90733929735782" lon="14.118596073832341"><ele>375.0</ele><time>2026-04-19T10:59:07.002Z</time></trkpt><trkpt lat="37.9074262660314" lon="14.11859650342105"><ele>375.0</ele><time>2026-04-19T10:59:08.002Z</time></trkpt><trkpt lat="37.907507151172624" lon="14.11865380881856"><ele>375.0</ele><time>2026-04-19T10:59:09.002Z</time></trkpt><trkpt lat="37.90757576164325" lon="14.11865494704712"><ele>375.0</ele><time>2026-04-19T10:59:10.002Z</time></trkpt><trkpt lat="37.907656017175064" lon="14.118634552028137"><ele>375.0</ele><time>2026-04-19T10:59:11.002Z</time></trkpt><trkpt lat="37.9077298054163" lon="14.118582344481705"><ele>374.0</ele><time>2026-04-19T10:59:12.002Z</time></trkpt><trkpt lat="37.90784649786392" lon="14.11856926051261"><ele>373.0</ele><time>2026-04-19T10:59:13.002Z</time></trkpt><trkpt lat="37.90795247302603" lon="14.118630142283239"><ele>372.0</ele><time>2026-04-19T10:59:14.002Z</time></trkpt><trkpt lat="37.90804310007658" lon="14.11873190408166"><ele>371.0</ele><time>2026-04-19T10:59:16.002Z</time></trkpt><trkpt lat="37.908115623262525" lon="14.118799421887962"><ele>370.0</ele><time>2026-04-19T10:59:17.002Z</time></trkpt><trkpt lat="37.90819576528665" lon="14.11884379287836"><ele>370.0</ele><time>2026-04-19T10:59:18.002Z</time></trkpt><trkpt lat="37.908287341892816" lon="14.118833394186618"><ele>370.0</ele><time>2026-04-19T10:59:19.002Z</time></trkpt><trkpt lat="37.908354654446846" lon="14.118784696178215"><ele>370.0</ele><time>2026-04-19T10:59:20.002Z</time></trkpt><trkpt lat="37.908393783484726" lon="14.118681551640238"><ele>370.0</ele><time>2026-04-19T10:59:21.002Z</time></trkpt><trkpt lat="37.90840897600237" lon="14.118572268769984"><ele>370.0</ele><time>2026-04-19T10:59:22.002Z</time></trkpt><trkpt lat="37.90841997298367" lon="14.118460312558373"><ele>370.0</ele><time>2026-04-19T10:59:23.002Z</time></trkpt><trkpt lat="37.90844084074856" lon="14.11835482666106"><ele>368.16666666666663</ele><time>2026-04-19T10:59:24.002Z</time></trkpt><trkpt lat="37.90848743788301" lon="14.118250540524022"><ele>366.3333333333333</ele><time>2026-04-19T10:59:25.002Z</time></trkpt><trkpt lat="37.908534620340625" lon="14.118155643822742"><ele>364.5</ele><time>2026-04-19T10:59:26.002Z</time></trkpt><trkpt lat="37.908602097547636" lon="14.118087037063981"><ele>362.6666666666667</ele><time>2026-04-19T10:59:27.003Z</time></trkpt><trkpt lat="37.908670692778884" lon="14.118053367200027"><ele>360.83333333333337</ele><time>2026-04-19T10:59:28.003Z</time></trkpt><trkpt lat="37.90875187781668" lon="14.118107287857377"><ele>359.0</ele><time>2026-04-19T10:59:29.003Z</time></trkpt><trkpt lat="37.90883244568673" lon="14.118166388340061"><ele>359.0</ele><time>2026-04-19T10:59:30.003Z</time></trkpt><trkpt lat="37.90891751813686" lon="14.118206097357529"><ele>359.0</ele><time>2026-04-19T10:59:31.003Z</time></trkpt><trkpt lat="37.909006186140985" lon="14.118233558259341"><ele>359.0</ele><time>2026-04-19T10:59:32.003Z</time></trkpt><trkpt lat="37.909098319623936" lon="14.118261977721005"><ele>359.0</ele><time>2026-04-19T10:59:33.003Z</time></trkpt><trkpt lat="37.909192254406975" lon="14.118261595882387"><ele>359.0</ele><time>2026-04-19T10:59:34.003Z</time></trkpt><trkpt lat="37.90929185173775" lon="14.118221339773097"><ele>363.75</ele><time>2026-04-19T10:59:35.003Z</time></trkpt><trkpt lat="37.9093874265138" lon="14.11816058952998"><ele>368.5</ele><time>2026-04-19T10:59:36.003Z</time></trkpt><trkpt lat="37.909491772024616" lon="14.118063248775908"><ele>373.25</ele><time>2026-04-19T10:59:37.003Z</time></trkpt><trkpt lat="37.90957042090421" lon="14.117928698033962"><ele>378.0</ele><time>2026-04-19T10:59:38.003Z</time></trkpt><trkpt lat="37.90963470383603" lon="14.117779197768996"><ele>378.0</ele><time>2026-04-19T10:59:39.003Z</time></trkpt><trkpt lat="37.90971638101677" lon="14.117610351772466"><ele>378.0</ele><time>2026-04-19T10:59:40.003Z</time></trkpt><trkpt lat="37.90979321189426" lon="14.117448023747922"><ele>378.0</ele><time>2026-04-19T10:59:41.003Z</time></trkpt><trkpt lat="37.90985154034427" lon="14.11731363074382"><ele>378.0</ele><time>2026-04-19T10:59:42.003Z</time></trkpt><trkpt lat="37.90992412309623" lon="14.117214277869305"><ele>379.0</ele><time>2026-04-19T10:59:43.003Z</time></trkpt><trkpt lat="37.90998741040203" lon="14.117119737826876"><ele>380.0</ele><time>2026-04-19T10:59:44.003Z</time></trkpt><trkpt lat="37.91007713841515" lon="14.117121624686511"><ele>381.0</ele><time>2026-04-19T10:59:45.003Z</time></trkpt><trkpt lat="37.91013801614132" lon="14.117192590757053"><ele>382.0</ele><time>2026-04-19T10:59:46.003Z</time></trkpt><trkpt lat="37.910145915606485" lon="14.117299814104543"><ele>383.0</ele><time>2026-04-19T10:59:47.003Z</time></trkpt><trkpt lat="37.910128497284646" lon="14.1174136887909"><ele>384.0</ele><time>2026-04-19T10:59:48.003Z</time></trkpt><trkpt lat="37.9101176255796" lon="14.117541558551428"><ele>384.0</ele><time>2026-04-19T10:59:49Z</time></trkpt><trkpt lat="37.91011380143395" lon="14.117684150261775"><ele>384.0</ele><time>2026-04-19T10:59:50Z</time></trkpt><trkpt lat="37.91012483015219" lon="14.117848081146423"><ele>384.0</ele><time>2026-04-19T10:59:51Z</time></trkpt><trkpt lat="37.9101319526799" lon="14.11801028603617"><ele>384.0</ele><time>2026-04-19T10:59:52Z</time></trkpt><trkpt lat="37.91012503548474" lon="14.118155995660358"><ele>382.0</ele><time>2026-04-19T10:59:53Z</time></trkpt><trkpt lat="37.91012272926907" lon="14.118297765643844"><ele>380.0</ele><time>2026-04-19T10:59:54Z</time></trkpt><trkpt lat="37.91014806094339" lon="14.118436745971813"><ele>378.0</ele><time>2026-04-19T10:59:55Z</time></trkpt><trkpt lat="37.91020093454796" lon="14.118566286465008"><ele>376.0</ele><time>2026-04-19T10:59:56Z</time></trkpt><trkpt lat="37.91028113280613" lon="14.11866464968253"><ele>376.0</ele><time>2026-04-19T10:59:57Z</time></trkpt><trkpt lat="37.91038321756739" lon="14.11870984688564"><ele>376.0</ele><time>2026-04-19T10:59:58Z</time></trkpt><trkpt lat="37.91049691917154" lon="14.118696498592389"><ele>376.0</ele><time>2026-04-19T10:59:59Z</time></trkpt><trkpt lat="37.9106122257977" lon="14.118651438826182"><ele>376.0</ele><time>2026-04-19T11:00:00Z</time></trkpt><trkpt lat="37.9107279194642" lon="14.118588177947965"><ele>376.0</ele><time>2026-04-19T11:00:01Z</time></trkpt><trkpt lat="37.91083916874164" lon="14.118507694855511"><ele>376.0</ele><time>2026-04-19T11:00:02Z</time></trkpt><trkpt lat="37.91093504162355" lon="14.118399828839774"><ele>376.0</ele><time>2026-04-19T11:00:03Z</time></trkpt><trkpt lat="37.911016498733666" lon="14.118275532990785"><ele>376.0</ele><time>2026-04-19T11:00:04Z</time></trkpt><trkpt lat="37.91107932266447" lon="14.118122401879873"><ele>375.0</ele><time>2026-04-19T11:00:05Z</time></trkpt><trkpt lat="37.91112345725312" lon="14.117937472620048"><ele>374.0</ele><time>2026-04-19T11:00:06Z</time></trkpt><trkpt lat="37.91117292840169" lon="14.1177815845116"><ele>373.0</ele><time>2026-04-19T11:00:07Z</time></trkpt><trkpt lat="37.911215340963665" lon="14.117622175474464"><ele>372.0</ele><time>2026-04-19T11:00:08Z</time></trkpt><trkpt lat="37.9112683302106" lon="14.117476648253655"><ele>371.75</ele><time>2026-04-19T11:00:09Z</time></trkpt><trkpt lat="37.91130121398695" lon="14.11732249037295"><ele>371.5</ele><time>2026-04-19T11:00:10Z</time></trkpt><trkpt lat="37.91129405103272" lon="14.117155419398534"><ele>371.25</ele><time>2026-04-19T11:00:11Z</time></trkpt><trkpt lat="37.91127248735892" lon="14.116982829564105"><ele>371.0</ele><time>2026-04-19T11:00:12Z</time></trkpt><trkpt lat="37.911251832856905" lon="14.116818409434071"><ele>371.0</ele><time>2026-04-19T11:00:13Z</time></trkpt><trkpt lat="37.911240724041335" lon="14.116656058996943"><ele>371.0</ele><time>2026-04-19T11:00:14.001Z</time></trkpt><trkpt lat="37.91127036913831" lon="14.116503620695205"><ele>371.0</ele><time>2026-04-19T11:00:15.001Z</time></trkpt><trkpt lat="37.911323105086396" lon="14.11637184380169"><ele>371.0</ele><time>2026-04-19T11:00:16.001Z</time></trkpt><trkpt lat="37.911381197058645" lon="14.116232469942805"><ele>373.25</ele><time>2026-04-19T11:00:17.001Z</time></trkpt><trkpt lat="37.91143454748797" lon="14.116086444343775"><ele>375.5</ele><time>2026-04-19T11:00:18.001Z</time></trkpt><trkpt lat="37.91150402813875" lon="14.115938906729802"><ele>377.75</ele><time>2026-04-19T11:00:19.001Z</time></trkpt><trkpt lat="37.911572892028616" lon="14.115770312370087"><ele>380.0</ele><time>2026-04-19T11:00:20.001Z</time></trkpt><trkpt lat="37.911623898289776" lon="14.115600104328049"><ele>381.25</ele><time>2026-04-19T11:00:21.001Z</time></trkpt><trkpt lat="37.9116596064077" lon="14.11542722757658"><ele>382.5</ele><time>2026-04-19T11:00:22.001Z</time></trkpt><trkpt lat="37.9116740119297" lon="14.115257090357886"><ele>383.75</ele><time>2026-04-19T11:00:23.001Z</time></trkpt><trkpt lat="37.9116618667824" lon="14.115101951339188"><ele>385.0</ele><time>2026-04-19T11:00:24.001Z</time></trkpt><trkpt lat="37.911618328525805" lon="14.114956316309332"><ele>381.75</ele><time>2026-04-19T11:00:25.001Z</time></trkpt><trkpt lat="37.911546705096555" lon="14.114807916585693"><ele>378.5</ele><time>2026-04-19T11:00:26.001Z</time></trkpt><trkpt lat="37.911493564885795" lon="14.114648544657271"><ele>375.25</ele><time>2026-04-19T11:00:27.001Z</time></trkpt><trkpt lat="37.91142784985891" lon="14.114505867607205"><ele>372.0</ele><time>2026-04-19T11:00:28.001Z</time></trkpt><trkpt lat="37.911354856199395" lon="14.114377238136637"><ele>372.0</ele><time>2026-04-19T11:00:29.001Z</time></trkpt><trkpt lat="37.911287703555956" lon="14.11425023098546"><ele>372.0</ele><time>2026-04-19T11:00:30.001Z</time></trkpt><trkpt lat="37.91119772592187" lon="14.11415390081452"><ele>372.0</ele><time>2026-04-19T11:00:31.001Z</time></trkpt><trkpt lat="37.91108000691314" lon="14.11410829128742"><ele>372.0</ele><time>2026-04-19T11:00:32.001Z</time></trkpt><trkpt lat="37.91096510658978" lon="14.1140925416581"><ele>371.0</ele><time>2026-04-19T11:00:33.001Z</time></trkpt><trkpt lat="37.910864688114245" lon="14.114036035215047"><ele>370.0</ele><time>2026-04-19T11:00:34.001Z</time></trkpt><trkpt lat="37.91076650480326" lon="14.11399112233943"><ele>369.0</ele><time>2026-04-19T11:00:35.001Z</time></trkpt><trkpt lat="37.91067242433601" lon="14.11393196552045"><ele>368.0</ele><time>2026-04-19T11:00:36.001Z</time></trkpt><trkpt lat="37.91059213689522" lon="14.11385546692555"><ele>367.0</ele><time>2026-04-19T11:00:37.001Z</time></trkpt><trkpt lat="37.91051506189578" lon="14.113770878999395"><ele>367.0</ele><time>2026-04-19T11:00:38.001Z</time></trkpt><trkpt lat="37.91043763282285" lon="14.113680780485076"><ele>367.0</ele><time>2026-04-19T11:00:39.001Z</time></trkpt><trkpt lat="37.91035852841732" lon="14.113592478842028"><ele>367.0</ele><time>2026-04-19T11:00:40.001Z</time></trkpt><trkpt lat="37.9102799687741" lon="14.113518525459401"><ele>367.0</ele><time>2026-04-19T11:00:41.001Z</time></trkpt><trkpt lat="37.910247302720606" lon="14.113418272277052"><ele>367.0</ele><time>2026-04-19T11:00:42.001Z</time></trkpt><trkpt lat="37.91022522003378" lon="14.113306621442158"><ele>367.6</ele><time>2026-04-19T11:00:43.001Z</time></trkpt><trkpt lat="37.910323699025135" lon="14.113219972286288"><ele>368.20000000000005</ele><time>2026-04-19T11:00:44.001Z</time></trkpt><trkpt lat="37.91038812942855" lon="14.113143653498947"><ele>368.8</ele><time>2026-04-19T11:00:45.001Z</time></trkpt><trkpt lat="37.91043476423073" lon="14.113034825191342"><ele>369.4</ele><time>2026-04-19T11:00:46.001Z</time></trkpt><trkpt lat="37.91042795651751" lon="14.11290524582945"><ele>370.0</ele><time>2026-04-19T11:00:47.001Z</time></trkpt><trkpt lat="37.91041544210556" lon="14.112763689846618"><ele>370.0</ele><time>2026-04-19T11:00:48.001Z</time></trkpt><trkpt lat="37.91040412532391" lon="14.112633750741587"><ele>370.0</ele><time>2026-04-19T11:00:49.001Z</time></trkpt><trkpt lat="37.91039541112775" lon="14.112523898400527"><ele>370.0</ele><time>2026-04-19T11:00:50.001Z</time></trkpt><trkpt lat="37.91039577494281" lon="14.112416594733117"><ele>370.0</ele><time>2026-04-19T11:00:51.001Z</time></trkpt><trkpt lat="37.910428601891105" lon="14.112345313285365"><ele>370.0</ele><time>2026-04-19T11:00:52.001Z</time></trkpt><trkpt lat="37.91050772112318" lon="14.112340266883361"><ele>370.0</ele><time>2026-04-19T11:00:53.002Z</time></trkpt><trkpt lat="37.91059916460434" lon="14.112377557670735"><ele>370.0</ele><time>2026-04-19T11:00:54.002Z</time></trkpt><trkpt lat="37.91068206999574" lon="14.112423711743757"><ele>370.0</ele><time>2026-04-19T11:00:55.002Z</time></trkpt><trkpt lat="37.91077336353225" lon="14.112466744913531"><ele>370.0</ele><time>2026-04-19T11:00:56.002Z</time></trkpt><trkpt lat="37.91086813801596" lon="14.11249111701262"><ele>370.0</ele><time>2026-04-19T11:00:57.002Z</time></trkpt><trkpt lat="37.910969819326425" lon="14.11246555038034"><ele>370.0</ele><time>2026-04-19T11:00:58.002Z</time></trkpt><trkpt lat="37.91106786717443" lon="14.112395297632412"><ele>368.5</ele><time>2026-04-19T11:00:59.002Z</time></trkpt><trkpt lat="37.911163676922236" lon="14.112308256802017"><ele>367.0</ele><time>2026-04-19T11:01:00.002Z</time></trkpt><trkpt lat="37.911265098617456" lon="14.112225276942397"><ele>365.5</ele><time>2026-04-19T11:01:01.002Z</time></trkpt><trkpt lat="37.91136902222059" lon="14.112143485987216"><ele>364.0</ele><time>2026-04-19T11:01:02.002Z</time></trkpt><trkpt lat="37.9114808980746" lon="14.112060954181159"><ele>364.0</ele><time>2026-04-19T11:01:03.002Z</time></trkpt><trkpt lat="37.91156485525148" lon="14.111982654939988"><ele>364.0</ele><time>2026-04-19T11:01:04.002Z</time></trkpt><trkpt lat="37.911663835020285" lon="14.111898531038962"><ele>364.0</ele><time>2026-04-19T11:01:05.002Z</time></trkpt><trkpt lat="37.911732415757" lon="14.111786624279889"><ele>364.0</ele><time>2026-04-19T11:01:06.002Z</time></trkpt><trkpt lat="37.9117747513085" lon="14.111657380279418"><ele>364.0</ele><time>2026-04-19T11:01:07.002Z</time></trkpt><trkpt lat="37.91173590205945" lon="14.111500437542942"><ele>363.75</ele><time>2026-04-19T11:01:08.002Z</time></trkpt><trkpt lat="37.91168104575725" lon="14.111363255899512"><ele>363.5</ele><time>2026-04-19T11:01:09.002Z</time></trkpt><trkpt lat="37.91163441075103" lon="14.111227290973833"><ele>363.25</ele><time>2026-04-19T11:01:10.002Z</time></trkpt><trkpt lat="37.91157784742544" lon="14.11108268408226"><ele>363.0</ele><time>2026-04-19T11:01:11.002Z</time></trkpt><trkpt lat="37.911541437459206" lon="14.110975223455533"><ele>363.0</ele><time>2026-04-19T11:01:12.002Z</time></trkpt><trkpt lat="37.91152353672378" lon="14.110844368197407"><ele>363.0</ele><time>2026-04-19T11:01:13.002Z</time></trkpt><trkpt lat="37.91154027973035" lon="14.110717058609298"><ele>363.0</ele><time>2026-04-19T11:01:14.002Z</time></trkpt><trkpt lat="37.911592259514386" lon="14.110609127729214"><ele>363.0</ele><time>2026-04-19T11:01:15.002Z</time></trkpt><trkpt lat="37.91166543693139" lon="14.11056605875757"><ele>363.0</ele><time>2026-04-19T11:01:16.002Z</time></trkpt><trkpt lat="37.91175527429599" lon="14.110493458972202"><ele>364.59999999999997</ele><time>2026-04-19T11:01:17.002Z</time></trkpt><trkpt lat="37.91183661769775" lon="14.110437502542359"><ele>366.2</ele><time>2026-04-19T11:01:18.002Z</time></trkpt><trkpt lat="37.911928882328915" lon="14.110420304123851"><ele>367.8</ele><time>2026-04-19T11:01:19.002Z</time></trkpt><trkpt lat="37.91200451817761" lon="14.110486420183573"><ele>369.4</ele><time>2026-04-19T11:01:20.002Z</time></trkpt><trkpt lat="37.912079192453746" lon="14.110582491169534"><ele>371.0</ele><time>2026-04-19T11:01:21.002Z</time></trkpt><trkpt lat="37.91215860145826" lon="14.110646626476331"><ele>371.0</ele><time>2026-04-19T11:01:22.002Z</time></trkpt><trkpt lat="37.912267931009694" lon="14.110676711082627"><ele>371.0</ele><time>2026-04-19T11:01:23.002Z</time></trkpt><trkpt lat="37.91241253086452" lon="14.110659366986985"><ele>371.0</ele><time>2026-04-19T11:01:24.002Z</time></trkpt><trkpt lat="37.91253426991237" lon="14.110611627795356"><ele>371.0</ele><time>2026-04-19T11:01:25.002Z</time></trkpt><trkpt lat="37.912680196140926" lon="14.110584415263947"><ele>367.5</ele><time>2026-04-19T11:01:26.002Z</time></trkpt><trkpt lat="37.91279918406198" lon="14.110557372147225"><ele>364.0</ele><time>2026-04-19T11:01:27.002Z</time></trkpt><trkpt lat="37.9129237770534" lon="14.110509066053726"><ele>360.5</ele><time>2026-04-19T11:01:28.002Z</time></trkpt><trkpt lat="37.913050342102935" lon="14.110418596650165"><ele>357.0</ele><time>2026-04-19T11:01:29.002Z</time></trkpt><trkpt lat="37.913185588624444" lon="14.11031869411974"><ele>357.0</ele><time>2026-04-19T11:01:30.002Z</time></trkpt><trkpt lat="37.91327372870065" lon="14.11023141922978"><ele>357.0</ele><time>2026-04-19T11:01:31.003Z</time></trkpt><trkpt lat="37.91336966455451" lon="14.110131404544648"><ele>357.0</ele><time>2026-04-19T11:01:32.003Z</time></trkpt><trkpt lat="37.91343466289739" lon="14.109998006003648"><ele>357.0</ele><time>2026-04-19T11:01:33.003Z</time></trkpt><trkpt lat="37.91349946658304" lon="14.109861125714826"><ele>355.75</ele><time>2026-04-19T11:01:34.003Z</time></trkpt><trkpt lat="37.91355974667901" lon="14.109724078523112"><ele>354.5</ele><time>2026-04-19T11:01:35.003Z</time></trkpt><trkpt lat="37.913633747627415" lon="14.10961429355762"><ele>353.25</ele><time>2026-04-19T11:01:36.003Z</time></trkpt><trkpt lat="37.913732103138585" lon="14.109538647439633"><ele>352.0</ele><time>2026-04-19T11:01:37.003Z</time></trkpt><trkpt lat="37.91384032645683" lon="14.109459959839226"><ele>352.0</ele><time>2026-04-19T11:01:38.003Z</time></trkpt><trkpt lat="37.913966821120084" lon="14.109395852319553"><ele>352.0</ele><time>2026-04-19T11:01:39.003Z</time></trkpt><trkpt lat="37.91408522727501" lon="14.109322208769088"><ele>352.0</ele><time>2026-04-19T11:01:40.003Z</time></trkpt><trkpt lat="37.9142175764564" lon="14.109244103952353"><ele>352.0</ele><time>2026-04-19T11:01:41.003Z</time></trkpt><trkpt lat="37.91434810282631" lon="14.109183970805901"><ele>353.6</ele><time>2026-04-19T11:01:42.003Z</time></trkpt><trkpt lat="37.91446283591501" lon="14.109116953456542"><ele>355.20000000000005</ele><time>2026-04-19T11:01:43.003Z</time></trkpt><trkpt lat="37.9145668266247" lon="14.10905906002542"><ele>356.8</ele><time>2026-04-19T11:01:44.003Z</time></trkpt><trkpt lat="37.9146529238439" lon="14.109031131584786"><ele>358.4</ele><time>2026-04-19T11:01:45.003Z</time></trkpt><trkpt lat="37.914734261421074" lon="14.109085711912183"><ele>360.0</ele><time>2026-04-19T11:01:46.003Z</time></trkpt><trkpt lat="37.91479467415013" lon="14.109186984939843"><ele>360.0</ele><time>2026-04-19T11:01:47.003Z</time></trkpt><trkpt lat="37.91484021925169" lon="14.109314601421794"><ele>360.0</ele><time>2026-04-19T11:01:48.003Z</time></trkpt><trkpt lat="37.91489197747127" lon="14.10945115056496"><ele>360.0</ele><time>2026-04-19T11:01:49.003Z</time></trkpt><trkpt lat="37.91495444960147" lon="14.109600766658636"><ele>360.0</ele><time>2026-04-19T11:01:50.003Z</time></trkpt><trkpt lat="37.9150254310511" lon="14.109756375561535"><ele>362.0</ele><time>2026-04-19T11:01:51.003Z</time></trkpt><trkpt lat="37.91508570904759" lon="14.109905358100775"><ele>364.0</ele><time>2026-04-19T11:01:52.003Z</time></trkpt><trkpt lat="37.915141021275836" lon="14.11004504082814"><ele>366.0</ele><time>2026-04-19T11:01:53.003Z</time></trkpt><trkpt lat="37.91521224449381" lon="14.110166048148159"><ele>368.0</ele><time>2026-04-19T11:01:54.003Z</time></trkpt><trkpt lat="37.9153109607862" lon="14.110253191679558"><ele>363.25</ele><time>2026-04-19T11:01:55Z</time></trkpt><trkpt lat="37.915427065441506" lon="14.110292836618699"><ele>358.5</ele><time>2026-04-19T11:01:56Z</time></trkpt><trkpt lat="37.91555247088545" lon="14.11028996799708"><ele>353.75</ele><time>2026-04-19T11:01:57Z</time></trkpt><trkpt lat="37.91568041243622" lon="14.110276826787597"><ele>349.0</ele><time>2026-04-19T11:01:58Z</time></trkpt><trkpt lat="37.915803800145035" lon="14.11028500757455"><ele>345.25</ele><time>2026-04-19T11:01:59Z</time></trkpt><trkpt lat="37.91592771218843" lon="14.11027302178648"><ele>341.5</ele><time>2026-04-19T11:02:00Z</time></trkpt><trkpt lat="37.91604872155393" lon="14.110220556498069"><ele>337.75</ele><time>2026-04-19T11:02:01Z</time></trkpt><trkpt lat="37.91615723043985" lon="14.11013009761219"><ele>334.0</ele><time>2026-04-19T11:02:02Z</time></trkpt><trkpt lat="37.916265542829976" lon="14.110045778147324"><ele>334.0</ele><time>2026-04-19T11:02:03Z</time></trkpt><trkpt lat="37.91637496946492" lon="14.109936389027657"><ele>334.0</ele><time>2026-04-19T11:02:04Z</time></trkpt><trkpt lat="37.91652029862758" lon="14.10985749303844"><ele>334.0</ele><time>2026-04-19T11:02:05Z</time></trkpt><trkpt lat="37.916667805208625" lon="14.109773956019643"><ele>338.0</ele><time>2026-04-19T11:02:06Z</time></trkpt><trkpt lat="37.916809727704674" lon="14.109693251354281"><ele>342.0</ele><time>2026-04-19T11:02:07Z</time></trkpt><trkpt lat="37.91695381164354" lon="14.109610910535046"><ele>346.0</ele><time>2026-04-19T11:02:08Z</time></trkpt><trkpt lat="37.91709849982329" lon="14.109552641547975"><ele>346.0</ele><time>2026-04-19T11:02:09Z</time></trkpt><trkpt lat="37.91723376511929" lon="14.109477252581819"><ele>346.0</ele><time>2026-04-19T11:02:10Z</time></trkpt><trkpt lat="37.91736161735638" lon="14.109408984552982"><ele>346.0</ele><time>2026-04-19T11:02:11Z</time></trkpt><trkpt lat="37.917487102022925" lon="14.109369618161157"><ele>346.0</ele><time>2026-04-19T11:02:12Z</time></trkpt><trkpt lat="37.91760394855444" lon="14.10941176652069"><ele>348.25</ele><time>2026-04-19T11:02:13Z</time></trkpt><trkpt lat="37.91772569345511" lon="14.10945475114271"><ele>350.5</ele><time>2026-04-19T11:02:14Z</time></trkpt><trkpt lat="37.91786224601745" lon="14.1094897604269"><ele>352.75</ele><time>2026-04-19T11:02:15Z</time></trkpt><trkpt lat="37.91800042720472" lon="14.10954831854729"><ele>355.0</ele><time>2026-04-19T11:02:16Z</time></trkpt><trkpt lat="37.91814318204959" lon="14.109594686080914"><ele>355.0</ele><time>2026-04-19T11:02:17Z</time></trkpt><trkpt lat="37.91828594714913" lon="14.109642066100607"><ele>355.0</ele><time>2026-04-19T11:02:18Z</time></trkpt><trkpt lat="37.91841359841522" lon="14.109685036157826"><ele>355.0</ele><time>2026-04-19T11:02:19.001Z</time></trkpt><trkpt lat="37.918537775462624" lon="14.109726199827689"><ele>355.0</ele><time>2026-04-19T11:02:20.001Z</time></trkpt><trkpt lat="37.91866540715819" lon="14.109755372164507"><ele>350.5</ele><time>2026-04-19T11:02:21.001Z</time></trkpt><trkpt lat="37.91879660695527" lon="14.109793997576196"><ele>346.0</ele><time>2026-04-19T11:02:22.001Z</time></trkpt><trkpt lat="37.91891906224915" lon="14.109819553581712"><ele>341.5</ele><time>2026-04-19T11:02:23.001Z</time></trkpt><trkpt lat="37.91904294460889" lon="14.109831727731066"><ele>337.0</ele><time>2026-04-19T11:02:24.001Z</time></trkpt><trkpt lat="37.91915418774718" lon="14.109822713215408"><ele>333.16666666666663</ele><time>2026-04-19T11:02:25.001Z</time></trkpt><trkpt lat="37.919239962870144" lon="14.109799508919664"><ele>329.3333333333333</ele><time>2026-04-19T11:02:26.001Z</time></trkpt><trkpt lat="37.91929935242305" lon="14.109717406002884"><ele>325.5</ele><time>2026-04-19T11:02:27.001Z</time></trkpt><trkpt lat="37.919327125987955" lon="14.109606968540167"><ele>321.6666666666667</ele><time>2026-04-19T11:02:28.001Z</time></trkpt><trkpt lat="37.91935294216757" lon="14.109507129617699"><ele>317.83333333333337</ele><time>2026-04-19T11:02:29.001Z</time></trkpt><trkpt lat="37.91939040630331" lon="14.109419642453478"><ele>314.0</ele><time>2026-04-19T11:02:30.001Z</time></trkpt><trkpt lat="37.91942766770532" lon="14.109340206867829"><ele>313.99999999999994</ele><time>2026-04-19T11:02:31.001Z</time></trkpt><trkpt lat="37.9194690825304" lon="14.109249626214032"><ele>314.0</ele><time>2026-04-19T11:02:32.001Z</time></trkpt><trkpt lat="37.919496737618125" lon="14.10916539103828"><ele>314.0</ele><time>2026-04-19T11:02:33.001Z</time></trkpt><trkpt lat="37.919517151210044" lon="14.109088595559568"><ele>314.0</ele><time>2026-04-19T11:02:34.001Z</time></trkpt><trkpt lat="37.91953229334269" lon="14.108998906771783"><ele>314.0</ele><time>2026-04-19T11:02:35.001Z</time></trkpt><trkpt lat="37.919520637758254" lon="14.108915206573096"><ele>313.99999999999994</ele><time>2026-04-19T11:02:36.001Z</time></trkpt><trkpt lat="37.919493926459786" lon="14.108838957014678"><ele>314.0</ele><time>2026-04-19T11:02:37.001Z</time></trkpt><trkpt lat="37.91946998000027" lon="14.108698982940199"><ele>315.0</ele><time>2026-04-19T11:02:39.001Z</time></trkpt><trkpt lat="37.91946833645215" lon="14.108553636890832"><ele>316.0</ele><time>2026-04-19T11:02:41.001Z</time></trkpt><trkpt lat="37.91951485545813" lon="14.108417217045822"><ele>317.0</ele><time>2026-04-19T11:02:43.001Z</time></trkpt><trkpt lat="37.91954423623259" lon="14.10827312278292"><ele>318.0</ele><time>2026-04-19T11:02:45.001Z</time></trkpt><trkpt lat="37.91958222137316" lon="14.108127964163685"><ele>318.4</ele><time>2026-04-19T11:02:47.001Z</time></trkpt><trkpt lat="37.91960010854723" lon="14.10798461745227"><ele>318.8</ele><time>2026-04-19T11:02:49.001Z</time></trkpt><trkpt lat="37.919586153197194" lon="14.107847143916063"><ele>319.2</ele><time>2026-04-19T11:02:51.001Z</time></trkpt><trkpt lat="37.91954563249791" lon="14.107707065587334"><ele>319.6</ele><time>2026-04-19T11:02:53.001Z</time></trkpt><trkpt lat="37.91949748369823" lon="14.107590707124976"><ele>320.0</ele><time>2026-04-19T11:02:55.001Z</time></trkpt><trkpt lat="37.9194651904158" lon="14.107497939028491"><ele>322.0</ele><time>2026-04-19T11:03:12.002Z</time></trkpt><trkpt lat="37.91941478451038" lon="14.107381685583325"><ele>324.0</ele><time>2026-04-19T11:03:14.002Z</time></trkpt><trkpt lat="37.9193955803985" lon="14.107300032523503"><ele>326.0</ele><time>2026-04-19T11:03:15.002Z</time></trkpt><trkpt lat="37.91936414024251" lon="14.107218394805118"><ele>328.0</ele><time>2026-04-19T11:03:16.002Z</time></trkpt><trkpt lat="37.919334915757666" lon="14.107125275062872"><ele>330.0</ele><time>2026-04-19T11:03:17.002Z</time></trkpt><trkpt lat="37.919335699248016" lon="14.107022933448901"><ele>332.0</ele><time>2026-04-19T11:03:18.002Z</time></trkpt><trkpt lat="37.91938171965875" lon="14.106927312499753"><ele>332.0</ele><time>2026-04-19T11:03:19.002Z</time></trkpt><trkpt lat="37.919435103662416" lon="14.106848177560021"><ele>332.0</ele><time>2026-04-19T11:03:20.002Z</time></trkpt><trkpt lat="37.91952704503458" lon="14.106784099410401"><ele>332.0</ele><time>2026-04-19T11:03:21.002Z</time></trkpt><trkpt lat="37.919625336182456" lon="14.106770927249062"><ele>332.0</ele><time>2026-04-19T11:03:22.002Z</time></trkpt><trkpt lat="37.919722427536875" lon="14.106798510922404"><ele>332.0</ele><time>2026-04-19T11:03:23.002Z</time></trkpt><trkpt lat="37.919810025298005" lon="14.106848994102814"><ele>332.0</ele><time>2026-04-19T11:03:24.002Z</time></trkpt><trkpt lat="37.91989457037923" lon="14.106906738210775"><ele>332.0</ele><time>2026-04-19T11:03:25.002Z</time></trkpt><trkpt lat="37.91998366088076" lon="14.106955231342514"><ele>332.0</ele><time>2026-04-19T11:03:26.002Z</time></trkpt><trkpt lat="37.92007642998004" lon="14.106996660682322"><ele>332.0</ele><time>2026-04-19T11:03:27.002Z</time></trkpt><trkpt lat="37.92017943573656" lon="14.107005042537477"><ele>332.0</ele><time>2026-04-19T11:03:28.002Z</time></trkpt><trkpt lat="37.920297471488006" lon="14.106976426356281"><ele>332.5</ele><time>2026-04-19T11:03:29.002Z</time></trkpt><trkpt lat="37.92042479035303" lon="14.106935549303943"><ele>333.0</ele><time>2026-04-19T11:03:30.002Z</time></trkpt><trkpt lat="37.92056271700571" lon="14.1068952936964"><ele>333.5</ele><time>2026-04-19T11:03:31.002Z</time></trkpt><trkpt lat="37.92071548377524" lon="14.10685277309529"><ele>334.0</ele><time>2026-04-19T11:03:32.002Z</time></trkpt><trkpt lat="37.92086712529113" lon="14.10680869299564"><ele>333.75</ele><time>2026-04-19T11:03:33.002Z</time></trkpt><trkpt lat="37.921009049805896" lon="14.106769693529653"><ele>333.5</ele><time>2026-04-19T11:03:34.002Z</time></trkpt><trkpt lat="37.92115438362172" lon="14.106732758279684"><ele>333.25</ele><time>2026-04-19T11:03:35.003Z</time></trkpt><trkpt lat="37.92130337746729" lon="14.106693820462366"><ele>333.0</ele><time>2026-04-19T11:03:36.003Z</time></trkpt><trkpt lat="37.921450283214114" lon="14.106651048016765"><ele>333.0</ele><time>2026-04-19T11:03:37.003Z</time></trkpt><trkpt lat="37.92159595272173" lon="14.106610027409504"><ele>333.0</ele><time>2026-04-19T11:03:38.003Z</time></trkpt><trkpt lat="37.92174007557195" lon="14.106571831785743"><ele>333.0</ele><time>2026-04-19T11:03:39.003Z</time></trkpt><trkpt lat="37.92188290232698" lon="14.106528547959119"><ele>333.0</ele><time>2026-04-19T11:03:40.003Z</time></trkpt><trkpt lat="37.92202117954962" lon="14.106474458904405"><ele>333.0</ele><time>2026-04-19T11:03:41.003Z</time></trkpt><trkpt lat="37.92213811600397" lon="14.106393302714563"><ele>333.0</ele><time>2026-04-19T11:03:42.003Z</time></trkpt><trkpt lat="37.92222509879198" lon="14.106273992340464"><ele>333.0</ele><time>2026-04-19T11:03:43.003Z</time></trkpt><trkpt lat="37.92226982079136" lon="14.106121756775345"><ele>333.0</ele><time>2026-04-19T11:03:44.003Z</time></trkpt><trkpt lat="37.92229996615498" lon="14.105949316015876"><ele>333.0</ele><time>2026-04-19T11:03:45.003Z</time></trkpt><trkpt lat="37.92234441604331" lon="14.105768665504756"><ele>333.0</ele><time>2026-04-19T11:03:46.003Z</time></trkpt><trkpt lat="37.922388590149914" lon="14.10560336078733"><ele>333.0</ele><time>2026-04-19T11:03:47.003Z</time></trkpt><trkpt lat="37.92242254025447" lon="14.105413166699574"><ele>333.0</ele><time>2026-04-19T11:03:48.003Z</time></trkpt><trkpt lat="37.92247187363313" lon="14.105234964936875"><ele>332.3333333333333</ele><time>2026-04-19T11:03:49.003Z</time></trkpt><trkpt lat="37.9225228990337" lon="14.10504285029592"><ele>331.66666666666663</ele><time>2026-04-19T11:03:50.003Z</time></trkpt><trkpt lat="37.92257637331772" lon="14.104857602087886"><ele>331.0</ele><time>2026-04-19T11:03:51.003Z</time></trkpt><trkpt lat="37.922630263162716" lon="14.104678245626154"><ele>331.0</ele><time>2026-04-19T11:03:52.003Z</time></trkpt><trkpt lat="37.92266576079309" lon="14.104506219367865"><ele>331.0</ele><time>2026-04-19T11:03:53.003Z</time></trkpt><trkpt lat="37.92270106241905" lon="14.104339096565392"><ele>331.0</ele><time>2026-04-19T11:03:54.003Z</time></trkpt><trkpt lat="37.922699089876396" lon="14.10416109234213"><ele>331.0</ele><time>2026-04-19T11:03:55.003Z</time></trkpt><trkpt lat="37.92267047634336" lon="14.103981887208526"><ele>332.5</ele><time>2026-04-19T11:03:56.003Z</time></trkpt><trkpt lat="37.92265811874672" lon="14.103802196168575"><ele>334.0</ele><time>2026-04-19T11:03:57.003Z</time></trkpt><trkpt lat="37.9226344443233" lon="14.103625420596689"><ele>335.5</ele><time>2026-04-19T11:03:58.003Z</time></trkpt><trkpt lat="37.922571313212266" lon="14.10346316261138"><ele>337.0</ele><time>2026-04-19T11:03:59.003Z</time></trkpt><trkpt lat="37.922503382267685" lon="14.103309501864688"><ele>339.25</ele><time>2026-04-19T11:04:00.003Z</time></trkpt><trkpt lat="37.92244050962645" lon="14.103153345173208"><ele>341.5</ele><time>2026-04-19T11:04:01Z</time></trkpt><trkpt lat="37.92243344281348" lon="14.102976401563753"><ele>343.75</ele><time>2026-04-19T11:04:02Z</time></trkpt><trkpt lat="37.92242330475899" lon="14.102791685000684"><ele>346.0</ele><time>2026-04-19T11:04:03Z</time></trkpt><trkpt lat="37.92241371407577" lon="14.102611137358775"><ele>346.0</ele><time>2026-04-19T11:04:04Z</time></trkpt><trkpt lat="37.92240447836763" lon="14.102434877700318"><ele>346.0</ele><time>2026-04-19T11:04:05Z</time></trkpt><trkpt lat="37.92239489432654" lon="14.102271319068427"><ele>346.0</ele><time>2026-04-19T11:04:06Z</time></trkpt><trkpt lat="37.92238663578396" lon="14.102124710161606"><ele>346.0</ele><time>2026-04-19T11:04:07Z</time></trkpt><trkpt lat="37.92238900413297" lon="14.10199720486547"><ele>346.6</ele><time>2026-04-19T11:04:08Z</time></trkpt><trkpt lat="37.92243129966114" lon="14.101903374143596"><ele>347.20000000000005</ele><time>2026-04-19T11:04:09Z</time></trkpt><trkpt lat="37.92253155487715" lon="14.101866724385014"><ele>347.79999999999995</ele><time>2026-04-19T11:04:10Z</time></trkpt><trkpt lat="37.92261535621768" lon="14.10179262958823"><ele>348.4</ele><time>2026-04-19T11:04:11Z</time></trkpt><trkpt lat="37.92268177787867" lon="14.101703486312301"><ele>349.0</ele><time>2026-04-19T11:04:12Z</time></trkpt><trkpt lat="37.922730343451235" lon="14.101574669688738"><ele>351.25</ele><time>2026-04-19T11:04:13Z</time></trkpt><trkpt lat="37.9227651832651" lon="14.101440945464347"><ele>353.5</ele><time>2026-04-19T11:04:14Z</time></trkpt><trkpt lat="37.922787652291966" lon="14.10130076598725"><ele>355.75</ele><time>2026-04-19T11:04:15Z</time></trkpt><trkpt lat="37.922796228056804" lon="14.101157551536065"><ele>358.0</ele><time>2026-04-19T11:04:16Z</time></trkpt><trkpt lat="37.92279068959672" lon="14.100999468373377"><ele>358.0</ele><time>2026-04-19T11:04:17Z</time></trkpt><trkpt lat="37.92278562814044" lon="14.100855977056659"><ele>358.0</ele><time>2026-04-19T11:04:18Z</time></trkpt><trkpt lat="37.92278456232383" lon="14.100720070808157"><ele>358.0</ele><time>2026-04-19T11:04:19Z</time></trkpt><trkpt lat="37.92278477301585" lon="14.100596215150462"><ele>358.0</ele><time>2026-04-19T11:04:20Z</time></trkpt><trkpt lat="37.92277872845318" lon="14.100484529539605"><ele>358.0</ele><time>2026-04-19T11:04:21.001Z</time></trkpt><trkpt lat="37.92277747262122" lon="14.100391799264866"><ele>359.79999999999995</ele><time>2026-04-19T11:04:22.001Z</time></trkpt><trkpt lat="37.92277700999303" lon="14.100270267404774"><ele>361.6</ele><time>2026-04-19T11:04:24.001Z</time></trkpt><trkpt lat="37.92277878236553" lon="14.100171761710639"><ele>363.4</ele><time>2026-04-19T11:04:27.001Z</time></trkpt><trkpt lat="37.92278717624601" lon="14.100082855193213"><ele>365.20000000000005</ele><time>2026-04-19T11:04:30.001Z</time></trkpt><trkpt lat="37.92284575237718" lon="14.099989850710301"><ele>367.0</ele><time>2026-04-19T11:04:32.001Z</time></trkpt><trkpt lat="37.922983505111915" lon="14.099979017516935"><ele>367.0</ele><time>2026-04-19T11:04:34.001Z</time></trkpt><trkpt lat="37.92305177907669" lon="14.100002375858901"><ele>367.0</ele><time>2026-04-19T11:04:35.001Z</time></trkpt><trkpt lat="37.923115885769384" lon="14.100064685941911"><ele>367.0</ele><time>2026-04-19T11:04:36.001Z</time></trkpt><trkpt lat="37.92315499575507" lon="14.100159176575461"><ele>367.0</ele><time>2026-04-19T11:04:37.001Z</time></trkpt><trkpt lat="37.92319156339802" lon="14.100267043891646"><ele>367.0</ele><time>2026-04-19T11:04:38.001Z</time></trkpt><trkpt lat="37.92324142786333" lon="14.100368931884997"><ele>367.0</ele><time>2026-04-19T11:04:39.001Z</time></trkpt><trkpt lat="37.923288719233504" lon="14.100474666055183"><ele>367.0</ele><time>2026-04-19T11:04:40.001Z</time></trkpt><trkpt lat="37.923344210532136" lon="14.100576021291621"><ele>367.0</ele><time>2026-04-19T11:04:41.001Z</time></trkpt><trkpt lat="37.92342713482098" lon="14.100651386678477"><ele>367.0</ele><time>2026-04-19T11:04:42.001Z</time></trkpt><trkpt lat="37.92353442902387" lon="14.100725017102326"><ele>367.0</ele><time>2026-04-19T11:04:43.001Z</time></trkpt><trkpt lat="37.923643618399474" lon="14.100798218771711"><ele>367.0</ele><time>2026-04-19T11:04:44.001Z</time></trkpt><trkpt lat="37.92374355943299" lon="14.100863329138939"><ele>367.75</ele><time>2026-04-19T11:04:45.001Z</time></trkpt><trkpt lat="37.92384780090422" lon="14.1009331657076"><ele>368.5</ele><time>2026-04-19T11:04:46.001Z</time></trkpt><trkpt lat="37.9239540857088" lon="14.10100289239008"><ele>369.25</ele><time>2026-04-19T11:04:47.001Z</time></trkpt><trkpt lat="37.92406105001461" lon="14.101073505253957"><ele>370.0</ele><time>2026-04-19T11:04:48.001Z</time></trkpt><trkpt lat="37.92416941161645" lon="14.101145134853386"><ele>372.5</ele><time>2026-04-19T11:04:49.001Z</time></trkpt><trkpt lat="37.92427464020832" lon="14.101214607570245"><ele>375.0</ele><time>2026-04-19T11:04:50.001Z</time></trkpt><trkpt lat="37.92437980083953" lon="14.101290558137501"><ele>377.5</ele><time>2026-04-19T11:04:51.001Z</time></trkpt><trkpt lat="37.92449421198411" lon="14.101361717694711"><ele>380.0</ele><time>2026-04-19T11:04:52.001Z</time></trkpt><trkpt lat="37.9246035192099" lon="14.101433879093019"><ele>380.0</ele><time>2026-04-19T11:04:53.001Z</time></trkpt><trkpt lat="37.924709699584014" lon="14.10151093004646"><ele>380.0</ele><time>2026-04-19T11:04:54.001Z</time></trkpt><trkpt lat="37.92480868542069" lon="14.101591266486638"><ele>380.0</ele><time>2026-04-19T11:04:55.001Z</time></trkpt><trkpt lat="37.92488960694748" lon="14.101694219720404"><ele>380.0</ele><time>2026-04-19T11:04:56.001Z</time></trkpt><trkpt lat="37.92494365819199" lon="14.10181730763089"><ele>377.6</ele><time>2026-04-19T11:04:57.002Z</time></trkpt><trkpt lat="37.92497817612786" lon="14.101959118194818"><ele>375.2</ele><time>2026-04-19T11:04:58.002Z</time></trkpt><trkpt lat="37.92500251425706" lon="14.102096270633327"><ele>372.79999999999995</ele><time>2026-04-19T11:04:59.002Z</time></trkpt><trkpt lat="37.92503829106211" lon="14.102215012991495"><ele>370.4</ele><time>2026-04-19T11:05:00.002Z</time></trkpt><trkpt lat="37.92508782968493" lon="14.10231518248428"><ele>368.0</ele><time>2026-04-19T11:05:01.002Z</time></trkpt><trkpt lat="37.925156712386745" lon="14.10238325770664"><ele>367.59999999999997</ele><time>2026-04-19T11:05:02.002Z</time></trkpt><trkpt lat="37.92522856254166" lon="14.102405538496445"><ele>367.2</ele><time>2026-04-19T11:05:03.002Z</time></trkpt><trkpt lat="37.92532302134633" lon="14.10235915674491"><ele>366.8</ele><time>2026-04-19T11:05:05.002Z</time></trkpt><trkpt lat="37.92539145052019" lon="14.102331844072523"><ele>366.4</ele><time>2026-04-19T11:05:07.002Z</time></trkpt><trkpt lat="37.92543382738017" lon="14.102266228225272"><ele>366.0</ele><time>2026-04-19T11:07:23.001Z</time></trkpt><trkpt lat="37.925527543943254" lon="14.10214079656786"><ele>366.0</ele><time>2026-04-19T11:07:25.001Z</time></trkpt><trkpt lat="37.92555992352034" lon="14.102051117342496"><ele>366.0</ele><time>2026-04-19T11:07:26.001Z</time></trkpt><trkpt lat="37.92557514843272" lon="14.101931766181877"><ele>366.0</ele><time>2026-04-19T11:07:27.001Z</time></trkpt><trkpt lat="37.92559262920132" lon="14.101802898620944"><ele>366.0</ele><time>2026-04-19T11:07:28.001Z</time></trkpt><trkpt lat="37.925609621245826" lon="14.101665339727898"><ele>366.0</ele><time>2026-04-19T11:07:29.001Z</time></trkpt><trkpt lat="37.92564721131352" lon="14.101510177208477"><ele>366.75</ele><time>2026-04-19T11:07:30.001Z</time></trkpt><trkpt lat="37.92565749975613" lon="14.10135147488548"><ele>367.5</ele><time>2026-04-19T11:07:31.001Z</time></trkpt><trkpt lat="37.925695451303405" lon="14.101196870699033"><ele>368.25</ele><time>2026-04-19T11:07:32.001Z</time></trkpt><trkpt lat="37.925720417789236" lon="14.101027917063693"><ele>369.0</ele><time>2026-04-19T11:07:33.001Z</time></trkpt><trkpt lat="37.925734678812155" lon="14.100848693939428"><ele>369.6666666666667</ele><time>2026-04-19T11:07:34.001Z</time></trkpt><trkpt lat="37.92573566086272" lon="14.100655293553212"><ele>370.33333333333337</ele><time>2026-04-19T11:07:35.002Z</time></trkpt><trkpt lat="37.9257279437795" lon="14.100458459905486"><ele>371.0</ele><time>2026-04-19T11:07:36.002Z</time></trkpt><trkpt lat="37.92572077307867" lon="14.100274767019123"><ele>371.0</ele><time>2026-04-19T11:07:37.002Z</time></trkpt><trkpt lat="37.92571398202446" lon="14.100099066128097"><ele>371.0</ele><time>2026-04-19T11:07:38.002Z</time></trkpt><trkpt lat="37.92567958857223" lon="14.099933898105801"><ele>371.0</ele><time>2026-04-19T11:07:39.002Z</time></trkpt><trkpt lat="37.92566220609782" lon="14.099767289966776"><ele>371.0</ele><time>2026-04-19T11:07:40.002Z</time></trkpt><trkpt lat="37.92561184539219" lon="14.099606716582256"><ele>372.0</ele><time>2026-04-19T11:07:41.002Z</time></trkpt><trkpt lat="37.9255670709142" lon="14.099473589342761"><ele>373.0</ele><time>2026-04-19T11:07:42.002Z</time></trkpt><trkpt lat="37.92553413980781" lon="14.099345898614397"><ele>374.0</ele><time>2026-04-19T11:07:43.002Z</time></trkpt><trkpt lat="37.92554277780615" lon="14.09920648829744"><ele>375.0</ele><time>2026-04-19T11:07:44.002Z</time></trkpt><trkpt lat="37.92560211409694" lon="14.099079496519707"><ele>376.0</ele><time>2026-04-19T11:07:45.002Z</time></trkpt><trkpt lat="37.925643681117954" lon="14.098935423628365"><ele>378.75</ele><time>2026-04-19T11:07:46.002Z</time></trkpt><trkpt lat="37.92569876770489" lon="14.098803077294143"><ele>381.5</ele><time>2026-04-19T11:07:47.002Z</time></trkpt><trkpt lat="37.92575166260773" lon="14.098670466931255"><ele>384.25</ele><time>2026-04-19T11:07:48.002Z</time></trkpt><trkpt lat="37.925815747351216" lon="14.098556565795477"><ele>387.0</ele><time>2026-04-19T11:07:49.002Z</time></trkpt><trkpt lat="37.92586526405156" lon="14.098430871024007"><ele>382.5</ele><time>2026-04-19T11:07:50.002Z</time></trkpt><trkpt lat="37.92591002941033" lon="14.098292758113978"><ele>378.0</ele><time>2026-04-19T11:07:51.002Z</time></trkpt><trkpt lat="37.92593868876479" lon="14.098134033939406"><ele>373.5</ele><time>2026-04-19T11:07:52.002Z</time></trkpt><trkpt lat="37.925957858637325" lon="14.09797497413725"><ele>369.0</ele><time>2026-04-19T11:07:53.002Z</time></trkpt><trkpt lat="37.92597591269961" lon="14.097824385862923"><ele>370.4</ele><time>2026-04-19T11:07:54.002Z</time></trkpt><trkpt lat="37.925967790414404" lon="14.097683005093494"><ele>371.79999999999995</ele><time>2026-04-19T11:07:55.002Z</time></trkpt><trkpt lat="37.925955904577236" lon="14.097552398101168"><ele>373.20000000000005</ele><time>2026-04-19T11:07:56.002Z</time></trkpt><trkpt lat="37.92591212367486" lon="14.097438450968413"><ele>374.6</ele><time>2026-04-19T11:07:57.002Z</time></trkpt><trkpt lat="37.925861229793306" lon="14.097331031483517"><ele>376.0</ele><time>2026-04-19T11:07:58.002Z</time></trkpt><trkpt lat="37.92576746225151" lon="14.09728417680512"><ele>376.0</ele><time>2026-04-19T11:07:59.002Z</time></trkpt><trkpt lat="37.92567232971608" lon="14.097265934974638"><ele>376.0</ele><time>2026-04-19T11:08:00.002Z</time></trkpt><trkpt lat="37.92557463135839" lon="14.097270986307798"><ele>376.0</ele><time>2026-04-19T11:08:01.002Z</time></trkpt><trkpt lat="37.925485400830155" lon="14.097246683772454"><ele>376.0</ele><time>2026-04-19T11:08:02.002Z</time></trkpt><trkpt lat="37.92542433034015" lon="14.097161791635331"><ele>376.0</ele><time>2026-04-19T11:08:03.002Z</time></trkpt><trkpt lat="37.92534360359611" lon="14.09709481931957"><ele>376.0</ele><time>2026-04-19T11:08:04.002Z</time></trkpt><trkpt lat="37.92528489721801" lon="14.096999287783706"><ele>376.0</ele><time>2026-04-19T11:08:05.002Z</time></trkpt><trkpt lat="37.92521766550809" lon="14.096918368050401"><ele>376.0</ele><time>2026-04-19T11:08:06.002Z</time></trkpt><trkpt lat="37.92515092999409" lon="14.096833671602713"><ele>376.0</ele><time>2026-04-19T11:08:07.002Z</time></trkpt><trkpt lat="37.92508331033363" lon="14.096754409600164"><ele>376.0</ele><time>2026-04-19T11:08:08.002Z</time></trkpt><trkpt lat="37.925061838365686" lon="14.096637306432003"><ele>379.0</ele><time>2026-04-19T11:08:09.002Z</time></trkpt><trkpt lat="37.92506539304915" lon="14.096508553021588"><ele>382.0</ele><time>2026-04-19T11:08:10.002Z</time></trkpt><trkpt lat="37.92511886711745" lon="14.096387809959436"><ele>385.0</ele><time>2026-04-19T11:08:11.002Z</time></trkpt><trkpt lat="37.92514214569519" lon="14.096259666164148"><ele>388.0</ele><time>2026-04-19T11:08:12.003Z</time></trkpt><trkpt lat="37.92519640472909" lon="14.096147862751753"><ele>391.0</ele><time>2026-04-19T11:08:13Z</time></trkpt><trkpt lat="37.92527190007011" lon="14.09605518418133"><ele>391.0</ele><time>2026-04-19T11:08:14Z</time></trkpt><trkpt lat="37.92536915257808" lon="14.095995876431996"><ele>391.0</ele><time>2026-04-19T11:08:15Z</time></trkpt><trkpt lat="37.92546805274691" lon="14.095945261862257"><ele>391.0</ele><time>2026-04-19T11:08:16Z</time></trkpt><trkpt lat="37.92556293714528" lon="14.09589615162431"><ele>391.0</ele><time>2026-04-19T11:08:17Z</time></trkpt><trkpt lat="37.92564865158749" lon="14.095840074754497"><ele>391.0</ele><time>2026-04-19T11:08:18Z</time></trkpt><trkpt lat="37.92571753289107" lon="14.095769118058028"><ele>391.0</ele><time>2026-04-19T11:08:19Z</time></trkpt><trkpt lat="37.92576109654776" lon="14.095674134375459"><ele>391.0</ele><time>2026-04-19T11:08:20Z</time></trkpt><trkpt lat="37.92577632115407" lon="14.09555125426532"><ele>391.0</ele><time>2026-04-19T11:08:21Z</time></trkpt><trkpt lat="37.92573399928105" lon="14.09538892601461"><ele>391.0</ele><time>2026-04-19T11:08:22Z</time></trkpt><trkpt lat="37.925679610189015" lon="14.095208126780797"><ele>391.0</ele><time>2026-04-19T11:08:23Z</time></trkpt><trkpt lat="37.92561666199519" lon="14.09505409539793"><ele>391.0</ele><time>2026-04-19T11:08:24Z</time></trkpt><trkpt lat="37.925521176558995" lon="14.09493924745879"><ele>391.0</ele><time>2026-04-19T11:08:25Z</time></trkpt><trkpt lat="37.92542020144994" lon="14.09481594672878"><ele>391.0</ele><time>2026-04-19T11:08:25.999Z</time></trkpt><trkpt lat="37.925302831204824" lon="14.094725554470084"><ele>391.20000000000005</ele><time>2026-04-19T11:08:27Z</time></trkpt><trkpt lat="37.92521490674101" lon="14.094611317613783"><ele>391.40000000000003</ele><time>2026-04-19T11:08:28Z</time></trkpt><trkpt lat="37.925128720593" lon="14.094515651331458"><ele>391.6</ele><time>2026-04-19T11:08:29Z</time></trkpt><trkpt lat="37.925069199145675" lon="14.094426480058722"><ele>391.8</ele><time>2026-04-19T11:08:30Z</time></trkpt><trkpt lat="37.925037098638235" lon="14.094345034269635"><ele>392.0</ele><time>2026-04-19T11:08:31Z</time></trkpt><trkpt lat="37.92506004508802" lon="14.094266388365392"><ele>391.99999999999994</ele><time>2026-04-19T11:08:32Z</time></trkpt><trkpt lat="37.92510495593401" lon="14.094208713558697"><ele>392.0</ele><time>2026-04-19T11:08:33Z</time></trkpt><trkpt lat="37.92517121089195" lon="14.094183685750423"><ele>392.0</ele><time>2026-04-19T11:08:34Z</time></trkpt><trkpt lat="37.92523961330052" lon="14.094186585414022"><ele>392.0</ele><time>2026-04-19T11:08:35Z</time></trkpt><trkpt lat="37.92533206186486" lon="14.094147022166835"><ele>391.99999999999994</ele><time>2026-04-19T11:08:36Z</time></trkpt><trkpt lat="37.925402027483024" lon="14.094150745365658"><ele>392.0</ele><time>2026-04-19T11:08:37Z</time></trkpt><trkpt lat="37.92548961739425" lon="14.094135004845091"><ele>394.75</ele><time>2026-04-19T11:08:38Z</time></trkpt><trkpt lat="37.92561620507294" lon="14.094012737529276"><ele>397.5</ele><time>2026-04-19T11:08:40Z</time></trkpt><trkpt lat="37.9256891863089" lon="14.093928059234914"><ele>400.25</ele><time>2026-04-19T11:08:41Z</time></trkpt><trkpt lat="37.9257274258022" lon="14.093813784309779"><ele>403.0</ele><time>2026-04-19T11:08:42Z</time></trkpt><trkpt lat="37.925745917259064" lon="14.093665778393554"><ele>403.0</ele><time>2026-04-19T11:08:43Z</time></trkpt><trkpt lat="37.925768354579745" lon="14.093534008770547"><ele>403.0</ele><time>2026-04-19T11:08:44Z</time></trkpt><trkpt lat="37.92579408687206" lon="14.093393164902208"><ele>403.0</ele><time>2026-04-19T11:08:45Z</time></trkpt><trkpt lat="37.92581983792149" lon="14.09325723229241"><ele>403.0</ele><time>2026-04-19T11:08:46Z</time></trkpt><trkpt lat="37.92585481808066" lon="14.093145470186526"><ele>403.0</ele><time>2026-04-19T11:08:47Z</time></trkpt><trkpt lat="37.92591542790142" lon="14.09304893336477"><ele>402.79999999999995</ele><time>2026-04-19T11:08:48Z</time></trkpt><trkpt lat="37.92598966548184" lon="14.092973044942806"><ele>402.6</ele><time>2026-04-19T11:08:49Z</time></trkpt><trkpt lat="37.92607244100057" lon="14.09287395133103"><ele>402.4</ele><time>2026-04-19T11:08:50Z</time></trkpt><trkpt lat="37.926156117793255" lon="14.09277455238064"><ele>402.20000000000005</ele><time>2026-04-19T11:08:51Z</time></trkpt><trkpt lat="37.92624430825387" lon="14.092677248810213"><ele>402.0</ele><time>2026-04-19T11:08:52Z</time></trkpt><trkpt lat="37.9263314669795" lon="14.092598672063296"><ele>402.0</ele><time>2026-04-19T11:08:53Z</time></trkpt><trkpt lat="37.92642211338926" lon="14.092529544483066"><ele>402.0</ele><time>2026-04-19T11:08:54Z</time></trkpt><trkpt lat="37.92650225601031" lon="14.092474207206598"><ele>402.0</ele><time>2026-04-19T11:08:55Z</time></trkpt><trkpt lat="37.92658585691236" lon="14.092427210645598"><ele>402.0</ele><time>2026-04-19T11:08:56Z</time></trkpt><trkpt lat="37.926662538986584" lon="14.09239899188237"><ele>402.0</ele><time>2026-04-19T11:08:57Z</time></trkpt><trkpt lat="37.9267276550892" lon="14.092389773751314"><ele>402.0</ele><time>2026-04-19T11:08:58Z</time></trkpt><trkpt lat="37.92684578279315" lon="14.09242535489125"><ele>402.1666666666667</ele><time>2026-04-19T11:09:00Z</time></trkpt><trkpt lat="37.926921563025104" lon="14.092428882429967"><ele>402.33333333333337</ele><time>2026-04-19T11:09:01.001Z</time></trkpt><trkpt lat="37.9269920619402" lon="14.092487761928604"><ele>402.5</ele><time>2026-04-19T11:09:02.001Z</time></trkpt><trkpt lat="37.92705478706003" lon="14.09255059697331"><ele>402.6666666666667</ele><time>2026-04-19T11:09:03.001Z</time></trkpt><trkpt lat="37.92711878481743" lon="14.092616195920593"><ele>402.83333333333337</ele><time>2026-04-19T11:09:04.001Z</time></trkpt><trkpt lat="37.92719356111736" lon="14.092681045661456"><ele>403.0</ele><time>2026-04-19T11:09:05.001Z</time></trkpt><trkpt lat="37.927278389630644" lon="14.092757242243906"><ele>403.0</ele><time>2026-04-19T11:09:06.001Z</time></trkpt><trkpt lat="37.92734941761129" lon="14.092842727131993"><ele>403.0</ele><time>2026-04-19T11:09:07.001Z</time></trkpt><trkpt lat="37.92742402223702" lon="14.092904344599745"><ele>403.0</ele><time>2026-04-19T11:09:08.001Z</time></trkpt><trkpt lat="37.92750994883979" lon="14.092920570509465"><ele>403.0</ele><time>2026-04-19T11:09:09.001Z</time></trkpt><trkpt lat="37.927597998698104" lon="14.092881525710082"><ele>403.0</ele><time>2026-04-19T11:09:10.001Z</time></trkpt><trkpt lat="37.92768193589041" lon="14.092809135702563"><ele>399.75</ele><time>2026-04-19T11:09:11.001Z</time></trkpt><trkpt lat="37.92776998336852" lon="14.092732927383283"><ele>396.5</ele><time>2026-04-19T11:09:12.001Z</time></trkpt><trkpt lat="37.927866292640225" lon="14.092655116035589"><ele>393.25</ele><time>2026-04-19T11:09:13.001Z</time></trkpt><trkpt lat="37.927976407783255" lon="14.092575686079568"><ele>390.0</ele><time>2026-04-19T11:09:14.001Z</time></trkpt><trkpt lat="37.928084328672185" lon="14.092496234787326"><ele>390.25</ele><time>2026-04-19T11:09:15.001Z</time></trkpt><trkpt lat="37.928196080623394" lon="14.09241350823134"><ele>390.5</ele><time>2026-04-19T11:09:16.001Z</time></trkpt><trkpt lat="37.928306840079145" lon="14.092328369044615"><ele>390.75</ele><time>2026-04-19T11:09:17.001Z</time></trkpt><trkpt lat="37.9284188905091" lon="14.092237064766591"><ele>391.0</ele><time>2026-04-19T11:09:18.001Z</time></trkpt><trkpt lat="37.928537464990654" lon="14.092154425405216"><ele>391.0</ele><time>2026-04-19T11:09:19.001Z</time></trkpt><trkpt lat="37.928652636039565" lon="14.09206578952621"><ele>391.0</ele><time>2026-04-19T11:09:20.001Z</time></trkpt><trkpt lat="37.92876992264126" lon="14.091981877504582"><ele>391.0</ele><time>2026-04-19T11:09:21.001Z</time></trkpt><trkpt lat="37.92888641274145" lon="14.091899211675381"><ele>391.0</ele><time>2026-04-19T11:09:22.001Z</time></trkpt><trkpt lat="37.92900678209167" lon="14.091834188035921"><ele>391.0</ele><time>2026-04-19T11:09:23.001Z</time></trkpt><trkpt lat="37.929118778713196" lon="14.091753685840787"><ele>391.0</ele><time>2026-04-19T11:09:24.001Z</time></trkpt><trkpt lat="37.92922335726415" lon="14.091655498453962"><ele>391.0</ele><time>2026-04-19T11:09:25.001Z</time></trkpt><trkpt lat="37.92933638891432" lon="14.091581312904287"><ele>391.0</ele><time>2026-04-19T11:09:26.001Z</time></trkpt><trkpt lat="37.929444198076844" lon="14.091501255395585"><ele>392.0</ele><time>2026-04-19T11:09:27.001Z</time></trkpt><trkpt lat="37.92955130786911" lon="14.091419424797536"><ele>393.0</ele><time>2026-04-19T11:09:28.001Z</time></trkpt><trkpt lat="37.929667417819104" lon="14.091359844626753"><ele>394.0</ele><time>2026-04-19T11:09:29.001Z</time></trkpt><trkpt lat="37.929761994246036" lon="14.091270245107042"><ele>395.0</ele><time>2026-04-19T11:09:30.001Z</time></trkpt><trkpt lat="37.929858096514934" lon="14.09120662690976"><ele>395.0</ele><time>2026-04-19T11:09:31.001Z</time></trkpt><trkpt lat="37.92994907358922" lon="14.091138495411109"><ele>395.0</ele><time>2026-04-19T11:09:32.001Z</time></trkpt><trkpt lat="37.93003730147191" lon="14.091070839313415"><ele>395.0</ele><time>2026-04-19T11:09:33.001Z</time></trkpt><trkpt lat="37.930123017811006" lon="14.091010171528087"><ele>395.0</ele><time>2026-04-19T11:09:34.001Z</time></trkpt><trkpt lat="37.930215131329845" lon="14.09096574157163"><ele>395.0</ele><time>2026-04-19T11:09:35.001Z</time></trkpt><trkpt lat="37.93029676332207" lon="14.090907152073534"><ele>394.8</ele><time>2026-04-19T11:09:36.001Z</time></trkpt><trkpt lat="37.930376411519305" lon="14.090849986397846"><ele>394.6</ele><time>2026-04-19T11:09:37.002Z</time></trkpt><trkpt lat="37.930458444113796" lon="14.09078044228551"><ele>394.4</ele><time>2026-04-19T11:09:38.002Z</time></trkpt><trkpt lat="37.93055218598719" lon="14.090703863936126"><ele>394.2</ele><time>2026-04-19T11:09:39.002Z</time></trkpt><trkpt lat="37.930656092798564" lon="14.09064142222561"><ele>394.0</ele><time>2026-04-19T11:09:40.002Z</time></trkpt><trkpt lat="37.9307491245837" lon="14.090583338135696"><ele>394.00000000000006</ele><time>2026-04-19T11:09:41.002Z</time></trkpt><trkpt lat="37.9308341491334" lon="14.090522684207587"><ele>394.0</ele><time>2026-04-19T11:09:42.002Z</time></trkpt><trkpt lat="37.930917355912015" lon="14.09046332699705"><ele>394.0</ele><time>2026-04-19T11:09:43.002Z</time></trkpt><trkpt lat="37.9309906223058" lon="14.09039190272678"><ele>394.0</ele><time>2026-04-19T11:09:44.002Z</time></trkpt><trkpt lat="37.93107273054321" lon="14.090360900934268"><ele>394.00000000000006</ele><time>2026-04-19T11:09:45.002Z</time></trkpt><trkpt lat="37.93113991015592" lon="14.090313651884466"><ele>394.0</ele><time>2026-04-19T11:09:46.002Z</time></trkpt><trkpt lat="37.93120873569355" lon="14.090269980496531"><ele>392.83333333333337</ele><time>2026-04-19T11:09:47.002Z</time></trkpt><trkpt lat="37.93127584233616" lon="14.090239097910445"><ele>391.6666666666667</ele><time>2026-04-19T11:09:48.002Z</time></trkpt><trkpt lat="37.931347359267754" lon="14.09022637933253"><ele>390.5</ele><time>2026-04-19T11:09:49.002Z</time></trkpt><trkpt lat="37.93142247318365" lon="14.090226445050778"><ele>389.33333333333337</ele><time>2026-04-19T11:09:50.002Z</time></trkpt><trkpt lat="37.93149696449322" lon="14.090239105333962"><ele>388.1666666666667</ele><time>2026-04-19T11:09:51.002Z</time></trkpt><trkpt lat="37.93157433923754" lon="14.090261956883744"><ele>387.0</ele><time>2026-04-19T11:09:52.002Z</time></trkpt><trkpt lat="37.931652987520366" lon="14.090287282553305"><ele>385.0</ele><time>2026-04-19T11:09:53.002Z</time></trkpt><trkpt lat="37.93173447815347" lon="14.090310623726278"><ele>383.0</ele><time>2026-04-19T11:09:54.002Z</time></trkpt><trkpt lat="37.93181544359161" lon="14.090331157959474"><ele>381.0</ele><time>2026-04-19T11:09:55.002Z</time></trkpt><trkpt lat="37.93188928032077" lon="14.09035409405128"><ele>379.0</ele><time>2026-04-19T11:09:56.002Z</time></trkpt><trkpt lat="37.931960943060034" lon="14.090359362685742"><ele>377.0</ele><time>2026-04-19T11:09:57.002Z</time></trkpt><trkpt lat="37.932027754392124" lon="14.090341475197553"><ele>375.0</ele><time>2026-04-19T11:09:58.002Z</time></trkpt><trkpt lat="37.93209456019059" lon="14.090284771988708"><ele>375.0</ele><time>2026-04-19T11:09:59.002Z</time></trkpt><trkpt lat="37.932140128757524" lon="14.090200518360609"><ele>375.0</ele><time>2026-04-19T11:10:00.002Z</time></trkpt><trkpt lat="37.93217416925305" lon="14.090124667983778"><ele>375.0</ele><time>2026-04-19T11:10:01.002Z</time></trkpt><trkpt lat="37.93220243723973" lon="14.090042643894698"><ele>375.0</ele><time>2026-04-19T11:10:02.002Z</time></trkpt><trkpt lat="37.93220769422954" lon="14.089951174326911"><ele>375.0</ele><time>2026-04-19T11:10:03.002Z</time></trkpt><trkpt lat="37.93219678520162" lon="14.089853832350933"><ele>375.0</ele><time>2026-04-19T11:10:04.002Z</time></trkpt><trkpt lat="37.93217200381541" lon="14.08976430330695"><ele>375.0</ele><time>2026-04-19T11:10:05.002Z</time></trkpt><trkpt lat="37.932149296235835" lon="14.089677613071895"><ele>375.6666666666667</ele><time>2026-04-19T11:10:06.002Z</time></trkpt><trkpt lat="37.932105672238144" lon="14.08960322264089"><ele>376.3333333333333</ele><time>2026-04-19T11:10:07.002Z</time></trkpt><trkpt lat="37.93204965358141" lon="14.089541821850172"><ele>377.0</ele><time>2026-04-19T11:10:08.002Z</time></trkpt><trkpt lat="37.931998323066715" lon="14.08948659984163"><ele>377.66666666666663</ele><time>2026-04-19T11:10:09.002Z</time></trkpt><trkpt lat="37.931918250907266" lon="14.089380813475575"><ele>378.3333333333333</ele><time>2026-04-19T11:10:11.002Z</time></trkpt><trkpt lat="37.93193024337306" lon="14.089245524801816"><ele>379.0</ele><time>2026-04-19T11:10:13.002Z</time></trkpt><trkpt lat="37.93196749591323" lon="14.089122905932756"><ele>380.66666666666663</ele><time>2026-04-19T11:10:15.003Z</time></trkpt><trkpt lat="37.932024539755865" lon="14.089020297787423"><ele>382.3333333333333</ele><time>2026-04-19T11:10:17.003Z</time></trkpt><trkpt lat="37.93206429550532" lon="14.088936645070065"><ele>384.0</ele><time>2026-04-19T11:10:19.999Z</time></trkpt><trkpt lat="37.932081786123064" lon="14.08885356199266"><ele>385.66666666666663</ele><time>2026-04-19T11:10:24.999Z</time></trkpt><trkpt lat="37.9321369819056" lon="14.088770703353358"><ele>387.3333333333333</ele><time>2026-04-19T11:10:27.999Z</time></trkpt><trkpt lat="37.93218673497" lon="14.088662281878717"><ele>389.0</ele><time>2026-04-19T11:10:29.999Z</time></trkpt><trkpt lat="37.932297216721885" lon="14.08861286768684"><ele>389.0</ele><time>2026-04-19T11:10:31.999Z</time></trkpt><trkpt lat="37.932436428555846" lon="14.088660186581807"><ele>389.0</ele><time>2026-04-19T11:10:33.999Z</time></trkpt><trkpt lat="37.93251537692108" lon="14.088718365447727"><ele>389.0</ele><time>2026-04-19T11:10:34.999Z</time></trkpt><trkpt lat="37.932607008020746" lon="14.088824403336265"><ele>389.0</ele><time>2026-04-19T11:10:35.999Z</time></trkpt><trkpt lat="37.932706982982104" lon="14.08893867803711"><ele>390.5</ele><time>2026-04-19T11:10:36.999Z</time></trkpt><trkpt lat="37.932836213451196" lon="14.088946893230585"><ele>392.0</ele><time>2026-04-19T11:10:37.999Z</time></trkpt><trkpt lat="37.932927610747015" lon="14.089019506866132"><ele>393.5</ele><time>2026-04-19T11:10:39Z</time></trkpt><trkpt lat="37.93302123245237" lon="14.089092703839007"><ele>395.0</ele><time>2026-04-19T11:10:40Z</time></trkpt><trkpt lat="37.93311520074805" lon="14.08915646951711"><ele>393.8</ele><time>2026-04-19T11:10:41Z</time></trkpt><trkpt lat="37.93321201046293" lon="14.089223782895283"><ele>392.6</ele><time>2026-04-19T11:10:42Z</time></trkpt><trkpt lat="37.93330952523684" lon="14.089284580623836"><ele>391.4</ele><time>2026-04-19T11:10:43Z</time></trkpt><trkpt lat="37.933404410511" lon="14.089348724531654"><ele>390.2</ele><time>2026-04-19T11:10:44Z</time></trkpt><trkpt lat="37.93349917997737" lon="14.08940618032718"><ele>389.0</ele><time>2026-04-19T11:10:45Z</time></trkpt><trkpt lat="37.93358656532388" lon="14.089467907206288"><ele>389.0</ele><time>2026-04-19T11:10:46Z</time></trkpt><trkpt lat="37.933667353980724" lon="14.089539354535482"><ele>389.0</ele><time>2026-04-19T11:10:47Z</time></trkpt><trkpt lat="37.93373356150755" lon="14.08962488027884"><ele>389.0</ele><time>2026-04-19T11:10:48Z</time></trkpt><trkpt lat="37.93380226815872" lon="14.089709406297462"><ele>389.0</ele><time>2026-04-19T11:10:49Z</time></trkpt><trkpt lat="37.93387164353127" lon="14.089793757523998"><ele>389.0</ele><time>2026-04-19T11:10:50Z</time></trkpt><trkpt lat="37.933938693468704" lon="14.089875662968531"><ele>387.2</ele><time>2026-04-19T11:10:51Z</time></trkpt><trkpt lat="37.93400593671114" lon="14.089955701297496"><ele>385.4</ele><time>2026-04-19T11:10:52Z</time></trkpt><trkpt lat="37.93407685012363" lon="14.090027856182745"><ele>383.6</ele><time>2026-04-19T11:10:53Z</time></trkpt><trkpt lat="37.93414662242938" lon="14.09010193574377"><ele>381.8</ele><time>2026-04-19T11:10:54Z</time></trkpt><trkpt lat="37.93421869546237" lon="14.09018331587294"><ele>380.0</ele><time>2026-04-19T11:10:55Z</time></trkpt><trkpt lat="37.9342875698354" lon="14.090268260325372"><ele>380.0</ele><time>2026-04-19T11:10:56Z</time></trkpt><trkpt lat="37.934358242927665" lon="14.090354766543172"><ele>380.0</ele><time>2026-04-19T11:10:57Z</time></trkpt><trkpt lat="37.93442908946933" lon="14.090442196837959"><ele>380.0</ele><time>2026-04-19T11:10:58Z</time></trkpt><trkpt lat="37.93449908703399" lon="14.090528142727177"><ele>380.0</ele><time>2026-04-19T11:10:59Z</time></trkpt><trkpt lat="37.93456045350112" lon="14.090615081167046"><ele>380.0</ele><time>2026-04-19T11:11:00Z</time></trkpt><trkpt lat="37.93462605461963" lon="14.090709826297111"><ele>377.6</ele><time>2026-04-19T11:11:01Z</time></trkpt><trkpt lat="37.93470198696446" lon="14.090789546733289"><ele>375.2</ele><time>2026-04-19T11:11:02Z</time></trkpt><trkpt lat="37.934776944184165" lon="14.090879616013684"><ele>372.79999999999995</ele><time>2026-04-19T11:11:03Z</time></trkpt><trkpt lat="37.93484945430162" lon="14.09096900058272"><ele>370.4</ele><time>2026-04-19T11:11:04Z</time></trkpt><trkpt lat="37.93492158047275" lon="14.091057871500125"><ele>368.0</ele><time>2026-04-19T11:11:05Z</time></trkpt><trkpt lat="37.934990149975675" lon="14.091146242472655"><ele>367.79999999999995</ele><time>2026-04-19T11:11:06Z</time></trkpt><trkpt lat="37.935068851083415" lon="14.091228995606583"><ele>367.6</ele><time>2026-04-19T11:11:07Z</time></trkpt><trkpt lat="37.935139992651806" lon="14.091312093073562"><ele>367.4</ele><time>2026-04-19T11:11:08Z</time></trkpt><trkpt lat="37.935211807296035" lon="14.091397141829958"><ele>367.20000000000005</ele><time>2026-04-19T11:11:09Z</time></trkpt><trkpt lat="37.93528114077036" lon="14.091478352310027"><ele>367.0</ele><time>2026-04-19T11:11:10.001Z</time></trkpt><trkpt lat="37.93535615811596" lon="14.091568740568876"><ele>365.6</ele><time>2026-04-19T11:11:11.001Z</time></trkpt><trkpt lat="37.93542601818256" lon="14.091655704621417"><ele>364.20000000000005</ele><time>2026-04-19T11:11:12.001Z</time></trkpt><trkpt lat="37.93549605868369" lon="14.091748314684995"><ele>362.8</ele><time>2026-04-19T11:11:13.001Z</time></trkpt><trkpt lat="37.93556610240526" lon="14.09183393381021"><ele>361.4</ele><time>2026-04-19T11:11:14.001Z</time></trkpt><trkpt lat="37.93563688331306" lon="14.091914302175473"><ele>360.0</ele><time>2026-04-19T11:11:15.001Z</time></trkpt><trkpt lat="37.93570454601629" lon="14.091997256408122"><ele>360.0</ele><time>2026-04-19T11:11:16.001Z</time></trkpt><trkpt lat="37.93577531164847" lon="14.092082473994742"><ele>360.0</ele><time>2026-04-19T11:11:17.001Z</time></trkpt><trkpt lat="37.9358498304319" lon="14.092167874890729"><ele>360.0</ele><time>2026-04-19T11:11:18.001Z</time></trkpt><trkpt lat="37.93593233371436" lon="14.092263713493447"><ele>360.0</ele><time>2026-04-19T11:11:19.001Z</time></trkpt><trkpt lat="37.93601875185579" lon="14.092369683104513"><ele>360.0</ele><time>2026-04-19T11:11:20.001Z</time></trkpt><trkpt lat="37.93610424787621" lon="14.092471328520583"><ele>358.75</ele><time>2026-04-19T11:11:21.001Z</time></trkpt><trkpt lat="37.936188031793506" lon="14.092569553890819"><ele>357.5</ele><time>2026-04-19T11:11:22.001Z</time></trkpt><trkpt lat="37.93627409618703" lon="14.092673238887038"><ele>356.25</ele><time>2026-04-19T11:11:23.001Z</time></trkpt><trkpt lat="37.93637347239633" lon="14.092787622809315"><ele>355.0</ele><time>2026-04-19T11:11:24.001Z</time></trkpt><trkpt lat="37.93648083357841" lon="14.09291528590511"><ele>355.0</ele><time>2026-04-19T11:11:25.001Z</time></trkpt><trkpt lat="37.936604045946" lon="14.093058277113673"><ele>355.0</ele><time>2026-04-19T11:11:26.001Z</time></trkpt><trkpt lat="37.936732654390525" lon="14.093220092551801"><ele>355.0</ele><time>2026-04-19T11:11:27.001Z</time></trkpt><trkpt lat="37.93684614859532" lon="14.093373421145326"><ele>353.66666666666663</ele><time>2026-04-19T11:11:28.001Z</time></trkpt><trkpt lat="37.93695273693377" lon="14.093522254752662"><ele>352.3333333333333</ele><time>2026-04-19T11:11:29.001Z</time></trkpt><trkpt lat="37.9370619147778" lon="14.093659652728348"><ele>351.0</ele><time>2026-04-19T11:11:30.001Z</time></trkpt><trkpt lat="37.937178168235874" lon="14.093778434076865"><ele>351.0</ele><time>2026-04-19T11:11:31.001Z</time></trkpt><trkpt lat="37.93730047914947" lon="14.093875551678256"><ele>351.0</ele><time>2026-04-19T11:11:32.001Z</time></trkpt><trkpt lat="37.9374270968496" lon="14.093942689181503"><ele>351.0</ele><time>2026-04-19T11:11:33.001Z</time></trkpt><trkpt lat="37.937567100554446" lon="14.09398571267294"><ele>351.0</ele><time>2026-04-19T11:11:34.001Z</time></trkpt><trkpt lat="37.93770326023846" lon="14.093985964118275"><ele>351.25</ele><time>2026-04-19T11:11:35.001Z</time></trkpt><trkpt lat="37.93783866402509" lon="14.093958127787976"><ele>351.5</ele><time>2026-04-19T11:11:36.001Z</time></trkpt><trkpt lat="37.93797322187112" lon="14.093928653937216"><ele>351.75</ele><time>2026-04-19T11:11:37.001Z</time></trkpt><trkpt lat="37.938119395830334" lon="14.093901910648812"><ele>352.0</ele><time>2026-04-19T11:11:38.001Z</time></trkpt><trkpt lat="37.9382724420511" lon="14.093875099700323"><ele>349.3333333333333</ele><time>2026-04-19T11:11:39.001Z</time></trkpt><trkpt lat="37.93842908984674" lon="14.093844745111497"><ele>346.6666666666667</ele><time>2026-04-19T11:11:40.001Z</time></trkpt><trkpt lat="37.93858773312671" lon="14.093813501700543"><ele>344.0</ele><time>2026-04-19T11:11:41.001Z</time></trkpt><trkpt lat="37.93874525189039" lon="14.093785155934295"><ele>344.0</ele><time>2026-04-19T11:11:42.001Z</time></trkpt><trkpt lat="37.93889983759623" lon="14.093754203936927"><ele>344.0</ele><time>2026-04-19T11:11:43.001Z</time></trkpt><trkpt lat="37.9390508731131" lon="14.093725043559843"><ele>344.0</ele><time>2026-04-19T11:11:44.001Z</time></trkpt><trkpt lat="37.939204726601986" lon="14.093693558482654"><ele>341.0</ele><time>2026-04-19T11:11:45.002Z</time></trkpt><trkpt lat="37.93935561319929" lon="14.093663410215393"><ele>338.0</ele><time>2026-04-19T11:11:46.002Z</time></trkpt><trkpt lat="37.9395038241356" lon="14.093634350668307"><ele>335.0</ele><time>2026-04-19T11:11:47.002Z</time></trkpt><trkpt lat="37.93965062602313" lon="14.09360110343534"><ele>335.0</ele><time>2026-04-19T11:11:48.002Z</time></trkpt><trkpt lat="37.9397949106972" lon="14.09356278768802"><ele>335.0</ele><time>2026-04-19T11:11:49.002Z</time></trkpt><trkpt lat="37.939940056146526" lon="14.09352995374144"><ele>335.0</ele><time>2026-04-19T11:11:50.002Z</time></trkpt><trkpt lat="37.94008089108336" lon="14.093513613036277"><ele>335.0</ele><time>2026-04-19T11:11:51.002Z</time></trkpt><trkpt lat="37.94021956188456" lon="14.09351625387799"><ele>333.5</ele><time>2026-04-19T11:11:52.002Z</time></trkpt><trkpt lat="37.940360187795875" lon="14.093543295681226"><ele>332.0</ele><time>2026-04-19T11:11:53.002Z</time></trkpt><trkpt lat="37.94049405069123" lon="14.09360769906356"><ele>330.5</ele><time>2026-04-19T11:11:54.002Z</time></trkpt><trkpt lat="37.94061272928663" lon="14.093701391397284"><ele>329.0</ele><time>2026-04-19T11:11:55.002Z</time></trkpt><trkpt lat="37.940715531953295" lon="14.093816048152235"><ele>329.0</ele><time>2026-04-19T11:11:56.002Z</time></trkpt><trkpt lat="37.94079500869724" lon="14.0939510612043"><ele>329.0</ele><time>2026-04-19T11:11:57.002Z</time></trkpt><trkpt lat="37.94083833933704" lon="14.09409277085958"><ele>329.0</ele><time>2026-04-19T11:11:58.002Z</time></trkpt><trkpt lat="37.940853976530505" lon="14.094247878294402"><ele>329.0</ele><time>2026-04-19T11:11:59.002Z</time></trkpt><trkpt lat="37.940840672954664" lon="14.094407548799907"><ele>328.25</ele><time>2026-04-19T11:12:00.002Z</time></trkpt><trkpt lat="37.94080109734861" lon="14.094563297827891"><ele>327.5</ele><time>2026-04-19T11:12:01.002Z</time></trkpt><trkpt lat="37.94074665274414" lon="14.09471341059148"><ele>326.75</ele><time>2026-04-19T11:12:02.002Z</time></trkpt><trkpt lat="37.94067459782741" lon="14.094869099781222"><ele>326.0</ele><time>2026-04-19T11:12:03.002Z</time></trkpt><trkpt lat="37.94059826240654" lon="14.095036396900847"><ele>325.6666666666667</ele><time>2026-04-19T11:12:04.002Z</time></trkpt><trkpt lat="37.940519534366885" lon="14.095205090236108"><ele>325.3333333333333</ele><time>2026-04-19T11:12:05.002Z</time></trkpt><trkpt lat="37.94044147732332" lon="14.09537404685384"><ele>325.0</ele><time>2026-04-19T11:12:06.002Z</time></trkpt><trkpt lat="37.94036662431456" lon="14.095545045212983"><ele>325.0</ele><time>2026-04-19T11:12:07.002Z</time></trkpt><trkpt lat="37.940294482315636" lon="14.095725190608732"><ele>325.0</ele><time>2026-04-19T11:12:08.002Z</time></trkpt><trkpt lat="37.94022240738423" lon="14.095900832837993"><ele>325.0</ele><time>2026-04-19T11:12:09.002Z</time></trkpt><trkpt lat="37.94015173530309" lon="14.096071179399772"><ele>325.0</ele><time>2026-04-19T11:12:10.002Z</time></trkpt><trkpt lat="37.940078465619905" lon="14.096239924185317"><ele>325.0</ele><time>2026-04-19T11:12:11.002Z</time></trkpt><trkpt lat="37.94000583588229" lon="14.096404309870563"><ele>325.0</ele><time>2026-04-19T11:12:12.002Z</time></trkpt><trkpt lat="37.939934213765866" lon="14.096567300542258"><ele>325.0</ele><time>2026-04-19T11:12:13.002Z</time></trkpt><trkpt lat="37.93986679686635" lon="14.096727033266395"><ele>323.5</ele><time>2026-04-19T11:12:14.002Z</time></trkpt><trkpt lat="37.93979415954457" lon="14.096885314043345"><ele>322.0</ele><time>2026-04-19T11:12:15.002Z</time></trkpt><trkpt lat="37.93972526687877" lon="14.097041685107747"><ele>320.5</ele><time>2026-04-19T11:12:16.002Z</time></trkpt><trkpt lat="37.93965630727057" lon="14.097194394279983"><ele>319.0</ele><time>2026-04-19T11:12:17.002Z</time></trkpt><trkpt lat="37.93959643491" lon="14.097333766329154"><ele>317.4</ele><time>2026-04-19T11:12:18.002Z</time></trkpt><trkpt lat="37.939554438283025" lon="14.09747134464685"><ele>315.79999999999995</ele><time>2026-04-19T11:12:19.002Z</time></trkpt><trkpt lat="37.93954579099778" lon="14.097603358050735"><ele>314.20000000000005</ele><time>2026-04-19T11:12:20.003Z</time></trkpt><trkpt lat="37.939575671672706" lon="14.097738130049235"><ele>312.6</ele><time>2026-04-19T11:12:21.003Z</time></trkpt><trkpt lat="37.93963390155666" lon="14.097858828540309"><ele>311.0</ele><time>2026-04-19T11:12:22.003Z</time></trkpt><trkpt lat="37.9397178648103" lon="14.097961945373726"><ele>311.0</ele><time>2026-04-19T11:12:23.003Z</time></trkpt><trkpt lat="37.93981777210696" lon="14.098036984210312"><ele>311.0</ele><time>2026-04-19T11:12:24.003Z</time></trkpt><trkpt lat="37.939929225819746" lon="14.09807691967761"><ele>311.0</ele><time>2026-04-19T11:12:24.999Z</time></trkpt><trkpt lat="37.940046236466216" lon="14.098076818417269"><ele>311.0</ele><time>2026-04-19T11:12:25.999Z</time></trkpt><trkpt lat="37.94016279401805" lon="14.09805560350283"><ele>309.25</ele><time>2026-04-19T11:12:26.999Z</time></trkpt><trkpt lat="37.94027461262436" lon="14.09801996513638"><ele>307.5</ele><time>2026-04-19T11:12:27.999Z</time></trkpt><trkpt lat="37.94038620318098" lon="14.09798896894782"><ele>305.75</ele><time>2026-04-19T11:12:28.999Z</time></trkpt><trkpt lat="37.940500287985685" lon="14.097960335792594"><ele>304.0</ele><time>2026-04-19T11:12:29.999Z</time></trkpt><trkpt lat="37.94061448683012" lon="14.097937264695586"><ele>304.0</ele><time>2026-04-19T11:12:30.999Z</time></trkpt><trkpt lat="37.940730815157124" lon="14.097913657945922"><ele>304.0</ele><time>2026-04-19T11:12:31.999Z</time></trkpt><trkpt lat="37.94084838233412" lon="14.097884116697863"><ele>304.0</ele><time>2026-04-19T11:12:32.999Z</time></trkpt><trkpt lat="37.94096435555172" lon="14.097858722561062"><ele>304.0</ele><time>2026-04-19T11:12:33.999Z</time></trkpt><trkpt lat="37.94107633951906" lon="14.09784317084879"><ele>302.5</ele><time>2026-04-19T11:12:34.999Z</time></trkpt><trkpt lat="37.941174658847764" lon="14.097824596181093"><ele>301.0</ele><time>2026-04-19T11:12:35.999Z</time></trkpt><trkpt lat="37.941261220714985" lon="14.097795275661248"><ele>299.5</ele><time>2026-04-19T11:12:36.999Z</time></trkpt><trkpt lat="37.94133762135722" lon="14.097760833037148"><ele>298.0</ele><time>2026-04-19T11:12:37.999Z</time></trkpt><trkpt lat="37.941401983525274" lon="14.097727289024556"><ele>296.5</ele><time>2026-04-19T11:12:38.999Z</time></trkpt><trkpt lat="37.941484472525794" lon="14.097669877828425"><ele>295.0</ele><time>2026-04-19T11:12:40.999Z</time></trkpt><trkpt lat="37.94156316430135" lon="14.097604733280605"><ele>295.00000000000006</ele><time>2026-04-19T11:12:43.999Z</time></trkpt><trkpt lat="37.941617467820286" lon="14.097561708226053"><ele>295.0</ele><time>2026-04-19T11:12:46Z</time></trkpt><trkpt lat="37.94168024786607" lon="14.097502558856052"><ele>295.0</ele><time>2026-04-19T11:12:48Z</time></trkpt><trkpt lat="37.94173481038509" lon="14.097462265133666"><ele>295.0</ele><time>2026-04-19T11:12:50Z</time></trkpt><trkpt lat="37.94179954358678" lon="14.097400355836383"><ele>295.0</ele><time>2026-04-19T11:12:53Z</time></trkpt><trkpt lat="37.94186064273881" lon="14.097339306023512"><ele>295.00000000000006</ele><time>2026-04-19T11:12:56Z</time></trkpt><trkpt lat="37.94191785940287" lon="14.097293641965434"><ele>295.0</ele><time>2026-04-19T11:13:08Z</time></trkpt><trkpt lat="37.94199643370056" lon="14.097220092090106"><ele>293.4</ele><time>2026-04-19T11:13:10Z</time></trkpt><trkpt lat="37.94205539542675" lon="14.09715380045917"><ele>291.8</ele><time>2026-04-19T11:13:12Z</time></trkpt><trkpt lat="37.94211895326226" lon="14.0970991454386"><ele>290.2</ele><time>2026-04-19T11:13:15.001Z</time></trkpt><trkpt lat="37.94201227201689" lon="14.097104175573318"><ele>288.6</ele><time>2026-04-19T11:13:20.001Z</time></trkpt><trkpt lat="37.94193426738339" lon="14.097183302200698"><ele>287.0</ele><time>2026-04-19T11:13:22.001Z</time></trkpt><trkpt lat="37.94182918082835" lon="14.09727580766146"><ele>287.0</ele><time>2026-04-19T11:13:24.001Z</time></trkpt><trkpt lat="37.941763924678696" lon="14.097328794467568"><ele>287.0</ele><time>2026-04-19T11:13:25.001Z</time></trkpt><trkpt lat="37.941702212028396" lon="14.097382088830328"><ele>287.0</ele><time>2026-04-19T11:13:26.001Z</time></trkpt><trkpt lat="37.94163615491882" lon="14.097435225592845"><ele>287.0</ele><time>2026-04-19T11:13:27.001Z</time></trkpt><trkpt lat="37.94156908054222" lon="14.097487412079655"><ele>287.0</ele><time>2026-04-19T11:13:28.001Z</time></trkpt><trkpt lat="37.941491813282795" lon="14.097537947123817"><ele>287.0</ele><time>2026-04-19T11:13:29.001Z</time></trkpt><trkpt lat="37.941404466427336" lon="14.09759411911687"><ele>289.0</ele><time>2026-04-19T11:13:30.001Z</time></trkpt><trkpt lat="37.94129974368753" lon="14.097653634329676"><ele>291.0</ele><time>2026-04-19T11:13:31.001Z</time></trkpt><trkpt lat="37.94118365174594" lon="14.097718152735428"><ele>293.0</ele><time>2026-04-19T11:13:32.001Z</time></trkpt><trkpt lat="37.94107323931328" lon="14.097774943814878"><ele>295.0</ele><time>2026-04-19T11:13:33.001Z</time></trkpt><trkpt lat="37.94095122435809" lon="14.097820178003705"><ele>297.25</ele><time>2026-04-19T11:13:34.001Z</time></trkpt><trkpt lat="37.94082410335692" lon="14.097854410447924"><ele>299.5</ele><time>2026-04-19T11:13:35.001Z</time></trkpt><trkpt lat="37.94069627031453" lon="14.097887802509584"><ele>301.75</ele><time>2026-04-19T11:13:36.001Z</time></trkpt><trkpt lat="37.94056435414492" lon="14.097921802881583"><ele>304.0</ele><time>2026-04-19T11:13:37.001Z</time></trkpt><trkpt lat="37.94042386289691" lon="14.097961454839641"><ele>304.0</ele><time>2026-04-19T11:13:38.001Z</time></trkpt><trkpt lat="37.94028836686882" lon="14.09800339829975"><ele>304.0</ele><time>2026-04-19T11:13:39.001Z</time></trkpt><trkpt lat="37.94016433417601" lon="14.09801652589997"><ele>304.0</ele><time>2026-04-19T11:13:40.001Z</time></trkpt><trkpt lat="37.940056473185585" lon="14.098036627235711"><ele>304.0</ele><time>2026-04-19T11:13:41.001Z</time></trkpt><trkpt lat="37.93995305657936" lon="14.098051102021987"><ele>305.4</ele><time>2026-04-19T11:13:42.001Z</time></trkpt><trkpt lat="37.93985064735116" lon="14.098011292699802"><ele>306.79999999999995</ele><time>2026-04-19T11:13:43.001Z</time></trkpt><trkpt lat="37.93975041239343" lon="14.097949848308783"><ele>308.20000000000005</ele><time>2026-04-19T11:13:44.001Z</time></trkpt><trkpt lat="37.93966792979247" lon="14.097855355136915"><ele>309.6</ele><time>2026-04-19T11:13:45.002Z</time></trkpt><trkpt lat="37.93961620333578" lon="14.097743408506593"><ele>311.0</ele><time>2026-04-19T11:13:46.002Z</time></trkpt><trkpt lat="37.93958911348613" lon="14.097627824693761"><ele>311.0</ele><time>2026-04-19T11:13:47.002Z</time></trkpt><trkpt lat="37.939590282667794" lon="14.097500717711544"><ele>311.0</ele><time>2026-04-19T11:13:48.002Z</time></trkpt><trkpt lat="37.93961391496187" lon="14.097365783871936"><ele>311.0</ele><time>2026-04-19T11:13:49.002Z</time></trkpt><trkpt lat="37.93966970472735" lon="14.097227711294419"><ele>311.0</ele><time>2026-04-19T11:13:50.002Z</time></trkpt><trkpt lat="37.9397361806637" lon="14.097083017464785"><ele>313.6666666666667</ele><time>2026-04-19T11:13:51.002Z</time></trkpt><trkpt lat="37.939806304994214" lon="14.096923895567429"><ele>316.3333333333333</ele><time>2026-04-19T11:13:52.002Z</time></trkpt><trkpt lat="37.93987923357636" lon="14.09675013919582"><ele>319.0</ele><time>2026-04-19T11:13:53.002Z</time></trkpt><trkpt lat="37.93995962166416" lon="14.096562464459614"><ele>319.3333333333333</ele><time>2026-04-19T11:13:54.002Z</time></trkpt><trkpt lat="37.94005315243029" lon="14.096394666515732"><ele>319.6666666666667</ele><time>2026-04-19T11:13:55.002Z</time></trkpt><trkpt lat="37.9401291955387" lon="14.096218371320472"><ele>320.0</ele><time>2026-04-19T11:13:56.002Z</time></trkpt><trkpt lat="37.9402092782337" lon="14.096033588891286"><ele>320.0</ele><time>2026-04-19T11:13:57.002Z</time></trkpt><trkpt lat="37.94029640004625" lon="14.095832564394076"><ele>320.0</ele><time>2026-04-19T11:13:58.002Z</time></trkpt><trkpt lat="37.9403876677574" lon="14.09562197390094"><ele>320.0</ele><time>2026-04-19T11:13:59.002Z</time></trkpt><trkpt lat="37.94047220524004" lon="14.095425798707529"><ele>321.25</ele><time>2026-04-19T11:14:00.002Z</time></trkpt><trkpt lat="37.94052344769995" lon="14.095244341809815"><ele>322.5</ele><time>2026-04-19T11:14:01.002Z</time></trkpt><trkpt lat="37.940596005286935" lon="14.095078711197766"><ele>323.75</ele><time>2026-04-19T11:14:02.002Z</time></trkpt><trkpt lat="37.940667419390785" lon="14.094917867202328"><ele>325.0</ele><time>2026-04-19T11:14:03.002Z</time></trkpt><trkpt lat="37.94074176420977" lon="14.09476198569876"><ele>325.25</ele><time>2026-04-19T11:14:04.002Z</time></trkpt><trkpt lat="37.9408086715205" lon="14.094606278216077"><ele>325.5</ele><time>2026-04-19T11:14:05.002Z</time></trkpt><trkpt lat="37.94085733805652" lon="14.094454397780755"><ele>325.75</ele><time>2026-04-19T11:14:06.002Z</time></trkpt><trkpt lat="37.940884972966906" lon="14.094303190510846"><ele>326.0</ele><time>2026-04-19T11:14:07.002Z</time></trkpt><trkpt lat="37.94087686122497" lon="14.094132005129982"><ele>326.75</ele><time>2026-04-19T11:14:08.002Z</time></trkpt><trkpt lat="37.94084090598748" lon="14.093955828771035"><ele>327.5</ele><time>2026-04-19T11:14:09.002Z</time></trkpt><trkpt lat="37.94075416908301" lon="14.09380855702636"><ele>328.25</ele><time>2026-04-19T11:14:10.002Z</time></trkpt><trkpt lat="37.94066599616262" lon="14.093712763456004"><ele>329.0</ele><time>2026-04-19T11:14:11.002Z</time></trkpt><trkpt lat="37.94056623425853" lon="14.093615604254017"><ele>329.0</ele><time>2026-04-19T11:14:12.002Z</time></trkpt><trkpt lat="37.940458635005335" lon="14.093565619745942"><ele>329.0</ele><time>2026-04-19T11:14:13.002Z</time></trkpt><trkpt lat="37.94035464924701" lon="14.093504744201342"><ele>329.0</ele><time>2026-04-19T11:14:14.002Z</time></trkpt><trkpt lat="37.94024027482648" lon="14.093468849365264"><ele>329.0</ele><time>2026-04-19T11:14:15.002Z</time></trkpt><trkpt lat="37.94011355241947" lon="14.093469637840867"><ele>330.5</ele><time>2026-04-19T11:14:16.002Z</time></trkpt><trkpt lat="37.93998291279871" lon="14.09349799915129"><ele>332.0</ele><time>2026-04-19T11:14:17.002Z</time></trkpt><trkpt lat="37.93985029965437" lon="14.09353218186596"><ele>333.5</ele><time>2026-04-19T11:14:18.003Z</time></trkpt><trkpt lat="37.939714603799" lon="14.093568656731073"><ele>335.0</ele><time>2026-04-19T11:14:19.003Z</time></trkpt><trkpt lat="37.93956852517244" lon="14.09360069148066"><ele>335.0</ele><time>2026-04-19T11:14:20.003Z</time></trkpt><trkpt lat="37.93941983548587" lon="14.093627867288456"><ele>335.0</ele><time>2026-04-19T11:14:21.003Z</time></trkpt><trkpt lat="37.93926761891858" lon="14.093658238176392"><ele>335.0</ele><time>2026-04-19T11:14:22.003Z</time></trkpt><trkpt lat="37.93911645069382" lon="14.093691048441503"><ele>337.25</ele><time>2026-04-19T11:14:23.003Z</time></trkpt><trkpt lat="37.93896891141535" lon="14.093719823068238"><ele>339.5</ele><time>2026-04-19T11:14:24.003Z</time></trkpt><trkpt lat="37.9388181764532" lon="14.093742742978295"><ele>341.75</ele><time>2026-04-19T11:14:25.003Z</time></trkpt><trkpt lat="37.93867500632238" lon="14.093766132214357"><ele>344.0</ele><time>2026-04-19T11:14:26.003Z</time></trkpt><trkpt lat="37.93853743062769" lon="14.093797177550249"><ele>344.0</ele><time>2026-04-19T11:14:27.003Z</time></trkpt><trkpt lat="37.93840310114457" lon="14.093821101610667"><ele>344.0</ele><time>2026-04-19T11:14:28.003Z</time></trkpt><trkpt lat="37.93828086940474" lon="14.093841248288863"><ele>344.0</ele><time>2026-04-19T11:14:29.003Z</time></trkpt><trkpt lat="37.938161689151144" lon="14.093856285281415"><ele>344.0</ele><time>2026-04-19T11:14:30.003Z</time></trkpt><trkpt lat="37.93804489682359" lon="14.093882491336151"><ele>345.6</ele><time>2026-04-19T11:14:30.999Z</time></trkpt><trkpt lat="37.93794743785252" lon="14.093896021802012"><ele>347.2</ele><time>2026-04-19T11:14:31.999Z</time></trkpt><trkpt lat="37.937853328543994" lon="14.093909776236865"><ele>348.8</ele><time>2026-04-19T11:14:32.999Z</time></trkpt><trkpt lat="37.937758544311464" lon="14.093924477587166"><ele>350.40000000000003</ele><time>2026-04-19T11:14:33.999Z</time></trkpt><trkpt lat="37.9376640541641" lon="14.093928395565964"><ele>352.0</ele><time>2026-04-19T11:14:34.999Z</time></trkpt><trkpt lat="37.93756211820171" lon="14.093920823884332"><ele>351.8</ele><time>2026-04-19T11:14:35.999Z</time></trkpt><trkpt lat="37.937460299408286" lon="14.093904413001164"><ele>351.6</ele><time>2026-04-19T11:14:36.999Z</time></trkpt><trkpt lat="37.937368338926326" lon="14.093844081460285"><ele>351.40000000000003</ele><time>2026-04-19T11:14:37.999Z</time></trkpt><trkpt lat="37.93726698392387" lon="14.09377689767851"><ele>351.20000000000005</ele><time>2026-04-19T11:14:38.999Z</time></trkpt><trkpt lat="37.93717012887811" lon="14.09369218214982"><ele>351.0</ele><time>2026-04-19T11:14:39.999Z</time></trkpt><trkpt lat="37.937082101419605" lon="14.093596267544084"><ele>351.0</ele><time>2026-04-19T11:14:40.999Z</time></trkpt><trkpt lat="37.9369919473805" lon="14.093486674388249"><ele>351.0</ele><time>2026-04-19T11:14:41.999Z</time></trkpt><trkpt lat="37.93690748124732" lon="14.093384840952377"><ele>351.0</ele><time>2026-04-19T11:14:42.999Z</time></trkpt><trkpt lat="37.93681924623269" lon="14.093277957585435"><ele>351.0</ele><time>2026-04-19T11:14:43.999Z</time></trkpt><trkpt lat="37.93673195975176" lon="14.093189474486145"><ele>351.8</ele><time>2026-04-19T11:14:44.999Z</time></trkpt><trkpt lat="37.93665346747552" lon="14.093095321134655"><ele>352.6</ele><time>2026-04-19T11:14:46Z</time></trkpt><trkpt lat="37.93658225832832" lon="14.093002670896636"><ele>353.4</ele><time>2026-04-19T11:14:47Z</time></trkpt><trkpt lat="37.93651674148825" lon="14.09291610279753"><ele>354.2</ele><time>2026-04-19T11:14:48Z</time></trkpt><trkpt lat="37.936458030978386" lon="14.092844928648546"><ele>355.0</ele><time>2026-04-19T11:14:49Z</time></trkpt><trkpt lat="37.93639924009802" lon="14.092778960987626"><ele>355.0</ele><time>2026-04-19T11:14:50Z</time></trkpt><trkpt lat="37.93634482718476" lon="14.092718317268487"><ele>355.0</ele><time>2026-04-19T11:14:51Z</time></trkpt><trkpt lat="37.936294158742484" lon="14.092668011469952"><ele>355.0</ele><time>2026-04-19T11:14:52Z</time></trkpt><trkpt lat="37.936250946379396" lon="14.092589619400496"><ele>355.0</ele><time>2026-04-19T11:14:53Z</time></trkpt><trkpt lat="37.93618381781177" lon="14.09252415634187"><ele>355.0</ele><time>2026-04-19T11:14:54Z</time></trkpt><trkpt lat="37.936122353953415" lon="14.092454662286723"><ele>355.0</ele><time>2026-04-19T11:14:55Z</time></trkpt><trkpt lat="37.9360461782864" lon="14.092367053547507"><ele>355.8333333333333</ele><time>2026-04-19T11:14:56Z</time></trkpt><trkpt lat="37.93597974853875" lon="14.09228227464667"><ele>356.66666666666663</ele><time>2026-04-19T11:14:57Z</time></trkpt><trkpt lat="37.93590551926909" lon="14.092194828052513"><ele>357.5</ele><time>2026-04-19T11:14:58Z</time></trkpt><trkpt lat="37.935852544818395" lon="14.092105141864625"><ele>358.3333333333333</ele><time>2026-04-19T11:14:59Z</time></trkpt><trkpt lat="37.93579762668099" lon="14.092038250786594"><ele>359.1666666666667</ele><time>2026-04-19T11:15:00Z</time></trkpt><trkpt lat="37.935734852034194" lon="14.091996758259844"><ele>360.0</ele><time>2026-04-19T11:15:01Z</time></trkpt><trkpt lat="37.93570796519157" lon="14.091876438401911"><ele>360.0</ele><time>2026-04-19T11:15:03Z</time></trkpt><trkpt lat="37.93566877006728" lon="14.091742408503842"><ele>360.0</ele><time>2026-04-19T11:15:05Z</time></trkpt><trkpt lat="37.93557741639266" lon="14.091657729006535"><ele>360.0</ele><time>2026-04-19T11:15:07Z</time></trkpt><trkpt lat="37.93550732729121" lon="14.091681497747198"><ele>360.0</ele><time>2026-04-19T11:15:10Z</time></trkpt><trkpt lat="37.935534386520004" lon="14.091790027641727"><ele>360.0</ele><time>2026-04-19T11:15:13.001Z</time></trkpt><trkpt lat="37.93560286967328" lon="14.091866417654677"><ele>360.0</ele><time>2026-04-19T11:15:14.001Z</time></trkpt><trkpt lat="37.93568654364536" lon="14.09194234664777"><ele>360.0</ele><time>2026-04-19T11:15:15.001Z</time></trkpt><trkpt lat="37.93573581601092" lon="14.092029650935544"><ele>360.0</ele><time>2026-04-19T11:15:16.001Z</time></trkpt><trkpt lat="37.935807468028756" lon="14.092131935451727"><ele>360.0</ele><time>2026-04-19T11:15:17.001Z</time></trkpt><trkpt lat="37.93588335046667" lon="14.09223056384058"><ele>360.0</ele><time>2026-04-19T11:15:18.001Z</time></trkpt><trkpt lat="37.93596367017989" lon="14.092313801857062"><ele>360.0</ele><time>2026-04-19T11:15:19.001Z</time></trkpt><trkpt lat="37.936036257170905" lon="14.092410297246127"><ele>360.0</ele><time>2026-04-19T11:15:20.001Z</time></trkpt><trkpt lat="37.93611458746043" lon="14.092505705593744"><ele>360.0</ele><time>2026-04-19T11:15:21.001Z</time></trkpt><trkpt lat="37.93621151260423" lon="14.092606089696735"><ele>360.0</ele><time>2026-04-19T11:15:22.001Z</time></trkpt><trkpt lat="37.9363157871146" lon="14.09272995562682"><ele>358.3333333333333</ele><time>2026-04-19T11:15:23.001Z</time></trkpt><trkpt lat="37.93643554847483" lon="14.092878620809229"><ele>356.66666666666663</ele><time>2026-04-19T11:15:24.001Z</time></trkpt><trkpt lat="37.936551381243625" lon="14.093028081848455"><ele>355.0</ele><time>2026-04-19T11:15:25.001Z</time></trkpt><trkpt lat="37.93666704021386" lon="14.093172895112408"><ele>353.66666666666663</ele><time>2026-04-19T11:15:26.001Z</time></trkpt><trkpt lat="37.93677093686922" lon="14.093315216559647"><ele>352.3333333333333</ele><time>2026-04-19T11:15:27.001Z</time></trkpt><trkpt lat="37.936882170678395" lon="14.093450785513404"><ele>351.0</ele><time>2026-04-19T11:15:28.001Z</time></trkpt><trkpt lat="37.93698724983459" lon="14.093577393281187"><ele>351.0</ele><time>2026-04-19T11:15:29.001Z</time></trkpt><trkpt lat="37.937094224713384" lon="14.093693222107879"><ele>351.0</ele><time>2026-04-19T11:15:30.001Z</time></trkpt><trkpt lat="37.937203708138995" lon="14.093795376364847"><ele>351.0</ele><time>2026-04-19T11:15:31.001Z</time></trkpt><trkpt lat="37.93731805685691" lon="14.093882456540644"><ele>351.0</ele><time>2026-04-19T11:15:32.001Z</time></trkpt><trkpt lat="37.93743766344044" lon="14.093934934865107"><ele>351.25</ele><time>2026-04-19T11:15:33.001Z</time></trkpt><trkpt lat="37.937559749891314" lon="14.093954083520963"><ele>351.5</ele><time>2026-04-19T11:15:34.001Z</time></trkpt><trkpt lat="37.937688112184425" lon="14.093952891680063"><ele>351.75</ele><time>2026-04-19T11:15:35.001Z</time></trkpt><trkpt lat="37.93783727219662" lon="14.093956276274119"><ele>352.0</ele><time>2026-04-19T11:15:36.001Z</time></trkpt><trkpt lat="37.93800677360244" lon="14.093919501422816"><ele>352.0</ele><time>2026-04-19T11:15:37.001Z</time></trkpt><trkpt lat="37.938185814042114" lon="14.093891372604533"><ele>352.0</ele><time>2026-04-19T11:15:38.001Z</time></trkpt><trkpt lat="37.938378087946795" lon="14.09385831850431"><ele>352.0</ele><time>2026-04-19T11:15:39.001Z</time></trkpt><trkpt lat="37.93858649696005" lon="14.093818947226877"><ele>349.3333333333333</ele><time>2026-04-19T11:15:40.001Z</time></trkpt><trkpt lat="37.93879955337259" lon="14.093777998893943"><ele>346.6666666666667</ele><time>2026-04-19T11:15:41.001Z</time></trkpt><trkpt lat="37.93900662220995" lon="14.093733893639968"><ele>344.0</ele><time>2026-04-19T11:15:42.002Z</time></trkpt><trkpt lat="37.93920111225672" lon="14.093692942466202"><ele>341.0</ele><time>2026-04-19T11:15:43.002Z</time></trkpt><trkpt lat="37.93938850043157" lon="14.093655292990166"><ele>338.0</ele><time>2026-04-19T11:15:44.002Z</time></trkpt><trkpt lat="37.939557353819275" lon="14.093613578035017"><ele>335.0</ele><time>2026-04-19T11:15:45.002Z</time></trkpt><trkpt lat="37.93971747833666" lon="14.093595903282088"><ele>335.0</ele><time>2026-04-19T11:15:46.002Z</time></trkpt><trkpt lat="37.93987080705927" lon="14.093563711185318"><ele>335.0</ele><time>2026-04-19T11:15:47.002Z</time></trkpt><trkpt lat="37.94001290150816" lon="14.093533877870835"><ele>335.0</ele><time>2026-04-19T11:15:48.002Z</time></trkpt><trkpt lat="37.940146567427256" lon="14.093513066597813"><ele>335.0</ele><time>2026-04-19T11:15:49.002Z</time></trkpt><trkpt lat="37.94027479479326" lon="14.093520073583935"><ele>333.5</ele><time>2026-04-19T11:15:50.002Z</time></trkpt><trkpt lat="37.94040545835479" lon="14.093561705524305"><ele>332.0</ele><time>2026-04-19T11:15:51.002Z</time></trkpt><trkpt lat="37.94054197059881" lon="14.093642833858011"><ele>330.5</ele><time>2026-04-19T11:15:52.002Z</time></trkpt><trkpt lat="37.94066059278265" lon="14.093747054223345"><ele>329.0</ele><time>2026-04-19T11:15:53.002Z</time></trkpt><trkpt lat="37.9407599313011" lon="14.093866716899484"><ele>329.0</ele><time>2026-04-19T11:15:54.002Z</time></trkpt><trkpt lat="37.94082598754174" lon="14.09401124443667"><ele>329.0</ele><time>2026-04-19T11:15:55.002Z</time></trkpt><trkpt lat="37.940858678262096" lon="14.094170932481765"><ele>329.0</ele><time>2026-04-19T11:15:56.002Z</time></trkpt><trkpt lat="37.94085656017903" lon="14.094372530569744"><ele>329.0</ele><time>2026-04-19T11:15:57.002Z</time></trkpt><trkpt lat="37.94081206479773" lon="14.094555383741811"><ele>328.0</ele><time>2026-04-19T11:15:58.002Z</time></trkpt><trkpt lat="37.94073381622014" lon="14.094736411991654"><ele>327.0</ele><time>2026-04-19T11:15:59.002Z</time></trkpt><trkpt lat="37.94064442103178" lon="14.09492836095384"><ele>326.0</ele><time>2026-04-19T11:16:00.002Z</time></trkpt><trkpt lat="37.94054307163642" lon="14.095142964840925"><ele>325.6666666666667</ele><time>2026-04-19T11:16:01.002Z</time></trkpt><trkpt lat="37.94044649475386" lon="14.095366286999765"><ele>325.3333333333333</ele><time>2026-04-19T11:16:02.002Z</time></trkpt><trkpt lat="37.94034808653404" lon="14.095597293387552"><ele>325.0</ele><time>2026-04-19T11:16:03.002Z</time></trkpt><trkpt lat="37.940243264250846" lon="14.095848126764308"><ele>325.0</ele><time>2026-04-19T11:16:04.002Z</time></trkpt><trkpt lat="37.94012907424018" lon="14.09611231366368"><ele>325.0</ele><time>2026-04-19T11:16:05.002Z</time></trkpt><trkpt lat="37.9400271356923" lon="14.096354259923476"><ele>325.0</ele><time>2026-04-19T11:16:06.002Z</time></trkpt><trkpt lat="37.93993052297488" lon="14.096574010339253"><ele>325.0</ele><time>2026-04-19T11:16:07.002Z</time></trkpt><trkpt lat="37.93983432937454" lon="14.09680167324736"><ele>325.0</ele><time>2026-04-19T11:16:08.002Z</time></trkpt><trkpt lat="37.939737944377235" lon="14.097019050277135"><ele>323.0</ele><time>2026-04-19T11:16:09.002Z</time></trkpt><trkpt lat="37.939644553066664" lon="14.097210423271502"><ele>321.0</ele><time>2026-04-19T11:16:10.002Z</time></trkpt><trkpt lat="37.93956285746033" lon="14.09738863751607"><ele>319.0</ele><time>2026-04-19T11:16:11.002Z</time></trkpt><trkpt lat="37.93952570121961" lon="14.097555276155207"><ele>317.0</ele><time>2026-04-19T11:16:12.002Z</time></trkpt><trkpt lat="37.939546348207784" lon="14.097725187830992"><ele>315.0</ele><time>2026-04-19T11:16:13.002Z</time></trkpt><trkpt lat="37.93962265587354" lon="14.097882691118592"><ele>313.0</ele><time>2026-04-19T11:16:14.003Z</time></trkpt><trkpt lat="37.939732939130764" lon="14.098008918905428"><ele>311.0</ele><time>2026-04-19T11:16:15.003Z</time></trkpt><trkpt lat="37.939860609380965" lon="14.098082865831593"><ele>311.0</ele><time>2026-04-19T11:16:16.003Z</time></trkpt><trkpt lat="37.93999980506359" lon="14.098110069811057"><ele>311.0</ele><time>2026-04-19T11:16:17.003Z</time></trkpt><trkpt lat="37.94015203011399" lon="14.098071843935573"><ele>311.0</ele><time>2026-04-19T11:16:18.003Z</time></trkpt><trkpt lat="37.94031292911213" lon="14.09801969754618"><ele>308.6666666666667</ele><time>2026-04-19T11:16:19.003Z</time></trkpt><trkpt lat="37.940483196716606" lon="14.097964696581434"><ele>306.3333333333333</ele><time>2026-04-19T11:16:20.003Z</time></trkpt><trkpt lat="37.94065823866337" lon="14.097919251188658"><ele>304.0</ele><time>2026-04-19T11:16:21.003Z</time></trkpt><trkpt lat="37.94082705799517" lon="14.097881282158799"><ele>301.0</ele><time>2026-04-19T11:16:22.003Z</time></trkpt><trkpt lat="37.940991067198084" lon="14.097852197838312"><ele>298.0</ele><time>2026-04-19T11:16:23.003Z</time></trkpt><trkpt lat="37.94114418792829" lon="14.097837065153183"><ele>295.0</ele><time>2026-04-19T11:16:24.003Z</time></trkpt><trkpt lat="37.94129234595255" lon="14.097815020242825"><ele>295.0</ele><time>2026-04-19T11:16:25.003Z</time></trkpt><trkpt lat="37.94142342753975" lon="14.097731728700607"><ele>295.0</ele><time>2026-04-19T11:16:26.003Z</time></trkpt><trkpt lat="37.94153661579719" lon="14.097635016663594"><ele>295.0</ele><time>2026-04-19T11:16:27.003Z</time></trkpt><trkpt lat="37.941633890064075" lon="14.097545473634195"><ele>295.0</ele><time>2026-04-19T11:16:28.003Z</time></trkpt><trkpt lat="37.941705726337794" lon="14.0974651532974"><ele>293.66666666666663</ele><time>2026-04-19T11:16:29.003Z</time></trkpt><trkpt lat="37.941781062333995" lon="14.097420100486787"><ele>292.3333333333333</ele><time>2026-04-19T11:16:30.003Z</time></trkpt><trkpt lat="37.941860727217254" lon="14.09734736522652"><ele>291.0</ele><time>2026-04-19T11:16:32.003Z</time></trkpt><trkpt lat="37.94191832092533" lon="14.097283593777302"><ele>289.6666666666667</ele><time>2026-04-19T11:16:35.003Z</time></trkpt><trkpt lat="37.94199919568349" lon="14.097201944769509"><ele>288.33333333333337</ele><time>2026-04-19T11:16:37Z</time></trkpt><trkpt lat="37.94205596732594" lon="14.097155323456953"><ele>287.0</ele><time>2026-04-19T11:16:38Z</time></trkpt><trkpt lat="37.94211536079867" lon="14.097110115069004"><ele>287.0</ele><time>2026-04-19T11:16:39Z</time></trkpt><trkpt lat="37.94220526030595" lon="14.097034606034665"><ele>287.0</ele><time>2026-04-19T11:16:41Z</time></trkpt><trkpt lat="37.942274267647036" lon="14.096974259061993"><ele>287.0</ele><time>2026-04-19T11:16:53Z</time></trkpt><trkpt lat="37.94239438649931" lon="14.096865226695002"><ele>287.0</ele><time>2026-04-19T11:16:55Z</time></trkpt><trkpt lat="37.942470096719795" lon="14.096806480795703"><ele>287.0</ele><time>2026-04-19T11:16:56Z</time></trkpt><trkpt lat="37.94253766858177" lon="14.09672246677176"><ele>284.2</ele><time>2026-04-19T11:16:57Z</time></trkpt><trkpt lat="37.942586662202274" lon="14.09660650481278"><ele>281.4</ele><time>2026-04-19T11:16:58Z</time></trkpt><trkpt lat="37.94259745040178" lon="14.096466478724366"><ele>278.6</ele><time>2026-04-19T11:16:59.001Z</time></trkpt><trkpt lat="37.94260513091003" lon="14.096325999517052"><ele>275.8</ele><time>2026-04-19T11:17:00.001Z</time></trkpt><trkpt lat="37.94262953619916" lon="14.0962018890909"><ele>273.0</ele><time>2026-04-19T11:17:01.001Z</time></trkpt><trkpt lat="37.94268649430597" lon="14.096100134489543"><ele>272.5</ele><time>2026-04-19T11:17:02.001Z</time></trkpt><trkpt lat="37.94278277238828" lon="14.096016128957142"><ele>272.0</ele><time>2026-04-19T11:17:03.001Z</time></trkpt><trkpt lat="37.94287471781571" lon="14.095908866870401"><ele>271.5</ele><time>2026-04-19T11:17:04.001Z</time></trkpt><trkpt lat="37.94299014245232" lon="14.095797325324012"><ele>271.0</ele><time>2026-04-19T11:17:05.001Z</time></trkpt><trkpt lat="37.943096193141976" lon="14.095688598266122"><ele>268.0</ele><time>2026-04-19T11:17:06.001Z</time></trkpt><trkpt lat="37.94320225669757" lon="14.095587007113265"><ele>265.0</ele><time>2026-04-19T11:17:07.001Z</time></trkpt><trkpt lat="37.94330981475599" lon="14.095486192010663"><ele>262.0</ele><time>2026-04-19T11:17:08.001Z</time></trkpt><trkpt lat="37.94341954673038" lon="14.095384811191837"><ele>259.0</ele><time>2026-04-19T11:17:09.001Z</time></trkpt><trkpt lat="37.943526493421516" lon="14.095283779391732"><ele>259.0</ele><time>2026-04-19T11:17:10.001Z</time></trkpt><trkpt lat="37.943628390537754" lon="14.09517609351456"><ele>259.0</ele><time>2026-04-19T11:17:11.001Z</time></trkpt><trkpt lat="37.943709981248325" lon="14.095047148125106"><ele>259.0</ele><time>2026-04-19T11:17:12.001Z</time></trkpt><trkpt lat="37.943773573753646" lon="14.094896662795557"><ele>259.0</ele><time>2026-04-19T11:17:13.001Z</time></trkpt><trkpt lat="37.94379260658755" lon="14.094728830650688"><ele>257.75</ele><time>2026-04-19T11:17:14.001Z</time></trkpt><trkpt lat="37.94380061254165" lon="14.09455864067398"><ele>256.5</ele><time>2026-04-19T11:17:15.001Z</time></trkpt><trkpt lat="37.94379363510645" lon="14.094378084069605"><ele>255.25</ele><time>2026-04-19T11:17:16.001Z</time></trkpt><trkpt lat="37.943759497756076" lon="14.094198016579758"><ele>254.0</ele><time>2026-04-19T11:17:17.001Z</time></trkpt><trkpt lat="37.9437189545864" lon="14.09402869974413"><ele>252.5</ele><time>2026-04-19T11:17:18.001Z</time></trkpt><trkpt lat="37.9436847779751" lon="14.093858959352438"><ele>251.0</ele><time>2026-04-19T11:17:19.001Z</time></trkpt><trkpt lat="37.94368422660787" lon="14.093691832106067"><ele>249.5</ele><time>2026-04-19T11:17:20.001Z</time></trkpt><trkpt lat="37.943691172875425" lon="14.09352424313312"><ele>248.0</ele><time>2026-04-19T11:17:21.001Z</time></trkpt><trkpt lat="37.94367903632662" lon="14.093364941097025"><ele>246.5</ele><time>2026-04-19T11:17:22.001Z</time></trkpt><trkpt lat="37.94363136765496" lon="14.093216023803782"><ele>245.0</ele><time>2026-04-19T11:17:23.001Z</time></trkpt><trkpt lat="37.94355237035644" lon="14.093084820422337"><ele>243.5</ele><time>2026-04-19T11:17:24.001Z</time></trkpt><trkpt lat="37.94347788383202" lon="14.092968175812587"><ele>242.0</ele><time>2026-04-19T11:17:25.001Z</time></trkpt><trkpt lat="37.94340403633334" lon="14.092849753164774"><ele>245.0</ele><time>2026-04-19T11:17:26.001Z</time></trkpt><trkpt lat="37.943337922040804" lon="14.092731587996715"><ele>248.0</ele><time>2026-04-19T11:17:27.001Z</time></trkpt><trkpt lat="37.94330492419719" lon="14.0925857472538"><ele>251.0</ele><time>2026-04-19T11:17:28.001Z</time></trkpt><trkpt lat="37.94330759031009" lon="14.092417133744823"><ele>254.0</ele><time>2026-04-19T11:17:29.002Z</time></trkpt><trkpt lat="37.94331221489064" lon="14.092249718781602"><ele>254.0</ele><time>2026-04-19T11:17:30.002Z</time></trkpt><trkpt lat="37.943302287089665" lon="14.092087227835917"><ele>254.0</ele><time>2026-04-19T11:17:31.002Z</time></trkpt><trkpt lat="37.943319266699625" lon="14.091928624881152"><ele>254.0</ele><time>2026-04-19T11:17:32.002Z</time></trkpt><trkpt lat="37.943301682031304" lon="14.091765500659717"><ele>254.0</ele><time>2026-04-19T11:17:33.002Z</time></trkpt><trkpt lat="37.943233580388295" lon="14.091601494232446"><ele>252.25</ele><time>2026-04-19T11:17:34.002Z</time></trkpt><trkpt lat="37.94312780793403" lon="14.091462150370253"><ele>250.5</ele><time>2026-04-19T11:17:35.002Z</time></trkpt><trkpt lat="37.943031873423315" lon="14.091331525567533"><ele>248.75</ele><time>2026-04-19T11:17:36.002Z</time></trkpt><trkpt lat="37.94293801681182" lon="14.091208931961868"><ele>247.0</ele><time>2026-04-19T11:17:37.002Z</time></trkpt><trkpt lat="37.94286027803524" lon="14.091082924410511"><ele>247.0</ele><time>2026-04-19T11:17:38.002Z</time></trkpt><trkpt lat="37.94280003937861" lon="14.090939328716555"><ele>247.0</ele><time>2026-04-19T11:17:39.002Z</time></trkpt><trkpt lat="37.94281431841594" lon="14.090775230191921"><ele>247.0</ele><time>2026-04-19T11:17:40.002Z</time></trkpt><trkpt lat="37.94281667365692" lon="14.090598811051631"><ele>247.0</ele><time>2026-04-19T11:17:41.002Z</time></trkpt><trkpt lat="37.94280624112457" lon="14.090414555817768"><ele>247.0</ele><time>2026-04-19T11:17:42.002Z</time></trkpt><trkpt lat="37.942810826080134" lon="14.090224603936516"><ele>247.0</ele><time>2026-04-19T11:17:43.002Z</time></trkpt><trkpt lat="37.94282988146186" lon="14.090023705997146"><ele>247.0</ele><time>2026-04-19T11:17:44.002Z</time></trkpt><trkpt lat="37.94283488187945" lon="14.089814915436646"><ele>246.66666666666666</ele><time>2026-04-19T11:17:45.002Z</time></trkpt><trkpt lat="37.94283677846453" lon="14.089611483913353"><ele>246.33333333333331</ele><time>2026-04-19T11:17:46.002Z</time></trkpt><trkpt lat="37.94283997400756" lon="14.089413801615866"><ele>246.0</ele><time>2026-04-19T11:17:47.002Z</time></trkpt><trkpt lat="37.9428441514844" lon="14.089223414931748"><ele>247.5</ele><time>2026-04-19T11:17:48.002Z</time></trkpt><trkpt lat="37.942848613407" lon="14.08904152347796"><ele>249.0</ele><time>2026-04-19T11:17:49.002Z</time></trkpt><trkpt lat="37.94291350464043" lon="14.088877032183891"><ele>250.5</ele><time>2026-04-19T11:17:50.002Z</time></trkpt><trkpt lat="37.94300757791412" lon="14.088735941551894"><ele>252.0</ele><time>2026-04-19T11:17:51.002Z</time></trkpt><trkpt lat="37.943112182827576" lon="14.088617996705269"><ele>252.0</ele><time>2026-04-19T11:17:52.002Z</time></trkpt><trkpt lat="37.9432325196801" lon="14.088500711174822"><ele>252.0</ele><time>2026-04-19T11:17:53.002Z</time></trkpt><trkpt lat="37.943354962661004" lon="14.088386440772371"><ele>252.0</ele><time>2026-04-19T11:17:54.002Z</time></trkpt><trkpt lat="37.94347298935316" lon="14.088268078896807"><ele>251.25</ele><time>2026-04-19T11:17:55.002Z</time></trkpt><trkpt lat="37.943580843770995" lon="14.088137957860228"><ele>250.5</ele><time>2026-04-19T11:17:56.002Z</time></trkpt><trkpt lat="37.94366762161641" lon="14.08798927016738"><ele>249.75</ele><time>2026-04-19T11:17:57.002Z</time></trkpt><trkpt lat="37.94375254582641" lon="14.087843827055849"><ele>249.0</ele><time>2026-04-19T11:17:58.002Z</time></trkpt><trkpt lat="37.943820586186554" lon="14.087699138920906"><ele>249.0</ele><time>2026-04-19T11:17:59.002Z</time></trkpt><trkpt lat="37.94388914873775" lon="14.087561689482976"><ele>249.0</ele><time>2026-04-19T11:18:00.003Z</time></trkpt><trkpt lat="37.94400324375543" lon="14.087489561621064"><ele>249.0</ele><time>2026-04-19T11:18:01.003Z</time></trkpt><trkpt lat="37.944130738528116" lon="14.087483270008116"><ele>249.0</ele><time>2026-04-19T11:18:02.003Z</time></trkpt><trkpt lat="37.944257813531046" lon="14.087517156251916"><ele>251.0</ele><time>2026-04-19T11:18:03.003Z</time></trkpt><trkpt lat="37.944396479549745" lon="14.087567092148316"><ele>253.0</ele><time>2026-04-19T11:18:04.003Z</time></trkpt><trkpt lat="37.94454377094021" lon="14.087623063197299"><ele>255.0</ele><time>2026-04-19T11:18:05.003Z</time></trkpt><trkpt lat="37.944705570475286" lon="14.08767797870894"><ele>255.0</ele><time>2026-04-19T11:18:06.003Z</time></trkpt><trkpt lat="37.944879946525475" lon="14.087740658753544"><ele>255.0</ele><time>2026-04-19T11:18:07.003Z</time></trkpt><trkpt lat="37.94505552551391" lon="14.087805214506483"><ele>255.0</ele><time>2026-04-19T11:18:08.003Z</time></trkpt><trkpt lat="37.945227382554535" lon="14.08786464454178"><ele>255.0</ele><time>2026-04-19T11:18:09.003Z</time></trkpt><trkpt lat="37.94540196820964" lon="14.087935027886722"><ele>255.0</ele><time>2026-04-19T11:18:10.003Z</time></trkpt><trkpt lat="37.94557905948439" lon="14.088008317809111"><ele>255.0</ele><time>2026-04-19T11:18:11.003Z</time></trkpt><trkpt lat="37.94574796252957" lon="14.088081402564516"><ele>253.0</ele><time>2026-04-19T11:18:12.003Z</time></trkpt><trkpt lat="37.94590835702261" lon="14.088093982182665"><ele>251.0</ele><time>2026-04-19T11:18:13.003Z</time></trkpt><trkpt lat="37.94606684573739" lon="14.088143578790433"><ele>249.0</ele><time>2026-04-19T11:18:14.003Z</time></trkpt><trkpt lat="37.946219826959805" lon="14.088199981114986"><ele>247.33333333333331</ele><time>2026-04-19T11:18:15.003Z</time></trkpt><trkpt lat="37.94636092535912" lon="14.088285380011902"><ele>245.66666666666666</ele><time>2026-04-19T11:18:16.003Z</time></trkpt><trkpt lat="37.94647981891638" lon="14.088412436105017"><ele>244.0</ele><time>2026-04-19T11:18:17.003Z</time></trkpt><trkpt lat="37.9465595793272" lon="14.088572805433351"><ele>244.0</ele><time>2026-04-19T11:18:18.003Z</time></trkpt><trkpt lat="37.9466035222863" lon="14.088754691677888"><ele>244.0</ele><time>2026-04-19T11:18:19.003Z</time></trkpt><trkpt lat="37.94663118831567" lon="14.088955776883486"><ele>244.0</ele><time>2026-04-19T11:18:20.003Z</time></trkpt><trkpt lat="37.94665974586082" lon="14.089164074081891"><ele>244.0</ele><time>2026-04-19T11:18:21.003Z</time></trkpt><trkpt lat="37.94669590676612" lon="14.089384272211891"><ele>244.0</ele><time>2026-04-19T11:18:22.003Z</time></trkpt><trkpt lat="37.9467311058681" lon="14.089611901281918"><ele>244.0</ele><time>2026-04-19T11:18:23.003Z</time></trkpt><trkpt lat="37.9467627445932" lon="14.089825751000848"><ele>244.66666666666666</ele><time>2026-04-19T11:18:24.003Z</time></trkpt><trkpt lat="37.946794620510715" lon="14.090039275596212"><ele>245.33333333333331</ele><time>2026-04-19T11:18:25.003Z</time></trkpt><trkpt lat="37.94683044282954" lon="14.090245025775994"><ele>246.0</ele><time>2026-04-19T11:18:26.003Z</time></trkpt><trkpt lat="37.9468656964719" lon="14.090449687937431"><ele>246.0</ele><time>2026-04-19T11:18:27.003Z</time></trkpt><trkpt lat="37.946898367171556" lon="14.090647975392534"><ele>246.0</ele><time>2026-04-19T11:18:28.003Z</time></trkpt><trkpt lat="37.94692856587421" lon="14.090840470541734"><ele>246.0</ele><time>2026-04-19T11:18:29.003Z</time></trkpt><trkpt lat="37.94695951755284" lon="14.091026062061774"><ele>245.0</ele><time>2026-04-19T11:18:30.003Z</time></trkpt><trkpt lat="37.94699027563167" lon="14.09120626306082"><ele>244.0</ele><time>2026-04-19T11:18:31.003Z</time></trkpt><trkpt lat="37.94700916424819" lon="14.091384390898458"><ele>243.0</ele><time>2026-04-19T11:18:32.004Z</time></trkpt><trkpt lat="37.946993288022284" lon="14.091562028596812"><ele>242.0</ele><time>2026-04-19T11:18:33.004Z</time></trkpt><trkpt lat="37.946945676270516" lon="14.091724112569427"><ele>241.0</ele><time>2026-04-19T11:18:34.004Z</time></trkpt><trkpt lat="37.94688839720453" lon="14.091892815092551"><ele>240.0</ele><time>2026-04-19T11:18:35.004Z</time></trkpt><trkpt lat="37.94682891953931" lon="14.092072211785034"><ele>239.0</ele><time>2026-04-19T11:18:36.004Z</time></trkpt><trkpt lat="37.94677322835219" lon="14.092245868207375"><ele>238.0</ele><time>2026-04-19T11:18:37.004Z</time></trkpt><trkpt lat="37.94671716398343" lon="14.092412611732579"><ele>235.5</ele><time>2026-04-19T11:18:38.004Z</time></trkpt><trkpt lat="37.94665978287248" lon="14.092574545305535"><ele>233.0</ele><time>2026-04-19T11:18:39.004Z</time></trkpt><trkpt lat="37.946605461282864" lon="14.09271985091841"><ele>230.5</ele><time>2026-04-19T11:18:40.004Z</time></trkpt><trkpt lat="37.946573398599746" lon="14.092857883395196"><ele>228.0</ele><time>2026-04-19T11:18:41.004Z</time></trkpt><trkpt lat="37.946599835941726" lon="14.092989262451606"><ele>228.0</ele><time>2026-04-19T11:18:42.004Z</time></trkpt><trkpt lat="37.94667354797879" lon="14.093086748835228"><ele>228.0</ele><time>2026-04-19T11:18:43.001Z</time></trkpt><trkpt lat="37.94677218618342" lon="14.093130082344324"><ele>228.0</ele><time>2026-04-19T11:18:44.001Z</time></trkpt><trkpt lat="37.946882011555026" lon="14.093129363193755"><ele>228.0</ele><time>2026-04-19T11:18:45.001Z</time></trkpt><trkpt lat="37.94697302175652" lon="14.093127367461864"><ele>228.0</ele><time>2026-04-19T11:18:46.001Z</time></trkpt><trkpt lat="37.947105296371014" lon="14.093158397909166"><ele>227.0</ele><time>2026-04-19T11:18:47.001Z</time></trkpt><trkpt lat="37.94723696524767" lon="14.093154185862018"><ele>226.0</ele><time>2026-04-19T11:18:48.001Z</time></trkpt><trkpt lat="37.94736778291186" lon="14.093197092244562"><ele>225.0</ele><time>2026-04-19T11:18:49.001Z</time></trkpt><trkpt lat="37.947494025445906" lon="14.093260202754267"><ele>224.0</ele><time>2026-04-19T11:18:50.001Z</time></trkpt><trkpt lat="37.947613614644546" lon="14.09335221650586"><ele>224.0</ele><time>2026-04-19T11:18:51.001Z</time></trkpt><trkpt lat="37.94773037220247" lon="14.09344640004156"><ele>224.0</ele><time>2026-04-19T11:18:52.001Z</time></trkpt><trkpt lat="37.94784175780268" lon="14.093550769427962"><ele>224.0</ele><time>2026-04-19T11:18:53.001Z</time></trkpt><trkpt lat="37.94792834408284" lon="14.093678731242859"><ele>224.0</ele><time>2026-04-19T11:18:54.001Z</time></trkpt><trkpt lat="37.94800377216699" lon="14.093840899698252"><ele>224.0</ele><time>2026-04-19T11:18:55.001Z</time></trkpt><trkpt lat="37.94809131046741" lon="14.094001505935697"><ele>224.0</ele><time>2026-04-19T11:18:56.001Z</time></trkpt><trkpt lat="37.948187033843865" lon="14.094160620220489"><ele>224.0</ele><time>2026-04-19T11:18:57.001Z</time></trkpt><trkpt lat="37.9482997870859" lon="14.094307680014703"><ele>220.66666666666669</ele><time>2026-04-19T11:18:58.001Z</time></trkpt><trkpt lat="37.94841611218718" lon="14.094448601056028"><ele>217.33333333333331</ele><time>2026-04-19T11:18:59.001Z</time></trkpt><trkpt lat="37.94854718623855" lon="14.094578543040202"><ele>214.0</ele><time>2026-04-19T11:19:00.001Z</time></trkpt><trkpt lat="37.948684379611564" lon="14.094688891070515"><ele>214.0</ele><time>2026-04-19T11:19:01.001Z</time></trkpt><trkpt lat="37.94881009033509" lon="14.09479669855655"><ele>214.0</ele><time>2026-04-19T11:19:02.001Z</time></trkpt><trkpt lat="37.94892840770853" lon="14.094911476175723"><ele>214.0</ele><time>2026-04-19T11:19:03.001Z</time></trkpt><trkpt lat="37.949033877456316" lon="14.09500508488542"><ele>214.0</ele><time>2026-04-19T11:19:04.001Z</time></trkpt><trkpt lat="37.949131674936986" lon="14.095057833609257"><ele>211.0</ele><time>2026-04-19T11:19:05.001Z</time></trkpt><trkpt lat="37.94924166074534" lon="14.095027425330583"><ele>208.0</ele><time>2026-04-19T11:19:06.001Z</time></trkpt><trkpt lat="37.949323090734815" lon="14.09494003621662"><ele>205.0</ele><time>2026-04-19T11:19:07.001Z</time></trkpt><trkpt lat="37.94936549092947" lon="14.094809556653205"><ele>202.0</ele><time>2026-04-19T11:19:08.001Z</time></trkpt><trkpt lat="37.9494161435584" lon="14.09466708079496"><ele>202.0</ele><time>2026-04-19T11:19:09.001Z</time></trkpt><trkpt lat="37.949507010502856" lon="14.09454927078657"><ele>202.0</ele><time>2026-04-19T11:19:10.001Z</time></trkpt><trkpt lat="37.94958113918161" lon="14.09444557351081"><ele>202.0</ele><time>2026-04-19T11:19:11.001Z</time></trkpt><trkpt lat="37.94966612262986" lon="14.094350043910126"><ele>202.0</ele><time>2026-04-19T11:19:12.001Z</time></trkpt><trkpt lat="37.94977996581425" lon="14.094315526266163"><ele>202.0</ele><time>2026-04-19T11:19:13.001Z</time></trkpt><trkpt lat="37.94988412307019" lon="14.09437719028682"><ele>202.0</ele><time>2026-04-19T11:19:14.001Z</time></trkpt><trkpt lat="37.94997939641642" lon="14.094496319555503"><ele>202.0</ele><time>2026-04-19T11:19:15.001Z</time></trkpt><trkpt lat="37.95009156106851" lon="14.09455576414766"><ele>202.0</ele><time>2026-04-19T11:19:16.001Z</time></trkpt><trkpt lat="37.95020760998643" lon="14.094633975473867"><ele>200.33333333333331</ele><time>2026-04-19T11:19:17.001Z</time></trkpt><trkpt lat="37.95032041869486" lon="14.094715965261678"><ele>198.66666666666669</ele><time>2026-04-19T11:19:18.001Z</time></trkpt><trkpt lat="37.95046256304263" lon="14.094805751037857"><ele>197.0</ele><time>2026-04-19T11:19:19.001Z</time></trkpt><trkpt lat="37.950605762497545" lon="14.094900977361805"><ele>199.0</ele><time>2026-04-19T11:19:20Z</time></trkpt><trkpt lat="37.950743726541745" lon="14.094992321669515"><ele>201.0</ele><time>2026-04-19T11:19:21Z</time></trkpt><trkpt lat="37.95087994389548" lon="14.09508229602747"><ele>203.0</ele><time>2026-04-19T11:19:22Z</time></trkpt><trkpt lat="37.95101577719024" lon="14.09516817118465"><ele>205.25</ele><time>2026-04-19T11:19:23Z</time></trkpt><trkpt lat="37.95114687596168" lon="14.095250830098786"><ele>207.5</ele><time>2026-04-19T11:19:24Z</time></trkpt><trkpt lat="37.951278881718906" lon="14.095334876858887"><ele>209.75</ele><time>2026-04-19T11:19:25Z</time></trkpt><trkpt lat="37.951405844684075" lon="14.095415039102326"><ele>212.0</ele><time>2026-04-19T11:19:26Z</time></trkpt><trkpt lat="37.951529588641705" lon="14.095493796674564"><ele>212.0</ele><time>2026-04-19T11:19:27Z</time></trkpt><trkpt lat="37.951645946543245" lon="14.095570029875935"><ele>212.0</ele><time>2026-04-19T11:19:28Z</time></trkpt><trkpt lat="37.951744232545174" lon="14.095683146881372"><ele>212.0</ele><time>2026-04-19T11:19:29.001Z</time></trkpt><trkpt lat="37.95183947377001" lon="14.095801073941912"><ele>212.0</ele><time>2026-04-19T11:19:30.001Z</time></trkpt><trkpt lat="37.95191556488937" lon="14.09591947323534"><ele>212.8</ele><time>2026-04-19T11:19:31.001Z</time></trkpt><trkpt lat="37.95192901555479" lon="14.096050124242923"><ele>213.6</ele><time>2026-04-19T11:19:32.001Z</time></trkpt><trkpt lat="37.9518927634129" lon="14.096172178060101"><ele>214.40000000000003</ele><time>2026-04-19T11:19:33.001Z</time></trkpt><trkpt lat="37.951839024261865" lon="14.09629982919432"><ele>215.20000000000002</ele><time>2026-04-19T11:19:34.001Z</time></trkpt><trkpt lat="37.951798609903705" lon="14.096446281276094"><ele>216.0</ele><time>2026-04-19T11:19:35.001Z</time></trkpt><trkpt lat="37.95175164771768" lon="14.096605695489844"><ele>214.25</ele><time>2026-04-19T11:19:36.001Z</time></trkpt><trkpt lat="37.95170206430755" lon="14.096764589913024"><ele>212.5</ele><time>2026-04-19T11:19:37.001Z</time></trkpt><trkpt lat="37.951661096815776" lon="14.096917038426206"><ele>210.75</ele><time>2026-04-19T11:19:38.001Z</time></trkpt><trkpt lat="37.95162699599017" lon="14.097060420075898"><ele>209.0</ele><time>2026-04-19T11:19:39.001Z</time></trkpt><trkpt lat="37.95161474021496" lon="14.097189864127806"><ele>209.0</ele><time>2026-04-19T11:19:40.001Z</time></trkpt><trkpt lat="37.951625979991725" lon="14.097343522839942"><ele>209.0</ele><time>2026-04-19T11:19:41.001Z</time></trkpt><trkpt lat="37.95167632684689" lon="14.097487289586217"><ele>209.0</ele><time>2026-04-19T11:19:42.001Z</time></trkpt><trkpt lat="37.95176178337644" lon="14.097606103824319"><ele>209.0</ele><time>2026-04-19T11:19:43.001Z</time></trkpt><trkpt lat="37.951868267332095" lon="14.097699133569652"><ele>210.5</ele><time>2026-04-19T11:19:44.001Z</time></trkpt><trkpt lat="37.95199158114739" lon="14.097764314936086"><ele>212.0</ele><time>2026-04-19T11:19:45.001Z</time></trkpt><trkpt lat="37.952107692703834" lon="14.097820518844465"><ele>213.5</ele><time>2026-04-19T11:19:46.001Z</time></trkpt><trkpt lat="37.95222750930709" lon="14.097871743934185"><ele>215.0</ele><time>2026-04-19T11:19:47.001Z</time></trkpt><trkpt lat="37.9523265495524" lon="14.097923414669953"><ele>215.0</ele><time>2026-04-19T11:19:48.001Z</time></trkpt><trkpt lat="37.952421229539205" lon="14.097973678042976"><ele>215.0</ele><time>2026-04-19T11:19:49.001Z</time></trkpt><trkpt lat="37.952507111712094" lon="14.098016935117654"><ele>215.0</ele><time>2026-04-19T11:19:50.001Z</time></trkpt><trkpt lat="37.952584162012116" lon="14.098058540141926"><ele>215.0</ele><time>2026-04-19T11:19:51.001Z</time></trkpt><trkpt lat="37.95265518506647" lon="14.09809355343239"><ele>215.0</ele><time>2026-04-19T11:19:52.001Z</time></trkpt><trkpt lat="37.95277796005306" lon="14.09815229001843"><ele>216.0</ele><time>2026-04-19T11:19:54.001Z</time></trkpt><trkpt lat="37.952846790124426" lon="14.09818744316247"><ele>217.0</ele><time>2026-04-19T11:19:55.001Z</time></trkpt><trkpt lat="37.95291876247153" lon="14.098232454252468"><ele>218.0</ele><time>2026-04-19T11:19:56.001Z</time></trkpt><trkpt lat="37.95300037520376" lon="14.09828135398886"><ele>219.0</ele><time>2026-04-19T11:19:57.001Z</time></trkpt><trkpt lat="37.95309014605775" lon="14.09833714769503"><ele>220.0</ele><time>2026-04-19T11:19:58.001Z</time></trkpt><trkpt lat="37.95318780121986" lon="14.098392881061576"><ele>220.75</ele><time>2026-04-19T11:19:59.001Z</time></trkpt><trkpt lat="37.95329906485569" lon="14.098453107259461"><ele>221.5</ele><time>2026-04-19T11:20:00.001Z</time></trkpt><trkpt lat="37.95341915691231" lon="14.09851103423713"><ele>222.25</ele><time>2026-04-19T11:20:01.002Z</time></trkpt><trkpt lat="37.95354638839199" lon="14.098574631604475"><ele>223.0</ele><time>2026-04-19T11:20:02.002Z</time></trkpt><trkpt lat="37.95365870987145" lon="14.098632697659509"><ele>224.75</ele><time>2026-04-19T11:20:03.002Z</time></trkpt><trkpt lat="37.953769551761546" lon="14.098691680429868"><ele>226.5</ele><time>2026-04-19T11:20:04.002Z</time></trkpt><trkpt lat="37.95388415354767" lon="14.098751416718644"><ele>228.25</ele><time>2026-04-19T11:20:05.002Z</time></trkpt><trkpt lat="37.953996313798186" lon="14.098813578363643"><ele>230.0</ele><time>2026-04-19T11:20:06.002Z</time></trkpt><trkpt lat="37.95410840521267" lon="14.098871128364728"><ele>231.5</ele><time>2026-04-19T11:20:07.002Z</time></trkpt><trkpt lat="37.954223754290595" lon="14.098928299703456"><ele>233.0</ele><time>2026-04-19T11:20:08.002Z</time></trkpt><trkpt lat="37.95433891321328" lon="14.09899002813779"><ele>234.5</ele><time>2026-04-19T11:20:09.002Z</time></trkpt><trkpt lat="37.95445169346061" lon="14.09905830692863"><ele>236.0</ele><time>2026-04-19T11:20:10.002Z</time></trkpt><trkpt lat="37.954549489213846" lon="14.099161498534766"><ele>236.0</ele><time>2026-04-19T11:20:11.002Z</time></trkpt><trkpt lat="37.9546417099615" lon="14.099278223417189"><ele>236.0</ele><time>2026-04-19T11:20:12.002Z</time></trkpt><trkpt lat="37.95472283736208" lon="14.099414889997558"><ele>236.0</ele><time>2026-04-19T11:20:13.002Z</time></trkpt><trkpt lat="37.954793194206275" lon="14.099562725247345"><ele>236.0</ele><time>2026-04-19T11:20:14.002Z</time></trkpt><trkpt lat="37.954840052372205" lon="14.09974123344416"><ele>233.66666666666669</ele><time>2026-04-19T11:20:15.002Z</time></trkpt><trkpt lat="37.95488360012173" lon="14.09993455796629"><ele>231.33333333333331</ele><time>2026-04-19T11:20:16.002Z</time></trkpt><trkpt lat="37.95492662826756" lon="14.100125904006678"><ele>229.0</ele><time>2026-04-19T11:20:17.002Z</time></trkpt><trkpt lat="37.95497505997598" lon="14.1003199833237"><ele>229.0</ele><time>2026-04-19T11:20:18.002Z</time></trkpt><trkpt lat="37.95502126113771" lon="14.100513468329021"><ele>229.0</ele><time>2026-04-19T11:20:19.002Z</time></trkpt><trkpt lat="37.95506792054862" lon="14.100705979840622"><ele>229.0</ele><time>2026-04-19T11:20:20.002Z</time></trkpt><trkpt lat="37.95511537230604" lon="14.100899000612616"><ele>234.0</ele><time>2026-04-19T11:20:21.002Z</time></trkpt><trkpt lat="37.95516882025398" lon="14.1010920670961"><ele>239.0</ele><time>2026-04-19T11:20:22.002Z</time></trkpt><trkpt lat="37.955215269566025" lon="14.101281847818889"><ele>244.0</ele><time>2026-04-19T11:20:23.002Z</time></trkpt><trkpt lat="37.95525927600452" lon="14.101469662110974"><ele>244.25</ele><time>2026-04-19T11:20:24.002Z</time></trkpt><trkpt lat="37.95530533539216" lon="14.101649306533371"><ele>244.5</ele><time>2026-04-19T11:20:25.002Z</time></trkpt><trkpt lat="37.95534638155741" lon="14.101821007654776"><ele>244.75</ele><time>2026-04-19T11:20:26.002Z</time></trkpt><trkpt lat="37.955387553087405" lon="14.101982470209169"><ele>245.0</ele><time>2026-04-19T11:20:27.002Z</time></trkpt><trkpt lat="37.95542807872268" lon="14.102138137743275"><ele>245.0</ele><time>2026-04-19T11:20:28.002Z</time></trkpt><trkpt lat="37.95548220908187" lon="14.102277693382481"><ele>245.0</ele><time>2026-04-19T11:20:29.002Z</time></trkpt><trkpt lat="37.95557094989845" lon="14.102386189806648"><ele>245.0</ele><time>2026-04-19T11:20:30.002Z</time></trkpt><trkpt lat="37.955694068055195" lon="14.102453494436716"><ele>245.0</ele><time>2026-04-19T11:20:31.002Z</time></trkpt><trkpt lat="37.95582802558261" lon="14.102463413047497"><ele>245.0</ele><time>2026-04-19T11:20:32.002Z</time></trkpt><trkpt lat="37.95596122148416" lon="14.102409135028656"><ele>245.0</ele><time>2026-04-19T11:20:33.003Z</time></trkpt><trkpt lat="37.95608129618897" lon="14.102325963253985"><ele>245.0</ele><time>2026-04-19T11:20:34.003Z</time></trkpt><trkpt lat="37.95619549827197" lon="14.102232987415396"><ele>245.0</ele><time>2026-04-19T11:20:35.003Z</time></trkpt><trkpt lat="37.95631638700431" lon="14.102150997874487"><ele>245.0</ele><time>2026-04-19T11:20:36.003Z</time></trkpt><trkpt lat="37.95644598316534" lon="14.102087128356501"><ele>245.0</ele><time>2026-04-19T11:20:37.003Z</time></trkpt><trkpt lat="37.95658248044497" lon="14.102041411122139"><ele>245.0</ele><time>2026-04-19T11:20:38.003Z</time></trkpt><trkpt lat="37.95672362586956" lon="14.102020869137784"><ele>245.0</ele><time>2026-04-19T11:20:39.003Z</time></trkpt><trkpt lat="37.956864288500846" lon="14.10206085462427"><ele>246.75</ele><time>2026-04-19T11:20:40.003Z</time></trkpt><trkpt lat="37.957003700524666" lon="14.102090839405468"><ele>248.5</ele><time>2026-04-19T11:20:41.003Z</time></trkpt><trkpt lat="37.95713598233111" lon="14.102165772146959"><ele>250.25</ele><time>2026-04-19T11:20:42.003Z</time></trkpt><trkpt lat="37.957265753060085" lon="14.10224209890151"><ele>252.0</ele><time>2026-04-19T11:20:43.003Z</time></trkpt><trkpt lat="37.95739676859169" lon="14.102308850242505"><ele>252.0</ele><time>2026-04-19T11:20:44.003Z</time></trkpt><trkpt lat="37.9575310250592" lon="14.102368406767717"><ele>252.0</ele><time>2026-04-19T11:20:45.003Z</time></trkpt><trkpt lat="37.95767508621314" lon="14.102413757651432"><ele>252.0</ele><time>2026-04-19T11:20:46.003Z</time></trkpt><trkpt lat="37.957822689294744" lon="14.10244343346186"><ele>252.0</ele><time>2026-04-19T11:20:47.003Z</time></trkpt><trkpt lat="37.95797554515367" lon="14.102465411348522"><ele>249.66666666666669</ele><time>2026-04-19T11:20:48.003Z</time></trkpt><trkpt lat="37.95812979640952" lon="14.102467423682866"><ele>247.33333333333334</ele><time>2026-04-19T11:20:49Z</time></trkpt><trkpt lat="37.958287946574714" lon="14.102457012016457"><ele>245.0</ele><time>2026-04-19T11:20:50Z</time></trkpt><trkpt lat="37.95844667363843" lon="14.102440222554522"><ele>244.66666666666669</ele><time>2026-04-19T11:20:51Z</time></trkpt><trkpt lat="37.95860188786391" lon="14.102430585030111"><ele>244.33333333333331</ele><time>2026-04-19T11:20:52Z</time></trkpt><trkpt lat="37.958757281748035" lon="14.102420326788524"><ele>244.0</ele><time>2026-04-19T11:20:53Z</time></trkpt><trkpt lat="37.95890918647151" lon="14.102414513647131"><ele>248.33333333333331</ele><time>2026-04-19T11:20:54Z</time></trkpt><trkpt lat="37.9590664494518" lon="14.102405847398629"><ele>252.66666666666669</ele><time>2026-04-19T11:20:55Z</time></trkpt><trkpt lat="37.959220093535784" lon="14.102397986575452"><ele>257.0</ele><time>2026-04-19T11:20:56Z</time></trkpt><trkpt lat="37.95937104036134" lon="14.102391548741062"><ele>257.0</ele><time>2026-04-19T11:20:57Z</time></trkpt><trkpt lat="37.95951779949728" lon="14.102384779544822"><ele>257.0</ele><time>2026-04-19T11:20:58Z</time></trkpt><trkpt lat="37.95966037020773" lon="14.102358206807068"><ele>257.0</ele><time>2026-04-19T11:20:59Z</time></trkpt><trkpt lat="37.959793386608894" lon="14.102304809559215"><ele>257.0</ele><time>2026-04-19T11:21:00Z</time></trkpt><trkpt lat="37.959914201327734" lon="14.1021998981536"><ele>257.0</ele><time>2026-04-19T11:21:01Z</time></trkpt><trkpt lat="37.960019510187955" lon="14.102064832910155"><ele>257.0</ele><time>2026-04-19T11:21:02Z</time></trkpt><trkpt lat="37.96011775894308" lon="14.10191961689367"><ele>257.0</ele><time>2026-04-19T11:21:03Z</time></trkpt><trkpt lat="37.96023750782211" lon="14.101809775776841"><ele>257.0</ele><time>2026-04-19T11:21:04Z</time></trkpt><trkpt lat="37.96035232575892" lon="14.101697262190722"><ele>255.75</ele><time>2026-04-19T11:21:05Z</time></trkpt><trkpt lat="37.96048243918253" lon="14.10161777092952"><ele>254.5</ele><time>2026-04-19T11:21:06Z</time></trkpt><trkpt lat="37.960620390133585" lon="14.101582597920183"><ele>253.25</ele><time>2026-04-19T11:21:07Z</time></trkpt><trkpt lat="37.960757593930055" lon="14.10163877817854"><ele>252.0</ele><time>2026-04-19T11:21:08Z</time></trkpt><trkpt lat="37.96089709867068" lon="14.101691667083303"><ele>251.25</ele><time>2026-04-19T11:21:09Z</time></trkpt><trkpt lat="37.96102626379889" lon="14.10176900721405"><ele>250.5</ele><time>2026-04-19T11:21:10Z</time></trkpt><trkpt lat="37.96116226937882" lon="14.101835221014749"><ele>249.75</ele><time>2026-04-19T11:21:11Z</time></trkpt><trkpt lat="37.96129293372178" lon="14.101888800194114"><ele>249.0</ele><time>2026-04-19T11:21:12Z</time></trkpt><trkpt lat="37.96142223637502" lon="14.101925697442256"><ele>249.0</ele><time>2026-04-19T11:21:13Z</time></trkpt><trkpt lat="37.96154774037843" lon="14.101943418835411"><ele>249.0</ele><time>2026-04-19T11:21:14Z</time></trkpt><trkpt lat="37.96165550130229" lon="14.101886474562715"><ele>249.0</ele><time>2026-04-19T11:21:15Z</time></trkpt><trkpt lat="37.96173450256354" lon="14.101758103558318"><ele>249.0</ele><time>2026-04-19T11:21:16Z</time></trkpt><trkpt lat="37.96176141825538" lon="14.101594510628548"><ele>249.75</ele><time>2026-04-19T11:21:17Z</time></trkpt><trkpt lat="37.96177812412918" lon="14.101421664978613"><ele>250.5</ele><time>2026-04-19T11:21:18Z</time></trkpt><trkpt lat="37.96177547806108" lon="14.10124757062518"><ele>251.25</ele><time>2026-04-19T11:21:19Z</time></trkpt><trkpt lat="37.96177294436151" lon="14.101080869324136"><ele>252.0</ele><time>2026-04-19T11:21:20Z</time></trkpt><trkpt lat="37.96177194272906" lon="14.100914461952724"><ele>252.0</ele><time>2026-04-19T11:21:21Z</time></trkpt><trkpt lat="37.961773460734435" lon="14.100756725668884"><ele>252.0</ele><time>2026-04-19T11:21:22Z</time></trkpt><trkpt lat="37.96179066744786" lon="14.100605659440841"><ele>252.0</ele><time>2026-04-19T11:21:23Z</time></trkpt><trkpt lat="37.9618273459739" lon="14.100439693151003"><ele>252.0</ele><time>2026-04-19T11:21:24Z</time></trkpt><trkpt lat="37.96187233818473" lon="14.100287849205454"><ele>252.75</ele><time>2026-04-19T11:21:25Z</time></trkpt><trkpt lat="37.961919789822005" lon="14.100127179616884"><ele>253.5</ele><time>2026-04-19T11:21:26.001Z</time></trkpt><trkpt lat="37.96196784852235" lon="14.099964708086786"><ele>254.25</ele><time>2026-04-19T11:21:27.001Z</time></trkpt><trkpt lat="37.96201575012666" lon="14.099802885672501"><ele>255.0</ele><time>2026-04-19T11:21:28.001Z</time></trkpt><trkpt lat="37.96206244722432" lon="14.099641143869277"><ele>256.25</ele><time>2026-04-19T11:21:29.001Z</time></trkpt><trkpt lat="37.96210887950878" lon="14.099472765676108"><ele>257.5</ele><time>2026-04-19T11:21:30.001Z</time></trkpt><trkpt lat="37.96214086131809" lon="14.09930493590042"><ele>258.75</ele><time>2026-04-19T11:21:31.001Z</time></trkpt><trkpt lat="37.96217914233659" lon="14.099146652347779"><ele>260.0</ele><time>2026-04-19T11:21:32.001Z</time></trkpt><trkpt lat="37.96222564191078" lon="14.098991868838537"><ele>261.75</ele><time>2026-04-19T11:21:33.001Z</time></trkpt><trkpt lat="37.96223842997099" lon="14.09882723640503"><ele>263.5</ele><time>2026-04-19T11:21:34.001Z</time></trkpt><trkpt lat="37.962233170992725" lon="14.09866488758731"><ele>265.25</ele><time>2026-04-19T11:21:35.001Z</time></trkpt><trkpt lat="37.96222020386421" lon="14.098513733099166"><ele>267.0</ele><time>2026-04-19T11:21:36.001Z</time></trkpt><trkpt lat="37.9622146666386" lon="14.098380631592294"><ele>267.0</ele><time>2026-04-19T11:21:37.001Z</time></trkpt><trkpt lat="37.96223429505353" lon="14.098270536987881"><ele>267.0</ele><time>2026-04-19T11:21:38.001Z</time></trkpt><trkpt lat="37.96230840446572" lon="14.098226679778778"><ele>267.0</ele><time>2026-04-19T11:21:39.001Z</time></trkpt><trkpt lat="37.962397906103654" lon="14.098225025202936"><ele>267.0</ele><time>2026-04-19T11:21:40.001Z</time></trkpt><trkpt lat="37.96249907023749" lon="14.09825845423389"><ele>267.0</ele><time>2026-04-19T11:21:41.001Z</time></trkpt><trkpt lat="37.962590793905306" lon="14.098331662209233"><ele>274.25</ele><time>2026-04-19T11:21:42.001Z</time></trkpt><trkpt lat="37.96267436139341" lon="14.098447529615763"><ele>281.5</ele><time>2026-04-19T11:21:43.001Z</time></trkpt><trkpt lat="37.96272929096471" lon="14.09858607560164"><ele>288.75</ele><time>2026-04-19T11:21:44.001Z</time></trkpt><trkpt lat="37.962787791141345" lon="14.09871617105204"><ele>296.0</ele><time>2026-04-19T11:21:45.001Z</time></trkpt><trkpt lat="37.962851764375955" lon="14.098845284250952"><ele>296.0</ele><time>2026-04-19T11:21:46.001Z</time></trkpt><trkpt lat="37.96291365008786" lon="14.098979610863088"><ele>296.0</ele><time>2026-04-19T11:21:47.001Z</time></trkpt><trkpt lat="37.962966471375005" lon="14.099119067123658"><ele>296.0</ele><time>2026-04-19T11:21:48.001Z</time></trkpt><trkpt lat="37.963030136757105" lon="14.09925407301748"><ele>296.0</ele><time>2026-04-19T11:21:49.001Z</time></trkpt><trkpt lat="37.96309554887074" lon="14.099388754145595"><ele>292.25</ele><time>2026-04-19T11:21:50.001Z</time></trkpt><trkpt lat="37.9631617048642" lon="14.09952314016137"><ele>288.5</ele><time>2026-04-19T11:21:51.001Z</time></trkpt><trkpt lat="37.963222493149964" lon="14.099657163359835"><ele>284.75</ele><time>2026-04-19T11:21:52.001Z</time></trkpt><trkpt lat="37.96328495472968" lon="14.099794778678872"><ele>281.0</ele><time>2026-04-19T11:21:53.001Z</time></trkpt><trkpt lat="37.963348199498704" lon="14.099931775853646"><ele>284.25</ele><time>2026-04-19T11:21:54.001Z</time></trkpt><trkpt lat="37.96341463086005" lon="14.10006952431463"><ele>287.5</ele><time>2026-04-19T11:21:55.001Z</time></trkpt><trkpt lat="37.96348175661952" lon="14.100207917812332"><ele>290.75</ele><time>2026-04-19T11:21:56.001Z</time></trkpt><trkpt lat="37.96354220124843" lon="14.100350897872861"><ele>294.0</ele><time>2026-04-19T11:21:57.001Z</time></trkpt><trkpt lat="37.96360759175183" lon="14.100490860842987"><ele>294.0</ele><time>2026-04-19T11:21:58.002Z</time></trkpt><trkpt lat="37.96368867022088" lon="14.10061438119652"><ele>294.0</ele><time>2026-04-19T11:21:59.002Z</time></trkpt><trkpt lat="37.9638001801073" lon="14.100710544239128"><ele>294.0</ele><time>2026-04-19T11:22:00.002Z</time></trkpt><trkpt lat="37.9639288222458" lon="14.100795761801534"><ele>294.0</ele><time>2026-04-19T11:22:01.002Z</time></trkpt><trkpt lat="37.964058819009054" lon="14.100878927227429"><ele>296.25</ele><time>2026-04-19T11:22:02.002Z</time></trkpt><trkpt lat="37.96418291233148" lon="14.10096331917972"><ele>298.5</ele><time>2026-04-19T11:22:03.002Z</time></trkpt><trkpt lat="37.964304359576" lon="14.101051840043855"><ele>300.75</ele><time>2026-04-19T11:22:04.002Z</time></trkpt><trkpt lat="37.96442480173968" lon="14.101140358504523"><ele>303.0</ele><time>2026-04-19T11:22:05.002Z</time></trkpt><trkpt lat="37.96454656718288" lon="14.10122355315955"><ele>303.0</ele><time>2026-04-19T11:22:06.002Z</time></trkpt><trkpt lat="37.96466594109576" lon="14.101304190866937"><ele>303.0</ele><time>2026-04-19T11:22:07.002Z</time></trkpt><trkpt lat="37.96478993508887" lon="14.101374350620445"><ele>303.0</ele><time>2026-04-19T11:22:08.002Z</time></trkpt><trkpt lat="37.964927852511394" lon="14.101411225067059"><ele>303.0</ele><time>2026-04-19T11:22:09.002Z</time></trkpt><trkpt lat="37.965071126324524" lon="14.101435446187722"><ele>307.5</ele><time>2026-04-19T11:22:10.002Z</time></trkpt><trkpt lat="37.96521117149433" lon="14.10145753864447"><ele>312.0</ele><time>2026-04-19T11:22:11.002Z</time></trkpt><trkpt lat="37.96535282054555" lon="14.101485181589553"><ele>316.5</ele><time>2026-04-19T11:22:12.002Z</time></trkpt><trkpt lat="37.96548956876624" lon="14.101509040946928"><ele>321.0</ele><time>2026-04-19T11:22:13.002Z</time></trkpt><trkpt lat="37.96561352790402" lon="14.10152923980469"><ele>321.0</ele><time>2026-04-19T11:22:14.002Z</time></trkpt><trkpt lat="37.96572347989218" lon="14.101553752922028"><ele>321.0</ele><time>2026-04-19T11:22:15.002Z</time></trkpt><trkpt lat="37.965821605659485" lon="14.101571604222771"><ele>321.0</ele><time>2026-04-19T11:22:16.002Z</time></trkpt><trkpt lat="37.965915519758454" lon="14.101595039601108"><ele>321.0</ele><time>2026-04-19T11:22:17.002Z</time></trkpt><trkpt lat="37.96599023357825" lon="14.101649819558453"><ele>321.0</ele><time>2026-04-19T11:22:18.002Z</time></trkpt><trkpt lat="37.96603797074655" lon="14.101740574734274"><ele>317.0</ele><time>2026-04-19T11:22:19.002Z</time></trkpt><trkpt lat="37.96605145028924" lon="14.101850505485872"><ele>313.0</ele><time>2026-04-19T11:22:20.002Z</time></trkpt><trkpt lat="37.96602607690044" lon="14.101970392781315"><ele>309.0</ele><time>2026-04-19T11:22:21.002Z</time></trkpt><trkpt lat="37.965990695705216" lon="14.102097589232217"><ele>305.0</ele><time>2026-04-19T11:22:22.002Z</time></trkpt><trkpt lat="37.96595268079134" lon="14.102229126494729"><ele>301.0</ele><time>2026-04-19T11:22:23.002Z</time></trkpt><trkpt lat="37.96591381493249" lon="14.102378981249108"><ele>303.75</ele><time>2026-04-19T11:22:24.002Z</time></trkpt><trkpt lat="37.96587823516637" lon="14.102534013614699"><ele>306.5</ele><time>2026-04-19T11:22:25.002Z</time></trkpt><trkpt lat="37.965842583146525" lon="14.102675501326846"><ele>309.25</ele><time>2026-04-19T11:22:26.002Z</time></trkpt><trkpt lat="37.9657862760829" lon="14.102806165185404"><ele>312.0</ele><time>2026-04-19T11:22:27.002Z</time></trkpt><trkpt lat="37.96570152380264" lon="14.102909852201922"><ele>310.25</ele><time>2026-04-19T11:22:28.002Z</time></trkpt><trkpt lat="37.965588188166244" lon="14.102984451824943"><ele>308.5</ele><time>2026-04-19T11:22:29.002Z</time></trkpt><trkpt lat="37.965469348357956" lon="14.103059136861082"><ele>306.75</ele><time>2026-04-19T11:22:30.003Z</time></trkpt><trkpt lat="37.96535348885707" lon="14.10315385414539"><ele>305.0</ele><time>2026-04-19T11:22:31.003Z</time></trkpt><trkpt lat="37.965250400701834" lon="14.103265045373515"><ele>305.0</ele><time>2026-04-19T11:22:32.003Z</time></trkpt><trkpt lat="37.965153750251034" lon="14.103374608053093"><ele>305.0</ele><time>2026-04-19T11:22:33.003Z</time></trkpt><trkpt lat="37.96507135460432" lon="14.103491394514135"><ele>305.0</ele><time>2026-04-19T11:22:34.003Z</time></trkpt><trkpt lat="37.965017854832666" lon="14.103630025969832"><ele>305.0</ele><time>2026-04-19T11:22:35.003Z</time></trkpt><trkpt lat="37.96500205024324" lon="14.103787307733823"><ele>307.0</ele><time>2026-04-19T11:22:36.003Z</time></trkpt><trkpt lat="37.96498489824996" lon="14.10393456462991"><ele>309.0</ele><time>2026-04-19T11:22:37.003Z</time></trkpt><trkpt lat="37.96504499709759" lon="14.104087269706497"><ele>311.0</ele><time>2026-04-19T11:22:38.003Z</time></trkpt><trkpt lat="37.965144837211845" lon="14.104214277129554"><ele>313.0</ele><time>2026-04-19T11:22:39.003Z</time></trkpt><trkpt lat="37.965258629806534" lon="14.104315615299967"><ele>313.0</ele><time>2026-04-19T11:22:40.003Z</time></trkpt><trkpt lat="37.96537301342316" lon="14.104414196288262"><ele>313.0</ele><time>2026-04-19T11:22:41.003Z</time></trkpt><trkpt lat="37.96548683763584" lon="14.1045163739951"><ele>313.0</ele><time>2026-04-19T11:22:42.003Z</time></trkpt><trkpt lat="37.965603721433" lon="14.10457900542125"><ele>313.0</ele><time>2026-04-19T11:22:43.003Z</time></trkpt><trkpt lat="37.96573720865467" lon="14.104593397096565"><ele>316.5</ele><time>2026-04-19T11:22:44.003Z</time></trkpt><trkpt lat="37.965867031272985" lon="14.104604351235114"><ele>320.0</ele><time>2026-04-19T11:22:45.003Z</time></trkpt><trkpt lat="37.96599155552176" lon="14.104642756290543"><ele>323.5</ele><time>2026-04-19T11:22:46.003Z</time></trkpt><trkpt lat="37.966104410738794" lon="14.104710763107494"><ele>327.0</ele><time>2026-04-19T11:22:47.003Z</time></trkpt><trkpt lat="37.96620869382978" lon="14.104786322780523"><ele>327.0</ele><time>2026-04-19T11:22:48.003Z</time></trkpt><trkpt lat="37.96630325990607" lon="14.104857683252401"><ele>327.0</ele><time>2026-04-19T11:22:49.003Z</time></trkpt><trkpt lat="37.96637106825707" lon="14.10493698901215"><ele>327.0</ele><time>2026-04-19T11:22:50.003Z</time></trkpt><trkpt lat="37.96643325515764" lon="14.105019961795612"><ele>327.0</ele><time>2026-04-19T11:22:51.003Z</time></trkpt><trkpt lat="37.9664769205372" lon="14.105086126075873"><ele>327.0</ele><time>2026-04-19T11:22:52.003Z</time></trkpt><trkpt lat="37.96648529309558" lon="14.10517230868771"><ele>327.0</ele><time>2026-04-19T11:22:54.003Z</time></trkpt><trkpt lat="37.96638056440424" lon="14.105191074484155"><ele>324.75</ele><time>2026-04-19T11:22:55Z</time></trkpt><trkpt lat="37.96651850946707" lon="14.10527896680668"><ele>322.5</ele><time>2026-04-19T11:25:20Z</time></trkpt><trkpt lat="37.966590597589885" lon="14.105235812936552"><ele>320.25</ele><time>2026-04-19T11:25:23Z</time></trkpt><trkpt lat="37.96668557042325" lon="14.105251843862051"><ele>318.0</ele><time>2026-04-19T11:25:26.001Z</time></trkpt><trkpt lat="37.96677432262606" lon="14.105363558651398"><ele>318.0</ele><time>2026-04-19T11:25:28.001Z</time></trkpt><trkpt lat="37.96682720400797" lon="14.105414754246086"><ele>318.0</ele><time>2026-04-19T11:25:29.001Z</time></trkpt><trkpt lat="37.96687560016741" lon="14.105467012355081"><ele>318.0</ele><time>2026-04-19T11:25:30.001Z</time></trkpt><trkpt lat="37.96692793719453" lon="14.105519760046137"><ele>318.0</ele><time>2026-04-19T11:25:31.001Z</time></trkpt><trkpt lat="37.96698231218751" lon="14.105573775197584"><ele>318.0</ele><time>2026-04-19T11:25:32.001Z</time></trkpt><trkpt lat="37.967036686158714" lon="14.105631091979012"><ele>318.0</ele><time>2026-04-19T11:25:33.001Z</time></trkpt><trkpt lat="37.9670914199067" lon="14.105691261096549"><ele>318.0</ele><time>2026-04-19T11:25:34.001Z</time></trkpt><trkpt lat="37.967146997823434" lon="14.105755406321457"><ele>316.3333333333333</ele><time>2026-04-19T11:25:35.001Z</time></trkpt><trkpt lat="37.967207211958026" lon="14.105821607120136"><ele>314.6666666666667</ele><time>2026-04-19T11:25:36.001Z</time></trkpt><trkpt lat="37.96727007866839" lon="14.10588552079812"><ele>313.0</ele><time>2026-04-19T11:25:37.001Z</time></trkpt><trkpt lat="37.96733278907523" lon="14.10594846680643"><ele>311.33333333333337</ele><time>2026-04-19T11:25:38.001Z</time></trkpt><trkpt lat="37.96739779052251" lon="14.106010004114431"><ele>309.6666666666667</ele><time>2026-04-19T11:25:39.001Z</time></trkpt><trkpt lat="37.96746925776127" lon="14.106060943900792"><ele>308.0</ele><time>2026-04-19T11:25:40.001Z</time></trkpt><trkpt lat="37.967546883996555" lon="14.106104884900986"><ele>305.5</ele><time>2026-04-19T11:25:41.001Z</time></trkpt><trkpt lat="37.96762908082575" lon="14.106135836756485"><ele>303.0</ele><time>2026-04-19T11:25:42.001Z</time></trkpt><trkpt lat="37.96771106025812" lon="14.106168106139782"><ele>300.5</ele><time>2026-04-19T11:25:43.001Z</time></trkpt><trkpt lat="37.96779902268765" lon="14.106193202938432"><ele>298.0</ele><time>2026-04-19T11:25:44.001Z</time></trkpt><trkpt lat="37.96788872069427" lon="14.10621189295491"><ele>295.5</ele><time>2026-04-19T11:25:45.001Z</time></trkpt><trkpt lat="37.96798253920416" lon="14.106218761645621"><ele>293.0</ele><time>2026-04-19T11:25:46.001Z</time></trkpt><trkpt lat="37.96807458350731" lon="14.106210019484095"><ele>293.0</ele><time>2026-04-19T11:25:47.001Z</time></trkpt><trkpt lat="37.968178439292224" lon="14.106203157116358"><ele>293.0</ele><time>2026-04-19T11:25:48.001Z</time></trkpt><trkpt lat="37.9682816010125" lon="14.106199471853467"><ele>293.0</ele><time>2026-04-19T11:25:49.001Z</time></trkpt><trkpt lat="37.96838309822571" lon="14.10619523308312"><ele>293.0</ele><time>2026-04-19T11:25:50.001Z</time></trkpt><trkpt lat="37.96848680809898" lon="14.106205492704369"><ele>293.0</ele><time>2026-04-19T11:25:51.001Z</time></trkpt><trkpt lat="37.9685873723107" lon="14.106254478347257"><ele>291.0</ele><time>2026-04-19T11:25:52.001Z</time></trkpt><trkpt lat="37.96867478801282" lon="14.106338483956973"><ele>289.0</ele><time>2026-04-19T11:25:53.001Z</time></trkpt><trkpt lat="37.96874287722797" lon="14.106448230645583"><ele>287.0</ele><time>2026-04-19T11:25:54.001Z</time></trkpt><trkpt lat="37.968793045770255" lon="14.106572706802062"><ele>285.0</ele><time>2026-04-19T11:25:55.001Z</time></trkpt><trkpt lat="37.968841710707125" lon="14.10669780708976"><ele>283.0</ele><time>2026-04-19T11:25:56.001Z</time></trkpt><trkpt lat="37.968909917786895" lon="14.106803762094097"><ele>285.8</ele><time>2026-04-19T11:25:57.001Z</time></trkpt><trkpt lat="37.96900206873246" lon="14.106847603281937"><ele>288.6</ele><time>2026-04-19T11:25:58.001Z</time></trkpt><trkpt lat="37.96909817870737" lon="14.106805624936449"><ele>291.4</ele><time>2026-04-19T11:25:59.001Z</time></trkpt><trkpt lat="37.9691627299732" lon="14.10669534019886"><ele>294.2</ele><time>2026-04-19T11:26:00.001Z</time></trkpt><trkpt lat="37.96923424453306" lon="14.106611760545771"><ele>297.0</ele><time>2026-04-19T11:26:01.001Z</time></trkpt><trkpt lat="37.96929208240935" lon="14.106519749539682"><ele>297.0</ele><time>2026-04-19T11:26:02.001Z</time></trkpt><trkpt lat="37.96935460303459" lon="14.106421304854683"><ele>297.0</ele><time>2026-04-19T11:26:03.001Z</time></trkpt><trkpt lat="37.96941835740725" lon="14.1063221428488"><ele>297.0</ele><time>2026-04-19T11:26:04.001Z</time></trkpt><trkpt lat="37.96947154545727" lon="14.106208476196807"><ele>297.0</ele><time>2026-04-19T11:26:05.001Z</time></trkpt><trkpt lat="37.969536474033454" lon="14.106099842285348"><ele>297.0</ele><time>2026-04-19T11:26:06.001Z</time></trkpt><trkpt lat="37.96961337314294" lon="14.105996902677187"><ele>297.0</ele><time>2026-04-19T11:26:07.002Z</time></trkpt><trkpt lat="37.96965499363988" lon="14.10585931606131"><ele>297.0</ele><time>2026-04-19T11:26:08.002Z</time></trkpt><trkpt lat="37.9697165505943" lon="14.105733483869548"><ele>297.0</ele><time>2026-04-19T11:26:09.002Z</time></trkpt><trkpt lat="37.96976552862817" lon="14.105603077858351"><ele>297.0</ele><time>2026-04-19T11:26:10.002Z</time></trkpt><trkpt lat="37.96980805902357" lon="14.105467400866813"><ele>291.0</ele><time>2026-04-19T11:26:11.002Z</time></trkpt><trkpt lat="37.96989254022594" lon="14.105367074024654"><ele>285.0</ele><time>2026-04-19T11:26:12.002Z</time></trkpt><trkpt lat="37.970003206566616" lon="14.105314438917915"><ele>279.0</ele><time>2026-04-19T11:26:13.002Z</time></trkpt><trkpt lat="37.970108184278956" lon="14.105239624718935"><ele>273.0</ele><time>2026-04-19T11:26:14.002Z</time></trkpt><trkpt lat="37.97021775074217" lon="14.105182679770277"><ele>273.0</ele><time>2026-04-19T11:26:15.002Z</time></trkpt><trkpt lat="37.97033259411207" lon="14.105120409955157"><ele>273.0</ele><time>2026-04-19T11:26:16.002Z</time></trkpt><trkpt lat="37.97045116377308" lon="14.105074075999681"><ele>273.0</ele><time>2026-04-19T11:26:17.002Z</time></trkpt><trkpt lat="37.97055369132299" lon="14.105004081783449"><ele>273.0</ele><time>2026-04-19T11:26:18.002Z</time></trkpt><trkpt lat="37.97066555643311" lon="14.105001393221874"><ele>273.0</ele><time>2026-04-19T11:26:19.002Z</time></trkpt><trkpt lat="37.97077341399371" lon="14.105066037692774"><ele>273.0</ele><time>2026-04-19T11:26:20.002Z</time></trkpt><trkpt lat="37.97086182321193" lon="14.105163908160458"><ele>273.0</ele><time>2026-04-19T11:26:21.002Z</time></trkpt><trkpt lat="37.97095264862141" lon="14.105253372254346"><ele>273.0</ele><time>2026-04-19T11:26:22.002Z</time></trkpt><trkpt lat="37.97106912847996" lon="14.105282189784855"><ele>271.6666666666667</ele><time>2026-04-19T11:26:23.002Z</time></trkpt><trkpt lat="37.971180920059155" lon="14.105254196938404"><ele>270.3333333333333</ele><time>2026-04-19T11:26:24.002Z</time></trkpt><trkpt lat="37.971266632380754" lon="14.105221470597684"><ele>269.0</ele><time>2026-04-19T11:26:25.002Z</time></trkpt><trkpt lat="37.97134468611021" lon="14.105211544555107"><ele>267.66666666666663</ele><time>2026-04-19T11:26:26.002Z</time></trkpt><trkpt lat="37.97141938001655" lon="14.105229617790036"><ele>266.3333333333333</ele><time>2026-04-19T11:26:27.002Z</time></trkpt><trkpt lat="37.97149079842848" lon="14.10527009364355"><ele>265.0</ele><time>2026-04-19T11:26:28.002Z</time></trkpt><trkpt lat="37.97155572853769" lon="14.10533703144952"><ele>265.0</ele><time>2026-04-19T11:26:29.002Z</time></trkpt><trkpt lat="37.971605866926446" lon="14.105428295227878"><ele>265.0</ele><time>2026-04-19T11:26:30.002Z</time></trkpt><trkpt lat="37.97164627186317" lon="14.105527668347081"><ele>265.0</ele><time>2026-04-19T11:26:31.002Z</time></trkpt><trkpt lat="37.97168563943456" lon="14.105626977006477"><ele>265.0</ele><time>2026-04-19T11:26:32.002Z</time></trkpt><trkpt lat="37.97172593266446" lon="14.105720517675065"><ele>265.0</ele><time>2026-04-19T11:26:33.002Z</time></trkpt><trkpt lat="37.97177264334712" lon="14.1057981369183"><ele>265.0</ele><time>2026-04-19T11:26:34.002Z</time></trkpt><trkpt lat="37.97182309567462" lon="14.105857966459658"><ele>265.85714285714283</ele><time>2026-04-19T11:26:35.002Z</time></trkpt><trkpt lat="37.97188816660625" lon="14.105895200398702"><ele>266.7142857142857</ele><time>2026-04-19T11:26:36.002Z</time></trkpt><trkpt lat="37.971955658768714" lon="14.105912576770589"><ele>267.57142857142856</ele><time>2026-04-19T11:26:37.002Z</time></trkpt><trkpt lat="37.97202276152496" lon="14.105904751163397"><ele>268.42857142857144</ele><time>2026-04-19T11:26:38.002Z</time></trkpt><trkpt lat="37.97208818783234" lon="14.105887321552698"><ele>269.2857142857143</ele><time>2026-04-19T11:26:39.002Z</time></trkpt><trkpt lat="37.972152794870496" lon="14.105860371969046"><ele>270.1428571428571</ele><time>2026-04-19T11:26:40.002Z</time></trkpt><trkpt lat="37.97222352817736" lon="14.105827432646254"><ele>271.0</ele><time>2026-04-19T11:26:41.002Z</time></trkpt><trkpt lat="37.97229579001014" lon="14.105792837802076"><ele>271.0</ele><time>2026-04-19T11:26:42.002Z</time></trkpt><trkpt lat="37.97236918632523" lon="14.105755015656253"><ele>271.0</ele><time>2026-04-19T11:26:43.002Z</time></trkpt><trkpt lat="37.97244308904389" lon="14.105711110769215"><ele>271.0</ele><time>2026-04-19T11:26:44.002Z</time></trkpt><trkpt lat="37.972515107629995" lon="14.10565689316197"><ele>271.0</ele><time>2026-04-19T11:26:45.003Z</time></trkpt><trkpt lat="37.97258205036738" lon="14.105589503491814"><ele>271.0</ele><time>2026-04-19T11:26:46.003Z</time></trkpt><trkpt lat="37.97264337793067" lon="14.105514251551366"><ele>271.0</ele><time>2026-04-19T11:26:47.003Z</time></trkpt><trkpt lat="37.97269877428284" lon="14.105428233953742"><ele>269.3333333333333</ele><time>2026-04-19T11:26:48.003Z</time></trkpt><trkpt lat="37.97275066507532" lon="14.10533701899641"><ele>267.66666666666663</ele><time>2026-04-19T11:26:49.003Z</time></trkpt><trkpt lat="37.97279555172864" lon="14.105240736571226"><ele>266.0</ele><time>2026-04-19T11:26:50.003Z</time></trkpt><trkpt lat="37.97283860729898" lon="14.105145649945813"><ele>264.3333333333333</ele><time>2026-04-19T11:26:51.003Z</time></trkpt><trkpt lat="37.97288322494028" lon="14.105050956028872"><ele>262.6666666666667</ele><time>2026-04-19T11:26:52.003Z</time></trkpt><trkpt lat="37.97293032863497" lon="14.104959007895491"><ele>261.0</ele><time>2026-04-19T11:26:53.003Z</time></trkpt><trkpt lat="37.97297861224825" lon="14.10486931221631"><ele>257.5</ele><time>2026-04-19T11:26:54.003Z</time></trkpt><trkpt lat="37.97303130958198" lon="14.104783860064604"><ele>254.0</ele><time>2026-04-19T11:26:55.003Z</time></trkpt><trkpt lat="37.97309687023579" lon="14.104713675023692"><ele>250.5</ele><time>2026-04-19T11:26:56.003Z</time></trkpt><trkpt lat="37.973173682003655" lon="14.104658090941143"><ele>247.0</ele><time>2026-04-19T11:26:57.003Z</time></trkpt><trkpt lat="37.9732591788579" lon="14.104636009619076"><ele>243.5</ele><time>2026-04-19T11:26:58.003Z</time></trkpt><trkpt lat="37.97334675747841" lon="14.10462834005735"><ele>240.0</ele><time>2026-04-19T11:26:59.003Z</time></trkpt><trkpt lat="37.97343420801727" lon="14.104628049389971"><ele>239.83333333333334</ele><time>2026-04-19T11:27:00.003Z</time></trkpt><trkpt lat="37.97351894341315" lon="14.1046404887368"><ele>239.66666666666669</ele><time>2026-04-19T11:27:01.003Z</time></trkpt><trkpt lat="37.973603683532254" lon="14.104668963007178"><ele>239.5</ele><time>2026-04-19T11:27:02.003Z</time></trkpt><trkpt lat="37.97368281109607" lon="14.104715665055535"><ele>239.33333333333334</ele><time>2026-04-19T11:27:03.003Z</time></trkpt><trkpt lat="37.973763104615145" lon="14.104762993311779"><ele>239.16666666666669</ele><time>2026-04-19T11:27:04.003Z</time></trkpt><trkpt lat="37.973844523143484" lon="14.104805974010885"><ele>239.0</ele><time>2026-04-19T11:27:05.003Z</time></trkpt><trkpt lat="37.97392427299482" lon="14.10484560833956"><ele>239.00000000000003</ele><time>2026-04-19T11:27:06.003Z</time></trkpt><trkpt lat="37.97399960343749" lon="14.104889793817648"><ele>239.0</ele><time>2026-04-19T11:27:07.001Z</time></trkpt><trkpt lat="37.97407715406488" lon="14.104915622923704"><ele>239.0</ele><time>2026-04-19T11:27:08.001Z</time></trkpt><trkpt lat="37.97415709253187" lon="14.10494410456594"><ele>239.0</ele><time>2026-04-19T11:27:09.001Z</time></trkpt><trkpt lat="37.97423900472613" lon="14.104945677586915"><ele>239.00000000000003</ele><time>2026-04-19T11:27:10Z</time></trkpt><trkpt lat="37.9743224867383" lon="14.10492276287464"><ele>239.0</ele><time>2026-04-19T11:27:11Z</time></trkpt><trkpt lat="37.974392118710185" lon="14.104860143469661"><ele>242.16666666666669</ele><time>2026-04-19T11:27:12Z</time></trkpt><trkpt lat="37.97444899635574" lon="14.104775858001677"><ele>245.33333333333334</ele><time>2026-04-19T11:27:13Z</time></trkpt><trkpt lat="37.97443936837513" lon="14.104648740624413"><ele>248.5</ele><time>2026-04-19T11:27:14Z</time></trkpt><trkpt lat="37.974428947020165" lon="14.104540129224677"><ele>251.66666666666669</ele><time>2026-04-19T11:27:15Z</time></trkpt><trkpt lat="37.97440376036681" lon="14.10443628384327"><ele>254.83333333333334</ele><time>2026-04-19T11:27:16Z</time></trkpt><trkpt lat="37.97440402196572" lon="14.10432680663796"><ele>258.0</ele><time>2026-04-19T11:27:17Z</time></trkpt><trkpt lat="37.97439356810669" lon="14.104217782563518"><ele>258.0</ele><time>2026-04-19T11:27:18Z</time></trkpt><trkpt lat="37.974379768240084" lon="14.104108559108916"><ele>258.0</ele><time>2026-04-19T11:27:19Z</time></trkpt><trkpt lat="37.9744002219817" lon="14.104000493268922"><ele>258.0</ele><time>2026-04-19T11:27:20Z</time></trkpt><trkpt lat="37.97443601462168" lon="14.103899163538882"><ele>258.0</ele><time>2026-04-19T11:27:21Z</time></trkpt><trkpt lat="37.97448101639207" lon="14.103803857827483"><ele>258.0</ele><time>2026-04-19T11:27:22Z</time></trkpt><trkpt lat="37.97453788111091" lon="14.103717280247057"><ele>258.0</ele><time>2026-04-19T11:27:23Z</time></trkpt><trkpt lat="37.97460429155706" lon="14.103643897194912"><ele>254.60000000000002</ele><time>2026-04-19T11:27:24Z</time></trkpt><trkpt lat="37.974674392901115" lon="14.103578452815317"><ele>251.20000000000002</ele><time>2026-04-19T11:27:25Z</time></trkpt><trkpt lat="37.974752145857664" lon="14.103519366269673"><ele>247.8</ele><time>2026-04-19T11:27:26Z</time></trkpt><trkpt lat="37.97483291542733" lon="14.103465457304715"><ele>244.4</ele><time>2026-04-19T11:27:27Z</time></trkpt><trkpt lat="37.97491440749809" lon="14.103410194421295"><ele>241.0</ele><time>2026-04-19T11:27:28Z</time></trkpt><trkpt lat="37.97499270290207" lon="14.103352707799637"><ele>242.4</ele><time>2026-04-19T11:27:29Z</time></trkpt><trkpt lat="37.975069986566105" lon="14.103291811744302"><ele>243.8</ele><time>2026-04-19T11:27:30Z</time></trkpt><trkpt lat="37.97514272094919" lon="14.103219782671447"><ele>245.20000000000002</ele><time>2026-04-19T11:27:31Z</time></trkpt><trkpt lat="37.97520671081909" lon="14.103141393877115"><ele>246.60000000000002</ele><time>2026-04-19T11:27:32Z</time></trkpt><trkpt lat="37.97526299423268" lon="14.10305520529022"><ele>248.0</ele><time>2026-04-19T11:27:33Z</time></trkpt><trkpt lat="37.97531454450585" lon="14.102960833828407"><ele>245.2</ele><time>2026-04-19T11:27:34Z</time></trkpt><trkpt lat="37.9753595926091" lon="14.102861760856637"><ele>242.4</ele><time>2026-04-19T11:27:35Z</time></trkpt><trkpt lat="37.97540159770017" lon="14.102760360900183"><ele>239.59999999999997</ele><time>2026-04-19T11:27:36Z</time></trkpt><trkpt lat="37.97544488155714" lon="14.102659150450924"><ele>236.79999999999998</ele><time>2026-04-19T11:27:37.001Z</time></trkpt><trkpt lat="37.975487620794894" lon="14.102556358985446"><ele>234.0</ele><time>2026-04-19T11:27:38.001Z</time></trkpt><trkpt lat="37.975530699272774" lon="14.102456743651535"><ele>231.79999999999998</ele><time>2026-04-19T11:27:39.001Z</time></trkpt><trkpt lat="37.97557399245726" lon="14.102356382040668"><ele>229.59999999999997</ele><time>2026-04-19T11:27:40.001Z</time></trkpt><trkpt lat="37.97561680174511" lon="14.102254657929626"><ele>227.4</ele><time>2026-04-19T11:27:41.001Z</time></trkpt><trkpt lat="37.97566010576625" lon="14.102154750336629"><ele>225.2</ele><time>2026-04-19T11:27:42.001Z</time></trkpt><trkpt lat="37.97570595261737" lon="14.102056082555166"><ele>223.0</ele><time>2026-04-19T11:27:43.001Z</time></trkpt><trkpt lat="37.97575957972804" lon="14.101964624029085"><ele>223.0</ele><time>2026-04-19T11:27:44.001Z</time></trkpt><trkpt lat="37.97582314083557" lon="14.101879587725117"><ele>223.0</ele><time>2026-04-19T11:27:45.001Z</time></trkpt><trkpt lat="37.97589338991761" lon="14.101800645582404"><ele>223.0</ele><time>2026-04-19T11:27:46.001Z</time></trkpt><trkpt lat="37.97596808906974" lon="14.101727226446267"><ele>223.0</ele><time>2026-04-19T11:27:47.001Z</time></trkpt><trkpt lat="37.97604571425783" lon="14.101657031975382"><ele>223.0</ele><time>2026-04-19T11:27:48.001Z</time></trkpt><trkpt lat="37.976125045649255" lon="14.10158707184766"><ele>221.4</ele><time>2026-04-19T11:27:49.001Z</time></trkpt><trkpt lat="37.97620688011818" lon="14.101520503536163"><ele>219.8</ele><time>2026-04-19T11:27:50.001Z</time></trkpt><trkpt lat="37.97629184696744" lon="14.101457828243294"><ele>218.2</ele><time>2026-04-19T11:27:51.001Z</time></trkpt><trkpt lat="37.97637986877929" lon="14.101399084762996"><ele>216.6</ele><time>2026-04-19T11:27:52.001Z</time></trkpt><trkpt lat="37.97647099666126" lon="14.10134848775324"><ele>215.0</ele><time>2026-04-19T11:27:53.001Z</time></trkpt><trkpt lat="37.97656310107261" lon="14.101299560930629"><ele>215.0</ele><time>2026-04-19T11:27:54.001Z</time></trkpt><trkpt lat="37.976654164466574" lon="14.10125112830287"><ele>215.0</ele><time>2026-04-19T11:27:55.001Z</time></trkpt><trkpt lat="37.976743082510446" lon="14.101200976717168"><ele>215.0</ele><time>2026-04-19T11:27:56.001Z</time></trkpt><trkpt lat="37.97683125203006" lon="14.101151133428381"><ele>215.0</ele><time>2026-04-19T11:27:57.001Z</time></trkpt><trkpt lat="37.97692161287401" lon="14.10111528215715"><ele>215.0</ele><time>2026-04-19T11:27:58.001Z</time></trkpt><trkpt lat="37.977012876084274" lon="14.101104856239756"><ele>213.8</ele><time>2026-04-19T11:27:59.001Z</time></trkpt><trkpt lat="37.97709464906864" lon="14.101161833929355"><ele>212.6</ele><time>2026-04-19T11:28:00.001Z</time></trkpt><trkpt lat="37.97714157900672" lon="14.101262569070762"><ele>211.39999999999998</ele><time>2026-04-19T11:28:01.001Z</time></trkpt><trkpt lat="37.97714426785696" lon="14.101381040039794"><ele>210.2</ele><time>2026-04-19T11:28:02.001Z</time></trkpt><trkpt lat="37.97711129029845" lon="14.101494248296161"><ele>209.0</ele><time>2026-04-19T11:28:03.001Z</time></trkpt><trkpt lat="37.97706153290148" lon="14.101600438553483"><ele>209.0</ele><time>2026-04-19T11:28:04.001Z</time></trkpt><trkpt lat="37.9770100117408" lon="14.101708510013433"><ele>209.0</ele><time>2026-04-19T11:28:05.001Z</time></trkpt><trkpt lat="37.976966110779664" lon="14.101825506276938"><ele>209.0</ele><time>2026-04-19T11:28:06.001Z</time></trkpt><trkpt lat="37.97693793633903" lon="14.101947997042204"><ele>209.0</ele><time>2026-04-19T11:28:07.001Z</time></trkpt><trkpt lat="37.97692595577324" lon="14.102073186418735"><ele>209.0</ele><time>2026-04-19T11:28:08.001Z</time></trkpt><trkpt lat="37.97695419565197" lon="14.10219271757386"><ele>209.0</ele><time>2026-04-19T11:28:09.001Z</time></trkpt><trkpt lat="37.97702011667089" lon="14.10228528145222"><ele>209.0</ele><time>2026-04-19T11:28:10.001Z</time></trkpt><trkpt lat="37.97709207226139" lon="14.102359293488337"><ele>209.0</ele><time>2026-04-19T11:28:11.001Z</time></trkpt><trkpt lat="37.97716404019135" lon="14.102429041048728"><ele>209.0</ele><time>2026-04-19T11:28:12.001Z</time></trkpt><trkpt lat="37.97724752473015" lon="14.102469991333777"><ele>209.0</ele><time>2026-04-19T11:28:13.001Z</time></trkpt><trkpt lat="37.97733996766115" lon="14.102459894970787"><ele>209.0</ele><time>2026-04-19T11:28:14.001Z</time></trkpt><trkpt lat="37.97742535304065" lon="14.102410291438266"><ele>209.0</ele><time>2026-04-19T11:28:15.002Z</time></trkpt><trkpt lat="37.97750059108493" lon="14.102334541554631"><ele>209.0</ele><time>2026-04-19T11:28:16.002Z</time></trkpt><trkpt lat="37.977571358118645" lon="14.10225442592106"><ele>209.0</ele><time>2026-04-19T11:28:17.002Z</time></trkpt><trkpt lat="37.977654648851164" lon="14.102178342527703"><ele>209.0</ele><time>2026-04-19T11:28:18.002Z</time></trkpt><trkpt lat="37.97773821598813" lon="14.102099143971143"><ele>211.2</ele><time>2026-04-19T11:28:19.002Z</time></trkpt><trkpt lat="37.977824103735976" lon="14.102020323119918"><ele>213.39999999999998</ele><time>2026-04-19T11:28:20.002Z</time></trkpt><trkpt lat="37.97790940333167" lon="14.10194226941712"><ele>215.6</ele><time>2026-04-19T11:28:21.002Z</time></trkpt><trkpt lat="37.97799714330843" lon="14.10185430623426"><ele>217.8</ele><time>2026-04-19T11:28:22.002Z</time></trkpt><trkpt lat="37.97808540846672" lon="14.1017662992777"><ele>220.0</ele><time>2026-04-19T11:28:23.002Z</time></trkpt><trkpt lat="37.97817469670445" lon="14.101679663559956"><ele>220.0</ele><time>2026-04-19T11:28:24.002Z</time></trkpt><trkpt lat="37.978263429921206" lon="14.101590967870111"><ele>220.0</ele><time>2026-04-19T11:28:25.002Z</time></trkpt><trkpt lat="37.978352744091566" lon="14.101501080686639"><ele>220.0</ele><time>2026-04-19T11:28:26.002Z</time></trkpt><trkpt lat="37.978436518165516" lon="14.101408110137962"><ele>220.0</ele><time>2026-04-19T11:28:27.002Z</time></trkpt><trkpt lat="37.97851314710463" lon="14.101309302641289"><ele>220.0</ele><time>2026-04-19T11:28:28.002Z</time></trkpt><trkpt lat="37.978574423229276" lon="14.101194355235581"><ele>220.0</ele><time>2026-04-19T11:28:29.002Z</time></trkpt><trkpt lat="37.97861891570094" lon="14.101067443683457"><ele>220.0</ele><time>2026-04-19T11:28:30.002Z</time></trkpt><trkpt lat="37.97864167305802" lon="14.100926027991818"><ele>220.0</ele><time>2026-04-19T11:28:31.002Z</time></trkpt><trkpt lat="37.97864585738425" lon="14.10078334493904"><ele>220.0</ele><time>2026-04-19T11:28:32.002Z</time></trkpt><trkpt lat="37.97865993343358" lon="14.100641912880228"><ele>220.0</ele><time>2026-04-19T11:28:33.002Z</time></trkpt><trkpt lat="37.978666458157285" lon="14.100500099199705"><ele>220.0</ele><time>2026-04-19T11:28:34.002Z</time></trkpt><trkpt lat="37.978668762672065" lon="14.100358661982698"><ele>220.0</ele><time>2026-04-19T11:28:35.002Z</time></trkpt><trkpt lat="37.97870375529462" lon="14.100211270987641"><ele>220.0</ele><time>2026-04-19T11:28:36.002Z</time></trkpt><trkpt lat="37.97876261528393" lon="14.10007118745306"><ele>220.0</ele><time>2026-04-19T11:28:37.002Z</time></trkpt><trkpt lat="37.97883541553789" lon="14.099950146744648"><ele>216.25</ele><time>2026-04-19T11:28:38.002Z</time></trkpt><trkpt lat="37.978912875225255" lon="14.099839787357563"><ele>212.5</ele><time>2026-04-19T11:28:39.002Z</time></trkpt><trkpt lat="37.97899328150301" lon="14.099734316130455"><ele>208.75</ele><time>2026-04-19T11:28:40.002Z</time></trkpt><trkpt lat="37.97907457423795" lon="14.09963024253882"><ele>205.0</ele><time>2026-04-19T11:28:41.002Z</time></trkpt><trkpt lat="37.97915304873603" lon="14.099522943377123"><ele>208.25</ele><time>2026-04-19T11:28:42.002Z</time></trkpt><trkpt lat="37.97923208198358" lon="14.099416095426708"><ele>211.5</ele><time>2026-04-19T11:28:43.002Z</time></trkpt><trkpt lat="37.97931166500818" lon="14.099309077988778"><ele>214.75</ele><time>2026-04-19T11:28:44.002Z</time></trkpt><trkpt lat="37.979393189828194" lon="14.099203173297004"><ele>218.0</ele><time>2026-04-19T11:28:45.002Z</time></trkpt><trkpt lat="37.97947171422408" lon="14.099097235208745"><ele>213.75</ele><time>2026-04-19T11:28:46.002Z</time></trkpt><trkpt lat="37.97954839036904" lon="14.09898852603736"><ele>209.5</ele><time>2026-04-19T11:28:47.002Z</time></trkpt><trkpt lat="37.97962712421899" lon="14.0988833445396"><ele>205.25</ele><time>2026-04-19T11:28:48.002Z</time></trkpt><trkpt lat="37.979705438510095" lon="14.09877727037978"><ele>201.0</ele><time>2026-04-19T11:28:49.002Z</time></trkpt><trkpt lat="37.979776463805784" lon="14.098665015434667"><ele>201.0</ele><time>2026-04-19T11:28:50.002Z</time></trkpt><trkpt lat="37.97983370219671" lon="14.09853917699682"><ele>201.0</ele><time>2026-04-19T11:28:51.002Z</time></trkpt><trkpt lat="37.97987838617234" lon="14.098405545568859"><ele>201.0</ele><time>2026-04-19T11:28:52.002Z</time></trkpt><trkpt lat="37.97992132423178" lon="14.098267460483704"><ele>201.0</ele><time>2026-04-19T11:28:53.002Z</time></trkpt><trkpt lat="37.979971276598846" lon="14.098133633185995"><ele>200.75</ele><time>2026-04-19T11:28:54.003Z</time></trkpt><trkpt lat="37.9800262437656" lon="14.098003826587703"><ele>200.5</ele><time>2026-04-19T11:28:55.003Z</time></trkpt><trkpt lat="37.98008437855676" lon="14.097875469933669"><ele>200.25</ele><time>2026-04-19T11:28:56.003Z</time></trkpt><trkpt lat="37.9801508718278" lon="14.097751593257096"><ele>200.0</ele><time>2026-04-19T11:28:57.003Z</time></trkpt><trkpt lat="37.9802293226971" lon="14.09763825914843"><ele>200.0</ele><time>2026-04-19T11:28:58.003Z</time></trkpt><trkpt lat="37.98031601976317" lon="14.097535768197279"><ele>200.0</ele><time>2026-04-19T11:28:59.003Z</time></trkpt><trkpt lat="37.98040939353456" lon="14.097437117343617"><ele>200.0</ele><time>2026-04-19T11:29:00.003Z</time></trkpt><trkpt lat="37.980500359982926" lon="14.097334367029594"><ele>200.0</ele><time>2026-04-19T11:29:01.003Z</time></trkpt><trkpt lat="37.98058985762878" lon="14.097231890173765"><ele>197.0</ele><time>2026-04-19T11:29:02.003Z</time></trkpt><trkpt lat="37.980679532360796" lon="14.097129219701912"><ele>194.0</ele><time>2026-04-19T11:29:03.003Z</time></trkpt><trkpt lat="37.98076735381603" lon="14.097023459588309"><ele>191.0</ele><time>2026-04-19T11:29:04.003Z</time></trkpt><trkpt lat="37.980851668052" lon="14.096916961330036"><ele>188.0</ele><time>2026-04-19T11:29:05.003Z</time></trkpt><trkpt lat="37.98093659935608" lon="14.096813042089895"><ele>188.0</ele><time>2026-04-19T11:29:06.003Z</time></trkpt><trkpt lat="37.98102789342567" lon="14.096717488161882"><ele>188.0</ele><time>2026-04-19T11:29:07.003Z</time></trkpt><trkpt lat="37.98113334354527" lon="14.09664109866142"><ele>188.0</ele><time>2026-04-19T11:29:08.003Z</time></trkpt><trkpt lat="37.98125413503736" lon="14.096594291241816"><ele>188.0</ele><time>2026-04-19T11:29:09.003Z</time></trkpt><trkpt lat="37.98138515085024" lon="14.096580138014529"><ele>188.0</ele><time>2026-04-19T11:29:10.003Z</time></trkpt><trkpt lat="37.98151605945587" lon="14.096587533708867"><ele>188.0</ele><time>2026-04-19T11:29:11.003Z</time></trkpt><trkpt lat="37.98164444033952" lon="14.096596822657343"><ele>188.0</ele><time>2026-04-19T11:29:12.003Z</time></trkpt><trkpt lat="37.981773733721276" lon="14.096580306386624"><ele>188.0</ele><time>2026-04-19T11:29:13Z</time></trkpt><trkpt lat="37.98189426000331" lon="14.096528001506925"><ele>185.25</ele><time>2026-04-19T11:29:14Z</time></trkpt><trkpt lat="37.98200296173694" lon="14.096436955480867"><ele>182.5</ele><time>2026-04-19T11:29:15Z</time></trkpt><trkpt lat="37.98210631507312" lon="14.096325600883306"><ele>179.75</ele><time>2026-04-19T11:29:16Z</time></trkpt><trkpt lat="37.98221459087185" lon="14.096212985641051"><ele>177.0</ele><time>2026-04-19T11:29:17Z</time></trkpt><trkpt lat="37.982318894709856" lon="14.096099655062202"><ele>177.0</ele><time>2026-04-19T11:29:18Z</time></trkpt><trkpt lat="37.98241941996095" lon="14.095990308148536"><ele>177.0</ele><time>2026-04-19T11:29:19Z</time></trkpt><trkpt lat="37.982513949805195" lon="14.09587668810948"><ele>177.0</ele><time>2026-04-19T11:29:20Z</time></trkpt><trkpt lat="37.982594041271284" lon="14.095738057779549"><ele>177.0</ele><time>2026-04-19T11:29:21Z</time></trkpt><trkpt lat="37.982670658996454" lon="14.095602309042292"><ele>176.0</ele><time>2026-04-19T11:29:22Z</time></trkpt><trkpt lat="37.98277279431419" lon="14.09549874383117"><ele>175.0</ele><time>2026-04-19T11:29:23Z</time></trkpt><trkpt lat="37.98289362426036" lon="14.095426782413423"><ele>174.0</ele><time>2026-04-19T11:29:24Z</time></trkpt><trkpt lat="37.98302392303794" lon="14.095384660596922"><ele>173.0</ele><time>2026-04-19T11:29:25Z</time></trkpt><trkpt lat="37.9831492240481" lon="14.095315769528243"><ele>173.0</ele><time>2026-04-19T11:29:26Z</time></trkpt><trkpt lat="37.98326259912711" lon="14.095194615414643"><ele>173.0</ele><time>2026-04-19T11:29:27Z</time></trkpt><trkpt lat="37.98336454365583" lon="14.095071189586907"><ele>173.0</ele><time>2026-04-19T11:29:28Z</time></trkpt><trkpt lat="37.98346348622374" lon="14.094954819278568"><ele>173.0</ele><time>2026-04-19T11:29:29Z</time></trkpt><trkpt lat="37.9835674673696" lon="14.094850802608448"><ele>169.5</ele><time>2026-04-19T11:29:30Z</time></trkpt><trkpt lat="37.98367698400909" lon="14.094758833479826"><ele>166.0</ele><time>2026-04-19T11:29:31Z</time></trkpt><trkpt lat="37.98379906973417" lon="14.094696074474358"><ele>162.5</ele><time>2026-04-19T11:29:32Z</time></trkpt><trkpt lat="37.98393230869179" lon="14.09465687096171"><ele>159.0</ele><time>2026-04-19T11:29:33Z</time></trkpt><trkpt lat="37.98406887810065" lon="14.094617870774746"><ele>159.75</ele><time>2026-04-19T11:29:34Z</time></trkpt><trkpt lat="37.98420043313186" lon="14.094565339859344"><ele>160.5</ele><time>2026-04-19T11:29:35Z</time></trkpt><trkpt lat="37.98432505145214" lon="14.094500929245799"><ele>161.25</ele><time>2026-04-19T11:29:36Z</time></trkpt><trkpt lat="37.98445684601344" lon="14.094437586589503"><ele>162.0</ele><time>2026-04-19T11:29:37Z</time></trkpt><trkpt lat="37.98458911148035" lon="14.094380880906968"><ele>162.0</ele><time>2026-04-19T11:29:38Z</time></trkpt><trkpt lat="37.98472463061271" lon="14.094332979152998"><ele>162.0</ele><time>2026-04-19T11:29:38.999Z</time></trkpt><trkpt lat="37.98485853057165" lon="14.094299673272046"><ele>162.0</ele><time>2026-04-19T11:29:39.999Z</time></trkpt><trkpt lat="37.984994403465016" lon="14.094279023393305"><ele>162.0</ele><time>2026-04-19T11:29:40.999Z</time></trkpt><trkpt lat="37.985133630254204" lon="14.094250778383811"><ele>161.0</ele><time>2026-04-19T11:29:41.999Z</time></trkpt><trkpt lat="37.9852781811235" lon="14.094215303478231"><ele>160.0</ele><time>2026-04-19T11:29:42.999Z</time></trkpt><trkpt lat="37.985416264163" lon="14.094179989802658"><ele>159.0</ele><time>2026-04-19T11:29:43.999Z</time></trkpt><trkpt lat="37.985554966924944" lon="14.094149595028242"><ele>158.0</ele><time>2026-04-19T11:29:44.999Z</time></trkpt><trkpt lat="37.98569073549883" lon="14.09411130106358"><ele>156.0</ele><time>2026-04-19T11:29:45.999Z</time></trkpt><trkpt lat="37.985823790166435" lon="14.094087694675066"><ele>154.0</ele><time>2026-04-19T11:29:46.999Z</time></trkpt><trkpt lat="37.98595787211367" lon="14.094093891932689"><ele>152.0</ele><time>2026-04-19T11:29:47.999Z</time></trkpt><trkpt lat="37.986088700318554" lon="14.09413300023246"><ele>150.0</ele><time>2026-04-19T11:29:48.999Z</time></trkpt><trkpt lat="37.986218437100675" lon="14.0941988828454"><ele>150.0</ele><time>2026-04-19T11:29:49.999Z</time></trkpt><trkpt lat="37.9863515034473" lon="14.094268979950247"><ele>150.0</ele><time>2026-04-19T11:29:50.999Z</time></trkpt><trkpt lat="37.986488413641865" lon="14.094336654335805"><ele>150.0</ele><time>2026-04-19T11:29:51.999Z</time></trkpt><trkpt lat="37.98662628611048" lon="14.094405278218773"><ele>150.0</ele><time>2026-04-19T11:29:52.999Z</time></trkpt><trkpt lat="37.986764958363835" lon="14.094477595544294"><ele>146.66666666666666</ele><time>2026-04-19T11:29:53.999Z</time></trkpt><trkpt lat="37.98690602238234" lon="14.09454957620818"><ele>143.33333333333331</ele><time>2026-04-19T11:29:54.999Z</time></trkpt><trkpt lat="37.9870502118472" lon="14.094619576471485"><ele>140.0</ele><time>2026-04-19T11:29:55.999Z</time></trkpt><trkpt lat="37.98719260003833" lon="14.094685497807731"><ele>140.0</ele><time>2026-04-19T11:29:56.999Z</time></trkpt><trkpt lat="37.9873300229606" lon="14.094756969381203"><ele>140.0</ele><time>2026-04-19T11:29:57.999Z</time></trkpt><trkpt lat="37.987464561176196" lon="14.094837895295528"><ele>140.0</ele><time>2026-04-19T11:29:58.999Z</time></trkpt><trkpt lat="37.98759444249323" lon="14.094929547810038"><ele>140.0</ele><time>2026-04-19T11:29:59.999Z</time></trkpt><trkpt lat="37.98771628912665" lon="14.095035154492441"><ele>139.5</ele><time>2026-04-19T11:30:00.999Z</time></trkpt><trkpt lat="37.987830440124" lon="14.095148370302423"><ele>139.0</ele><time>2026-04-19T11:30:01.999Z</time></trkpt><trkpt lat="37.987942507201204" lon="14.095258663638711"><ele>138.5</ele><time>2026-04-19T11:30:02.999Z</time></trkpt><trkpt lat="37.98806380832115" lon="14.095347810248152"><ele>138.0</ele><time>2026-04-19T11:30:04Z</time></trkpt><trkpt lat="37.98819868201973" lon="14.095396351838996"><ele>138.0</ele><time>2026-04-19T11:30:05Z</time></trkpt><trkpt lat="37.98833753698974" lon="14.095395935668053"><ele>138.0</ele><time>2026-04-19T11:30:06Z</time></trkpt><trkpt lat="37.98847564139064" lon="14.095392315426983"><ele>138.0</ele><time>2026-04-19T11:30:07Z</time></trkpt><trkpt lat="37.988607269638685" lon="14.095442431521144"><ele>138.0</ele><time>2026-04-19T11:30:08Z</time></trkpt><trkpt lat="37.988731562554925" lon="14.095535470006153"><ele>137.5</ele><time>2026-04-19T11:30:09Z</time></trkpt><trkpt lat="37.988857704077745" lon="14.095635921247728"><ele>137.0</ele><time>2026-04-19T11:30:10Z</time></trkpt><trkpt lat="37.98898736173076" lon="14.09572588035799"><ele>136.5</ele><time>2026-04-19T11:30:11Z</time></trkpt><trkpt lat="37.98912712061725" lon="14.095802329749837"><ele>136.0</ele><time>2026-04-19T11:30:12Z</time></trkpt><trkpt lat="37.989275893949745" lon="14.095850270841805"><ele>135.66666666666669</ele><time>2026-04-19T11:30:13Z</time></trkpt><trkpt lat="37.98943189094529" lon="14.095868708564897"><ele>135.33333333333334</ele><time>2026-04-19T11:30:14Z</time></trkpt><trkpt lat="37.98959177004277" lon="14.095846291274377"><ele>135.0</ele><time>2026-04-19T11:30:15Z</time></trkpt><trkpt lat="37.98974608993722" lon="14.095818273648934"><ele>135.0</ele><time>2026-04-19T11:30:16Z</time></trkpt><trkpt lat="37.98990012373959" lon="14.095783517104525"><ele>135.0</ele><time>2026-04-19T11:30:17Z</time></trkpt><trkpt lat="37.99005285667169" lon="14.095759780368603"><ele>135.0</ele><time>2026-04-19T11:30:18Z</time></trkpt><trkpt lat="37.99020644137673" lon="14.09573234798587"><ele>134.0</ele><time>2026-04-19T11:30:19Z</time></trkpt><trkpt lat="37.99036061223178" lon="14.095699017848165"><ele>133.0</ele><time>2026-04-19T11:30:20Z</time></trkpt><trkpt lat="37.99051499915446" lon="14.095674984207147"><ele>132.0</ele><time>2026-04-19T11:30:21Z</time></trkpt><trkpt lat="37.99066334802361" lon="14.09568251620431"><ele>132.0</ele><time>2026-04-19T11:30:22Z</time></trkpt><trkpt lat="37.990800815910035" lon="14.095720587887671"><ele>132.0</ele><time>2026-04-19T11:30:23Z</time></trkpt><trkpt lat="37.990938022502554" lon="14.09578661682046"><ele>132.0</ele><time>2026-04-19T11:30:24Z</time></trkpt><trkpt lat="37.99105612748483" lon="14.095882549754359"><ele>132.0</ele><time>2026-04-19T11:30:25Z</time></trkpt><trkpt lat="37.991165833129074" lon="14.09598576087623"><ele>130.25</ele><time>2026-04-19T11:30:26Z</time></trkpt><trkpt lat="37.991274416348666" lon="14.096089094547187"><ele>128.5</ele><time>2026-04-19T11:30:27Z</time></trkpt><trkpt lat="37.991393807994164" lon="14.0961855396465"><ele>126.75</ele><time>2026-04-19T11:30:28Z</time></trkpt><trkpt lat="37.99152612828606" lon="14.09626299696156"><ele>125.0</ele><time>2026-04-19T11:30:29Z</time></trkpt><trkpt lat="37.99167273599319" lon="14.096312569757428"><ele>124.33333333333333</ele><time>2026-04-19T11:30:30Z</time></trkpt><trkpt lat="37.991820386418865" lon="14.096349321270948"><ele>123.66666666666666</ele><time>2026-04-19T11:30:31Z</time></trkpt><trkpt lat="37.99196956102271" lon="14.096375253283284"><ele>123.0</ele><time>2026-04-19T11:30:32Z</time></trkpt><trkpt lat="37.992123909403304" lon="14.096397755377406"><ele>123.0</ele><time>2026-04-19T11:30:33Z</time></trkpt><trkpt lat="37.992268065837436" lon="14.096333114987143"><ele>123.0</ele><time>2026-04-19T11:30:34Z</time></trkpt><trkpt lat="37.992412442903245" lon="14.096303003772338"><ele>123.0</ele><time>2026-04-19T11:30:35Z</time></trkpt><trkpt lat="37.99255134262199" lon="14.096305737985631"><ele>123.0</ele><time>2026-04-19T11:30:36Z</time></trkpt><trkpt lat="37.99268822299194" lon="14.096308387502981"><ele>123.5</ele><time>2026-04-19T11:30:37Z</time></trkpt><trkpt lat="37.992819862082186" lon="14.096273499273632"><ele>124.0</ele><time>2026-04-19T11:30:38Z</time></trkpt><trkpt lat="37.99293946343978" lon="14.0961964768456"><ele>124.5</ele><time>2026-04-19T11:30:39Z</time></trkpt><trkpt lat="37.99303701297331" lon="14.096085324306236"><ele>125.0</ele><time>2026-04-19T11:30:40Z</time></trkpt><trkpt lat="37.99313839824367" lon="14.09599550913885"><ele>125.0</ele><time>2026-04-19T11:30:41Z</time></trkpt><trkpt lat="37.99326077049862" lon="14.095955563214751"><ele>125.0</ele><time>2026-04-19T11:30:42Z</time></trkpt><trkpt lat="37.99338908841586" lon="14.095947955786292"><ele>125.0</ele><time>2026-04-19T11:30:43Z</time></trkpt><trkpt lat="37.99351586532829" lon="14.095982364765828"><ele>125.0</ele><time>2026-04-19T11:30:44Z</time></trkpt><trkpt lat="37.99363587398168" lon="14.096048400341262"><ele>125.25</ele><time>2026-04-19T11:30:45Z</time></trkpt><trkpt lat="37.9937586306122" lon="14.096104850780762"><ele>125.5</ele><time>2026-04-19T11:30:46Z</time></trkpt><trkpt lat="37.99388630119166" lon="14.096127399902215"><ele>125.75</ele><time>2026-04-19T11:30:47Z</time></trkpt><trkpt lat="37.9940173373907" lon="14.09610548172968"><ele>126.0</ele><time>2026-04-19T11:30:48.001Z</time></trkpt><trkpt lat="37.99414690323212" lon="14.096041858516422"><ele>127.5</ele><time>2026-04-19T11:30:49.001Z</time></trkpt><trkpt lat="37.994271924533926" lon="14.095959940893247"><ele>129.0</ele><time>2026-04-19T11:30:50.001Z</time></trkpt><trkpt lat="37.994395297218716" lon="14.095856214015214"><ele>130.5</ele><time>2026-04-19T11:30:51.001Z</time></trkpt><trkpt lat="37.99451969922209" lon="14.095754281998945"><ele>132.0</ele><time>2026-04-19T11:30:52.001Z</time></trkpt><trkpt lat="37.99464576967694" lon="14.09565531416668"><ele>128.75</ele><time>2026-04-19T11:30:53.001Z</time></trkpt><trkpt lat="37.9947676729594" lon="14.095556042094524"><ele>125.5</ele><time>2026-04-19T11:30:54.001Z</time></trkpt><trkpt lat="37.99488411134405" lon="14.095457871245168"><ele>122.25</ele><time>2026-04-19T11:30:55.001Z</time></trkpt><trkpt lat="37.99500599153593" lon="14.095380013792674"><ele>119.0</ele><time>2026-04-19T11:30:56.001Z</time></trkpt><trkpt lat="37.99510923291976" lon="14.09529112007852"><ele>118.25</ele><time>2026-04-19T11:30:57.001Z</time></trkpt><trkpt lat="37.99522768726343" lon="14.095262076354317"><ele>117.5</ele><time>2026-04-19T11:30:58.001Z</time></trkpt><trkpt lat="37.99534116370602" lon="14.09528415136395"><ele>116.75</ele><time>2026-04-19T11:30:59.001Z</time></trkpt><trkpt lat="37.995435381197574" lon="14.095357715067228"><ele>116.0</ele><time>2026-04-19T11:31:00.001Z</time></trkpt><trkpt lat="37.99552037811227" lon="14.095465810103454"><ele>116.0</ele><time>2026-04-19T11:31:01.001Z</time></trkpt><trkpt lat="37.9956097027196" lon="14.095555257566126"><ele>116.0</ele><time>2026-04-19T11:31:02.001Z</time></trkpt><trkpt lat="37.995711963038886" lon="14.095631803633967"><ele>116.0</ele><time>2026-04-19T11:31:03.001Z</time></trkpt><trkpt lat="37.99586688374051" lon="14.095627420859705"><ele>116.0</ele><time>2026-04-19T11:31:04.001Z</time></trkpt><trkpt lat="37.9960128674494" lon="14.095622792245843"><ele>115.0</ele><time>2026-04-19T11:31:05.001Z</time></trkpt><trkpt lat="37.99616518538698" lon="14.095577923082695"><ele>114.0</ele><time>2026-04-19T11:31:06.001Z</time></trkpt><trkpt lat="37.996320818881415" lon="14.095543436896616"><ele>113.0</ele><time>2026-04-19T11:31:07.001Z</time></trkpt><trkpt lat="37.996507531252675" lon="14.095515671669563"><ele>113.0</ele><time>2026-04-19T11:31:08.001Z</time></trkpt><trkpt lat="37.99665014102147" lon="14.095491320147199"><ele>113.0</ele><time>2026-04-19T11:31:09.001Z</time></trkpt><trkpt lat="37.99681728603397" lon="14.09545606475993"><ele>113.0</ele><time>2026-04-19T11:31:10.001Z</time></trkpt><trkpt lat="37.99697293126947" lon="14.095419025268237"><ele>112.25</ele><time>2026-04-19T11:31:11.001Z</time></trkpt><trkpt lat="37.9971094557931" lon="14.095415742712017"><ele>111.5</ele><time>2026-04-19T11:31:12.001Z</time></trkpt><trkpt lat="37.997260889846935" lon="14.095414161169241"><ele>110.75</ele><time>2026-04-19T11:31:13.001Z</time></trkpt><trkpt lat="37.99740092936648" lon="14.09544880977686"><ele>110.0</ele><time>2026-04-19T11:31:14.001Z</time></trkpt><trkpt lat="37.99755089887156" lon="14.09549051253319"><ele>111.0</ele><time>2026-04-19T11:31:15.001Z</time></trkpt><trkpt lat="37.99767905700077" lon="14.095588879656821"><ele>112.0</ele><time>2026-04-19T11:31:16.001Z</time></trkpt><trkpt lat="37.99782798984867" lon="14.095665073858958"><ele>113.0</ele><time>2026-04-19T11:31:17.001Z</time></trkpt><trkpt lat="37.99797417502524" lon="14.095759659064672"><ele>113.0</ele><time>2026-04-19T11:31:18.001Z</time></trkpt><trkpt lat="37.998119441437865" lon="14.095843608748698"><ele>113.0</ele><time>2026-04-19T11:31:18.998Z</time></trkpt><trkpt lat="37.99826507033292" lon="14.095937389098241"><ele>113.0</ele><time>2026-04-19T11:31:19.998Z</time></trkpt><trkpt lat="37.99840713414065" lon="14.096029656922433"><ele>110.0</ele><time>2026-04-19T11:31:20.998Z</time></trkpt><trkpt lat="37.99854173589616" lon="14.096122851382868"><ele>107.0</ele><time>2026-04-19T11:31:21.998Z</time></trkpt><trkpt lat="37.998672443733" lon="14.096217567281446"><ele>104.0</ele><time>2026-04-19T11:31:22.998Z</time></trkpt><trkpt lat="37.998794890259404" lon="14.096282567895061"><ele>101.0</ele><time>2026-04-19T11:31:23.999Z</time></trkpt><trkpt lat="37.998912397833784" lon="14.096367123787571"><ele>101.0</ele><time>2026-04-19T11:31:24.999Z</time></trkpt><trkpt lat="37.99902604529795" lon="14.096448427600704"><ele>101.0</ele><time>2026-04-19T11:31:25.999Z</time></trkpt><trkpt lat="37.99914467542679" lon="14.09653131727608"><ele>101.0</ele><time>2026-04-19T11:31:26.999Z</time></trkpt><trkpt lat="37.999266992677335" lon="14.09661571365416"><ele>101.0</ele><time>2026-04-19T11:31:27.999Z</time></trkpt><trkpt lat="37.999393157038995" lon="14.096687924467076"><ele>101.75</ele><time>2026-04-19T11:31:28.999Z</time></trkpt><trkpt lat="37.999524242146286" lon="14.09675098161108"><ele>102.5</ele><time>2026-04-19T11:31:29.999Z</time></trkpt><trkpt lat="37.99965955499429" lon="14.096808568967464"><ele>103.25</ele><time>2026-04-19T11:31:30.999Z</time></trkpt><trkpt lat="37.99980091479231" lon="14.09687499392054"><ele>104.0</ele><time>2026-04-19T11:31:31.999Z</time></trkpt><trkpt lat="37.99994062567016" lon="14.096930597376927"><ele>104.0</ele><time>2026-04-19T11:31:32.999Z</time></trkpt><trkpt lat="38.00007007396627" lon="14.096983869090266"><ele>104.0</ele><time>2026-04-19T11:31:33.999Z</time></trkpt><trkpt lat="38.00018998373312" lon="14.09704027492628"><ele>104.0</ele><time>2026-04-19T11:31:34.999Z</time></trkpt><trkpt lat="38.000291321356144" lon="14.097107638425106"><ele>104.0</ele><time>2026-04-19T11:31:36Z</time></trkpt><trkpt lat="38.000398769493344" lon="14.097205756076198"><ele>104.0</ele><time>2026-04-19T11:31:37Z</time></trkpt><trkpt lat="38.00049724847021" lon="14.09730988930631"><ele>104.0</ele><time>2026-04-19T11:31:38Z</time></trkpt><trkpt lat="38.00060253483548" lon="14.097415754674909"><ele>104.0</ele><time>2026-04-19T11:31:39Z</time></trkpt><trkpt lat="38.00069947562438" lon="14.09752435040003"><ele>104.0</ele><time>2026-04-19T11:31:40Z</time></trkpt><trkpt lat="38.000795482404506" lon="14.097634244458852"><ele>104.25</ele><time>2026-04-19T11:31:41Z</time></trkpt><trkpt lat="38.00089014494794" lon="14.097736424325573"><ele>104.5</ele><time>2026-04-19T11:31:42Z</time></trkpt><trkpt lat="38.000985864127955" lon="14.09783908166774"><ele>104.75</ele><time>2026-04-19T11:31:43Z</time></trkpt><trkpt lat="38.00107563463901" lon="14.097935739807605"><ele>105.0</ele><time>2026-04-19T11:31:44Z</time></trkpt><trkpt lat="38.0011630274828" lon="14.098029414023904"><ele>105.0</ele><time>2026-04-19T11:31:45Z</time></trkpt><trkpt lat="38.001245606462746" lon="14.098118583508178"><ele>105.0</ele><time>2026-04-19T11:31:46Z</time></trkpt><trkpt lat="38.001324900233264" lon="14.09820600171806"><ele>105.0</ele><time>2026-04-19T11:31:47Z</time></trkpt><trkpt lat="38.00140694478058" lon="14.09829587681564"><ele>105.0</ele><time>2026-04-19T11:31:48Z</time></trkpt><trkpt lat="38.001491808825925" lon="14.098383822594492"><ele>105.0</ele><time>2026-04-19T11:31:49Z</time></trkpt><trkpt lat="38.00157772350801" lon="14.098473806861263"><ele>104.25</ele><time>2026-04-19T11:31:50Z</time></trkpt><trkpt lat="38.001674090840396" lon="14.098562893779615"><ele>103.5</ele><time>2026-04-19T11:31:51Z</time></trkpt><trkpt lat="38.00177293845926" lon="14.098646462474258"><ele>102.75</ele><time>2026-04-19T11:31:52Z</time></trkpt><trkpt lat="38.00187052493281" lon="14.098726383814046"><ele>102.0</ele><time>2026-04-19T11:31:53.001Z</time></trkpt><trkpt lat="38.00197537998755" lon="14.098804578101676"><ele>102.0</ele><time>2026-04-19T11:31:54.001Z</time></trkpt><trkpt lat="38.00208027953278" lon="14.098886855974898"><ele>102.0</ele><time>2026-04-19T11:31:55.001Z</time></trkpt><trkpt lat="38.00218578432979" lon="14.098970138830582"><ele>102.0</ele><time>2026-04-19T11:31:56.001Z</time></trkpt><trkpt lat="38.00229096095489" lon="14.09904459712757"><ele>102.0</ele><time>2026-04-19T11:31:57.001Z</time></trkpt><trkpt lat="38.002386785283356" lon="14.099118313138082"><ele>101.75</ele><time>2026-04-19T11:31:58.001Z</time></trkpt><trkpt lat="38.00250506248303" lon="14.099197063340847"><ele>101.5</ele><time>2026-04-19T11:31:59.001Z</time></trkpt><trkpt lat="38.002615043233185" lon="14.09928473679212"><ele>101.25</ele><time>2026-04-19T11:32:00.001Z</time></trkpt><trkpt lat="38.00272046316517" lon="14.099369345256614"><ele>101.0</ele><time>2026-04-19T11:32:01.001Z</time></trkpt><trkpt lat="38.002826000872425" lon="14.099439562085257"><ele>101.0</ele><time>2026-04-19T11:32:02.001Z</time></trkpt><trkpt lat="38.00293583644601" lon="14.099489369726628"><ele>101.0</ele><time>2026-04-19T11:32:03.001Z</time></trkpt><trkpt lat="38.00305597924035" lon="14.099515923578291"><ele>101.0</ele><time>2026-04-19T11:32:04.001Z</time></trkpt><trkpt lat="38.00318792948464" lon="14.099512911459296"><ele>101.0</ele><time>2026-04-19T11:32:05.001Z</time></trkpt><trkpt lat="38.00332703522762" lon="14.099509904966402"><ele>99.75</ele><time>2026-04-19T11:32:06.001Z</time></trkpt><trkpt lat="38.00347107218951" lon="14.099520493519364"><ele>98.5</ele><time>2026-04-19T11:32:07.001Z</time></trkpt><trkpt lat="38.003613216228146" lon="14.099538554407491"><ele>97.25</ele><time>2026-04-19T11:32:08.001Z</time></trkpt><trkpt lat="38.003754473542294" lon="14.099560878954497"><ele>96.0</ele><time>2026-04-19T11:32:09.001Z</time></trkpt><trkpt lat="38.00389678613669" lon="14.099589038647936"><ele>96.0</ele><time>2026-04-19T11:32:10.001Z</time></trkpt><trkpt lat="38.00403914802468" lon="14.099617577091937"><ele>96.0</ele><time>2026-04-19T11:32:11.001Z</time></trkpt><trkpt lat="38.004183352400474" lon="14.099646622830777"><ele>96.0</ele><time>2026-04-19T11:32:12.001Z</time></trkpt><trkpt lat="38.00432458150593" lon="14.099684662728245"><ele>96.0</ele><time>2026-04-19T11:32:13.001Z</time></trkpt><trkpt lat="38.00446631027851" lon="14.099719989627621"><ele>95.0</ele><time>2026-04-19T11:32:14.001Z</time></trkpt><trkpt lat="38.00460801151761" lon="14.099746183624069"><ele>94.0</ele><time>2026-04-19T11:32:15.001Z</time></trkpt><trkpt lat="38.004752003018915" lon="14.099760940908297"><ele>93.0</ele><time>2026-04-19T11:32:16.001Z</time></trkpt><trkpt lat="38.00488836703673" lon="14.099759107926696"><ele>92.0</ele><time>2026-04-19T11:32:17.001Z</time></trkpt><trkpt lat="38.00503037372781" lon="14.099748850462289"><ele>90.25</ele><time>2026-04-19T11:32:18.001Z</time></trkpt><trkpt lat="38.00517376768964" lon="14.099738220442589"><ele>88.5</ele><time>2026-04-19T11:32:19.001Z</time></trkpt><trkpt lat="38.00531610806696" lon="14.099728036179089"><ele>86.75</ele><time>2026-04-19T11:32:20.001Z</time></trkpt><trkpt lat="38.005458011449186" lon="14.099715835419456"><ele>85.0</ele><time>2026-04-19T11:32:21.002Z</time></trkpt><trkpt lat="38.005599661633795" lon="14.099702993491073"><ele>85.0</ele><time>2026-04-19T11:32:22.002Z</time></trkpt><trkpt lat="38.005738520267634" lon="14.099689164481504"><ele>85.0</ele><time>2026-04-19T11:32:23.002Z</time></trkpt><trkpt lat="38.005874358911356" lon="14.09967900673837"><ele>85.0</ele><time>2026-04-19T11:32:24.002Z</time></trkpt><trkpt lat="38.00600060663333" lon="14.099669370990515"><ele>85.0</ele><time>2026-04-19T11:32:25.002Z</time></trkpt><trkpt lat="38.006114131716345" lon="14.09966186447302"><ele>84.83333333333333</ele><time>2026-04-19T11:32:26.002Z</time></trkpt><trkpt lat="38.006213752832316" lon="14.09965278577568"><ele>84.66666666666666</ele><time>2026-04-19T11:32:27.002Z</time></trkpt><trkpt lat="38.00630048666936" lon="14.099644915511718"><ele>84.5</ele><time>2026-04-19T11:32:28.002Z</time></trkpt><trkpt lat="38.00637735844554" lon="14.099637460117934"><ele>84.33333333333333</ele><time>2026-04-19T11:32:29.002Z</time></trkpt><trkpt lat="38.00644281178526" lon="14.099632381189776"><ele>84.16666666666667</ele><time>2026-04-19T11:32:30.002Z</time></trkpt><trkpt lat="38.00654352366033" lon="14.09962486112649"><ele>84.0</ele><time>2026-04-19T11:32:32.002Z</time></trkpt><trkpt lat="38.006604868766" lon="14.099605358089216"><ele>84.16666666666667</ele><time>2026-04-19T11:32:55.001Z</time></trkpt><trkpt lat="38.00668588562415" lon="14.099588419500277"><ele>84.33333333333333</ele><time>2026-04-19T11:32:57.002Z</time></trkpt><trkpt lat="38.00675720715335" lon="14.099569767898464"><ele>84.5</ele><time>2026-04-19T11:32:58.002Z</time></trkpt><trkpt lat="38.00683463645541" lon="14.099550998877165"><ele>84.66666666666666</ele><time>2026-04-19T11:32:59.002Z</time></trkpt><trkpt lat="38.006926873517145" lon="14.09953402574196"><ele>84.83333333333333</ele><time>2026-04-19T11:33:00.002Z</time></trkpt><trkpt lat="38.007027888452924" lon="14.099514041609321"><ele>85.0</ele><time>2026-04-19T11:33:01.002Z</time></trkpt><trkpt lat="38.007142929876835" lon="14.099504663985597"><ele>85.0</ele><time>2026-04-19T11:33:02.002Z</time></trkpt><trkpt lat="38.007270500832924" lon="14.099497104474533"><ele>85.0</ele><time>2026-04-19T11:33:03.002Z</time></trkpt><trkpt lat="38.00739620956991" lon="14.09949416582623"><ele>85.0</ele><time>2026-04-19T11:33:04.002Z</time></trkpt><trkpt lat="38.00752610909652" lon="14.099506901148464"><ele>85.0</ele><time>2026-04-19T11:33:05.002Z</time></trkpt><trkpt lat="38.00765867712613" lon="14.099521942186753"><ele>85.5</ele><time>2026-04-19T11:33:06.002Z</time></trkpt><trkpt lat="38.00779133487377" lon="14.099537703727211"><ele>86.0</ele><time>2026-04-19T11:33:07.002Z</time></trkpt><trkpt lat="38.00793388494908" lon="14.099557945990368"><ele>86.5</ele><time>2026-04-19T11:33:08.002Z</time></trkpt><trkpt lat="38.008071261430935" lon="14.099587007933847"><ele>87.0</ele><time>2026-04-19T11:33:09.002Z</time></trkpt><trkpt lat="38.008213403318344" lon="14.09961838678958"><ele>87.0</ele><time>2026-04-19T11:33:10.002Z</time></trkpt><trkpt lat="38.008343265427506" lon="14.09968558779932"><ele>87.0</ele><time>2026-04-19T11:33:11.002Z</time></trkpt><trkpt lat="38.008453317901015" lon="14.099810620757108"><ele>87.0</ele><time>2026-04-19T11:33:12.002Z</time></trkpt><trkpt lat="38.00858360501919" lon="14.0998804853311"><ele>87.0</ele><time>2026-04-19T11:33:13.002Z</time></trkpt><trkpt lat="38.00872383351317" lon="14.099923516637316"><ele>87.0</ele><time>2026-04-19T11:33:14.002Z</time></trkpt><trkpt lat="38.00886809918209" lon="14.09992331116709"><ele>87.0</ele><time>2026-04-19T11:33:15.002Z</time></trkpt><trkpt lat="38.00900000548166" lon="14.099887891543904"><ele>87.0</ele><time>2026-04-19T11:33:16.002Z</time></trkpt><trkpt lat="38.009119980543005" lon="14.09980950636924"><ele>87.0</ele><time>2026-04-19T11:33:17.002Z</time></trkpt><trkpt lat="38.0092197997502" lon="14.099699523182595"><ele>84.75</ele><time>2026-04-19T11:33:18.002Z</time></trkpt><trkpt lat="38.009315285905295" lon="14.099624484983027"><ele>82.5</ele><time>2026-04-19T11:33:19.002Z</time></trkpt><trkpt lat="38.009424391633196" lon="14.099637814574937"><ele>80.25</ele><time>2026-04-19T11:33:20.002Z</time></trkpt><trkpt lat="38.00952148810928" lon="14.099735034837757"><ele>78.0</ele><time>2026-04-19T11:33:21.002Z</time></trkpt><trkpt lat="38.00963422396088" lon="14.099805895324968"><ele>78.0</ele><time>2026-04-19T11:33:22.002Z</time></trkpt><trkpt lat="38.009750205776726" lon="14.099887243966576"><ele>78.0</ele><time>2026-04-19T11:33:23.002Z</time></trkpt><trkpt lat="38.00988220399655" lon="14.099979217579847"><ele>78.0</ele><time>2026-04-19T11:33:24.002Z</time></trkpt><trkpt lat="38.01000390685426" lon="14.100082770421173"><ele>78.0</ele><time>2026-04-19T11:33:24.999Z</time></trkpt><trkpt lat="38.01011667579491" lon="14.100194961388535"><ele>74.75</ele><time>2026-04-19T11:33:25.999Z</time></trkpt><trkpt lat="38.010228361137834" lon="14.100307113220044"><ele>71.5</ele><time>2026-04-19T11:33:26.999Z</time></trkpt><trkpt lat="38.010328302187844" lon="14.100417601914295"><ele>68.25</ele><time>2026-04-19T11:33:27.999Z</time></trkpt><trkpt lat="38.01043224197988" lon="14.100534372799043"><ele>65.0</ele><time>2026-04-19T11:33:28.999Z</time></trkpt><trkpt lat="38.01051036941595" lon="14.100669870357201"><ele>62.5</ele><time>2026-04-19T11:33:29.999Z</time></trkpt><trkpt lat="38.01058416136028" lon="14.10081762728636"><ele>60.0</ele><time>2026-04-19T11:33:30.999Z</time></trkpt><trkpt lat="38.010655849648295" lon="14.100952271162198"><ele>57.5</ele><time>2026-04-19T11:33:31.999Z</time></trkpt><trkpt lat="38.01074205619368" lon="14.101079015192623"><ele>55.0</ele><time>2026-04-19T11:33:32.999Z</time></trkpt><trkpt lat="38.01083353757212" lon="14.101199811911037"><ele>55.0</ele><time>2026-04-19T11:33:33.999Z</time></trkpt><trkpt lat="38.01092532247649" lon="14.101314491646653"><ele>55.0</ele><time>2026-04-19T11:33:34.999Z</time></trkpt><trkpt lat="38.0110196120136" lon="14.101430298010898"><ele>55.0</ele><time>2026-04-19T11:33:35.999Z</time></trkpt><trkpt lat="38.01110226064701" lon="14.101552815497591"><ele>55.0</ele><time>2026-04-19T11:33:36.999Z</time></trkpt><trkpt lat="38.01116785643488" lon="14.10168584382328"><ele>56.0</ele><time>2026-04-19T11:33:37.999Z</time></trkpt><trkpt lat="38.011218099920846" lon="14.101838113210352"><ele>57.0</ele><time>2026-04-19T11:33:38.999Z</time></trkpt><trkpt lat="38.011225789763756" lon="14.101997159543297"><ele>58.0</ele><time>2026-04-19T11:33:39.999Z</time></trkpt><trkpt lat="38.011232052360214" lon="14.102158414418662"><ele>59.0</ele><time>2026-04-19T11:33:40.999Z</time></trkpt><trkpt lat="38.011195157696555" lon="14.10232074108459"><ele>59.5</ele><time>2026-04-19T11:33:41.999Z</time></trkpt><trkpt lat="38.01115749392928" lon="14.102488851646829"><ele>60.0</ele><time>2026-04-19T11:33:42.999Z</time></trkpt><trkpt lat="38.01111148918957" lon="14.102658359458836"><ele>60.5</ele><time>2026-04-19T11:33:43.999Z</time></trkpt><trkpt lat="38.011079724389226" lon="14.102813548707422"><ele>61.0</ele><time>2026-04-19T11:33:44.999Z</time></trkpt><trkpt lat="38.011076129509405" lon="14.102973915656923"><ele>61.0</ele><time>2026-04-19T11:33:45.999Z</time></trkpt><trkpt lat="38.011107791999855" lon="14.103130557621924"><ele>61.0</ele><time>2026-04-19T11:33:47Z</time></trkpt><trkpt lat="38.011169424392904" lon="14.103271059544403"><ele>61.0</ele><time>2026-04-19T11:33:48Z</time></trkpt><trkpt lat="38.011243914898984" lon="14.103397424668882"><ele>61.0</ele><time>2026-04-19T11:33:49Z</time></trkpt><trkpt lat="38.01132520737815" lon="14.103502973081094"><ele>61.8</ele><time>2026-04-19T11:33:50Z</time></trkpt><trkpt lat="38.011407494468074" lon="14.10358036478425"><ele>62.599999999999994</ele><time>2026-04-19T11:33:51Z</time></trkpt><trkpt lat="38.011475433782955" lon="14.103629709042409"><ele>63.4</ele><time>2026-04-19T11:33:52Z</time></trkpt><trkpt lat="38.011565603955674" lon="14.103654250617357"><ele>64.2</ele><time>2026-04-19T11:33:54Z</time></trkpt><trkpt lat="38.01168015316384" lon="14.103685776903465"><ele>65.0</ele><time>2026-04-19T11:33:56Z</time></trkpt><trkpt lat="38.01174562364096" lon="14.103709220425037"><ele>61.42857142857144</ele><time>2026-04-19T11:33:57Z</time></trkpt><trkpt lat="38.01181650950342" lon="14.10372134031655"><ele>57.85714285714286</ele><time>2026-04-19T11:33:58Z</time></trkpt><trkpt lat="38.01188596492156" lon="14.103750004456591"><ele>54.28571428571429</ele><time>2026-04-19T11:33:59Z</time></trkpt><trkpt lat="38.01195450816068" lon="14.103774750616198"><ele>50.71428571428572</ele><time>2026-04-19T11:34:00Z</time></trkpt><trkpt lat="38.01202369066127" lon="14.103796173565586"><ele>47.142857142857146</ele><time>2026-04-19T11:34:01Z</time></trkpt><trkpt lat="38.0120941271102" lon="14.103817991766304"><ele>43.57142857142857</ele><time>2026-04-19T11:34:02Z</time></trkpt><trkpt lat="38.01216914911165" lon="14.103843986552747"><ele>40.0</ele><time>2026-04-19T11:34:03Z</time></trkpt><trkpt lat="38.0122444199639" lon="14.103880246248233"><ele>40.0</ele><time>2026-04-19T11:34:04Z</time></trkpt><trkpt lat="38.01232385613938" lon="14.103922516079365"><ele>40.0</ele><time>2026-04-19T11:34:05Z</time></trkpt><trkpt lat="38.01240858151761" lon="14.103967585743145"><ele>40.0</ele><time>2026-04-19T11:34:06Z</time></trkpt><trkpt lat="38.01249862107917" lon="14.104014074397035"><ele>40.0</ele><time>2026-04-19T11:34:07Z</time></trkpt><trkpt lat="38.01260465812759" lon="14.10406987007345"><ele>40.0</ele><time>2026-04-19T11:34:08Z</time></trkpt><trkpt lat="38.01272232608286" lon="14.104135831068634"><ele>37.75</ele><time>2026-04-19T11:34:09Z</time></trkpt><trkpt lat="38.012835787590404" lon="14.104203299372514"><ele>35.5</ele><time>2026-04-19T11:34:10Z</time></trkpt><trkpt lat="38.01294334596331" lon="14.104263953150186"><ele>33.25</ele><time>2026-04-19T11:34:11Z</time></trkpt><trkpt lat="38.013035078192615" lon="14.104328155423909"><ele>31.0</ele><time>2026-04-19T11:34:12Z</time></trkpt><trkpt lat="38.013128749977504" lon="14.104388972369179"><ele>31.0</ele><time>2026-04-19T11:34:13Z</time></trkpt><trkpt lat="38.013217348803764" lon="14.10446238580522"><ele>31.0</ele><time>2026-04-19T11:34:14Z</time></trkpt><trkpt lat="38.013302629206855" lon="14.104538397821855"><ele>31.0</ele><time>2026-04-19T11:34:15Z</time></trkpt><trkpt lat="38.013389553627604" lon="14.104606172427001"><ele>31.0</ele><time>2026-04-19T11:34:16Z</time></trkpt><trkpt lat="38.013476958157" lon="14.104668662720877"><ele>31.0</ele><time>2026-04-19T11:34:17Z</time></trkpt><trkpt lat="38.01356194790089" lon="14.104728385117152"><ele>29.4</ele><time>2026-04-19T11:34:18Z</time></trkpt><trkpt lat="38.013650857033305" lon="14.104778999192806"><ele>27.8</ele><time>2026-04-19T11:34:19Z</time></trkpt><trkpt lat="38.013745473205795" lon="14.104811275773312"><ele>26.2</ele><time>2026-04-19T11:34:20.001Z</time></trkpt><trkpt lat="38.013848121139645" lon="14.10481963400825"><ele>24.599999999999998</ele><time>2026-04-19T11:34:21.001Z</time></trkpt><trkpt lat="38.01395038613174" lon="14.104799156450675"><ele>23.0</ele><time>2026-04-19T11:34:22.001Z</time></trkpt><trkpt lat="38.01404005997198" lon="14.104766851842884"><ele>23.0</ele><time>2026-04-19T11:34:23.001Z</time></trkpt><trkpt lat="38.01412121759061" lon="14.104712793251116"><ele>23.0</ele><time>2026-04-19T11:34:24.001Z</time></trkpt><trkpt lat="38.0141832802684" lon="14.104667643342266"><ele>23.0</ele><time>2026-04-19T11:34:25.001Z</time></trkpt><trkpt lat="38.01426295092762" lon="14.104612396894483"><ele>23.0</ele><time>2026-04-19T11:34:27.001Z</time></trkpt><trkpt lat="38.01432435032339" lon="14.104539537656791"><ele>23.0</ele><time>2026-04-19T11:34:29.001Z</time></trkpt><trkpt lat="38.01436336631096" lon="14.104476504811243"><ele>23.0</ele><time>2026-04-19T11:34:31.001Z</time></trkpt><trkpt lat="38.0143979647863" lon="14.104401869340583"><ele>21.666666666666668</ele><time>2026-04-19T11:34:42.001Z</time></trkpt><trkpt lat="38.014466239522044" lon="14.104282439722128"><ele>20.333333333333336</ele><time>2026-04-19T11:34:44.001Z</time></trkpt><trkpt lat="38.014503562492614" lon="14.10421578618744"><ele>19.0</ele><time>2026-04-19T11:34:45.001Z</time></trkpt><trkpt lat="38.01456815337207" lon="14.104173206130774"><ele>17.666666666666668</ele><time>2026-04-19T11:34:46.001Z</time></trkpt><trkpt lat="38.01461882452596" lon="14.10411193557716"><ele>16.333333333333332</ele><time>2026-04-19T11:34:47.001Z</time></trkpt><trkpt lat="38.014682059993405" lon="14.104087309161702"><ele>15.0</ele><time>2026-04-19T11:34:48.001Z</time></trkpt><trkpt lat="38.0147463466193" lon="14.104084038768498"><ele>15.0</ele><time>2026-04-19T11:34:49.001Z</time></trkpt><trkpt lat="38.014856120426536" lon="14.104112470533023"><ele>15.0</ele><time>2026-04-19T11:34:51.001Z</time></trkpt><trkpt lat="38.01494707662053" lon="14.104162265006991"><ele>15.0</ele><time>2026-04-19T11:34:53.001Z</time></trkpt><trkpt lat="38.01498688300635" lon="14.104267592953407"><ele>15.0</ele><time>2026-04-19T11:34:55.001Z</time></trkpt><trkpt lat="38.01499191329401" lon="14.10435223885482"><ele>15.0</ele><time>2026-04-19T11:34:57.002Z</time></trkpt><trkpt lat="38.01498579757887" lon="14.104464351367549"><ele>15.0</ele><time>2026-04-19T11:34:59.002Z</time></trkpt><trkpt lat="38.01495974007937" lon="14.104636235925685"><ele>15.0</ele><time>2026-04-19T11:35:01.002Z</time></trkpt><trkpt lat="38.01493473566591" lon="14.104725973101678"><ele>15.0</ele><time>2026-04-19T11:35:02.002Z</time></trkpt><trkpt lat="38.014890998711266" lon="14.104832889697471"><ele>15.0</ele><time>2026-04-19T11:35:03.002Z</time></trkpt><trkpt lat="38.01484560997907" lon="14.104948021499975"><ele>15.0</ele><time>2026-04-19T11:35:04.002Z</time></trkpt><trkpt lat="38.01479698362666" lon="14.105065947571534"><ele>17.0</ele><time>2026-04-19T11:35:05.002Z</time></trkpt><trkpt lat="38.014749841255075" lon="14.105183944479617"><ele>19.0</ele><time>2026-04-19T11:35:06.002Z</time></trkpt><trkpt lat="38.01470394456216" lon="14.105300651582876"><ele>21.0</ele><time>2026-04-19T11:35:07.002Z</time></trkpt><trkpt lat="38.014658849620425" lon="14.105416067892405"><ele>23.0</ele><time>2026-04-19T11:35:08.002Z</time></trkpt><trkpt lat="38.014616756084884" lon="14.10552796438513"><ele>25.0</ele><time>2026-04-19T11:35:09.002Z</time></trkpt><trkpt lat="38.01457591857325" lon="14.105639679387428"><ele>26.4</ele><time>2026-04-19T11:35:10.002Z</time></trkpt><trkpt lat="38.014538839482114" lon="14.105751148202904"><ele>27.8</ele><time>2026-04-19T11:35:11.002Z</time></trkpt><trkpt lat="38.01450415300399" lon="14.105862361701558"><ele>29.200000000000003</ele><time>2026-04-19T11:35:12.002Z</time></trkpt><trkpt lat="38.014473151819594" lon="14.105979880941819"><ele>30.6</ele><time>2026-04-19T11:35:13.002Z</time></trkpt><trkpt lat="38.014444365635434" lon="14.106090162181193"><ele>32.0</ele><time>2026-04-19T11:35:14.002Z</time></trkpt><trkpt lat="38.014415733636284" lon="14.106203440601425"><ele>32.0</ele><time>2026-04-19T11:35:15.002Z</time></trkpt><trkpt lat="38.01438671573598" lon="14.106325802676796"><ele>32.0</ele><time>2026-04-19T11:35:16.002Z</time></trkpt><trkpt lat="38.01435905066121" lon="14.106452374858481"><ele>32.0</ele><time>2026-04-19T11:35:17.002Z</time></trkpt><trkpt lat="38.01433529769825" lon="14.106573990100092"><ele>32.0</ele><time>2026-04-19T11:35:18.002Z</time></trkpt><trkpt lat="38.01431345318753" lon="14.106698168152391"><ele>32.0</ele><time>2026-04-19T11:35:19.002Z</time></trkpt><trkpt lat="38.01429324107103" lon="14.1068235694537"><ele>30.6</ele><time>2026-04-19T11:35:20.002Z</time></trkpt><trkpt lat="38.01427406067376" lon="14.106954715334213"><ele>29.200000000000003</ele><time>2026-04-19T11:35:21.002Z</time></trkpt><trkpt lat="38.01425596702428" lon="14.107087761166254"><ele>27.8</ele><time>2026-04-19T11:35:22.002Z</time></trkpt><trkpt lat="38.01424045148652" lon="14.107218319578674"><ele>26.4</ele><time>2026-04-19T11:35:23.002Z</time></trkpt><trkpt lat="38.01422437174875" lon="14.107353625960105"><ele>25.0</ele><time>2026-04-19T11:35:24.002Z</time></trkpt><trkpt lat="38.014208663256554" lon="14.107493743893286"><ele>24.0</ele><time>2026-04-19T11:35:25.002Z</time></trkpt><trkpt lat="38.01419319771925" lon="14.107635203865247"><ele>23.0</ele><time>2026-04-19T11:35:26.002Z</time></trkpt><trkpt lat="38.01418242498532" lon="14.107851815438233"><ele>22.0</ele><time>2026-04-19T11:35:27.002Z</time></trkpt><trkpt lat="38.01419942887798" lon="14.108015299311646"><ele>21.0</ele><time>2026-04-19T11:35:28.002Z</time></trkpt><trkpt lat="38.01421942594913" lon="14.108170876467089"><ele>21.25</ele><time>2026-04-19T11:35:29.002Z</time></trkpt><trkpt lat="38.014242120306875" lon="14.10832985598907"><ele>21.5</ele><time>2026-04-19T11:35:30.002Z</time></trkpt><trkpt lat="38.01426442007167" lon="14.108483936339502"><ele>21.75</ele><time>2026-04-19T11:35:30.999Z</time></trkpt><trkpt lat="38.01429332108993" lon="14.108649021105212"><ele>22.0</ele><time>2026-04-19T11:35:31.999Z</time></trkpt><trkpt lat="38.014325160519896" lon="14.10880902629636"><ele>22.0</ele><time>2026-04-19T11:35:32.999Z</time></trkpt><trkpt lat="38.014362190684864" lon="14.108959537177249"><ele>22.0</ele><time>2026-04-19T11:35:33.999Z</time></trkpt><trkpt lat="38.01441804019932" lon="14.109123164129862"><ele>22.0</ele><time>2026-04-19T11:35:34.999Z</time></trkpt><trkpt lat="38.01449546879734" lon="14.109258652113882"><ele>22.0</ele><time>2026-04-19T11:35:35.999Z</time></trkpt><trkpt lat="38.01455092952182" lon="14.109370617211981"><ele>23.75</ele><time>2026-04-19T11:35:36.999Z</time></trkpt><trkpt lat="38.01459707853089" lon="14.109508541898393"><ele>25.5</ele><time>2026-04-19T11:35:37.999Z</time></trkpt><trkpt lat="38.014634468672796" lon="14.109661244891138"><ele>27.25</ele><time>2026-04-19T11:35:38.999Z</time></trkpt><trkpt lat="38.01466954507933" lon="14.10981917296564"><ele>29.0</ele><time>2026-04-19T11:35:39.999Z</time></trkpt><trkpt lat="38.01471810114359" lon="14.109971758139137"><ele>30.75</ele><time>2026-04-19T11:35:40.999Z</time></trkpt><trkpt lat="38.01474332361139" lon="14.110132412605692"><ele>32.5</ele><time>2026-04-19T11:35:41.999Z</time></trkpt><trkpt lat="38.01476881014229" lon="14.110287797515515"><ele>34.25</ele><time>2026-04-19T11:35:42.999Z</time></trkpt><trkpt lat="38.01478710318071" lon="14.110435739593077"><ele>36.0</ele><time>2026-04-19T11:35:43.999Z</time></trkpt><trkpt lat="38.01480617994098" lon="14.110577071788564"><ele>36.0</ele><time>2026-04-19T11:35:45Z</time></trkpt><trkpt lat="38.01482702564845" lon="14.110710599837741"><ele>36.0</ele><time>2026-04-19T11:35:46Z</time></trkpt><trkpt lat="38.014827459949565" lon="14.110842920503979"><ele>36.0</ele><time>2026-04-19T11:35:47Z</time></trkpt><trkpt lat="38.014844897637325" lon="14.110976023812377"><ele>36.0</ele><time>2026-04-19T11:35:48Z</time></trkpt><trkpt lat="38.01486246295463" lon="14.111109637713596"><ele>36.0</ele><time>2026-04-19T11:35:49Z</time></trkpt><trkpt lat="38.01487625562346" lon="14.111243355876203"><ele>38.6</ele><time>2026-04-19T11:35:50Z</time></trkpt><trkpt lat="38.014890289503654" lon="14.111377540679122"><ele>41.2</ele><time>2026-04-19T11:35:51Z</time></trkpt><trkpt lat="38.01490034363609" lon="14.111510266737843"><ele>43.800000000000004</ele><time>2026-04-19T11:35:52Z</time></trkpt><trkpt lat="38.01490303285233" lon="14.111645548915186"><ele>46.400000000000006</ele><time>2026-04-19T11:35:53Z</time></trkpt><trkpt lat="38.01490303285196" lon="14.111785159854707"><ele>49.0</ele><time>2026-04-19T11:35:54Z</time></trkpt><trkpt lat="38.01490869495861" lon="14.111930467826506"><ele>50.0</ele><time>2026-04-19T11:35:55Z</time></trkpt><trkpt lat="38.014920138459026" lon="14.112076971182967"><ele>51.0</ele><time>2026-04-19T11:35:56Z</time></trkpt><trkpt lat="38.01493565735195" lon="14.112222624437875"><ele>52.0</ele><time>2026-04-19T11:35:57Z</time></trkpt><trkpt lat="38.01495705639559" lon="14.112368467945691"><ele>53.0</ele><time>2026-04-19T11:35:58Z</time></trkpt><trkpt lat="38.014983764224034" lon="14.112516513302616"><ele>43.25</ele><time>2026-04-19T11:35:59Z</time></trkpt><trkpt lat="38.015015817904676" lon="14.112661853061837"><ele>33.5</ele><time>2026-04-19T11:36:00Z</time></trkpt><trkpt lat="38.015049266577854" lon="14.112806257603992"><ele>23.75</ele><time>2026-04-19T11:36:01Z</time></trkpt><trkpt lat="38.015086133846744" lon="14.11294943026486"><ele>14.0</ele><time>2026-04-19T11:36:02Z</time></trkpt><trkpt lat="38.015127381575" lon="14.113090163042507"><ele>14.0</ele><time>2026-04-19T11:36:03Z</time></trkpt><trkpt lat="38.01516919193843" lon="14.113233204756035"><ele>14.0</ele><time>2026-04-19T11:36:04Z</time></trkpt><trkpt lat="38.01520749866752" lon="14.113372583830518"><ele>14.0</ele><time>2026-04-19T11:36:05Z</time></trkpt><trkpt lat="38.01524286881127" lon="14.113511978851015"><ele>14.0</ele><time>2026-04-19T11:36:06Z</time></trkpt><trkpt lat="38.015274238651386" lon="14.113654359803622"><ele>15.75</ele><time>2026-04-19T11:36:07Z</time></trkpt><trkpt lat="38.015304507424204" lon="14.113796857212273"><ele>17.5</ele><time>2026-04-19T11:36:08Z</time></trkpt><trkpt lat="38.01533282941515" lon="14.113941943059645"><ele>19.25</ele><time>2026-04-19T11:36:09Z</time></trkpt><trkpt lat="38.01533653675857" lon="14.11409422359396"><ele>21.0</ele><time>2026-04-19T11:36:10Z</time></trkpt><trkpt lat="38.01533832404095" lon="14.114248169005752"><ele>24.5</ele><time>2026-04-19T11:36:11Z</time></trkpt><trkpt lat="38.01534389882346" lon="14.114405789830748"><ele>28.0</ele><time>2026-04-19T11:36:12Z</time></trkpt><trkpt lat="38.015354400943394" lon="14.114558374254088"><ele>31.5</ele><time>2026-04-19T11:36:13Z</time></trkpt><trkpt lat="38.015367112639204" lon="14.114711523445493"><ele>35.0</ele><time>2026-04-19T11:36:14Z</time></trkpt><trkpt lat="38.01539104993522" lon="14.11486175830852"><ele>35.75</ele><time>2026-04-19T11:36:15Z</time></trkpt><trkpt lat="38.01543120221334" lon="14.115008891224448"><ele>36.5</ele><time>2026-04-19T11:36:16.001Z</time></trkpt><trkpt lat="38.01548125643182" lon="14.115153717852591"><ele>37.25</ele><time>2026-04-19T11:36:17.001Z</time></trkpt><trkpt lat="38.01553149443166" lon="14.115297504684381"><ele>38.0</ele><time>2026-04-19T11:36:18.001Z</time></trkpt><trkpt lat="38.015589044973595" lon="14.11543961814285"><ele>38.0</ele><time>2026-04-19T11:36:19.001Z</time></trkpt><trkpt lat="38.01566129929235" lon="14.115570218506184"><ele>38.0</ele><time>2026-04-19T11:36:20.001Z</time></trkpt><trkpt lat="38.01575242031456" lon="14.115681812543386"><ele>38.0</ele><time>2026-04-19T11:36:21.001Z</time></trkpt><trkpt lat="38.01584442441266" lon="14.115788982010548"><ele>38.0</ele><time>2026-04-19T11:36:22.001Z</time></trkpt><trkpt lat="38.01593321001951" lon="14.11589608342785"><ele>33.75</ele><time>2026-04-19T11:36:23.001Z</time></trkpt><trkpt lat="38.01601858204776" lon="14.116004676372773"><ele>29.5</ele><time>2026-04-19T11:36:24.001Z</time></trkpt><trkpt lat="38.016099688571416" lon="14.116112180479606"><ele>25.25</ele><time>2026-04-19T11:36:25.001Z</time></trkpt><trkpt lat="38.016174185608" lon="14.116225052306556"><ele>21.0</ele><time>2026-04-19T11:36:26.001Z</time></trkpt><trkpt lat="38.016228437820835" lon="14.116354536077296"><ele>21.0</ele><time>2026-04-19T11:36:27.001Z</time></trkpt><trkpt lat="38.01625681340573" lon="14.116503734629154"><ele>21.0</ele><time>2026-04-19T11:36:28.001Z</time></trkpt><trkpt lat="38.016282895242284" lon="14.116656654903915"><ele>21.0</ele><time>2026-04-19T11:36:29.001Z</time></trkpt><trkpt lat="38.01629709994621" lon="14.116808886199493"><ele>21.0</ele><time>2026-04-19T11:36:30.001Z</time></trkpt><trkpt lat="38.01628693889676" lon="14.116961282532987"><ele>27.5</ele><time>2026-04-19T11:36:31.001Z</time></trkpt><trkpt lat="38.01625244978164" lon="14.117112563583769"><ele>34.0</ele><time>2026-04-19T11:36:32.001Z</time></trkpt><trkpt lat="38.01621882200773" lon="14.117263153467746"><ele>40.5</ele><time>2026-04-19T11:36:33.001Z</time></trkpt><trkpt lat="38.01621394156466" lon="14.117422794469853"><ele>47.0</ele><time>2026-04-19T11:36:34.001Z</time></trkpt><trkpt lat="38.01622637595214" lon="14.117578054700903"><ele>47.5</ele><time>2026-04-19T11:36:35.001Z</time></trkpt><trkpt lat="38.01621813554818" lon="14.117723611781805"><ele>48.0</ele><time>2026-04-19T11:36:36.001Z</time></trkpt><trkpt lat="38.01617484697172" lon="14.11786331813658"><ele>48.5</ele><time>2026-04-19T11:36:37.001Z</time></trkpt><trkpt lat="38.016099944088374" lon="14.117978005530242"><ele>49.0</ele><time>2026-04-19T11:36:38.001Z</time></trkpt><trkpt lat="38.01606551328628" lon="14.118118370540582"><ele>46.25</ele><time>2026-04-19T11:36:39.001Z</time></trkpt><trkpt lat="38.01602720208397" lon="14.11825646753862"><ele>43.5</ele><time>2026-04-19T11:36:40.001Z</time></trkpt><trkpt lat="38.01600691144336" lon="14.118410571795108"><ele>40.75</ele><time>2026-04-19T11:36:41.001Z</time></trkpt><trkpt lat="38.015992941775266" lon="14.118567029291073"><ele>38.0</ele><time>2026-04-19T11:36:42.001Z</time></trkpt><trkpt lat="38.01597529217472" lon="14.118729310239946"><ele>38.0</ele><time>2026-04-19T11:36:43.001Z</time></trkpt><trkpt lat="38.015963394837776" lon="14.11889796786308"><ele>38.0</ele><time>2026-04-19T11:36:44.001Z</time></trkpt><trkpt lat="38.01597306897307" lon="14.119072542264925"><ele>38.0</ele><time>2026-04-19T11:36:45.001Z</time></trkpt><trkpt lat="38.01600114533115" lon="14.119244779744609"><ele>38.0</ele><time>2026-04-19T11:36:46.001Z</time></trkpt><trkpt lat="38.01603019038408" lon="14.119415357340984"><ele>37.75</ele><time>2026-04-19T11:36:47.001Z</time></trkpt><trkpt lat="38.01606140793785" lon="14.11959556793011"><ele>37.5</ele><time>2026-04-19T11:36:48.001Z</time></trkpt><trkpt lat="38.01609230767344" lon="14.119769470487793"><ele>37.25</ele><time>2026-04-19T11:36:49.001Z</time></trkpt><trkpt lat="38.01611604746311" lon="14.119945512393295"><ele>37.0</ele><time>2026-04-19T11:36:50.001Z</time></trkpt><trkpt lat="38.01613177312861" lon="14.120127654938754"><ele>36.25</ele><time>2026-04-19T11:36:51.002Z</time></trkpt><trkpt lat="38.016148660456736" lon="14.120312219566909"><ele>35.5</ele><time>2026-04-19T11:36:52.002Z</time></trkpt><trkpt lat="38.01615765793177" lon="14.120491097872861"><ele>34.75</ele><time>2026-04-19T11:36:53.002Z</time></trkpt><trkpt lat="38.01616570638775" lon="14.120682575416382"><ele>34.0</ele><time>2026-04-19T11:36:54.002Z</time></trkpt><trkpt lat="38.016183177168195" lon="14.120869925014173"><ele>33.66666666666667</ele><time>2026-04-19T11:36:55.002Z</time></trkpt><trkpt lat="38.01620539838587" lon="14.121057058565306"><ele>33.333333333333336</ele><time>2026-04-19T11:36:56.002Z</time></trkpt><trkpt lat="38.016235517899524" lon="14.121245242391696"><ele>33.0</ele><time>2026-04-19T11:36:57.002Z</time></trkpt><trkpt lat="38.01626970802798" lon="14.12143166780694"><ele>33.666666666666664</ele><time>2026-04-19T11:36:58.002Z</time></trkpt><trkpt lat="38.01630611305047" lon="14.121618401074024"><ele>34.33333333333333</ele><time>2026-04-19T11:36:59.002Z</time></trkpt><trkpt lat="38.016344901617344" lon="14.121805776468142"><ele>35.0</ele><time>2026-04-19T11:37:00.002Z</time></trkpt><trkpt lat="38.016388170424364" lon="14.121993936948748"><ele>35.0</ele><time>2026-04-19T11:37:01.002Z</time></trkpt><trkpt lat="38.01642973145486" lon="14.122183736334819"><ele>35.0</ele><time>2026-04-19T11:37:02.002Z</time></trkpt><trkpt lat="38.01646844276275" lon="14.122374267926299"><ele>35.0</ele><time>2026-04-19T11:37:03.002Z</time></trkpt><trkpt lat="38.01649866433094" lon="14.122566093178241"><ele>37.0</ele><time>2026-04-19T11:37:04.002Z</time></trkpt><trkpt lat="38.016522788320565" lon="14.122764541429248"><ele>39.0</ele><time>2026-04-19T11:37:05.002Z</time></trkpt><trkpt lat="38.01654052467057" lon="14.122964366513513"><ele>41.0</ele><time>2026-04-19T11:37:06.002Z</time></trkpt><trkpt lat="38.01655301545725" lon="14.12316519784811"><ele>44.0</ele><time>2026-04-19T11:37:07.002Z</time></trkpt><trkpt lat="38.01656090484018" lon="14.123367633331906"><ele>47.0</ele><time>2026-04-19T11:37:08.002Z</time></trkpt><trkpt lat="38.01656160504359" lon="14.123568841442324"><ele>50.0</ele><time>2026-04-19T11:37:09.002Z</time></trkpt><trkpt lat="38.01655610184509" lon="14.123770319841418"><ele>50.0</ele><time>2026-04-19T11:37:10.002Z</time></trkpt><trkpt lat="38.016543641730415" lon="14.123974803990443"><ele>50.0</ele><time>2026-04-19T11:37:11.002Z</time></trkpt><trkpt lat="38.01653361843356" lon="14.124178737662987"><ele>50.0</ele><time>2026-04-19T11:37:12.002Z</time></trkpt><trkpt lat="38.016524301932265" lon="14.124380466888393"><ele>51.333333333333336</ele><time>2026-04-19T11:37:13.002Z</time></trkpt><trkpt lat="38.016519168910534" lon="14.124581860223111"><ele>52.66666666666667</ele><time>2026-04-19T11:37:14.002Z</time></trkpt><trkpt lat="38.01652348931011" lon="14.124780425977"><ele>54.0</ele><time>2026-04-19T11:37:15.002Z</time></trkpt><trkpt lat="38.016532586043915" lon="14.124975878293865"><ele>56.0</ele><time>2026-04-19T11:37:16.002Z</time></trkpt><trkpt lat="38.01654077240477" lon="14.125168298553408"><ele>58.0</ele><time>2026-04-19T11:37:17.002Z</time></trkpt><trkpt lat="38.016547907115076" lon="14.12535717042726"><ele>60.0</ele><time>2026-04-19T11:37:18.002Z</time></trkpt><trkpt lat="38.01655473194608" lon="14.12554130479275"><ele>62.0</ele><time>2026-04-19T11:37:19.002Z</time></trkpt><trkpt lat="38.01656516747218" lon="14.125720897893274"><ele>63.75</ele><time>2026-04-19T11:37:20.002Z</time></trkpt><trkpt lat="38.01657064075274" lon="14.125894167223906"><ele>65.5</ele><time>2026-04-19T11:37:21.002Z</time></trkpt><trkpt lat="38.0165688008903" lon="14.126063738449126"><ele>67.25</ele><time>2026-04-19T11:37:22.002Z</time></trkpt><trkpt lat="38.01656458771703" lon="14.126230858441984"><ele>69.0</ele><time>2026-04-19T11:37:23.002Z</time></trkpt><trkpt lat="38.01656205220531" lon="14.126393613743339"><ele>69.0</ele><time>2026-04-19T11:37:24.002Z</time></trkpt><trkpt lat="38.016556615904186" lon="14.126552651425014"><ele>69.0</ele><time>2026-04-19T11:37:25.002Z</time></trkpt><trkpt lat="38.016563358138235" lon="14.126698967329162"><ele>69.0</ele><time>2026-04-19T11:37:26.002Z</time></trkpt><trkpt lat="38.01660691684004" lon="14.12682606194332"><ele>69.0</ele><time>2026-04-19T11:37:27.003Z</time></trkpt><trkpt lat="38.0166814725264" lon="14.126933161988728"><ele>59.5</ele><time>2026-04-19T11:37:28.003Z</time></trkpt><trkpt lat="38.01674610694481" lon="14.127048437319823"><ele>50.0</ele><time>2026-04-19T11:37:29.003Z</time></trkpt><trkpt lat="38.01681042711543" lon="14.12716832760739"><ele>40.5</ele><time>2026-04-19T11:37:30.003Z</time></trkpt><trkpt lat="38.016867271738064" lon="14.127298061889572"><ele>31.0</ele><time>2026-04-19T11:37:31.003Z</time></trkpt><trkpt lat="38.01691860930714" lon="14.12743560752815"><ele>31.0</ele><time>2026-04-19T11:37:32.003Z</time></trkpt><trkpt lat="38.016970665808884" lon="14.12757285386976"><ele>31.0</ele><time>2026-04-19T11:37:33.003Z</time></trkpt><trkpt lat="38.01704363095474" lon="14.12769531116298"><ele>31.0</ele><time>2026-04-19T11:37:34.003Z</time></trkpt><trkpt lat="38.01714347729421" lon="14.127792469840633"><ele>31.0</ele><time>2026-04-19T11:37:35.003Z</time></trkpt><trkpt lat="38.017251741051524" lon="14.127864633921279"><ele>31.0</ele><time>2026-04-19T11:37:36.003Z</time></trkpt><trkpt lat="38.017370758906296" lon="14.127933904150616"><ele>31.0</ele><time>2026-04-19T11:37:37Z</time></trkpt><trkpt lat="38.017489146575684" lon="14.127996247711932"><ele>31.0</ele><time>2026-04-19T11:37:38Z</time></trkpt><trkpt lat="38.01758558416424" lon="14.128095796024546"><ele>31.0</ele><time>2026-04-19T11:37:39Z</time></trkpt><trkpt lat="38.0176589816566" lon="14.128231666800763"><ele>28.0</ele><time>2026-04-19T11:37:40Z</time></trkpt><trkpt lat="38.017710210769714" lon="14.128386847678643"><ele>25.0</ele><time>2026-04-19T11:37:41Z</time></trkpt><trkpt lat="38.01774519194695" lon="14.128551453884755"><ele>22.0</ele><time>2026-04-19T11:37:42Z</time></trkpt><trkpt lat="38.0177660694587" lon="14.128722680322294"><ele>19.0</ele><time>2026-04-19T11:37:43Z</time></trkpt><trkpt lat="38.017777437201296" lon="14.128889950772436"><ele>21.0</ele><time>2026-04-19T11:37:44Z</time></trkpt><trkpt lat="38.017758180317145" lon="14.129059402132436"><ele>23.0</ele><time>2026-04-19T11:37:45Z</time></trkpt><trkpt lat="38.0177217100493" lon="14.129224767747761"><ele>25.0</ele><time>2026-04-19T11:37:46Z</time></trkpt><trkpt lat="38.01768731876015" lon="14.129389508662994"><ele>27.0</ele><time>2026-04-19T11:37:47Z</time></trkpt><trkpt lat="38.01765750274515" lon="14.129558038381592"><ele>27.0</ele><time>2026-04-19T11:37:48Z</time></trkpt><trkpt lat="38.01762562716422" lon="14.129723389134227"><ele>27.0</ele><time>2026-04-19T11:37:49Z</time></trkpt><trkpt lat="38.01760631928011" lon="14.129889141932823"><ele>27.0</ele><time>2026-04-19T11:37:50Z</time></trkpt><trkpt lat="38.017613832985276" lon="14.13005690835938"><ele>27.0</ele><time>2026-04-19T11:37:51Z</time></trkpt><trkpt lat="38.01765609759506" lon="14.130224444807233"><ele>28.0</ele><time>2026-04-19T11:37:52Z</time></trkpt><trkpt lat="38.01773905332806" lon="14.130381848658283"><ele>29.0</ele><time>2026-04-19T11:37:53Z</time></trkpt><trkpt lat="38.017804074629005" lon="14.13054403084247"><ele>30.0</ele><time>2026-04-19T11:37:54Z</time></trkpt><trkpt lat="38.017877903508655" lon="14.130706592007204"><ele>31.0</ele><time>2026-04-19T11:37:55Z</time></trkpt><trkpt lat="38.01794763214428" lon="14.13087433024738"><ele>34.333333333333336</ele><time>2026-04-19T11:37:56Z</time></trkpt><trkpt lat="38.01801768529507" lon="14.131047291497765"><ele>37.666666666666664</ele><time>2026-04-19T11:37:57Z</time></trkpt><trkpt lat="38.01808703110261" lon="14.131220148661976"><ele>41.0</ele><time>2026-04-19T11:37:58Z</time></trkpt><trkpt lat="38.018159482770194" lon="14.13138993066825"><ele>47.0</ele><time>2026-04-19T11:37:59Z</time></trkpt><trkpt lat="38.01823600443115" lon="14.131562735200276"><ele>53.0</ele><time>2026-04-19T11:38:00Z</time></trkpt><trkpt lat="38.01831606499485" lon="14.131740639842338"><ele>59.0</ele><time>2026-04-19T11:38:01Z</time></trkpt><trkpt lat="38.01839203766121" lon="14.131909915662765"><ele>50.0</ele><time>2026-04-19T11:38:02Z</time></trkpt><trkpt lat="38.01846715751861" lon="14.132085682231779"><ele>41.0</ele><time>2026-04-19T11:38:03Z</time></trkpt><trkpt lat="38.018541913920984" lon="14.132262080655446"><ele>32.0</ele><time>2026-04-19T11:38:04Z</time></trkpt><trkpt lat="38.018613206929494" lon="14.132434124689707"><ele>32.0</ele><time>2026-04-19T11:38:05Z</time></trkpt><trkpt lat="38.01868279088763" lon="14.132602032615244"><ele>32.0</ele><time>2026-04-19T11:38:06Z</time></trkpt><trkpt lat="38.01875016994754" lon="14.132767166621024"><ele>32.0</ele><time>2026-04-19T11:38:07Z</time></trkpt><trkpt lat="38.01881817307457" lon="14.132930675739393"><ele>32.0</ele><time>2026-04-19T11:38:08Z</time></trkpt><trkpt lat="38.01888657376958" lon="14.133096168661917"><ele>28.5</ele><time>2026-04-19T11:38:09Z</time></trkpt><trkpt lat="38.018959442627704" lon="14.133259283756196"><ele>25.0</ele><time>2026-04-19T11:38:10Z</time></trkpt><trkpt lat="38.01902929027865" lon="14.133427013307962"><ele>21.5</ele><time>2026-04-19T11:38:11Z</time></trkpt><trkpt lat="38.01909887701411" lon="14.133597817959378"><ele>18.0</ele><time>2026-04-19T11:38:12Z</time></trkpt><trkpt lat="38.01916900507472" lon="14.133771505627593"><ele>18.0</ele><time>2026-04-19T11:38:13.001Z</time></trkpt><trkpt lat="38.019241268447075" lon="14.133946221296169"><ele>18.0</ele><time>2026-04-19T11:38:14.001Z</time></trkpt><trkpt lat="38.01931015710447" lon="14.13412013762721"><ele>18.0</ele><time>2026-04-19T11:38:15.001Z</time></trkpt><trkpt lat="38.01937819494433" lon="14.13429366223368"><ele>20.5</ele><time>2026-04-19T11:38:16.001Z</time></trkpt><trkpt lat="38.019445793603545" lon="14.134464268932184"><ele>23.0</ele><time>2026-04-19T11:38:17.001Z</time></trkpt><trkpt lat="38.01950883395339" lon="14.134633080003962"><ele>25.5</ele><time>2026-04-19T11:38:18.001Z</time></trkpt><trkpt lat="38.01956980394833" lon="14.134798672460123"><ele>28.0</ele><time>2026-04-19T11:38:19.001Z</time></trkpt><trkpt lat="38.01963346611495" lon="14.134959246621957"><ele>33.5</ele><time>2026-04-19T11:38:20.001Z</time></trkpt><trkpt lat="38.01969742689683" lon="14.135118920153232"><ele>39.0</ele><time>2026-04-19T11:38:21.001Z</time></trkpt><trkpt lat="38.01976033019547" lon="14.13527911724239"><ele>44.5</ele><time>2026-04-19T11:38:22.001Z</time></trkpt><trkpt lat="38.01982178781357" lon="14.135439152319567"><ele>50.0</ele><time>2026-04-19T11:38:23.001Z</time></trkpt><trkpt lat="38.01988786465981" lon="14.135598041110365"><ele>54.5</ele><time>2026-04-19T11:38:24.001Z</time></trkpt><trkpt lat="38.01995778883562" lon="14.13575277842831"><ele>59.0</ele><time>2026-04-19T11:38:25.001Z</time></trkpt><trkpt lat="38.020029587245695" lon="14.135905166664482"><ele>63.5</ele><time>2026-04-19T11:38:26.001Z</time></trkpt><trkpt lat="38.020099803286655" lon="14.136056099364062"><ele>68.0</ele><time>2026-04-19T11:38:27.001Z</time></trkpt><trkpt lat="38.020160056852085" lon="14.136211207821356"><ele>63.5</ele><time>2026-04-19T11:38:28.001Z</time></trkpt><trkpt lat="38.02021216805311" lon="14.136369879422386"><ele>59.0</ele><time>2026-04-19T11:38:29.001Z</time></trkpt><trkpt lat="38.020257036773714" lon="14.136530174890789"><ele>54.5</ele><time>2026-04-19T11:38:30.001Z</time></trkpt><trkpt lat="38.020295009045924" lon="14.13669265371095"><ele>50.0</ele><time>2026-04-19T11:38:31.001Z</time></trkpt><trkpt lat="38.02033304790238" lon="14.136850237201278"><ele>50.0</ele><time>2026-04-19T11:38:32.001Z</time></trkpt><trkpt lat="38.020380727957004" lon="14.137005133895103"><ele>50.0</ele><time>2026-04-19T11:38:33.001Z</time></trkpt><trkpt lat="38.02045613535959" lon="14.137149322548064"><ele>50.0</ele><time>2026-04-19T11:38:34.001Z</time></trkpt><trkpt lat="38.02054576175719" lon="14.13728057655248"><ele>50.0</ele><time>2026-04-19T11:38:35.001Z</time></trkpt><trkpt lat="38.02062281688414" lon="14.137416970583107"><ele>53.5</ele><time>2026-04-19T11:38:36.001Z</time></trkpt><trkpt lat="38.020680084489754" lon="14.137568489606677"><ele>57.0</ele><time>2026-04-19T11:38:37.001Z</time></trkpt><trkpt lat="38.020732217510265" lon="14.137717970604209"><ele>60.5</ele><time>2026-04-19T11:38:38.001Z</time></trkpt><trkpt lat="38.02080975486187" lon="14.137853561663238"><ele>64.0</ele><time>2026-04-19T11:38:39.001Z</time></trkpt><trkpt lat="38.020894085366585" lon="14.137983215079608"><ele>59.25</ele><time>2026-04-19T11:38:40.001Z</time></trkpt><trkpt lat="38.02097885162429" lon="14.138114505150162"><ele>54.5</ele><time>2026-04-19T11:38:41.001Z</time></trkpt><trkpt lat="38.0210671190092" lon="14.138242878558367"><ele>49.75</ele><time>2026-04-19T11:38:42.001Z</time></trkpt><trkpt lat="38.021139282362256" lon="14.1383810297086"><ele>45.0</ele><time>2026-04-19T11:38:43.001Z</time></trkpt><trkpt lat="38.02119289775116" lon="14.138529851141366"><ele>45.0</ele><time>2026-04-19T11:38:44.001Z</time></trkpt><trkpt lat="38.02122524574013" lon="14.138683791026478"><ele>45.0</ele><time>2026-04-19T11:38:45.001Z</time></trkpt><trkpt lat="38.021255479582656" lon="14.1388369134428"><ele>45.0</ele><time>2026-04-19T11:38:46.001Z</time></trkpt><trkpt lat="38.021300800534576" lon="14.138979386047827"><ele>45.0</ele><time>2026-04-19T11:38:47.001Z</time></trkpt><trkpt lat="38.02138295059056" lon="14.139094763232581"><ele>47.75</ele><time>2026-04-19T11:38:48.002Z</time></trkpt><trkpt lat="38.0214936101192" lon="14.139175193013026"><ele>50.5</ele><time>2026-04-19T11:38:49.002Z</time></trkpt><trkpt lat="38.02160885386021" lon="14.139229277077767"><ele>53.25</ele><time>2026-04-19T11:38:50.002Z</time></trkpt><trkpt lat="38.0217254089734" lon="14.139266858160182"><ele>56.0</ele><time>2026-04-19T11:38:51.002Z</time></trkpt><trkpt lat="38.02183294636217" lon="14.139326906795963"><ele>49.5</ele><time>2026-04-19T11:38:52.002Z</time></trkpt><trkpt lat="38.02192132735658" lon="14.139424514071981"><ele>43.0</ele><time>2026-04-19T11:38:53.002Z</time></trkpt><trkpt lat="38.021971734130815" lon="14.139552253498398"><ele>36.5</ele><time>2026-04-19T11:38:54.002Z</time></trkpt><trkpt lat="38.0219802863836" lon="14.139692980224444"><ele>30.0</ele><time>2026-04-19T11:38:55.002Z</time></trkpt><trkpt lat="38.02196417419935" lon="14.139835889478679"><ele>33.75</ele><time>2026-04-19T11:38:56.002Z</time></trkpt><trkpt lat="38.021935744910024" lon="14.139985383952896"><ele>37.5</ele><time>2026-04-19T11:38:57.002Z</time></trkpt><trkpt lat="38.02190221543922" lon="14.140146454970454"><ele>41.25</ele><time>2026-04-19T11:38:58.002Z</time></trkpt><trkpt lat="38.0218674783663" lon="14.140315692063359"><ele>45.0</ele><time>2026-04-19T11:38:59.002Z</time></trkpt><trkpt lat="38.02182818234294" lon="14.140501313304986"><ele>45.0</ele><time>2026-04-19T11:39:00.002Z</time></trkpt><trkpt lat="38.02178829701247" lon="14.140683463560505"><ele>45.0</ele><time>2026-04-19T11:39:01.002Z</time></trkpt><trkpt lat="38.02175242337143" lon="14.140860594630485"><ele>45.0</ele><time>2026-04-19T11:39:02.002Z</time></trkpt><trkpt lat="38.021713930497256" lon="14.14103865197748"><ele>45.0</ele><time>2026-04-19T11:39:03.002Z</time></trkpt><trkpt lat="38.02167789646992" lon="14.141223148948722"><ele>51.33333333333333</ele><time>2026-04-19T11:39:04.002Z</time></trkpt><trkpt lat="38.02164480264219" lon="14.141410788673792"><ele>57.666666666666664</ele><time>2026-04-19T11:39:05.002Z</time></trkpt><trkpt lat="38.02161411582749" lon="14.141598297776886"><ele>64.0</ele><time>2026-04-19T11:39:06.002Z</time></trkpt><trkpt lat="38.0215979481587" lon="14.141787072283002"><ele>65.5</ele><time>2026-04-19T11:39:07.002Z</time></trkpt><trkpt lat="38.02159692747303" lon="14.141973152853193"><ele>67.0</ele><time>2026-04-19T11:39:08.002Z</time></trkpt><trkpt lat="38.02161299561996" lon="14.14215796719287"><ele>68.5</ele><time>2026-04-19T11:39:09.002Z</time></trkpt><trkpt lat="38.021638075872936" lon="14.142339674609353"><ele>70.0</ele><time>2026-04-19T11:39:10.002Z</time></trkpt><trkpt lat="38.0216693696993" lon="14.142524213207201"><ele>68.5</ele><time>2026-04-19T11:39:11.002Z</time></trkpt><trkpt lat="38.02171422938744" lon="14.142707112610625"><ele>67.0</ele><time>2026-04-19T11:39:12.002Z</time></trkpt><trkpt lat="38.021767439449604" lon="14.142885059253773"><ele>65.5</ele><time>2026-04-19T11:39:13.002Z</time></trkpt><trkpt lat="38.02182716461025" lon="14.143057618537371"><ele>64.0</ele><time>2026-04-19T11:39:14.002Z</time></trkpt><trkpt lat="38.02189175693483" lon="14.14322457494335"><ele>64.0</ele><time>2026-04-19T11:39:15.002Z</time></trkpt><trkpt lat="38.02197009626611" lon="14.143380255476517"><ele>64.0</ele><time>2026-04-19T11:39:16.002Z</time></trkpt><trkpt lat="38.02206553815611" lon="14.14352415538889"><ele>64.0</ele><time>2026-04-19T11:39:17.002Z</time></trkpt><trkpt lat="38.02217600673155" lon="14.143655115035001"><ele>64.0</ele><time>2026-04-19T11:39:18.002Z</time></trkpt><trkpt lat="38.022290874996806" lon="14.143781570401933"><ele>64.0</ele><time>2026-04-19T11:39:19.002Z</time></trkpt><trkpt lat="38.022401897395184" lon="14.143906097662926"><ele>64.0</ele><time>2026-04-19T11:39:20.002Z</time></trkpt><trkpt lat="38.022519483025576" lon="14.144023817644237"><ele>64.0</ele><time>2026-04-19T11:39:21.002Z</time></trkpt><trkpt lat="38.02263509004171" lon="14.144140328002191"><ele>64.0</ele><time>2026-04-19T11:39:22.002Z</time></trkpt><trkpt lat="38.02274636835914" lon="14.144257578225282"><ele>64.0</ele><time>2026-04-19T11:39:23.003Z</time></trkpt><trkpt lat="38.02285406127748" lon="14.144382591362236"><ele>64.0</ele><time>2026-04-19T11:39:24.003Z</time></trkpt><trkpt lat="38.02295522915642" lon="14.144515971362694"><ele>64.0</ele><time>2026-04-19T11:39:25.003Z</time></trkpt><trkpt lat="38.02305544634973" lon="14.14465746053939"><ele>64.0</ele><time>2026-04-19T11:39:26.003Z</time></trkpt><trkpt lat="38.02315547860909" lon="14.144799964619937"><ele>63.33333333333333</ele><time>2026-04-19T11:39:27.003Z</time></trkpt><trkpt lat="38.02325831292633" lon="14.144941763225942"><ele>62.66666666666667</ele><time>2026-04-19T11:39:28.003Z</time></trkpt><trkpt lat="38.02336451735661" lon="14.145083374655728"><ele>62.0</ele><time>2026-04-19T11:39:29.003Z</time></trkpt><trkpt lat="38.023475580519346" lon="14.145231170454716"><ele>62.0</ele><time>2026-04-19T11:39:30.003Z</time></trkpt><trkpt lat="38.02358636697533" lon="14.145371803049448"><ele>62.0</ele><time>2026-04-19T11:39:31.003Z</time></trkpt><trkpt lat="38.023700557571374" lon="14.145506042011933"><ele>62.0</ele><time>2026-04-19T11:39:32.003Z</time></trkpt><trkpt lat="38.0238169214799" lon="14.145632970165561"><ele>63.66666666666667</ele><time>2026-04-19T11:39:33.003Z</time></trkpt><trkpt lat="38.023936877244886" lon="14.145754313724252"><ele>65.33333333333333</ele><time>2026-04-19T11:39:34.003Z</time></trkpt><trkpt lat="38.02405742766401" lon="14.145875971274032"><ele>67.0</ele><time>2026-04-19T11:39:35.003Z</time></trkpt><trkpt lat="38.02417453852321" lon="14.14599684315186"><ele>64.5</ele><time>2026-04-19T11:39:36.003Z</time></trkpt><trkpt lat="38.02428924216028" lon="14.146114600429291"><ele>62.0</ele><time>2026-04-19T11:39:37.003Z</time></trkpt><trkpt lat="38.0244033081854" lon="14.146232685512405"><ele>59.5</ele><time>2026-04-19T11:39:38.003Z</time></trkpt><trkpt lat="38.024515702110705" lon="14.146347659794552"><ele>57.0</ele><time>2026-04-19T11:39:39.003Z</time></trkpt><trkpt lat="38.02462701242245" lon="14.146468378936621"><ele>58.0</ele><time>2026-04-19T11:39:40.003Z</time></trkpt><trkpt lat="38.02472283156295" lon="14.146605956545528"><ele>59.0</ele><time>2026-04-19T11:39:41.003Z</time></trkpt><trkpt lat="38.024802346791965" lon="14.14676763968041"><ele>60.0</ele><time>2026-04-19T11:39:42.003Z</time></trkpt><trkpt lat="38.02485381564449" lon="14.146949324071098"><ele>61.0</ele><time>2026-04-19T11:39:43Z</time></trkpt><trkpt lat="38.0248858566152" lon="14.147141247261704"><ele>61.0</ele><time>2026-04-19T11:39:44Z</time></trkpt><trkpt lat="38.02489550106258" lon="14.147338851294059"><ele>61.0</ele><time>2026-04-19T11:39:45Z</time></trkpt><trkpt lat="38.02488510955185" lon="14.147538724276824"><ele>61.0</ele><time>2026-04-19T11:39:46Z</time></trkpt><trkpt lat="38.02484837850128" lon="14.147735044417141"><ele>60.5</ele><time>2026-04-19T11:39:47Z</time></trkpt><trkpt lat="38.02479564412373" lon="14.1479177415248"><ele>60.0</ele><time>2026-04-19T11:39:48Z</time></trkpt><trkpt lat="38.024726526736856" lon="14.148087403960904"><ele>59.5</ele><time>2026-04-19T11:39:49Z</time></trkpt><trkpt lat="38.02464278654131" lon="14.148237877002064"><ele>59.0</ele><time>2026-04-19T11:39:50Z</time></trkpt><trkpt lat="38.024554541102894" lon="14.14837894289281"><ele>57.5</ele><time>2026-04-19T11:39:51Z</time></trkpt><trkpt lat="38.02446672438216" lon="14.148518342801626"><ele>56.0</ele><time>2026-04-19T11:39:52Z</time></trkpt><trkpt lat="38.024377205471644" lon="14.14865269495373"><ele>54.5</ele><time>2026-04-19T11:39:53Z</time></trkpt><trkpt lat="38.02428820824552" lon="14.14879043090164"><ele>53.0</ele><time>2026-04-19T11:39:54Z</time></trkpt><trkpt lat="38.02419922905518" lon="14.148933153434385"><ele>53.0</ele><time>2026-04-19T11:39:55Z</time></trkpt><trkpt lat="38.0241131180965" lon="14.149079187694388"><ele>53.0</ele><time>2026-04-19T11:39:56Z</time></trkpt><trkpt lat="38.02402710239387" lon="14.149226188799124"><ele>53.0</ele><time>2026-04-19T11:39:57Z</time></trkpt><trkpt lat="38.023938098851836" lon="14.149375372103428"><ele>53.0</ele><time>2026-04-19T11:39:58Z</time></trkpt><trkpt lat="38.023843333319945" lon="14.149524034254078"><ele>53.0</ele><time>2026-04-19T11:39:59Z</time></trkpt><trkpt lat="38.02375289489374" lon="14.149670827811352"><ele>53.0</ele><time>2026-04-19T11:40:00Z</time></trkpt><trkpt lat="38.0236617241831" lon="14.149814942087925"><ele>53.0</ele><time>2026-04-19T11:40:01Z</time></trkpt><trkpt lat="38.023573532826695" lon="14.149962729843939"><ele>53.0</ele><time>2026-04-19T11:40:02Z</time></trkpt><trkpt lat="38.02349700781679" lon="14.150119328890222"><ele>50.333333333333336</ele><time>2026-04-19T11:40:03Z</time></trkpt><trkpt lat="38.02343722379441" lon="14.150289115675816"><ele>47.66666666666667</ele><time>2026-04-19T11:40:04Z</time></trkpt><trkpt lat="38.023400810309006" lon="14.150473609447392"><ele>45.0</ele><time>2026-04-19T11:40:05Z</time></trkpt><trkpt lat="38.0233809798254" lon="14.150670184057747"><ele>44.0</ele><time>2026-04-19T11:40:06Z</time></trkpt><trkpt lat="38.02336671353728" lon="14.150873979692609"><ele>43.0</ele><time>2026-04-19T11:40:07Z</time></trkpt><trkpt lat="38.02334675474713" lon="14.151078813179987"><ele>42.0</ele><time>2026-04-19T11:40:08Z</time></trkpt><trkpt lat="38.02332229289034" lon="14.151281273449335"><ele>41.666666666666664</ele><time>2026-04-19T11:40:09Z</time></trkpt><trkpt lat="38.023296022590735" lon="14.151484542354705"><ele>41.33333333333333</ele><time>2026-04-19T11:40:10Z</time></trkpt><trkpt lat="38.023263479456645" lon="14.151686251865994"><ele>41.0</ele><time>2026-04-19T11:40:11Z</time></trkpt><trkpt lat="38.02322283629961" lon="14.15188323361423"><ele>41.0</ele><time>2026-04-19T11:40:12Z</time></trkpt><trkpt lat="38.0231798539299" lon="14.152075915209165"><ele>41.0</ele><time>2026-04-19T11:40:13Z</time></trkpt><trkpt lat="38.0231407900974" lon="14.152266937946639"><ele>41.0</ele><time>2026-04-19T11:40:14.001Z</time></trkpt><trkpt lat="38.02310124160631" lon="14.152451063370409"><ele>39.75</ele><time>2026-04-19T11:40:15.001Z</time></trkpt><trkpt lat="38.02306090059527" lon="14.152629602294633"><ele>38.5</ele><time>2026-04-19T11:40:16.001Z</time></trkpt><trkpt lat="38.02301966290838" lon="14.152804643391478"><ele>37.25</ele><time>2026-04-19T11:40:17.001Z</time></trkpt><trkpt lat="38.0229781567557" lon="14.152978825294387"><ele>36.0</ele><time>2026-04-19T11:40:18.001Z</time></trkpt><trkpt lat="38.02293735743693" lon="14.153150792160037"><ele>35.333333333333336</ele><time>2026-04-19T11:40:19.001Z</time></trkpt><trkpt lat="38.02289684294617" lon="14.15332878628217"><ele>34.66666666666667</ele><time>2026-04-19T11:40:20.001Z</time></trkpt><trkpt lat="38.022857526509476" lon="14.153511073609987"><ele>34.0</ele><time>2026-04-19T11:40:21.001Z</time></trkpt><trkpt lat="38.02281759518542" lon="14.153701111076321"><ele>34.0</ele><time>2026-04-19T11:40:22.001Z</time></trkpt><trkpt lat="38.022773917916524" lon="14.153894006430706"><ele>34.0</ele><time>2026-04-19T11:40:23.001Z</time></trkpt><trkpt lat="38.02272860187905" lon="14.154086715840648"><ele>34.0</ele><time>2026-04-19T11:40:24.001Z</time></trkpt><trkpt lat="38.02268359500733" lon="14.154280801740708"><ele>33.333333333333336</ele><time>2026-04-19T11:40:25.001Z</time></trkpt><trkpt lat="38.02263993571528" lon="14.154477258295392"><ele>32.666666666666664</ele><time>2026-04-19T11:40:26.001Z</time></trkpt><trkpt lat="38.02260000828229" lon="14.15466998619177"><ele>32.0</ele><time>2026-04-19T11:40:27.001Z</time></trkpt><trkpt lat="38.022558632648156" lon="14.154862567815133"><ele>29.333333333333332</ele><time>2026-04-19T11:40:28.001Z</time></trkpt><trkpt lat="38.022512388822136" lon="14.15505989087036"><ele>26.666666666666664</ele><time>2026-04-19T11:40:29.001Z</time></trkpt><trkpt lat="38.02246264374747" lon="14.155263857958127"><ele>24.0</ele><time>2026-04-19T11:40:30.001Z</time></trkpt><trkpt lat="38.02240841398519" lon="14.155468273919043"><ele>23.666666666666668</ele><time>2026-04-19T11:40:31.001Z</time></trkpt><trkpt lat="38.022351458233906" lon="14.155674691651845"><ele>23.333333333333336</ele><time>2026-04-19T11:40:32.001Z</time></trkpt><trkpt lat="38.02228656710126" lon="14.155874220766146"><ele>23.0</ele><time>2026-04-19T11:40:33.001Z</time></trkpt><trkpt lat="38.02221519246876" lon="14.15606666401383"><ele>21.666666666666668</ele><time>2026-04-19T11:40:34.001Z</time></trkpt><trkpt lat="38.02213792235755" lon="14.15624872066458"><ele>20.333333333333332</ele><time>2026-04-19T11:40:35.001Z</time></trkpt><trkpt lat="38.022056417814966" lon="14.156424966639236"><ele>19.0</ele><time>2026-04-19T11:40:36.001Z</time></trkpt><trkpt lat="38.0219675745661" lon="14.156591925759995"><ele>21.666666666666664</ele><time>2026-04-19T11:40:37.001Z</time></trkpt><trkpt lat="38.02186991849936" lon="14.156750600940411"><ele>24.333333333333332</ele><time>2026-04-19T11:40:38.001Z</time></trkpt><trkpt lat="38.021765454198146" lon="14.156900593638907"><ele>27.0</ele><time>2026-04-19T11:40:39.001Z</time></trkpt><trkpt lat="38.02165746549439" lon="14.15704313984074"><ele>29.333333333333336</ele><time>2026-04-19T11:40:40.001Z</time></trkpt><trkpt lat="38.02154849120623" lon="14.157176223218718"><ele>31.666666666666668</ele><time>2026-04-19T11:40:41.001Z</time></trkpt><trkpt lat="38.02143729662917" lon="14.157309363138927"><ele>34.0</ele><time>2026-04-19T11:40:42.001Z</time></trkpt><trkpt lat="38.021326328231595" lon="14.157431553050845"><ele>34.5</ele><time>2026-04-19T11:40:43.001Z</time></trkpt><trkpt lat="38.02121752194027" lon="14.15754606020165"><ele>35.0</ele><time>2026-04-19T11:40:44.001Z</time></trkpt><trkpt lat="38.02111226850233" lon="14.157656755497465"><ele>35.5</ele><time>2026-04-19T11:40:45.001Z</time></trkpt><trkpt lat="38.02101296834727" lon="14.15776556802501"><ele>36.0</ele><time>2026-04-19T11:40:46.001Z</time></trkpt><trkpt lat="38.020921113575234" lon="14.15787114239829"><ele>36.0</ele><time>2026-04-19T11:40:47.001Z</time></trkpt><trkpt lat="38.02083481841778" lon="14.157968988587848"><ele>36.0</ele><time>2026-04-19T11:40:48.001Z</time></trkpt><trkpt lat="38.020754841051925" lon="14.158056355137466"><ele>36.0</ele><time>2026-04-19T11:40:49.001Z</time></trkpt><trkpt lat="38.02067673060658" lon="14.158132879725274"><ele>36.0</ele><time>2026-04-19T11:40:50.002Z</time></trkpt><trkpt lat="38.020607858628146" lon="14.158207605168071"><ele>36.0</ele><time>2026-04-19T11:40:51.002Z</time></trkpt><trkpt lat="38.020543381034514" lon="14.158284420994807"><ele>37.0</ele><time>2026-04-19T11:40:52.002Z</time></trkpt><trkpt lat="38.02047958395216" lon="14.15836325721477"><ele>38.0</ele><time>2026-04-19T11:40:53.002Z</time></trkpt><trkpt lat="38.02042416927908" lon="14.158449191510174"><ele>39.0</ele><time>2026-04-19T11:40:54.002Z</time></trkpt><trkpt lat="38.02038249001636" lon="14.158550351409152"><ele>40.0</ele><time>2026-04-19T11:40:55.002Z</time></trkpt><trkpt lat="38.02035178837748" lon="14.158660675963976"><ele>41.0</ele><time>2026-04-19T11:40:56.002Z</time></trkpt><trkpt lat="38.020330984795486" lon="14.15877686218475"><ele>41.0</ele><time>2026-04-19T11:40:57.002Z</time></trkpt><trkpt lat="38.020314135450036" lon="14.158897765205609"><ele>41.0</ele><time>2026-04-19T11:40:58.002Z</time></trkpt><trkpt lat="38.02030185742054" lon="14.159022645546365"><ele>41.0</ele><time>2026-04-19T11:40:59.002Z</time></trkpt><trkpt lat="38.02028918860006" lon="14.159136808150391"><ele>41.0</ele><time>2026-04-19T11:41:00.002Z</time></trkpt><trkpt lat="38.0202797034959" lon="14.15923438934686"><ele>41.0</ele><time>2026-04-19T11:41:01.002Z</time></trkpt><trkpt lat="38.02026782699419" lon="14.15932063888665"><ele>41.0</ele><time>2026-04-19T11:41:02.002Z</time></trkpt><trkpt lat="38.02025097713932" lon="14.159469119253618"><ele>41.0</ele><time>2026-04-19T11:41:04.002Z</time></trkpt><trkpt lat="38.02024018194209" lon="14.159602444009776"><ele>41.0</ele><time>2026-04-19T11:41:06.002Z</time></trkpt><trkpt lat="38.02023241155438" lon="14.159731570386985"><ele>41.0</ele><time>2026-04-19T11:41:08.002Z</time></trkpt><trkpt lat="38.02033666685428" lon="14.159805959893381"><ele>41.0</ele><time>2026-04-19T11:41:10.002Z</time></trkpt><trkpt lat="38.02042084183622" lon="14.159841985214621"><ele>41.0</ele><time>2026-04-19T11:41:12.002Z</time></trkpt><trkpt lat="38.020511658001816" lon="14.159892478139446"><ele>45.0</ele><time>2026-04-19T11:41:14.002Z</time></trkpt><trkpt lat="38.020608677038915" lon="14.159938364547003"><ele>45.0</ele><time>2026-04-19T11:41:16.002Z</time></trkpt><trkpt lat="38.020690933387534" lon="14.159972616939333"><ele>45.0</ele><time>2026-04-19T11:41:18.002Z</time></trkpt><trkpt lat="38.02075852594367" lon="14.160017598394626"><ele>45.0</ele><time>2026-04-19T11:41:21.002Z</time></trkpt><trkpt lat="38.02081925804242" lon="14.160051219936184"><ele>41.0</ele><time>2026-04-19T11:41:36.003Z</time></trkpt></trkseg><trkseg><trkpt lat="38.00824250939806" lon="14.282748029054863"><ele>58.0</ele><time>2026-04-19T15:10:21Z</time></trkpt><trkpt lat="38.008171318358016" lon="14.282890710322505"><ele>58.0</ele><time>2026-04-19T15:10:22Z</time></trkpt><trkpt lat="38.00810349704657" lon="14.283021216945421"><ele>58.0</ele><time>2026-04-19T15:10:23Z</time></trkpt><trkpt lat="38.00801215470257" lon="14.283188729878637"><ele>58.0</ele><time>2026-04-19T15:10:24Z</time></trkpt><trkpt lat="38.007918002699185" lon="14.283355290517333"><ele>50.666666666666664</ele><time>2026-04-19T15:10:25Z</time></trkpt><trkpt lat="38.00782590328447" lon="14.283511787099833"><ele>43.33333333333333</ele><time>2026-04-19T15:10:26Z</time></trkpt><trkpt lat="38.00773875455308" lon="14.283652777239132"><ele>36.0</ele><time>2026-04-19T15:10:27Z</time></trkpt><trkpt lat="38.00763957135943" lon="14.283804374857363"><ele>39.666666666666664</ele><time>2026-04-19T15:10:28Z</time></trkpt><trkpt lat="38.007531204625" lon="14.283967558283102"><ele>43.33333333333333</ele><time>2026-04-19T15:10:29Z</time></trkpt><trkpt lat="38.00741966521023" lon="14.284137790850561"><ele>47.0</ele><time>2026-04-19T15:10:30Z</time></trkpt><trkpt lat="38.00731085254953" lon="14.284304703421187"><ele>47.0</ele><time>2026-04-19T15:10:31Z</time></trkpt><trkpt lat="38.007206410480634" lon="14.284475769509752"><ele>47.0</ele><time>2026-04-19T15:10:32Z</time></trkpt><trkpt lat="38.00715640953439" lon="14.284704361195512"><ele>47.0</ele><time>2026-04-19T15:10:33Z</time></trkpt><trkpt lat="38.00708008484423" lon="14.284939873012094"><ele>43.33333333333333</ele><time>2026-04-19T15:10:34Z</time></trkpt><trkpt lat="38.007018426093815" lon="14.285191338284294"><ele>39.666666666666664</ele><time>2026-04-19T15:10:35Z</time></trkpt><trkpt lat="38.00696087881032" lon="14.28544428798333"><ele>36.0</ele><time>2026-04-19T15:10:36Z</time></trkpt><trkpt lat="38.00690258941124" lon="14.285709438736982"><ele>35.333333333333336</ele><time>2026-04-19T15:10:37Z</time></trkpt><trkpt lat="38.006863899788506" lon="14.285972247400617"><ele>34.66666666666667</ele><time>2026-04-19T15:10:38Z</time></trkpt><trkpt lat="38.00684719215921" lon="14.286236600805688"><ele>34.0</ele><time>2026-04-19T15:10:39Z</time></trkpt><trkpt lat="38.00682776800109" lon="14.286504938881016"><ele>33.0</ele><time>2026-04-19T15:10:40Z</time></trkpt><trkpt lat="38.00680474329566" lon="14.286759891488256"><ele>32.0</ele><time>2026-04-19T15:10:41Z</time></trkpt><trkpt lat="38.00677549366228" lon="14.287002854761498"><ele>31.0</ele><time>2026-04-19T15:10:42Z</time></trkpt><trkpt lat="38.00673987067008" lon="14.28724853072893"><ele>29.666666666666668</ele><time>2026-04-19T15:10:43Z</time></trkpt><trkpt lat="38.00670330407855" lon="14.287495972895163"><ele>28.333333333333336</ele><time>2026-04-19T15:10:44Z</time></trkpt><trkpt lat="38.006666162356396" lon="14.287739651115986"><ele>27.0</ele><time>2026-04-19T15:10:45Z</time></trkpt><trkpt lat="38.00662220251893" lon="14.287979932142605"><ele>40.66666666666667</ele><time>2026-04-19T15:10:46Z</time></trkpt><trkpt lat="38.006575566404884" lon="14.288215954032452"><ele>54.333333333333336</ele><time>2026-04-19T15:10:47Z</time></trkpt><trkpt lat="38.006530277694715" lon="14.288448071320659"><ele>68.0</ele><time>2026-04-19T15:10:48Z</time></trkpt><trkpt lat="38.00650754158463" lon="14.2886858759898"><ele>68.0</ele><time>2026-04-19T15:10:49Z</time></trkpt><trkpt lat="38.006470518787054" lon="14.288915370274655"><ele>68.0</ele><time>2026-04-19T15:10:50Z</time></trkpt><trkpt lat="38.00643577582523" lon="14.28914726391587"><ele>68.0</ele><time>2026-04-19T15:10:51Z</time></trkpt><trkpt lat="38.0064010961505" lon="14.289374801772407"><ele>64.0</ele><time>2026-04-19T15:10:52Z</time></trkpt><trkpt lat="38.00637057087689" lon="14.289606019145008"><ele>60.0</ele><time>2026-04-19T15:10:53Z</time></trkpt><trkpt lat="38.006339125397204" lon="14.289832931738175"><ele>56.0</ele><time>2026-04-19T15:10:54Z</time></trkpt><trkpt lat="38.00628753628046" lon="14.290059503978968"><ele>49.66666666666667</ele><time>2026-04-19T15:10:55Z</time></trkpt><trkpt lat="38.006274829423425" lon="14.290291950293373"><ele>43.333333333333336</ele><time>2026-04-19T15:10:56Z</time></trkpt><trkpt lat="38.00625448401824" lon="14.290520154732663"><ele>37.0</ele><time>2026-04-19T15:10:57Z</time></trkpt><trkpt lat="38.00624845444469" lon="14.290737791968176"><ele>34.333333333333336</ele><time>2026-04-19T15:10:58Z</time></trkpt><trkpt lat="38.0062431804549" lon="14.290943844854525"><ele>31.666666666666664</ele><time>2026-04-19T15:10:59Z</time></trkpt><trkpt lat="38.00623607662064" lon="14.291152533127436"><ele>29.0</ele><time>2026-04-19T15:11:00Z</time></trkpt><trkpt lat="38.00623546318008" lon="14.291369054764859"><ele>31.0</ele><time>2026-04-19T15:11:01Z</time></trkpt><trkpt lat="38.00625570783619" lon="14.291593791963585"><ele>33.0</ele><time>2026-04-19T15:11:02Z</time></trkpt><trkpt lat="38.00629679528006" lon="14.291815822675028"><ele>35.0</ele><time>2026-04-19T15:11:03Z</time></trkpt><trkpt lat="38.006357519341044" lon="14.29203439062305"><ele>35.0</ele><time>2026-04-19T15:11:04Z</time></trkpt><trkpt lat="38.00643124433196" lon="14.29224204476706"><ele>35.0</ele><time>2026-04-19T15:11:05Z</time></trkpt><trkpt lat="38.00650227609993" lon="14.292445738570848"><ele>35.0</ele><time>2026-04-19T15:11:06Z</time></trkpt><trkpt lat="38.00653888351384" lon="14.29264988338612"><ele>36.0</ele><time>2026-04-19T15:11:07Z</time></trkpt><trkpt lat="38.00656224282717" lon="14.29284854155464"><ele>37.0</ele><time>2026-04-19T15:11:08Z</time></trkpt><trkpt lat="38.00655414375205" lon="14.293054229268352"><ele>38.0</ele><time>2026-04-19T15:11:09Z</time></trkpt><trkpt lat="38.00652741803413" lon="14.293267360454745"><ele>40.33333333333333</ele><time>2026-04-19T15:11:10Z</time></trkpt><trkpt lat="38.00653212666499" lon="14.293501006486434"><ele>42.666666666666664</ele><time>2026-04-19T15:11:11Z</time></trkpt><trkpt lat="38.00658068037501" lon="14.293721997581786"><ele>45.0</ele><time>2026-04-19T15:11:12Z</time></trkpt><trkpt lat="38.006586204911564" lon="14.293952998261902"><ele>46.33333333333333</ele><time>2026-04-19T15:11:13Z</time></trkpt><trkpt lat="38.006574122871754" lon="14.294181046350515"><ele>47.666666666666664</ele><time>2026-04-19T15:11:14Z</time></trkpt><trkpt lat="38.00655384229096" lon="14.29442092041273"><ele>49.0</ele><time>2026-04-19T15:11:15Z</time></trkpt><trkpt lat="38.00653302982774" lon="14.29466692451713"><ele>48.33333333333333</ele><time>2026-04-19T15:11:16Z</time></trkpt><trkpt lat="38.00651227228416" lon="14.29491315139173"><ele>47.666666666666664</ele><time>2026-04-19T15:11:17Z</time></trkpt><trkpt lat="38.00649196474048" lon="14.295157471911917"><ele>47.0</ele><time>2026-04-19T15:11:18Z</time></trkpt><trkpt lat="38.00647261879044" lon="14.295404089208143"><ele>46.33333333333333</ele><time>2026-04-19T15:11:19Z</time></trkpt><trkpt lat="38.00645970243487" lon="14.295656016333552"><ele>45.666666666666664</ele><time>2026-04-19T15:11:20Z</time></trkpt><trkpt lat="38.006466557989576" lon="14.295908338272346"><ele>45.0</ele><time>2026-04-19T15:11:20.999Z</time></trkpt><trkpt lat="38.00648496214761" lon="14.296154627164828"><ele>45.0</ele><time>2026-04-19T15:11:21.999Z</time></trkpt><trkpt lat="38.006457496553644" lon="14.296391078054596"><ele>45.0</ele><time>2026-04-19T15:11:22.999Z</time></trkpt><trkpt lat="38.006428772838056" lon="14.296610373628415"><ele>45.0</ele><time>2026-04-19T15:11:23.999Z</time></trkpt><trkpt lat="38.006393529136965" lon="14.296821930815009"><ele>46.66666666666667</ele><time>2026-04-19T15:11:24.999Z</time></trkpt><trkpt lat="38.006389047533645" lon="14.297038956790605"><ele>48.333333333333336</ele><time>2026-04-19T15:11:25.999Z</time></trkpt><trkpt lat="38.006390160147134" lon="14.297257588917237"><ele>50.0</ele><time>2026-04-19T15:11:26.999Z</time></trkpt><trkpt lat="38.006422637003176" lon="14.297476745332029"><ele>55.0</ele><time>2026-04-19T15:11:27.999Z</time></trkpt><trkpt lat="38.00648061489834" lon="14.297689685213431"><ele>60.0</ele><time>2026-04-19T15:11:28.999Z</time></trkpt><trkpt lat="38.00654185508838" lon="14.297899545811202"><ele>65.0</ele><time>2026-04-19T15:11:29.999Z</time></trkpt><trkpt lat="38.00659922571416" lon="14.29811010586612"><ele>68.33333333333334</ele><time>2026-04-19T15:11:30.999Z</time></trkpt><trkpt lat="38.006641983313514" lon="14.298328786977645"><ele>71.66666666666667</ele><time>2026-04-19T15:11:31.999Z</time></trkpt><trkpt lat="38.00670642674997" lon="14.298548905925202"><ele>75.0</ele><time>2026-04-19T15:11:32.999Z</time></trkpt><trkpt lat="38.00680146591411" lon="14.298754008918431"><ele>64.0</ele><time>2026-04-19T15:11:33.999Z</time></trkpt><trkpt lat="38.006880991452064" lon="14.298961599919462"><ele>53.0</ele><time>2026-04-19T15:11:34.999Z</time></trkpt><trkpt lat="38.00694300084989" lon="14.299172190878496"><ele>42.0</ele><time>2026-04-19T15:11:35.999Z</time></trkpt><trkpt lat="38.00699226835579" lon="14.299380240697147"><ele>42.0</ele><time>2026-04-19T15:11:36.999Z</time></trkpt><trkpt lat="38.00703647705766" lon="14.299596268817208"><ele>42.0</ele><time>2026-04-19T15:11:37.999Z</time></trkpt><trkpt lat="38.00708016915863" lon="14.299812440831433"><ele>42.0</ele><time>2026-04-19T15:11:38.999Z</time></trkpt><trkpt lat="38.00710271712511" lon="14.300041367557647"><ele>43.333333333333336</ele><time>2026-04-19T15:11:39.999Z</time></trkpt><trkpt lat="38.00712607000807" lon="14.300249625545192"><ele>44.66666666666667</ele><time>2026-04-19T15:11:40.999Z</time></trkpt><trkpt lat="38.00714677774166" lon="14.300462153143203"><ele>46.0</ele><time>2026-04-19T15:11:41.999Z</time></trkpt><trkpt lat="38.00712345277623" lon="14.300678169232006"><ele>46.66666666666667</ele><time>2026-04-19T15:11:42.999Z</time></trkpt><trkpt lat="38.007106504096946" lon="14.300904237137432"><ele>47.333333333333336</ele><time>2026-04-19T15:11:43.999Z</time></trkpt><trkpt lat="38.007088890808824" lon="14.301137174014844"><ele>48.0</ele><time>2026-04-19T15:11:45Z</time></trkpt><trkpt lat="38.00707227480095" lon="14.301368042739979"><ele>49.33333333333333</ele><time>2026-04-19T15:11:46Z</time></trkpt><trkpt lat="38.00705649350229" lon="14.301597536416145"><ele>50.666666666666664</ele><time>2026-04-19T15:11:47Z</time></trkpt><trkpt lat="38.00704237551859" lon="14.301820370682726"><ele>52.0</ele><time>2026-04-19T15:11:48Z</time></trkpt><trkpt lat="38.007019928068296" lon="14.302034160849525"><ele>52.0</ele><time>2026-04-19T15:11:49Z</time></trkpt><trkpt lat="38.00699831680981" lon="14.30224577590255"><ele>52.0</ele><time>2026-04-19T15:11:50Z</time></trkpt><trkpt lat="38.007033481564946" lon="14.302442318436283"><ele>52.0</ele><time>2026-04-19T15:11:51Z</time></trkpt><trkpt lat="38.007089775597805" lon="14.302622164964724"><ele>51.0</ele><time>2026-04-19T15:11:52Z</time></trkpt><trkpt lat="38.00713860609765" lon="14.302787837135023"><ele>50.0</ele><time>2026-04-19T15:11:53Z</time></trkpt><trkpt lat="38.00715817187162" lon="14.302940886263695"><ele>49.0</ele><time>2026-04-19T15:11:54Z</time></trkpt><trkpt lat="38.007106794343635" lon="14.303098155242457"><ele>48.0</ele><time>2026-04-19T15:11:55Z</time></trkpt><trkpt lat="38.00705529373448" lon="14.303259484898966"><ele>48.25</ele><time>2026-04-19T15:11:56Z</time></trkpt><trkpt lat="38.007042428991745" lon="14.303436288869868"><ele>48.5</ele><time>2026-04-19T15:11:57Z</time></trkpt><trkpt lat="38.00705615306912" lon="14.303623749391196"><ele>48.75</ele><time>2026-04-19T15:11:58Z</time></trkpt><trkpt lat="38.00705746162338" lon="14.303820183818651"><ele>49.0</ele><time>2026-04-19T15:11:59Z</time></trkpt><trkpt lat="38.00712209421588" lon="14.304006897668877"><ele>49.0</ele><time>2026-04-19T15:12:00Z</time></trkpt><trkpt lat="38.00715419512718" lon="14.304204129111355"><ele>49.0</ele><time>2026-04-19T15:12:01Z</time></trkpt><trkpt lat="38.007188885436186" lon="14.30440596373645"><ele>49.0</ele><time>2026-04-19T15:12:02Z</time></trkpt><trkpt lat="38.007224336233094" lon="14.304619925449273"><ele>55.0</ele><time>2026-04-19T15:12:02.998Z</time></trkpt><trkpt lat="38.00724928980023" lon="14.304832548128548"><ele>61.0</ele><time>2026-04-19T15:12:03.998Z</time></trkpt><trkpt lat="38.00727079777865" lon="14.30504049434363"><ele>67.0</ele><time>2026-04-19T15:12:04.998Z</time></trkpt><trkpt lat="38.00728998262235" lon="14.305243107528211"><ele>67.0</ele><time>2026-04-19T15:12:05.998Z</time></trkpt><trkpt lat="38.00732560883687" lon="14.305447073612523"><ele>67.0</ele><time>2026-04-19T15:12:06.998Z</time></trkpt><trkpt lat="38.007321558377164" lon="14.305656135103124"><ele>67.0</ele><time>2026-04-19T15:12:07.998Z</time></trkpt><trkpt lat="38.00731985921855" lon="14.305866473032717"><ele>66.33333333333333</ele><time>2026-04-19T15:12:08.998Z</time></trkpt><trkpt lat="38.007308637503414" lon="14.306074404333717"><ele>65.66666666666667</ele><time>2026-04-19T15:12:09.998Z</time></trkpt><trkpt lat="38.00730483289292" lon="14.306283327827106"><ele>65.0</ele><time>2026-04-19T15:12:10.999Z</time></trkpt><trkpt lat="38.007366862782526" lon="14.306500240678869"><ele>65.0</ele><time>2026-04-19T15:12:11.999Z</time></trkpt><trkpt lat="38.007423843760904" lon="14.30670824270758"><ele>65.0</ele><time>2026-04-19T15:12:12.999Z</time></trkpt><trkpt lat="38.00748041029739" lon="14.306915431376774"><ele>65.0</ele><time>2026-04-19T15:12:13.999Z</time></trkpt><trkpt lat="38.00749823282535" lon="14.307124660723419"><ele>66.66666666666667</ele><time>2026-04-19T15:12:14.999Z</time></trkpt><trkpt lat="38.00749838501887" lon="14.30732889175378"><ele>68.33333333333333</ele><time>2026-04-19T15:12:15.999Z</time></trkpt><trkpt lat="38.007476539881225" lon="14.307522832315357"><ele>70.0</ele><time>2026-04-19T15:12:16.999Z</time></trkpt><trkpt lat="38.00748367420962" lon="14.307708941224199"><ele>70.0</ele><time>2026-04-19T15:12:17.999Z</time></trkpt><trkpt lat="38.007472337304755" lon="14.30789127855281"><ele>70.0</ele><time>2026-04-19T15:12:18.999Z</time></trkpt><trkpt lat="38.00742711902657" lon="14.308058547938858"><ele>70.0</ele><time>2026-04-19T15:12:19.999Z</time></trkpt><trkpt lat="38.0073840906246" lon="14.308255023953173"><ele>70.0</ele><time>2026-04-19T15:12:20.999Z</time></trkpt><trkpt lat="38.007383944173704" lon="14.308456095857629"><ele>71.0</ele><time>2026-04-19T15:12:21.999Z</time></trkpt><trkpt lat="38.00739422321182" lon="14.308668164652106"><ele>72.0</ele><time>2026-04-19T15:12:22.999Z</time></trkpt><trkpt lat="38.00742414302082" lon="14.308880279430195"><ele>73.0</ele><time>2026-04-19T15:12:23.999Z</time></trkpt><trkpt lat="38.00743624753751" lon="14.309106251100486"><ele>73.0</ele><time>2026-04-19T15:12:24.999Z</time></trkpt><trkpt lat="38.007473515381875" lon="14.309328657016854"><ele>73.0</ele><time>2026-04-19T15:12:25.999Z</time></trkpt><trkpt lat="38.00748125908247" lon="14.309558624261594"><ele>73.0</ele><time>2026-04-19T15:12:26.999Z</time></trkpt><trkpt lat="38.0075094700301" lon="14.309790162717125"><ele>56.33333333333333</ele><time>2026-04-19T15:12:27.999Z</time></trkpt><trkpt lat="38.0075526948916" lon="14.310012844727822"><ele>39.666666666666664</ele><time>2026-04-19T15:12:28.999Z</time></trkpt><trkpt lat="38.00758303242055" lon="14.310230551026788"><ele>23.0</ele><time>2026-04-19T15:12:29.999Z</time></trkpt><trkpt lat="38.00761940516607" lon="14.310430058610134"><ele>25.666666666666668</ele><time>2026-04-19T15:12:30.999Z</time></trkpt><trkpt lat="38.007666794907905" lon="14.310628813941863"><ele>28.333333333333336</ele><time>2026-04-19T15:12:31.999Z</time></trkpt><trkpt lat="38.007727301308506" lon="14.310821231526248"><ele>31.0</ele><time>2026-04-19T15:12:32.999Z</time></trkpt><trkpt lat="38.00776795857094" lon="14.311029405289636"><ele>31.0</ele><time>2026-04-19T15:12:33.999Z</time></trkpt><trkpt lat="38.00780669811478" lon="14.31123148206319"><ele>31.0</ele><time>2026-04-19T15:12:34.999Z</time></trkpt><trkpt lat="38.007808377613316" lon="14.311428347987468"><ele>31.0</ele><time>2026-04-19T15:12:35.999Z</time></trkpt><trkpt lat="38.00775711541809" lon="14.31160441343599"><ele>32.66666666666667</ele><time>2026-04-19T15:12:36.999Z</time></trkpt><trkpt lat="38.00770279911293" lon="14.31178917221456"><ele>34.333333333333336</ele><time>2026-04-19T15:12:37.999Z</time></trkpt><trkpt lat="38.00767335190605" lon="14.311982444310239"><ele>36.0</ele><time>2026-04-19T15:12:38.999Z</time></trkpt><trkpt lat="38.007679108376266" lon="14.31219196817361"><ele>39.0</ele><time>2026-04-19T15:12:39.999Z</time></trkpt><trkpt lat="38.007709558026285" lon="14.312400010397585"><ele>42.0</ele><time>2026-04-19T15:12:40.999Z</time></trkpt><trkpt lat="38.00772509763088" lon="14.312604319653476"><ele>45.0</ele><time>2026-04-19T15:12:41.999Z</time></trkpt><trkpt lat="38.00771658729891" lon="14.312803985999029"><ele>45.0</ele><time>2026-04-19T15:12:42.999Z</time></trkpt><trkpt lat="38.00771574055328" lon="14.31298972547055"><ele>45.0</ele><time>2026-04-19T15:12:43.999Z</time></trkpt><trkpt lat="38.00776487027269" lon="14.313175579573999"><ele>45.0</ele><time>2026-04-19T15:12:44.999Z</time></trkpt><trkpt lat="38.00784738254464" lon="14.313369405578497"><ele>44.666666666666664</ele><time>2026-04-19T15:12:45.999Z</time></trkpt><trkpt lat="38.00791579955356" lon="14.313567195191615"><ele>44.33333333333333</ele><time>2026-04-19T15:12:46.999Z</time></trkpt><trkpt lat="38.00796586336121" lon="14.313770746830501"><ele>44.0</ele><time>2026-04-19T15:12:48Z</time></trkpt><trkpt lat="38.008009692592395" lon="14.313962526147705"><ele>44.0</ele><time>2026-04-19T15:12:49Z</time></trkpt><trkpt lat="38.008043150090245" lon="14.3141560906839"><ele>44.0</ele><time>2026-04-19T15:12:50Z</time></trkpt><trkpt lat="38.00806084656222" lon="14.314360246999588"><ele>44.0</ele><time>2026-04-19T15:12:51Z</time></trkpt><trkpt lat="38.00806263288193" lon="14.31456785077028"><ele>46.33333333333333</ele><time>2026-04-19T15:12:52Z</time></trkpt><trkpt lat="38.00805314643802" lon="14.31477668727747"><ele>48.666666666666664</ele><time>2026-04-19T15:12:53Z</time></trkpt><trkpt lat="38.00803805726332" lon="14.314990462321674"><ele>51.0</ele><time>2026-04-19T15:12:54Z</time></trkpt><trkpt lat="38.00802265315148" lon="14.315197287435367"><ele>51.0</ele><time>2026-04-19T15:12:55Z</time></trkpt><trkpt lat="38.00801036086556" lon="14.31539672982418"><ele>51.0</ele><time>2026-04-19T15:12:56Z</time></trkpt><trkpt lat="38.008013167312974" lon="14.315601083257782"><ele>51.0</ele><time>2026-04-19T15:12:57Z</time></trkpt><trkpt lat="38.00807286255054" lon="14.315788973767896"><ele>49.0</ele><time>2026-04-19T15:12:58Z</time></trkpt><trkpt lat="38.00815550949419" lon="14.315964360714256"><ele>47.0</ele><time>2026-04-19T15:12:59Z</time></trkpt><trkpt lat="38.0082520853123" lon="14.31613177603535"><ele>45.0</ele><time>2026-04-19T15:13:00Z</time></trkpt><trkpt lat="38.00835432153953" lon="14.3162952356067"><ele>38.666666666666664</ele><time>2026-04-19T15:13:01Z</time></trkpt><trkpt lat="38.00844005019296" lon="14.316479908620499"><ele>32.33333333333333</ele><time>2026-04-19T15:13:02Z</time></trkpt><trkpt lat="38.008539668142554" lon="14.316657268238025"><ele>26.0</ele><time>2026-04-19T15:13:03Z</time></trkpt><trkpt lat="38.00865324192748" lon="14.316824233278794"><ele>26.0</ele><time>2026-04-19T15:13:04Z</time></trkpt><trkpt lat="38.00874756272112" lon="14.316996509445415"><ele>26.0</ele><time>2026-04-19T15:13:05Z</time></trkpt><trkpt lat="38.00883917062939" lon="14.317162179277863"><ele>26.0</ele><time>2026-04-19T15:13:06Z</time></trkpt><trkpt lat="38.00892840063215" lon="14.317324394126485"><ele>22.666666666666664</ele><time>2026-04-19T15:13:07Z</time></trkpt><trkpt lat="38.009016641318375" lon="14.317487715818505"><ele>19.333333333333332</ele><time>2026-04-19T15:13:08Z</time></trkpt><trkpt lat="38.00910780270357" lon="14.317656522851737"><ele>16.0</ele><time>2026-04-19T15:13:09Z</time></trkpt><trkpt lat="38.00919669155611" lon="14.31783504050402"><ele>16.0</ele><time>2026-04-19T15:13:10Z</time></trkpt><trkpt lat="38.009276810769855" lon="14.318026933218139"><ele>16.0</ele><time>2026-04-19T15:13:11Z</time></trkpt><trkpt lat="38.00935006321535" lon="14.318230352191138"><ele>16.0</ele><time>2026-04-19T15:13:12Z</time></trkpt><trkpt lat="38.0094229598507" lon="14.318437176640433"><ele>21.0</ele><time>2026-04-19T15:13:13Z</time></trkpt><trkpt lat="38.00949701429835" lon="14.318644176345435"><ele>26.0</ele><time>2026-04-19T15:13:14Z</time></trkpt><trkpt lat="38.0095724583608" lon="14.3188539105318"><ele>31.0</ele><time>2026-04-19T15:13:15Z</time></trkpt><trkpt lat="38.00964803110514" lon="14.31906663934952"><ele>34.66666666666667</ele><time>2026-04-19T15:13:16Z</time></trkpt><trkpt lat="38.00972516980241" lon="14.319278882597402"><ele>38.333333333333336</ele><time>2026-04-19T15:13:17Z</time></trkpt><trkpt lat="38.00980272455114" lon="14.319489087145138"><ele>42.0</ele><time>2026-04-19T15:13:18Z</time></trkpt><trkpt lat="38.00988538156746" lon="14.319699189671214"><ele>44.66666666666667</ele><time>2026-04-19T15:13:19Z</time></trkpt><trkpt lat="38.009972635011536" lon="14.319905797918658"><ele>47.333333333333336</ele><time>2026-04-19T15:13:20Z</time></trkpt><trkpt lat="38.01004370883049" lon="14.320120414451878"><ele>50.0</ele><time>2026-04-19T15:13:21Z</time></trkpt><trkpt lat="38.01013083013125" lon="14.320317940454284"><ele>45.75</ele><time>2026-04-19T15:13:22Z</time></trkpt><trkpt lat="38.010213181318846" lon="14.320500571570266"><ele>41.5</ele><time>2026-04-19T15:13:23Z</time></trkpt><trkpt lat="38.010286739598804" lon="14.320663961307448"><ele>37.25</ele><time>2026-04-19T15:13:24Z</time></trkpt><trkpt lat="38.010340516933276" lon="14.320805158828847"><ele>33.0</ele><time>2026-04-19T15:13:25Z</time></trkpt><trkpt lat="38.01038070764886" lon="14.320950473268253"><ele>33.0</ele><time>2026-04-19T15:13:26Z</time></trkpt><trkpt lat="38.010340772294015" lon="14.321098204766601"><ele>33.0</ele><time>2026-04-19T15:13:27Z</time></trkpt><trkpt lat="38.01030522654931" lon="14.321257064352123"><ele>33.0</ele><time>2026-04-19T15:13:28Z</time></trkpt><trkpt lat="38.01027656609929" lon="14.321422343566951"><ele>33.0</ele><time>2026-04-19T15:13:29Z</time></trkpt><trkpt lat="38.01024392572524" lon="14.32159286263904"><ele>32.5</ele><time>2026-04-19T15:13:30Z</time></trkpt><trkpt lat="38.01022597831949" lon="14.32177033463589"><ele>32.0</ele><time>2026-04-19T15:13:31Z</time></trkpt><trkpt lat="38.01022714132881" lon="14.32195519672125"><ele>31.5</ele><time>2026-04-19T15:13:32Z</time></trkpt><trkpt lat="38.010215662715055" lon="14.322143164310715"><ele>31.0</ele><time>2026-04-19T15:13:33Z</time></trkpt><trkpt lat="38.01021639343237" lon="14.322332601354184"><ele>30.333333333333336</ele><time>2026-04-19T15:13:34Z</time></trkpt><trkpt lat="38.01020540039724" lon="14.3225252443928"><ele>29.666666666666664</ele><time>2026-04-19T15:13:35Z</time></trkpt><trkpt lat="38.01018457689125" lon="14.322719115468145"><ele>29.0</ele><time>2026-04-19T15:13:36Z</time></trkpt><trkpt lat="38.01015337280201" lon="14.322905009348785"><ele>28.25</ele><time>2026-04-19T15:13:37Z</time></trkpt><trkpt lat="38.01012798842071" lon="14.323090330523533"><ele>27.5</ele><time>2026-04-19T15:13:38Z</time></trkpt><trkpt lat="38.01008964695137" lon="14.323262706013592"><ele>26.75</ele><time>2026-04-19T15:13:39Z</time></trkpt><trkpt lat="38.010054274405775" lon="14.323424692888196"><ele>26.0</ele><time>2026-04-19T15:13:40Z</time></trkpt><trkpt lat="38.010023464333024" lon="14.32357961217934"><ele>26.0</ele><time>2026-04-19T15:13:41Z</time></trkpt><trkpt lat="38.01001089876616" lon="14.323723543056682"><ele>26.0</ele><time>2026-04-19T15:13:42Z</time></trkpt><trkpt lat="38.010011191215554" lon="14.323860067814264"><ele>26.0</ele><time>2026-04-19T15:13:43Z</time></trkpt><trkpt lat="38.010024272973446" lon="14.323985570040692"><ele>26.0</ele><time>2026-04-19T15:13:44Z</time></trkpt><trkpt lat="38.010031033905186" lon="14.324118361467052"><ele>26.0</ele><time>2026-04-19T15:13:45Z</time></trkpt><trkpt lat="38.01006805962097" lon="14.324234096014756"><ele>24.6</ele><time>2026-04-19T15:13:46Z</time></trkpt><trkpt lat="38.0101051642761" lon="14.32434105919968"><ele>23.200000000000003</ele><time>2026-04-19T15:13:48Z</time></trkpt><trkpt lat="38.010135802303196" lon="14.324429381046972"><ele>21.799999999999997</ele><time>2026-04-19T15:13:51Z</time></trkpt><trkpt lat="38.01024411240942" lon="14.324451922082162"><ele>20.4</ele><time>2026-04-19T15:13:52Z</time></trkpt><trkpt lat="38.01028817517449" lon="14.324558186409343"><ele>19.0</ele><time>2026-04-19T15:13:54Z</time></trkpt><trkpt lat="38.01034168953624" lon="14.324674011677287"><ele>19.333333333333332</ele><time>2026-04-19T15:13:56Z</time></trkpt><trkpt lat="38.010403101170986" lon="14.32481627816942"><ele>19.666666666666664</ele><time>2026-04-19T15:13:58Z</time></trkpt><trkpt lat="38.010437082939774" lon="14.324887082304535"><ele>20.0</ele><time>2026-04-19T15:13:59Z</time></trkpt><trkpt lat="38.0104740906355" lon="14.324956407847209"><ele>20.333333333333332</ele><time>2026-04-19T15:14:00Z</time></trkpt><trkpt lat="38.01052491034086" lon="14.325009025864386"><ele>20.666666666666668</ele><time>2026-04-19T15:14:01Z</time></trkpt><trkpt lat="38.01063732819611" lon="14.325000631114472"><ele>21.0</ele><time>2026-04-19T15:14:03Z</time></trkpt><trkpt lat="38.01072743400539" lon="14.324878282220038"><ele>21.0</ele><time>2026-04-19T15:14:05Z</time></trkpt><trkpt lat="38.01077744820512" lon="14.324821173034424"><ele>21.0</ele><time>2026-04-19T15:14:06Z</time></trkpt><trkpt lat="38.01081853078692" lon="14.324757976623003"><ele>21.0</ele><time>2026-04-19T15:14:07Z</time></trkpt><trkpt lat="38.01083745882691" lon="14.324680578244402"><ele>21.0</ele><time>2026-04-19T15:14:08Z</time></trkpt><trkpt lat="38.01080868257793" lon="14.32451418412134"><ele>21.0</ele><time>2026-04-19T15:14:09.999Z</time></trkpt><trkpt lat="38.01078119303886" lon="14.324433029983302"><ele>21.0</ele><time>2026-04-19T15:14:10.999Z</time></trkpt><trkpt lat="38.01072922057558" lon="14.324291445586598"><ele>20.666666666666668</ele><time>2026-04-19T15:14:12.999Z</time></trkpt><trkpt lat="38.010677259797745" lon="14.324158275518284"><ele>20.333333333333332</ele><time>2026-04-19T15:14:14.999Z</time></trkpt><trkpt lat="38.0106647742875" lon="14.324073758072434"><ele>20.0</ele><time>2026-04-19T15:14:15.999Z</time></trkpt><trkpt lat="38.01065813100205" lon="14.323987323271224"><ele>19.666666666666664</ele><time>2026-04-19T15:14:16.999Z</time></trkpt><trkpt lat="38.01066525067047" lon="14.323899055422983"><ele>19.333333333333332</ele><time>2026-04-19T15:14:17.999Z</time></trkpt><trkpt lat="38.010687379304244" lon="14.323823283173327"><ele>19.0</ele><time>2026-04-19T15:14:18.999Z</time></trkpt><trkpt lat="38.01073415929183" lon="14.32376721274419"><ele>17.0</ele><time>2026-04-19T15:14:19.999Z</time></trkpt><trkpt lat="38.01083785866344" lon="14.323745060337243"><ele>14.999999999999998</ele><time>2026-04-19T15:14:21.999Z</time></trkpt><trkpt lat="38.01090821343066" lon="14.323830182399151"><ele>13.0</ele><time>2026-04-19T15:14:24.999Z</time></trkpt><trkpt lat="38.010928171495756" lon="14.323942763960213"><ele>11.0</ele><time>2026-04-19T15:14:26.999Z</time></trkpt><trkpt lat="38.01094046222877" lon="14.324096009160723"><ele>9.0</ele><time>2026-04-19T15:14:28.999Z</time></trkpt><trkpt lat="38.01097303535226" lon="14.324242908244868"><ele>9.000000000000002</ele><time>2026-04-19T15:14:30.999Z</time></trkpt><trkpt lat="38.01098891824299" lon="14.324327815893737"><ele>9.0</ele><time>2026-04-19T15:14:31.999Z</time></trkpt><trkpt lat="38.010996789062254" lon="14.324410641055952"><ele>9.0</ele><time>2026-04-19T15:14:32.999Z</time></trkpt><trkpt lat="38.01100666906921" lon="14.32449384909003"><ele>9.0</ele><time>2026-04-19T15:14:33.999Z</time></trkpt><trkpt lat="38.01102398979329" lon="14.324574810772456"><ele>9.0</ele><time>2026-04-19T15:14:34.999Z</time></trkpt><trkpt lat="38.0110432796981" lon="14.324651826207832"><ele>9.000000000000002</ele><time>2026-04-19T15:14:35.999Z</time></trkpt><trkpt lat="38.01107340846647" lon="14.324723289447467"><ele>9.0</ele><time>2026-04-19T15:14:36.999Z</time></trkpt><trkpt lat="38.01111876385203" lon="14.324781114386182"><ele>9.714285714285715</ele><time>2026-04-19T15:14:37.999Z</time></trkpt><trkpt lat="38.01117423903599" lon="14.324823830350358"><ele>10.428571428571429</ele><time>2026-04-19T15:14:38.999Z</time></trkpt><trkpt lat="38.01123168598942" lon="14.32486114977038"><ele>11.142857142857142</ele><time>2026-04-19T15:14:39.999Z</time></trkpt><trkpt lat="38.01128939028134" lon="14.324901001092437"><ele>11.857142857142858</ele><time>2026-04-19T15:14:40.999Z</time></trkpt><trkpt lat="38.01133162898021" lon="14.324962794603671"><ele>12.571428571428571</ele><time>2026-04-19T15:14:41.999Z</time></trkpt><trkpt lat="38.011373043663156" lon="14.32510568251773"><ele>13.285714285714286</ele><time>2026-04-19T15:14:43.999Z</time></trkpt><trkpt lat="38.011401995070926" lon="14.325183264536616"><ele>14.0</ele><time>2026-04-19T15:14:44.999Z</time></trkpt><trkpt lat="38.01143312064442" lon="14.325266672746753"><ele>14.0</ele><time>2026-04-19T15:14:45.999Z</time></trkpt><trkpt lat="38.01146586009222" lon="14.325356026431777"><ele>13.999999999999998</ele><time>2026-04-19T15:14:46.999Z</time></trkpt><trkpt lat="38.01149828646507" lon="14.325445551401991"><ele>13.999999999999998</ele><time>2026-04-19T15:14:47.999Z</time></trkpt><trkpt lat="38.01154145232661" lon="14.325561736630487"><ele>14.0</ele><time>2026-04-19T15:14:48.999Z</time></trkpt><trkpt lat="38.011591063662316" lon="14.325682522569881"><ele>14.0</ele><time>2026-04-19T15:14:49.999Z</time></trkpt><trkpt lat="38.011639455882" lon="14.325797475964158"><ele>13.0</ele><time>2026-04-19T15:14:50.999Z</time></trkpt><trkpt lat="38.01168849000046" lon="14.325908689048944"><ele>11.999999999999998</ele><time>2026-04-19T15:14:51.999Z</time></trkpt><trkpt lat="38.011741373449006" lon="14.326027941313994"><ele>11.0</ele><time>2026-04-19T15:14:52.999Z</time></trkpt><trkpt lat="38.01179632615655" lon="14.32614958417648"><ele>10.0</ele><time>2026-04-19T15:14:53.999Z</time></trkpt><trkpt lat="38.01185240294403" lon="14.32627367711123"><ele>9.0</ele><time>2026-04-19T15:14:54.999Z</time></trkpt><trkpt lat="38.01191127701675" lon="14.326403945780044"><ele>9.0</ele><time>2026-04-19T15:14:55.999Z</time></trkpt><trkpt lat="38.01196955329687" lon="14.326534697470708"><ele>9.0</ele><time>2026-04-19T15:14:56.999Z</time></trkpt><trkpt lat="38.01202913357269" lon="14.326670047791003"><ele>9.0</ele><time>2026-04-19T15:14:58Z</time></trkpt><trkpt lat="38.01208861064675" lon="14.326805163672077"><ele>9.0</ele><time>2026-04-19T15:14:59Z</time></trkpt><trkpt lat="38.01216306093793" lon="14.326931733408074"><ele>9.0</ele><time>2026-04-19T15:15:00Z</time></trkpt><trkpt lat="38.01222334164027" lon="14.327071518396341"><ele>9.0</ele><time>2026-04-19T15:15:01Z</time></trkpt><trkpt lat="38.01228293510989" lon="14.327215704728882"><ele>9.0</ele><time>2026-04-19T15:15:02Z</time></trkpt><trkpt lat="38.012345476756536" lon="14.3273577282527"><ele>9.0</ele><time>2026-04-19T15:15:03Z</time></trkpt><trkpt lat="38.012409720602875" lon="14.327496501730376"><ele>9.5</ele><time>2026-04-19T15:15:04Z</time></trkpt><trkpt lat="38.01245508120786" lon="14.32764819796186"><ele>10.0</ele><time>2026-04-19T15:15:05Z</time></trkpt><trkpt lat="38.01251859265038" lon="14.327795202487772"><ele>10.5</ele><time>2026-04-19T15:15:06Z</time></trkpt><trkpt lat="38.012583688998454" lon="14.327938793936918"><ele>11.0</ele><time>2026-04-19T15:15:07Z</time></trkpt><trkpt lat="38.01264583666414" lon="14.328075881078236"><ele>9.75</ele><time>2026-04-19T15:15:08Z</time></trkpt><trkpt lat="38.01270691068978" lon="14.32821059996753"><ele>8.5</ele><time>2026-04-19T15:15:09Z</time></trkpt><trkpt lat="38.01277554310297" lon="14.328333547953525"><ele>7.25</ele><time>2026-04-19T15:15:10Z</time></trkpt><trkpt lat="38.012827017925765" lon="14.328469723671162"><ele>6.0</ele><time>2026-04-19T15:15:11Z</time></trkpt><trkpt lat="38.01288814651872" lon="14.328603144252185"><ele>6.0</ele><time>2026-04-19T15:15:12Z</time></trkpt><trkpt lat="38.012949888632036" lon="14.328734999201204"><ele>6.0</ele><time>2026-04-19T15:15:13Z</time></trkpt><trkpt lat="38.013012828753915" lon="14.328865614947976"><ele>6.0</ele><time>2026-04-19T15:15:14Z</time></trkpt><trkpt lat="38.01306809743881" lon="14.329006057454212"><ele>6.0</ele><time>2026-04-19T15:15:15Z</time></trkpt><trkpt lat="38.01316863405749" lon="14.329102305400545"><ele>6.5</ele><time>2026-04-19T15:15:16Z</time></trkpt><trkpt lat="38.01325947905735" lon="14.329204539532144"><ele>7.0</ele><time>2026-04-19T15:15:17Z</time></trkpt><trkpt lat="38.01334840063005" lon="14.329301785082363"><ele>7.5</ele><time>2026-04-19T15:15:18Z</time></trkpt><trkpt lat="38.01342248462018" lon="14.329416045236236"><ele>8.0</ele><time>2026-04-19T15:15:19Z</time></trkpt><trkpt lat="38.01349232363214" lon="14.329523340548464"><ele>8.0</ele><time>2026-04-19T15:15:20Z</time></trkpt><trkpt lat="38.01355154928304" lon="14.329633372997623"><ele>8.0</ele><time>2026-04-19T15:15:21Z</time></trkpt><trkpt lat="38.013614058108764" lon="14.329734083361107"><ele>8.0</ele><time>2026-04-19T15:15:22Z</time></trkpt><trkpt lat="38.013648161267426" lon="14.329856907042341"><ele>8.0</ele><time>2026-04-19T15:15:23Z</time></trkpt><trkpt lat="38.01369443004288" lon="14.329973775199322"><ele>8.0</ele><time>2026-04-19T15:15:24Z</time></trkpt><trkpt lat="38.01374182616419" lon="14.330094077317266"><ele>8.0</ele><time>2026-04-19T15:15:25Z</time></trkpt><trkpt lat="38.01378902748246" lon="14.33021580329558"><ele>8.0</ele><time>2026-04-19T15:15:26Z</time></trkpt><trkpt lat="38.01384663031206" lon="14.33033303647543"><ele>8.0</ele><time>2026-04-19T15:15:27Z</time></trkpt><trkpt lat="38.01388694216441" lon="14.330458713516869"><ele>8.0</ele><time>2026-04-19T15:15:28Z</time></trkpt><trkpt lat="38.013931623898586" lon="14.330586637745837"><ele>8.0</ele><time>2026-04-19T15:15:29Z</time></trkpt><trkpt lat="38.01397736702311" lon="14.330712753982954"><ele>8.0</ele><time>2026-04-19T15:15:30Z</time></trkpt><trkpt lat="38.0140226488619" lon="14.330837692867016"><ele>8.0</ele><time>2026-04-19T15:15:31Z</time></trkpt><trkpt lat="38.01406641732055" lon="14.330963034566096"><ele>8.0</ele><time>2026-04-19T15:15:32Z</time></trkpt><trkpt lat="38.014110240210584" lon="14.331087518139382"><ele>8.0</ele><time>2026-04-19T15:15:33Z</time></trkpt><trkpt lat="38.014159199693225" lon="14.331207310412355"><ele>8.0</ele><time>2026-04-19T15:15:34Z</time></trkpt><trkpt lat="38.01419533316117" lon="14.331319018780569"><ele>8.166666666666666</ele><time>2026-04-19T15:15:35Z</time></trkpt><trkpt lat="38.01423046353418" lon="14.331415015652682"><ele>8.333333333333332</ele><time>2026-04-19T15:15:36Z</time></trkpt><trkpt lat="38.014256967759515" lon="14.3314973796996"><ele>8.5</ele><time>2026-04-19T15:15:37Z</time></trkpt><trkpt lat="38.01428156068422" lon="14.331573632868263"><ele>8.666666666666666</ele><time>2026-04-19T15:15:38Z</time></trkpt><trkpt lat="38.014309931282135" lon="14.3316464385613"><ele>8.833333333333334</ele><time>2026-04-19T15:15:39Z</time></trkpt><trkpt lat="38.01436385199956" lon="14.331786052098694"><ele>9.0</ele><time>2026-04-19T15:15:41Z</time></trkpt><trkpt lat="38.01442422060876" lon="14.331918339813049"><ele>9.0</ele><time>2026-04-19T15:15:43Z</time></trkpt><trkpt lat="38.01448016627859" lon="14.332046107031534"><ele>9.0</ele><time>2026-04-19T15:15:45Z</time></trkpt><trkpt lat="38.01452134919391" lon="14.332178580232986"><ele>9.0</ele><time>2026-04-19T15:15:47Z</time></trkpt><trkpt lat="38.01457207213496" lon="14.332292774729147"><ele>9.0</ele><time>2026-04-19T15:15:49Z</time></trkpt><trkpt lat="38.01460608810909" lon="14.332367245909495"><ele>9.0</ele><time>2026-04-19T15:15:51Z</time></trkpt></trkseg><trkseg><trkpt lat="38.01464725155887" lon="14.332436343804524"><ele>9.0</ele><time>2026-04-19T15:28:49.001Z</time></trkpt><trkpt lat="38.01467387817011" lon="14.332538224117327"><ele>9.0</ele><time>2026-04-19T15:28:51.001Z</time></trkpt><trkpt lat="38.01474191709388" lon="14.332648049193812"><ele>9.0</ele><time>2026-04-19T15:28:53.001Z</time></trkpt><trkpt lat="38.01477520116141" lon="14.332718889831199"><ele>9.0</ele><time>2026-04-19T15:28:54.001Z</time></trkpt><trkpt lat="38.01483508834724" lon="14.332855559366422"><ele>9.0</ele><time>2026-04-19T15:28:56.001Z</time></trkpt><trkpt lat="38.0148719639903" lon="14.332927909623281"><ele>9.0</ele><time>2026-04-19T15:28:57.001Z</time></trkpt><trkpt lat="38.0149084373805" lon="14.332998244382374"><ele>9.0</ele><time>2026-04-19T15:28:58.001Z</time></trkpt><trkpt lat="38.01494198670194" lon="14.333068096613369"><ele>9.0</ele><time>2026-04-19T15:28:59.001Z</time></trkpt><trkpt lat="38.015009425197775" lon="14.333200290358533"><ele>9.0</ele><time>2026-04-19T15:29:01.001Z</time></trkpt><trkpt lat="38.01505380908872" lon="14.333293021220186"><ele>9.0</ele><time>2026-04-19T15:29:03.001Z</time></trkpt><trkpt lat="38.01511315015935" lon="14.333391497156619"><ele>9.0</ele><time>2026-04-19T15:29:07.001Z</time></trkpt><trkpt lat="38.01516853474022" lon="14.333517265647695"><ele>9.0</ele><time>2026-04-19T15:29:09.001Z</time></trkpt><trkpt lat="38.01520661895997" lon="14.333599589582954"><ele>9.0</ele><time>2026-04-19T15:29:10.001Z</time></trkpt><trkpt lat="38.015241916744785" lon="14.333670696697991"><ele>9.0</ele><time>2026-04-19T15:29:11.001Z</time></trkpt><trkpt lat="38.01528312722921" lon="14.333744512574809"><ele>9.0</ele><time>2026-04-19T15:29:12.001Z</time></trkpt><trkpt lat="38.015323288791826" lon="14.333830627090697"><ele>9.0</ele><time>2026-04-19T15:29:13.001Z</time></trkpt><trkpt lat="38.01536597638186" lon="14.333910660418152"><ele>9.0</ele><time>2026-04-19T15:29:14.001Z</time></trkpt><trkpt lat="38.015415300741786" lon="14.333994399049667"><ele>9.0</ele><time>2026-04-19T15:29:15.001Z</time></trkpt><trkpt lat="38.01546324413611" lon="14.33408125141425"><ele>9.0</ele><time>2026-04-19T15:29:16.001Z</time></trkpt><trkpt lat="38.01551505694775" lon="14.334176478363615"><ele>9.0</ele><time>2026-04-19T15:29:17.001Z</time></trkpt><trkpt lat="38.015566185365806" lon="14.334268028367154"><ele>9.0</ele><time>2026-04-19T15:29:18.001Z</time></trkpt><trkpt lat="38.01561641016079" lon="14.334356663289054"><ele>9.0</ele><time>2026-04-19T15:29:19.001Z</time></trkpt><trkpt lat="38.01566486777676" lon="14.334438436891022"><ele>9.0</ele><time>2026-04-19T15:29:20.001Z</time></trkpt><trkpt lat="38.01571657058218" lon="14.334518386185092"><ele>9.0</ele><time>2026-04-19T15:29:21.001Z</time></trkpt><trkpt lat="38.01576023969821" lon="14.3345980474391"><ele>9.0</ele><time>2026-04-19T15:29:22.001Z</time></trkpt><trkpt lat="38.015800093154276" lon="14.334679188495743"><ele>9.0</ele><time>2026-04-19T15:29:23.001Z</time></trkpt><trkpt lat="38.01583457854896" lon="14.334756224460978"><ele>9.0</ele><time>2026-04-19T15:29:24.001Z</time></trkpt><trkpt lat="38.01587318821375" lon="14.334819989427999"><ele>9.0</ele><time>2026-04-19T15:29:25.001Z</time></trkpt><trkpt lat="38.015932509337745" lon="14.334938155727723"><ele>9.0</ele><time>2026-04-19T15:29:27.001Z</time></trkpt><trkpt lat="38.01600185898528" lon="14.335038476495308"><ele>9.0</ele><time>2026-04-19T15:29:29.001Z</time></trkpt><trkpt lat="38.016039886048695" lon="14.335127404443917"><ele>9.0</ele><time>2026-04-19T15:29:32.001Z</time></trkpt><trkpt lat="38.016121314487144" lon="14.335063062430411"><ele>9.0</ele><time>2026-04-19T15:29:33.001Z</time></trkpt><trkpt lat="38.01619045216753" lon="14.335030998441182"><ele>9.0</ele><time>2026-04-19T15:29:35.001Z</time></trkpt><trkpt lat="38.01625494292668" lon="14.335103628230232"><ele>9.0</ele><time>2026-04-19T15:29:37.001Z</time></trkpt><trkpt lat="38.016309323125576" lon="14.335239769107032"><ele>9.0</ele><time>2026-04-19T15:29:39.001Z</time></trkpt><trkpt lat="38.0163776603664" lon="14.335368415495957"><ele>9.0</ele><time>2026-04-19T15:29:41.001Z</time></trkpt><trkpt lat="38.01641514983059" lon="14.335436416619642"><ele>9.0</ele><time>2026-04-19T15:29:42.001Z</time></trkpt><trkpt lat="38.016481111025506" lon="14.335567795531823"><ele>9.0</ele><time>2026-04-19T15:29:44.001Z</time></trkpt><trkpt lat="38.01651693733403" lon="14.33563910248607"><ele>9.0</ele><time>2026-04-19T15:29:45.001Z</time></trkpt><trkpt lat="38.01655568115816" lon="14.335710949663204"><ele>9.0</ele><time>2026-04-19T15:29:46.001Z</time></trkpt><trkpt lat="38.01659459529332" lon="14.335781803136033"><ele>8.666666666666666</ele><time>2026-04-19T15:29:47.001Z</time></trkpt><trkpt lat="38.01663941804721" lon="14.335851340155246"><ele>8.333333333333334</ele><time>2026-04-19T15:29:48.001Z</time></trkpt><trkpt lat="38.01668265951458" lon="14.33592505567522"><ele>8.0</ele><time>2026-04-19T15:29:49.001Z</time></trkpt><trkpt lat="38.01672727949034" lon="14.33600715498119"><ele>7.666666666666667</ele><time>2026-04-19T15:29:50.001Z</time></trkpt><trkpt lat="38.01676402831053" lon="14.336091309452453"><ele>7.333333333333334</ele><time>2026-04-19T15:29:51.001Z</time></trkpt><trkpt lat="38.01680718458199" lon="14.336174143558713"><ele>7.0</ele><time>2026-04-19T15:29:52.001Z</time></trkpt><trkpt lat="38.01684944880326" lon="14.33625646506257"><ele>7.000000000000001</ele><time>2026-04-19T15:29:53.001Z</time></trkpt><trkpt lat="38.016897771096964" lon="14.336339152543198"><ele>7.0</ele><time>2026-04-19T15:29:54.001Z</time></trkpt><trkpt lat="38.01694292283674" lon="14.33642422884046"><ele>7.0</ele><time>2026-04-19T15:29:55.001Z</time></trkpt><trkpt lat="38.01699549271807" lon="14.336515655610459"><ele>7.0</ele><time>2026-04-19T15:29:56.001Z</time></trkpt><trkpt lat="38.01704511441542" lon="14.336614957810838"><ele>7.000000000000001</ele><time>2026-04-19T15:29:57.001Z</time></trkpt><trkpt lat="38.01710226652861" lon="14.33671968018487"><ele>7.0</ele><time>2026-04-19T15:29:58.001Z</time></trkpt><trkpt lat="38.01715040118602" lon="14.336807631352976"><ele>7.000000000000001</ele><time>2026-04-19T15:29:59.001Z</time></trkpt><trkpt lat="38.01719704852559" lon="14.336888429876048"><ele>7.0</ele><time>2026-04-19T15:30:00.001Z</time></trkpt><trkpt lat="38.01724286424942" lon="14.336972054233925"><ele>7.0</ele><time>2026-04-19T15:30:01.001Z</time></trkpt><trkpt lat="38.01728702213823" lon="14.337056378508597"><ele>7.0</ele><time>2026-04-19T15:30:02.001Z</time></trkpt><trkpt lat="38.01732577613945" lon="14.33714816632546"><ele>7.000000000000001</ele><time>2026-04-19T15:30:03.001Z</time></trkpt><trkpt lat="38.01735137279206" lon="14.33724776270519"><ele>7.0</ele><time>2026-04-19T15:30:04.001Z</time></trkpt><trkpt lat="38.01736008530762" lon="14.337357810195485"><ele>7.333333333333334</ele><time>2026-04-19T15:30:05.001Z</time></trkpt><trkpt lat="38.01734969469778" lon="14.337472302870053"><ele>7.666666666666667</ele><time>2026-04-19T15:30:06.001Z</time></trkpt><trkpt lat="38.01733559129158" lon="14.337580370862641"><ele>8.0</ele><time>2026-04-19T15:30:07.001Z</time></trkpt><trkpt lat="38.017320758921954" lon="14.337685788765121"><ele>8.333333333333334</ele><time>2026-04-19T15:30:08.002Z</time></trkpt><trkpt lat="38.01729930921535" lon="14.337785201433904"><ele>8.666666666666666</ele><time>2026-04-19T15:30:09.002Z</time></trkpt><trkpt lat="38.01727750170318" lon="14.337875224218612"><ele>9.0</ele><time>2026-04-19T15:30:10.002Z</time></trkpt><trkpt lat="38.01725368969251" lon="14.337952542938924"><ele>9.0</ele><time>2026-04-19T15:30:11.002Z</time></trkpt><trkpt lat="38.017210464630914" lon="14.338071359239782"><ele>9.0</ele><time>2026-04-19T15:30:13.001Z</time></trkpt><trkpt lat="38.01714295193111" lon="14.33816356776358"><ele>9.0</ele><time>2026-04-19T15:30:15.001Z</time></trkpt><trkpt lat="38.01703121297189" lon="14.338195383463853"><ele>9.0</ele><time>2026-04-19T15:30:17.001Z</time></trkpt><trkpt lat="38.01695886421987" lon="14.338218967907773"><ele>9.0</ele><time>2026-04-19T15:30:18.001Z</time></trkpt><trkpt lat="38.01687855776959" lon="14.338243946032353"><ele>9.0</ele><time>2026-04-19T15:30:19.001Z</time></trkpt><trkpt lat="38.01679097976924" lon="14.338277640080909"><ele>9.0</ele><time>2026-04-19T15:30:20.001Z</time></trkpt><trkpt lat="38.01670182917032" lon="14.338311562236234"><ele>9.0</ele><time>2026-04-19T15:30:21.001Z</time></trkpt><trkpt lat="38.01661216012866" lon="14.338347161450361"><ele>9.0</ele><time>2026-04-19T15:30:22.001Z</time></trkpt><trkpt lat="38.016527514662656" lon="14.338381180180896"><ele>9.0</ele><time>2026-04-19T15:30:23.001Z</time></trkpt><trkpt lat="38.0164463613332" lon="14.338410197643013"><ele>9.333333333333334</ele><time>2026-04-19T15:30:24.001Z</time></trkpt><trkpt lat="38.016365830022615" lon="14.338436330185306"><ele>9.666666666666666</ele><time>2026-04-19T15:30:25.001Z</time></trkpt><trkpt lat="38.01628145169179" lon="14.338438608136443"><ele>10.0</ele><time>2026-04-19T15:30:26.001Z</time></trkpt><trkpt lat="38.016160381313334" lon="14.338406168085724"><ele>10.333333333333332</ele><time>2026-04-19T15:30:28.001Z</time></trkpt><trkpt lat="38.01610849628664" lon="14.338341431755172"><ele>10.666666666666666</ele><time>2026-04-19T15:30:29.001Z</time></trkpt><trkpt lat="38.01608117287464" lon="14.338250112444783"><ele>11.0</ele><time>2026-04-19T15:30:30.001Z</time></trkpt><trkpt lat="38.01603532322066" lon="14.338164984041981"><ele>11.0</ele><time>2026-04-19T15:30:31.001Z</time></trkpt><trkpt lat="38.01599952030564" lon="14.338058265512998"><ele>11.0</ele><time>2026-04-19T15:30:32.001Z</time></trkpt><trkpt lat="38.01595955519655" lon="14.337943220367508"><ele>11.0</ele><time>2026-04-19T15:30:33.001Z</time></trkpt><trkpt lat="38.015922872412915" lon="14.337827341899429"><ele>11.0</ele><time>2026-04-19T15:30:34.001Z</time></trkpt><trkpt lat="38.015880409884815" lon="14.337727482446438"><ele>11.0</ele><time>2026-04-19T15:30:35.001Z</time></trkpt><trkpt lat="38.0158411868785" lon="14.337613475371763"><ele>12.4</ele><time>2026-04-19T15:30:36.001Z</time></trkpt><trkpt lat="38.015800932322826" lon="14.337500386205718"><ele>13.8</ele><time>2026-04-19T15:30:37.001Z</time></trkpt><trkpt lat="38.01576359811055" lon="14.337389529316322"><ele>15.200000000000001</ele><time>2026-04-19T15:30:38.001Z</time></trkpt><trkpt lat="38.01572538335612" lon="14.337278707375532"><ele>16.6</ele><time>2026-04-19T15:30:39.001Z</time></trkpt><trkpt lat="38.015691639850736" lon="14.337175535525521"><ele>18.0</ele><time>2026-04-19T15:30:40.001Z</time></trkpt><trkpt lat="38.015653683758366" lon="14.337084762433044"><ele>18.0</ele><time>2026-04-19T15:30:41.001Z</time></trkpt><trkpt lat="38.015603689531765" lon="14.337015781806338"><ele>18.0</ele><time>2026-04-19T15:30:42.001Z</time></trkpt><trkpt lat="38.01555808282075" lon="14.336950166927979"><ele>18.0</ele><time>2026-04-19T15:30:43.001Z</time></trkpt><trkpt lat="38.01546607791745" lon="14.336967048792262"><ele>18.0</ele><time>2026-04-19T15:30:44.001Z</time></trkpt><trkpt lat="38.01538599323724" lon="14.336991180793602"><ele>18.0</ele><time>2026-04-19T15:30:45.001Z</time></trkpt><trkpt lat="38.015299438690995" lon="14.337033099400415"><ele>18.0</ele><time>2026-04-19T15:30:46.001Z</time></trkpt><trkpt lat="38.015212699325154" lon="14.337071243135865"><ele>18.0</ele><time>2026-04-19T15:30:46.999Z</time></trkpt><trkpt lat="38.0151216126859" lon="14.337100037386117"><ele>18.0</ele><time>2026-04-19T15:30:47.999Z</time></trkpt><trkpt lat="38.015033396322515" lon="14.337128123861252"><ele>18.0</ele><time>2026-04-19T15:30:48.999Z</time></trkpt><trkpt lat="38.01493759346183" lon="14.337150116545331"><ele>18.0</ele><time>2026-04-19T15:30:49.999Z</time></trkpt><trkpt lat="38.01484220147714" lon="14.337168938296"><ele>18.0</ele><time>2026-04-19T15:30:50.999Z</time></trkpt><trkpt lat="38.014747435919084" lon="14.33718103206729"><ele>19.333333333333332</ele><time>2026-04-19T15:30:51.999Z</time></trkpt><trkpt lat="38.01465822547389" lon="14.337203267662062"><ele>20.666666666666664</ele><time>2026-04-19T15:30:52.999Z</time></trkpt><trkpt lat="38.01457391909357" lon="14.337233444743791"><ele>22.0</ele><time>2026-04-19T15:30:53.999Z</time></trkpt><trkpt lat="38.01449467910114" lon="14.337276862833171"><ele>23.333333333333332</ele><time>2026-04-19T15:30:54.999Z</time></trkpt><trkpt lat="38.01441957994082" lon="14.337325612933725"><ele>24.666666666666664</ele><time>2026-04-19T15:30:55.999Z</time></trkpt><trkpt lat="38.014348942333186" lon="14.337371864594571"><ele>26.0</ele><time>2026-04-19T15:30:56.999Z</time></trkpt><trkpt lat="38.01428513132846" lon="14.33739104145948"><ele>25.999999999999996</ele><time>2026-04-19T15:30:57.999Z</time></trkpt><trkpt lat="38.01421339439084" lon="14.337433620635972"><ele>26.0</ele><time>2026-04-19T15:30:58.999Z</time></trkpt><trkpt lat="38.01415218767675" lon="14.337490059279265"><ele>26.0</ele><time>2026-04-19T15:30:59.999Z</time></trkpt><trkpt lat="38.014080425512724" lon="14.33753036746932"><ele>26.0</ele><time>2026-04-19T15:31:01.999Z</time></trkpt><trkpt lat="38.01401602248057" lon="14.33755681142722"><ele>25.999999999999996</ele><time>2026-04-19T15:31:03.999Z</time></trkpt><trkpt lat="38.013921739104596" lon="14.337579558306954"><ele>26.0</ele><time>2026-04-19T15:31:05.999Z</time></trkpt><trkpt lat="38.01384975599587" lon="14.337610970554751"><ele>27.8</ele><time>2026-04-19T15:31:06.999Z</time></trkpt><trkpt lat="38.01377580627815" lon="14.337655644653033"><ele>29.6</ele><time>2026-04-19T15:31:07.999Z</time></trkpt><trkpt lat="38.01370545332493" lon="14.337708847160204"><ele>31.4</ele><time>2026-04-19T15:31:08.999Z</time></trkpt><trkpt lat="38.01362702874299" lon="14.337772320323445"><ele>33.2</ele><time>2026-04-19T15:31:09.999Z</time></trkpt><trkpt lat="38.013536394298804" lon="14.337841085905048"><ele>35.0</ele><time>2026-04-19T15:31:10.999Z</time></trkpt><trkpt lat="38.013430350990625" lon="14.337923781998677"><ele>35.25</ele><time>2026-04-19T15:31:11.999Z</time></trkpt><trkpt lat="38.01332043332537" lon="14.338013926206964"><ele>35.5</ele><time>2026-04-19T15:31:12.999Z</time></trkpt><trkpt lat="38.0132221448347" lon="14.338101916706552"><ele>35.75</ele><time>2026-04-19T15:31:13.999Z</time></trkpt><trkpt lat="38.0131251857643" lon="14.338186728480645"><ele>36.0</ele><time>2026-04-19T15:31:15Z</time></trkpt><trkpt lat="38.01302440598443" lon="14.33827285735864"><ele>36.0</ele><time>2026-04-19T15:31:16Z</time></trkpt><trkpt lat="38.01292894764333" lon="14.33836436914855"><ele>36.0</ele><time>2026-04-19T15:31:17Z</time></trkpt><trkpt lat="38.01283667630807" lon="14.338464821333403"><ele>36.0</ele><time>2026-04-19T15:31:18Z</time></trkpt><trkpt lat="38.01274919516572" lon="14.338570699863615"><ele>36.0</ele><time>2026-04-19T15:31:19Z</time></trkpt><trkpt lat="38.012661486040216" lon="14.338676558228151"><ele>36.0</ele><time>2026-04-19T15:31:20Z</time></trkpt><trkpt lat="38.01257667143244" lon="14.33877736003137"><ele>36.0</ele><time>2026-04-19T15:31:21Z</time></trkpt><trkpt lat="38.0124890163749" lon="14.33887274307484"><ele>36.0</ele><time>2026-04-19T15:31:22Z</time></trkpt><trkpt lat="38.012393412692745" lon="14.338949680980097"><ele>36.0</ele><time>2026-04-19T15:31:23Z</time></trkpt><trkpt lat="38.012294486101645" lon="14.339007852668031"><ele>35.5</ele><time>2026-04-19T15:31:24Z</time></trkpt><trkpt lat="38.01218052738121" lon="14.339032039909826"><ele>35.0</ele><time>2026-04-19T15:31:25Z</time></trkpt><trkpt lat="38.01206214188481" lon="14.339033580519613"><ele>34.5</ele><time>2026-04-19T15:31:26Z</time></trkpt><trkpt lat="38.01194154015308" lon="14.339028421422503"><ele>34.0</ele><time>2026-04-19T15:31:27Z</time></trkpt><trkpt lat="38.01181557665951" lon="14.339031429264121"><ele>34.0</ele><time>2026-04-19T15:31:28Z</time></trkpt><trkpt lat="38.01168666234271" lon="14.339050216907117"><ele>34.0</ele><time>2026-04-19T15:31:29Z</time></trkpt><trkpt lat="38.01155646896746" lon="14.339088310436246"><ele>34.0</ele><time>2026-04-19T15:31:30Z</time></trkpt><trkpt lat="38.01142646823326" lon="14.339140538630836"><ele>34.0</ele><time>2026-04-19T15:31:31Z</time></trkpt><trkpt lat="38.01129783062979" lon="14.339200897866116"><ele>36.25</ele><time>2026-04-19T15:31:32Z</time></trkpt><trkpt lat="38.01116930336202" lon="14.33925933503408"><ele>38.5</ele><time>2026-04-19T15:31:33Z</time></trkpt><trkpt lat="38.0110401016831" lon="14.339324454232672"><ele>40.75</ele><time>2026-04-19T15:31:34Z</time></trkpt><trkpt lat="38.01090779241508" lon="14.339396323781815"><ele>43.0</ele><time>2026-04-19T15:31:35Z</time></trkpt><trkpt lat="38.0107715000963" lon="14.33946689900924"><ele>42.75</ele><time>2026-04-19T15:31:36Z</time></trkpt><trkpt lat="38.01065475191012" lon="14.339543641335638"><ele>42.5</ele><time>2026-04-19T15:31:37Z</time></trkpt><trkpt lat="38.01054794836916" lon="14.33962584401199"><ele>42.25</ele><time>2026-04-19T15:31:38Z</time></trkpt><trkpt lat="38.01045730690542" lon="14.339716955243839"><ele>42.0</ele><time>2026-04-19T15:31:39Z</time></trkpt><trkpt lat="38.010370395260196" lon="14.339818163175591"><ele>42.0</ele><time>2026-04-19T15:31:40Z</time></trkpt><trkpt lat="38.01028522509984" lon="14.339924663591976"><ele>42.0</ele><time>2026-04-19T15:31:41Z</time></trkpt><trkpt lat="38.01020146841266" lon="14.340027073852887"><ele>42.0</ele><time>2026-04-19T15:31:42Z</time></trkpt><trkpt lat="38.01012228392599" lon="14.340121118758228"><ele>42.0</ele><time>2026-04-19T15:31:43Z</time></trkpt><trkpt lat="38.01004391190013" lon="14.340205244416987"><ele>42.0</ele><time>2026-04-19T15:31:44Z</time></trkpt><trkpt lat="38.00996068541219" lon="14.340278280608473"><ele>45.5</ele><time>2026-04-19T15:31:45Z</time></trkpt><trkpt lat="38.00985934474092" lon="14.340332088448072"><ele>49.0</ele><time>2026-04-19T15:31:46Z</time></trkpt><trkpt lat="38.00974271207744" lon="14.340324618138114"><ele>52.5</ele><time>2026-04-19T15:31:47Z</time></trkpt><trkpt lat="38.009623777301314" lon="14.34033850296907"><ele>56.0</ele><time>2026-04-19T15:31:48Z</time></trkpt><trkpt lat="38.009500374299336" lon="14.340352117514195"><ele>56.0</ele><time>2026-04-19T15:31:49Z</time></trkpt><trkpt lat="38.0093721449288" lon="14.340372338331054"><ele>56.0</ele><time>2026-04-19T15:31:50Z</time></trkpt><trkpt lat="38.00924414853386" lon="14.34042267456604"><ele>56.0</ele><time>2026-04-19T15:31:51Z</time></trkpt><trkpt lat="38.009113468304314" lon="14.34046307954845"><ele>56.0</ele><time>2026-04-19T15:31:52Z</time></trkpt><trkpt lat="38.00897966679926" lon="14.34051432592704"><ele>54.0</ele><time>2026-04-19T15:31:53Z</time></trkpt><trkpt lat="38.0088420275901" lon="14.340572179672039"><ele>52.0</ele><time>2026-04-19T15:31:54Z</time></trkpt><trkpt lat="38.00869752099962" lon="14.340619330895429"><ele>50.0</ele><time>2026-04-19T15:31:55Z</time></trkpt><trkpt lat="38.00856895829651" lon="14.340716495100065"><ele>48.0</ele><time>2026-04-19T15:31:56Z</time></trkpt><trkpt lat="38.00843622879538" lon="14.34080508924172"><ele>53.66666666666667</ele><time>2026-04-19T15:31:57Z</time></trkpt><trkpt lat="38.00830208036329" lon="14.34089722021828"><ele>59.333333333333336</ele><time>2026-04-19T15:31:58Z</time></trkpt><trkpt lat="38.00816358766751" lon="14.34098620627513"><ele>65.0</ele><time>2026-04-19T15:31:59Z</time></trkpt><trkpt lat="38.00803137243775" lon="14.34106719748711"><ele>65.0</ele><time>2026-04-19T15:32:00Z</time></trkpt><trkpt lat="38.00790532231261" lon="14.341141060257593"><ele>65.0</ele><time>2026-04-19T15:32:01Z</time></trkpt><trkpt lat="38.007792536819906" lon="14.341208126036035"><ele>65.0</ele><time>2026-04-19T15:32:02Z</time></trkpt><trkpt lat="38.00768603586637" lon="14.341276572538105"><ele>65.0</ele><time>2026-04-19T15:32:03Z</time></trkpt><trkpt lat="38.00758016090545" lon="14.341342962425308"><ele>62.5</ele><time>2026-04-19T15:32:04Z</time></trkpt><trkpt lat="38.007473655975005" lon="14.341410374571506"><ele>60.0</ele><time>2026-04-19T15:32:05Z</time></trkpt><trkpt lat="38.00735878242874" lon="14.341481080311196"><ele>57.5</ele><time>2026-04-19T15:32:06Z</time></trkpt><trkpt lat="38.0072404613379" lon="14.341556957131655"><ele>55.0</ele><time>2026-04-19T15:32:07Z</time></trkpt><trkpt lat="38.007121736214216" lon="14.341637292064387"><ele>55.0</ele><time>2026-04-19T15:32:08Z</time></trkpt><trkpt lat="38.007000567513415" lon="14.34171417459642"><ele>55.0</ele><time>2026-04-19T15:32:09Z</time></trkpt><trkpt lat="38.00687902239748" lon="14.341790145516317"><ele>55.0</ele><time>2026-04-19T15:32:10Z</time></trkpt><trkpt lat="38.00674693295665" lon="14.341848226443188"><ele>55.0</ele><time>2026-04-19T15:32:11Z</time></trkpt><trkpt lat="38.006624410032494" lon="14.341923945137406"><ele>54.0</ele><time>2026-04-19T15:32:12Z</time></trkpt><trkpt lat="38.00650341381794" lon="14.341999176729303"><ele>53.0</ele><time>2026-04-19T15:32:13Z</time></trkpt><trkpt lat="38.00638626958777" lon="14.34207225737398"><ele>52.0</ele><time>2026-04-19T15:32:14Z</time></trkpt><trkpt lat="38.00626930563494" lon="14.342145225570796"><ele>51.0</ele><time>2026-04-19T15:32:15Z</time></trkpt><trkpt lat="38.00615370525176" lon="14.342217343081215"><ele>51.0</ele><time>2026-04-19T15:32:16Z</time></trkpt><trkpt lat="38.00604037272722" lon="14.342288045792767"><ele>51.0</ele><time>2026-04-19T15:32:17Z</time></trkpt><trkpt lat="38.00593661020413" lon="14.342352778238071"><ele>51.0</ele><time>2026-04-19T15:32:18Z</time></trkpt><trkpt lat="38.00583793591" lon="14.342413681641563"><ele>51.0</ele><time>2026-04-19T15:32:19Z</time></trkpt><trkpt lat="38.00575140135295" lon="14.342489911376026"><ele>53.599999999999994</ele><time>2026-04-19T15:32:20Z</time></trkpt><trkpt lat="38.005656058424336" lon="14.342544577952557"><ele>56.2</ele><time>2026-04-19T15:32:21Z</time></trkpt><trkpt lat="38.00555958703029" lon="14.342602182062912"><ele>58.800000000000004</ele><time>2026-04-19T15:32:22Z</time></trkpt><trkpt lat="38.00546383505617" lon="14.342663315116425"><ele>61.400000000000006</ele><time>2026-04-19T15:32:23Z</time></trkpt><trkpt lat="38.00536302672034" lon="14.342728273702935"><ele>64.0</ele><time>2026-04-19T15:32:24Z</time></trkpt><trkpt lat="38.005261437789066" lon="14.3427918011671"><ele>64.0</ele><time>2026-04-19T15:32:25Z</time></trkpt><trkpt lat="38.00516132031606" lon="14.342852949392253"><ele>64.0</ele><time>2026-04-19T15:32:26Z</time></trkpt><trkpt lat="38.00507049037384" lon="14.342913580823828"><ele>64.0</ele><time>2026-04-19T15:32:27Z</time></trkpt><trkpt lat="38.00499051297321" lon="14.342978104925448"><ele>64.0</ele><time>2026-04-19T15:32:28.001Z</time></trkpt><trkpt lat="38.00492474902516" lon="14.343053829634327"><ele>64.0</ele><time>2026-04-19T15:32:29.001Z</time></trkpt><trkpt lat="38.004864807645376" lon="14.3431243913086"><ele>63.49999999999999</ele><time>2026-04-19T15:32:30.001Z</time></trkpt><trkpt lat="38.00481289703263" lon="14.343181969220927"><ele>63.0</ele><time>2026-04-19T15:32:31.001Z</time></trkpt><trkpt lat="38.004756032576644" lon="14.343219572738414"><ele>62.5</ele><time>2026-04-19T15:32:32.001Z</time></trkpt><trkpt lat="38.00469187504289" lon="14.343240559813477"><ele>62.0</ele><time>2026-04-19T15:32:33.001Z</time></trkpt><trkpt lat="38.00462826501582" lon="14.34324403609598"><ele>61.49999999999999</ele><time>2026-04-19T15:32:34.001Z</time></trkpt><trkpt lat="38.00450900080628" lon="14.343252455452111"><ele>61.0</ele><time>2026-04-19T15:32:36.001Z</time></trkpt><trkpt lat="38.00439898726376" lon="14.343247484777791"><ele>60.99999999999999</ele><time>2026-04-19T15:32:38.001Z</time></trkpt><trkpt lat="38.0043027192726" lon="14.343247475399322"><ele>61.0</ele><time>2026-04-19T15:32:40.001Z</time></trkpt><trkpt lat="38.00423921770107" lon="14.34324108377102"><ele>61.0</ele><time>2026-04-19T15:32:42.001Z</time></trkpt><trkpt lat="38.00417677348096" lon="14.343286048393239"><ele>61.0</ele><time>2026-04-19T15:33:05.999Z</time></trkpt><trkpt lat="38.00412207723977" lon="14.343329145264812"><ele>60.99999999999999</ele><time>2026-04-19T15:33:14.999Z</time></trkpt><trkpt lat="38.00404288699928" lon="14.343426974392727"><ele>61.0</ele><time>2026-04-19T15:33:25Z</time></trkpt><trkpt lat="38.00400620414229" lon="14.343511242690134"><ele>60.8</ele><time>2026-04-19T15:33:26Z</time></trkpt><trkpt lat="38.003975715838045" lon="14.343618875847419"><ele>60.599999999999994</ele><time>2026-04-19T15:33:27Z</time></trkpt><trkpt lat="38.003963291608166" lon="14.3437370080333"><ele>60.4</ele><time>2026-04-19T15:33:28Z</time></trkpt><trkpt lat="38.00397677436892" lon="14.343874304526551"><ele>60.2</ele><time>2026-04-19T15:33:29Z</time></trkpt><trkpt lat="38.004013591584446" lon="14.344012875779523"><ele>60.0</ele><time>2026-04-19T15:33:30Z</time></trkpt><trkpt lat="38.004068803735976" lon="14.344135096037416"><ele>59.0</ele><time>2026-04-19T15:33:31Z</time></trkpt><trkpt lat="38.0041358094887" lon="14.344233203228262"><ele>58.0</ele><time>2026-04-19T15:33:32Z</time></trkpt><trkpt lat="38.00420304412328" lon="14.34431807378721"><ele>57.0</ele><time>2026-04-19T15:33:33Z</time></trkpt><trkpt lat="38.00431721428846" lon="14.344351846781352"><ele>56.0</ele><time>2026-04-19T15:33:34Z</time></trkpt><trkpt lat="38.004442717082064" lon="14.344368475872024"><ele>55.0</ele><time>2026-04-19T15:33:35Z</time></trkpt><trkpt lat="38.004574766558065" lon="14.344406717744741"><ele>55.0</ele><time>2026-04-19T15:33:36Z</time></trkpt><trkpt lat="38.004690940575145" lon="14.344458107601216"><ele>55.0</ele><time>2026-04-19T15:33:37Z</time></trkpt><trkpt lat="38.00476667790988" lon="14.344562218455371"><ele>55.0</ele><time>2026-04-19T15:33:38Z</time></trkpt><trkpt lat="38.00476064054543" lon="14.344704825718058"><ele>55.0</ele><time>2026-04-19T15:33:39Z</time></trkpt><trkpt lat="38.00479625909499" lon="14.344840302489137"><ele>54.666666666666664</ele><time>2026-04-19T15:33:40Z</time></trkpt><trkpt lat="38.00485225605371" lon="14.345005722082483"><ele>54.33333333333333</ele><time>2026-04-19T15:33:41Z</time></trkpt><trkpt lat="38.00490277901831" lon="14.345215134892499"><ele>54.0</ele><time>2026-04-19T15:33:42Z</time></trkpt><trkpt lat="38.00496170943674" lon="14.345434333397662"><ele>52.33333333333333</ele><time>2026-04-19T15:33:43Z</time></trkpt><trkpt lat="38.00501291518744" lon="14.345647529379969"><ele>50.666666666666664</ele><time>2026-04-19T15:33:44Z</time></trkpt><trkpt lat="38.00505681266334" lon="14.345830510236516"><ele>49.0</ele><time>2026-04-19T15:33:45Z</time></trkpt><trkpt lat="38.00510345260637" lon="14.346002850711914"><ele>49.0</ele><time>2026-04-19T15:33:46Z</time></trkpt><trkpt lat="38.00514888503267" lon="14.346165411468816"><ele>49.0</ele><time>2026-04-19T15:33:47Z</time></trkpt><trkpt lat="38.00522039995745" lon="14.346300573466797"><ele>49.0</ele><time>2026-04-19T15:33:48Z</time></trkpt><trkpt lat="38.00532502553945" lon="14.346392094680164"><ele>49.0</ele><time>2026-04-19T15:33:49Z</time></trkpt><trkpt lat="38.00545351512142" lon="14.346422273793664"><ele>53.666666666666664</ele><time>2026-04-19T15:33:50Z</time></trkpt><trkpt lat="38.00559817551906" lon="14.34640814071452"><ele>58.33333333333333</ele><time>2026-04-19T15:33:51Z</time></trkpt><trkpt lat="38.00576049940762" lon="14.346399997602141"><ele>63.0</ele><time>2026-04-19T15:33:52Z</time></trkpt><trkpt lat="38.00594247034637" lon="14.346398828122194"><ele>63.0</ele><time>2026-04-19T15:33:53Z</time></trkpt><trkpt lat="38.006115462417874" lon="14.346419381303644"><ele>63.0</ele><time>2026-04-19T15:33:54Z</time></trkpt><trkpt lat="38.00629105870101" lon="14.346488634528262"><ele>63.0</ele><time>2026-04-19T15:33:55Z</time></trkpt><trkpt lat="38.006480701582504" lon="14.346546477555831"><ele>63.0</ele><time>2026-04-19T15:33:56Z</time></trkpt><trkpt lat="38.00666051275939" lon="14.346613881315179"><ele>63.0</ele><time>2026-04-19T15:33:57Z</time></trkpt><trkpt lat="38.00686212141616" lon="14.34663511382015"><ele>63.0</ele><time>2026-04-19T15:33:58Z</time></trkpt><trkpt lat="38.00708447989759" lon="14.346643534749465"><ele>60.0</ele><time>2026-04-19T15:33:59Z</time></trkpt><trkpt lat="38.00732368527064" lon="14.346648647542247"><ele>57.0</ele><time>2026-04-19T15:34:00Z</time></trkpt><trkpt lat="38.00756723260232" lon="14.346662041794799"><ele>55.0</ele><time>2026-04-19T15:34:01Z</time></trkpt><trkpt lat="38.0078120459667" lon="14.34667251719465"><ele>53.0</ele><time>2026-04-19T15:34:02Z</time></trkpt><trkpt lat="38.00806764002682" lon="14.346686631847392"><ele>55.0</ele><time>2026-04-19T15:34:03Z</time></trkpt><trkpt lat="38.008332013891746" lon="14.346701928752672"><ele>57.0</ele><time>2026-04-19T15:34:04Z</time></trkpt><trkpt lat="38.008590400681555" lon="14.346729157741066"><ele>57.0</ele><time>2026-04-19T15:34:05Z</time></trkpt><trkpt lat="38.008826198541236" lon="14.346748898619907"><ele>57.0</ele><time>2026-04-19T15:34:06Z</time></trkpt><trkpt lat="38.00904562326519" lon="14.346752592669201"><ele>57.0</ele><time>2026-04-19T15:34:07Z</time></trkpt><trkpt lat="38.00925117526306" lon="14.346736861873904"><ele>57.0</ele><time>2026-04-19T15:34:08Z</time></trkpt><trkpt lat="38.009440729110416" lon="14.346717963987636"><ele>57.0</ele><time>2026-04-19T15:34:09Z</time></trkpt><trkpt lat="38.00961335197133" lon="14.346694123684772"><ele>57.0</ele><time>2026-04-19T15:34:10Z</time></trkpt><trkpt lat="38.009781194319004" lon="14.34668744226732"><ele>57.0</ele><time>2026-04-19T15:34:11Z</time></trkpt><trkpt lat="38.009935921512174" lon="14.346695217742639"><ele>57.0</ele><time>2026-04-19T15:34:12Z</time></trkpt><trkpt lat="38.01008111345371" lon="14.34671237606125"><ele>57.25</ele><time>2026-04-19T15:34:13Z</time></trkpt><trkpt lat="38.01020420619112" lon="14.346749683354231"><ele>57.5</ele><time>2026-04-19T15:34:14Z</time></trkpt><trkpt lat="38.01031943743086" lon="14.34679764708533"><ele>57.75</ele><time>2026-04-19T15:34:15Z</time></trkpt><trkpt lat="38.01043312539455" lon="14.346850084907743"><ele>58.0</ele><time>2026-04-19T15:34:16Z</time></trkpt><trkpt lat="38.01055478465919" lon="14.346909155529438"><ele>58.0</ele><time>2026-04-19T15:34:17Z</time></trkpt><trkpt lat="38.010675515839786" lon="14.34699838797722"><ele>58.0</ele><time>2026-04-19T15:34:18Z</time></trkpt><trkpt lat="38.0108004808049" lon="14.347081127281067"><ele>58.0</ele><time>2026-04-19T15:34:19Z</time></trkpt><trkpt lat="38.01092359149284" lon="14.347150825046407"><ele>58.0</ele><time>2026-04-19T15:34:20Z</time></trkpt><trkpt lat="38.01104805716323" lon="14.347185437092497"><ele>58.5</ele><time>2026-04-19T15:34:21Z</time></trkpt><trkpt lat="38.01118047163196" lon="14.347185027534001"><ele>59.0</ele><time>2026-04-19T15:34:22Z</time></trkpt><trkpt lat="38.01131299246605" lon="14.347171519269553"><ele>59.5</ele><time>2026-04-19T15:34:23Z</time></trkpt><trkpt lat="38.01144536629162" lon="14.34717209053501"><ele>60.0</ele><time>2026-04-19T15:34:24Z</time></trkpt><trkpt lat="38.01158610598261" lon="14.347157488996933"><ele>59.75</ele><time>2026-04-19T15:34:25Z</time></trkpt><trkpt lat="38.01172607121598" lon="14.347119736490571"><ele>59.5</ele><time>2026-04-19T15:34:26Z</time></trkpt><trkpt lat="38.01186186557237" lon="14.34704297224974"><ele>59.25</ele><time>2026-04-19T15:34:27Z</time></trkpt><trkpt lat="38.012001375658244" lon="14.34696877718156"><ele>59.0</ele><time>2026-04-19T15:34:28.001Z</time></trkpt><trkpt lat="38.01213540348989" lon="14.346920838799681"><ele>59.0</ele><time>2026-04-19T15:34:29.001Z</time></trkpt><trkpt lat="38.01225669171669" lon="14.346944705036973"><ele>59.0</ele><time>2026-04-19T15:34:30.001Z</time></trkpt><trkpt lat="38.01236886159683" lon="14.346988033358812"><ele>59.0</ele><time>2026-04-19T15:34:31.001Z</time></trkpt><trkpt lat="38.01249349912473" lon="14.347021659030853"><ele>59.0</ele><time>2026-04-19T15:34:32.001Z</time></trkpt><trkpt lat="38.0126225415229" lon="14.347081283921783"><ele>60.0</ele><time>2026-04-19T15:34:33.001Z</time></trkpt><trkpt lat="38.01275858858505" lon="14.34715189839385"><ele>61.0</ele><time>2026-04-19T15:34:34.001Z</time></trkpt><trkpt lat="38.01289193367429" lon="14.347251282227056"><ele>62.0</ele><time>2026-04-19T15:34:35.001Z</time></trkpt><trkpt lat="38.013024822626974" lon="14.347369534355986"><ele>67.66666666666667</ele><time>2026-04-19T15:34:36.001Z</time></trkpt><trkpt lat="38.01316477730674" lon="14.347489191399523"><ele>73.33333333333333</ele><time>2026-04-19T15:34:37.001Z</time></trkpt><trkpt lat="38.01331417580965" lon="14.347592754102985"><ele>79.0</ele><time>2026-04-19T15:34:38.001Z</time></trkpt><trkpt lat="38.01346866508652" lon="14.347675669160859"><ele>79.0</ele><time>2026-04-19T15:34:39.001Z</time></trkpt><trkpt lat="38.01360929412023" lon="14.34774327801365"><ele>79.0</ele><time>2026-04-19T15:34:40.001Z</time></trkpt><trkpt lat="38.01373568366981" lon="14.34780481188452"><ele>79.0</ele><time>2026-04-19T15:34:41.001Z</time></trkpt><trkpt lat="38.01384239946504" lon="14.34785921165015"><ele>79.0</ele><time>2026-04-19T15:34:42.001Z</time></trkpt><trkpt lat="38.013924456119106" lon="14.347914702716132"><ele>79.0</ele><time>2026-04-19T15:34:43.001Z</time></trkpt><trkpt lat="38.01397450619195" lon="14.347981335857794"><ele>79.0</ele><time>2026-04-19T15:34:44.001Z</time></trkpt><trkpt lat="38.01400971082482" lon="14.348116628327004"><ele>79.0</ele><time>2026-04-19T15:34:46.001Z</time></trkpt><trkpt lat="38.01401168178407" lon="14.348255749550193"><ele>79.0</ele><time>2026-04-19T15:34:48.001Z</time></trkpt><trkpt lat="38.01401317240218" lon="14.348383459330167"><ele>79.0</ele><time>2026-04-19T15:34:50.001Z</time></trkpt><trkpt lat="38.01401437590675" lon="14.3484690861094"><ele>80.2</ele><time>2026-04-19T15:34:53.001Z</time></trkpt><trkpt lat="38.014091058645405" lon="14.34851131393313"><ele>81.4</ele><time>2026-04-19T15:35:18.999Z</time></trkpt><trkpt lat="38.01406426894422" lon="14.348292360971545"><ele>82.6</ele><time>2026-04-19T15:35:19.999Z</time></trkpt><trkpt lat="38.01405889285122" lon="14.348177026420226"><ele>83.8</ele><time>2026-04-19T15:35:21.999Z</time></trkpt><trkpt lat="38.0140641416555" lon="14.34809586952181"><ele>85.0</ele><time>2026-04-19T15:35:31Z</time></trkpt><trkpt lat="38.01421626769196" lon="14.348048467186409"><ele>81.25</ele><time>2026-04-19T15:35:33Z</time></trkpt><trkpt lat="38.014312871271336" lon="14.348034878108036"><ele>77.5</ele><time>2026-04-19T15:35:34Z</time></trkpt><trkpt lat="38.01441962329454" lon="14.347995070501637"><ele>73.75</ele><time>2026-04-19T15:35:35Z</time></trkpt><trkpt lat="38.0145475285854" lon="14.347958273437555"><ele>70.0</ele><time>2026-04-19T15:35:36Z</time></trkpt><trkpt lat="38.01467024468066" lon="14.347931382082312"><ele>70.0</ele><time>2026-04-19T15:35:37Z</time></trkpt><trkpt lat="38.01477631570632" lon="14.347901972549524"><ele>70.0</ele><time>2026-04-19T15:35:38Z</time></trkpt><trkpt lat="38.01488179054501" lon="14.34787425763221"><ele>70.0</ele><time>2026-04-19T15:35:39Z</time></trkpt><trkpt lat="38.01498251093288" lon="14.34785574688718"><ele>70.0</ele><time>2026-04-19T15:35:40Z</time></trkpt><trkpt lat="38.01507625310174" lon="14.34782981354784"><ele>70.0</ele><time>2026-04-19T15:35:41Z</time></trkpt><trkpt lat="38.015157196831105" lon="14.347808402944489"><ele>70.0</ele><time>2026-04-19T15:35:42Z</time></trkpt><trkpt lat="38.01524109942893" lon="14.347769309445319"><ele>70.0</ele><time>2026-04-19T15:35:44Z</time></trkpt><trkpt lat="38.01519181509368" lon="14.347687142533005"><ele>70.0</ele><time>2026-04-19T15:35:47Z</time></trkpt><trkpt lat="38.01510751469313" lon="14.347707644113905"><ele>70.0</ele><time>2026-04-19T15:35:49Z</time></trkpt><trkpt lat="38.01502835352286" lon="14.347745848066962"><ele>70.0</ele><time>2026-04-19T15:35:50Z</time></trkpt><trkpt lat="38.01492807027473" lon="14.347783359140617"><ele>70.0</ele><time>2026-04-19T15:35:51Z</time></trkpt><trkpt lat="38.014812414111056" lon="14.34780779752435"><ele>70.0</ele><time>2026-04-19T15:35:52Z</time></trkpt><trkpt lat="38.014689840768185" lon="14.347839650131025"><ele>70.0</ele><time>2026-04-19T15:35:53Z</time></trkpt><trkpt lat="38.01457654247773" lon="14.347862781234298"><ele>70.0</ele><time>2026-04-19T15:35:54Z</time></trkpt><trkpt lat="38.01447027418364" lon="14.34786409255477"><ele>70.0</ele><time>2026-04-19T15:35:55Z</time></trkpt><trkpt lat="38.014368764834735" lon="14.347832445400774"><ele>70.0</ele><time>2026-04-19T15:35:56Z</time></trkpt><trkpt lat="38.01427208950715" lon="14.347778090573852"><ele>70.0</ele><time>2026-04-19T15:35:57Z</time></trkpt><trkpt lat="38.014183794932855" lon="14.347712274241474"><ele>70.0</ele><time>2026-04-19T15:35:58Z</time></trkpt><trkpt lat="38.014105010892415" lon="14.347650990667452"><ele>70.0</ele><time>2026-04-19T15:35:59Z</time></trkpt><trkpt lat="38.01402228915947" lon="14.34759994851243"><ele>70.0</ele><time>2026-04-19T15:36:00Z</time></trkpt><trkpt lat="38.01393824302827" lon="14.347558800050638"><ele>71.5</ele><time>2026-04-19T15:36:01Z</time></trkpt><trkpt lat="38.01385579507093" lon="14.347531437405832"><ele>73.0</ele><time>2026-04-19T15:36:02Z</time></trkpt><trkpt lat="38.013769581895396" lon="14.347502537610811"><ele>74.5</ele><time>2026-04-19T15:36:03Z</time></trkpt><trkpt lat="38.01368881148692" lon="14.347465117537801"><ele>76.0</ele><time>2026-04-19T15:36:04Z</time></trkpt><trkpt lat="38.01360382135471" lon="14.347441600505494"><ele>77.5</ele><time>2026-04-19T15:36:05Z</time></trkpt><trkpt lat="38.0135215399606" lon="14.347418531513272"><ele>79.0</ele><time>2026-04-19T15:36:06Z</time></trkpt><trkpt lat="38.01345330222728" lon="14.347398747825965"><ele>79.0</ele><time>2026-04-19T15:36:07Z</time></trkpt><trkpt lat="38.01336594493407" lon="14.347364316458808"><ele>79.0</ele><time>2026-04-19T15:36:09Z</time></trkpt><trkpt lat="38.0132873255783" lon="14.34738685736593"><ele>79.0</ele><time>2026-04-19T15:41:35Z</time></trkpt><trkpt lat="38.01322214933364" lon="14.34730828253474"><ele>79.0</ele><time>2026-04-19T15:41:38Z</time></trkpt><trkpt lat="38.01320989263169" lon="14.347225266266"><ele>79.0</ele><time>2026-04-19T15:41:41Z</time></trkpt><trkpt lat="38.013155659195235" lon="14.347166991654618"><ele>79.0</ele><time>2026-04-19T15:41:43.001Z</time></trkpt><trkpt lat="38.013072257733" lon="14.347099311154684"><ele>76.16666666666666</ele><time>2026-04-19T15:41:45.001Z</time></trkpt><trkpt lat="38.01302018495359" lon="14.34704928343719"><ele>73.33333333333333</ele><time>2026-04-19T15:41:46.001Z</time></trkpt><trkpt lat="38.01296890950189" lon="14.347002610437938"><ele>70.5</ele><time>2026-04-19T15:41:47.001Z</time></trkpt><trkpt lat="38.012913210493785" lon="14.346961107116643"><ele>67.66666666666667</ele><time>2026-04-19T15:41:48.001Z</time></trkpt><trkpt lat="38.012853070777936" lon="14.346925394428931"><ele>64.83333333333334</ele><time>2026-04-19T15:41:49.001Z</time></trkpt><trkpt lat="38.01273480784434" lon="14.346855442468769"><ele>62.0</ele><time>2026-04-19T15:41:51.001Z</time></trkpt><trkpt lat="38.012652713205384" lon="14.346812069467372"><ele>62.0</ele><time>2026-04-19T15:41:52.001Z</time></trkpt><trkpt lat="38.01256244917663" lon="14.346763404760319"><ele>62.0</ele><time>2026-04-19T15:41:53.001Z</time></trkpt><trkpt lat="38.01245694821404" lon="14.34671536534473"><ele>62.0</ele><time>2026-04-19T15:41:54.001Z</time></trkpt><trkpt lat="38.0123457311085" lon="14.346680148642532"><ele>62.0</ele><time>2026-04-19T15:41:55.001Z</time></trkpt><trkpt lat="38.012223600142185" lon="14.346667387109164"><ele>62.0</ele><time>2026-04-19T15:41:56.001Z</time></trkpt><trkpt lat="38.012099417963796" lon="14.346678841967291"><ele>61.25</ele><time>2026-04-19T15:41:57.001Z</time></trkpt><trkpt lat="38.011983488108235" lon="14.346717229441143"><ele>60.5</ele><time>2026-04-19T15:41:58.001Z</time></trkpt><trkpt lat="38.01187256339755" lon="14.346769407941308"><ele>59.75</ele><time>2026-04-19T15:41:59.001Z</time></trkpt><trkpt lat="38.011766151186215" lon="14.34681726253635"><ele>59.0</ele><time>2026-04-19T15:42:00.001Z</time></trkpt><trkpt lat="38.01166121186732" lon="14.346851804743629"><ele>59.2</ele><time>2026-04-19T15:42:01.001Z</time></trkpt><trkpt lat="38.01155571552017" lon="14.346875294864395"><ele>59.400000000000006</ele><time>2026-04-19T15:42:02.001Z</time></trkpt><trkpt lat="38.01145087011781" lon="14.346875696692537"><ele>59.6</ele><time>2026-04-19T15:42:03.001Z</time></trkpt><trkpt lat="38.01134679689704" lon="14.346874657931565"><ele>59.8</ele><time>2026-04-19T15:42:04.001Z</time></trkpt><trkpt lat="38.011229783785005" lon="14.34688102353376"><ele>60.0</ele><time>2026-04-19T15:42:05.001Z</time></trkpt><trkpt lat="38.01110729007657" lon="14.346863514579788"><ele>60.0</ele><time>2026-04-19T15:42:06.001Z</time></trkpt><trkpt lat="38.010983391136776" lon="14.34684353273012"><ele>60.0</ele><time>2026-04-19T15:42:07.001Z</time></trkpt><trkpt lat="38.01087352201968" lon="14.346823006256809"><ele>60.0</ele><time>2026-04-19T15:42:08.001Z</time></trkpt><trkpt lat="38.01077033353052" lon="14.34678296201983"><ele>60.0</ele><time>2026-04-19T15:42:09.001Z</time></trkpt><trkpt lat="38.010679725519964" lon="14.346740358786773"><ele>60.0</ele><time>2026-04-19T15:42:10.001Z</time></trkpt><trkpt lat="38.010586960870995" lon="14.34670871983136"><ele>59.6</ele><time>2026-04-19T15:42:11.001Z</time></trkpt><trkpt lat="38.010495409368424" lon="14.346689162302527"><ele>59.2</ele><time>2026-04-19T15:42:12.001Z</time></trkpt><trkpt lat="38.01040106459115" lon="14.346682664649508"><ele>58.8</ele><time>2026-04-19T15:42:13.001Z</time></trkpt><trkpt lat="38.01030222598849" lon="14.346686013574507"><ele>58.4</ele><time>2026-04-19T15:42:14.001Z</time></trkpt><trkpt lat="38.01020843339997" lon="14.34671168823488"><ele>58.0</ele><time>2026-04-19T15:42:15.001Z</time></trkpt><trkpt lat="38.010095049857625" lon="14.3466677045771"><ele>57.75</ele><time>2026-04-19T15:42:16.001Z</time></trkpt><trkpt lat="38.00997699416181" lon="14.346653893114905"><ele>57.5</ele><time>2026-04-19T15:42:17.001Z</time></trkpt><trkpt lat="38.0098498792846" lon="14.34664928959551"><ele>57.25</ele><time>2026-04-19T15:42:18.001Z</time></trkpt><trkpt lat="38.00970949551249" lon="14.346645945620986"><ele>57.0</ele><time>2026-04-19T15:42:19.001Z</time></trkpt><trkpt lat="38.00955476716263" lon="14.346646369924395"><ele>57.0</ele><time>2026-04-19T15:42:20.001Z</time></trkpt><trkpt lat="38.00938821719514" lon="14.34665731126717"><ele>57.0</ele><time>2026-04-19T15:42:21.001Z</time></trkpt><trkpt lat="38.00921432061117" lon="14.346680365178761"><ele>57.0</ele><time>2026-04-19T15:42:22.001Z</time></trkpt><trkpt lat="38.00903709575556" lon="14.346706890045914"><ele>57.0</ele><time>2026-04-19T15:42:23.001Z</time></trkpt><trkpt lat="38.00883615096467" lon="14.346717061085023"><ele>57.0</ele><time>2026-04-19T15:42:24.001Z</time></trkpt><trkpt lat="38.00861944838177" lon="14.346705934355734"><ele>57.0</ele><time>2026-04-19T15:42:25.001Z</time></trkpt><trkpt lat="38.00839957938808" lon="14.34668507777149"><ele>55.0</ele><time>2026-04-19T15:42:26.001Z</time></trkpt><trkpt lat="38.00816338106057" lon="14.346667522163537"><ele>53.0</ele><time>2026-04-19T15:42:27.001Z</time></trkpt><trkpt lat="38.00792998440175" lon="14.346649306378808"><ele>53.0</ele><time>2026-04-19T15:42:28.001Z</time></trkpt><trkpt lat="38.00771692729907" lon="14.346635327294457"><ele>53.0</ele><time>2026-04-19T15:42:29.001Z</time></trkpt><trkpt lat="38.007512235821466" lon="14.346625676191156"><ele>53.0</ele><time>2026-04-19T15:42:30.001Z</time></trkpt><trkpt lat="38.00731620807439" lon="14.346618632990593"><ele>54.333333333333336</ele><time>2026-04-19T15:42:31.001Z</time></trkpt><trkpt lat="38.00713033878326" lon="14.346615738442011"><ele>55.66666666666667</ele><time>2026-04-19T15:42:32.001Z</time></trkpt><trkpt lat="38.00695027838036" lon="14.346603956742632"><ele>57.0</ele><time>2026-04-19T15:42:33.001Z</time></trkpt><trkpt lat="38.00677847223653" lon="14.34658978311428"><ele>59.0</ele><time>2026-04-19T15:42:34.001Z</time></trkpt><trkpt lat="38.00661789050061" lon="14.346563306700565"><ele>61.0</ele><time>2026-04-19T15:42:35.001Z</time></trkpt><trkpt lat="38.00646419379236" lon="14.346520991702322"><ele>63.0</ele><time>2026-04-19T15:42:36.001Z</time></trkpt><trkpt lat="38.0063233552192" lon="14.346466960899498"><ele>63.0</ele><time>2026-04-19T15:42:37.001Z</time></trkpt><trkpt lat="38.00617501679632" lon="14.346407541162685"><ele>63.0</ele><time>2026-04-19T15:42:38.001Z</time></trkpt><trkpt lat="38.00602629719342" lon="14.346361584666862"><ele>63.0</ele><time>2026-04-19T15:42:39.001Z</time></trkpt><trkpt lat="38.00587662587532" lon="14.346347213832104"><ele>59.5</ele><time>2026-04-19T15:42:40.002Z</time></trkpt><trkpt lat="38.00573498420387" lon="14.346350418483956"><ele>56.0</ele><time>2026-04-19T15:42:41.002Z</time></trkpt><trkpt lat="38.005599571602566" lon="14.346334071061117"><ele>52.5</ele><time>2026-04-19T15:42:42.002Z</time></trkpt><trkpt lat="38.00547151824444" lon="14.346325437926854"><ele>49.0</ele><time>2026-04-19T15:42:43.002Z</time></trkpt><trkpt lat="38.005352744339206" lon="14.346298201313147"><ele>49.0</ele><time>2026-04-19T15:42:44.002Z</time></trkpt><trkpt lat="38.00524516478689" lon="14.346248114163686"><ele>49.0</ele><time>2026-04-19T15:42:45.002Z</time></trkpt><trkpt lat="38.00516257259874" lon="14.346143943730205"><ele>49.0</ele><time>2026-04-19T15:42:46.002Z</time></trkpt><trkpt lat="38.005108685274145" lon="14.346007586720189"><ele>49.0</ele><time>2026-04-19T15:42:47.002Z</time></trkpt><trkpt lat="38.00507742387226" lon="14.345855775483308"><ele>49.0</ele><time>2026-04-19T15:42:48.002Z</time></trkpt><trkpt lat="38.005045829945495" lon="14.34569149920029"><ele>49.0</ele><time>2026-04-19T15:42:49.002Z</time></trkpt><trkpt lat="38.00500396999352" lon="14.345515881579892"><ele>49.0</ele><time>2026-04-19T15:42:50.002Z</time></trkpt><trkpt lat="38.004952110974834" lon="14.345327326851331"><ele>49.0</ele><time>2026-04-19T15:42:51.002Z</time></trkpt><trkpt lat="38.0048958799726" lon="14.345129654915494"><ele>50.25</ele><time>2026-04-19T15:42:52.002Z</time></trkpt><trkpt lat="38.00484511142222" lon="14.344939818313259"><ele>51.5</ele><time>2026-04-19T15:42:53.002Z</time></trkpt><trkpt lat="38.004801661827045" lon="14.344767818052956"><ele>52.75</ele><time>2026-04-19T15:42:54.002Z</time></trkpt><trkpt lat="38.00476272404588" lon="14.34460413597875"><ele>54.0</ele><time>2026-04-19T15:42:55.002Z</time></trkpt><trkpt lat="38.00473515803033" lon="14.344451244255769"><ele>54.2</ele><time>2026-04-19T15:42:56.002Z</time></trkpt><trkpt lat="38.004731396331" lon="14.344313867280528"><ele>54.400000000000006</ele><time>2026-04-19T15:42:57.002Z</time></trkpt><trkpt lat="38.00475010609484" lon="14.344181592448011"><ele>54.6</ele><time>2026-04-19T15:42:58.002Z</time></trkpt><trkpt lat="38.00478603889528" lon="14.34405639449875"><ele>54.8</ele><time>2026-04-19T15:42:59.002Z</time></trkpt><trkpt lat="38.00481715699655" lon="14.343940696328994"><ele>55.0</ele><time>2026-04-19T15:43:00.002Z</time></trkpt><trkpt lat="38.00482376108741" lon="14.34381684694092"><ele>56.2</ele><time>2026-04-19T15:43:01.002Z</time></trkpt><trkpt lat="38.00480754813573" lon="14.343690448212849"><ele>57.4</ele><time>2026-04-19T15:43:02.002Z</time></trkpt><trkpt lat="38.004771895191276" lon="14.343566288041492"><ele>58.599999999999994</ele><time>2026-04-19T15:43:03.002Z</time></trkpt><trkpt lat="38.00471586222487" lon="14.34345066342052"><ele>59.8</ele><time>2026-04-19T15:43:04.002Z</time></trkpt><trkpt lat="38.00463866299134" lon="14.343364395475241"><ele>61.0</ele><time>2026-04-19T15:43:05.002Z</time></trkpt><trkpt lat="38.00455361733759" lon="14.343300828800258"><ele>60.99999999999999</ele><time>2026-04-19T15:43:06.002Z</time></trkpt><trkpt lat="38.00447224087868" lon="14.34326220859402"><ele>61.0</ele><time>2026-04-19T15:43:07.002Z</time></trkpt><trkpt lat="38.004394784007225" lon="14.343231890298389"><ele>61.0</ele><time>2026-04-19T15:43:08.002Z</time></trkpt><trkpt lat="38.00433797912962" lon="14.343197161981967"><ele>61.0</ele><time>2026-04-19T15:43:09.002Z</time></trkpt><trkpt lat="38.00426557652052" lon="14.343259775208663"><ele>60.99999999999999</ele><time>2026-04-19T15:51:34.002Z</time></trkpt><trkpt lat="38.00419177751121" lon="14.343280531946457"><ele>61.0</ele><time>2026-04-19T15:51:37.002Z</time></trkpt><trkpt lat="38.0041286541997" lon="14.343319607350868"><ele>60.83333333333333</ele><time>2026-04-19T15:51:40.002Z</time></trkpt><trkpt lat="38.004055549327354" lon="14.343390125994604"><ele>60.666666666666664</ele><time>2026-04-19T15:51:43.002Z</time></trkpt><trkpt lat="38.004007957532906" lon="14.343474077092512"><ele>60.5</ele><time>2026-04-19T15:51:45.002Z</time></trkpt><trkpt lat="38.003970720270175" lon="14.343566340211453"><ele>60.33333333333333</ele><time>2026-04-19T15:51:47.001Z</time></trkpt><trkpt lat="38.003945335559756" lon="14.343664421307013"><ele>60.166666666666664</ele><time>2026-04-19T15:51:49.001Z</time></trkpt><trkpt lat="38.00394191636797" lon="14.343766040163146"><ele>60.0</ele><time>2026-04-19T15:51:51.001Z</time></trkpt><trkpt lat="38.00396765858527" lon="14.34387135677002"><ele>59.166666666666664</ele><time>2026-04-19T15:51:53.001Z</time></trkpt><trkpt lat="38.0040457814882" lon="14.343979308762425"><ele>58.33333333333333</ele><time>2026-04-19T15:51:55.001Z</time></trkpt><trkpt lat="38.004096271054856" lon="14.34403134790358"><ele>57.5</ele><time>2026-04-19T15:51:56.001Z</time></trkpt><trkpt lat="38.00414997186354" lon="14.344088948465478"><ele>56.666666666666664</ele><time>2026-04-19T15:51:57.001Z</time></trkpt><trkpt lat="38.00420683984617" lon="14.344135146021559"><ele>55.83333333333333</ele><time>2026-04-19T15:51:58.001Z</time></trkpt><trkpt lat="38.00427373502171" lon="14.344164537458877"><ele>55.0</ele><time>2026-04-19T15:51:59.001Z</time></trkpt><trkpt lat="38.004346032466835" lon="14.34417246531874"><ele>54.99999999999999</ele><time>2026-04-19T15:52:00.001Z</time></trkpt><trkpt lat="38.00442494365593" lon="14.344153151093371"><ele>55.0</ele><time>2026-04-19T15:52:01.001Z</time></trkpt><trkpt lat="38.00450327777188" lon="14.344116383770354"><ele>55.0</ele><time>2026-04-19T15:52:02.001Z</time></trkpt><trkpt lat="38.00457106260315" lon="14.344060012295587"><ele>55.0</ele><time>2026-04-19T15:52:03.001Z</time></trkpt><trkpt lat="38.00462131051412" lon="14.343985582981842"><ele>54.99999999999999</ele><time>2026-04-19T15:52:04.001Z</time></trkpt><trkpt lat="38.004656892100904" lon="14.343900324561101"><ele>55.0</ele><time>2026-04-19T15:52:05.001Z</time></trkpt><trkpt lat="38.0046758295386" lon="14.343804602486921"><ele>55.99999999999999</ele><time>2026-04-19T15:52:06.001Z</time></trkpt><trkpt lat="38.004677821134486" lon="14.343703272355873"><ele>57.0</ele><time>2026-04-19T15:52:07.001Z</time></trkpt><trkpt lat="38.00466708041775" lon="14.343599712956925"><ele>58.0</ele><time>2026-04-19T15:52:08.001Z</time></trkpt><trkpt lat="38.004642593920906" lon="14.34349450740544"><ele>59.0</ele><time>2026-04-19T15:52:09.001Z</time></trkpt><trkpt lat="38.00462166044217" lon="14.34338943779268"><ele>59.99999999999999</ele><time>2026-04-19T15:52:10.001Z</time></trkpt><trkpt lat="38.00462193924804" lon="14.343280069593408"><ele>61.0</ele><time>2026-04-19T15:52:11.001Z</time></trkpt><trkpt lat="38.0046423861611" lon="14.343175943966116"><ele>61.0</ele><time>2026-04-19T15:52:12.001Z</time></trkpt><trkpt lat="38.004685133158496" lon="14.343078311995386"><ele>60.99999999999999</ele><time>2026-04-19T15:52:13.001Z</time></trkpt><trkpt lat="38.004753235647314" lon="14.34299282058569"><ele>60.99999999999999</ele><time>2026-04-19T15:52:14.001Z</time></trkpt><trkpt lat="38.00484478399832" lon="14.342914893257632"><ele>61.0</ele><time>2026-04-19T15:52:15.001Z</time></trkpt><trkpt lat="38.004958039600325" lon="14.342872405067792"><ele>61.0</ele><time>2026-04-19T15:52:16.001Z</time></trkpt><trkpt lat="38.0050547623479" lon="14.342815581595298"><ele>61.75</ele><time>2026-04-19T15:52:17.001Z</time></trkpt><trkpt lat="38.00515208369692" lon="14.34274449048772"><ele>62.5</ele><time>2026-04-19T15:52:18.001Z</time></trkpt><trkpt lat="38.005267772841435" lon="14.342668377158146"><ele>63.25</ele><time>2026-04-19T15:52:19.001Z</time></trkpt><trkpt lat="38.00537822228315" lon="14.342599812583241"><ele>64.0</ele><time>2026-04-19T15:52:20.001Z</time></trkpt><trkpt lat="38.00549067371935" lon="14.342532158615862"><ele>64.0</ele><time>2026-04-19T15:52:21.001Z</time></trkpt><trkpt lat="38.00560003821483" lon="14.342463320795865"><ele>64.0</ele><time>2026-04-19T15:52:22.001Z</time></trkpt><trkpt lat="38.00570620714447" lon="14.342398081977482"><ele>64.0</ele><time>2026-04-19T15:52:23.001Z</time></trkpt><trkpt lat="38.0058097373501" lon="14.34233316484935"><ele>64.0</ele><time>2026-04-19T15:52:24.001Z</time></trkpt><trkpt lat="38.005908687627304" lon="14.34226494136639"><ele>66.0</ele><time>2026-04-19T15:52:25.001Z</time></trkpt><trkpt lat="38.00600766243897" lon="14.342189752461737"><ele>68.0</ele><time>2026-04-19T15:52:26.001Z</time></trkpt><trkpt lat="38.00610483713654" lon="14.34211008111782"><ele>70.0</ele><time>2026-04-19T15:52:27.001Z</time></trkpt><trkpt lat="38.006200961163124" lon="14.342022702426823"><ele>72.0</ele><time>2026-04-19T15:52:28.001Z</time></trkpt><trkpt lat="38.00629648972813" lon="14.341931456838747"><ele>72.0</ele><time>2026-04-19T15:52:29.001Z</time></trkpt><trkpt lat="38.006394474099466" lon="14.341842440184806"><ele>72.0</ele><time>2026-04-19T15:52:30.001Z</time></trkpt><trkpt lat="38.006491426860514" lon="14.341748864998236"><ele>72.0</ele><time>2026-04-19T15:52:31.001Z</time></trkpt><trkpt lat="38.00658905699258" lon="14.341656233949161"><ele>72.0</ele><time>2026-04-19T15:52:32.001Z</time></trkpt><trkpt lat="38.00668956600422" lon="14.341567099431074"><ele>71.5</ele><time>2026-04-19T15:52:33.001Z</time></trkpt><trkpt lat="38.006794242803124" lon="14.341486634369119"><ele>71.0</ele><time>2026-04-19T15:52:34.001Z</time></trkpt><trkpt lat="38.00690330224616" lon="14.341412395338162"><ele>70.5</ele><time>2026-04-19T15:52:35.001Z</time></trkpt><trkpt lat="38.00701983782329" lon="14.341347523069981"><ele>70.0</ele><time>2026-04-19T15:52:36.001Z</time></trkpt><trkpt lat="38.00713978640501" lon="14.341289155350093"><ele>70.0</ele><time>2026-04-19T15:52:37.001Z</time></trkpt><trkpt lat="38.00726066609598" lon="14.341228794794475"><ele>70.0</ele><time>2026-04-19T15:52:38.001Z</time></trkpt><trkpt lat="38.007382916923184" lon="14.341167823009542"><ele>70.0</ele><time>2026-04-19T15:52:39.001Z</time></trkpt><trkpt lat="38.00750302348435" lon="14.34110522103555"><ele>70.0</ele><time>2026-04-19T15:52:40.001Z</time></trkpt><trkpt lat="38.00762142882075" lon="14.341046188912554"><ele>68.75</ele><time>2026-04-19T15:52:41.001Z</time></trkpt><trkpt lat="38.007737483208736" lon="14.340988459173609"><ele>67.5</ele><time>2026-04-19T15:52:42.001Z</time></trkpt><trkpt lat="38.00784745605161" lon="14.34092375726426"><ele>66.25</ele><time>2026-04-19T15:52:43.001Z</time></trkpt><trkpt lat="38.00794997344467" lon="14.340841092614474"><ele>65.0</ele><time>2026-04-19T15:52:44.001Z</time></trkpt><trkpt lat="38.00804214181415" lon="14.340738615653962"><ele>65.0</ele><time>2026-04-19T15:52:45.001Z</time></trkpt><trkpt lat="38.00811777840111" lon="14.340615676261722"><ele>65.0</ele><time>2026-04-19T15:52:46.001Z</time></trkpt><trkpt lat="38.00818447812857" lon="14.340483533054432"><ele>65.0</ele><time>2026-04-19T15:52:47.001Z</time></trkpt><trkpt lat="38.00823570676843" lon="14.340341023345216"><ele>65.0</ele><time>2026-04-19T15:52:48.001Z</time></trkpt><trkpt lat="38.00828123750274" lon="14.340196588535495"><ele>65.75</ele><time>2026-04-19T15:52:49.001Z</time></trkpt><trkpt lat="38.00833386867046" lon="14.34005091859093"><ele>66.5</ele><time>2026-04-19T15:52:50.001Z</time></trkpt><trkpt lat="38.0083861276928" lon="14.339911531850937"><ele>67.25</ele><time>2026-04-19T15:52:51.001Z</time></trkpt><trkpt lat="38.008435034576365" lon="14.339772007875323"><ele>68.0</ele><time>2026-04-19T15:52:52.001Z</time></trkpt><trkpt lat="38.008485569737005" lon="14.339635196811292"><ele>71.75</ele><time>2026-04-19T15:52:53.001Z</time></trkpt><trkpt lat="38.008539943164195" lon="14.339506873923867"><ele>75.5</ele><time>2026-04-19T15:52:54.001Z</time></trkpt><trkpt lat="38.00860168684389" lon="14.339377749749799"><ele>79.25</ele><time>2026-04-19T15:52:55.001Z</time></trkpt><trkpt lat="38.008672593505175" lon="14.33925599327733"><ele>83.0</ele><time>2026-04-19T15:52:56.001Z</time></trkpt><trkpt lat="38.00875375459642" lon="14.339146326902794"><ele>83.0</ele><time>2026-04-19T15:52:57.001Z</time></trkpt><trkpt lat="38.00884277454705" lon="14.339035688032698"><ele>83.0</ele><time>2026-04-19T15:52:58.001Z</time></trkpt><trkpt lat="38.00893211955362" lon="14.338924547381513"><ele>83.0</ele><time>2026-04-19T15:52:59.001Z</time></trkpt><trkpt lat="38.009019515208" lon="14.33881109445788"><ele>83.0</ele><time>2026-04-19T15:53:00.001Z</time></trkpt><trkpt lat="38.00909996480297" lon="14.338684791755897"><ele>82.0</ele><time>2026-04-19T15:53:01.001Z</time></trkpt><trkpt lat="38.00917415457297" lon="14.338548973478668"><ele>81.0</ele><time>2026-04-19T15:53:02.001Z</time></trkpt><trkpt lat="38.00925457596863" lon="14.338398944323119"><ele>80.0</ele><time>2026-04-19T15:53:03.001Z</time></trkpt><trkpt lat="38.00932855313237" lon="14.338239548195988"><ele>79.0</ele><time>2026-04-19T15:53:04.001Z</time></trkpt><trkpt lat="38.00939882454722" lon="14.338071779849141"><ele>84.0</ele><time>2026-04-19T15:53:05.001Z</time></trkpt><trkpt lat="38.009484920921835" lon="14.337912363315954"><ele>89.0</ele><time>2026-04-19T15:53:06.001Z</time></trkpt><trkpt lat="38.009566430272145" lon="14.337748354235455"><ele>94.0</ele><time>2026-04-19T15:53:07.001Z</time></trkpt><trkpt lat="38.00965039954901" lon="14.337581164685655"><ele>94.0</ele><time>2026-04-19T15:53:08.001Z</time></trkpt><trkpt lat="38.009740122659316" lon="14.337402518808435"><ele>94.0</ele><time>2026-04-19T15:53:09.064Z</time></trkpt><trkpt lat="38.00982350899837" lon="14.337236489940803"><ele>94.0</ele><time>2026-04-19T15:53:10.062Z</time></trkpt><trkpt lat="38.00990448762667" lon="14.337074332192255"><ele>94.75</ele><time>2026-04-19T15:53:11.062Z</time></trkpt><trkpt lat="38.009979854250886" lon="14.336920456621671"><ele>95.5</ele><time>2026-04-19T15:53:12.002Z</time></trkpt><trkpt lat="38.01006197774882" lon="14.336831789558753"><ele>96.25</ele><time>2026-04-19T15:53:13.002Z</time></trkpt><trkpt lat="38.010112617011686" lon="14.336647294001022"><ele>97.0</ele><time>2026-04-19T15:53:14.002Z</time></trkpt><trkpt lat="38.010177429963456" lon="14.336507507123025"><ele>95.19999999999999</ele><time>2026-04-19T15:53:15.002Z</time></trkpt><trkpt lat="38.010208000193664" lon="14.336379752766433"><ele>93.4</ele><time>2026-04-19T15:53:16.002Z</time></trkpt><trkpt lat="38.01025316387049" lon="14.336274670552022"><ele>91.6</ele><time>2026-04-19T15:53:17.002Z</time></trkpt><trkpt lat="38.01029931296414" lon="14.336150450987711"><ele>89.80000000000001</ele><time>2026-04-19T15:53:18.002Z</time></trkpt><trkpt lat="38.010315039488106" lon="14.336024257811259"><ele>88.0</ele><time>2026-04-19T15:53:19.002Z</time></trkpt><trkpt lat="38.01032044064135" lon="14.335897695690022"><ele>88.0</ele><time>2026-04-19T15:53:20.002Z</time></trkpt><trkpt lat="38.01031953347376" lon="14.335775472767493"><ele>88.0</ele><time>2026-04-19T15:53:21.002Z</time></trkpt><trkpt lat="38.010319626845906" lon="14.33565170237184"><ele>88.0</ele><time>2026-04-19T15:53:22.002Z</time></trkpt><trkpt lat="38.0102933723116" lon="14.33553271450665"><ele>88.0</ele><time>2026-04-19T15:53:23.002Z</time></trkpt><trkpt lat="38.01025724986316" lon="14.335433542408529"><ele>88.0</ele><time>2026-04-19T15:53:24.002Z</time></trkpt><trkpt lat="38.0102025609526" lon="14.335343223887605"><ele>88.0</ele><time>2026-04-19T15:53:25.002Z</time></trkpt><trkpt lat="38.0101342607081" lon="14.33527031865673"><ele>88.0</ele><time>2026-04-19T15:53:26.002Z</time></trkpt><trkpt lat="38.01007428242636" lon="14.335204693540874"><ele>88.0</ele><time>2026-04-19T15:53:27.002Z</time></trkpt><trkpt lat="38.0100234192471" lon="14.335135761859416"><ele>88.0</ele><time>2026-04-19T15:53:28.002Z</time></trkpt><trkpt lat="38.00997262718045" lon="14.335080057964259"><ele>88.0</ele><time>2026-04-19T15:53:29.002Z</time></trkpt><trkpt lat="38.00991576195533" lon="14.335018479297135"><ele>88.0</ele><time>2026-04-19T15:53:31.002Z</time></trkpt><trkpt lat="38.00981452242701" lon="14.334912735866821"><ele>90.0</ele><time>2026-04-19T15:53:43.002Z</time></trkpt><trkpt lat="38.009732895426176" lon="14.334809362935534"><ele>92.0</ele><time>2026-04-19T15:53:45.002Z</time></trkpt><trkpt lat="38.009658714412424" lon="14.334697385917144"><ele>94.0</ele><time>2026-04-19T15:53:47.002Z</time></trkpt><trkpt lat="38.0095670811265" lon="14.334626964310207"><ele>96.0</ele><time>2026-04-19T15:53:49.002Z</time></trkpt><trkpt lat="38.00948257647346" lon="14.334570556398017"><ele>98.0</ele><time>2026-04-19T15:53:51.002Z</time></trkpt><trkpt lat="38.00941284830234" lon="14.3345286786865"><ele>98.80000000000001</ele><time>2026-04-19T15:53:54Z</time></trkpt><trkpt lat="38.009286600618985" lon="14.3344658830061"><ele>99.6</ele><time>2026-04-19T15:55:57.002Z</time></trkpt><trkpt lat="38.009223142956415" lon="14.334426483889636"><ele>100.4</ele><time>2026-04-19T15:55:58.001Z</time></trkpt><trkpt lat="38.00915307774495" lon="14.334404398264553"><ele>101.19999999999999</ele><time>2026-04-19T15:55:59.001Z</time></trkpt><trkpt lat="38.00907272402532" lon="14.334378394446311"><ele>102.0</ele><time>2026-04-19T15:56:00.001Z</time></trkpt><trkpt lat="38.00898236599382" lon="14.33434252139745"><ele>104.39999999999999</ele><time>2026-04-19T15:56:01.001Z</time></trkpt><trkpt lat="38.0088913781663" lon="14.33429939060831"><ele>106.8</ele><time>2026-04-19T15:56:02.001Z</time></trkpt><trkpt lat="38.00879238625516" lon="14.334252348303876"><ele>109.2</ele><time>2026-04-19T15:56:03.001Z</time></trkpt><trkpt lat="38.0086900355273" lon="14.33420552348917"><ele>111.6</ele><time>2026-04-19T15:56:04.001Z</time></trkpt><trkpt lat="38.008599043433954" lon="14.334136094588203"><ele>114.0</ele><time>2026-04-19T15:56:05.001Z</time></trkpt><trkpt lat="38.00849800834722" lon="14.334080559792898"><ele>114.0</ele><time>2026-04-19T15:56:06.001Z</time></trkpt><trkpt lat="38.008396551457274" lon="14.334024793149204"><ele>114.0</ele><time>2026-04-19T15:56:07.001Z</time></trkpt><trkpt lat="38.00829833809299" lon="14.33399221293706"><ele>114.0</ele><time>2026-04-19T15:56:08.001Z</time></trkpt><trkpt lat="38.0081301695566" lon="14.333866550199517"><ele>114.0</ele><time>2026-04-19T15:56:09.001Z</time></trkpt><trkpt lat="38.00799537401324" lon="14.333792491675828"><ele>165.0</ele><time>2026-04-19T15:56:10.065Z</time></trkpt><trkpt lat="38.00741609924095" lon="14.333423822352573"><ele>165.0</ele><time>2026-04-19T15:56:14.753Z</time></trkpt><trkpt lat="38.00729048046342" lon="14.33334712130275"><ele>165.0</ele><time>2026-04-19T15:56:15.753Z</time></trkpt><trkpt lat="38.00718820466221" lon="14.33322685407649"><ele>165.0</ele><time>2026-04-19T15:56:16.751Z</time></trkpt><trkpt lat="38.00706870165366" lon="14.333135148129806"><ele>165.0</ele><time>2026-04-19T15:56:17.754Z</time></trkpt><trkpt lat="38.00697352066294" lon="14.333006082629234"><ele>163.5</ele><time>2026-04-19T15:56:18.753Z</time></trkpt><trkpt lat="38.00686156788843" lon="14.33290122766723"><ele>162.0</ele><time>2026-04-19T15:56:19.754Z</time></trkpt><trkpt lat="38.00678036013291" lon="14.332757848678959"><ele>160.5</ele><time>2026-04-19T15:56:20.753Z</time></trkpt><trkpt lat="38.006691517533454" lon="14.332624098885173"><ele>159.0</ele><time>2026-04-19T15:56:21.753Z</time></trkpt><trkpt lat="38.00659482905009" lon="14.332496928760088"><ele>158.5</ele><time>2026-04-19T15:56:22.753Z</time></trkpt><trkpt lat="38.00651777365765" lon="14.33235080081182"><ele>158.0</ele><time>2026-04-19T15:56:23.753Z</time></trkpt><trkpt lat="38.006445716237316" lon="14.332200524185819"><ele>157.5</ele><time>2026-04-19T15:56:24.754Z</time></trkpt><trkpt lat="38.006398034651276" lon="14.332035137433033"><ele>157.0</ele><time>2026-04-19T15:56:25.754Z</time></trkpt><trkpt lat="38.00632743559434" lon="14.33188299239664"><ele>157.0</ele><time>2026-04-19T15:56:26.753Z</time></trkpt><trkpt lat="38.00629468992231" lon="14.331711573975502"><ele>157.0</ele><time>2026-04-19T15:56:27.754Z</time></trkpt><trkpt lat="38.006238177628425" lon="14.33155046920425"><ele>157.0</ele><time>2026-04-19T15:56:28.754Z</time></trkpt><trkpt lat="38.00621966576122" lon="14.331375839165249"><ele>157.0</ele><time>2026-04-19T15:56:29.754Z</time></trkpt><trkpt lat="38.00619225692758" lon="14.331204734800831"><ele>151.75</ele><time>2026-04-19T15:56:30.753Z</time></trkpt><trkpt lat="38.00617348434759" lon="14.3310320170654"><ele>146.5</ele><time>2026-04-19T15:56:31.752Z</time></trkpt><trkpt lat="38.00614601552707" lon="14.330859215269383"><ele>141.25</ele><time>2026-04-19T15:56:32.754Z</time></trkpt><trkpt lat="38.00614323439994" lon="14.330683622770371"><ele>136.0</ele><time>2026-04-19T15:56:33.754Z</time></trkpt><trkpt lat="38.00614606589607" lon="14.330508011123037"><ele>132.0</ele><time>2026-04-19T15:56:34.754Z</time></trkpt><trkpt lat="38.00617351988401" lon="14.330335230936274"><ele>128.0</ele><time>2026-04-19T15:56:35.754Z</time></trkpt><trkpt lat="38.0061718774689" lon="14.330159114251007"><ele>124.0</ele><time>2026-04-19T15:56:36.749Z</time></trkpt><trkpt lat="38.006188703619344" lon="14.329984479398734"><ele>120.0</ele><time>2026-04-19T15:56:37.751Z</time></trkpt><trkpt lat="38.00622588244496" lon="14.329814354303345"><ele>115.0</ele><time>2026-04-19T15:56:38.749Z</time></trkpt><trkpt lat="38.006328531784185" lon="14.329416357105005"><ele>110.0</ele><time>2026-04-19T15:56:42.001Z</time></trkpt><trkpt lat="38.00635448617787" lon="14.329253167164229"><ele>110.0</ele><time>2026-04-19T15:56:43.001Z</time></trkpt><trkpt lat="38.00633513679642" lon="14.329041776168133"><ele>110.0</ele><time>2026-04-19T15:56:44.001Z</time></trkpt><trkpt lat="38.00639400254661" lon="14.328879122898577"><ele>110.0</ele><time>2026-04-19T15:56:45.001Z</time></trkpt><trkpt lat="38.00642685237571" lon="14.32870904320537"><ele>110.0</ele><time>2026-04-19T15:56:46.001Z</time></trkpt><trkpt lat="38.006461268936846" lon="14.328532137909283"><ele>109.25</ele><time>2026-04-19T15:56:47.001Z</time></trkpt><trkpt lat="38.00649465095014" lon="14.328360550351121"><ele>108.5</ele><time>2026-04-19T15:56:48.001Z</time></trkpt><trkpt lat="38.006525296680785" lon="14.32819320960467"><ele>107.75</ele><time>2026-04-19T15:56:49.001Z</time></trkpt><trkpt lat="38.00655464387325" lon="14.327980243003699"><ele>107.0</ele><time>2026-04-19T15:56:50.001Z</time></trkpt><trkpt lat="38.00660988043202" lon="14.32775775384656"><ele>105.0</ele><time>2026-04-19T15:56:51.001Z</time></trkpt><trkpt lat="38.00664075482483" lon="14.32750054321656"><ele>103.0</ele><time>2026-04-19T15:56:52.001Z</time></trkpt><trkpt lat="38.006689985274235" lon="14.327257415645295"><ele>101.0</ele><time>2026-04-19T15:56:53.001Z</time></trkpt><trkpt lat="38.006734901042584" lon="14.327002116708385"><ele>101.0</ele><time>2026-04-19T15:56:54.001Z</time></trkpt><trkpt lat="38.00676347328315" lon="14.326741258297035"><ele>101.0</ele><time>2026-04-19T15:56:55.001Z</time></trkpt><trkpt lat="38.0067844056853" lon="14.326475149231882"><ele>101.0</ele><time>2026-04-19T15:56:56.001Z</time></trkpt><trkpt lat="38.006793384929566" lon="14.326206009767315"><ele>103.66666666666666</ele><time>2026-04-19T15:56:57.001Z</time></trkpt><trkpt lat="38.00679624792173" lon="14.325930038440426"><ele>106.33333333333334</ele><time>2026-04-19T15:56:58.001Z</time></trkpt><trkpt lat="38.00679634972098" lon="14.325647459428552"><ele>109.0</ele><time>2026-04-19T15:56:59.001Z</time></trkpt><trkpt lat="38.00679211255808" lon="14.325380885775832"><ele>112.66666666666667</ele><time>2026-04-19T15:57:00.001Z</time></trkpt><trkpt lat="38.00678732701781" lon="14.325134317980933"><ele>116.33333333333334</ele><time>2026-04-19T15:57:01.001Z</time></trkpt><trkpt lat="38.006788346338226" lon="14.324907555840095"><ele>120.0</ele><time>2026-04-19T15:57:02.001Z</time></trkpt><trkpt lat="38.006799801775436" lon="14.324689831523157"><ele>120.33333333333334</ele><time>2026-04-19T15:57:03.001Z</time></trkpt><trkpt lat="38.00682501601091" lon="14.324475206556427"><ele>120.66666666666667</ele><time>2026-04-19T15:57:04.001Z</time></trkpt><trkpt lat="38.00686130489316" lon="14.324264003997643"><ele>121.0</ele><time>2026-04-19T15:57:05.001Z</time></trkpt><trkpt lat="38.00691667111953" lon="14.324048029110111"><ele>120.0</ele><time>2026-04-19T15:57:06.001Z</time></trkpt><trkpt lat="38.006985840866385" lon="14.323835975455625"><ele>119.0</ele><time>2026-04-19T15:57:07.001Z</time></trkpt><trkpt lat="38.00706443347281" lon="14.32362371021589"><ele>118.0</ele><time>2026-04-19T15:57:08.001Z</time></trkpt><trkpt lat="38.007157839379644" lon="14.323412387942986"><ele>118.0</ele><time>2026-04-19T15:57:09.001Z</time></trkpt><trkpt lat="38.00726120278339" lon="14.323200724928743"><ele>118.0</ele><time>2026-04-19T15:57:10.001Z</time></trkpt><trkpt lat="38.00736048042777" lon="14.322992704937827"><ele>118.0</ele><time>2026-04-19T15:57:11.001Z</time></trkpt><trkpt lat="38.00744841098308" lon="14.322787209833601"><ele>115.33333333333334</ele><time>2026-04-19T15:57:12.001Z</time></trkpt><trkpt lat="38.00753130635141" lon="14.322586018977653"><ele>112.66666666666666</ele><time>2026-04-19T15:57:13.001Z</time></trkpt><trkpt lat="38.007611152068776" lon="14.322398942458413"><ele>110.0</ele><time>2026-04-19T15:57:14.001Z</time></trkpt><trkpt lat="38.00768548469967" lon="14.322218672774172"><ele>108.5</ele><time>2026-04-19T15:57:15.001Z</time></trkpt><trkpt lat="38.0077406574938" lon="14.322042522172763"><ele>107.0</ele><time>2026-04-19T15:57:16.001Z</time></trkpt><trkpt lat="38.007784098518364" lon="14.321862785776231"><ele>105.5</ele><time>2026-04-19T15:57:17.001Z</time></trkpt><trkpt lat="38.00780918495373" lon="14.321686754758536"><ele>104.0</ele><time>2026-04-19T15:57:18.001Z</time></trkpt><trkpt lat="38.00781798347996" lon="14.321517018954362"><ele>102.75</ele><time>2026-04-19T15:57:19.001Z</time></trkpt><trkpt lat="38.007810016369106" lon="14.32135476181002"><ele>101.5</ele><time>2026-04-19T15:57:20.001Z</time></trkpt><trkpt lat="38.00779124546028" lon="14.32120065242781"><ele>100.25</ele><time>2026-04-19T15:57:21.001Z</time></trkpt><trkpt lat="38.00775564511484" lon="14.32105431085546"><ele>99.0</ele><time>2026-04-19T15:57:22.001Z</time></trkpt><trkpt lat="38.00770093942011" lon="14.320910038286998"><ele>99.0</ele><time>2026-04-19T15:57:23.001Z</time></trkpt><trkpt lat="38.00763115847643" lon="14.320771961609918"><ele>99.0</ele><time>2026-04-19T15:57:24.001Z</time></trkpt><trkpt lat="38.007547040014344" lon="14.32064368568068"><ele>99.0</ele><time>2026-04-19T15:57:25.002Z</time></trkpt><trkpt lat="38.00744432455085" lon="14.320526290339306"><ele>99.0</ele><time>2026-04-19T15:57:26.002Z</time></trkpt><trkpt lat="38.00733003401662" lon="14.320421388286524"><ele>100.75</ele><time>2026-04-19T15:57:27.002Z</time></trkpt><trkpt lat="38.00720703433131" lon="14.320342148398417"><ele>102.5</ele><time>2026-04-19T15:57:28.002Z</time></trkpt><trkpt lat="38.00707663707505" lon="14.320283305451998"><ele>104.25</ele><time>2026-04-19T15:57:29.002Z</time></trkpt><trkpt lat="38.00693799865507" lon="14.320251838781186"><ele>106.0</ele><time>2026-04-19T15:57:30.002Z</time></trkpt><trkpt lat="38.00679919598493" lon="14.320248909523288"><ele>106.0</ele><time>2026-04-19T15:57:31.002Z</time></trkpt><trkpt lat="38.00666775362157" lon="14.320272909664716"><ele>106.0</ele><time>2026-04-19T15:57:32.002Z</time></trkpt><trkpt lat="38.006553784101136" lon="14.320312824958581"><ele>106.0</ele><time>2026-04-19T15:57:33.002Z</time></trkpt><trkpt lat="38.00644039592845" lon="14.320363147813747"><ele>106.0</ele><time>2026-04-19T15:57:34.002Z</time></trkpt><trkpt lat="38.00631464630752" lon="14.320437564891561"><ele>112.75</ele><time>2026-04-19T15:57:35.002Z</time></trkpt><trkpt lat="38.006202730231024" lon="14.32055406818093"><ele>119.5</ele><time>2026-04-19T15:57:36.002Z</time></trkpt><trkpt lat="38.006115520221044" lon="14.320731797210009"><ele>126.25</ele><time>2026-04-19T15:57:37.002Z</time></trkpt><trkpt lat="38.00604356830137" lon="14.320881607620905"><ele>133.0</ele><time>2026-04-19T15:57:38.002Z</time></trkpt><trkpt lat="38.00598796027006" lon="14.321041252766733"><ele>133.0</ele><time>2026-04-19T15:57:39.002Z</time></trkpt><trkpt lat="38.005950296363515" lon="14.32119307877315"><ele>133.0</ele><time>2026-04-19T15:57:40.002Z</time></trkpt><trkpt lat="38.00591876632735" lon="14.321354728009846"><ele>133.0</ele><time>2026-04-19T15:57:41.002Z</time></trkpt><trkpt lat="38.005904733963135" lon="14.321447874188838"><ele>133.0</ele><time>2026-04-19T15:57:42.002Z</time></trkpt><trkpt lat="38.005887615054796" lon="14.321570643850489"><ele>133.0</ele><time>2026-04-19T15:57:43.002Z</time></trkpt><trkpt lat="38.00585347425735" lon="14.321906364524311"><ele>133.0</ele><time>2026-04-19T15:57:44.002Z</time></trkpt><trkpt lat="38.00584160883516" lon="14.322050095286457"><ele>133.0</ele><time>2026-04-19T15:57:45.002Z</time></trkpt><trkpt lat="38.00584184431422" lon="14.322203003703907"><ele>133.0</ele><time>2026-04-19T15:57:46.002Z</time></trkpt><trkpt lat="38.00583375851157" lon="14.322422950700465"><ele>133.0</ele><time>2026-04-19T15:57:47.002Z</time></trkpt><trkpt lat="38.00580630421275" lon="14.322626956297599"><ele>142.0</ele><time>2026-04-19T15:57:48.002Z</time></trkpt><trkpt lat="38.00578825092981" lon="14.322830546086815"><ele>151.0</ele><time>2026-04-19T15:57:49.002Z</time></trkpt><trkpt lat="38.005769317061066" lon="14.323044360175563"><ele>160.0</ele><time>2026-04-19T15:57:50.002Z</time></trkpt><trkpt lat="38.005748800093066" lon="14.323276051752297"><ele>160.0</ele><time>2026-04-19T15:57:51.002Z</time></trkpt><trkpt lat="38.00572883006235" lon="14.323501567006309"><ele>160.0</ele><time>2026-04-19T15:57:52.002Z</time></trkpt><trkpt lat="38.005709319911816" lon="14.323721888959058"><ele>160.0</ele><time>2026-04-19T15:57:53.002Z</time></trkpt><trkpt lat="38.005689857632326" lon="14.323940531770198"><ele>158.33333333333334</ele><time>2026-04-19T15:57:54.002Z</time></trkpt><trkpt lat="38.00567043272758" lon="14.324147747318635"><ele>156.66666666666666</ele><time>2026-04-19T15:57:55.002Z</time></trkpt><trkpt lat="38.00565220136009" lon="14.32434297207352"><ele>155.0</ele><time>2026-04-19T15:57:56.002Z</time></trkpt><trkpt lat="38.00563798336893" lon="14.32452967686048"><ele>155.0</ele><time>2026-04-19T15:57:57.002Z</time></trkpt><trkpt lat="38.00562879675645" lon="14.324710286416744"><ele>155.0</ele><time>2026-04-19T15:57:58.002Z</time></trkpt><trkpt lat="38.005622502989475" lon="14.324888518120554"><ele>155.0</ele><time>2026-04-19T15:57:59.002Z</time></trkpt><trkpt lat="38.0056252350021" lon="14.32506828417705"><ele>155.0</ele><time>2026-04-19T15:58:00.002Z</time></trkpt><trkpt lat="38.00565828411472" lon="14.325244051056522"><ele>153.25</ele><time>2026-04-19T15:58:01.002Z</time></trkpt><trkpt lat="38.00568904857892" lon="14.325423057762205"><ele>151.5</ele><time>2026-04-19T15:58:02.002Z</time></trkpt><trkpt lat="38.00573924860917" lon="14.32560393495467"><ele>149.75</ele><time>2026-04-19T15:58:03.002Z</time></trkpt><trkpt lat="38.005792402034594" lon="14.325784964588498"><ele>148.0</ele><time>2026-04-19T15:58:04Z</time></trkpt><trkpt lat="38.00585088551286" lon="14.325957956165897"><ele>142.75</ele><time>2026-04-19T15:58:05Z</time></trkpt><trkpt lat="38.00591015187392" lon="14.32613456460576"><ele>137.5</ele><time>2026-04-19T15:58:06Z</time></trkpt><trkpt lat="38.00596065165187" lon="14.326310715258188"><ele>132.25</ele><time>2026-04-19T15:58:07Z</time></trkpt><trkpt lat="38.006001170020966" lon="14.326485585773137"><ele>127.0</ele><time>2026-04-19T15:58:08Z</time></trkpt><trkpt lat="38.00603199387784" lon="14.326666559990874"><ele>127.0</ele><time>2026-04-19T15:58:09.001Z</time></trkpt><trkpt lat="38.00603856577999" lon="14.326853293512366"><ele>127.0</ele><time>2026-04-19T15:58:10.001Z</time></trkpt><trkpt lat="38.00601086057785" lon="14.32704128037523"><ele>127.0</ele><time>2026-04-19T15:58:11Z</time></trkpt><trkpt lat="38.00600483914483" lon="14.327232064028019"><ele>127.0</ele><time>2026-04-19T15:58:12.001Z</time></trkpt><trkpt lat="38.005979086394355" lon="14.327422529602973"><ele>124.0</ele><time>2026-04-19T15:58:13.001Z</time></trkpt><trkpt lat="38.00594686552035" lon="14.327615952444212"><ele>121.0</ele><time>2026-04-19T15:58:14Z</time></trkpt><trkpt lat="38.00590803587974" lon="14.327808694594209"><ele>118.0</ele><time>2026-04-19T15:58:15.001Z</time></trkpt><trkpt lat="38.005863352556474" lon="14.328004483150503"><ele>121.33333333333334</ele><time>2026-04-19T15:58:16.001Z</time></trkpt><trkpt lat="38.005814358834414" lon="14.328198390365381"><ele>124.66666666666666</ele><time>2026-04-19T15:58:17Z</time></trkpt><trkpt lat="38.00576200958828" lon="14.328403044106038"><ele>128.0</ele><time>2026-04-19T15:58:18.001Z</time></trkpt><trkpt lat="38.00570851761878" lon="14.32862731303471"><ele>128.0</ele><time>2026-04-19T15:58:19.001Z</time></trkpt><trkpt lat="38.00564858737021" lon="14.328867821159546"><ele>128.0</ele><time>2026-04-19T15:58:20.001Z</time></trkpt><trkpt lat="38.00557764228608" lon="14.329120515980405"><ele>128.0</ele><time>2026-04-19T15:58:21.001Z</time></trkpt><trkpt lat="38.00549701952026" lon="14.329389810732485"><ele>127.5</ele><time>2026-04-19T15:58:22.001Z</time></trkpt><trkpt lat="38.0054020873917" lon="14.329672439620994"><ele>127.0</ele><time>2026-04-19T15:58:23.001Z</time></trkpt><trkpt lat="38.00529961532833" lon="14.329964662352644"><ele>133.5</ele><time>2026-04-19T15:58:24.001Z</time></trkpt><trkpt lat="38.005204505225066" lon="14.330255846191072"><ele>140.0</ele><time>2026-04-19T15:58:25.001Z</time></trkpt><trkpt lat="38.00511570056235" lon="14.330539290866843"><ele>147.5</ele><time>2026-04-19T15:58:26.001Z</time></trkpt><trkpt lat="38.00502694844924" lon="14.330825321451163"><ele>155.0</ele><time>2026-04-19T15:58:27.001Z</time></trkpt><trkpt lat="38.00493879637244" lon="14.331117221037248"><ele>177.0</ele><time>2026-04-19T15:58:28.001Z</time></trkpt><trkpt lat="38.004847428411075" lon="14.331409038121906"><ele>199.0</ele><time>2026-04-19T15:58:29.001Z</time></trkpt><trkpt lat="38.004756213003475" lon="14.331698734738588"><ele>199.0</ele><time>2026-04-19T15:58:30.001Z</time></trkpt><trkpt lat="38.00465548768192" lon="14.331987412772829"><ele>199.0</ele><time>2026-04-19T15:58:31.001Z</time></trkpt><trkpt lat="38.00456294591826" lon="14.332263078266378"><ele>211.0</ele><time>2026-04-19T15:58:32.001Z</time></trkpt><trkpt lat="38.004471644778086" lon="14.332529778980009"><ele>223.0</ele><time>2026-04-19T15:58:33.001Z</time></trkpt><trkpt lat="38.00438747372697" lon="14.332796287211545"><ele>234.5</ele><time>2026-04-19T15:58:34.001Z</time></trkpt><trkpt lat="38.00430966075748" lon="14.333070018198594"><ele>246.0</ele><time>2026-04-19T15:58:35.001Z</time></trkpt><trkpt lat="38.00423451809903" lon="14.333340735570777"><ele>255.0</ele><time>2026-04-19T15:58:36.001Z</time></trkpt><trkpt lat="38.0040436738223" lon="14.33355636956941"><ele>264.0</ele><time>2026-04-19T15:58:37.001Z</time></trkpt><trkpt lat="38.00393890649434" lon="14.3339160727371"><ele>273.0</ele><time>2026-04-19T15:58:38.001Z</time></trkpt><trkpt lat="38.00385167384345" lon="14.334282120683707"><ele>282.0</ele><time>2026-04-19T15:58:39.001Z</time></trkpt><trkpt lat="38.003774116957324" lon="14.33465872845375"><ele>274.5</ele><time>2026-04-19T15:58:40.001Z</time></trkpt><trkpt lat="38.003700214764905" lon="14.335061071186498"><ele>267.0</ele><time>2026-04-19T15:58:41.001Z</time></trkpt><trkpt lat="38.00363433266553" lon="14.33546956323367"><ele>248.0</ele><time>2026-04-19T15:58:42.001Z</time></trkpt><trkpt lat="38.003574916972525" lon="14.335903398167904"><ele>229.0</ele><time>2026-04-19T15:58:43.001Z</time></trkpt><trkpt lat="38.00353061414723" lon="14.33631637123025"><ele>209.5</ele><time>2026-04-19T15:58:44.001Z</time></trkpt><trkpt lat="38.00349235910167" lon="14.336742959434975"><ele>190.0</ele><time>2026-04-19T15:58:45.001Z</time></trkpt><trkpt lat="38.00346718091349" lon="14.337181305590338"><ele>172.0</ele><time>2026-04-19T15:58:46.001Z</time></trkpt><trkpt lat="38.00345163623775" lon="14.337625465912655"><ele>154.0</ele><time>2026-04-19T15:58:47.001Z</time></trkpt><trkpt lat="38.00344501099026" lon="14.338056472750605"><ele>148.5</ele><time>2026-04-19T15:58:48.001Z</time></trkpt><trkpt lat="38.00344310047023" lon="14.338485385862956"><ele>143.0</ele><time>2026-04-19T15:58:49.001Z</time></trkpt><trkpt lat="38.00344950025883" lon="14.338937415374431"><ele>154.0</ele><time>2026-04-19T15:58:50.001Z</time></trkpt><trkpt lat="38.00347334134167" lon="14.339367966889485"><ele>165.0</ele><time>2026-04-19T15:58:51.001Z</time></trkpt><trkpt lat="38.00350880997562" lon="14.339817042099924"><ele>170.5</ele><time>2026-04-19T15:58:52.001Z</time></trkpt><trkpt lat="38.00355519212353" lon="14.340231944392125"><ele>176.0</ele><time>2026-04-19T15:58:53.001Z</time></trkpt><trkpt lat="38.003604172552876" lon="14.340574491040863"><ele>164.0</ele><time>2026-04-19T15:58:54.001Z</time></trkpt><trkpt lat="38.003665226158006" lon="14.340975558146527"><ele>152.0</ele><time>2026-04-19T15:58:55.001Z</time></trkpt><trkpt lat="38.00373201287182" lon="14.341404382862656"><ele>136.5</ele><time>2026-04-19T15:58:56.001Z</time></trkpt><trkpt lat="38.00379752899843" lon="14.341850867521659"><ele>121.0</ele><time>2026-04-19T15:58:57Z</time></trkpt><trkpt lat="38.003862864716965" lon="14.342303844893799"><ele>89.0</ele><time>2026-04-19T15:58:58Z</time></trkpt><trkpt lat="38.00394650558868" lon="14.342909539245493"><ele>74.5</ele><time>2026-04-19T15:58:59Z</time></trkpt><trkpt lat="38.004010404323" lon="14.343428421806237"><ele>60.0</ele><time>2026-04-19T15:59:00Z</time></trkpt><trkpt lat="38.00405891997495" lon="14.343866841231685"><ele>57.5</ele><time>2026-04-19T15:59:01Z</time></trkpt><trkpt lat="38.00410560652385" lon="14.344286832041204"><ele>55.0</ele><time>2026-04-19T15:59:02Z</time></trkpt><trkpt lat="38.00416583750013" lon="14.344706835403057"><ele>54.5</ele><time>2026-04-19T15:59:03Z</time></trkpt><trkpt lat="38.00421436852183" lon="14.34511814950377"><ele>54.0</ele><time>2026-04-19T15:59:04Z</time></trkpt><trkpt lat="38.00427939213939" lon="14.34554108786977"><ele>51.5</ele><time>2026-04-19T15:59:05Z</time></trkpt><trkpt lat="38.004324336012274" lon="14.345948178644477"><ele>49.0</ele><time>2026-04-19T15:59:06Z</time></trkpt><trkpt lat="38.0043677606882" lon="14.346350047462705"><ele>53.5</ele><time>2026-04-19T15:59:07Z</time></trkpt><trkpt lat="38.004407085944486" lon="14.34675414749746"><ele>58.0</ele><time>2026-04-19T15:59:08Z</time></trkpt><trkpt lat="38.00444829235671" lon="14.3471538701603"><ele>70.5</ele><time>2026-04-19T15:59:09Z</time></trkpt><trkpt lat="38.00448753869715" lon="14.347550331453926"><ele>83.0</ele><time>2026-04-19T15:59:10Z</time></trkpt><trkpt lat="38.00452339985684" lon="14.347943808100723"><ele>93.5</ele><time>2026-04-19T15:59:11Z</time></trkpt><trkpt lat="38.00456472945301" lon="14.348333519690565"><ele>104.0</ele><time>2026-04-19T15:59:12Z</time></trkpt><trkpt lat="38.004612049130166" lon="14.348732173630252"><ele>121.5</ele><time>2026-04-19T15:59:13Z</time></trkpt><trkpt lat="38.004658456682414" lon="14.349135310427467"><ele>139.0</ele><time>2026-04-19T15:59:14Z</time></trkpt><trkpt lat="38.00470722835775" lon="14.349543368368979"><ele>156.5</ele><time>2026-04-19T15:59:15Z</time></trkpt><trkpt lat="38.00475880089798" lon="14.349948438776359"><ele>174.0</ele><time>2026-04-19T15:59:16Z</time></trkpt><trkpt lat="38.00480773544321" lon="14.350350593462803"><ele>187.5</ele><time>2026-04-19T15:59:17Z</time></trkpt><trkpt lat="38.004853707125605" lon="14.350746922132664"><ele>201.0</ele><time>2026-04-19T15:59:18Z</time></trkpt><trkpt lat="38.004935621486084" lon="14.351134472574616"><ele>223.5</ele><time>2026-04-19T15:59:19Z</time></trkpt><trkpt lat="38.00503112874991" lon="14.351528437402713"><ele>246.0</ele><time>2026-04-19T15:59:20Z</time></trkpt><trkpt lat="38.0051137911644" lon="14.35178803673722"><ele>246.0</ele><time>2026-04-19T15:59:21Z</time></trkpt><trkpt lat="38.005211493688535" lon="14.352146136407"><ele>246.0</ele><time>2026-04-19T15:59:22Z</time></trkpt><trkpt lat="38.005303113828425" lon="14.352489713385227"><ele>255.0</ele><time>2026-04-19T15:59:23Z</time></trkpt><trkpt lat="38.005410847221434" lon="14.352832339598182"><ele>264.0</ele><time>2026-04-19T15:59:24Z</time></trkpt><trkpt lat="38.00550744630509" lon="14.353164702126156"><ele>264.0</ele><time>2026-04-19T15:59:25Z</time></trkpt><trkpt lat="38.005619609769305" lon="14.353475578625357"><ele>264.0</ele><time>2026-04-19T15:59:26.001Z</time></trkpt><trkpt lat="38.00573154087901" lon="14.353776979050197"><ele>244.5</ele><time>2026-04-19T15:59:27.001Z</time></trkpt><trkpt lat="38.005853378098635" lon="14.354085136431479"><ele>225.0</ele><time>2026-04-19T15:59:28.001Z</time></trkpt><trkpt lat="38.00598139500081" lon="14.354390898355543"><ele>225.0</ele><time>2026-04-19T15:59:29.001Z</time></trkpt><trkpt lat="38.00611384000258" lon="14.354689034513862"><ele>225.0</ele><time>2026-04-19T15:59:30.001Z</time></trkpt><trkpt lat="38.00625173492355" lon="14.354985249638812"><ele>230.5</ele><time>2026-04-19T15:59:31.001Z</time></trkpt><trkpt lat="38.00639469292589" lon="14.355277609931951"><ele>236.0</ele><time>2026-04-19T15:59:32.001Z</time></trkpt><trkpt lat="38.00654352576023" lon="14.355572577444022"><ele>221.0</ele><time>2026-04-19T15:59:33.001Z</time></trkpt><trkpt lat="38.00668924448451" lon="14.355852471452131"><ele>206.0</ele><time>2026-04-19T15:59:34.001Z</time></trkpt><trkpt lat="38.006842867395754" lon="14.356130959717628"><ele>194.5</ele><time>2026-04-19T15:59:35.001Z</time></trkpt><trkpt lat="38.007007865312005" lon="14.356410739992011"><ele>183.0</ele><time>2026-04-19T15:59:36.001Z</time></trkpt><trkpt lat="38.00718004201949" lon="14.356693502336787"><ele>183.0</ele><time>2026-04-19T15:59:37.001Z</time></trkpt><trkpt lat="38.00735528491262" lon="14.356972641295899"><ele>183.0</ele><time>2026-04-19T15:59:38.001Z</time></trkpt><trkpt lat="38.007531452913454" lon="14.357238410243292"><ele>171.5</ele><time>2026-04-19T15:59:39.001Z</time></trkpt><trkpt lat="38.00770728697224" lon="14.357496067004561"><ele>160.0</ele><time>2026-04-19T15:59:40.001Z</time></trkpt><trkpt lat="38.00788792682717" lon="14.357758987520908"><ele>160.0</ele><time>2026-04-19T15:59:41.001Z</time></trkpt><trkpt lat="38.00807121440463" lon="14.358021760204245"><ele>160.0</ele><time>2026-04-19T15:59:42.001Z</time></trkpt><trkpt lat="38.00825944432872" lon="14.358286675195602"><ele>145.0</ele><time>2026-04-19T15:59:43.001Z</time></trkpt><trkpt lat="38.00844272662225" lon="14.358535909540567"><ele>130.0</ele><time>2026-04-19T15:59:44.001Z</time></trkpt><trkpt lat="38.00862139587166" lon="14.358776640954325"><ele>130.0</ele><time>2026-04-19T15:59:45.001Z</time></trkpt><trkpt lat="38.0087716440031" lon="14.358979075458334"><ele>130.0</ele><time>2026-04-19T15:59:46.001Z</time></trkpt><trkpt lat="38.00864445846089" lon="14.358836890456024"><ele>130.0</ele><time>2026-04-19T15:59:47.001Z</time></trkpt><trkpt lat="38.008923216672024" lon="14.35915870420997"><ele>129.5</ele><time>2026-04-19T15:59:48.001Z</time></trkpt><trkpt lat="38.009097137457" lon="14.359383634941885"><ele>129.0</ele><time>2026-04-19T15:59:49.001Z</time></trkpt><trkpt lat="38.00926047110607" lon="14.35959868053482"><ele>123.0</ele><time>2026-04-19T15:59:50.001Z</time></trkpt><trkpt lat="38.00942259975434" lon="14.359820822372896"><ele>117.0</ele><time>2026-04-19T15:59:51.001Z</time></trkpt><trkpt lat="38.009577356329686" lon="14.360058934747917"><ele>117.0</ele><time>2026-04-19T15:59:52.001Z</time></trkpt><trkpt lat="38.00972797666308" lon="14.360296427119867"><ele>117.0</ele><time>2026-04-19T15:59:53.001Z</time></trkpt><trkpt lat="38.00987930278153" lon="14.360532012916098"><ele>112.5</ele><time>2026-04-19T15:59:54.001Z</time></trkpt><trkpt lat="38.01002239705661" lon="14.360772687596581"><ele>108.0</ele><time>2026-04-19T15:59:55.001Z</time></trkpt><trkpt lat="38.01017176425083" lon="14.361007298775643"><ele>108.0</ele><time>2026-04-19T15:59:56.001Z</time></trkpt><trkpt lat="38.01032101617931" lon="14.361242654120653"><ele>108.0</ele><time>2026-04-19T15:59:57.001Z</time></trkpt><trkpt lat="38.01046382864437" lon="14.361481633515172"><ele>114.5</ele><time>2026-04-19T15:59:58.001Z</time></trkpt><trkpt lat="38.01060051364805" lon="14.361721894438341"><ele>121.0</ele><time>2026-04-19T15:59:59.001Z</time></trkpt><trkpt lat="38.01073593851832" lon="14.361962281943928"><ele>117.5</ele><time>2026-04-19T16:00:00.001Z</time></trkpt><trkpt lat="38.01086154169507" lon="14.36221364110598"><ele>114.0</ele><time>2026-04-19T16:00:01.001Z</time></trkpt><trkpt lat="38.01098484303994" lon="14.362468800685152"><ele>114.0</ele><time>2026-04-19T16:00:02.001Z</time></trkpt><trkpt lat="38.011110109635865" lon="14.362727364037466"><ele>114.0</ele><time>2026-04-19T16:00:03.001Z</time></trkpt><trkpt lat="38.01125009789983" lon="14.36300113458485"><ele>124.0</ele><time>2026-04-19T16:00:04.001Z</time></trkpt><trkpt lat="38.01137282884252" lon="14.36326366674835"><ele>134.0</ele><time>2026-04-19T16:00:05.001Z</time></trkpt><trkpt lat="38.01148685069857" lon="14.363525872880818"><ele>134.0</ele><time>2026-04-19T16:00:06.001Z</time></trkpt><trkpt lat="38.011595963358744" lon="14.36380624107392"><ele>134.0</ele><time>2026-04-19T16:00:07.001Z</time></trkpt><trkpt lat="38.01170444139621" lon="14.36407595816474"><ele>125.5</ele><time>2026-04-19T16:00:08.001Z</time></trkpt><trkpt lat="38.01180814521169" lon="14.364358996752145"><ele>117.0</ele><time>2026-04-19T16:00:09.001Z</time></trkpt><trkpt lat="38.01190645608719" lon="14.364642896774374"><ele>121.5</ele><time>2026-04-19T16:00:10Z</time></trkpt><trkpt lat="38.01199911151844" lon="14.364934444535889"><ele>126.0</ele><time>2026-04-19T16:00:11Z</time></trkpt><trkpt lat="38.01208885953017" lon="14.365230853923931"><ele>129.5</ele><time>2026-04-19T16:00:12Z</time></trkpt><trkpt lat="38.012177171592576" lon="14.365531609175891"><ele>133.0</ele><time>2026-04-19T16:00:12.999Z</time></trkpt><trkpt lat="38.01226444162287" lon="14.365836840671985"><ele>133.0</ele><time>2026-04-19T16:00:13.999Z</time></trkpt><trkpt lat="38.01235115638012" lon="14.366143601962666"><ele>133.0</ele><time>2026-04-19T16:00:14.999Z</time></trkpt><trkpt lat="38.012430134110815" lon="14.366456587275485"><ele>120.5</ele><time>2026-04-19T16:00:15.999Z</time></trkpt><trkpt lat="38.01250878877132" lon="14.366771985359103"><ele>108.0</ele><time>2026-04-19T16:00:16.999Z</time></trkpt><trkpt lat="38.012578089486865" lon="14.367092732299582"><ele>104.0</ele><time>2026-04-19T16:00:17.999Z</time></trkpt><trkpt lat="38.012643433232554" lon="14.367416919904104"><ele>100.0</ele><time>2026-04-19T16:00:18.999Z</time></trkpt><trkpt lat="38.01270426049885" lon="14.36774409271493"><ele>90.0</ele><time>2026-04-19T16:00:19.999Z</time></trkpt><trkpt lat="38.01275986901147" lon="14.36807289695066"><ele>80.0</ele><time>2026-04-19T16:00:21Z</time></trkpt><trkpt lat="38.012807637031" lon="14.368405933002034"><ele>80.0</ele><time>2026-04-19T16:00:21.999Z</time></trkpt><trkpt lat="38.012851458284004" lon="14.368737253578113"><ele>80.0</ele><time>2026-04-19T16:00:22.999Z</time></trkpt><trkpt lat="38.0128925894243" lon="14.369070376714253"><ele>63.0</ele><time>2026-04-19T16:00:23.999Z</time></trkpt><trkpt lat="38.01293103382562" lon="14.369405000085866"><ele>46.0</ele><time>2026-04-19T16:00:24.999Z</time></trkpt><trkpt lat="38.012962539849575" lon="14.369741277707561"><ele>42.0</ele><time>2026-04-19T16:00:26Z</time></trkpt><trkpt lat="38.01298944185605" lon="14.37007760053425"><ele>38.0</ele><time>2026-04-19T16:00:27Z</time></trkpt><trkpt lat="38.013011407676665" lon="14.370420115434346"><ele>48.0</ele><time>2026-04-19T16:00:28Z</time></trkpt><trkpt lat="38.01303049091267" lon="14.370763915259893"><ele>58.0</ele><time>2026-04-19T16:00:29Z</time></trkpt><trkpt lat="38.01305094087149" lon="14.37110795348084"><ele>77.5</ele><time>2026-04-19T16:00:30Z</time></trkpt><trkpt lat="38.01307007681408" lon="14.371455206451607"><ele>97.0</ele><time>2026-04-19T16:00:31Z</time></trkpt><trkpt lat="38.013088412307326" lon="14.371797288965084"><ele>97.0</ele><time>2026-04-19T16:00:32Z</time></trkpt><trkpt lat="38.01310703286508" lon="14.372137123368505"><ele>97.0</ele><time>2026-04-19T16:00:33Z</time></trkpt><trkpt lat="38.01312806263684" lon="14.372475935789788"><ele>112.0</ele><time>2026-04-19T16:00:34Z</time></trkpt><trkpt lat="38.01315762172583" lon="14.372810586946171"><ele>127.0</ele><time>2026-04-19T16:00:35Z</time></trkpt><trkpt lat="38.01319232834065" lon="14.373142944891555"><ele>139.0</ele><time>2026-04-19T16:00:36Z</time></trkpt><trkpt lat="38.01323174743285" lon="14.373473024802575"><ele>151.0</ele><time>2026-04-19T16:00:37Z</time></trkpt><trkpt lat="38.01327405615038" lon="14.373804950695236"><ele>157.0</ele><time>2026-04-19T16:00:38Z</time></trkpt><trkpt lat="38.013319139829576" lon="14.374139808594705"><ele>163.0</ele><time>2026-04-19T16:00:39Z</time></trkpt><trkpt lat="38.013368750786476" lon="14.374472549026498"><ele>146.5</ele><time>2026-04-19T16:00:40Z</time></trkpt><trkpt lat="38.013424258399205" lon="14.374800296220494"><ele>130.0</ele><time>2026-04-19T16:00:41Z</time></trkpt><trkpt lat="38.01348404021021" lon="14.375127182954623"><ele>130.0</ele><time>2026-04-19T16:00:42Z</time></trkpt><trkpt lat="38.013551404113876" lon="14.375447765304681"><ele>130.0</ele><time>2026-04-19T16:00:43Z</time></trkpt><trkpt lat="38.013623331869155" lon="14.375773066917986"><ele>134.0</ele><time>2026-04-19T16:00:44Z</time></trkpt><trkpt lat="38.013698710467146" lon="14.376094694092442"><ele>138.0</ele><time>2026-04-19T16:00:45Z</time></trkpt><trkpt lat="38.01377074161552" lon="14.376401641579466"><ele>140.5</ele><time>2026-04-19T16:00:46Z</time></trkpt><trkpt lat="38.01387625136214" lon="14.376767695013415"><ele>143.0</ele><time>2026-04-19T16:00:47Z</time></trkpt><trkpt lat="38.01394962845714" lon="14.377079624283377"><ele>145.0</ele><time>2026-04-19T16:00:48Z</time></trkpt><trkpt lat="38.0140550121113" lon="14.377406184002833"><ele>147.0</ele><time>2026-04-19T16:00:49Z</time></trkpt><trkpt lat="38.014150620720486" lon="14.377725980619003"><ele>139.0</ele><time>2026-04-19T16:00:50Z</time></trkpt><trkpt lat="38.0142538872075" lon="14.378047744335005"><ele>131.0</ele><time>2026-04-19T16:00:51Z</time></trkpt><trkpt lat="38.01435876663062" lon="14.378375255472879"><ele>131.0</ele><time>2026-04-19T16:00:52Z</time></trkpt><trkpt lat="38.01446280792087" lon="14.37870578356458"><ele>131.0</ele><time>2026-04-19T16:00:53Z</time></trkpt><trkpt lat="38.01456758324771" lon="14.379033331892488"><ele>128.5</ele><time>2026-04-19T16:00:54Z</time></trkpt><trkpt lat="38.01466733531205" lon="14.379356940448078"><ele>126.0</ele><time>2026-04-19T16:00:55Z</time></trkpt><trkpt lat="38.01477752467344" lon="14.379724165623523"><ele>126.0</ele><time>2026-04-19T16:00:56Z</time></trkpt><trkpt lat="38.01487822921489" lon="14.38014508510541"><ele>126.0</ele><time>2026-04-19T16:00:57Z</time></trkpt><trkpt lat="38.01500492417021" lon="14.380586102915766"><ele>111.5</ele><time>2026-04-19T16:00:58Z</time></trkpt><trkpt lat="38.01509948544415" lon="14.38104134256903"><ele>97.0</ele><time>2026-04-19T16:00:59Z</time></trkpt><trkpt lat="38.01518899524595" lon="14.381489687197863"><ele>83.5</ele><time>2026-04-19T16:01:00Z</time></trkpt><trkpt lat="38.015272938890035" lon="14.381952612754954"><ele>70.0</ele><time>2026-04-19T16:01:01Z</time></trkpt><trkpt lat="38.01534841098571" lon="14.382425245015234"><ele>70.0</ele><time>2026-04-19T16:01:02Z</time></trkpt><trkpt lat="38.015421098305026" lon="14.382910109777209"><ele>70.0</ele><time>2026-04-19T16:01:03Z</time></trkpt><trkpt lat="38.01549037203282" lon="14.383402426743332"><ele>99.0</ele><time>2026-04-19T16:01:04Z</time></trkpt><trkpt lat="38.015553821092304" lon="14.38390736302042"><ele>128.0</ele><time>2026-04-19T16:01:05Z</time></trkpt><trkpt lat="38.01561780664659" lon="14.384422219865206"><ele>133.0</ele><time>2026-04-19T16:01:06Z</time></trkpt><trkpt lat="38.01567810331221" lon="14.384933254756035"><ele>138.0</ele><time>2026-04-19T16:01:07Z</time></trkpt><trkpt lat="38.015732618698785" lon="14.385408645831834"><ele>138.0</ele><time>2026-04-19T16:01:08Z</time></trkpt><trkpt lat="38.01579329081504" lon="14.385882374144481"><ele>138.0</ele><time>2026-04-19T16:01:09Z</time></trkpt><trkpt lat="38.01585338036305" lon="14.386338581826768"><ele>124.0</ele><time>2026-04-19T16:01:10Z</time></trkpt><trkpt lat="38.01588348333668" lon="14.386808707478078"><ele>110.0</ele><time>2026-04-19T16:01:11Z</time></trkpt><trkpt lat="38.015961294058705" lon="14.387327371501444"><ele>110.0</ele><time>2026-04-19T16:01:12Z</time></trkpt><trkpt lat="38.016033162963666" lon="14.387831650739557"><ele>110.0</ele><time>2026-04-19T16:01:13Z</time></trkpt><trkpt lat="38.01610374149199" lon="14.388306668108944"><ele>121.5</ele><time>2026-04-19T16:01:14Z</time></trkpt><trkpt lat="38.01618905621349" lon="14.38878471447256"><ele>133.0</ele><time>2026-04-19T16:01:15Z</time></trkpt><trkpt lat="38.01628164761373" lon="14.389282149252512"><ele>139.0</ele><time>2026-04-19T16:01:16Z</time></trkpt><trkpt lat="38.01637801655797" lon="14.389766837233546"><ele>145.0</ele><time>2026-04-19T16:01:17Z</time></trkpt><trkpt lat="38.01647108896776" lon="14.390250807872016"><ele>138.5</ele><time>2026-04-19T16:01:18Z</time></trkpt><trkpt lat="38.01652045176748" lon="14.39067723611499"><ele>132.0</ele><time>2026-04-19T16:01:19Z</time></trkpt><trkpt lat="38.01661247904615" lon="14.391176822406653"><ele>99.0</ele><time>2026-04-19T16:01:20Z</time></trkpt><trkpt lat="38.01671785961712" lon="14.391637180276762"><ele>66.0</ele><time>2026-04-19T16:01:21Z</time></trkpt><trkpt lat="38.01682801100609" lon="14.392096720371836"><ele>54.0</ele><time>2026-04-19T16:01:22Z</time></trkpt><trkpt lat="38.016936829990186" lon="14.392562026022455"><ele>42.0</ele><time>2026-04-19T16:01:23Z</time></trkpt><trkpt lat="38.017047480750556" lon="14.3930392970325"><ele>42.0</ele><time>2026-04-19T16:01:24Z</time></trkpt><trkpt lat="38.017163521149904" lon="14.393521847792387"><ele>42.0</ele><time>2026-04-19T16:01:25Z</time></trkpt><trkpt lat="38.01728542592627" lon="14.394005702548343"><ele>54.0</ele><time>2026-04-19T16:01:26Z</time></trkpt><trkpt lat="38.01741531412668" lon="14.394498234647843"><ele>66.0</ele><time>2026-04-19T16:01:27Z</time></trkpt><trkpt lat="38.017545816174284" lon="14.394991649692097"><ele>92.5</ele><time>2026-04-19T16:01:28Z</time></trkpt><trkpt lat="38.017679624039374" lon="14.395478395514912"><ele>119.0</ele><time>2026-04-19T16:01:29Z</time></trkpt><trkpt lat="38.01781512555515" lon="14.395951856364906"><ele>133.5</ele><time>2026-04-19T16:01:30Z</time></trkpt><trkpt lat="38.01795123259133" lon="14.396425640473575"><ele>148.0</ele><time>2026-04-19T16:01:31Z</time></trkpt><trkpt lat="38.01809454820216" lon="14.3969080059248"><ele>150.5</ele><time>2026-04-19T16:01:32Z</time></trkpt><trkpt lat="38.01823141902095" lon="14.397404762385309"><ele>153.0</ele><time>2026-04-19T16:01:33Z</time></trkpt><trkpt lat="38.01836459471488" lon="14.397907489146364"><ele>144.0</ele><time>2026-04-19T16:01:34.001Z</time></trkpt><trkpt lat="38.01850246957038" lon="14.39841090097455"><ele>135.0</ele><time>2026-04-19T16:01:35.001Z</time></trkpt><trkpt lat="38.018635759533026" lon="14.398926779858675"><ele>135.0</ele><time>2026-04-19T16:01:36.001Z</time></trkpt><trkpt lat="38.018768783645186" lon="14.399442864190172"><ele>135.0</ele><time>2026-04-19T16:01:37.001Z</time></trkpt><trkpt lat="38.01889941473966" lon="14.399962900337998"><ele>132.0</ele><time>2026-04-19T16:01:38.001Z</time></trkpt><trkpt lat="38.019028201102465" lon="14.40048668572748"><ele>129.0</ele><time>2026-04-19T16:01:39.001Z</time></trkpt><trkpt lat="38.01915100474875" lon="14.40101848199491"><ele>127.5</ele><time>2026-04-19T16:01:40.001Z</time></trkpt><trkpt lat="38.01926749985597" lon="14.401554597680683"><ele>126.0</ele><time>2026-04-19T16:01:41.001Z</time></trkpt><trkpt lat="38.01937729200654" lon="14.402092567803496"><ele>119.0</ele><time>2026-04-19T16:01:42.001Z</time></trkpt><trkpt lat="38.01948039016574" lon="14.402636771140818"><ele>112.0</ele><time>2026-04-19T16:01:43.001Z</time></trkpt><trkpt lat="38.01957729693954" lon="14.403182221827116"><ele>109.5</ele><time>2026-04-19T16:01:44.001Z</time></trkpt><trkpt lat="38.01966641913685" lon="14.403732085049377"><ele>107.0</ele><time>2026-04-19T16:01:45.001Z</time></trkpt><trkpt lat="38.01974735132018" lon="14.404285851571618"><ele>122.5</ele><time>2026-04-19T16:01:46.001Z</time></trkpt><trkpt lat="38.019824167925194" lon="14.404827379974304"><ele>138.0</ele><time>2026-04-19T16:01:47.001Z</time></trkpt><trkpt lat="38.019873187612866" lon="14.405321171860153"><ele>147.5</ele><time>2026-04-19T16:01:48.001Z</time></trkpt><trkpt lat="38.019927471380925" lon="14.40578120305694"><ele>157.0</ele><time>2026-04-19T16:01:49.001Z</time></trkpt><trkpt lat="38.01998043973515" lon="14.406222842976208"><ele>154.5</ele><time>2026-04-19T16:01:50.001Z</time></trkpt><trkpt lat="38.02004037807847" lon="14.40666305708664"><ele>152.0</ele><time>2026-04-19T16:01:51.001Z</time></trkpt><trkpt lat="38.02009947723964" lon="14.407108862866298"><ele>164.0</ele><time>2026-04-19T16:01:52.001Z</time></trkpt><trkpt lat="38.02015621439311" lon="14.407556530345978"><ele>176.0</ele><time>2026-04-19T16:01:53.001Z</time></trkpt><trkpt lat="38.02021727015505" lon="14.408037282258846"><ele>185.5</ele><time>2026-04-19T16:01:54.064Z</time></trkpt><trkpt lat="38.02026875144345" lon="14.40849313154252"><ele>195.0</ele><time>2026-04-19T16:01:55.062Z</time></trkpt><trkpt lat="38.02031485226014" lon="14.408926669897383"><ele>202.5</ele><time>2026-04-19T16:01:56.063Z</time></trkpt><trkpt lat="38.02036628721004" lon="14.409351966930801"><ele>210.0</ele><time>2026-04-19T16:01:57.063Z</time></trkpt><trkpt lat="38.02055260216002" lon="14.411902599382977"><ele>168.0</ele><time>2026-04-19T16:02:00.756Z</time></trkpt><trkpt lat="38.020620312363945" lon="14.4128113502021"><ele>79.0</ele><time>2026-04-19T16:02:01.758Z</time></trkpt><trkpt lat="38.020704954729354" lon="14.413948489645934"><ele>79.0</ele><time>2026-04-19T16:02:12.001Z</time></trkpt><trkpt lat="38.02066840195328" lon="14.414232338593576"><ele>79.0</ele><time>2026-04-19T16:02:13.001Z</time></trkpt><trkpt lat="38.02068803210468" lon="14.414620545797797"><ele>84.5</ele><time>2026-04-19T16:02:14.001Z</time></trkpt><trkpt lat="38.020687741502584" lon="14.41500493519867"><ele>90.0</ele><time>2026-04-19T16:02:15.001Z</time></trkpt><trkpt lat="38.020671329551796" lon="14.415384081635775"><ele>105.5</ele><time>2026-04-19T16:02:16.001Z</time></trkpt><trkpt lat="38.02066704200272" lon="14.41576180921461"><ele>121.0</ele><time>2026-04-19T16:02:17.001Z</time></trkpt><trkpt lat="38.020662993224775" lon="14.416146510362852"><ele>134.5</ele><time>2026-04-19T16:02:17.999Z</time></trkpt><trkpt lat="38.02064634167485" lon="14.416534037306658"><ele>148.0</ele><time>2026-04-19T16:02:18.999Z</time></trkpt><trkpt lat="38.020631066417735" lon="14.416915122705882"><ele>158.5</ele><time>2026-04-19T16:02:19.999Z</time></trkpt><trkpt lat="38.02061084290165" lon="14.417301111775924"><ele>169.0</ele><time>2026-04-19T16:02:20.999Z</time></trkpt><trkpt lat="38.02059830464022" lon="14.417671191413744"><ele>184.0</ele><time>2026-04-19T16:02:21.999Z</time></trkpt><trkpt lat="38.020578026821134" lon="14.418049666217359"><ele>199.0</ele><time>2026-04-19T16:02:22.999Z</time></trkpt><trkpt lat="38.020559036962226" lon="14.41842375646512"><ele>199.0</ele><time>2026-04-19T16:02:23.999Z</time></trkpt><trkpt lat="38.02053838432468" lon="14.418797160758666"><ele>199.0</ele><time>2026-04-19T16:02:24.999Z</time></trkpt><trkpt lat="38.02051738544525" lon="14.419162618265636"><ele>212.5</ele><time>2026-04-19T16:02:25.999Z</time></trkpt><trkpt lat="38.02049661635341" lon="14.41953156463364"><ele>226.0</ele><time>2026-04-19T16:02:26.999Z</time></trkpt><trkpt lat="38.02047135804638" lon="14.419902579489182"><ele>238.0</ele><time>2026-04-19T16:02:27.999Z</time></trkpt><trkpt lat="38.02044285244744" lon="14.420271270365102"><ele>250.0</ele><time>2026-04-19T16:02:29Z</time></trkpt><trkpt lat="38.020424944552616" lon="14.420644239760092"><ele>264.5</ele><time>2026-04-19T16:02:30Z</time></trkpt><trkpt lat="38.02040413005458" lon="14.421010436977616"><ele>279.0</ele><time>2026-04-19T16:02:31Z</time></trkpt><trkpt lat="38.02035776824137" lon="14.421373686119729"><ele>293.0</ele><time>2026-04-19T16:02:32Z</time></trkpt><trkpt lat="38.02031835420064" lon="14.421738833409977"><ele>307.0</ele><time>2026-04-19T16:02:33Z</time></trkpt><trkpt lat="38.02020474355653" lon="14.42221319619403"><ele>306.5</ele><time>2026-04-19T16:02:34Z</time></trkpt><trkpt lat="38.020160273089616" lon="14.422601573439785"><ele>306.0</ele><time>2026-04-19T16:02:35Z</time></trkpt><trkpt lat="38.02011768811856" lon="14.422990290939891"><ele>306.0</ele><time>2026-04-19T16:02:36Z</time></trkpt><trkpt lat="38.02007633685982" lon="14.423383336918945"><ele>306.0</ele><time>2026-04-19T16:02:37Z</time></trkpt><trkpt lat="38.02003291712848" lon="14.423782452239982"><ele>291.0</ele><time>2026-04-19T16:02:38Z</time></trkpt><trkpt lat="38.019987091477496" lon="14.424182639658206"><ele>276.0</ele><time>2026-04-19T16:02:39Z</time></trkpt><trkpt lat="38.01994041800353" lon="14.42458272050993"><ele>254.0</ele><time>2026-04-19T16:02:40Z</time></trkpt><trkpt lat="38.01989839256807" lon="14.42499164311823"><ele>232.0</ele><time>2026-04-19T16:02:41Z</time></trkpt><trkpt lat="38.01985120680902" lon="14.425406945092233"><ele>218.0</ele><time>2026-04-19T16:02:42Z</time></trkpt><trkpt lat="38.01980381385599" lon="14.425821643057292"><ele>204.0</ele><time>2026-04-19T16:02:43Z</time></trkpt><trkpt lat="38.01975611203672" lon="14.426236213318871"><ele>193.0</ele><time>2026-04-19T16:02:44Z</time></trkpt><trkpt lat="38.01970819043333" lon="14.426655594816323"><ele>182.0</ele><time>2026-04-19T16:02:45Z</time></trkpt><trkpt lat="38.01965969788251" lon="14.427078862146514"><ele>172.5</ele><time>2026-04-19T16:02:46Z</time></trkpt><trkpt lat="38.01961492445987" lon="14.4275012664582"><ele>163.0</ele><time>2026-04-19T16:02:47Z</time></trkpt><trkpt lat="38.01957287823859" lon="14.427922015356321"><ele>157.5</ele><time>2026-04-19T16:02:48Z</time></trkpt><trkpt lat="38.01953102155535" lon="14.428347707581466"><ele>152.0</ele><time>2026-04-19T16:02:49Z</time></trkpt><trkpt lat="38.019487787587366" lon="14.428781835742708"><ele>149.0</ele><time>2026-04-19T16:02:50Z</time></trkpt><trkpt lat="38.01943940434257" lon="14.429216717159623"><ele>146.0</ele><time>2026-04-19T16:02:51Z</time></trkpt><trkpt lat="38.01939026187115" lon="14.429653677063705"><ele>146.0</ele><time>2026-04-19T16:02:52.009Z</time></trkpt><trkpt lat="38.01939464770323" lon="14.429328519843489"><ele>146.0</ele><time>2026-04-19T16:02:54Z</time></trkpt><trkpt lat="38.01935208248557" lon="14.42969301687881"><ele>141.5</ele><time>2026-04-19T16:02:55Z</time></trkpt><trkpt lat="38.019310654630196" lon="14.4301001585438"><ele>137.0</ele><time>2026-04-19T16:02:56Z</time></trkpt><trkpt lat="38.01926943131711" lon="14.430457369924541"><ele>130.5</ele><time>2026-04-19T16:02:57Z</time></trkpt><trkpt lat="38.01923226887419" lon="14.430822065471972"><ele>124.0</ele><time>2026-04-19T16:02:58Z</time></trkpt><trkpt lat="38.01919046150909" lon="14.431188460633258"><ele>122.0</ele><time>2026-04-19T16:02:59Z</time></trkpt><trkpt lat="38.01915492063011" lon="14.431558929451464"><ele>120.0</ele><time>2026-04-19T16:03:00Z</time></trkpt><trkpt lat="38.01911695541958" lon="14.431927756045456"><ele>105.5</ele><time>2026-04-19T16:03:01Z</time></trkpt><trkpt lat="38.01907898210917" lon="14.432304128896407"><ele>91.0</ele><time>2026-04-19T16:03:02Z</time></trkpt><trkpt lat="38.01904200859331" lon="14.432679959553568"><ele>78.5</ele><time>2026-04-19T16:03:03Z</time></trkpt><trkpt lat="38.01900826693542" lon="14.433056765979691"><ele>66.0</ele><time>2026-04-19T16:03:04Z</time></trkpt><trkpt lat="38.01898161645683" lon="14.433431978487299"><ele>64.0</ele><time>2026-04-19T16:03:05Z</time></trkpt><trkpt lat="38.01895773678001" lon="14.43380760884312"><ele>62.0</ele><time>2026-04-19T16:03:06Z</time></trkpt><trkpt lat="38.01893910904551" lon="14.43418324335321"><ele>62.0</ele><time>2026-04-19T16:03:07Z</time></trkpt><trkpt lat="38.01892689243546" lon="14.434559382925274"><ele>62.0</ele><time>2026-04-19T16:03:08Z</time></trkpt><trkpt lat="38.01892031000648" lon="14.434932055716505"><ele>70.0</ele><time>2026-04-19T16:03:09Z</time></trkpt><trkpt lat="38.01891960959661" lon="14.435304378689453"><ele>78.0</ele><time>2026-04-19T16:03:10Z</time></trkpt><trkpt lat="38.01892577717703" lon="14.435674442647336"><ele>79.5</ele><time>2026-04-19T16:03:11Z</time></trkpt><trkpt lat="38.018937872761875" lon="14.436042560485355"><ele>81.0</ele><time>2026-04-19T16:03:12Z</time></trkpt><trkpt lat="38.018958417810445" lon="14.436406829024937"><ele>87.0</ele><time>2026-04-19T16:03:13Z</time></trkpt><trkpt lat="38.01897890406497" lon="14.4367700755619"><ele>93.0</ele><time>2026-04-19T16:03:14Z</time></trkpt><trkpt lat="38.01900481443108" lon="14.43713266221511"><ele>121.5</ele><time>2026-04-19T16:03:15Z</time></trkpt><trkpt lat="38.01903570194803" lon="14.437492697556799"><ele>150.0</ele><time>2026-04-19T16:03:16Z</time></trkpt><trkpt lat="38.01907643035155" lon="14.437851073740429"><ele>163.0</ele><time>2026-04-19T16:03:17Z</time></trkpt><trkpt lat="38.01912109261208" lon="14.438194024496617"><ele>176.0</ele><time>2026-04-19T16:03:18Z</time></trkpt><trkpt lat="38.019167562096165" lon="14.438534010529096"><ele>196.5</ele><time>2026-04-19T16:03:19Z</time></trkpt><trkpt lat="38.0192184667559" lon="14.43887118345482"><ele>217.0</ele><time>2026-04-19T16:03:20Z</time></trkpt><trkpt lat="38.01928004929676" lon="14.439201620085734"><ele>217.0</ele><time>2026-04-19T16:03:21Z</time></trkpt><trkpt lat="38.019352070302084" lon="14.439526697666142"><ele>217.0</ele><time>2026-04-19T16:03:22Z</time></trkpt><trkpt lat="38.019432856902256" lon="14.439839800584602"><ele>232.0</ele><time>2026-04-19T16:03:23Z</time></trkpt><trkpt lat="38.01948141521608" lon="14.440170320865832"><ele>247.0</ele><time>2026-04-19T16:03:24Z</time></trkpt><trkpt lat="38.01947364701878" lon="14.440681446515912"><ele>254.0</ele><time>2026-04-19T16:03:25Z</time></trkpt><trkpt lat="38.019556764067424" lon="14.44102156059589"><ele>261.0</ele><time>2026-04-19T16:03:26Z</time></trkpt><trkpt lat="38.01963729202462" lon="14.441358672809788"><ele>263.5</ele><time>2026-04-19T16:03:27Z</time></trkpt><trkpt lat="38.019730518509384" lon="14.441692602077154"><ele>266.0</ele><time>2026-04-19T16:03:28Z</time></trkpt><trkpt lat="38.01983485264392" lon="14.442017240703288"><ele>260.5</ele><time>2026-04-19T16:03:29Z</time></trkpt><trkpt lat="38.01992006169664" lon="14.44235557897761"><ele>255.0</ele><time>2026-04-19T16:03:30Z</time></trkpt><trkpt lat="38.02002346661151" lon="14.442692039442562"><ele>271.5</ele><time>2026-04-19T16:03:31.001Z</time></trkpt><trkpt lat="38.02013357998139" lon="14.443026052307678"><ele>288.0</ele><time>2026-04-19T16:03:32.001Z</time></trkpt><trkpt lat="38.020226881579596" lon="14.443370469502108"><ele>288.0</ele><time>2026-04-19T16:03:33.001Z</time></trkpt><trkpt lat="38.02036499764305" lon="14.4436730600376"><ele>288.0</ele><time>2026-04-19T16:03:34.001Z</time></trkpt><trkpt lat="38.02047835545701" lon="14.44401258020011"><ele>293.5</ele><time>2026-04-19T16:03:35.001Z</time></trkpt><trkpt lat="38.020606944260855" lon="14.444343606868344"><ele>299.0</ele><time>2026-04-19T16:03:36.001Z</time></trkpt><trkpt lat="38.02074658681093" lon="14.444650816566625"><ele>324.5</ele><time>2026-04-19T16:03:37.001Z</time></trkpt><trkpt lat="38.02088035038153" lon="14.44497853446028"><ele>350.0</ele><time>2026-04-19T16:03:38.001Z</time></trkpt><trkpt lat="38.021027210841" lon="14.44524976487506"><ele>354.0</ele><time>2026-04-19T16:03:39.001Z</time></trkpt><trkpt lat="38.021142198149775" lon="14.445576848859465"><ele>358.0</ele><time>2026-04-19T16:03:40.001Z</time></trkpt><trkpt lat="38.02127067209224" lon="14.445879050849564"><ele>358.0</ele><time>2026-04-19T16:03:41.001Z</time></trkpt><trkpt lat="38.021418698489356" lon="14.446184713309641"><ele>358.0</ele><time>2026-04-19T16:03:42.001Z</time></trkpt><trkpt lat="38.02157155474629" lon="14.446489786362985"><ele>365.0</ele><time>2026-04-19T16:03:43.001Z</time></trkpt><trkpt lat="38.021718206658846" lon="14.446798613014815"><ele>372.0</ele><time>2026-04-19T16:03:44.001Z</time></trkpt><trkpt lat="38.02184431400096" lon="14.447081133884799"><ele>373.0</ele><time>2026-04-19T16:03:45.001Z</time></trkpt><trkpt lat="38.021998981757086" lon="14.44735424260786"><ele>374.0</ele><time>2026-04-19T16:03:46.001Z</time></trkpt><trkpt lat="38.02213412803105" lon="14.447648708834501"><ele>374.0</ele><time>2026-04-19T16:03:47.001Z</time></trkpt><trkpt lat="38.02223237193994" lon="14.44788013665623"><ele>374.0</ele><time>2026-04-19T16:03:48.001Z</time></trkpt><trkpt lat="38.02235872871785" lon="14.44814905594404"><ele>369.33333333333337</ele><time>2026-04-19T16:03:49.001Z</time></trkpt><trkpt lat="38.02249984254259" lon="14.448445796572685"><ele>364.6666666666667</ele><time>2026-04-19T16:03:50.001Z</time></trkpt><trkpt lat="38.02255178188122" lon="14.448607857942484"><ele>360.0</ele><time>2026-04-19T16:03:51.001Z</time></trkpt><trkpt lat="38.02257521662306" lon="14.44873052254624"><ele>358.3333333333333</ele><time>2026-04-19T16:03:52.001Z</time></trkpt><trkpt lat="38.02263032989366" lon="14.44891866171861"><ele>356.66666666666663</ele><time>2026-04-19T16:03:53.001Z</time></trkpt><trkpt lat="38.02272272751417" lon="14.44917831465539"><ele>355.0</ele><time>2026-04-19T16:03:54.001Z</time></trkpt><trkpt lat="38.022825791502065" lon="14.449460425170969"><ele>361.0</ele><time>2026-04-19T16:03:55.001Z</time></trkpt><trkpt lat="38.02293239484831" lon="14.449752091258063"><ele>367.0</ele><time>2026-04-19T16:03:56.001Z</time></trkpt><trkpt lat="38.02303595188242" lon="14.45005320226556"><ele>171.0</ele><time>2026-04-19T16:03:57.015Z</time></trkpt><trkpt lat="38.02472493311243" lon="14.458928537046988"><ele>171.0</ele><time>2026-04-19T16:04:20.001Z</time></trkpt><trkpt lat="38.02474880086725" lon="14.45928890923448"><ele>171.0</ele><time>2026-04-19T16:04:21.001Z</time></trkpt><trkpt lat="38.02486786508901" lon="14.459632154682799"><ele>164.5</ele><time>2026-04-19T16:04:22.001Z</time></trkpt><trkpt lat="38.02491550677584" lon="14.459993893130251"><ele>158.0</ele><time>2026-04-19T16:04:23.001Z</time></trkpt><trkpt lat="38.02491976532484" lon="14.460352607591773"><ele>150.5</ele><time>2026-04-19T16:04:24.001Z</time></trkpt><trkpt lat="38.024918544784704" lon="14.460710997025767"><ele>143.0</ele><time>2026-04-19T16:04:25.001Z</time></trkpt><trkpt lat="38.02491509480266" lon="14.461075200838598"><ele>144.0</ele><time>2026-04-19T16:04:26Z</time></trkpt><trkpt lat="38.02491350806744" lon="14.461438668187963"><ele>145.0</ele><time>2026-04-19T16:04:27Z</time></trkpt><trkpt lat="38.02491385035649" lon="14.461804073941575"><ele>148.5</ele><time>2026-04-19T16:04:28Z</time></trkpt><trkpt lat="38.02491588567782" lon="14.462168505601962"><ele>152.0</ele><time>2026-04-19T16:04:29Z</time></trkpt><trkpt lat="38.02492002468874" lon="14.46253456978298"><ele>152.0</ele><time>2026-04-19T16:04:30Z</time></trkpt><trkpt lat="38.0249258357474" lon="14.46290297219639"><ele>152.0</ele><time>2026-04-19T16:04:31Z</time></trkpt><trkpt lat="38.02493187100855" lon="14.46327180464947"><ele>154.0</ele><time>2026-04-19T16:04:32Z</time></trkpt><trkpt lat="38.02494217050203" lon="14.463644267968224"><ele>156.0</ele><time>2026-04-19T16:04:33Z</time></trkpt><trkpt lat="38.02496344394873" lon="14.464016795133453"><ele>155.0</ele><time>2026-04-19T16:04:34Z</time></trkpt><trkpt lat="38.02499023281733" lon="14.464387727755744"><ele>154.0</ele><time>2026-04-19T16:04:35Z</time></trkpt><trkpt lat="38.02502488261792" lon="14.464754466716121"><ele>154.0</ele><time>2026-04-19T16:04:36Z</time></trkpt><trkpt lat="38.02506174786706" lon="14.465121153324969"><ele>154.0</ele><time>2026-04-19T16:04:37Z</time></trkpt><trkpt lat="38.025100505362985" lon="14.465488504746387"><ele>155.5</ele><time>2026-04-19T16:04:38Z</time></trkpt><trkpt lat="38.02513691645517" lon="14.465857063195314"><ele>157.0</ele><time>2026-04-19T16:04:39Z</time></trkpt><trkpt lat="38.025178492038904" lon="14.466226009478193"><ele>157.0</ele><time>2026-04-19T16:04:40Z</time></trkpt><trkpt lat="38.02522050469195" lon="14.46659598964149"><ele>157.0</ele><time>2026-04-19T16:04:41Z</time></trkpt><trkpt lat="38.02528344631216" lon="14.46697361545344"><ele>156.0</ele><time>2026-04-19T16:04:42Z</time></trkpt><trkpt lat="38.02532400733395" lon="14.467336987242453"><ele>155.0</ele><time>2026-04-19T16:04:43Z</time></trkpt><trkpt lat="38.02535706879672" lon="14.467702119685377"><ele>152.0</ele><time>2026-04-19T16:04:44Z</time></trkpt><trkpt lat="38.02539523515071" lon="14.468068235937668"><ele>149.0</ele><time>2026-04-19T16:04:45Z</time></trkpt><trkpt lat="38.025436587480755" lon="14.46843003860528"><ele>149.5</ele><time>2026-04-19T16:04:46Z</time></trkpt><trkpt lat="38.02547935072124" lon="14.468789875263113"><ele>150.0</ele><time>2026-04-19T16:04:47Z</time></trkpt><trkpt lat="38.025518634969046" lon="14.469149239651122"><ele>150.0</ele><time>2026-04-19T16:04:48Z</time></trkpt><trkpt lat="38.02556128864786" lon="14.46950210603167"><ele>150.0</ele><time>2026-04-19T16:04:49Z</time></trkpt><trkpt lat="38.02560174708473" lon="14.469856530493246"><ele>152.5</ele><time>2026-04-19T16:04:50Z</time></trkpt><trkpt lat="38.02563846230251" lon="14.470214728905493"><ele>155.0</ele><time>2026-04-19T16:04:51Z</time></trkpt><trkpt lat="38.02567467386584" lon="14.470567286509779"><ele>158.0</ele><time>2026-04-19T16:04:52Z</time></trkpt><trkpt lat="38.02571676155704" lon="14.470919713612181"><ele>161.0</ele><time>2026-04-19T16:04:53Z</time></trkpt><trkpt lat="38.025758094938006" lon="14.471269803731678"><ele>160.5</ele><time>2026-04-19T16:04:54Z</time></trkpt><trkpt lat="38.02579319481559" lon="14.4716197488481"><ele>160.0</ele><time>2026-04-19T16:04:55Z</time></trkpt><trkpt lat="38.02582736218103" lon="14.471965536167854"><ele>147.0</ele><time>2026-04-19T16:04:56Z</time></trkpt><trkpt lat="38.02585978276351" lon="14.472293667563358"><ele>134.0</ele><time>2026-04-19T16:04:57Z</time></trkpt><trkpt lat="38.02588973866873" lon="14.472614174361295"><ele>134.0</ele><time>2026-04-19T16:04:58Z</time></trkpt><trkpt lat="38.02591640818304" lon="14.472928344922755"><ele>134.0</ele><time>2026-04-19T16:04:59Z</time></trkpt><trkpt lat="38.02594007987031" lon="14.473244948459316"><ele>134.0</ele><time>2026-04-19T16:05:00Z</time></trkpt><trkpt lat="38.0259550552103" lon="14.473559756438542"><ele>134.0</ele><time>2026-04-19T16:05:01Z</time></trkpt><trkpt lat="38.025962395645756" lon="14.473878302337575"><ele>131.5</ele><time>2026-04-19T16:05:02Z</time></trkpt><trkpt lat="38.02596585838651" lon="14.474198152490523"><ele>129.0</ele><time>2026-04-19T16:05:03Z</time></trkpt><trkpt lat="38.02596121849247" lon="14.474519784058266"><ele>127.0</ele><time>2026-04-19T16:05:04Z</time></trkpt><trkpt lat="38.025950088996844" lon="14.474840368720127"><ele>125.0</ele><time>2026-04-19T16:05:05Z</time></trkpt><trkpt lat="38.025932566678065" lon="14.475162045939157"><ele>121.5</ele><time>2026-04-19T16:05:06Z</time></trkpt><trkpt lat="38.02590652396081" lon="14.475482846795138"><ele>118.0</ele><time>2026-04-19T16:05:07Z</time></trkpt><trkpt lat="38.025872209366526" lon="14.475800482474915"><ele>118.0</ele><time>2026-04-19T16:05:08Z</time></trkpt><trkpt lat="38.02583181011331" lon="14.476115240368772"><ele>118.0</ele><time>2026-04-19T16:05:09Z</time></trkpt><trkpt lat="38.02578228518332" lon="14.476430020219377"><ele>120.0</ele><time>2026-04-19T16:05:10Z</time></trkpt><trkpt lat="38.025729815333655" lon="14.476736502979138"><ele>122.0</ele><time>2026-04-19T16:05:11Z</time></trkpt><trkpt lat="38.025668141887905" lon="14.477042099075234"><ele>124.5</ele><time>2026-04-19T16:05:12Z</time></trkpt><trkpt lat="38.025600263405025" lon="14.47734409340941"><ele>127.0</ele><time>2026-04-19T16:05:13Z</time></trkpt><trkpt lat="38.025523580241604" lon="14.477641392999875"><ele>130.5</ele><time>2026-04-19T16:05:14Z</time></trkpt><trkpt lat="38.02544283698554" lon="14.477936040498205"><ele>134.0</ele><time>2026-04-19T16:05:15Z</time></trkpt><trkpt lat="38.025356250378316" lon="14.478224280418015"><ele>134.0</ele><time>2026-04-19T16:05:16Z</time></trkpt><trkpt lat="38.025268065145326" lon="14.4785131216381"><ele>134.0</ele><time>2026-04-19T16:05:17Z</time></trkpt><trkpt lat="38.02516722291338" lon="14.478799089702983"><ele>133.0</ele><time>2026-04-19T16:05:18Z</time></trkpt><trkpt lat="38.02505986012075" lon="14.479083590693442"><ele>132.0</ele><time>2026-04-19T16:05:19Z</time></trkpt><trkpt lat="38.02494346022192" lon="14.479361124333478"><ele>124.0</ele><time>2026-04-19T16:05:20.001Z</time></trkpt><trkpt lat="38.02482837358768" lon="14.479638566419677"><ele>116.0</ele><time>2026-04-19T16:05:21.001Z</time></trkpt><trkpt lat="38.02470787715134" lon="14.479910466592539"><ele>116.0</ele><time>2026-04-19T16:05:22.001Z</time></trkpt><trkpt lat="38.02458300794652" lon="14.48018292367513"><ele>116.0</ele><time>2026-04-19T16:05:23.001Z</time></trkpt><trkpt lat="38.0244590722896" lon="14.480454677349929"><ele>114.0</ele><time>2026-04-19T16:05:24.001Z</time></trkpt><trkpt lat="38.02433516464462" lon="14.480726872051553"><ele>112.0</ele><time>2026-04-19T16:05:25.001Z</time></trkpt><trkpt lat="38.02421717070642" lon="14.481000097061381"><ele>108.0</ele><time>2026-04-19T16:05:26.001Z</time></trkpt><trkpt lat="38.02409722379643" lon="14.481280003537712"><ele>104.0</ele><time>2026-04-19T16:05:27.001Z</time></trkpt><trkpt lat="38.023983562344156" lon="14.4815607093035"><ele>104.0</ele><time>2026-04-19T16:05:28.001Z</time></trkpt><trkpt lat="38.023872210865385" lon="14.481848900134525"><ele>104.0</ele><time>2026-04-19T16:05:29.001Z</time></trkpt><trkpt lat="38.02377089572321" lon="14.482140632991413"><ele>99.5</ele><time>2026-04-19T16:05:30.001Z</time></trkpt><trkpt lat="38.02367317437061" lon="14.482440319963368"><ele>95.0</ele><time>2026-04-19T16:05:31.001Z</time></trkpt><trkpt lat="38.02358432737332" lon="14.482747086610969"><ele>90.0</ele><time>2026-04-19T16:05:32.001Z</time></trkpt><trkpt lat="38.023507183646856" lon="14.48306210830798"><ele>85.0</ele><time>2026-04-19T16:05:33.001Z</time></trkpt><trkpt lat="38.02343861551583" lon="14.483378624495828"><ele>85.0</ele><time>2026-04-19T16:05:34.001Z</time></trkpt><trkpt lat="38.023381322845104" lon="14.483697401303367"><ele>85.0</ele><time>2026-04-19T16:05:35.001Z</time></trkpt><trkpt lat="38.02332803931704" lon="14.484012401813112"><ele>84.5</ele><time>2026-04-19T16:05:36.001Z</time></trkpt><trkpt lat="38.02328782439395" lon="14.48433071891933"><ele>84.0</ele><time>2026-04-19T16:05:37.001Z</time></trkpt><trkpt lat="38.023251684707496" lon="14.484653898814093"><ele>79.5</ele><time>2026-04-19T16:05:38.001Z</time></trkpt><trkpt lat="38.02322648647126" lon="14.4849750020679"><ele>75.0</ele><time>2026-04-19T16:05:39.001Z</time></trkpt><trkpt lat="38.02321186831857" lon="14.485291657367956"><ele>67.5</ele><time>2026-04-19T16:05:40.001Z</time></trkpt><trkpt lat="38.02320672061936" lon="14.485611920042091"><ele>60.0</ele><time>2026-04-19T16:05:41.001Z</time></trkpt><trkpt lat="38.02321507019944" lon="14.48592522757954"><ele>60.0</ele><time>2026-04-19T16:05:42.001Z</time></trkpt><trkpt lat="38.023229191919036" lon="14.486236605813609"><ele>60.0</ele><time>2026-04-19T16:05:43.001Z</time></trkpt><trkpt lat="38.02325017570794" lon="14.486546851153712"><ele>57.0</ele><time>2026-04-19T16:05:44.001Z</time></trkpt><trkpt lat="38.023279386769836" lon="14.486854459914051"><ele>54.0</ele><time>2026-04-19T16:05:45.001Z</time></trkpt><trkpt lat="38.023315878591994" lon="14.487157158018832"><ele>61.5</ele><time>2026-04-19T16:05:46.001Z</time></trkpt><trkpt lat="38.023359706800164" lon="14.487456083559854"><ele>69.0</ele><time>2026-04-19T16:05:47.001Z</time></trkpt><trkpt lat="38.02340692518627" lon="14.4877544312161"><ele>75.5</ele><time>2026-04-19T16:05:48.001Z</time></trkpt><trkpt lat="38.02346668313974" lon="14.488048929399636"><ele>82.0</ele><time>2026-04-19T16:05:49.001Z</time></trkpt><trkpt lat="38.023533226456" lon="14.488341460835908"><ele>82.0</ele><time>2026-04-19T16:05:50.001Z</time></trkpt><trkpt lat="38.02360950142681" lon="14.488639397074703"><ele>82.0</ele><time>2026-04-19T16:05:51.001Z</time></trkpt><trkpt lat="38.0236687329807" lon="14.488938644455905"><ele>86.5</ele><time>2026-04-19T16:05:52.001Z</time></trkpt><trkpt lat="38.02378798745083" lon="14.489222489056399"><ele>91.0</ele><time>2026-04-19T16:05:53.001Z</time></trkpt><trkpt lat="38.023884196211256" lon="14.489515020504323"><ele>96.0</ele><time>2026-04-19T16:05:54.001Z</time></trkpt><trkpt lat="38.02399653708053" lon="14.489785133344927"><ele>101.0</ele><time>2026-04-19T16:05:55.001Z</time></trkpt><trkpt lat="38.02411446700204" lon="14.490069930820566"><ele>98.5</ele><time>2026-04-19T16:05:56.001Z</time></trkpt><trkpt lat="38.024231862183704" lon="14.490336851337126"><ele>96.0</ele><time>2026-04-19T16:05:57.001Z</time></trkpt><trkpt lat="38.024360205201134" lon="14.490603965884857"><ele>101.0</ele><time>2026-04-19T16:05:58.001Z</time></trkpt><trkpt lat="38.024497919251715" lon="14.490860533315402"><ele>106.0</ele><time>2026-04-19T16:05:59.001Z</time></trkpt><trkpt lat="38.02464066143442" lon="14.491108429230207"><ele>112.0</ele><time>2026-04-19T16:06:00.001Z</time></trkpt><trkpt lat="38.024788800589974" lon="14.491351743686128"><ele>118.0</ele><time>2026-04-19T16:06:01.001Z</time></trkpt><trkpt lat="38.02494065061121" lon="14.491588827205534"><ele>116.5</ele><time>2026-04-19T16:06:02.001Z</time></trkpt><trkpt lat="38.02510057889687" lon="14.49182135099163"><ele>115.0</ele><time>2026-04-19T16:06:03.001Z</time></trkpt><trkpt lat="38.025268223574265" lon="14.49204685139868"><ele>118.5</ele><time>2026-04-19T16:06:04.001Z</time></trkpt><trkpt lat="38.0254423834975" lon="14.492263571769982"><ele>122.0</ele><time>2026-04-19T16:06:05.001Z</time></trkpt><trkpt lat="38.02562314101361" lon="14.492475513487088"><ele>122.0</ele><time>2026-04-19T16:06:06.001Z</time></trkpt><trkpt lat="38.025809669501044" lon="14.49267566110558"><ele>122.0</ele><time>2026-04-19T16:06:07.001Z</time></trkpt><trkpt lat="38.02599865775248" lon="14.492868823105349"><ele>124.0</ele><time>2026-04-19T16:06:08.001Z</time></trkpt><trkpt lat="38.02619307064793" lon="14.49306202469283"><ele>126.0</ele><time>2026-04-19T16:06:09.001Z</time></trkpt><trkpt lat="38.0263818182522" lon="14.493254277890323"><ele>126.0</ele><time>2026-04-19T16:06:10.001Z</time></trkpt><trkpt lat="38.02656879458426" lon="14.49344786436092"><ele>126.0</ele><time>2026-04-19T16:06:11.001Z</time></trkpt><trkpt lat="38.02675501076971" lon="14.493641271814052"><ele>127.5</ele><time>2026-04-19T16:06:12.001Z</time></trkpt><trkpt lat="38.02693665670001" lon="14.493837338703768"><ele>129.0</ele><time>2026-04-19T16:06:13.001Z</time></trkpt><trkpt lat="38.02712000314737" lon="14.494036933472813"><ele>129.0</ele><time>2026-04-19T16:06:14.001Z</time></trkpt><trkpt lat="38.02729820417816" lon="14.494238935514018"><ele>129.0</ele><time>2026-04-19T16:06:15.001Z</time></trkpt><trkpt lat="38.027476266775636" lon="14.494447291319087"><ele>127.0</ele><time>2026-04-19T16:06:16.001Z</time></trkpt><trkpt lat="38.02764891262819" lon="14.49466024286943"><ele>125.0</ele><time>2026-04-19T16:06:17.001Z</time></trkpt><trkpt lat="38.027820838003684" lon="14.49487695234468"><ele>125.0</ele><time>2026-04-19T16:06:18.001Z</time></trkpt><trkpt lat="38.027991393900535" lon="14.49509887282016"><ele>125.0</ele><time>2026-04-19T16:06:19.001Z</time></trkpt><trkpt lat="38.028158143664456" lon="14.49532397736024"><ele>127.0</ele><time>2026-04-19T16:06:20.001Z</time></trkpt><trkpt lat="38.028318370083035" lon="14.495557803351744"><ele>129.0</ele><time>2026-04-19T16:06:21.001Z</time></trkpt><trkpt lat="38.028476319541525" lon="14.495795119545644"><ele>129.0</ele><time>2026-04-19T16:06:22.001Z</time></trkpt><trkpt lat="38.028626260048796" lon="14.496029052717867"><ele>129.0</ele><time>2026-04-19T16:06:23.001Z</time></trkpt><trkpt lat="38.02878259531616" lon="14.496268407653764"><ele>133.0</ele><time>2026-04-19T16:06:24.001Z</time></trkpt><trkpt lat="38.02893476036647" lon="14.496528512994658"><ele>137.0</ele><time>2026-04-19T16:06:25.001Z</time></trkpt><trkpt lat="38.0290846657613" lon="14.496788185482936"><ele>137.0</ele><time>2026-04-19T16:06:26.001Z</time></trkpt><trkpt lat="38.02922801508418" lon="14.497058699375097"><ele>137.0</ele><time>2026-04-19T16:06:27.001Z</time></trkpt><trkpt lat="38.029372462423254" lon="14.497331696151432"><ele>137.0</ele><time>2026-04-19T16:06:28.002Z</time></trkpt><trkpt lat="38.029512706987525" lon="14.497611400833415"><ele>137.0</ele><time>2026-04-19T16:06:29.002Z</time></trkpt><trkpt lat="38.02965116652915" lon="14.49789593503389"><ele>139.5</ele><time>2026-04-19T16:06:30.002Z</time></trkpt><trkpt lat="38.029779655000354" lon="14.498182608708277"><ele>142.0</ele><time>2026-04-19T16:06:31Z</time></trkpt><trkpt lat="38.029906813565425" lon="14.498474437476599"><ele>139.0</ele><time>2026-04-19T16:06:32Z</time></trkpt><trkpt lat="38.030033619516665" lon="14.49876848026231"><ele>136.0</ele><time>2026-04-19T16:06:33Z</time></trkpt><trkpt lat="38.03015488338222" lon="14.49906423671831"><ele>136.0</ele><time>2026-04-19T16:06:34Z</time></trkpt><trkpt lat="38.030260863294174" lon="14.499363039073147"><ele>136.0</ele><time>2026-04-19T16:06:35Z</time></trkpt><trkpt lat="38.03036547194393" lon="14.499664035247363"><ele>138.5</ele><time>2026-04-19T16:06:36Z</time></trkpt><trkpt lat="38.03046640300605" lon="14.499961415610825"><ele>141.0</ele><time>2026-04-19T16:06:37Z</time></trkpt><trkpt lat="38.03056057619938" lon="14.50026587955482"><ele>145.0</ele><time>2026-04-19T16:06:38Z</time></trkpt><trkpt lat="38.03064696727242" lon="14.500571371970288"><ele>149.0</ele><time>2026-04-19T16:06:39Z</time></trkpt><trkpt lat="38.03072899505645" lon="14.500877968423252"><ele>149.0</ele><time>2026-04-19T16:06:40Z</time></trkpt><trkpt lat="38.03080700960677" lon="14.501180864101048"><ele>149.0</ele><time>2026-04-19T16:06:41Z</time></trkpt><trkpt lat="38.030883486500045" lon="14.501486282349743"><ele>146.0</ele><time>2026-04-19T16:06:42Z</time></trkpt><trkpt lat="38.030952574542944" lon="14.501786261170238"><ele>143.0</ele><time>2026-04-19T16:06:43Z</time></trkpt><trkpt lat="38.03101438932239" lon="14.502091048888554"><ele>143.0</ele><time>2026-04-19T16:06:44Z</time></trkpt><trkpt lat="38.03106973535215" lon="14.502393891205976"><ele>143.0</ele><time>2026-04-19T16:06:45Z</time></trkpt><trkpt lat="38.03112436799661" lon="14.50269546432457"><ele>142.5</ele><time>2026-04-19T16:06:46Z</time></trkpt><trkpt lat="38.03116684946571" lon="14.502990829874964"><ele>142.0</ele><time>2026-04-19T16:06:47Z</time></trkpt><trkpt lat="38.031209984202555" lon="14.50329598983113"><ele>142.0</ele><time>2026-04-19T16:06:48Z</time></trkpt><trkpt lat="38.031248111326114" lon="14.503594261096849"><ele>142.0</ele><time>2026-04-19T16:06:49Z</time></trkpt><trkpt lat="38.031277163874925" lon="14.503895680239337"><ele>145.0</ele><time>2026-04-19T16:06:50Z</time></trkpt><trkpt lat="38.031313579867295" lon="14.504202129460761"><ele>148.0</ele><time>2026-04-19T16:06:51Z</time></trkpt><trkpt lat="38.031334269292635" lon="14.504504171003028"><ele>151.5</ele><time>2026-04-19T16:06:52Z</time></trkpt><trkpt lat="38.03135547847111" lon="14.504806322006251"><ele>155.0</ele><time>2026-04-19T16:06:53Z</time></trkpt><trkpt lat="38.03136876759616" lon="14.505109037260977"><ele>155.5</ele><time>2026-04-19T16:06:54Z</time></trkpt><trkpt lat="38.03137880806141" lon="14.505415256932675"><ele>156.0</ele><time>2026-04-19T16:06:55Z</time></trkpt><trkpt lat="38.031386452261415" lon="14.50571857982461"><ele>156.0</ele><time>2026-04-19T16:06:56Z</time></trkpt><trkpt lat="38.03138932652034" lon="14.50602559252512"><ele>156.0</ele><time>2026-04-19T16:06:57Z</time></trkpt><trkpt lat="38.03138583816334" lon="14.506332793463152"><ele>156.5</ele><time>2026-04-19T16:06:58Z</time></trkpt><trkpt lat="38.031376164450954" lon="14.506639048786198"><ele>157.0</ele><time>2026-04-19T16:06:59Z</time></trkpt><trkpt lat="38.031361774048406" lon="14.506942988808397"><ele>156.5</ele><time>2026-04-19T16:07:00Z</time></trkpt><trkpt lat="38.03134428445101" lon="14.50724826243491"><ele>156.0</ele><time>2026-04-19T16:07:01Z</time></trkpt><trkpt lat="38.03132145489283" lon="14.507554087017327"><ele>156.0</ele><time>2026-04-19T16:07:02Z</time></trkpt><trkpt lat="38.03129397682905" lon="14.507857749472686"><ele>156.0</ele><time>2026-04-19T16:07:03Z</time></trkpt><trkpt lat="38.03126188304084" lon="14.508163547319581"><ele>155.5</ele><time>2026-04-19T16:07:04.001Z</time></trkpt><trkpt lat="38.03122598919694" lon="14.508470046075129"><ele>155.0</ele><time>2026-04-19T16:07:05.001Z</time></trkpt><trkpt lat="38.03118677279131" lon="14.508774330149219"><ele>153.0</ele><time>2026-04-19T16:07:06.001Z</time></trkpt><trkpt lat="38.03114349339578" lon="14.509083261663344"><ele>151.0</ele><time>2026-04-19T16:07:07.001Z</time></trkpt><trkpt lat="38.03109735465203" lon="14.50939235887807"><ele>150.5</ele><time>2026-04-19T16:07:08.001Z</time></trkpt><trkpt lat="38.03105166406226" lon="14.509702746748893"><ele>150.0</ele><time>2026-04-19T16:07:09.001Z</time></trkpt><trkpt lat="38.03100848565432" lon="14.510012756455986"><ele>150.0</ele><time>2026-04-19T16:07:10.001Z</time></trkpt><trkpt lat="38.03096577263069" lon="14.510323676604289"><ele>150.0</ele><time>2026-04-19T16:07:11.001Z</time></trkpt><trkpt lat="38.03092385682544" lon="14.510640473611417"><ele>153.0</ele><time>2026-04-19T16:07:12.001Z</time></trkpt><trkpt lat="38.03087983792544" lon="14.510957049125226"><ele>156.0</ele><time>2026-04-19T16:07:13.001Z</time></trkpt><trkpt lat="38.03083550384583" lon="14.511276837290225"><ele>167.5</ele><time>2026-04-19T16:07:14.001Z</time></trkpt><trkpt lat="38.03079355386832" lon="14.51159887927719"><ele>179.0</ele><time>2026-04-19T16:07:15.001Z</time></trkpt><trkpt lat="38.03075579195164" lon="14.511922974561363"><ele>182.0</ele><time>2026-04-19T16:07:16.001Z</time></trkpt><trkpt lat="38.030722668326376" lon="14.512244110763847"><ele>185.0</ele><time>2026-04-19T16:07:17.001Z</time></trkpt><trkpt lat="38.030694435537654" lon="14.512566396521544"><ele>185.0</ele><time>2026-04-19T16:07:18.001Z</time></trkpt><trkpt lat="38.03066702448201" lon="14.512893468492164"><ele>185.0</ele><time>2026-04-19T16:07:19.001Z</time></trkpt><trkpt lat="38.03063984304824" lon="14.51321226004336"><ele>183.5</ele><time>2026-04-19T16:07:20.001Z</time></trkpt><trkpt lat="38.030632223501755" lon="14.513540417193402"><ele>182.0</ele><time>2026-04-19T16:07:21.001Z</time></trkpt><trkpt lat="38.03063361043393" lon="14.51386430339672"><ele>176.0</ele><time>2026-04-19T16:07:22.001Z</time></trkpt><trkpt lat="38.030701208533316" lon="14.514191668203004"><ele>170.0</ele><time>2026-04-19T16:07:23.001Z</time></trkpt><trkpt lat="38.03071900372014" lon="14.514519670659919"><ele>163.0</ele><time>2026-04-19T16:07:24.001Z</time></trkpt><trkpt lat="38.03074042176067" lon="14.514852548284304"><ele>156.0</ele><time>2026-04-19T16:07:25.001Z</time></trkpt><trkpt lat="38.03074263020467" lon="14.515172213362154"><ele>154.5</ele><time>2026-04-19T16:07:26.001Z</time></trkpt><trkpt lat="38.03076885133257" lon="14.515490685804112"><ele>153.0</ele><time>2026-04-19T16:07:27.001Z</time></trkpt><trkpt lat="38.03081098124612" lon="14.515805325354112"><ele>148.0</ele><time>2026-04-19T16:07:28.001Z</time></trkpt><trkpt lat="38.03085536040452" lon="14.516125309945416"><ele>143.0</ele><time>2026-04-19T16:07:29.001Z</time></trkpt><trkpt lat="38.03091303705548" lon="14.516455887814839"><ele>143.0</ele><time>2026-04-19T16:07:30.001Z</time></trkpt><trkpt lat="38.03097342295552" lon="14.516773917033706"><ele>143.0</ele><time>2026-04-19T16:07:31.001Z</time></trkpt><trkpt lat="38.03103853818484" lon="14.517093228177567"><ele>149.0</ele><time>2026-04-19T16:07:32.001Z</time></trkpt><trkpt lat="38.03110631826525" lon="14.517413657368335"><ele>155.0</ele><time>2026-04-19T16:07:33.001Z</time></trkpt><trkpt lat="38.031183141165485" lon="14.517733038128199"><ele>154.0</ele><time>2026-04-19T16:07:34.001Z</time></trkpt><trkpt lat="38.03126405514064" lon="14.518049739204585"><ele>153.0</ele><time>2026-04-19T16:07:35.001Z</time></trkpt><trkpt lat="38.031350276520335" lon="14.518364884909133"><ele>153.0</ele><time>2026-04-19T16:07:36.001Z</time></trkpt><trkpt lat="38.03144939820043" lon="14.51868188513049"><ele>153.0</ele><time>2026-04-19T16:07:37.001Z</time></trkpt><trkpt lat="38.03155152702154" lon="14.51899589899911"><ele>151.5</ele><time>2026-04-19T16:07:38.001Z</time></trkpt><trkpt lat="38.03165623073164" lon="14.519305356247292"><ele>150.0</ele><time>2026-04-19T16:07:39.001Z</time></trkpt><trkpt lat="38.03176368926537" lon="14.519613984181658"><ele>153.5</ele><time>2026-04-19T16:07:40.001Z</time></trkpt><trkpt lat="38.03187228488663" lon="14.519917202129395"><ele>157.0</ele><time>2026-04-19T16:07:41.001Z</time></trkpt><trkpt lat="38.03198248812953" lon="14.520216297957004"><ele>160.5</ele><time>2026-04-19T16:07:42.001Z</time></trkpt><trkpt lat="38.03209078587195" lon="14.520511686273583"><ele>164.0</ele><time>2026-04-19T16:07:43.001Z</time></trkpt><trkpt lat="38.032199830485396" lon="14.520806371555722"><ele>164.0</ele><time>2026-04-19T16:07:44.001Z</time></trkpt><trkpt lat="38.03230771475597" lon="14.521098863218997"><ele>164.0</ele><time>2026-04-19T16:07:45.001Z</time></trkpt><trkpt lat="38.03241142786275" lon="14.521391356209133"><ele>157.5</ele><time>2026-04-19T16:07:46.001Z</time></trkpt><trkpt lat="38.03250835791611" lon="14.521681956853161"><ele>151.0</ele><time>2026-04-19T16:07:47.001Z</time></trkpt><trkpt lat="38.03260464558017" lon="14.52197154478937"><ele>153.0</ele><time>2026-04-19T16:07:48.001Z</time></trkpt><trkpt lat="38.03269933201325" lon="14.522258272733248"><ele>155.0</ele><time>2026-04-19T16:07:49.001Z</time></trkpt><trkpt lat="38.03279118826471" lon="14.522543805235582"><ele>155.0</ele><time>2026-04-19T16:07:50.001Z</time></trkpt><trkpt lat="38.032876820712666" lon="14.52282841002473"><ele>155.0</ele><time>2026-04-19T16:07:51.001Z</time></trkpt><trkpt lat="38.03295766689786" lon="14.523119288082007"><ele>159.0</ele><time>2026-04-19T16:07:52.001Z</time></trkpt><trkpt lat="38.03303360797814" lon="14.523412195458025"><ele>163.0</ele><time>2026-04-19T16:07:53.001Z</time></trkpt><trkpt lat="38.03310507871523" lon="14.523710976137464"><ele>170.0</ele><time>2026-04-19T16:07:54.001Z</time></trkpt><trkpt lat="38.03316964498279" lon="14.524011176275133"><ele>177.0</ele><time>2026-04-19T16:07:55.001Z</time></trkpt><trkpt lat="38.03322916008613" lon="14.52431235723396"><ele>180.0</ele><time>2026-04-19T16:07:56.001Z</time></trkpt><trkpt lat="38.03328641436351" lon="14.524618182223598"><ele>183.0</ele><time>2026-04-19T16:07:57.001Z</time></trkpt><trkpt lat="38.03333761610202" lon="14.524920492625752"><ele>175.0</ele><time>2026-04-19T16:07:58.001Z</time></trkpt><trkpt lat="38.03338333205055" lon="14.525220429840301"><ele>167.0</ele><time>2026-04-19T16:07:59.001Z</time></trkpt><trkpt lat="38.03345792084368" lon="14.5255170781434"><ele>166.0</ele><time>2026-04-19T16:08:00.001Z</time></trkpt><trkpt lat="38.03352070397051" lon="14.525804556508623"><ele>165.0</ele><time>2026-04-19T16:08:01.001Z</time></trkpt><trkpt lat="38.033577556672135" lon="14.526094313463952"><ele>167.5</ele><time>2026-04-19T16:08:02.001Z</time></trkpt><trkpt lat="38.03363604187138" lon="14.526382159209385"><ele>170.0</ele><time>2026-04-19T16:08:03.001Z</time></trkpt><trkpt lat="38.033697659636594" lon="14.526672776479073"><ele>170.0</ele><time>2026-04-19T16:08:04.001Z</time></trkpt><trkpt lat="38.03376046668505" lon="14.5269548181448"><ele>170.0</ele><time>2026-04-19T16:08:05.001Z</time></trkpt><trkpt lat="38.03382978479179" lon="14.527242654206871"><ele>172.5</ele><time>2026-04-19T16:08:06.001Z</time></trkpt><trkpt lat="38.03390468797745" lon="14.527524492486501"><ele>175.0</ele><time>2026-04-19T16:08:07.001Z</time></trkpt><trkpt lat="38.03398308252196" lon="14.527807905235662"><ele>175.0</ele><time>2026-04-19T16:08:08.001Z</time></trkpt><trkpt lat="38.03407000639967" lon="14.528084307231264"><ele>175.0</ele><time>2026-04-19T16:08:09.001Z</time></trkpt><trkpt lat="38.03416223716004" lon="14.528356620940196"><ele>172.0</ele><time>2026-04-19T16:08:10.001Z</time></trkpt><trkpt lat="38.03426210257164" lon="14.528630588322157"><ele>169.0</ele><time>2026-04-19T16:08:11.001Z</time></trkpt><trkpt lat="38.03436914325797" lon="14.528902836395503"><ele>169.0</ele><time>2026-04-19T16:08:12.001Z</time></trkpt><trkpt lat="38.034482651851405" lon="14.529171152130756"><ele>169.0</ele><time>2026-04-19T16:08:13.002Z</time></trkpt><trkpt lat="38.0346046610265" lon="14.52943657843643"><ele>175.5</ele><time>2026-04-19T16:08:14.002Z</time></trkpt><trkpt lat="38.034730395463164" lon="14.529700727237165"><ele>182.0</ele><time>2026-04-19T16:08:15.002Z</time></trkpt><trkpt lat="38.03486030163864" lon="14.529961147133118"><ele>176.5</ele><time>2026-04-19T16:08:16.002Z</time></trkpt><trkpt lat="38.03499373904882" lon="14.530219883749224"><ele>171.0</ele><time>2026-04-19T16:08:17.002Z</time></trkpt><trkpt lat="38.035129093026654" lon="14.530477037308234"><ele>171.0</ele><time>2026-04-19T16:08:18.002Z</time></trkpt><trkpt lat="38.03526392948964" lon="14.530735313582246"><ele>171.0</ele><time>2026-04-19T16:08:19.002Z</time></trkpt><trkpt lat="38.03539155701626" lon="14.530981673923986"><ele>171.0</ele><time>2026-04-19T16:08:20.002Z</time></trkpt><trkpt lat="38.03551239417293" lon="14.531220805489752"><ele>171.0</ele><time>2026-04-19T16:08:21.002Z</time></trkpt><trkpt lat="38.03563115152178" lon="14.531455153094761"><ele>171.0</ele><time>2026-04-19T16:08:22.002Z</time></trkpt><trkpt lat="38.0357416215444" lon="14.531674857936947"><ele>170.66666666666666</ele><time>2026-04-19T16:08:23.002Z</time></trkpt><trkpt lat="38.035846139743825" lon="14.531881516663566"><ele>170.33333333333331</ele><time>2026-04-19T16:08:24.002Z</time></trkpt><trkpt lat="38.03595093296897" lon="14.532084615968046"><ele>170.0</ele><time>2026-04-19T16:08:25.002Z</time></trkpt><trkpt lat="38.036052787433405" lon="14.532280836959814"><ele>170.0</ele><time>2026-04-19T16:08:26.002Z</time></trkpt><trkpt lat="38.0361529938308" lon="14.532476007712205"><ele>170.0</ele><time>2026-04-19T16:08:27.002Z</time></trkpt><trkpt lat="38.03625207095943" lon="14.532664047691421"><ele>170.0</ele><time>2026-04-19T16:08:28.002Z</time></trkpt><trkpt lat="38.036347683326944" lon="14.53284666009596"><ele>174.33333333333331</ele><time>2026-04-19T16:08:29.002Z</time></trkpt><trkpt lat="38.03644108019446" lon="14.53302675232653"><ele>178.66666666666666</ele><time>2026-04-19T16:08:30.002Z</time></trkpt><trkpt lat="38.03653361588292" lon="14.533206816003638"><ele>183.0</ele><time>2026-04-19T16:08:31.002Z</time></trkpt><trkpt lat="38.036626656339244" lon="14.533390350120632"><ele>180.33333333333334</ele><time>2026-04-19T16:08:32.002Z</time></trkpt><trkpt lat="38.03671896226006" lon="14.5335717626075"><ele>177.66666666666669</ele><time>2026-04-19T16:08:33.002Z</time></trkpt><trkpt lat="38.03680789372793" lon="14.533749480730942"><ele>175.0</ele><time>2026-04-19T16:08:34.002Z</time></trkpt><trkpt lat="38.03689388912438" lon="14.533921993343247"><ele>175.0</ele><time>2026-04-19T16:08:35.002Z</time></trkpt><trkpt lat="38.03697572878129" lon="14.534089125278573"><ele>175.0</ele><time>2026-04-19T16:08:36.002Z</time></trkpt><trkpt lat="38.03705861805781" lon="14.534245331576058"><ele>175.0</ele><time>2026-04-19T16:08:37Z</time></trkpt><trkpt lat="38.03715891810322" lon="14.534386903761952"><ele>175.0</ele><time>2026-04-19T16:08:38Z</time></trkpt><trkpt lat="38.0372712091371" lon="14.534513802269245"><ele>175.0</ele><time>2026-04-19T16:08:39Z</time></trkpt><trkpt lat="38.03739311489292" lon="14.534640628382151"><ele>175.0</ele><time>2026-04-19T16:08:40Z</time></trkpt><trkpt lat="38.03750541685621" lon="14.534790008628427"><ele>174.0</ele><time>2026-04-19T16:08:41Z</time></trkpt><trkpt lat="38.03760928876518" lon="14.534965353703024"><ele>173.0</ele><time>2026-04-19T16:08:42Z</time></trkpt><trkpt lat="38.03770871889" lon="14.535153762124525"><ele>172.0</ele><time>2026-04-19T16:08:43Z</time></trkpt><trkpt lat="38.0378106728672" lon="14.535338943205808"><ele>172.66666666666669</ele><time>2026-04-19T16:08:44Z</time></trkpt><trkpt lat="38.03791686960341" lon="14.535527473633257"><ele>173.33333333333334</ele><time>2026-04-19T16:08:45Z</time></trkpt><trkpt lat="38.038028149549625" lon="14.535718347618229"><ele>174.0</ele><time>2026-04-19T16:08:46Z</time></trkpt><trkpt lat="38.038137811202375" lon="14.535913658209767"><ele>174.0</ele><time>2026-04-19T16:08:47Z</time></trkpt><trkpt lat="38.03824483432905" lon="14.536113294115253"><ele>174.0</ele><time>2026-04-19T16:08:48Z</time></trkpt><trkpt lat="38.03834776199938" lon="14.536317905134359"><ele>174.0</ele><time>2026-04-19T16:08:49Z</time></trkpt><trkpt lat="38.038446724261426" lon="14.536531067630284"><ele>177.0</ele><time>2026-04-19T16:08:50Z</time></trkpt><trkpt lat="38.0385424689887" lon="14.536747724337012"><ele>180.0</ele><time>2026-04-19T16:08:51Z</time></trkpt><trkpt lat="38.03863817699012" lon="14.536963931307943"><ele>183.0</ele><time>2026-04-19T16:08:52Z</time></trkpt><trkpt lat="38.03872887356709" lon="14.537182283874595"><ele>189.0</ele><time>2026-04-19T16:08:53Z</time></trkpt><trkpt lat="38.03881364051691" lon="14.537394203882025"><ele>195.0</ele><time>2026-04-19T16:08:54Z</time></trkpt><trkpt lat="38.03890398393998" lon="14.537609861966144"><ele>201.0</ele><time>2026-04-19T16:08:55Z</time></trkpt><trkpt lat="38.03899424852964" lon="14.537824321489921"><ele>201.0</ele><time>2026-04-19T16:08:56Z</time></trkpt><trkpt lat="38.03910091480456" lon="14.538029832170738"><ele>201.0</ele><time>2026-04-19T16:08:57Z</time></trkpt><trkpt lat="38.039191954261725" lon="14.53825073775808"><ele>201.0</ele><time>2026-04-19T16:08:58Z</time></trkpt><trkpt lat="38.03928037710743" lon="14.538472214258432"><ele>201.0</ele><time>2026-04-19T16:08:59Z</time></trkpt><trkpt lat="38.039367293551386" lon="14.538697717119774"><ele>201.0</ele><time>2026-04-19T16:09:00Z</time></trkpt><trkpt lat="38.03944530554798" lon="14.538918218970686"><ele>201.0</ele><time>2026-04-19T16:09:01Z</time></trkpt><trkpt lat="38.039558555218036" lon="14.539003349669066"><ele>204.0</ele><time>2026-04-19T16:09:02Z</time></trkpt><trkpt lat="38.03963510453255" lon="14.539205747751597"><ele>207.0</ele><time>2026-04-19T16:09:03Z</time></trkpt><trkpt lat="38.039736401849765" lon="14.539396411486878"><ele>210.0</ele><time>2026-04-19T16:09:04Z</time></trkpt><trkpt lat="38.03982049349921" lon="14.539591522900636"><ele>211.25</ele><time>2026-04-19T16:09:05Z</time></trkpt><trkpt lat="38.03989199954991" lon="14.539784985057135"><ele>212.5</ele><time>2026-04-19T16:09:06Z</time></trkpt><trkpt lat="38.03999755089471" lon="14.539897005203708"><ele>213.75</ele><time>2026-04-19T16:09:07Z</time></trkpt><trkpt lat="38.040095364677384" lon="14.53996792429394"><ele>215.0</ele><time>2026-04-19T16:09:08Z</time></trkpt><trkpt lat="38.04008576101851" lon="14.5397495035738"><ele>209.0</ele><time>2026-04-19T16:09:09.001Z</time></trkpt><trkpt lat="38.04015083202111" lon="14.539611534547442"><ele>203.0</ele><time>2026-04-19T16:09:10.001Z</time></trkpt><trkpt lat="38.04014623931632" lon="14.539438086947914"><ele>197.0</ele><time>2026-04-19T16:09:11.042Z</time></trkpt><trkpt lat="38.04063778263041" lon="14.542561510377698"><ele>189.33333333333334</ele><time>2026-04-19T16:09:15.001Z</time></trkpt><trkpt lat="38.040764830271" lon="14.542726807619573"><ele>181.66666666666669</ele><time>2026-04-19T16:09:16.001Z</time></trkpt><trkpt lat="38.040775315634804" lon="14.54299740394559"><ele>174.0</ele><time>2026-04-19T16:09:17.001Z</time></trkpt><trkpt lat="38.040882153582245" lon="14.543216374085848"><ele>168.0</ele><time>2026-04-19T16:09:18.001Z</time></trkpt><trkpt lat="38.04099329613495" lon="14.543443082009434"><ele>162.0</ele><time>2026-04-19T16:09:19.001Z</time></trkpt><trkpt lat="38.041103495937435" lon="14.543670226555491"><ele>156.0</ele><time>2026-04-19T16:09:20.001Z</time></trkpt><trkpt lat="38.04121456918728" lon="14.543899171430455"><ele>156.0</ele><time>2026-04-19T16:09:21.001Z</time></trkpt><trkpt lat="38.04132651805415" lon="14.54412992115861"><ele>156.0</ele><time>2026-04-19T16:09:22.001Z</time></trkpt><trkpt lat="38.04144375303914" lon="14.5443678750262"><ele>156.0</ele><time>2026-04-19T16:09:23.001Z</time></trkpt><trkpt lat="38.041556501002745" lon="14.544594985851294"><ele>160.66666666666666</ele><time>2026-04-19T16:09:24.001Z</time></trkpt><trkpt lat="38.041674862900805" lon="14.544829939286263"><ele>165.33333333333331</ele><time>2026-04-19T16:09:25.001Z</time></trkpt><trkpt lat="38.04179537003078" lon="14.545056920343308"><ele>170.0</ele><time>2026-04-19T16:09:26.001Z</time></trkpt><trkpt lat="38.04191910029781" lon="14.545282018860647"><ele>175.33333333333331</ele><time>2026-04-19T16:09:27.001Z</time></trkpt><trkpt lat="38.04204381266631" lon="14.545505014987901"><ele>180.66666666666666</ele><time>2026-04-19T16:09:28.001Z</time></trkpt><trkpt lat="38.04217220495843" lon="14.545728867037996"><ele>186.0</ele><time>2026-04-19T16:09:29.001Z</time></trkpt><trkpt lat="38.04229840055605" lon="14.545943495407828"><ele>186.0</ele><time>2026-04-19T16:09:30.001Z</time></trkpt><trkpt lat="38.042424960158556" lon="14.546161620711464"><ele>186.0</ele><time>2026-04-19T16:09:31.001Z</time></trkpt><trkpt lat="38.04255164765499" lon="14.546379964994593"><ele>186.0</ele><time>2026-04-19T16:09:32.001Z</time></trkpt><trkpt lat="38.042683899771845" lon="14.546606166180837"><ele>183.0</ele><time>2026-04-19T16:09:33.001Z</time></trkpt><trkpt lat="38.04281245527428" lon="14.546824845792754"><ele>180.0</ele><time>2026-04-19T16:09:34.001Z</time></trkpt><trkpt lat="38.0429402171155" lon="14.547042175309677"><ele>177.0</ele><time>2026-04-19T16:09:35.001Z</time></trkpt><trkpt lat="38.04306298534908" lon="14.547253000696754"><ele>177.0</ele><time>2026-04-19T16:09:36.001Z</time></trkpt><trkpt lat="38.043156142273276" lon="14.547413089210137"><ele>177.0</ele><time>2026-04-19T16:09:37.001Z</time></trkpt><trkpt lat="38.04327220458271" lon="14.547610068710034"><ele>177.0</ele><time>2026-04-19T16:09:38.001Z</time></trkpt><trkpt lat="38.04338034215969" lon="14.547794498021855"><ele>164.5</ele><time>2026-04-19T16:09:39.001Z</time></trkpt><trkpt lat="38.04347717332812" lon="14.547963081057775"><ele>152.0</ele><time>2026-04-19T16:09:40.001Z</time></trkpt><trkpt lat="38.04365112755158" lon="14.548272282240596"><ele>152.0</ele><time>2026-04-19T16:09:41.001Z</time></trkpt><trkpt lat="38.043783162539945" lon="14.548519486196083"><ele>152.0</ele><time>2026-04-19T16:09:42.001Z</time></trkpt><trkpt lat="38.043893939051486" lon="14.548732631861412"><ele>152.0</ele><time>2026-04-19T16:09:43.001Z</time></trkpt><trkpt lat="38.044005528619095" lon="14.548955496777623"><ele>153.33333333333331</ele><time>2026-04-19T16:09:44.001Z</time></trkpt><trkpt lat="38.044109450955816" lon="14.54917998185139"><ele>154.66666666666666</ele><time>2026-04-19T16:09:45.001Z</time></trkpt><trkpt lat="38.04421305147097" lon="14.549411772122697"><ele>156.0</ele><time>2026-04-19T16:09:46.001Z</time></trkpt><trkpt lat="38.044324067229915" lon="14.549674906365205"><ele>151.0</ele><time>2026-04-19T16:09:47.001Z</time></trkpt><trkpt lat="38.044417339651154" lon="14.549909879733907"><ele>146.0</ele><time>2026-04-19T16:09:48.001Z</time></trkpt><trkpt lat="38.04450529257026" lon="14.55014514462376"><ele>141.0</ele><time>2026-04-19T16:09:49.001Z</time></trkpt><trkpt lat="38.04458831804876" lon="14.550381336716452"><ele>141.0</ele><time>2026-04-19T16:09:50.001Z</time></trkpt><trkpt lat="38.044665431765836" lon="14.550612435226697"><ele>141.0</ele><time>2026-04-19T16:09:51.001Z</time></trkpt><trkpt lat="38.04474261107136" lon="14.550859162060592"><ele>141.0</ele><time>2026-04-19T16:09:52.001Z</time></trkpt><trkpt lat="38.04481205686863" lon="14.551096605440891"><ele>142.0</ele><time>2026-04-19T16:09:53.001Z</time></trkpt><trkpt lat="38.044874446019705" lon="14.551332662240984"><ele>143.0</ele><time>2026-04-19T16:09:54.001Z</time></trkpt><trkpt lat="38.04493549567166" lon="14.551575948035204"><ele>144.0</ele><time>2026-04-19T16:09:55.001Z</time></trkpt><trkpt lat="38.04499292704293" lon="14.551813672794673"><ele>138.66666666666666</ele><time>2026-04-19T16:09:56.001Z</time></trkpt><trkpt lat="38.045049896606585" lon="14.552055835233629"><ele>133.33333333333331</ele><time>2026-04-19T16:09:57.001Z</time></trkpt><trkpt lat="38.04513509444684" lon="14.552283359348596"><ele>128.0</ele><time>2026-04-19T16:09:58.001Z</time></trkpt><trkpt lat="38.0452274385622" lon="14.552524364231967"><ele>128.0</ele><time>2026-04-19T16:09:59.001Z</time></trkpt><trkpt lat="38.04532401532251" lon="14.552764390695526"><ele>128.0</ele><time>2026-04-19T16:10:00.001Z</time></trkpt><trkpt lat="38.04542342312599" lon="14.55300580421098"><ele>128.0</ele><time>2026-04-19T16:10:01.001Z</time></trkpt><trkpt lat="38.04552452898661" lon="14.553246929984967"><ele>126.66666666666666</ele><time>2026-04-19T16:10:02.001Z</time></trkpt><trkpt lat="38.045630390351" lon="14.553489804746842"><ele>125.33333333333334</ele><time>2026-04-19T16:10:03.001Z</time></trkpt><trkpt lat="38.045738103165405" lon="14.553732111825605"><ele>124.0</ele><time>2026-04-19T16:10:04.001Z</time></trkpt><trkpt lat="38.046368415409326" lon="14.553792900529587"><ele>124.0</ele><time>2026-04-19T16:10:05.001Z</time></trkpt><trkpt lat="38.04644243921317" lon="14.55404839430507"><ele>124.0</ele><time>2026-04-19T16:10:06.001Z</time></trkpt><trkpt lat="38.0465065194328" lon="14.554304638275854"><ele>124.0</ele><time>2026-04-19T16:10:07.001Z</time></trkpt><trkpt lat="38.04656514142623" lon="14.554563176917013"><ele>122.66666666666667</ele><time>2026-04-19T16:10:08.001Z</time></trkpt><trkpt lat="38.04661709087358" lon="14.554829945443732"><ele>121.33333333333334</ele><time>2026-04-19T16:10:09.001Z</time></trkpt><trkpt lat="38.04666874083013" lon="14.555097137111062"><ele>120.0</ele><time>2026-04-19T16:10:10.001Z</time></trkpt><trkpt lat="38.04671711683918" lon="14.555365672883912"><ele>117.66666666666666</ele><time>2026-04-19T16:10:11.001Z</time></trkpt><trkpt lat="38.046760838939775" lon="14.555634461323422"><ele>115.33333333333333</ele><time>2026-04-19T16:10:12.001Z</time></trkpt><trkpt lat="38.04680470744558" lon="14.55590556563401"><ele>113.0</ele><time>2026-04-19T16:10:13.001Z</time></trkpt><trkpt lat="38.046838859943115" lon="14.556167608062795"><ele>108.66666666666666</ele><time>2026-04-19T16:10:14.001Z</time></trkpt><trkpt lat="38.0468672019666" lon="14.55643214454721"><ele>104.33333333333334</ele><time>2026-04-19T16:10:15.001Z</time></trkpt><trkpt lat="38.04690097111918" lon="14.556694751253842"><ele>100.0</ele><time>2026-04-19T16:10:16.001Z</time></trkpt><trkpt lat="38.04693847474597" lon="14.556958714915044"><ele>95.66666666666667</ele><time>2026-04-19T16:10:17.001Z</time></trkpt><trkpt lat="38.04697952926879" lon="14.557221181846753"><ele>91.33333333333334</ele><time>2026-04-19T16:10:18.001Z</time></trkpt><trkpt lat="38.04701938137464" lon="14.557479332648594"><ele>87.0</ele><time>2026-04-19T16:10:19.002Z</time></trkpt><trkpt lat="38.04704753300093" lon="14.557737925540815"><ele>82.66666666666667</ele><time>2026-04-19T16:10:20.002Z</time></trkpt><trkpt lat="38.04708247713027" lon="14.557996411248451"><ele>78.33333333333334</ele><time>2026-04-19T16:10:21.002Z</time></trkpt><trkpt lat="38.04711551147963" lon="14.558254305779446"><ele>74.0</ele><time>2026-04-19T16:10:22.002Z</time></trkpt><trkpt lat="38.04714748845803" lon="14.558511951764702"><ele>66.66666666666667</ele><time>2026-04-19T16:10:23.002Z</time></trkpt><trkpt lat="38.04718065333696" lon="14.558770786776636"><ele>59.33333333333333</ele><time>2026-04-19T16:10:24.002Z</time></trkpt><trkpt lat="38.047211169427335" lon="14.55902942009559"><ele>52.0</ele><time>2026-04-19T16:10:25.002Z</time></trkpt><trkpt lat="38.047245203143476" lon="14.559286162708458"><ele>49.0</ele><time>2026-04-19T16:10:26.002Z</time></trkpt><trkpt lat="38.047275587287686" lon="14.55954626833367"><ele>46.0</ele><time>2026-04-19T16:10:27.002Z</time></trkpt><trkpt lat="38.047306276033495" lon="14.559800822338856"><ele>43.0</ele><time>2026-04-19T16:10:28.002Z</time></trkpt><trkpt lat="38.04734752506198" lon="14.560062341865368"><ele>43.0</ele><time>2026-04-19T16:10:29.002Z</time></trkpt><trkpt lat="38.047379788275094" lon="14.560321297227143"><ele>43.0</ele><time>2026-04-19T16:10:30.002Z</time></trkpt><trkpt lat="38.04741510034234" lon="14.560580383511832"><ele>43.0</ele><time>2026-04-19T16:10:31.002Z</time></trkpt><trkpt lat="38.047449960872356" lon="14.560847087304184"><ele>42.333333333333336</ele><time>2026-04-19T16:10:32.002Z</time></trkpt><trkpt lat="38.04748653777945" lon="14.561110494503273"><ele>41.666666666666664</ele><time>2026-04-19T16:10:33.002Z</time></trkpt><trkpt lat="38.047520956809755" lon="14.561376428405401"><ele>41.0</ele><time>2026-04-19T16:10:34.002Z</time></trkpt><trkpt lat="38.04756118571067" lon="14.561638147952282"><ele>41.0</ele><time>2026-04-19T16:10:35.002Z</time></trkpt><trkpt lat="38.047596829833445" lon="14.561903878497272"><ele>41.0</ele><time>2026-04-19T16:10:36.002Z</time></trkpt><trkpt lat="38.04763386485552" lon="14.562158421782971"><ele>41.0</ele><time>2026-04-19T16:10:37.002Z</time></trkpt><trkpt lat="38.04767695014136" lon="14.562411392031038"><ele>49.33333333333333</ele><time>2026-04-19T16:10:38.002Z</time></trkpt><trkpt lat="38.04771521761938" lon="14.562663139389864"><ele>57.666666666666664</ele><time>2026-04-19T16:10:39.002Z</time></trkpt><trkpt lat="38.047764396256035" lon="14.562921106755425"><ele>66.0</ele><time>2026-04-19T16:10:40.002Z</time></trkpt><trkpt lat="38.04781616981436" lon="14.563167926526598"><ele>72.33333333333333</ele><time>2026-04-19T16:10:41.002Z</time></trkpt><trkpt lat="38.047869503937555" lon="14.563405589792369"><ele>78.66666666666666</ele><time>2026-04-19T16:10:42.002Z</time></trkpt><trkpt lat="38.04792518212744" lon="14.563636254486026"><ele>85.0</ele><time>2026-04-19T16:10:43Z</time></trkpt><trkpt lat="38.047985579750865" lon="14.563858336712359"><ele>88.0</ele><time>2026-04-19T16:10:44Z</time></trkpt><trkpt lat="38.048045583129955" lon="14.5640654166401"><ele>91.0</ele><time>2026-04-19T16:10:45Z</time></trkpt><trkpt lat="38.04811104815986" lon="14.564283119394721"><ele>94.0</ele><time>2026-04-19T16:10:46Z</time></trkpt><trkpt lat="38.048177812324916" lon="14.56448066166618"><ele>97.66666666666666</ele><time>2026-04-19T16:10:47Z</time></trkpt><trkpt lat="38.04824999795257" lon="14.56467825055252"><ele>101.33333333333333</ele><time>2026-04-19T16:10:48Z</time></trkpt><trkpt lat="38.048310150299514" lon="14.564860635277643"><ele>105.0</ele><time>2026-04-19T16:10:49Z</time></trkpt><trkpt lat="38.048376774847775" lon="14.565034057297316"><ele>105.0</ele><time>2026-04-19T16:10:50Z</time></trkpt><trkpt lat="38.04842730200806" lon="14.565196495215604"><ele>105.0</ele><time>2026-04-19T16:10:51Z</time></trkpt><trkpt lat="38.048466538681005" lon="14.565363833514029"><ele>105.0</ele><time>2026-04-19T16:10:52Z</time></trkpt><trkpt lat="38.04849301973329" lon="14.56553439846206"><ele>105.0</ele><time>2026-04-19T16:10:53Z</time></trkpt><trkpt lat="38.04850857818913" lon="14.565731839744824"><ele>108.66666666666666</ele><time>2026-04-19T16:10:54Z</time></trkpt><trkpt lat="38.04853500273708" lon="14.565948623908998"><ele>112.33333333333333</ele><time>2026-04-19T16:10:55Z</time></trkpt><trkpt lat="38.04861735718674" lon="14.566125695841784"><ele>116.0</ele><time>2026-04-19T16:10:56Z</time></trkpt><trkpt lat="38.04867397960425" lon="14.566293846344626"><ele>120.0</ele><time>2026-04-19T16:10:57Z</time></trkpt><trkpt lat="38.048721042760874" lon="14.566454899063212"><ele>124.0</ele><time>2026-04-19T16:10:58Z</time></trkpt><trkpt lat="38.04885630312312" lon="14.566801369055163"><ele>128.0</ele><time>2026-04-19T16:10:59Z</time></trkpt><trkpt lat="38.04893114164636" lon="14.567055368157366"><ele>130.0</ele><time>2026-04-19T16:11:00Z</time></trkpt><trkpt lat="38.049002173132976" lon="14.56730558397548"><ele>132.0</ele><time>2026-04-19T16:11:01Z</time></trkpt><trkpt lat="38.04905923864021" lon="14.567540236036656"><ele>134.0</ele><time>2026-04-19T16:11:02Z</time></trkpt><trkpt lat="38.0491201224401" lon="14.56778425549842"><ele>128.33333333333331</ele><time>2026-04-19T16:11:03Z</time></trkpt><trkpt lat="38.04917144893601" lon="14.568032836022276"><ele>122.66666666666666</ele><time>2026-04-19T16:11:04Z</time></trkpt><trkpt lat="38.049220553785574" lon="14.568289781911558"><ele>117.0</ele><time>2026-04-19T16:11:05Z</time></trkpt><trkpt lat="38.049265877066404" lon="14.568546434672898"><ele>117.33333333333334</ele><time>2026-04-19T16:11:06Z</time></trkpt><trkpt lat="38.04931003186029" lon="14.56880584064933"><ele>117.66666666666667</ele><time>2026-04-19T16:11:07Z</time></trkpt><trkpt lat="38.04934417626883" lon="14.569060026428405"><ele>118.0</ele><time>2026-04-19T16:11:08Z</time></trkpt><trkpt lat="38.04937556537002" lon="14.569319787873356"><ele>118.33333333333334</ele><time>2026-04-19T16:11:09Z</time></trkpt><trkpt lat="38.04940358906621" lon="14.569582643730927"><ele>118.66666666666666</ele><time>2026-04-19T16:11:10Z</time></trkpt><trkpt lat="38.04942928140808" lon="14.569842905866443"><ele>119.0</ele><time>2026-04-19T16:11:11Z</time></trkpt><trkpt lat="38.04944586548579" lon="14.570104180952061"><ele>120.0</ele><time>2026-04-19T16:11:12Z</time></trkpt><trkpt lat="38.04945779808054" lon="14.570371368003597"><ele>121.0</ele><time>2026-04-19T16:11:13Z</time></trkpt><trkpt lat="38.04946554510146" lon="14.570635081017336"><ele>122.0</ele><time>2026-04-19T16:11:14Z</time></trkpt><trkpt lat="38.04946497373413" lon="14.570901601284232"><ele>122.0</ele><time>2026-04-19T16:11:15Z</time></trkpt><trkpt lat="38.04945950100719" lon="14.571166833476308"><ele>122.0</ele><time>2026-04-19T16:11:16.001Z</time></trkpt><trkpt lat="38.0494530802875" lon="14.57143716498742"><ele>122.0</ele><time>2026-04-19T16:11:17.001Z</time></trkpt><trkpt lat="38.04943840425113" lon="14.571720836489092"><ele>123.0</ele><time>2026-04-19T16:11:18.001Z</time></trkpt><trkpt lat="38.04942573303721" lon="14.571995830982196"><ele>124.0</ele><time>2026-04-19T16:11:19.001Z</time></trkpt><trkpt lat="38.04940541949807" lon="14.57226019023678"><ele>125.0</ele><time>2026-04-19T16:11:20.001Z</time></trkpt><trkpt lat="38.04936947860108" lon="14.572521227243717"><ele>125.0</ele><time>2026-04-19T16:11:21.001Z</time></trkpt><trkpt lat="38.04933660279055" lon="14.572786440540284"><ele>125.0</ele><time>2026-04-19T16:11:22.001Z</time></trkpt><trkpt lat="38.04930186297299" lon="14.573053449643707"><ele>125.0</ele><time>2026-04-19T16:11:23.001Z</time></trkpt><trkpt lat="38.04926368305651" lon="14.573319480821207"><ele>124.0</ele><time>2026-04-19T16:11:24.001Z</time></trkpt><trkpt lat="38.04922524600049" lon="14.573584831636028"><ele>123.0</ele><time>2026-04-19T16:11:25.001Z</time></trkpt><trkpt lat="38.04918194541351" lon="14.5738526567142"><ele>122.0</ele><time>2026-04-19T16:11:26.001Z</time></trkpt><trkpt lat="38.04914616343349" lon="14.574120472982342"><ele>125.0</ele><time>2026-04-19T16:11:27.001Z</time></trkpt><trkpt lat="38.049109363374015" lon="14.574389740149186"><ele>128.0</ele><time>2026-04-19T16:11:28.001Z</time></trkpt><trkpt lat="38.04907076754123" lon="14.574660310761159"><ele>131.0</ele><time>2026-04-19T16:11:29.001Z</time></trkpt><trkpt lat="38.049032555783285" lon="14.574930309447248"><ele>132.0</ele><time>2026-04-19T16:11:30.001Z</time></trkpt><trkpt lat="38.04899691663797" lon="14.575203945898611"><ele>133.0</ele><time>2026-04-19T16:11:31.001Z</time></trkpt><trkpt lat="38.04895363641226" lon="14.575474027369618"><ele>134.0</ele><time>2026-04-19T16:11:32.001Z</time></trkpt><trkpt lat="38.048910903785654" lon="14.57574518374406"><ele>137.0</ele><time>2026-04-19T16:11:33.001Z</time></trkpt><trkpt lat="38.04886063989509" lon="14.576034434876371"><ele>140.0</ele><time>2026-04-19T16:11:34.001Z</time></trkpt><trkpt lat="38.04880999231447" lon="14.576324771651457"><ele>141.0</ele><time>2026-04-19T16:11:35.001Z</time></trkpt><trkpt lat="38.048758159600865" lon="14.576614812725484"><ele>142.0</ele><time>2026-04-19T16:11:36.001Z</time></trkpt><trkpt lat="38.04870771972088" lon="14.57690349058611"><ele>143.0</ele><time>2026-04-19T16:11:37.001Z</time></trkpt><trkpt lat="38.04866206953613" lon="14.577203128662962"><ele>144.0</ele><time>2026-04-19T16:11:38.001Z</time></trkpt><trkpt lat="38.048621693892905" lon="14.577527665676653"><ele>144.0</ele><time>2026-04-19T16:11:39.001Z</time></trkpt><trkpt lat="38.04859715835126" lon="14.577822819733365"><ele>144.0</ele><time>2026-04-19T16:11:40.001Z</time></trkpt><trkpt lat="38.04858009283575" lon="14.578112541221238"><ele>142.0</ele><time>2026-04-19T16:11:41.001Z</time></trkpt><trkpt lat="38.04856964027337" lon="14.578416834040812"><ele>140.0</ele><time>2026-04-19T16:11:42.001Z</time></trkpt><trkpt lat="38.04856323883905" lon="14.578719637596695"><ele>137.66666666666666</ele><time>2026-04-19T16:11:43.001Z</time></trkpt><trkpt lat="38.04856303294146" lon="14.578869680096435"><ele>135.33333333333334</ele><time>2026-04-19T16:11:44.001Z</time></trkpt><trkpt lat="38.04862296545531" lon="14.579167589638562"><ele>133.0</ele><time>2026-04-19T16:11:45.001Z</time></trkpt><trkpt lat="38.048616009486516" lon="14.579473418678544"><ele>132.0</ele><time>2026-04-19T16:11:46.001Z</time></trkpt><trkpt lat="38.04863893947781" lon="14.579770818800181"><ele>131.0</ele><time>2026-04-19T16:11:47.001Z</time></trkpt><trkpt lat="38.04866269751369" lon="14.580061582147444"><ele>129.5</ele><time>2026-04-19T16:11:48.001Z</time></trkpt><trkpt lat="38.048689761695854" lon="14.580361882870596"><ele>128.0</ele><time>2026-04-19T16:11:49.001Z</time></trkpt><trkpt lat="38.048715452612086" lon="14.580653939751828"><ele>128.0</ele><time>2026-04-19T16:11:50.001Z</time></trkpt><trkpt lat="38.04875206210471" lon="14.580954995414022"><ele>128.0</ele><time>2026-04-19T16:11:51.001Z</time></trkpt><trkpt lat="38.048794478485355" lon="14.581246133328658"><ele>128.5</ele><time>2026-04-19T16:11:52.001Z</time></trkpt><trkpt lat="38.048843564814725" lon="14.58154447095039"><ele>129.0</ele><time>2026-04-19T16:11:53.001Z</time></trkpt><trkpt lat="38.04889739635793" lon="14.581841511158366"><ele>129.5</ele><time>2026-04-19T16:11:54.001Z</time></trkpt><trkpt lat="38.048959040073626" lon="14.58213617689966"><ele>130.0</ele><time>2026-04-19T16:11:55.001Z</time></trkpt><trkpt lat="38.04903250938002" lon="14.5824345229108"><ele>130.0</ele><time>2026-04-19T16:11:56.001Z</time></trkpt><trkpt lat="38.049107704843195" lon="14.582732249444378"><ele>130.0</ele><time>2026-04-19T16:11:57.001Z</time></trkpt><trkpt lat="38.04919202045595" lon="14.58302719203996"><ele>123.0</ele><time>2026-04-19T16:11:58.001Z</time></trkpt><trkpt lat="38.049280436245304" lon="14.583321975162109"><ele>116.0</ele><time>2026-04-19T16:11:59.001Z</time></trkpt><trkpt lat="38.04937424816792" lon="14.58361205862984"><ele>116.5</ele><time>2026-04-19T16:12:00.001Z</time></trkpt><trkpt lat="38.049473507711255" lon="14.583899066588042"><ele>117.0</ele><time>2026-04-19T16:12:01.001Z</time></trkpt><trkpt lat="38.04957981745259" lon="14.584185162697915"><ele>117.0</ele><time>2026-04-19T16:12:02.001Z</time></trkpt><trkpt lat="38.04969122039228" lon="14.584465878704108"><ele>117.0</ele><time>2026-04-19T16:12:03.001Z</time></trkpt><trkpt lat="38.04981018810007" lon="14.584741841930532"><ele>118.0</ele><time>2026-04-19T16:12:04.001Z</time></trkpt><trkpt lat="38.04993222971463" lon="14.585017010021419"><ele>119.0</ele><time>2026-04-19T16:12:05.001Z</time></trkpt><trkpt lat="38.05005774191389" lon="14.585293434631012"><ele>115.0</ele><time>2026-04-19T16:12:06.001Z</time></trkpt><trkpt lat="38.05017957344718" lon="14.58557000115134"><ele>111.0</ele><time>2026-04-19T16:12:07.001Z</time></trkpt><trkpt lat="38.050305690261055" lon="14.585843832240899"><ele>111.0</ele><time>2026-04-19T16:12:08.001Z</time></trkpt><trkpt lat="38.05043807559644" lon="14.586117219985026"><ele>111.0</ele><time>2026-04-19T16:12:09.001Z</time></trkpt><trkpt lat="38.05056602999753" lon="14.586387849141353"><ele>109.0</ele><time>2026-04-19T16:12:10.001Z</time></trkpt><trkpt lat="38.05069309613363" lon="14.586661991600431"><ele>107.0</ele><time>2026-04-19T16:12:11.001Z</time></trkpt><trkpt lat="38.05081869158555" lon="14.586934409018848"><ele>102.0</ele><time>2026-04-19T16:12:12.001Z</time></trkpt><trkpt lat="38.050940896866585" lon="14.587209595301735"><ele>97.0</ele><time>2026-04-19T16:12:13.001Z</time></trkpt><trkpt lat="38.051062644821634" lon="14.587482547580024"><ele>97.0</ele><time>2026-04-19T16:12:14.001Z</time></trkpt><trkpt lat="38.051182987351005" lon="14.587751422179391"><ele>97.0</ele><time>2026-04-19T16:12:15.001Z</time></trkpt><trkpt lat="38.05129913954811" lon="14.588018657423088"><ele>98.5</ele><time>2026-04-19T16:12:16.001Z</time></trkpt><trkpt lat="38.051411922257344" lon="14.588289673707719"><ele>100.0</ele><time>2026-04-19T16:12:17.001Z</time></trkpt><trkpt lat="38.051524594736065" lon="14.588562145099035"><ele>98.5</ele><time>2026-04-19T16:12:18.001Z</time></trkpt><trkpt lat="38.05162691355474" lon="14.588834569556205"><ele>97.0</ele><time>2026-04-19T16:12:19.001Z</time></trkpt><trkpt lat="38.051724378377386" lon="14.589111635385088"><ele>97.0</ele><time>2026-04-19T16:12:20.001Z</time></trkpt><trkpt lat="38.05181518573377" lon="14.589390832078402"><ele>97.0</ele><time>2026-04-19T16:12:21.002Z</time></trkpt><trkpt lat="38.05190216913976" lon="14.589668648874708"><ele>97.5</ele><time>2026-04-19T16:12:22.002Z</time></trkpt><trkpt lat="38.05198545634711" lon="14.589948613944124"><ele>98.0</ele><time>2026-04-19T16:12:23.002Z</time></trkpt><trkpt lat="38.05206469265269" lon="14.59022591484419"><ele>99.0</ele><time>2026-04-19T16:12:24.002Z</time></trkpt><trkpt lat="38.052138269865694" lon="14.590502104907179"><ele>100.0</ele><time>2026-04-19T16:12:25.002Z</time></trkpt><trkpt lat="38.0522063602237" lon="14.590777805787319"><ele>100.0</ele><time>2026-04-19T16:12:26.002Z</time></trkpt><trkpt lat="38.052273381712496" lon="14.591050746261766"><ele>100.0</ele><time>2026-04-19T16:12:27.002Z</time></trkpt><trkpt lat="38.05233683971116" lon="14.591330929677193"><ele>99.5</ele><time>2026-04-19T16:12:28.002Z</time></trkpt><trkpt lat="38.05239639656328" lon="14.591609837599234"><ele>99.0</ele><time>2026-04-19T16:12:29.002Z</time></trkpt><trkpt lat="38.05245252324786" lon="14.591893143920135"><ele>96.5</ele><time>2026-04-19T16:12:30.002Z</time></trkpt><trkpt lat="38.05250211359759" lon="14.592173158242923"><ele>94.0</ele><time>2026-04-19T16:12:31.002Z</time></trkpt><trkpt lat="38.052549904205826" lon="14.592455597448208"><ele>94.0</ele><time>2026-04-19T16:12:32.002Z</time></trkpt><trkpt lat="38.05259487067604" lon="14.592740245498339"><ele>94.0</ele><time>2026-04-19T16:12:33.002Z</time></trkpt><trkpt lat="38.0526341991198" lon="14.593024138246168"><ele>94.5</ele><time>2026-04-19T16:12:34.002Z</time></trkpt><trkpt lat="38.0526709524491" lon="14.593311072137451"><ele>95.0</ele><time>2026-04-19T16:12:35.002Z</time></trkpt><trkpt lat="38.052705250335904" lon="14.593596709810269"><ele>98.0</ele><time>2026-04-19T16:12:36.002Z</time></trkpt><trkpt lat="38.05273669820207" lon="14.593885028655244"><ele>101.0</ele><time>2026-04-19T16:12:37.002Z</time></trkpt><trkpt lat="38.05276223415809" lon="14.59417605585813"><ele>101.0</ele><time>2026-04-19T16:12:38.002Z</time></trkpt><trkpt lat="38.05278415536042" lon="14.594463339998159"><ele>101.0</ele><time>2026-04-19T16:12:39.002Z</time></trkpt><trkpt lat="38.05280239957903" lon="14.59475384516805"><ele>104.0</ele><time>2026-04-19T16:12:40.002Z</time></trkpt><trkpt lat="38.052818881650246" lon="14.595042324065187"><ele>107.0</ele><time>2026-04-19T16:12:41.002Z</time></trkpt><trkpt lat="38.05283127644432" lon="14.595331312851629"><ele>110.0</ele><time>2026-04-19T16:12:42.002Z</time></trkpt><trkpt lat="38.05284363882569" lon="14.595621021703554"><ele>113.0</ele><time>2026-04-19T16:12:43.002Z</time></trkpt><trkpt lat="38.05285357461058" lon="14.59590624269752"><ele>114.66666666666666</ele><time>2026-04-19T16:12:44.002Z</time></trkpt><trkpt lat="38.052868544497564" lon="14.596191394773001"><ele>116.33333333333334</ele><time>2026-04-19T16:12:45.002Z</time></trkpt><trkpt lat="38.052880821930756" lon="14.596475535011109"><ele>118.0</ele><time>2026-04-19T16:12:46.002Z</time></trkpt><trkpt lat="38.05289525136988" lon="14.59676013369286"><ele>119.66666666666667</ele><time>2026-04-19T16:12:47.002Z</time></trkpt><trkpt lat="38.05290590156094" lon="14.597042481434265"><ele>121.33333333333334</ele><time>2026-04-19T16:12:48.002Z</time></trkpt><trkpt lat="38.05292058031189" lon="14.597323121948696"><ele>123.0</ele><time>2026-04-19T16:12:49Z</time></trkpt><trkpt lat="38.052938081609895" lon="14.597605789077882"><ele>124.66666666666666</ele><time>2026-04-19T16:12:50Z</time></trkpt><trkpt lat="38.05295725927148" lon="14.597885741475809"><ele>126.33333333333333</ele><time>2026-04-19T16:12:51Z</time></trkpt><trkpt lat="38.05297703732005" lon="14.598168426350734"><ele>128.0</ele><time>2026-04-19T16:12:52Z</time></trkpt><trkpt lat="38.053007957868836" lon="14.598450262816133"><ele>130.0</ele><time>2026-04-19T16:12:53Z</time></trkpt><trkpt lat="38.053039505353674" lon="14.59873229214389"><ele>132.0</ele><time>2026-04-19T16:12:54Z</time></trkpt><trkpt lat="38.05307774752477" lon="14.599015436282643"><ele>132.0</ele><time>2026-04-19T16:12:55Z</time></trkpt><trkpt lat="38.053119034766084" lon="14.59929770431923"><ele>132.0</ele><time>2026-04-19T16:12:56Z</time></trkpt><trkpt lat="38.0531661102683" lon="14.599575012972245"><ele>132.0</ele><time>2026-04-19T16:12:57Z</time></trkpt><trkpt lat="38.05322277324303" lon="14.599865158321622"><ele>132.0</ele><time>2026-04-19T16:12:58Z</time></trkpt><trkpt lat="38.05328842522365" lon="14.600130222433478"><ele>132.0</ele><time>2026-04-19T16:12:59Z</time></trkpt><trkpt lat="38.05335213036693" lon="14.600413789217225"><ele>123.0</ele><time>2026-04-19T16:13:00Z</time></trkpt><trkpt lat="38.05342013605039" lon="14.600686481673186"><ele>114.0</ele><time>2026-04-19T16:13:01Z</time></trkpt><trkpt lat="38.0534969893718" lon="14.60095900302387"><ele>115.0</ele><time>2026-04-19T16:13:02Z</time></trkpt><trkpt lat="38.053575439867345" lon="14.601230125276434"><ele>116.0</ele><time>2026-04-19T16:13:03Z</time></trkpt><trkpt lat="38.053655602200486" lon="14.60150028117079"><ele>116.0</ele><time>2026-04-19T16:13:04Z</time></trkpt><trkpt lat="38.05373332235282" lon="14.601772696062753"><ele>116.0</ele><time>2026-04-19T16:13:05Z</time></trkpt><trkpt lat="38.05380575242166" lon="14.602046495013111"><ele>116.5</ele><time>2026-04-19T16:13:06Z</time></trkpt><trkpt lat="38.05387624647026" lon="14.6023217384239"><ele>117.0</ele><time>2026-04-19T16:13:07Z</time></trkpt><trkpt lat="38.053945443647926" lon="14.602597647068466"><ele>118.5</ele><time>2026-04-19T16:13:08Z</time></trkpt><trkpt lat="38.05400719582435" lon="14.60287610212852"><ele>120.0</ele><time>2026-04-19T16:13:09Z</time></trkpt><trkpt lat="38.054062282774716" lon="14.603158443972038"><ele>120.0</ele><time>2026-04-19T16:13:10Z</time></trkpt><trkpt lat="38.05411297479373" lon="14.6034428205655"><ele>120.0</ele><time>2026-04-19T16:13:11Z</time></trkpt><trkpt lat="38.054159153278796" lon="14.603727556425898"><ele>112.0</ele><time>2026-04-19T16:13:12Z</time></trkpt><trkpt lat="38.054203250965514" lon="14.604013632430682"><ele>104.0</ele><time>2026-04-19T16:13:13Z</time></trkpt><trkpt lat="38.054243661606584" lon="14.60429774127315"><ele>108.5</ele><time>2026-04-19T16:13:14Z</time></trkpt><trkpt lat="38.0542784777777" lon="14.60458058499248"><ele>113.0</ele><time>2026-04-19T16:13:15Z</time></trkpt><trkpt lat="38.054307083493235" lon="14.604867916296904"><ele>113.0</ele><time>2026-04-19T16:13:16Z</time></trkpt><trkpt lat="38.05433242426601" lon="14.605152228289567"><ele>113.0</ele><time>2026-04-19T16:13:17Z</time></trkpt><trkpt lat="38.05434353431576" lon="14.60544092586987"><ele>116.5</ele><time>2026-04-19T16:13:18Z</time></trkpt><trkpt lat="38.05435061062936" lon="14.605729141020664"><ele>120.0</ele><time>2026-04-19T16:13:19Z</time></trkpt><trkpt lat="38.05435734597053" lon="14.606016291125076"><ele>121.5</ele><time>2026-04-19T16:13:20Z</time></trkpt><trkpt lat="38.05436429081808" lon="14.60630006966691"><ele>123.0</ele><time>2026-04-19T16:13:21Z</time></trkpt><trkpt lat="38.054373810530485" lon="14.606589003962997"><ele>123.0</ele><time>2026-04-19T16:13:22Z</time></trkpt><trkpt lat="38.054379319504505" lon="14.606878607333071"><ele>123.0</ele><time>2026-04-19T16:13:23Z</time></trkpt><trkpt lat="38.05438273455873" lon="14.607168106551589"><ele>123.5</ele><time>2026-04-19T16:13:24.001Z</time></trkpt><trkpt lat="38.054382040178815" lon="14.607456014639128"><ele>124.0</ele><time>2026-04-19T16:13:25.001Z</time></trkpt><trkpt lat="38.05432103836864" lon="14.607834975520483"><ele>122.0</ele><time>2026-04-19T16:13:26.001Z</time></trkpt><trkpt lat="38.05429148893251" lon="14.608134238907274"><ele>120.0</ele><time>2026-04-19T16:13:27.001Z</time></trkpt><trkpt lat="38.054262598533604" lon="14.608433137257105"><ele>117.5</ele><time>2026-04-19T16:13:28.001Z</time></trkpt><trkpt lat="38.05423802319965" lon="14.608704296511997"><ele>115.0</ele><time>2026-04-19T16:13:29.001Z</time></trkpt><trkpt lat="38.05422008219085" lon="14.609045690159517"><ele>115.0</ele><time>2026-04-19T16:13:30.001Z</time></trkpt><trkpt lat="38.05419040264864" lon="14.60933552491428"><ele>115.0</ele><time>2026-04-19T16:13:31.001Z</time></trkpt><trkpt lat="38.054159015723286" lon="14.609636421502795"><ele>113.5</ele><time>2026-04-19T16:13:32Z</time></trkpt><trkpt lat="38.05413988399371" lon="14.609919387813438"><ele>112.0</ele><time>2026-04-19T16:13:33Z</time></trkpt><trkpt lat="38.0541105136832" lon="14.610219362413842"><ele>108.5</ele><time>2026-04-19T16:13:34Z</time></trkpt><trkpt lat="38.054085719468645" lon="14.610507922174998"><ele>105.0</ele><time>2026-04-19T16:13:35Z</time></trkpt><trkpt lat="38.054060860833744" lon="14.610796615013394"><ele>105.0</ele><time>2026-04-19T16:13:36Z</time></trkpt><trkpt lat="38.054034056509906" lon="14.611086387869372"><ele>105.0</ele><time>2026-04-19T16:13:37Z</time></trkpt><trkpt lat="38.054011552995924" lon="14.611383718251918"><ele>90.5</ele><time>2026-04-19T16:13:38Z</time></trkpt><trkpt lat="38.05399246533518" lon="14.611676995484945"><ele>76.0</ele><time>2026-04-19T16:13:39Z</time></trkpt><trkpt lat="38.05397418532867" lon="14.611967536052845"><ele>70.5</ele><time>2026-04-19T16:13:40Z</time></trkpt><trkpt lat="38.053960063003" lon="14.612260274007733"><ele>65.0</ele><time>2026-04-19T16:13:41Z</time></trkpt><trkpt lat="38.05394780313809" lon="14.61255197869424"><ele>64.0</ele><time>2026-04-19T16:13:42Z</time></trkpt><trkpt lat="38.053943897506244" lon="14.612846692254848"><ele>63.0</ele><time>2026-04-19T16:13:43Z</time></trkpt><trkpt lat="38.05394801076914" lon="14.613143131957012"><ele>63.0</ele><time>2026-04-19T16:13:44Z</time></trkpt><trkpt lat="38.05396444464272" lon="14.613441878720293"><ele>63.0</ele><time>2026-04-19T16:13:45Z</time></trkpt><trkpt lat="38.053989825275146" lon="14.613737139996513"><ele>65.5</ele><time>2026-04-19T16:13:46Z</time></trkpt><trkpt lat="38.05402194511894" lon="14.614032716387802"><ele>68.0</ele><time>2026-04-19T16:13:47Z</time></trkpt><trkpt lat="38.05405936234208" lon="14.614327940132924"><ele>85.5</ele><time>2026-04-19T16:13:48Z</time></trkpt><trkpt lat="38.05410671932345" lon="14.614627472985905"><ele>103.0</ele><time>2026-04-19T16:13:49Z</time></trkpt><trkpt lat="38.054165845633726" lon="14.61492076656301"><ele>111.5</ele><time>2026-04-19T16:13:50Z</time></trkpt><trkpt lat="38.0542326008556" lon="14.615212353716645"><ele>120.0</ele><time>2026-04-19T16:13:51Z</time></trkpt><trkpt lat="38.05430593408557" lon="14.615503209536929"><ele>138.0</ele><time>2026-04-19T16:13:52Z</time></trkpt><trkpt lat="38.0543849163119" lon="14.615794900150389"><ele>156.0</ele><time>2026-04-19T16:13:53Z</time></trkpt><trkpt lat="38.054470553227524" lon="14.616085925089891"><ele>167.0</ele><time>2026-04-19T16:13:54Z</time></trkpt><trkpt lat="38.05456386727098" lon="14.616370978329986"><ele>178.0</ele><time>2026-04-19T16:13:55Z</time></trkpt><trkpt lat="38.05466518270512" lon="14.616652322989452"><ele>178.0</ele><time>2026-04-19T16:13:56Z</time></trkpt><trkpt lat="38.05477363274933" lon="14.616927466581968"><ele>178.0</ele><time>2026-04-19T16:13:57Z</time></trkpt><trkpt lat="38.05488215012164" lon="14.617199519923178"><ele>164.5</ele><time>2026-04-19T16:13:58Z</time></trkpt><trkpt lat="38.05499678657952" lon="14.617437370678282"><ele>151.0</ele><time>2026-04-19T16:13:59Z</time></trkpt><trkpt lat="38.05512401188493" lon="14.61769266945916"><ele>151.5</ele><time>2026-04-19T16:14:00Z</time></trkpt><trkpt lat="38.0552579568068" lon="14.617938111998868"><ele>152.0</ele><time>2026-04-19T16:14:01Z</time></trkpt><trkpt lat="38.05539220747454" lon="14.618172572186916"><ele>152.0</ele><time>2026-04-19T16:14:02Z</time></trkpt><trkpt lat="38.05553301444566" lon="14.618408507034339"><ele>152.0</ele><time>2026-04-19T16:14:03Z</time></trkpt><trkpt lat="38.05567866350599" lon="14.618631255416428"><ele>140.0</ele><time>2026-04-19T16:14:04Z</time></trkpt><trkpt lat="38.05586212175499" lon="14.618875621034098"><ele>128.0</ele><time>2026-04-19T16:14:05Z</time></trkpt><trkpt lat="38.05603545031639" lon="14.619039914032811"><ele>128.0</ele><time>2026-04-19T16:14:06Z</time></trkpt><trkpt lat="38.056208620370334" lon="14.619206837001325"><ele>128.0</ele><time>2026-04-19T16:14:07Z</time></trkpt><trkpt lat="38.0563800296936" lon="14.619385020100891"><ele>128.0</ele><time>2026-04-19T16:14:08Z</time></trkpt><trkpt lat="38.05655167858864" lon="14.61956226839116"><ele>126.5</ele><time>2026-04-19T16:14:09Z</time></trkpt><trkpt lat="38.0567504741701" lon="14.619749958243924"><ele>125.0</ele><time>2026-04-19T16:14:10Z</time></trkpt><trkpt lat="38.05691474086727" lon="14.619928779972632"><ele>125.0</ele><time>2026-04-19T16:14:11Z</time></trkpt><trkpt lat="38.05708330192361" lon="14.620103483852988"><ele>125.0</ele><time>2026-04-19T16:14:12Z</time></trkpt><trkpt lat="38.057252495682576" lon="14.620276720038902"><ele>125.0</ele><time>2026-04-19T16:14:13Z</time></trkpt><trkpt lat="38.057419457928376" lon="14.620457282196169"><ele>125.0</ele><time>2026-04-19T16:14:14Z</time></trkpt><trkpt lat="38.057586121213255" lon="14.620640046478115"><ele>125.0</ele><time>2026-04-19T16:14:15Z</time></trkpt><trkpt lat="38.05775738482716" lon="14.620831442587674"><ele>125.0</ele><time>2026-04-19T16:14:16Z</time></trkpt><trkpt lat="38.05792267997228" lon="14.6210364369493"><ele>125.66666666666666</ele><time>2026-04-19T16:14:17Z</time></trkpt><trkpt lat="38.05807923716958" lon="14.621235760933477"><ele>126.33333333333334</ele><time>2026-04-19T16:14:18Z</time></trkpt><trkpt lat="38.0582295333618" lon="14.621434462502124"><ele>127.0</ele><time>2026-04-19T16:14:19Z</time></trkpt><trkpt lat="38.058372961021696" lon="14.621629553416298"><ele>124.33333333333334</ele><time>2026-04-19T16:14:20Z</time></trkpt><trkpt lat="38.05849984169639" lon="14.621831520425907"><ele>121.66666666666666</ele><time>2026-04-19T16:14:21Z</time></trkpt><trkpt lat="38.058629933951416" lon="14.622014013303438"><ele>119.0</ele><time>2026-04-19T16:14:22Z</time></trkpt><trkpt lat="38.05876246082534" lon="14.62220885425322"><ele>118.33333333333333</ele><time>2026-04-19T16:14:23Z</time></trkpt><trkpt lat="38.05889240796309" lon="14.62242096512081"><ele>117.66666666666666</ele><time>2026-04-19T16:14:24Z</time></trkpt><trkpt lat="38.05901155526424" lon="14.622636598026203"><ele>117.0</ele><time>2026-04-19T16:14:25.001Z</time></trkpt><trkpt lat="38.059135064813596" lon="14.622862987015523"><ele>115.5</ele><time>2026-04-19T16:14:26.001Z</time></trkpt><trkpt lat="38.059262133798356" lon="14.623108008818809"><ele>114.0</ele><time>2026-04-19T16:14:27.001Z</time></trkpt><trkpt lat="38.059389820668436" lon="14.623360540168767"><ele>114.0</ele><time>2026-04-19T16:14:28.001Z</time></trkpt><trkpt lat="38.05951372632427" lon="14.623623042477005"><ele>114.0</ele><time>2026-04-19T16:14:29.001Z</time></trkpt><trkpt lat="38.05963326773861" lon="14.623899762899997"><ele>113.5</ele><time>2026-04-19T16:14:30.001Z</time></trkpt><trkpt lat="38.059744300320006" lon="14.6241819796813"><ele>113.0</ele><time>2026-04-19T16:14:31.001Z</time></trkpt><trkpt lat="38.059848745138645" lon="14.624469403386845"><ele>105.5</ele><time>2026-04-19T16:14:32.001Z</time></trkpt><trkpt lat="38.059954980457356" lon="14.624767167457563"><ele>98.0</ele><time>2026-04-19T16:14:33.001Z</time></trkpt><trkpt lat="38.06005790925046" lon="14.625071306907818"><ele>98.5</ele><time>2026-04-19T16:14:34.001Z</time></trkpt><trkpt lat="38.060152702192944" lon="14.625373812108693"><ele>99.0</ele><time>2026-04-19T16:14:35.001Z</time></trkpt><trkpt lat="38.06023240563797" lon="14.625676598153543"><ele>99.0</ele><time>2026-04-19T16:14:36.001Z</time></trkpt><trkpt lat="38.060302232024576" lon="14.625979158338849"><ele>99.0</ele><time>2026-04-19T16:14:37.001Z</time></trkpt><trkpt lat="38.06036356044284" lon="14.626276079905026"><ele>102.5</ele><time>2026-04-19T16:14:38.001Z</time></trkpt><trkpt lat="38.060424848780556" lon="14.626574684472994"><ele>106.0</ele><time>2026-04-19T16:14:39.001Z</time></trkpt><trkpt lat="38.060478812798664" lon="14.626875000183833"><ele>110.0</ele><time>2026-04-19T16:14:40.001Z</time></trkpt><trkpt lat="38.060524167892765" lon="14.627170875322422"><ele>114.0</ele><time>2026-04-19T16:14:41.001Z</time></trkpt><trkpt lat="38.060566826778555" lon="14.627472690793715"><ele>114.0</ele><time>2026-04-19T16:14:42.001Z</time></trkpt><trkpt lat="38.06060217807756" lon="14.62777473214932"><ele>114.0</ele><time>2026-04-19T16:14:43.001Z</time></trkpt><trkpt lat="38.06062962557752" lon="14.62807841989761"><ele>115.5</ele><time>2026-04-19T16:14:44.001Z</time></trkpt><trkpt lat="38.06065048756416" lon="14.62837980485345"><ele>117.0</ele><time>2026-04-19T16:14:45.001Z</time></trkpt><trkpt lat="38.06066242506047" lon="14.628682756467676"><ele>117.0</ele><time>2026-04-19T16:14:46.001Z</time></trkpt><trkpt lat="38.060666340404914" lon="14.628987982372612"><ele>117.0</ele><time>2026-04-19T16:14:47.001Z</time></trkpt><trkpt lat="38.06067361515264" lon="14.629288891704794"><ele>116.0</ele><time>2026-04-19T16:14:48.001Z</time></trkpt><trkpt lat="38.06066593654088" lon="14.629596457598678"><ele>115.0</ele><time>2026-04-19T16:14:49.001Z</time></trkpt><trkpt lat="38.060656205819924" lon="14.629901716267344"><ele>115.0</ele><time>2026-04-19T16:14:50.001Z</time></trkpt><trkpt lat="38.060634818737505" lon="14.63021574106859"><ele>115.0</ele><time>2026-04-19T16:14:51.001Z</time></trkpt><trkpt lat="38.06060724912413" lon="14.630526736738384"><ele>112.0</ele><time>2026-04-19T16:14:52.001Z</time></trkpt><trkpt lat="38.0605815879595" lon="14.630825656333137"><ele>109.0</ele><time>2026-04-19T16:14:53.001Z</time></trkpt><trkpt lat="38.06054489298057" lon="14.63112539328172"><ele>104.5</ele><time>2026-04-19T16:14:54.001Z</time></trkpt><trkpt lat="38.060508714501076" lon="14.631427095856123"><ele>100.0</ele><time>2026-04-19T16:14:54.999Z</time></trkpt><trkpt lat="38.060477806323675" lon="14.631729928355053"><ele>98.5</ele><time>2026-04-19T16:14:55.999Z</time></trkpt><trkpt lat="38.060458047416574" lon="14.632034982484601"><ele>97.0</ele><time>2026-04-19T16:14:56.999Z</time></trkpt><trkpt lat="38.060447090561986" lon="14.632336205586133"><ele>97.0</ele><time>2026-04-19T16:14:57.999Z</time></trkpt><trkpt lat="38.06044603067573" lon="14.632642400090292"><ele>97.0</ele><time>2026-04-19T16:14:58.999Z</time></trkpt><trkpt lat="38.060457231377754" lon="14.632943303428252"><ele>100.5</ele><time>2026-04-19T16:14:59.999Z</time></trkpt><trkpt lat="38.06048359100529" lon="14.633244090939176"><ele>104.0</ele><time>2026-04-19T16:15:00.999Z</time></trkpt><trkpt lat="38.06052474105558" lon="14.63354138373765"><ele>110.0</ele><time>2026-04-19T16:15:01.999Z</time></trkpt><trkpt lat="38.060574947098125" lon="14.63383120664583"><ele>116.0</ele><time>2026-04-19T16:15:02.999Z</time></trkpt><trkpt lat="38.060640513366145" lon="14.634122020469599"><ele>116.0</ele><time>2026-04-19T16:15:03.999Z</time></trkpt><trkpt lat="38.06071208364212" lon="14.634406063561897"><ele>116.0</ele><time>2026-04-19T16:15:04.999Z</time></trkpt><trkpt lat="38.06079375835855" lon="14.63468667561465"><ele>113.0</ele><time>2026-04-19T16:15:05.999Z</time></trkpt><trkpt lat="38.06089149105551" lon="14.634959030823156"><ele>110.0</ele><time>2026-04-19T16:15:06.999Z</time></trkpt><trkpt lat="38.06099784560577" lon="14.635224001813034"><ele>107.0</ele><time>2026-04-19T16:15:07.999Z</time></trkpt><trkpt lat="38.061116518666466" lon="14.635487156790768"><ele>104.0</ele><time>2026-04-19T16:15:08.999Z</time></trkpt><trkpt lat="38.06124187405842" lon="14.635745015817376"><ele>104.0</ele><time>2026-04-19T16:15:09.999Z</time></trkpt><trkpt lat="38.061365930244236" lon="14.63600234837515"><ele>104.0</ele><time>2026-04-19T16:15:10.999Z</time></trkpt><trkpt lat="38.06149198472227" lon="14.63626014134706"><ele>103.0</ele><time>2026-04-19T16:15:11.999Z</time></trkpt><trkpt lat="38.06161232981256" lon="14.636519264549175"><ele>102.0</ele><time>2026-04-19T16:15:12.999Z</time></trkpt><trkpt lat="38.06173584045353" lon="14.636775856467908"><ele>104.5</ele><time>2026-04-19T16:15:13.999Z</time></trkpt><trkpt lat="38.061849535641706" lon="14.637038806666732"><ele>107.0</ele><time>2026-04-19T16:15:14.999Z</time></trkpt><trkpt lat="38.06196303724579" lon="14.637306487364238"><ele>107.0</ele><time>2026-04-19T16:15:15.999Z</time></trkpt><trkpt lat="38.06206908727114" lon="14.637577865904634"><ele>107.0</ele><time>2026-04-19T16:15:16.999Z</time></trkpt><trkpt lat="38.06216829499086" lon="14.637855334022113"><ele>108.0</ele><time>2026-04-19T16:15:17.999Z</time></trkpt><trkpt lat="38.062254931490024" lon="14.638135212236525"><ele>109.0</ele><time>2026-04-19T16:15:18.999Z</time></trkpt><trkpt lat="38.06233040788571" lon="14.638422476652647"><ele>106.0</ele><time>2026-04-19T16:15:20Z</time></trkpt><trkpt lat="38.06240649983694" lon="14.638709047921436"><ele>103.0</ele><time>2026-04-19T16:15:21Z</time></trkpt><trkpt lat="38.06246718798573" lon="14.638993827230921"><ele>99.0</ele><time>2026-04-19T16:15:22Z</time></trkpt><trkpt lat="38.06252163856804" lon="14.639283254866317"><ele>95.0</ele><time>2026-04-19T16:15:23Z</time></trkpt><trkpt lat="38.06257190571693" lon="14.639573331311167"><ele>95.0</ele><time>2026-04-19T16:15:24Z</time></trkpt><trkpt lat="38.062619300893104" lon="14.639863373513784"><ele>95.0</ele><time>2026-04-19T16:15:25Z</time></trkpt><trkpt lat="38.06266400112195" lon="14.640156431200223"><ele>99.5</ele><time>2026-04-19T16:15:26Z</time></trkpt><trkpt lat="38.06270487428161" lon="14.640447072770055"><ele>104.0</ele><time>2026-04-19T16:15:27Z</time></trkpt><trkpt lat="38.06274075440124" lon="14.64073778861711"><ele>104.0</ele><time>2026-04-19T16:15:28Z</time></trkpt><trkpt lat="38.0627715059477" lon="14.641029184414167"><ele>104.0</ele><time>2026-04-19T16:15:29Z</time></trkpt><trkpt lat="38.06280054020821" lon="14.641320036255422"><ele>103.5</ele><time>2026-04-19T16:15:30Z</time></trkpt><trkpt lat="38.06282844547824" lon="14.641609273581537"><ele>103.0</ele><time>2026-04-19T16:15:31Z</time></trkpt><trkpt lat="38.06285640621277" lon="14.641899203235896"><ele>99.5</ele><time>2026-04-19T16:15:32Z</time></trkpt><trkpt lat="38.06289564589563" lon="14.64219609557285"><ele>96.0</ele><time>2026-04-19T16:15:33Z</time></trkpt><trkpt lat="38.062940183077544" lon="14.642507486890867"><ele>96.0</ele><time>2026-04-19T16:15:34Z</time></trkpt><trkpt lat="38.06300138811188" lon="14.642793551549943"><ele>96.0</ele><time>2026-04-19T16:15:35Z</time></trkpt><trkpt lat="38.06305396622295" lon="14.643082278270803"><ele>94.0</ele><time>2026-04-19T16:15:36Z</time></trkpt><trkpt lat="38.06310789519412" lon="14.643371357456791"><ele>92.0</ele><time>2026-04-19T16:15:37Z</time></trkpt><trkpt lat="38.06317140395684" lon="14.643660312393145"><ele>92.0</ele><time>2026-04-19T16:15:38Z</time></trkpt><trkpt lat="38.06323741605531" lon="14.643946971677595"><ele>92.0</ele><time>2026-04-19T16:15:39Z</time></trkpt><trkpt lat="38.06331010046181" lon="14.64423297752934"><ele>85.5</ele><time>2026-04-19T16:15:40Z</time></trkpt><trkpt lat="38.06338714373331" lon="14.644518597497726"><ele>79.0</ele><time>2026-04-19T16:15:41Z</time></trkpt><trkpt lat="38.06346305565175" lon="14.644805724357935"><ele>79.0</ele><time>2026-04-19T16:15:42Z</time></trkpt><trkpt lat="38.06354706322261" lon="14.645095412405531"><ele>79.0</ele><time>2026-04-19T16:15:43Z</time></trkpt><trkpt lat="38.06363558967976" lon="14.645378814896134"><ele>76.0</ele><time>2026-04-19T16:15:44Z</time></trkpt><trkpt lat="38.06372738999596" lon="14.645663022799065"><ele>73.0</ele><time>2026-04-19T16:15:45Z</time></trkpt><trkpt lat="38.06382310332459" lon="14.645943311353937"><ele>72.5</ele><time>2026-04-19T16:15:46Z</time></trkpt><trkpt lat="38.06392386513626" lon="14.646217978478703"><ele>72.0</ele><time>2026-04-19T16:15:47Z</time></trkpt><trkpt lat="38.06402947909498" lon="14.646486895333918"><ele>73.0</ele><time>2026-04-19T16:15:48Z</time></trkpt><trkpt lat="38.06413689684463" lon="14.646748588975806"><ele>74.0</ele><time>2026-04-19T16:15:49Z</time></trkpt><trkpt lat="38.06424643908115" lon="14.64700644320313"><ele>80.33333333333334</ele><time>2026-04-19T16:15:50Z</time></trkpt><trkpt lat="38.0643564168239" lon="14.64725708592217"><ele>86.66666666666667</ele><time>2026-04-19T16:15:51Z</time></trkpt><trkpt lat="38.06446976278596" lon="14.647501057856871"><ele>93.0</ele><time>2026-04-19T16:15:52Z</time></trkpt><trkpt lat="38.06457635383967" lon="14.647737473177113"><ele>100.66666666666666</ele><time>2026-04-19T16:15:53Z</time></trkpt><trkpt lat="38.06468485728872" lon="14.647974536451375"><ele>108.33333333333333</ele><time>2026-04-19T16:15:54Z</time></trkpt><trkpt lat="38.0647955470242" lon="14.64821345679926"><ele>116.0</ele><time>2026-04-19T16:15:55Z</time></trkpt><trkpt lat="38.06490584878365" lon="14.648452704929866"><ele>118.0</ele><time>2026-04-19T16:15:56Z</time></trkpt><trkpt lat="38.065019088435676" lon="14.648694506594888"><ele>120.0</ele><time>2026-04-19T16:15:57Z</time></trkpt><trkpt lat="38.065149612928685" lon="14.648916897891702"><ele>122.0</ele><time>2026-04-19T16:15:58Z</time></trkpt><trkpt lat="38.06527845909787" lon="14.64913589640647"><ele>122.0</ele><time>2026-04-19T16:15:59Z</time></trkpt><trkpt lat="38.06540920291982" lon="14.649349983102836"><ele>122.0</ele><time>2026-04-19T16:16:00Z</time></trkpt><trkpt lat="38.065648289134735" lon="14.649606340811546"><ele>119.0</ele><time>2026-04-19T16:16:01Z</time></trkpt><trkpt lat="38.0657943914247" lon="14.649823890752526"><ele>116.0</ele><time>2026-04-19T16:16:02Z</time></trkpt><trkpt lat="38.06594283307204" lon="14.650036381902181"><ele>113.0</ele><time>2026-04-19T16:16:03Z</time></trkpt><trkpt lat="38.066096243921116" lon="14.650245140192595"><ele>109.5</ele><time>2026-04-19T16:16:04Z</time></trkpt><trkpt lat="38.06625361273884" lon="14.650449743698424"><ele>106.0</ele><time>2026-04-19T16:16:05Z</time></trkpt><trkpt lat="38.06641391535765" lon="14.650650501175715"><ele>106.0</ele><time>2026-04-19T16:16:06Z</time></trkpt><trkpt lat="38.06657547790896" lon="14.650855024940737"><ele>106.0</ele><time>2026-04-19T16:16:07Z</time></trkpt><trkpt lat="38.0667418407892" lon="14.651057652461164"><ele>103.5</ele><time>2026-04-19T16:16:08Z</time></trkpt><trkpt lat="38.06691035243908" lon="14.651258851126265"><ele>101.0</ele><time>2026-04-19T16:16:09Z</time></trkpt><trkpt lat="38.06708346962975" lon="14.651463749435903"><ele>101.0</ele><time>2026-04-19T16:16:10Z</time></trkpt><trkpt lat="38.067265148759915" lon="14.65167169527224"><ele>101.0</ele><time>2026-04-19T16:16:11Z</time></trkpt><trkpt lat="38.067486323283376" lon="14.651926261554616"><ele>93.5</ele><time>2026-04-19T16:16:12Z</time></trkpt><trkpt lat="38.06771286630523" lon="14.65208183329211"><ele>86.0</ele><time>2026-04-19T16:16:13.001Z</time></trkpt><trkpt lat="38.06792124621914" lon="14.65227720202313"><ele>86.0</ele><time>2026-04-19T16:16:14.001Z</time></trkpt><trkpt lat="38.06812170024892" lon="14.652488207899747"><ele>86.0</ele><time>2026-04-19T16:16:15.001Z</time></trkpt><trkpt lat="38.06832407063143" lon="14.652682104398778"><ele>86.0</ele><time>2026-04-19T16:16:16.001Z</time></trkpt><trkpt lat="38.06855956293099" lon="14.652884858590093"><ele>86.0</ele><time>2026-04-19T16:16:17.001Z</time></trkpt><trkpt lat="38.068767337741534" lon="14.653080213498543"><ele>86.0</ele><time>2026-04-19T16:16:18.001Z</time></trkpt><trkpt lat="38.0689765629412" lon="14.65326695455399"><ele>86.0</ele><time>2026-04-19T16:16:19.001Z</time></trkpt><trkpt lat="38.06918629692459" lon="14.653455189205078"><ele>84.0</ele><time>2026-04-19T16:16:20.001Z</time></trkpt><trkpt lat="38.06939606103118" lon="14.653640476748212"><ele>82.0</ele><time>2026-04-19T16:16:21.001Z</time></trkpt><trkpt lat="38.069599334309686" lon="14.65382700524443"><ele>82.0</ele><time>2026-04-19T16:16:22.001Z</time></trkpt><trkpt lat="38.06979985742254" lon="14.654015596715494"><ele>82.0</ele><time>2026-04-19T16:16:23.001Z</time></trkpt><trkpt lat="38.06999453631078" lon="14.65420021957644"><ele>73.0</ele><time>2026-04-19T16:16:24.001Z</time></trkpt><trkpt lat="38.07018539715866" lon="14.654379286522598"><ele>64.0</ele><time>2026-04-19T16:16:25.001Z</time></trkpt><trkpt lat="38.0703728826955" lon="14.654560325370275"><ele>63.5</ele><time>2026-04-19T16:16:26.001Z</time></trkpt><trkpt lat="38.07055904114189" lon="14.654740923427092"><ele>63.0</ele><time>2026-04-19T16:16:27.001Z</time></trkpt><trkpt lat="38.07074075848213" lon="14.654929679690376"><ele>64.0</ele><time>2026-04-19T16:16:28.001Z</time></trkpt><trkpt lat="38.070921951279" lon="14.655115698268903"><ele>65.0</ele><time>2026-04-19T16:16:29.001Z</time></trkpt><trkpt lat="38.071103002979335" lon="14.65529874257735"><ele>65.0</ele><time>2026-04-19T16:16:30.001Z</time></trkpt><trkpt lat="38.071282004088026" lon="14.655487122527768"><ele>65.0</ele><time>2026-04-19T16:16:31.001Z</time></trkpt><trkpt lat="38.07145832635748" lon="14.655673491227358"><ele>61.5</ele><time>2026-04-19T16:16:32.001Z</time></trkpt><trkpt lat="38.07163448878257" lon="14.655860389296533"><ele>58.0</ele><time>2026-04-19T16:16:33.001Z</time></trkpt><trkpt lat="38.07182143207941" lon="14.656049820142018"><ele>57.5</ele><time>2026-04-19T16:16:34.001Z</time></trkpt><trkpt lat="38.07199189731798" lon="14.656243169190365"><ele>57.0</ele><time>2026-04-19T16:16:35.001Z</time></trkpt><trkpt lat="38.072162945852746" lon="14.656427601168568"><ele>57.0</ele><time>2026-04-19T16:16:36.001Z</time></trkpt><trkpt lat="38.072332767186495" lon="14.656617838943848"><ele>57.0</ele><time>2026-04-19T16:16:37.001Z</time></trkpt><trkpt lat="38.072502487806425" lon="14.656812972890194"><ele>57.0</ele><time>2026-04-19T16:16:38.001Z</time></trkpt><trkpt lat="38.07267357911337" lon="14.657009491166775"><ele>57.0</ele><time>2026-04-19T16:16:39.001Z</time></trkpt><trkpt lat="38.07285155947722" lon="14.657211124978796"><ele>57.0</ele><time>2026-04-19T16:16:40.001Z</time></trkpt><trkpt lat="38.073023662323195" lon="14.657415904819239"><ele>57.0</ele><time>2026-04-19T16:16:41.001Z</time></trkpt><trkpt lat="38.07319432709352" lon="14.6576229096171"><ele>58.0</ele><time>2026-04-19T16:16:42.001Z</time></trkpt><trkpt lat="38.07336668316547" lon="14.657832565081291"><ele>59.0</ele><time>2026-04-19T16:16:43.001Z</time></trkpt><trkpt lat="38.07353584049187" lon="14.658048108890894"><ele>59.0</ele><time>2026-04-19T16:16:44.001Z</time></trkpt><trkpt lat="38.07370632738707" lon="14.65826028571694"><ele>59.0</ele><time>2026-04-19T16:16:45.001Z</time></trkpt><trkpt lat="38.07387561725762" lon="14.658476137386078"><ele>56.5</ele><time>2026-04-19T16:16:46.001Z</time></trkpt><trkpt lat="38.07404866680727" lon="14.658693075050135"><ele>54.0</ele><time>2026-04-19T16:16:47.001Z</time></trkpt><trkpt lat="38.07422071351069" lon="14.658909689032358"><ele>54.0</ele><time>2026-04-19T16:16:48.001Z</time></trkpt><trkpt lat="38.07439487012271" lon="14.659129282149427"><ele>54.0</ele><time>2026-04-19T16:16:49.001Z</time></trkpt><trkpt lat="38.074565697007735" lon="14.65934831967678"><ele>51.5</ele><time>2026-04-19T16:16:50.001Z</time></trkpt><trkpt lat="38.07473544690653" lon="14.659576605503894"><ele>49.0</ele><time>2026-04-19T16:16:51.001Z</time></trkpt><trkpt lat="38.074905121052865" lon="14.659806161407369"><ele>47.5</ele><time>2026-04-19T16:16:52.001Z</time></trkpt><trkpt lat="38.075073296798756" lon="14.660039377080507"><ele>46.0</ele><time>2026-04-19T16:16:53.001Z</time></trkpt><trkpt lat="38.07523885450369" lon="14.660273559385422"><ele>52.0</ele><time>2026-04-19T16:16:54.001Z</time></trkpt><trkpt lat="38.07539979518061" lon="14.660508279428328"><ele>58.0</ele><time>2026-04-19T16:16:55.001Z</time></trkpt><trkpt lat="38.07556069210745" lon="14.66074497483293"><ele>58.0</ele><time>2026-04-19T16:16:56.001Z</time></trkpt><trkpt lat="38.07572148866232" lon="14.660981823076819"><ele>58.0</ele><time>2026-04-19T16:16:57.001Z</time></trkpt><trkpt lat="38.07589862405253" lon="14.661218795783856"><ele>60.5</ele><time>2026-04-19T16:16:58.001Z</time></trkpt><trkpt lat="38.076076147352104" lon="14.661467411690937"><ele>63.0</ele><time>2026-04-19T16:16:59.001Z</time></trkpt><trkpt lat="38.07627339228357" lon="14.661731228487032"><ele>58.5</ele><time>2026-04-19T16:17:00.001Z</time></trkpt><trkpt lat="38.076353989131825" lon="14.661981675759202"><ele>54.0</ele><time>2026-04-19T16:17:00.999Z</time></trkpt><trkpt lat="38.076492248994434" lon="14.66224917189775"><ele>47.5</ele><time>2026-04-19T16:17:01.999Z</time></trkpt><trkpt lat="38.07663028360115" lon="14.662511803928153"><ele>41.0</ele><time>2026-04-19T16:17:02.999Z</time></trkpt><trkpt lat="38.07676982036854" lon="14.662765195641146"><ele>40.5</ele><time>2026-04-19T16:17:03.999Z</time></trkpt><trkpt lat="38.07690844638669" lon="14.66301580912945"><ele>40.0</ele><time>2026-04-19T16:17:04.999Z</time></trkpt><trkpt lat="38.077046124148275" lon="14.663269388276754"><ele>40.0</ele><time>2026-04-19T16:17:05.999Z</time></trkpt><trkpt lat="38.077183888045845" lon="14.663519344181797"><ele>40.0</ele><time>2026-04-19T16:17:06.999Z</time></trkpt><trkpt lat="38.07731917741281" lon="14.663772703657116"><ele>37.5</ele><time>2026-04-19T16:17:07.999Z</time></trkpt><trkpt lat="38.07745267052241" lon="14.664025869051887"><ele>35.0</ele><time>2026-04-19T16:17:08.999Z</time></trkpt><trkpt lat="38.07758658793173" lon="14.664280871183227"><ele>35.5</ele><time>2026-04-19T16:17:09.999Z</time></trkpt><trkpt lat="38.077717874390466" lon="14.66453648036494"><ele>36.0</ele><time>2026-04-19T16:17:10.999Z</time></trkpt><trkpt lat="38.077848022722605" lon="14.664794788803823"><ele>36.0</ele><time>2026-04-19T16:17:11.999Z</time></trkpt><trkpt lat="38.07797732111174" lon="14.665053167309141"><ele>36.0</ele><time>2026-04-19T16:17:12.999Z</time></trkpt><trkpt lat="38.07810233889169" lon="14.66531354248488"><ele>36.5</ele><time>2026-04-19T16:17:13.999Z</time></trkpt><trkpt lat="38.07822477584383" lon="14.665571389341011"><ele>37.0</ele><time>2026-04-19T16:17:14.999Z</time></trkpt><trkpt lat="38.07834502755631" lon="14.665828263412102"><ele>37.0</ele><time>2026-04-19T16:17:15.999Z</time></trkpt><trkpt lat="38.07846104971924" lon="14.666083018546773"><ele>37.0</ele><time>2026-04-19T16:17:16.999Z</time></trkpt><trkpt lat="38.07857302533932" lon="14.66633620885743"><ele>37.333333333333336</ele><time>2026-04-19T16:17:17.999Z</time></trkpt><trkpt lat="38.078680035352" lon="14.666583620380301"><ele>37.666666666666664</ele><time>2026-04-19T16:17:18.999Z</time></trkpt><trkpt lat="38.07878982836773" lon="14.666828014202608"><ele>38.0</ele><time>2026-04-19T16:17:19.999Z</time></trkpt><trkpt lat="38.078898000149124" lon="14.667070038395677"><ele>38.33333333333333</ele><time>2026-04-19T16:17:20.999Z</time></trkpt><trkpt lat="38.07900610892475" lon="14.667312254284973"><ele>38.666666666666664</ele><time>2026-04-19T16:17:21.999Z</time></trkpt><trkpt lat="38.07910812651182" lon="14.667550599096685"><ele>39.0</ele><time>2026-04-19T16:17:23Z</time></trkpt><trkpt lat="38.079208830571794" lon="14.66778764434259"><ele>38.333333333333336</ele><time>2026-04-19T16:17:24Z</time></trkpt><trkpt lat="38.07931021987341" lon="14.66802589196834"><ele>37.66666666666667</ele><time>2026-04-19T16:17:25Z</time></trkpt><trkpt lat="38.07941058600209" lon="14.668270388845778"><ele>37.0</ele><time>2026-04-19T16:17:26Z</time></trkpt><trkpt lat="38.079507166676464" lon="14.668514274239513"><ele>40.0</ele><time>2026-04-19T16:17:27Z</time></trkpt><trkpt lat="38.07960254326257" lon="14.66876088089286"><ele>43.0</ele><time>2026-04-19T16:17:28Z</time></trkpt><trkpt lat="38.07969622690103" lon="14.669004314729946"><ele>46.0</ele><time>2026-04-19T16:17:29Z</time></trkpt><trkpt lat="38.0797909116602" lon="14.669249100949818"><ele>52.333333333333336</ele><time>2026-04-19T16:17:30Z</time></trkpt><trkpt lat="38.079880376579254" lon="14.66948811958679"><ele>58.66666666666667</ele><time>2026-04-19T16:17:31Z</time></trkpt><trkpt lat="38.07996909014365" lon="14.669734801065426"><ele>65.0</ele><time>2026-04-19T16:17:32Z</time></trkpt><trkpt lat="38.0800566042664" lon="14.669982325337083"><ele>65.0</ele><time>2026-04-19T16:17:33Z</time></trkpt><trkpt lat="38.080148582757225" lon="14.670222916057345"><ele>65.0</ele><time>2026-04-19T16:17:34Z</time></trkpt><trkpt lat="38.08023896919852" lon="14.670468252292526"><ele>65.0</ele><time>2026-04-19T16:17:35Z</time></trkpt><trkpt lat="38.080330914372276" lon="14.670712261672943"><ele>66.0</ele><time>2026-04-19T16:17:36Z</time></trkpt><trkpt lat="38.08042432553472" lon="14.670957274315462"><ele>67.0</ele><time>2026-04-19T16:17:37Z</time></trkpt><trkpt lat="38.08052936806974" lon="14.671360750929313"><ele>67.0</ele><time>2026-04-19T16:17:38Z</time></trkpt><trkpt lat="38.08052334823108" lon="14.671633284793105"><ele>67.0</ele><time>2026-04-19T16:17:39Z</time></trkpt><trkpt lat="38.08057796152995" lon="14.671918014486925"><ele>67.0</ele><time>2026-04-19T16:17:40Z</time></trkpt><trkpt lat="38.08064793054835" lon="14.672192471737686"><ele>72.0</ele><time>2026-04-19T16:17:41Z</time></trkpt><trkpt lat="38.08071041663231" lon="14.672476979247527"><ele>77.0</ele><time>2026-04-19T16:17:42Z</time></trkpt><trkpt lat="38.080769468628894" lon="14.672770991207907"><ele>66.0</ele><time>2026-04-19T16:17:43Z</time></trkpt><trkpt lat="38.08082105241264" lon="14.67305828358368"><ele>55.0</ele><time>2026-04-19T16:17:44Z</time></trkpt><trkpt lat="38.08086782869483" lon="14.673353410326987"><ele>59.5</ele><time>2026-04-19T16:17:45Z</time></trkpt><trkpt lat="38.08091337725951" lon="14.673649680114075"><ele>64.0</ele><time>2026-04-19T16:17:46Z</time></trkpt><trkpt lat="38.08095312584884" lon="14.673946354609408"><ele>64.0</ele><time>2026-04-19T16:17:47Z</time></trkpt><trkpt lat="38.08099388342173" lon="14.674241046726344"><ele>64.0</ele><time>2026-04-19T16:17:48Z</time></trkpt><trkpt lat="38.081031674066736" lon="14.674535420589551"><ele>68.0</ele><time>2026-04-19T16:17:49Z</time></trkpt><trkpt lat="38.0810673330058" lon="14.674819829759873"><ele>72.0</ele><time>2026-04-19T16:17:50Z</time></trkpt><trkpt lat="38.08110232980825" lon="14.675121431182637"><ele>74.0</ele><time>2026-04-19T16:17:51Z</time></trkpt><trkpt lat="38.081125526150366" lon="14.675419285250458"><ele>76.0</ele><time>2026-04-19T16:17:52Z</time></trkpt><trkpt lat="38.08116388642338" lon="14.675711639751949"><ele>76.0</ele><time>2026-04-19T16:17:53Z</time></trkpt><trkpt lat="38.0811993523963" lon="14.676002287264721"><ele>76.0</ele><time>2026-04-19T16:17:54Z</time></trkpt><trkpt lat="38.081232242650664" lon="14.676291952505128"><ele>70.5</ele><time>2026-04-19T16:17:55Z</time></trkpt><trkpt lat="38.08126671192538" lon="14.676582390373781"><ele>65.0</ele><time>2026-04-19T16:17:56Z</time></trkpt><trkpt lat="38.08129923832236" lon="14.676869757755988"><ele>59.0</ele><time>2026-04-19T16:17:57Z</time></trkpt><trkpt lat="38.081338519761914" lon="14.677163315021325"><ele>53.0</ele><time>2026-04-19T16:17:58Z</time></trkpt><trkpt lat="38.081385013829625" lon="14.67745211640945"><ele>53.0</ele><time>2026-04-19T16:17:59Z</time></trkpt><trkpt lat="38.08142891100694" lon="14.677741552070687"><ele>53.0</ele><time>2026-04-19T16:18:00Z</time></trkpt><trkpt lat="38.081466631926126" lon="14.678036606156345"><ele>59.5</ele><time>2026-04-19T16:18:01Z</time></trkpt><trkpt lat="38.081502313897346" lon="14.678331237057337"><ele>66.0</ele><time>2026-04-19T16:18:02Z</time></trkpt><trkpt lat="38.08153769202998" lon="14.678622109565993"><ele>73.5</ele><time>2026-04-19T16:18:03Z</time></trkpt><trkpt lat="38.08157667926595" lon="14.67891336338855"><ele>81.0</ele><time>2026-04-19T16:18:04Z</time></trkpt><trkpt lat="38.081609939633466" lon="14.679206865929801"><ele>83.5</ele><time>2026-04-19T16:18:05Z</time></trkpt><trkpt lat="38.081665037581004" lon="14.679489598798405"><ele>86.0</ele><time>2026-04-19T16:18:06Z</time></trkpt><trkpt lat="38.08172621816165" lon="14.67976606349883"><ele>86.0</ele><time>2026-04-19T16:18:07Z</time></trkpt><trkpt lat="38.08178001122585" lon="14.680018676056324"><ele>86.0</ele><time>2026-04-19T16:18:08Z</time></trkpt><trkpt lat="38.081837411965516" lon="14.680286920866637"><ele>86.0</ele><time>2026-04-19T16:18:09Z</time></trkpt><trkpt lat="38.08189839842724" lon="14.680574083941877"><ele>86.5</ele><time>2026-04-19T16:18:10Z</time></trkpt><trkpt lat="38.08195834949249" lon="14.680860117122867"><ele>87.0</ele><time>2026-04-19T16:18:11Z</time></trkpt><trkpt lat="38.08202207678773" lon="14.681153891427252"><ele>87.0</ele><time>2026-04-19T16:18:12Z</time></trkpt><trkpt lat="38.08209080258162" lon="14.681446377931994"><ele>87.0</ele><time>2026-04-19T16:18:13.001Z</time></trkpt><trkpt lat="38.08216474685871" lon="14.681725330713498"><ele>88.33333333333333</ele><time>2026-04-19T16:18:14.001Z</time></trkpt><trkpt lat="38.08223404722672" lon="14.681975493371851"><ele>89.66666666666666</ele><time>2026-04-19T16:18:15.001Z</time></trkpt><trkpt lat="38.08229669515857" lon="14.68222349627364"><ele>91.0</ele><time>2026-04-19T16:18:16.001Z</time></trkpt><trkpt lat="38.082365651778225" lon="14.682471132567436"><ele>90.0</ele><time>2026-04-19T16:18:17.001Z</time></trkpt><trkpt lat="38.08244693281908" lon="14.682747865747901"><ele>89.0</ele><time>2026-04-19T16:18:18.001Z</time></trkpt><trkpt lat="38.08252676800602" lon="14.683024872728494"><ele>89.0</ele><time>2026-04-19T16:18:19.001Z</time></trkpt><trkpt lat="38.082611638940456" lon="14.683280747530336"><ele>89.0</ele><time>2026-04-19T16:18:20.001Z</time></trkpt><trkpt lat="38.08269750253578" lon="14.683535036390913"><ele>89.0</ele><time>2026-04-19T16:18:21.001Z</time></trkpt><trkpt lat="38.08278360232548" lon="14.683795067802631"><ele>91.0</ele><time>2026-04-19T16:18:22.001Z</time></trkpt><trkpt lat="38.08287498013943" lon="14.684057110297545"><ele>93.0</ele><time>2026-04-19T16:18:23.001Z</time></trkpt><trkpt lat="38.08296744341894" lon="14.684326610807435"><ele>92.5</ele><time>2026-04-19T16:18:24.001Z</time></trkpt><trkpt lat="38.083064173024724" lon="14.684588563795907"><ele>92.0</ele><time>2026-04-19T16:18:25.001Z</time></trkpt><trkpt lat="38.08316227247409" lon="14.684848446715135"><ele>92.0</ele><time>2026-04-19T16:18:26.001Z</time></trkpt><trkpt lat="38.08326255696189" lon="14.685101877708231"><ele>92.0</ele><time>2026-04-19T16:18:27.001Z</time></trkpt><trkpt lat="38.0833654277889" lon="14.685353422412303"><ele>92.0</ele><time>2026-04-19T16:18:28.001Z</time></trkpt><trkpt lat="38.08347061786336" lon="14.68560614992867"><ele>92.5</ele><time>2026-04-19T16:18:29.001Z</time></trkpt><trkpt lat="38.08357876812071" lon="14.685863247318169"><ele>93.0</ele><time>2026-04-19T16:18:30.001Z</time></trkpt><trkpt lat="38.083688066963504" lon="14.686118691002946"><ele>93.0</ele><time>2026-04-19T16:18:31.001Z</time></trkpt><trkpt lat="38.08379970587791" lon="14.686375659355047"><ele>93.0</ele><time>2026-04-19T16:18:32.001Z</time></trkpt><trkpt lat="38.0839116075855" lon="14.686633148184523"><ele>93.0</ele><time>2026-04-19T16:18:33.001Z</time></trkpt><trkpt lat="38.084026988176504" lon="14.68688831847003"><ele>93.0</ele><time>2026-04-19T16:18:34.001Z</time></trkpt><trkpt lat="38.08414126468766" lon="14.687135393853534"><ele>92.0</ele><time>2026-04-19T16:18:35.001Z</time></trkpt><trkpt lat="38.084267008294944" lon="14.68738443284693"><ele>91.0</ele><time>2026-04-19T16:18:36.001Z</time></trkpt><trkpt lat="38.084390790370946" lon="14.687627885510654"><ele>90.5</ele><time>2026-04-19T16:18:37.001Z</time></trkpt><trkpt lat="38.08452163090691" lon="14.68787556747124"><ele>90.0</ele><time>2026-04-19T16:18:38.001Z</time></trkpt><trkpt lat="38.08464814799079" lon="14.688119555364013"><ele>90.0</ele><time>2026-04-19T16:18:39.001Z</time></trkpt><trkpt lat="38.084775758254686" lon="14.688362608941736"><ele>90.0</ele><time>2026-04-19T16:18:40.001Z</time></trkpt><trkpt lat="38.084907342501175" lon="14.688601147853754"><ele>82.5</ele><time>2026-04-19T16:18:41.001Z</time></trkpt><trkpt lat="38.085040771831146" lon="14.688837597504088"><ele>75.0</ele><time>2026-04-19T16:18:42.001Z</time></trkpt><trkpt lat="38.08517736414781" lon="14.689071997394356"><ele>75.0</ele><time>2026-04-19T16:18:43.001Z</time></trkpt><trkpt lat="38.08531367207549" lon="14.689307775674367"><ele>75.0</ele><time>2026-04-19T16:18:44.001Z</time></trkpt><trkpt lat="38.08544681319736" lon="14.689546793935458"><ele>69.0</ele><time>2026-04-19T16:18:45.001Z</time></trkpt><trkpt lat="38.08558204030317" lon="14.689788879056639"><ele>63.0</ele><time>2026-04-19T16:18:46.001Z</time></trkpt><trkpt lat="38.08571508253271" lon="14.690031663517797"><ele>74.5</ele><time>2026-04-19T16:18:47.001Z</time></trkpt><trkpt lat="38.08584273886795" lon="14.69026839974182"><ele>86.0</ele><time>2026-04-19T16:18:48.001Z</time></trkpt><trkpt lat="38.08597456302535" lon="14.69050748571735"><ele>86.0</ele><time>2026-04-19T16:18:49.001Z</time></trkpt><trkpt lat="38.08611098234329" lon="14.690745902991187"><ele>86.0</ele><time>2026-04-19T16:18:50.001Z</time></trkpt><trkpt lat="38.086247918499055" lon="14.690983113521597"><ele>92.0</ele><time>2026-04-19T16:18:51.001Z</time></trkpt><trkpt lat="38.08639052254792" lon="14.691217920993298"><ele>98.0</ele><time>2026-04-19T16:18:52.001Z</time></trkpt><trkpt lat="38.086539885062116" lon="14.691437127614623"><ele>96.0</ele><time>2026-04-19T16:18:53.001Z</time></trkpt><trkpt lat="38.08669428004377" lon="14.691652339078724"><ele>94.0</ele><time>2026-04-19T16:18:54.001Z</time></trkpt><trkpt lat="38.086854376598" lon="14.69186179567107"><ele>99.0</ele><time>2026-04-19T16:18:55.001Z</time></trkpt><trkpt lat="38.087019435844745" lon="14.69206794531692"><ele>104.0</ele><time>2026-04-19T16:18:56.001Z</time></trkpt><trkpt lat="38.08718991443943" lon="14.692267337329188"><ele>104.0</ele><time>2026-04-19T16:18:57.001Z</time></trkpt><trkpt lat="38.08736214240121" lon="14.692454603579495"><ele>104.0</ele><time>2026-04-19T16:18:58.001Z</time></trkpt><trkpt lat="38.08753749213595" lon="14.692641732526926"><ele>103.5</ele><time>2026-04-19T16:18:59.001Z</time></trkpt><trkpt lat="38.08771654566633" lon="14.69282656083673"><ele>103.0</ele><time>2026-04-19T16:19:00.001Z</time></trkpt><trkpt lat="38.08790036165173" lon="14.692999402366166"><ele>103.0</ele><time>2026-04-19T16:19:01.001Z</time></trkpt><trkpt lat="38.0880884835595" lon="14.693166675821569"><ele>103.0</ele><time>2026-04-19T16:19:02.001Z</time></trkpt><trkpt lat="38.08827993024193" lon="14.69333066199169"><ele>100.5</ele><time>2026-04-19T16:19:03.001Z</time></trkpt><trkpt lat="38.08847092813804" lon="14.693497574078028"><ele>98.0</ele><time>2026-04-19T16:19:04.001Z</time></trkpt><trkpt lat="38.088660438817996" lon="14.693664161026206"><ele>106.5</ele><time>2026-04-19T16:19:05.001Z</time></trkpt><trkpt lat="38.08885080348282" lon="14.69382782046476"><ele>115.0</ele><time>2026-04-19T16:19:06.001Z</time></trkpt><trkpt lat="38.08904152867652" lon="14.693989270317044"><ele>109.5</ele><time>2026-04-19T16:19:06.999Z</time></trkpt><trkpt lat="38.08923258589013" lon="14.694150177573663"><ele>104.0</ele><time>2026-04-19T16:19:07.999Z</time></trkpt><trkpt lat="38.089422008914276" lon="14.694316160668135"><ele>110.0</ele><time>2026-04-19T16:19:08.999Z</time></trkpt><trkpt lat="38.08960833541177" lon="14.694486183516366"><ele>116.0</ele><time>2026-04-19T16:19:09.999Z</time></trkpt><trkpt lat="38.08979645108832" lon="14.69466074808939"><ele>110.5</ele><time>2026-04-19T16:19:10.999Z</time></trkpt><trkpt lat="38.08998107277022" lon="14.694834762836992"><ele>105.0</ele><time>2026-04-19T16:19:11.999Z</time></trkpt><trkpt lat="38.09016480510846" lon="14.695013343131212"><ele>105.0</ele><time>2026-04-19T16:19:12.999Z</time></trkpt><trkpt lat="38.09034629566508" lon="14.695193261376115"><ele>105.0</ele><time>2026-04-19T16:19:13.999Z</time></trkpt><trkpt lat="38.090526110021955" lon="14.695375383126372"><ele>106.0</ele><time>2026-04-19T16:19:14.999Z</time></trkpt><trkpt lat="38.09070466649907" lon="14.695558735310508"><ele>107.0</ele><time>2026-04-19T16:19:15.999Z</time></trkpt><trkpt lat="38.09088056025287" lon="14.695750925694435"><ele>107.0</ele><time>2026-04-19T16:19:16.999Z</time></trkpt><trkpt lat="38.091055030429914" lon="14.695943242567058"><ele>107.0</ele><time>2026-04-19T16:19:17.999Z</time></trkpt><trkpt lat="38.0912268889545" lon="14.69614105874813"><ele>113.0</ele><time>2026-04-19T16:19:18.999Z</time></trkpt><trkpt lat="38.09139689154821" lon="14.696339038357577"><ele>119.0</ele><time>2026-04-19T16:19:19.999Z</time></trkpt><trkpt lat="38.091563496597686" lon="14.696541115330533"><ele>115.0</ele><time>2026-04-19T16:19:20.999Z</time></trkpt><trkpt lat="38.09172542808429" lon="14.696745866024328"><ele>111.0</ele><time>2026-04-19T16:19:21.999Z</time></trkpt><trkpt lat="38.09188947049467" lon="14.696954450677008"><ele>111.0</ele><time>2026-04-19T16:19:23Z</time></trkpt><trkpt lat="38.09205323631542" lon="14.697171496598239"><ele>111.0</ele><time>2026-04-19T16:19:24Z</time></trkpt><trkpt lat="38.09220727451651" lon="14.697388675582884"><ele>111.0</ele><time>2026-04-19T16:19:25Z</time></trkpt><trkpt lat="38.09235923878739" lon="14.697608369770107"><ele>111.0</ele><time>2026-04-19T16:19:26Z</time></trkpt><trkpt lat="38.09250890721834" lon="14.697825230412974"><ele>110.5</ele><time>2026-04-19T16:19:27Z</time></trkpt><trkpt lat="38.092657317360185" lon="14.698055076832562"><ele>110.0</ele><time>2026-04-19T16:19:28Z</time></trkpt><trkpt lat="38.092805749172506" lon="14.698276652330977"><ele>110.0</ele><time>2026-04-19T16:19:29Z</time></trkpt><trkpt lat="38.09295041554607" lon="14.698508691771705"><ele>110.0</ele><time>2026-04-19T16:19:30Z</time></trkpt><trkpt lat="38.093092255500444" lon="14.69873939347524"><ele>113.0</ele><time>2026-04-19T16:19:31Z</time></trkpt><trkpt lat="38.09322775839499" lon="14.698975235996862"><ele>116.0</ele><time>2026-04-19T16:19:32Z</time></trkpt><trkpt lat="38.09336122371166" lon="14.699213895686974"><ele>110.5</ele><time>2026-04-19T16:19:33Z</time></trkpt><trkpt lat="38.0934927862751" lon="14.699457423786573"><ele>105.0</ele><time>2026-04-19T16:19:34Z</time></trkpt><trkpt lat="38.093622897385025" lon="14.699700581064748"><ele>105.0</ele><time>2026-04-19T16:19:35Z</time></trkpt><trkpt lat="38.09375118680844" lon="14.699943145206309"><ele>105.0</ele><time>2026-04-19T16:19:36Z</time></trkpt><trkpt lat="38.09387790110045" lon="14.700188344170392"><ele>106.5</ele><time>2026-04-19T16:19:37Z</time></trkpt><trkpt lat="38.094003011689495" lon="14.70043623807186"><ele>108.0</ele><time>2026-04-19T16:19:38Z</time></trkpt><trkpt lat="38.094127676503085" lon="14.700681652299442"><ele>105.5</ele><time>2026-04-19T16:19:39Z</time></trkpt><trkpt lat="38.09425394923868" lon="14.700926992928173"><ele>103.0</ele><time>2026-04-19T16:19:40Z</time></trkpt><trkpt lat="38.094384303116605" lon="14.701161240545954"><ele>103.0</ele><time>2026-04-19T16:19:41Z</time></trkpt><trkpt lat="38.09450329168147" lon="14.701403535589822"><ele>103.0</ele><time>2026-04-19T16:19:42Z</time></trkpt><trkpt lat="38.09463294891276" lon="14.701648556702118"><ele>103.0</ele><time>2026-04-19T16:19:43Z</time></trkpt><trkpt lat="38.09476078445127" lon="14.70189832822833"><ele>103.0</ele><time>2026-04-19T16:19:44Z</time></trkpt><trkpt lat="38.0948837443868" lon="14.702140585939143"><ele>103.66666666666667</ele><time>2026-04-19T16:19:45Z</time></trkpt><trkpt lat="38.09500266054642" lon="14.702368703331093"><ele>104.33333333333334</ele><time>2026-04-19T16:19:46Z</time></trkpt><trkpt lat="38.09512267249192" lon="14.702584178207804"><ele>105.0</ele><time>2026-04-19T16:19:47Z</time></trkpt><trkpt lat="38.09524856194372" lon="14.702809746089319"><ele>105.0</ele><time>2026-04-19T16:19:48Z</time></trkpt><trkpt lat="38.09538076399791" lon="14.703042208867224"><ele>105.0</ele><time>2026-04-19T16:19:49Z</time></trkpt><trkpt lat="38.09552183161549" lon="14.70328222861311"><ele>105.0</ele><time>2026-04-19T16:19:50Z</time></trkpt><trkpt lat="38.09565970276149" lon="14.703517369186713"><ele>105.0</ele><time>2026-04-19T16:19:51Z</time></trkpt><trkpt lat="38.09579489353153" lon="14.703742668269879"><ele>102.5</ele><time>2026-04-19T16:19:52Z</time></trkpt><trkpt lat="38.09593930700598" lon="14.70397604577173"><ele>100.0</ele><time>2026-04-19T16:19:53Z</time></trkpt><trkpt lat="38.09608348547648" lon="14.704219754874046"><ele>102.5</ele><time>2026-04-19T16:19:54Z</time></trkpt><trkpt lat="38.09622978462607" lon="14.704457919200147"><ele>105.0</ele><time>2026-04-19T16:19:55Z</time></trkpt><trkpt lat="38.09637237007455" lon="14.704688102959354"><ele>105.0</ele><time>2026-04-19T16:19:56Z</time></trkpt><trkpt lat="38.096518648921425" lon="14.704930633583373"><ele>105.0</ele><time>2026-04-19T16:19:57Z</time></trkpt><trkpt lat="38.09666161547038" lon="14.705160627072756"><ele>103.0</ele><time>2026-04-19T16:19:58Z</time></trkpt><trkpt lat="38.096803912140736" lon="14.705400338179269"><ele>101.0</ele><time>2026-04-19T16:19:59Z</time></trkpt><trkpt lat="38.09694658950507" lon="14.705642684329266"><ele>101.0</ele><time>2026-04-19T16:20:00Z</time></trkpt><trkpt lat="38.09708839631568" lon="14.705883466541044"><ele>101.0</ele><time>2026-04-19T16:20:01Z</time></trkpt><trkpt lat="38.09723209771375" lon="14.706124015027392"><ele>101.0</ele><time>2026-04-19T16:20:02Z</time></trkpt><trkpt lat="38.097374982297765" lon="14.706362990949659"><ele>101.0</ele><time>2026-04-19T16:20:03Z</time></trkpt><trkpt lat="38.097523631386075" lon="14.706599900459814"><ele>101.5</ele><time>2026-04-19T16:20:04Z</time></trkpt><trkpt lat="38.09767118530403" lon="14.706842943590466"><ele>102.0</ele><time>2026-04-19T16:20:05Z</time></trkpt><trkpt lat="38.097819678418944" lon="14.707087073442036"><ele>102.0</ele><time>2026-04-19T16:20:06Z</time></trkpt><trkpt lat="38.097959706732496" lon="14.707320430306474"><ele>102.0</ele><time>2026-04-19T16:20:07.001Z</time></trkpt><trkpt lat="38.0981046553128" lon="14.707555916797048"><ele>101.0</ele><time>2026-04-19T16:20:08.001Z</time></trkpt><trkpt lat="38.09824767397333" lon="14.707789168840158"><ele>100.0</ele><time>2026-04-19T16:20:09.001Z</time></trkpt><trkpt lat="38.098388635169876" lon="14.708025735709631"><ele>100.0</ele><time>2026-04-19T16:20:10.001Z</time></trkpt><trkpt lat="38.098530123371205" lon="14.708255792893876"><ele>100.0</ele><time>2026-04-19T16:20:11.001Z</time></trkpt><trkpt lat="38.098676233945234" lon="14.708492968221703"><ele>102.5</ele><time>2026-04-19T16:20:12.001Z</time></trkpt><trkpt lat="38.09882337059177" lon="14.708731327465772"><ele>105.0</ele><time>2026-04-19T16:20:13.001Z</time></trkpt><trkpt lat="38.09897000668997" lon="14.708967902515301"><ele>101.5</ele><time>2026-04-19T16:20:14.001Z</time></trkpt><trkpt lat="38.09911182192311" lon="14.709206446209155"><ele>98.0</ele><time>2026-04-19T16:20:15.001Z</time></trkpt><trkpt lat="38.09925218545034" lon="14.709445635620382"><ele>94.0</ele><time>2026-04-19T16:20:16.001Z</time></trkpt><trkpt lat="38.09938833249358" lon="14.709683781492473"><ele>90.0</ele><time>2026-04-19T16:20:17.001Z</time></trkpt><trkpt lat="38.09952055736495" lon="14.709915375202796"><ele>90.0</ele><time>2026-04-19T16:20:18.001Z</time></trkpt><trkpt lat="38.09967102719765" lon="14.710140218949999"><ele>90.0</ele><time>2026-04-19T16:20:19.001Z</time></trkpt><trkpt lat="38.09981178210869" lon="14.710366800565346"><ele>88.5</ele><time>2026-04-19T16:20:20.001Z</time></trkpt><trkpt lat="38.09995145257599" lon="14.710601590340202"><ele>87.0</ele><time>2026-04-19T16:20:21.001Z</time></trkpt><trkpt lat="38.10009104973458" lon="14.71083207591946"><ele>87.0</ele><time>2026-04-19T16:20:22.001Z</time></trkpt><trkpt lat="38.10022910748717" lon="14.711056940306506"><ele>87.0</ele><time>2026-04-19T16:20:23.001Z</time></trkpt><trkpt lat="38.100368386903114" lon="14.711287591228222"><ele>93.5</ele><time>2026-04-19T16:20:24.001Z</time></trkpt><trkpt lat="38.10050768343831" lon="14.711511286452087"><ele>100.0</ele><time>2026-04-19T16:20:25.001Z</time></trkpt><trkpt lat="38.10064780151485" lon="14.711739201542413"><ele>99.0</ele><time>2026-04-19T16:20:26.001Z</time></trkpt><trkpt lat="38.10077448707089" lon="14.711969381752583"><ele>98.0</ele><time>2026-04-19T16:20:27.001Z</time></trkpt><trkpt lat="38.100902868226" lon="14.712204177937425"><ele>97.0</ele><time>2026-04-19T16:20:28.001Z</time></trkpt><trkpt lat="38.10102649628265" lon="14.712449572059487"><ele>97.0</ele><time>2026-04-19T16:20:29.001Z</time></trkpt><trkpt lat="38.10114483813767" lon="14.712692296203251"><ele>97.0</ele><time>2026-04-19T16:20:30.001Z</time></trkpt><trkpt lat="38.10126079337855" lon="14.712939997814352"><ele>100.0</ele><time>2026-04-19T16:20:31.001Z</time></trkpt><trkpt lat="38.10136683449725" lon="14.713199905537849"><ele>103.0</ele><time>2026-04-19T16:20:32.001Z</time></trkpt><trkpt lat="38.10147078624621" lon="14.713460652408145"><ele>101.5</ele><time>2026-04-19T16:20:33.001Z</time></trkpt><trkpt lat="38.10156979341833" lon="14.713715543968908"><ele>100.0</ele><time>2026-04-19T16:20:34.001Z</time></trkpt><trkpt lat="38.10166789598883" lon="14.713991492822876"><ele>100.0</ele><time>2026-04-19T16:20:35.001Z</time></trkpt><trkpt lat="38.10176384918746" lon="14.714261684240892"><ele>100.0</ele><time>2026-04-19T16:20:36.001Z</time></trkpt><trkpt lat="38.10185729138842" lon="14.71453212240076"><ele>105.0</ele><time>2026-04-19T16:20:37.001Z</time></trkpt><trkpt lat="38.101949174728155" lon="14.714802983613444"><ele>110.0</ele><time>2026-04-19T16:20:38.001Z</time></trkpt><trkpt lat="38.102043774264864" lon="14.715074787014357"><ele>114.5</ele><time>2026-04-19T16:20:39.001Z</time></trkpt><trkpt lat="38.10213944450037" lon="14.715348404788342"><ele>119.0</ele><time>2026-04-19T16:20:40.001Z</time></trkpt><trkpt lat="38.102239157188784" lon="14.715623729791988"><ele>119.0</ele><time>2026-04-19T16:20:41.001Z</time></trkpt><trkpt lat="38.102337002283555" lon="14.715897743786314"><ele>119.0</ele><time>2026-04-19T16:20:42.001Z</time></trkpt><trkpt lat="38.10244628717917" lon="14.716172453318016"><ele>117.5</ele><time>2026-04-19T16:20:43.001Z</time></trkpt><trkpt lat="38.10255751052504" lon="14.716445121039618"><ele>116.0</ele><time>2026-04-19T16:20:44.001Z</time></trkpt><trkpt lat="38.10267547017354" lon="14.716716745946858"><ele>115.0</ele><time>2026-04-19T16:20:45.001Z</time></trkpt><trkpt lat="38.10279753881512" lon="14.716981360531156"><ele>114.0</ele><time>2026-04-19T16:20:46.001Z</time></trkpt><trkpt lat="38.102921342865535" lon="14.717240241255304"><ele>114.0</ele><time>2026-04-19T16:20:47.001Z</time></trkpt><trkpt lat="38.103024747279875" lon="14.71745845997321"><ele>114.0</ele><time>2026-04-19T16:20:48.001Z</time></trkpt><trkpt lat="38.10317387153264" lon="14.717678786839679"><ele>114.0</ele><time>2026-04-19T16:20:49.001Z</time></trkpt><trkpt lat="38.10333544051833" lon="14.71792046305195"><ele>105.0</ele><time>2026-04-19T16:20:50.001Z</time></trkpt><trkpt lat="38.10348278743443" lon="14.718145304621101"><ele>96.0</ele><time>2026-04-19T16:20:51.001Z</time></trkpt><trkpt lat="38.103637316655806" lon="14.718350402255087"><ele>96.0</ele><time>2026-04-19T16:20:52.001Z</time></trkpt><trkpt lat="38.10380085496983" lon="14.718550250675696"><ele>96.0</ele><time>2026-04-19T16:20:53.001Z</time></trkpt><trkpt lat="38.103968744705014" lon="14.718741603446261"><ele>96.0</ele><time>2026-04-19T16:20:54.001Z</time></trkpt><trkpt lat="38.10414102623456" lon="14.718932217509078"><ele>96.0</ele><time>2026-04-19T16:20:55.001Z</time></trkpt><trkpt lat="38.104316464584905" lon="14.71912464498337"><ele>96.0</ele><time>2026-04-19T16:20:56.001Z</time></trkpt><trkpt lat="38.10449985448928" lon="14.719311117616186"><ele>96.0</ele><time>2026-04-19T16:20:57.001Z</time></trkpt><trkpt lat="38.104688067340035" lon="14.719490888354244"><ele>100.0</ele><time>2026-04-19T16:20:58.001Z</time></trkpt><trkpt lat="38.10488533901113" lon="14.719658264562346"><ele>104.0</ele><time>2026-04-19T16:20:59.001Z</time></trkpt><trkpt lat="38.105085207402055" lon="14.719824756541854"><ele>94.0</ele><time>2026-04-19T16:21:00.002Z</time></trkpt><trkpt lat="38.10529115028732" lon="14.719981024941415"><ele>84.0</ele><time>2026-04-19T16:21:01.002Z</time></trkpt><trkpt lat="38.10549949547788" lon="14.720130354401965"><ele>78.5</ele><time>2026-04-19T16:21:02.002Z</time></trkpt><trkpt lat="38.10571556827451" lon="14.720272058700521"><ele>73.0</ele><time>2026-04-19T16:21:03.002Z</time></trkpt><trkpt lat="38.10592972496917" lon="14.720410023166025"><ele>64.0</ele><time>2026-04-19T16:21:04.002Z</time></trkpt><trkpt lat="38.10614634208601" lon="14.720537183354196"><ele>55.0</ele><time>2026-04-19T16:21:05.002Z</time></trkpt><trkpt lat="38.10636331326138" lon="14.720664255197427"><ele>49.5</ele><time>2026-04-19T16:21:06.002Z</time></trkpt><trkpt lat="38.10658206058788" lon="14.720779757051769"><ele>44.0</ele><time>2026-04-19T16:21:07.002Z</time></trkpt><trkpt lat="38.10680256575417" lon="14.72089401240433"><ele>44.0</ele><time>2026-04-19T16:21:08.002Z</time></trkpt><trkpt lat="38.107023081277184" lon="14.721008013639752"><ele>44.0</ele><time>2026-04-19T16:21:09.002Z</time></trkpt><trkpt lat="38.107241005044735" lon="14.721128371948128"><ele>41.5</ele><time>2026-04-19T16:21:10.002Z</time></trkpt><trkpt lat="38.107456241115194" lon="14.72124725761376"><ele>39.0</ele><time>2026-04-19T16:21:11.002Z</time></trkpt><trkpt lat="38.10767043179714" lon="14.721366034267565"><ele>39.0</ele><time>2026-04-19T16:21:12.002Z</time></trkpt><trkpt lat="38.10788922662522" lon="14.721487461633256"><ele>39.0</ele><time>2026-04-19T16:21:12.999Z</time></trkpt><trkpt lat="38.108110087302535" lon="14.72160761556164"><ele>38.0</ele><time>2026-04-19T16:21:13.999Z</time></trkpt><trkpt lat="38.108331133656534" lon="14.72172542174417"><ele>37.0</ele><time>2026-04-19T16:21:14.999Z</time></trkpt><trkpt lat="38.10855150892331" lon="14.721841889316211"><ele>35.0</ele><time>2026-04-19T16:21:15.999Z</time></trkpt><trkpt lat="38.10877358040964" lon="14.721961404251758"><ele>33.0</ele><time>2026-04-19T16:21:16.999Z</time></trkpt><trkpt lat="38.10899785192936" lon="14.722084730599343"><ele>33.0</ele><time>2026-04-19T16:21:17.999Z</time></trkpt><trkpt lat="38.109220562961426" lon="14.722206505207904"><ele>33.0</ele><time>2026-04-19T16:21:18.999Z</time></trkpt><trkpt lat="38.10944717943746" lon="14.722328535379676"><ele>33.0</ele><time>2026-04-19T16:21:19.999Z</time></trkpt><trkpt lat="38.10967326745744" lon="14.722453349720084"><ele>33.0</ele><time>2026-04-19T16:21:20.999Z</time></trkpt><trkpt lat="38.10989752591801" lon="14.72257221747837"><ele>31.0</ele><time>2026-04-19T16:21:21.999Z</time></trkpt><trkpt lat="38.110120462628785" lon="14.722693491015763"><ele>29.0</ele><time>2026-04-19T16:21:23Z</time></trkpt><trkpt lat="38.11034619003032" lon="14.72281379051528"><ele>28.5</ele><time>2026-04-19T16:21:24Z</time></trkpt><trkpt lat="38.11056812120406" lon="14.722936214117814"><ele>28.0</ele><time>2026-04-19T16:21:25Z</time></trkpt><trkpt lat="38.11078721420052" lon="14.723055670385742"><ele>29.5</ele><time>2026-04-19T16:21:26Z</time></trkpt><trkpt lat="38.11100751204777" lon="14.723174799187927"><ele>31.0</ele><time>2026-04-19T16:21:27Z</time></trkpt><trkpt lat="38.111224443165035" lon="14.723297353729203"><ele>31.0</ele><time>2026-04-19T16:21:28Z</time></trkpt><trkpt lat="38.11144147996567" lon="14.723415736216241"><ele>31.0</ele><time>2026-04-19T16:21:29Z</time></trkpt><trkpt lat="38.11166054121873" lon="14.723534733607057"><ele>46.5</ele><time>2026-04-19T16:21:30Z</time></trkpt><trkpt lat="38.111878682620365" lon="14.723653500374953"><ele>62.0</ele><time>2026-04-19T16:21:31Z</time></trkpt><trkpt lat="38.11209663599143" lon="14.723773400201724"><ele>62.0</ele><time>2026-04-19T16:21:32Z</time></trkpt><trkpt lat="38.112315478793946" lon="14.723889814800868"><ele>62.0</ele><time>2026-04-19T16:21:33Z</time></trkpt><trkpt lat="38.112532081426025" lon="14.724007859649202"><ele>70.0</ele><time>2026-04-19T16:21:34Z</time></trkpt><trkpt lat="38.11274772954753" lon="14.72412486983814"><ele>78.0</ele><time>2026-04-19T16:21:35Z</time></trkpt><trkpt lat="38.112964954428186" lon="14.724239944849618"><ele>78.0</ele><time>2026-04-19T16:21:36Z</time></trkpt><trkpt lat="38.113187155637576" lon="14.724358815494671"><ele>78.0</ele><time>2026-04-19T16:21:37Z</time></trkpt><trkpt lat="38.113409231607356" lon="14.724480793462714"><ele>86.0</ele><time>2026-04-19T16:21:38Z</time></trkpt><trkpt lat="38.11363373663339" lon="14.724600920667774"><ele>94.0</ele><time>2026-04-19T16:21:39Z</time></trkpt><trkpt lat="38.1138579860051" lon="14.724720018833686"><ele>91.0</ele><time>2026-04-19T16:21:40Z</time></trkpt><trkpt lat="38.11408414392167" lon="14.724843935127833"><ele>88.0</ele><time>2026-04-19T16:21:41Z</time></trkpt><trkpt lat="38.11430740202384" lon="14.724967359347646"><ele>88.0</ele><time>2026-04-19T16:21:42Z</time></trkpt><trkpt lat="38.11453297723453" lon="14.725086174822108"><ele>88.0</ele><time>2026-04-19T16:21:43Z</time></trkpt><trkpt lat="38.11475964312304" lon="14.725206365702611"><ele>91.0</ele><time>2026-04-19T16:21:44Z</time></trkpt><trkpt lat="38.11498162507164" lon="14.725318854169158"><ele>94.0</ele><time>2026-04-19T16:21:45Z</time></trkpt><trkpt lat="38.11520687923463" lon="14.725426252425757"><ele>94.0</ele><time>2026-04-19T16:21:46Z</time></trkpt><trkpt lat="38.115432529672084" lon="14.725525465071913"><ele>94.0</ele><time>2026-04-19T16:21:47Z</time></trkpt><trkpt lat="38.1156500584518" lon="14.725629695572444"><ele>87.5</ele><time>2026-04-19T16:21:48Z</time></trkpt><trkpt lat="38.11587225218155" lon="14.725728991240851"><ele>81.0</ele><time>2026-04-19T16:21:49Z</time></trkpt><trkpt lat="38.11609694533236" lon="14.72582259605767"><ele>81.0</ele><time>2026-04-19T16:21:50Z</time></trkpt><trkpt lat="38.11632293702036" lon="14.725908300328058"><ele>81.0</ele><time>2026-04-19T16:21:51Z</time></trkpt><trkpt lat="38.11654833379585" lon="14.725991012386524"><ele>79.5</ele><time>2026-04-19T16:21:52Z</time></trkpt><trkpt lat="38.116774208696654" lon="14.726074396423096"><ele>78.0</ele><time>2026-04-19T16:21:53Z</time></trkpt><trkpt lat="38.117000876490614" lon="14.7261537252139"><ele>78.0</ele><time>2026-04-19T16:21:54Z</time></trkpt><trkpt lat="38.11723028484368" lon="14.72622814183374"><ele>78.0</ele><time>2026-04-19T16:21:55Z</time></trkpt><trkpt lat="38.117460443182395" lon="14.726299369644293"><ele>70.5</ele><time>2026-04-19T16:21:56Z</time></trkpt><trkpt lat="38.11768934171834" lon="14.726365264018144"><ele>63.0</ele><time>2026-04-19T16:21:57Z</time></trkpt><trkpt lat="38.117918480779764" lon="14.726431282113024"><ele>63.0</ele><time>2026-04-19T16:21:58Z</time></trkpt><trkpt lat="38.1181497799073" lon="14.726492820296635"><ele>63.0</ele><time>2026-04-19T16:21:59Z</time></trkpt><trkpt lat="38.11837893815533" lon="14.726553478200668"><ele>71.0</ele><time>2026-04-19T16:22:00Z</time></trkpt><trkpt lat="38.1186083666001" lon="14.726610745415918"><ele>79.0</ele><time>2026-04-19T16:22:01Z</time></trkpt><trkpt lat="38.11883176059831" lon="14.726671025862046"><ele>79.0</ele><time>2026-04-19T16:22:02Z</time></trkpt><trkpt lat="38.119058439879375" lon="14.72672914451857"><ele>79.0</ele><time>2026-04-19T16:22:03.001Z</time></trkpt><trkpt lat="38.11928468433865" lon="14.726786302471648"><ele>81.0</ele><time>2026-04-19T16:22:04.001Z</time></trkpt><trkpt lat="38.119519179812606" lon="14.726849483253035"><ele>83.0</ele><time>2026-04-19T16:22:05.001Z</time></trkpt><trkpt lat="38.11973959268253" lon="14.726911241357408"><ele>83.5</ele><time>2026-04-19T16:22:06.001Z</time></trkpt><trkpt lat="38.11996380196283" lon="14.726974501207465"><ele>84.0</ele><time>2026-04-19T16:22:07.001Z</time></trkpt><trkpt lat="38.120184770799426" lon="14.72704612024617"><ele>84.0</ele><time>2026-04-19T16:22:08.001Z</time></trkpt><trkpt lat="38.120412306005285" lon="14.727120163979999"><ele>84.0</ele><time>2026-04-19T16:22:09.001Z</time></trkpt><trkpt lat="38.12063433723241" lon="14.727204167329605"><ele>83.5</ele><time>2026-04-19T16:22:10.001Z</time></trkpt><trkpt lat="38.12085749513366" lon="14.727290900692415"><ele>83.0</ele><time>2026-04-19T16:22:11.001Z</time></trkpt><trkpt lat="38.1210799065331" lon="14.72738014716029"><ele>83.0</ele><time>2026-04-19T16:22:12.001Z</time></trkpt><trkpt lat="38.12130021810429" lon="14.727477426906235"><ele>83.0</ele><time>2026-04-19T16:22:13.001Z</time></trkpt><trkpt lat="38.12152151236766" lon="14.727583846869026"><ele>85.5</ele><time>2026-04-19T16:22:14.001Z</time></trkpt><trkpt lat="38.12173720248791" lon="14.727692772313336"><ele>88.0</ele><time>2026-04-19T16:22:15.001Z</time></trkpt><trkpt lat="38.12196072444129" lon="14.727818584049468"><ele>90.0</ele><time>2026-04-19T16:22:16.001Z</time></trkpt><trkpt lat="38.12217820909194" lon="14.72794585774566"><ele>92.0</ele><time>2026-04-19T16:22:17.001Z</time></trkpt><trkpt lat="38.122396410754135" lon="14.72808339480355"><ele>93.5</ele><time>2026-04-19T16:22:18.001Z</time></trkpt><trkpt lat="38.122610417291185" lon="14.728218515934657"><ele>95.0</ele><time>2026-04-19T16:22:19.001Z</time></trkpt><trkpt lat="38.12283063482269" lon="14.728356882203709"><ele>95.0</ele><time>2026-04-19T16:22:20.001Z</time></trkpt><trkpt lat="38.12303308127749" lon="14.72850460359577"><ele>95.0</ele><time>2026-04-19T16:22:21.001Z</time></trkpt><trkpt lat="38.12323937006752" lon="14.728660478896758"><ele>98.0</ele><time>2026-04-19T16:22:22.001Z</time></trkpt><trkpt lat="38.12344234810317" lon="14.728820188208095"><ele>101.0</ele><time>2026-04-19T16:22:23.001Z</time></trkpt><trkpt lat="38.123645998795354" lon="14.728986398522418"><ele>101.0</ele><time>2026-04-19T16:22:24.001Z</time></trkpt><trkpt lat="38.12384650854827" lon="14.729150743047525"><ele>101.0</ele><time>2026-04-19T16:22:25.001Z</time></trkpt><trkpt lat="38.12404954833235" lon="14.729317032988178"><ele>100.5</ele><time>2026-04-19T16:22:26.001Z</time></trkpt><trkpt lat="38.12425729881989" lon="14.729474188945721"><ele>100.0</ele><time>2026-04-19T16:22:27.001Z</time></trkpt><trkpt lat="38.1244612866061" lon="14.729635659032793"><ele>100.0</ele><time>2026-04-19T16:22:28.001Z</time></trkpt><trkpt lat="38.12467067832465" lon="14.729796744792152"><ele>100.0</ele><time>2026-04-19T16:22:29.001Z</time></trkpt><trkpt lat="38.12487903317941" lon="14.729950581545337"><ele>98.0</ele><time>2026-04-19T16:22:30.001Z</time></trkpt><trkpt lat="38.12508283955658" lon="14.730112364197861"><ele>96.0</ele><time>2026-04-19T16:22:31.001Z</time></trkpt><trkpt lat="38.12529557246185" lon="14.73026632698134"><ele>99.0</ele><time>2026-04-19T16:22:32.001Z</time></trkpt><trkpt lat="38.12551715491714" lon="14.73040618086594"><ele>102.0</ele><time>2026-04-19T16:22:33.001Z</time></trkpt><trkpt lat="38.12573845158883" lon="14.730545077959935"><ele>102.0</ele><time>2026-04-19T16:22:34.001Z</time></trkpt><trkpt lat="38.12595812981277" lon="14.730677992707763"><ele>102.0</ele><time>2026-04-19T16:22:35.001Z</time></trkpt><trkpt lat="38.12618062430159" lon="14.730805781673697"><ele>102.0</ele><time>2026-04-19T16:22:36.001Z</time></trkpt><trkpt lat="38.12640229917369" lon="14.730930814732773"><ele>102.0</ele><time>2026-04-19T16:22:37.001Z</time></trkpt><trkpt lat="38.12661893180534" lon="14.731055808268081"><ele>106.0</ele><time>2026-04-19T16:22:38.001Z</time></trkpt><trkpt lat="38.126833173798175" lon="14.73118036818545"><ele>110.0</ele><time>2026-04-19T16:22:39.001Z</time></trkpt><trkpt lat="38.12704488470277" lon="14.73131310276093"><ele>110.0</ele><time>2026-04-19T16:22:40.001Z</time></trkpt><trkpt lat="38.12725400234487" lon="14.731449051041428"><ele>110.0</ele><time>2026-04-19T16:22:41.001Z</time></trkpt><trkpt lat="38.12746035601487" lon="14.731590817027383"><ele>104.5</ele><time>2026-04-19T16:22:42.001Z</time></trkpt><trkpt lat="38.127663036326815" lon="14.73174151977492"><ele>99.0</ele><time>2026-04-19T16:22:43.001Z</time></trkpt><trkpt lat="38.127861921362125" lon="14.731902688505064"><ele>98.5</ele><time>2026-04-19T16:22:44.001Z</time></trkpt><trkpt lat="38.12805711492231" lon="14.732068713693446"><ele>98.0</ele><time>2026-04-19T16:22:45.001Z</time></trkpt><trkpt lat="38.12824728548738" lon="14.732243079976858"><ele>87.5</ele><time>2026-04-19T16:22:46.001Z</time></trkpt><trkpt lat="38.128435485952146" lon="14.732425039002266"><ele>77.0</ele><time>2026-04-19T16:22:47.001Z</time></trkpt><trkpt lat="38.12861884297326" lon="14.732615412170478"><ele>76.0</ele><time>2026-04-19T16:22:48.001Z</time></trkpt><trkpt lat="38.12879982621857" lon="14.732807941880788"><ele>75.0</ele><time>2026-04-19T16:22:49.001Z</time></trkpt><trkpt lat="38.12897102835734" lon="14.733012737612297"><ele>79.5</ele><time>2026-04-19T16:22:50.001Z</time></trkpt><trkpt lat="38.129129951271125" lon="14.73322497062634"><ele>84.0</ele><time>2026-04-19T16:22:51.001Z</time></trkpt><trkpt lat="38.12928719893149" lon="14.733434665372691"><ele>83.0</ele><time>2026-04-19T16:22:52.002Z</time></trkpt><trkpt lat="38.12944505871067" lon="14.733643773945277"><ele>82.0</ele><time>2026-04-19T16:22:53.002Z</time></trkpt><trkpt lat="38.12959995713236" lon="14.733853948788445"><ele>82.0</ele><time>2026-04-19T16:22:54.002Z</time></trkpt><trkpt lat="38.129750842620936" lon="14.734066124197552"><ele>82.0</ele><time>2026-04-19T16:22:55.002Z</time></trkpt><trkpt lat="38.12990152028902" lon="14.734275440643904"><ele>82.0</ele><time>2026-04-19T16:22:56.002Z</time></trkpt><trkpt lat="38.130053598083016" lon="14.734481331109498"><ele>92.0</ele><time>2026-04-19T16:22:57.002Z</time></trkpt><trkpt lat="38.130205334457806" lon="14.734690485598376"><ele>102.0</ele><time>2026-04-19T16:22:58.002Z</time></trkpt><trkpt lat="38.1303614155679" lon="14.734902071057272"><ele>102.0</ele><time>2026-04-19T16:22:59.002Z</time></trkpt><trkpt lat="38.13051873023533" lon="14.735114439178817"><ele>102.0</ele><time>2026-04-19T16:23:00.002Z</time></trkpt><trkpt lat="38.13068007805026" lon="14.735323541861609"><ele>105.0</ele><time>2026-04-19T16:23:01.002Z</time></trkpt><trkpt lat="38.130847699612794" lon="14.735530759489954"><ele>108.0</ele><time>2026-04-19T16:23:02.002Z</time></trkpt><trkpt lat="38.13102012303772" lon="14.73572705781747"><ele>108.0</ele><time>2026-04-19T16:23:03.002Z</time></trkpt><trkpt lat="38.13120592282564" lon="14.735906461184685"><ele>108.0</ele><time>2026-04-19T16:23:04.002Z</time></trkpt><trkpt lat="38.131392601490944" lon="14.736085434154765"><ele>110.5</ele><time>2026-04-19T16:23:05.002Z</time></trkpt><trkpt lat="38.13159100470193" lon="14.736246472206403"><ele>113.0</ele><time>2026-04-19T16:23:06.002Z</time></trkpt><trkpt lat="38.13179360627901" lon="14.736399880733762"><ele>113.0</ele><time>2026-04-19T16:23:07.002Z</time></trkpt><trkpt lat="38.13200047256848" lon="14.736543151845469"><ele>113.0</ele><time>2026-04-19T16:23:08.002Z</time></trkpt><trkpt lat="38.13221011597786" lon="14.736683508479892"><ele>114.5</ele><time>2026-04-19T16:23:09.002Z</time></trkpt><trkpt lat="38.13242568633586" lon="14.736807621230676"><ele>116.0</ele><time>2026-04-19T16:23:10.002Z</time></trkpt><trkpt lat="38.13264567965624" lon="14.736919864126607"><ele>116.0</ele><time>2026-04-19T16:23:11.002Z</time></trkpt><trkpt lat="38.13286784586418" lon="14.737020653194529"><ele>116.0</ele><time>2026-04-19T16:23:12.002Z</time></trkpt><trkpt lat="38.13309289492961" lon="14.73711234017297"><ele>113.0</ele><time>2026-04-19T16:23:13.002Z</time></trkpt><trkpt lat="38.133319507104545" lon="14.737189197323852"><ele>110.0</ele><time>2026-04-19T16:23:14.002Z</time></trkpt><trkpt lat="38.133550527657974" lon="14.737255423959425"><ele>110.0</ele><time>2026-04-19T16:23:15.002Z</time></trkpt><trkpt lat="38.13378411233672" lon="14.73730740667409"><ele>110.0</ele><time>2026-04-19T16:23:16.002Z</time></trkpt><trkpt lat="38.13401730503493" lon="14.737346825066995"><ele>108.0</ele><time>2026-04-19T16:23:17.002Z</time></trkpt><trkpt lat="38.134250751219334" lon="14.737390733298964"><ele>106.0</ele><time>2026-04-19T16:23:18.002Z</time></trkpt><trkpt lat="38.134480048993524" lon="14.737438159057618"><ele>106.0</ele><time>2026-04-19T16:23:19Z</time></trkpt><trkpt lat="38.134713993722485" lon="14.737498871902844"><ele>106.0</ele><time>2026-04-19T16:23:20Z</time></trkpt><trkpt lat="38.13493934605213" lon="14.737571797687615"><ele>106.0</ele><time>2026-04-19T16:23:21Z</time></trkpt><trkpt lat="38.13516797013082" lon="14.73765460521204"><ele>106.0</ele><time>2026-04-19T16:23:22Z</time></trkpt><trkpt lat="38.13538902364626" lon="14.737757836623905"><ele>109.0</ele><time>2026-04-19T16:23:23Z</time></trkpt><trkpt lat="38.13560484447258" lon="14.737874832011272"><ele>112.0</ele><time>2026-04-19T16:23:24Z</time></trkpt><trkpt lat="38.13581139821902" lon="14.738027836609293"><ele>112.0</ele><time>2026-04-19T16:23:25Z</time></trkpt><trkpt lat="38.136009502808776" lon="14.738194016849505"><ele>112.0</ele><time>2026-04-19T16:23:26Z</time></trkpt><trkpt lat="38.13620008418328" lon="14.738377229609606"><ele>112.0</ele><time>2026-04-19T16:23:27Z</time></trkpt><trkpt lat="38.13638655711087" lon="14.738567255505735"><ele>112.0</ele><time>2026-04-19T16:23:28Z</time></trkpt><trkpt lat="38.136565767232696" lon="14.738766103656397"><ele>112.0</ele><time>2026-04-19T16:23:29Z</time></trkpt><trkpt lat="38.13673704077823" lon="14.738977659926201"><ele>112.0</ele><time>2026-04-19T16:23:30Z</time></trkpt><trkpt lat="38.136895307139866" lon="14.739205737357455"><ele>119.5</ele><time>2026-04-19T16:23:31Z</time></trkpt><trkpt lat="38.13703235769685" lon="14.739436609866175"><ele>127.0</ele><time>2026-04-19T16:23:32Z</time></trkpt><trkpt lat="38.137167210243916" lon="14.739670364924018"><ele>127.0</ele><time>2026-04-19T16:23:33Z</time></trkpt><trkpt lat="38.137292320052424" lon="14.73993122099987"><ele>127.0</ele><time>2026-04-19T16:23:34Z</time></trkpt><trkpt lat="38.137407081389085" lon="14.740184600806709"><ele>119.0</ele><time>2026-04-19T16:23:35Z</time></trkpt><trkpt lat="38.137522834138245" lon="14.740446434292132"><ele>111.0</ele><time>2026-04-19T16:23:36Z</time></trkpt><trkpt lat="38.13763456969445" lon="14.740698122419706"><ele>111.0</ele><time>2026-04-19T16:23:37Z</time></trkpt><trkpt lat="38.137758900621314" lon="14.7409517873893"><ele>111.0</ele><time>2026-04-19T16:23:38Z</time></trkpt><trkpt lat="38.13788114170543" lon="14.741208296191965"><ele>113.33333333333334</ele><time>2026-04-19T16:23:39Z</time></trkpt><trkpt lat="38.138005253559136" lon="14.741465384274683"><ele>115.66666666666667</ele><time>2026-04-19T16:23:40Z</time></trkpt><trkpt lat="38.13813183774457" lon="14.741680958054216"><ele>118.0</ele><time>2026-04-19T16:23:41Z</time></trkpt><trkpt lat="38.13826253973553" lon="14.741916776598046"><ele>135.0</ele><time>2026-04-19T16:23:42Z</time></trkpt><trkpt lat="38.13838196782934" lon="14.742162670271187"><ele>152.0</ele><time>2026-04-19T16:23:43Z</time></trkpt><trkpt lat="38.138483040210076" lon="14.742511315245059"><ele>160.66666666666666</ele><time>2026-04-19T16:23:44Z</time></trkpt><trkpt lat="38.13857975170752" lon="14.742745384811967"><ele>169.33333333333334</ele><time>2026-04-19T16:23:45Z</time></trkpt><trkpt lat="38.138687347800655" lon="14.742992648145758"><ele>178.0</ele><time>2026-04-19T16:23:46Z</time></trkpt><trkpt lat="38.13879904217858" lon="14.743251627367608"><ele>178.0</ele><time>2026-04-19T16:23:47Z</time></trkpt><trkpt lat="38.138913718907055" lon="14.743509411500925"><ele>178.0</ele><time>2026-04-19T16:23:48Z</time></trkpt><trkpt lat="38.13903070083006" lon="14.74376754386978"><ele>216.0</ele><time>2026-04-19T16:23:49Z</time></trkpt><trkpt lat="38.139144572411254" lon="14.744026489639388"><ele>254.0</ele><time>2026-04-19T16:23:50Z</time></trkpt><trkpt lat="38.139374711422384" lon="14.744452220917967"><ele>264.5</ele><time>2026-04-19T16:23:51Z</time></trkpt><trkpt lat="38.13949810944142" lon="14.744731546155668"><ele>275.0</ele><time>2026-04-19T16:23:52Z</time></trkpt><trkpt lat="38.13961936026224" lon="14.745012070703863"><ele>285.0</ele><time>2026-04-19T16:23:53Z</time></trkpt><trkpt lat="38.139743417054035" lon="14.745291849709048"><ele>295.0</ele><time>2026-04-19T16:23:54Z</time></trkpt><trkpt lat="38.13986971661786" lon="14.745571709835785"><ele>305.5</ele><time>2026-04-19T16:23:55Z</time></trkpt><trkpt lat="38.14000005860821" lon="14.745848992287277"><ele>316.0</ele><time>2026-04-19T16:23:56Z</time></trkpt><trkpt lat="38.14012587174766" lon="14.74613003701545"><ele>325.5</ele><time>2026-04-19T16:23:57Z</time></trkpt><trkpt lat="38.14024636650898" lon="14.746411432609458"><ele>335.0</ele><time>2026-04-19T16:23:58Z</time></trkpt><trkpt lat="38.1403698846129" lon="14.746692217139039"><ele>343.5</ele><time>2026-04-19T16:23:59Z</time></trkpt><trkpt lat="38.14049311023869" lon="14.746974745331975"><ele>352.0</ele><time>2026-04-19T16:24:00Z</time></trkpt><trkpt lat="38.140615494803285" lon="14.747258806501566"><ele>349.5</ele><time>2026-04-19T16:24:01Z</time></trkpt><trkpt lat="38.140742049396934" lon="14.747542247434387"><ele>347.0</ele><time>2026-04-19T16:24:02.001Z</time></trkpt><trkpt lat="38.140867708704754" lon="14.747829130619113"><ele>352.5</ele><time>2026-04-19T16:24:03.001Z</time></trkpt><trkpt lat="38.14099174502537" lon="14.748118048092172"><ele>358.0</ele><time>2026-04-19T16:24:04.001Z</time></trkpt><trkpt lat="38.14112018244045" lon="14.748406769007952"><ele>361.5</ele><time>2026-04-19T16:24:05.001Z</time></trkpt><trkpt lat="38.14124688552416" lon="14.748696777761715"><ele>365.0</ele><time>2026-04-19T16:24:06.001Z</time></trkpt><trkpt lat="38.141375222733444" lon="14.74898977061083"><ele>365.0</ele><time>2026-04-19T16:24:07.001Z</time></trkpt><trkpt lat="38.14149673607378" lon="14.749284088958051"><ele>365.0</ele><time>2026-04-19T16:24:08.001Z</time></trkpt><trkpt lat="38.14162392891064" lon="14.749582817063882"><ele>353.5</ele><time>2026-04-19T16:24:09.001Z</time></trkpt><trkpt lat="38.14174736691745" lon="14.749879796098789"><ele>342.0</ele><time>2026-04-19T16:24:10.001Z</time></trkpt><trkpt lat="38.14187181589918" lon="14.750181048822927"><ele>336.0</ele><time>2026-04-19T16:24:11.001Z</time></trkpt><trkpt lat="38.14200319457085" lon="14.750493154182822"><ele>330.0</ele><time>2026-04-19T16:24:12.001Z</time></trkpt><trkpt lat="38.14211690425417" lon="14.750781957970855"><ele>320.0</ele><time>2026-04-19T16:24:13.001Z</time></trkpt><trkpt lat="38.14222444824063" lon="14.751059994367074"><ele>310.0</ele><time>2026-04-19T16:24:14.001Z</time></trkpt><trkpt lat="38.14234873216795" lon="14.751367940945755"><ele>118.0</ele><time>2026-04-19T16:24:15.012Z</time></trkpt><trkpt lat="38.147138097729155" lon="14.761389521179805"><ele>118.0</ele><time>2026-04-19T16:24:57.002Z</time></trkpt><trkpt lat="38.147300039210954" lon="14.761670955481069"><ele>118.0</ele><time>2026-04-19T16:24:58.002Z</time></trkpt><trkpt lat="38.147460912175845" lon="14.761929435360155"><ele>114.0</ele><time>2026-04-19T16:24:59.002Z</time></trkpt><trkpt lat="38.14756548853801" lon="14.762203385235194"><ele>110.0</ele><time>2026-04-19T16:25:00.002Z</time></trkpt><trkpt lat="38.14766908898125" lon="14.762453083344607"><ele>116.5</ele><time>2026-04-19T16:25:01.002Z</time></trkpt><trkpt lat="38.14780357360923" lon="14.762712934834248"><ele>123.0</ele><time>2026-04-19T16:25:02.002Z</time></trkpt><trkpt lat="38.14793048798271" lon="14.762977575469591"><ele>123.0</ele><time>2026-04-19T16:25:03.002Z</time></trkpt><trkpt lat="38.14803181946171" lon="14.763235497304326"><ele>123.0</ele><time>2026-04-19T16:25:04.002Z</time></trkpt><trkpt lat="38.148142923594214" lon="14.76351018610357"><ele>114.5</ele><time>2026-04-19T16:25:05.002Z</time></trkpt><trkpt lat="38.1482690883224" lon="14.763771474253973"><ele>106.0</ele><time>2026-04-19T16:25:06.002Z</time></trkpt><trkpt lat="38.14839732196802" lon="14.764017518368473"><ele>106.0</ele><time>2026-04-19T16:25:07.002Z</time></trkpt><trkpt lat="38.148536679008835" lon="14.764262555710552"><ele>106.0</ele><time>2026-04-19T16:25:08.002Z</time></trkpt><trkpt lat="38.148686270754595" lon="14.764499399527258"><ele>110.5</ele><time>2026-04-19T16:25:09.002Z</time></trkpt><trkpt lat="38.14883254426149" lon="14.764733331139597"><ele>115.0</ele><time>2026-04-19T16:25:10.002Z</time></trkpt><trkpt lat="38.14898095997485" lon="14.764966503184361"><ele>116.5</ele><time>2026-04-19T16:25:11.002Z</time></trkpt><trkpt lat="38.149126345175254" lon="14.765197765229876"><ele>118.0</ele><time>2026-04-19T16:25:12.002Z</time></trkpt><trkpt lat="38.14926949371889" lon="14.765431501824988"><ele>118.0</ele><time>2026-04-19T16:25:13.002Z</time></trkpt><trkpt lat="38.14940550537014" lon="14.765669481999312"><ele>118.0</ele><time>2026-04-19T16:25:14.002Z</time></trkpt><trkpt lat="38.14952887498478" lon="14.765914565253281"><ele>127.0</ele><time>2026-04-19T16:25:15.002Z</time></trkpt><trkpt lat="38.1496514776639" lon="14.766160940330986"><ele>136.0</ele><time>2026-04-19T16:25:16.002Z</time></trkpt><trkpt lat="38.14977205356127" lon="14.766417948750405"><ele>135.5</ele><time>2026-04-19T16:25:17.002Z</time></trkpt><trkpt lat="38.149886350201555" lon="14.766662179791306"><ele>135.0</ele><time>2026-04-19T16:25:18.002Z</time></trkpt><trkpt lat="38.14999520378526" lon="14.766920647348504"><ele>135.0</ele><time>2026-04-19T16:25:19.002Z</time></trkpt><trkpt lat="38.15009578004351" lon="14.76717274698811"><ele>135.0</ele><time>2026-04-19T16:25:20.002Z</time></trkpt><trkpt lat="38.150202969823034" lon="14.767425699668753"><ele>135.0</ele><time>2026-04-19T16:25:21.002Z</time></trkpt><trkpt lat="38.150311696279495" lon="14.76767475759404"><ele>138.0</ele><time>2026-04-19T16:25:22.002Z</time></trkpt><trkpt lat="38.1504195927441" lon="14.767929765851443"><ele>141.0</ele><time>2026-04-19T16:25:23.002Z</time></trkpt><trkpt lat="38.15052204604407" lon="14.768185552591126"><ele>141.0</ele><time>2026-04-19T16:25:24.002Z</time></trkpt><trkpt lat="38.150584847582046" lon="14.768489845797824"><ele>141.0</ele><time>2026-04-19T16:25:25Z</time></trkpt><trkpt lat="38.15065674111537" lon="14.768738017351511"><ele>136.5</ele><time>2026-04-19T16:25:26Z</time></trkpt><trkpt lat="38.15067273503459" lon="14.769059700380351"><ele>132.0</ele><time>2026-04-19T16:25:27Z</time></trkpt><trkpt lat="38.150703260989005" lon="14.769431316196163"><ele>118.5</ele><time>2026-04-19T16:25:28Z</time></trkpt><trkpt lat="38.15071057795013" lon="14.769763010324143"><ele>105.0</ele><time>2026-04-19T16:25:29Z</time></trkpt><trkpt lat="38.15071769281741" lon="14.770070833315804"><ele>105.0</ele><time>2026-04-19T16:25:30Z</time></trkpt><trkpt lat="38.150714141198264" lon="14.770383938337948"><ele>105.0</ele><time>2026-04-19T16:25:31Z</time></trkpt><trkpt lat="38.15070345282264" lon="14.770695513713354"><ele>108.5</ele><time>2026-04-19T16:25:32Z</time></trkpt><trkpt lat="38.15066803953563" lon="14.77100552490486"><ele>112.0</ele><time>2026-04-19T16:25:33Z</time></trkpt><trkpt lat="38.15062167464065" lon="14.771309001377704"><ele>112.0</ele><time>2026-04-19T16:25:34Z</time></trkpt><trkpt lat="38.150568229014226" lon="14.771604651873334"><ele>112.0</ele><time>2026-04-19T16:25:35Z</time></trkpt><trkpt lat="38.15049564316714" lon="14.771901762379493"><ele>105.5</ele><time>2026-04-19T16:25:36Z</time></trkpt><trkpt lat="38.150419589360865" lon="14.772195804583651"><ele>99.0</ele><time>2026-04-19T16:25:37Z</time></trkpt><trkpt lat="38.15033855840383" lon="14.772488815608543"><ele>107.0</ele><time>2026-04-19T16:25:38Z</time></trkpt><trkpt lat="38.150262186263205" lon="14.772789650129047"><ele>115.0</ele><time>2026-04-19T16:25:39Z</time></trkpt><trkpt lat="38.15018399302483" lon="14.773077954031002"><ele>115.0</ele><time>2026-04-19T16:25:40Z</time></trkpt><trkpt lat="38.15011047061235" lon="14.77336946373369"><ele>115.0</ele><time>2026-04-19T16:25:41Z</time></trkpt><trkpt lat="38.150036093006115" lon="14.773654664468182"><ele>129.0</ele><time>2026-04-19T16:25:42Z</time></trkpt><trkpt lat="38.14996029271192" lon="14.773941799307126"><ele>143.0</ele><time>2026-04-19T16:25:43Z</time></trkpt><trkpt lat="38.14988083103479" lon="14.774221037875936"><ele>157.5</ele><time>2026-04-19T16:25:44Z</time></trkpt><trkpt lat="38.149800208795085" lon="14.774504003836212"><ele>172.0</ele><time>2026-04-19T16:25:45.001Z</time></trkpt><trkpt lat="38.149723603915305" lon="14.77478361685123"><ele>172.0</ele><time>2026-04-19T16:25:46.001Z</time></trkpt><trkpt lat="38.149644688166624" lon="14.775061672382462"><ele>172.0</ele><time>2026-04-19T16:25:47.001Z</time></trkpt><trkpt lat="38.149565012832134" lon="14.775344148780498"><ele>185.0</ele><time>2026-04-19T16:25:48.001Z</time></trkpt><trkpt lat="38.14948485651776" lon="14.775625861222299"><ele>198.0</ele><time>2026-04-19T16:25:49.001Z</time></trkpt><trkpt lat="38.149407675946456" lon="14.775906754778168"><ele>208.5</ele><time>2026-04-19T16:25:50.001Z</time></trkpt><trkpt lat="38.149329680407156" lon="14.77618759328703"><ele>219.0</ele><time>2026-04-19T16:25:51.001Z</time></trkpt><trkpt lat="38.14919150444026" lon="14.776456630346445"><ele>219.0</ele><time>2026-04-19T16:25:52.001Z</time></trkpt><trkpt lat="38.14911019723249" lon="14.776732431116367"><ele>219.0</ele><time>2026-04-19T16:25:53.001Z</time></trkpt><trkpt lat="38.14902304245753" lon="14.777002773509839"><ele>233.5</ele><time>2026-04-19T16:25:54.001Z</time></trkpt><trkpt lat="38.148938120790135" lon="14.777271962452408"><ele>248.0</ele><time>2026-04-19T16:25:55.001Z</time></trkpt><trkpt lat="38.14886183911885" lon="14.777546590559497"><ele>256.5</ele><time>2026-04-19T16:25:56.001Z</time></trkpt><trkpt lat="38.14878303697918" lon="14.77781612218776"><ele>265.0</ele><time>2026-04-19T16:25:57.001Z</time></trkpt><trkpt lat="38.14870626806786" lon="14.778086650114048"><ele>265.0</ele><time>2026-04-19T16:25:58.001Z</time></trkpt><trkpt lat="38.148634795455436" lon="14.778355580714742"><ele>265.0</ele><time>2026-04-19T16:25:59.001Z</time></trkpt><trkpt lat="38.14856199880325" lon="14.778624918652653"><ele>265.0</ele><time>2026-04-19T16:26:00.001Z</time></trkpt><trkpt lat="38.148484315915255" lon="14.778896916367543"><ele>264.0</ele><time>2026-04-19T16:26:01.001Z</time></trkpt><trkpt lat="38.14841230263908" lon="14.779168183311262"><ele>263.0</ele><time>2026-04-19T16:26:02.001Z</time></trkpt><trkpt lat="38.14833896393725" lon="14.779440907536912"><ele>265.33333333333337</ele><time>2026-04-19T16:26:03.001Z</time></trkpt><trkpt lat="38.14825966421011" lon="14.779707087490179"><ele>267.6666666666667</ele><time>2026-04-19T16:26:04.001Z</time></trkpt><trkpt lat="38.148184350613526" lon="14.779973918895845"><ele>270.0</ele><time>2026-04-19T16:26:05.001Z</time></trkpt><trkpt lat="38.14810870061322" lon="14.78023903306816"><ele>270.0</ele><time>2026-04-19T16:26:06.001Z</time></trkpt><trkpt lat="38.148034501236054" lon="14.780504713965739"><ele>270.0</ele><time>2026-04-19T16:26:07.001Z</time></trkpt><trkpt lat="38.14795757409071" lon="14.780763410593966"><ele>270.0</ele><time>2026-04-19T16:26:08.001Z</time></trkpt><trkpt lat="38.14788296231407" lon="14.781029140961586"><ele>263.0</ele><time>2026-04-19T16:26:09.001Z</time></trkpt><trkpt lat="38.14781104564844" lon="14.781293353136425"><ele>256.0</ele><time>2026-04-19T16:26:10.001Z</time></trkpt><trkpt lat="38.14773783761529" lon="14.781557084797631"><ele>249.0</ele><time>2026-04-19T16:26:11.001Z</time></trkpt><trkpt lat="38.1476609284815" lon="14.781822405177264"><ele>246.0</ele><time>2026-04-19T16:26:12.001Z</time></trkpt><trkpt lat="38.14758611557677" lon="14.782088482227218"><ele>243.0</ele><time>2026-04-19T16:26:13.001Z</time></trkpt><trkpt lat="38.14751227914983" lon="14.782356906274583"><ele>240.0</ele><time>2026-04-19T16:26:14.001Z</time></trkpt><trkpt lat="38.1474406637916" lon="14.78262558123784"><ele>75.0</ele><time>2026-04-19T16:26:15.019Z</time></trkpt><trkpt lat="38.14575483316508" lon="14.789146492286733"><ele>83.5</ele><time>2026-04-19T16:26:37.002Z</time></trkpt><trkpt lat="38.14568570335459" lon="14.789440191155556"><ele>92.0</ele><time>2026-04-19T16:26:38.002Z</time></trkpt><trkpt lat="38.14566605655951" lon="14.789704495843774"><ele>92.0</ele><time>2026-04-19T16:26:39.002Z</time></trkpt><trkpt lat="38.14561844489987" lon="14.79000297700405"><ele>92.0</ele><time>2026-04-19T16:26:40.002Z</time></trkpt><trkpt lat="38.1455672198972" lon="14.790310958935958"><ele>108.0</ele><time>2026-04-19T16:26:41.002Z</time></trkpt><trkpt lat="38.14552936688832" lon="14.790617578959422"><ele>124.0</ele><time>2026-04-19T16:26:42.002Z</time></trkpt><trkpt lat="38.14549126136771" lon="14.790923094187958"><ele>141.5</ele><time>2026-04-19T16:26:43.002Z</time></trkpt><trkpt lat="38.14544569991041" lon="14.791235496289675"><ele>159.0</ele><time>2026-04-19T16:26:44.002Z</time></trkpt><trkpt lat="38.145403049458224" lon="14.791557059117372"><ele>168.5</ele><time>2026-04-19T16:26:45.002Z</time></trkpt><trkpt lat="38.1453631722177" lon="14.791881502909618"><ele>178.0</ele><time>2026-04-19T16:26:46.002Z</time></trkpt><trkpt lat="38.14533179670706" lon="14.792203871645157"><ele>178.0</ele><time>2026-04-19T16:26:47.002Z</time></trkpt><trkpt lat="38.14530339613711" lon="14.792526083277382"><ele>178.0</ele><time>2026-04-19T16:26:48.002Z</time></trkpt><trkpt lat="38.145279212224786" lon="14.79284506420197"><ele>176.5</ele><time>2026-04-19T16:26:49.002Z</time></trkpt><trkpt lat="38.14526026923455" lon="14.793155877616789"><ele>175.0</ele><time>2026-04-19T16:26:50.002Z</time></trkpt><trkpt lat="38.14524301148741" lon="14.793468873496664"><ele>176.5</ele><time>2026-04-19T16:26:51.002Z</time></trkpt><trkpt lat="38.14523044238107" lon="14.793771900507682"><ele>178.0</ele><time>2026-04-19T16:26:52.002Z</time></trkpt><trkpt lat="38.14522304767261" lon="14.794070776889534"><ele>187.0</ele><time>2026-04-19T16:26:53.002Z</time></trkpt><trkpt lat="38.14521728453876" lon="14.794359725551187"><ele>196.0</ele><time>2026-04-19T16:26:54.002Z</time></trkpt><trkpt lat="38.145209058628204" lon="14.794654270001608"><ele>196.0</ele><time>2026-04-19T16:26:55.002Z</time></trkpt><trkpt lat="38.14521516770462" lon="14.79493862005037"><ele>196.0</ele><time>2026-04-19T16:26:56.002Z</time></trkpt><trkpt lat="38.14521608963305" lon="14.795220795900388"><ele>196.0</ele><time>2026-04-19T16:26:57.002Z</time></trkpt><trkpt lat="38.14521171362597" lon="14.79549861992036"><ele>203.66666666666666</ele><time>2026-04-19T16:26:58.002Z</time></trkpt><trkpt lat="38.14521008791535" lon="14.795781424264"><ele>211.33333333333331</ele><time>2026-04-19T16:26:59.002Z</time></trkpt><trkpt lat="38.14522220829098" lon="14.79605715174153"><ele>219.0</ele><time>2026-04-19T16:27:00.002Z</time></trkpt><trkpt lat="38.14523297978459" lon="14.796329553782183"><ele>221.0</ele><time>2026-04-19T16:27:01.002Z</time></trkpt><trkpt lat="38.145240619923044" lon="14.796604350735139"><ele>223.0</ele><time>2026-04-19T16:27:02.002Z</time></trkpt><trkpt lat="38.14524690359458" lon="14.796883035406951"><ele>225.0</ele><time>2026-04-19T16:27:03.002Z</time></trkpt><trkpt lat="38.14525544088295" lon="14.797160431871363"><ele>215.33333333333331</ele><time>2026-04-19T16:27:04.002Z</time></trkpt><trkpt lat="38.14526447271253" lon="14.797436919095986"><ele>205.66666666666666</ele><time>2026-04-19T16:27:05.002Z</time></trkpt><trkpt lat="38.14526970444391" lon="14.79771388098434"><ele>196.0</ele><time>2026-04-19T16:27:06.002Z</time></trkpt><trkpt lat="38.14527808610841" lon="14.797992440685492"><ele>184.66666666666666</ele><time>2026-04-19T16:27:07.002Z</time></trkpt><trkpt lat="38.14528867280736" lon="14.79826965961973"><ele>173.33333333333331</ele><time>2026-04-19T16:27:08.002Z</time></trkpt><trkpt lat="38.14529771769792" lon="14.798549577452418"><ele>162.0</ele><time>2026-04-19T16:27:09.002Z</time></trkpt><trkpt lat="38.14530389558722" lon="14.798827030708795"><ele>151.33333333333334</ele><time>2026-04-19T16:27:10.002Z</time></trkpt><trkpt lat="38.14531462119842" lon="14.799110115591876"><ele>140.66666666666669</ele><time>2026-04-19T16:27:11.002Z</time></trkpt><trkpt lat="38.145321324007895" lon="14.799389190043073"><ele>130.0</ele><time>2026-04-19T16:27:12.002Z</time></trkpt><trkpt lat="38.145332065942" lon="14.799673669715357"><ele>118.66666666666667</ele><time>2026-04-19T16:27:13.002Z</time></trkpt><trkpt lat="38.14533974547128" lon="14.799953310384458"><ele>107.33333333333334</ele><time>2026-04-19T16:27:14.002Z</time></trkpt><trkpt lat="38.145343434217644" lon="14.800214095375289"><ele>96.0</ele><time>2026-04-19T16:27:15.002Z</time></trkpt><trkpt lat="38.145257219374564" lon="14.800763425676037"><ele>62.0</ele><time>2026-04-19T16:27:16.002Z</time></trkpt><trkpt lat="38.145237188836894" lon="14.801098436417837"><ele>28.0</ele><time>2026-04-19T16:27:17.002Z</time></trkpt><trkpt lat="38.1452486850886" lon="14.801410526539815"><ele>28.0</ele><time>2026-04-19T16:27:18.002Z</time></trkpt><trkpt lat="38.145236774426216" lon="14.801707841962287"><ele>28.0</ele><time>2026-04-19T16:27:19.002Z</time></trkpt><trkpt lat="38.14523207752264" lon="14.802009201060711"><ele>23.5</ele><time>2026-04-19T16:27:20.003Z</time></trkpt><trkpt lat="38.14522424309696" lon="14.80231374612617"><ele>19.0</ele><time>2026-04-19T16:27:21.003Z</time></trkpt><trkpt lat="38.14522092578194" lon="14.80261967480867"><ele>20.0</ele><time>2026-04-19T16:27:22.003Z</time></trkpt><trkpt lat="38.14521411588829" lon="14.802925409520276"><ele>21.0</ele><time>2026-04-19T16:27:23.003Z</time></trkpt><trkpt lat="38.1452006475435" lon="14.803233265686954"><ele>27.0</ele><time>2026-04-19T16:27:24.003Z</time></trkpt><trkpt lat="38.14518861326254" lon="14.803537547977209"><ele>33.0</ele><time>2026-04-19T16:27:25.003Z</time></trkpt><trkpt lat="38.14519228667958" lon="14.803852461169924"><ele>33.0</ele><time>2026-04-19T16:27:26.003Z</time></trkpt><trkpt lat="38.14516942341599" lon="14.804160585946391"><ele>33.0</ele><time>2026-04-19T16:27:27.003Z</time></trkpt><trkpt lat="38.14514414043158" lon="14.80446671202075"><ele>47.0</ele><time>2026-04-19T16:27:28.003Z</time></trkpt><trkpt lat="38.145119779031376" lon="14.804770397949442"><ele>61.0</ele><time>2026-04-19T16:27:29.003Z</time></trkpt><trkpt lat="38.14509590393192" lon="14.805074647901623"><ele>76.5</ele><time>2026-04-19T16:27:30.003Z</time></trkpt><trkpt lat="38.14506868153146" lon="14.805375737840356"><ele>92.0</ele><time>2026-04-19T16:27:31.001Z</time></trkpt><trkpt lat="38.145035945901036" lon="14.805674304587226"><ele>92.0</ele><time>2026-04-19T16:27:32.001Z</time></trkpt><trkpt lat="38.14499692705922" lon="14.80596916664272"><ele>92.0</ele><time>2026-04-19T16:27:33.001Z</time></trkpt><trkpt lat="38.14495247401873" lon="14.806259805934816"><ele>120.5</ele><time>2026-04-19T16:27:34.001Z</time></trkpt><trkpt lat="38.144904130209525" lon="14.806548511983065"><ele>149.0</ele><time>2026-04-19T16:27:35.001Z</time></trkpt><trkpt lat="38.14485476856948" lon="14.80683642948687"><ele>166.0</ele><time>2026-04-19T16:27:36.001Z</time></trkpt><trkpt lat="38.14480616176745" lon="14.807124979023104"><ele>183.0</ele><time>2026-04-19T16:27:37.001Z</time></trkpt><trkpt lat="38.14475780853893" lon="14.807414361898516"><ele>198.0</ele><time>2026-04-19T16:27:38.001Z</time></trkpt><trkpt lat="38.14470773486789" lon="14.807703402227348"><ele>213.0</ele><time>2026-04-19T16:27:39.001Z</time></trkpt><trkpt lat="38.14465808660413" lon="14.807992468931488"><ele>213.0</ele><time>2026-04-19T16:27:40.001Z</time></trkpt><trkpt lat="38.14460887656303" lon="14.808280256250347"><ele>213.0</ele><time>2026-04-19T16:27:41.001Z</time></trkpt><trkpt lat="38.1445590165287" lon="14.808568872691321"><ele>227.5</ele><time>2026-04-19T16:27:42.001Z</time></trkpt><trkpt lat="38.14445278643552" lon="14.808964824361274"><ele>242.0</ele><time>2026-04-19T16:27:43.001Z</time></trkpt><trkpt lat="38.144401837472515" lon="14.809268724768565"><ele>250.5</ele><time>2026-04-19T16:27:44.001Z</time></trkpt><trkpt lat="38.14434790543399" lon="14.809572320540903"><ele>259.0</ele><time>2026-04-19T16:27:45.001Z</time></trkpt><trkpt lat="38.144294136602134" lon="14.809875336075711"><ele>255.5</ele><time>2026-04-19T16:27:46.001Z</time></trkpt><trkpt lat="38.14424718509109" lon="14.810179111505915"><ele>252.0</ele><time>2026-04-19T16:27:47.001Z</time></trkpt><trkpt lat="38.14419093000136" lon="14.810481778971607"><ele>252.0</ele><time>2026-04-19T16:27:48Z</time></trkpt><trkpt lat="38.14413384489674" lon="14.810783503772956"><ele>252.0</ele><time>2026-04-19T16:27:49Z</time></trkpt><trkpt lat="38.14408012626006" lon="14.811082162366715"><ele>237.5</ele><time>2026-04-19T16:27:50Z</time></trkpt><trkpt lat="38.144023521530826" lon="14.811380794658998"><ele>223.0</ele><time>2026-04-19T16:27:51Z</time></trkpt><trkpt lat="38.1439682305802" lon="14.811675926065481"><ele>207.5</ele><time>2026-04-19T16:27:52Z</time></trkpt><trkpt lat="38.14391049873822" lon="14.811970164361457"><ele>192.0</ele><time>2026-04-19T16:27:53Z</time></trkpt><trkpt lat="38.14385746605912" lon="14.812269728249115"><ele>192.0</ele><time>2026-04-19T16:27:54Z</time></trkpt><trkpt lat="38.14380313325349" lon="14.812570673407512"><ele>192.0</ele><time>2026-04-19T16:27:55Z</time></trkpt><trkpt lat="38.143749408176575" lon="14.812872399277948"><ele>180.0</ele><time>2026-04-19T16:27:56Z</time></trkpt><trkpt lat="38.14369595803665" lon="14.8131799908032"><ele>168.0</ele><time>2026-04-19T16:27:57Z</time></trkpt><trkpt lat="38.1436422337687" lon="14.81348988511309"><ele>165.0</ele><time>2026-04-19T16:27:58Z</time></trkpt><trkpt lat="38.14360226460426" lon="14.81378834194933"><ele>162.0</ele><time>2026-04-19T16:27:59Z</time></trkpt><trkpt lat="38.14356394757991" lon="14.814082305289006"><ele>163.33333333333334</ele><time>2026-04-19T16:28:00Z</time></trkpt><trkpt lat="38.143528909125784" lon="14.814374063994208"><ele>164.66666666666669</ele><time>2026-04-19T16:28:01Z</time></trkpt><trkpt lat="38.143503935611" lon="14.81464730169294"><ele>166.0</ele><time>2026-04-19T16:28:02Z</time></trkpt><trkpt lat="38.14348692048616" lon="14.814917842289685"><ele>166.0</ele><time>2026-04-19T16:28:03Z</time></trkpt><trkpt lat="38.14349442787735" lon="14.815110302954297"><ele>166.0</ele><time>2026-04-19T16:28:04Z</time></trkpt><trkpt lat="38.14348673282618" lon="14.815365234201709"><ele>166.0</ele><time>2026-04-19T16:28:05Z</time></trkpt><trkpt lat="38.14347395964744" lon="14.815657825221196"><ele>172.0</ele><time>2026-04-19T16:28:06Z</time></trkpt><trkpt lat="38.14346918754586" lon="14.81595246708268"><ele>178.0</ele><time>2026-04-19T16:28:07Z</time></trkpt><trkpt lat="38.143467593052016" lon="14.816263366864305"><ele>178.0</ele><time>2026-04-19T16:28:08Z</time></trkpt><trkpt lat="38.143477188960375" lon="14.816564675463585"><ele>178.0</ele><time>2026-04-19T16:28:09Z</time></trkpt><trkpt lat="38.14348728525361" lon="14.816880507965143"><ele>165.5</ele><time>2026-04-19T16:28:10Z</time></trkpt><trkpt lat="38.143497674636045" lon="14.817200879311697"><ele>153.0</ele><time>2026-04-19T16:28:11Z</time></trkpt><trkpt lat="38.14351713081055" lon="14.817544585654595"><ele>142.0</ele><time>2026-04-19T16:28:12.012Z</time></trkpt><trkpt lat="38.14385103159887" lon="14.820065999910765"><ele>85.0</ele><time>2026-04-19T16:28:15.781Z</time></trkpt><trkpt lat="38.144248973031125" lon="14.821461614014634"><ele>71.0</ele><time>2026-04-19T16:28:16.782Z</time></trkpt><trkpt lat="38.14469011994865" lon="14.822723914668511"><ele>71.0</ele><time>2026-04-19T16:28:31.001Z</time></trkpt><trkpt lat="38.14478993303625" lon="14.822973756434866"><ele>71.0</ele><time>2026-04-19T16:28:32.001Z</time></trkpt><trkpt lat="38.144918867681284" lon="14.823199178460749"><ele>71.0</ele><time>2026-04-19T16:28:33.001Z</time></trkpt><trkpt lat="38.14501861949925" lon="14.823411303080112"><ele>74.0</ele><time>2026-04-19T16:28:34.001Z</time></trkpt><trkpt lat="38.145120566297884" lon="14.823615929757533"><ele>77.0</ele><time>2026-04-19T16:28:35.001Z</time></trkpt><trkpt lat="38.1452264775604" lon="14.823814103948916"><ele>80.0</ele><time>2026-04-19T16:28:36.001Z</time></trkpt><trkpt lat="38.145329783363614" lon="14.824009602518878"><ele>80.0</ele><time>2026-04-19T16:28:37.001Z</time></trkpt><trkpt lat="38.14543609019687" lon="14.824205610425036"><ele>80.0</ele><time>2026-04-19T16:28:38.001Z</time></trkpt><trkpt lat="38.14554903592888" lon="14.824398797660441"><ele>80.0</ele><time>2026-04-19T16:28:39.001Z</time></trkpt><trkpt lat="38.14566343286595" lon="14.824580691009864"><ele>80.33333333333334</ele><time>2026-04-19T16:28:40.001Z</time></trkpt><trkpt lat="38.145771028977904" lon="14.824756891683093"><ele>80.66666666666667</ele><time>2026-04-19T16:28:41.001Z</time></trkpt><trkpt lat="38.14587929314321" lon="14.824926577326373"><ele>81.0</ele><time>2026-04-19T16:28:42.001Z</time></trkpt><trkpt lat="38.145983302319" lon="14.825095968788776"><ele>87.0</ele><time>2026-04-19T16:28:43.001Z</time></trkpt><trkpt lat="38.14608567325" lon="14.825270158226934"><ele>93.0</ele><time>2026-04-19T16:28:44.001Z</time></trkpt><trkpt lat="38.1461920342054" lon="14.825441385065949"><ele>99.0</ele><time>2026-04-19T16:28:45.001Z</time></trkpt><trkpt lat="38.146299255315746" lon="14.825614775948715"><ele>99.0</ele><time>2026-04-19T16:28:46.001Z</time></trkpt><trkpt lat="38.14640950164285" lon="14.82578382518276"><ele>99.0</ele><time>2026-04-19T16:28:47.001Z</time></trkpt><trkpt lat="38.1465204961625" lon="14.825952967984103"><ele>99.0</ele><time>2026-04-19T16:28:48.001Z</time></trkpt><trkpt lat="38.146637111082164" lon="14.82612865323598"><ele>92.66666666666667</ele><time>2026-04-19T16:28:49.001Z</time></trkpt><trkpt lat="38.14675028332461" lon="14.826315576875386"><ele>86.33333333333334</ele><time>2026-04-19T16:28:50.001Z</time></trkpt><trkpt lat="38.14684813309287" lon="14.826504262802649"><ele>80.0</ele><time>2026-04-19T16:28:51.001Z</time></trkpt><trkpt lat="38.14695643961011" lon="14.826704398211792"><ele>84.66666666666667</ele><time>2026-04-19T16:28:52.001Z</time></trkpt><trkpt lat="38.147054535473515" lon="14.826910355254226"><ele>89.33333333333333</ele><time>2026-04-19T16:28:53.001Z</time></trkpt><trkpt lat="38.14714070975004" lon="14.827122801537532"><ele>94.0</ele><time>2026-04-19T16:28:54.001Z</time></trkpt><trkpt lat="38.147220513240434" lon="14.82733564435229"><ele>94.0</ele><time>2026-04-19T16:28:55.001Z</time></trkpt><trkpt lat="38.14729102155713" lon="14.827543291821726"><ele>94.0</ele><time>2026-04-19T16:28:56.001Z</time></trkpt><trkpt lat="38.14736048122356" lon="14.827737769332586"><ele>94.0</ele><time>2026-04-19T16:28:57.001Z</time></trkpt><trkpt lat="38.147429134300694" lon="14.827922988924803"><ele>93.0</ele><time>2026-04-19T16:28:58.001Z</time></trkpt><trkpt lat="38.14750285841974" lon="14.828082136837349"><ele>92.0</ele><time>2026-04-19T16:28:59.001Z</time></trkpt><trkpt lat="38.147584834488946" lon="14.828235905017989"><ele>91.0</ele><time>2026-04-19T16:29:00.001Z</time></trkpt><trkpt lat="38.147684587317876" lon="14.828361382738022"><ele>90.0</ele><time>2026-04-19T16:29:01.001Z</time></trkpt><trkpt lat="38.1477945584692" lon="14.828478753507117"><ele>90.0</ele><time>2026-04-19T16:29:02.001Z</time></trkpt><trkpt lat="38.147914420116045" lon="14.828589531168038"><ele>90.0</ele><time>2026-04-19T16:29:03.001Z</time></trkpt><trkpt lat="38.14803207118898" lon="14.828698389608377"><ele>90.0</ele><time>2026-04-19T16:29:04.001Z</time></trkpt><trkpt lat="38.14813303609803" lon="14.828819758427636"><ele>90.0</ele><time>2026-04-19T16:29:05.001Z</time></trkpt><trkpt lat="38.14820443316665" lon="14.828960796472373"><ele>86.75</ele><time>2026-04-19T16:29:06.001Z</time></trkpt><trkpt lat="38.14824062950017" lon="14.829120314334604"><ele>83.5</ele><time>2026-04-19T16:29:07.001Z</time></trkpt><trkpt lat="38.14825261268259" lon="14.829282257905554"><ele>80.25</ele><time>2026-04-19T16:29:08.001Z</time></trkpt><trkpt lat="38.1482536013757" lon="14.82943830913658"><ele>77.0</ele><time>2026-04-19T16:29:09.001Z</time></trkpt><trkpt lat="38.14825508989029" lon="14.829594362495737"><ele>76.75</ele><time>2026-04-19T16:29:10.002Z</time></trkpt><trkpt lat="38.14825986216502" lon="14.829752105917521"><ele>76.5</ele><time>2026-04-19T16:29:11.002Z</time></trkpt><trkpt lat="38.14826055921731" lon="14.829911946268815"><ele>76.25</ele><time>2026-04-19T16:29:12.002Z</time></trkpt><trkpt lat="38.148249851513754" lon="14.830058688857838"><ele>76.0</ele><time>2026-04-19T16:29:13.002Z</time></trkpt><trkpt lat="38.14824529475664" lon="14.830203719303615"><ele>74.75</ele><time>2026-04-19T16:29:14.002Z</time></trkpt><trkpt lat="38.14823241826166" lon="14.830347392168195"><ele>73.5</ele><time>2026-04-19T16:29:15.002Z</time></trkpt><trkpt lat="38.14822335293822" lon="14.830492238126967"><ele>72.25</ele><time>2026-04-19T16:29:16.002Z</time></trkpt><trkpt lat="38.14822058145585" lon="14.8306355637383"><ele>71.0</ele><time>2026-04-19T16:29:17.002Z</time></trkpt><trkpt lat="38.14822846901826" lon="14.83077994807868"><ele>71.0</ele><time>2026-04-19T16:29:18.002Z</time></trkpt><trkpt lat="38.148250478667265" lon="14.830912370755042"><ele>71.0</ele><time>2026-04-19T16:29:19.002Z</time></trkpt><trkpt lat="38.14828222270645" lon="14.83103259815367"><ele>71.0</ele><time>2026-04-19T16:29:20.002Z</time></trkpt><trkpt lat="38.14831379115613" lon="14.831141330985767"><ele>71.0</ele><time>2026-04-19T16:29:21.002Z</time></trkpt><trkpt lat="38.14835073509099" lon="14.83122954862538"><ele>71.0</ele><time>2026-04-19T16:29:22.002Z</time></trkpt><trkpt lat="38.148403074235034" lon="14.831283113799568"><ele>71.0</ele><time>2026-04-19T16:29:23.002Z</time></trkpt><trkpt lat="38.14846676680896" lon="14.831379036540172"><ele>71.83333333333334</ele><time>2026-04-19T16:29:25.002Z</time></trkpt><trkpt lat="38.14853419508325" lon="14.831439724437109"><ele>72.66666666666667</ele><time>2026-04-19T16:29:27.002Z</time></trkpt><trkpt lat="38.14859487227543" lon="14.83148274699209"><ele>73.5</ele><time>2026-04-19T16:29:30.002Z</time></trkpt><trkpt lat="38.14866359095532" lon="14.831501941248286"><ele>74.33333333333333</ele><time>2026-04-19T16:31:27.002Z</time></trkpt><trkpt lat="38.14877768536697" lon="14.831575972992276"><ele>75.16666666666666</ele><time>2026-04-19T16:31:30.002Z</time></trkpt><trkpt lat="38.148840803243296" lon="14.831606561120761"><ele>76.0</ele><time>2026-04-19T16:31:31.002Z</time></trkpt><trkpt lat="38.14895872833668" lon="14.831637530241094"><ele>75.0</ele><time>2026-04-19T16:31:33.002Z</time></trkpt><trkpt lat="38.14905715313257" lon="14.831619027567022"><ele>74.0</ele><time>2026-04-19T16:31:35.002Z</time></trkpt><trkpt lat="38.14911586785691" lon="14.83165266501644"><ele>73.0</ele><time>2026-04-19T16:41:07.001Z</time></trkpt><trkpt lat="38.149200578618185" lon="14.831623874750921"><ele>72.0</ele><time>2026-04-19T16:41:10.001Z</time></trkpt><trkpt lat="38.1492917156951" lon="14.831642337246764"><ele>71.0</ele><time>2026-04-19T16:41:12.001Z</time></trkpt><trkpt lat="38.14938551350792" lon="14.831658814490883"><ele>70.0</ele><time>2026-04-19T16:41:14.001Z</time></trkpt><trkpt lat="38.14946690743368" lon="14.831604897812573"><ele>70.0</ele><time>2026-04-19T16:41:16.001Z</time></trkpt><trkpt lat="38.14946171915998" lon="14.831479522487385"><ele>70.0</ele><time>2026-04-19T16:41:18.001Z</time></trkpt><trkpt lat="38.14941199674372" lon="14.83139650005899"><ele>70.0</ele><time>2026-04-19T16:41:20.001Z</time></trkpt><trkpt lat="38.14938690377138" lon="14.831321383553375"><ele>70.0</ele><time>2026-04-19T16:41:22.001Z</time></trkpt><trkpt lat="38.14934553175283" lon="14.831231372253542"><ele>70.0</ele><time>2026-04-19T16:41:25.001Z</time></trkpt><trkpt lat="38.14927999543067" lon="14.831205351854333"><ele>70.0</ele><time>2026-04-19T16:41:28.001Z</time></trkpt><trkpt lat="38.14929724088516" lon="14.831294953288094"><ele>70.0</ele><time>2026-04-19T16:47:10Z</time></trkpt><trkpt lat="38.14935837916513" lon="14.83127010945559"><ele>70.0</ele><time>2026-04-19T16:47:13Z</time></trkpt><trkpt lat="38.149398215177634" lon="14.83115906441335"><ele>70.0</ele><time>2026-04-19T16:47:16Z</time></trkpt><trkpt lat="38.149448441696805" lon="14.831069297876489"><ele>70.0</ele><time>2026-04-19T16:47:19Z</time></trkpt><trkpt lat="38.14949375009452" lon="14.830964496255135"><ele>70.0</ele><time>2026-04-19T16:47:22Z</time></trkpt><trkpt lat="38.149534868426656" lon="14.830882493709025"><ele>70.0</ele><time>2026-04-19T16:47:24Z</time></trkpt><trkpt lat="38.14958310384203" lon="14.830801031097968"><ele>68.6</ele><time>2026-04-19T16:47:26Z</time></trkpt><trkpt lat="38.14962607403595" lon="14.830718547985539"><ele>67.2</ele><time>2026-04-19T16:47:28Z</time></trkpt><trkpt lat="38.1496753770667" lon="14.830613196235362"><ele>65.8</ele><time>2026-04-19T16:47:30Z</time></trkpt><trkpt lat="38.149722088069986" lon="14.830507140143942"><ele>64.4</ele><time>2026-04-19T16:47:32Z</time></trkpt><trkpt lat="38.14977726362247" lon="14.830399803579"><ele>63.0</ele><time>2026-04-19T16:47:34Z</time></trkpt><trkpt lat="38.1498370365538" lon="14.830303421777328"><ele>62.8</ele><time>2026-04-19T16:47:36Z</time></trkpt><trkpt lat="38.14989020022684" lon="14.830199448735756"><ele>62.599999999999994</ele><time>2026-04-19T16:47:38Z</time></trkpt><trkpt lat="38.14993811752258" lon="14.830105859526677"><ele>62.400000000000006</ele><time>2026-04-19T16:47:39Z</time></trkpt><trkpt lat="38.15000076015754" lon="14.829999399956334"><ele>62.2</ele><time>2026-04-19T16:47:41.001Z</time></trkpt><trkpt lat="38.15005275552963" lon="14.829895513618343"><ele>62.0</ele><time>2026-04-19T16:47:43.001Z</time></trkpt><trkpt lat="38.15010743825311" lon="14.82978786868444"><ele>60.25</ele><time>2026-04-19T16:47:45.001Z</time></trkpt><trkpt lat="38.15016489565705" lon="14.829680143734908"><ele>58.5</ele><time>2026-04-19T16:47:47.001Z</time></trkpt><trkpt lat="38.15022251477024" lon="14.829557484837844"><ele>56.75</ele><time>2026-04-19T16:47:49.001Z</time></trkpt><trkpt lat="38.150283910534114" lon="14.829428743147176"><ele>55.0</ele><time>2026-04-19T16:47:51.001Z</time></trkpt><trkpt lat="38.15034947984941" lon="14.829295631123344"><ele>54.0</ele><time>2026-04-19T16:47:53.001Z</time></trkpt><trkpt lat="38.150386720833566" lon="14.829229084979795"><ele>53.0</ele><time>2026-04-19T16:47:54.001Z</time></trkpt><trkpt lat="38.1504782974712" lon="14.829121360085917"><ele>52.0</ele><time>2026-04-19T16:47:56.001Z</time></trkpt><trkpt lat="38.15057094773647" lon="14.82903250215048"><ele>51.0</ele><time>2026-04-19T16:47:58.001Z</time></trkpt><trkpt lat="38.150688555269106" lon="14.828969463383778"><ele>50.0</ele><time>2026-04-19T16:48:00.001Z</time></trkpt><trkpt lat="38.15075186384954" lon="14.828942749204685"><ele>48.42857142857143</ele><time>2026-04-19T16:48:01.001Z</time></trkpt><trkpt lat="38.15082105840394" lon="14.828922734112291"><ele>46.85714285714286</ele><time>2026-04-19T16:48:02.001Z</time></trkpt><trkpt lat="38.15089096215174" lon="14.828905115439767"><ele>45.28571428571429</ele><time>2026-04-19T16:48:03.001Z</time></trkpt><trkpt lat="38.15096528780832" lon="14.828890894070666"><ele>43.714285714285715</ele><time>2026-04-19T16:48:04.001Z</time></trkpt><trkpt lat="38.15103633503751" lon="14.828868772566018"><ele>42.14285714285714</ele><time>2026-04-19T16:48:05.001Z</time></trkpt><trkpt lat="38.15110855277603" lon="14.828850202636673"><ele>40.57142857142858</ele><time>2026-04-19T16:48:06.001Z</time></trkpt><trkpt lat="38.15118281729175" lon="14.828832188068148"><ele>39.0</ele><time>2026-04-19T16:48:07.001Z</time></trkpt><trkpt lat="38.15125430882276" lon="14.828814999933968"><ele>39.0</ele><time>2026-04-19T16:48:08.001Z</time></trkpt><trkpt lat="38.15132068833035" lon="14.828802474589395"><ele>39.0</ele><time>2026-04-19T16:48:09.001Z</time></trkpt><trkpt lat="38.15138378119866" lon="14.828793392445794"><ele>39.0</ele><time>2026-04-19T16:48:10.001Z</time></trkpt><trkpt lat="38.15150609229817" lon="14.828778574325305"><ele>39.0</ele><time>2026-04-19T16:48:12.001Z</time></trkpt><trkpt lat="38.15162482585007" lon="14.82876177094704"><ele>39.0</ele><time>2026-04-19T16:48:14.001Z</time></trkpt><trkpt lat="38.15169237693231" lon="14.828720347618209"><ele>39.0</ele><time>2026-04-19T16:48:16.001Z</time></trkpt><trkpt lat="38.15175247520573" lon="14.82866095245427"><ele>38.666666666666664</ele><time>2026-04-19T16:49:24Z</time></trkpt><trkpt lat="38.151726230134564" lon="14.828490182097571"><ele>38.333333333333336</ele><time>2026-04-19T16:49:26Z</time></trkpt><trkpt lat="38.15169940854682" lon="14.828407492458416"><ele>38.0</ele><time>2026-04-19T16:49:27Z</time></trkpt><trkpt lat="38.15166171163919" lon="14.828324161151395"><ele>37.66666666666667</ele><time>2026-04-19T16:49:28Z</time></trkpt><trkpt lat="38.151628442461245" lon="14.828236906339892"><ele>37.333333333333336</ele><time>2026-04-19T16:49:29Z</time></trkpt><trkpt lat="38.15159750457255" lon="14.828141653467293"><ele>37.0</ele><time>2026-04-19T16:49:30Z</time></trkpt><trkpt lat="38.151564747066026" lon="14.828043548443269"><ele>37.4</ele><time>2026-04-19T16:49:31Z</time></trkpt><trkpt lat="38.15152657193812" lon="14.827942483408213"><ele>37.800000000000004</ele><time>2026-04-19T16:49:32Z</time></trkpt><trkpt lat="38.151492912197185" lon="14.82783771322082"><ele>38.2</ele><time>2026-04-19T16:49:33Z</time></trkpt><trkpt lat="38.15146615460229" lon="14.82772521703893"><ele>38.6</ele><time>2026-04-19T16:49:34Z</time></trkpt><trkpt lat="38.15145344345704" lon="14.827594977334362"><ele>39.0</ele><time>2026-04-19T16:49:35Z</time></trkpt><trkpt lat="38.15145532344523" lon="14.827459335501562"><ele>38.8</ele><time>2026-04-19T16:49:36Z</time></trkpt><trkpt lat="38.151472388616" lon="14.827327208749265"><ele>38.599999999999994</ele><time>2026-04-19T16:49:37Z</time></trkpt><trkpt lat="38.15150411970478" lon="14.827196518413738"><ele>38.4</ele><time>2026-04-19T16:49:38Z</time></trkpt><trkpt lat="38.151548190065384" lon="14.827067397049303"><ele>38.199999999999996</ele><time>2026-04-19T16:49:39Z</time></trkpt><trkpt lat="38.151596999442" lon="14.826936647731287"><ele>38.0</ele><time>2026-04-19T16:49:40Z</time></trkpt><trkpt lat="38.15164527004328" lon="14.82680540467562"><ele>38.0</ele><time>2026-04-19T16:49:41Z</time></trkpt><trkpt lat="38.15169225413859" lon="14.8266716005098"><ele>38.0</ele><time>2026-04-19T16:49:42Z</time></trkpt><trkpt lat="38.15173761537331" lon="14.826534384164765"><ele>38.0</ele><time>2026-04-19T16:49:43Z</time></trkpt><trkpt lat="38.15178131395919" lon="14.826402794958565"><ele>38.0</ele><time>2026-04-19T16:49:44Z</time></trkpt><trkpt lat="38.151822107478246" lon="14.826274840166494"><ele>38.0</ele><time>2026-04-19T16:49:45Z</time></trkpt><trkpt lat="38.15186335038038" lon="14.82614751920595"><ele>38.0</ele><time>2026-04-19T16:49:46Z</time></trkpt><trkpt lat="38.15191073854155" lon="14.826020855266103"><ele>38.0</ele><time>2026-04-19T16:49:47Z</time></trkpt><trkpt lat="38.151960323479926" lon="14.825888111020229"><ele>38.0</ele><time>2026-04-19T16:49:48Z</time></trkpt><trkpt lat="38.15200641636555" lon="14.825754112114879"><ele>38.0</ele><time>2026-04-19T16:49:49Z</time></trkpt><trkpt lat="38.15205102671239" lon="14.825621908381898"><ele>36.8</ele><time>2026-04-19T16:49:50Z</time></trkpt><trkpt lat="38.15209717250911" lon="14.825502897354552"><ele>35.599999999999994</ele><time>2026-04-19T16:49:51Z</time></trkpt><trkpt lat="38.152140664714445" lon="14.82538294891716"><ele>34.400000000000006</ele><time>2026-04-19T16:49:52Z</time></trkpt><trkpt lat="38.15218178655899" lon="14.825265269019573"><ele>33.2</ele><time>2026-04-19T16:49:53Z</time></trkpt><trkpt lat="38.15222143060354" lon="14.825152311621403"><ele>32.0</ele><time>2026-04-19T16:49:54Z</time></trkpt><trkpt lat="38.152257840053" lon="14.825044980142478"><ele>31.8</ele><time>2026-04-19T16:49:55Z</time></trkpt><trkpt lat="38.15229143332936" lon="14.824966803802543"><ele>31.6</ele><time>2026-04-19T16:49:56Z</time></trkpt><trkpt lat="38.15233701014233" lon="14.824878405645146"><ele>31.400000000000002</ele><time>2026-04-19T16:49:58.001Z</time></trkpt><trkpt lat="38.15239336882429" lon="14.824757000287509"><ele>31.200000000000003</ele><time>2026-04-19T16:50:00.001Z</time></trkpt><trkpt lat="38.152439201786876" lon="14.82462349634972"><ele>31.0</ele><time>2026-04-19T16:50:02.001Z</time></trkpt><trkpt lat="38.152498485950474" lon="14.824494439075082"><ele>30.833333333333336</ele><time>2026-04-19T16:50:04.001Z</time></trkpt><trkpt lat="38.15258558916597" lon="14.824368649229088"><ele>30.666666666666668</ele><time>2026-04-19T16:50:06.001Z</time></trkpt><trkpt lat="38.15263966464477" lon="14.824301328990266"><ele>30.5</ele><time>2026-04-19T16:50:07.001Z</time></trkpt><trkpt lat="38.15269704972826" lon="14.824236342679873"><ele>30.333333333333336</ele><time>2026-04-19T16:50:08.001Z</time></trkpt><trkpt lat="38.15276102849657" lon="14.824173175264624"><ele>30.166666666666668</ele><time>2026-04-19T16:50:09.001Z</time></trkpt><trkpt lat="38.15282649949461" lon="14.824116238593094"><ele>30.0</ele><time>2026-04-19T16:50:10.001Z</time></trkpt><trkpt lat="38.15289670024481" lon="14.82406264334707"><ele>30.0</ele><time>2026-04-19T16:50:11.001Z</time></trkpt><trkpt lat="38.15296569926852" lon="14.824004095575292"><ele>30.0</ele><time>2026-04-19T16:50:12.001Z</time></trkpt><trkpt lat="38.15303366594209" lon="14.82394517403639"><ele>30.0</ele><time>2026-04-19T16:50:13.001Z</time></trkpt><trkpt lat="38.153106418590845" lon="14.823890755841505"><ele>30.0</ele><time>2026-04-19T16:50:14.001Z</time></trkpt><trkpt lat="38.15318468217042" lon="14.823848028732835"><ele>30.0</ele><time>2026-04-19T16:50:15.001Z</time></trkpt><trkpt lat="38.153268130185346" lon="14.823813763063633"><ele>30.0</ele><time>2026-04-19T16:50:16.001Z</time></trkpt><trkpt lat="38.15335987959629" lon="14.82379569350833"><ele>28.25</ele><time>2026-04-19T16:50:17.001Z</time></trkpt><trkpt lat="38.153459360657834" lon="14.82375820888138"><ele>26.5</ele><time>2026-04-19T16:50:18.001Z</time></trkpt><trkpt lat="38.15356398839375" lon="14.823730062562033"><ele>24.75</ele><time>2026-04-19T16:50:19.001Z</time></trkpt><trkpt lat="38.15367844265104" lon="14.823706195975547"><ele>23.0</ele><time>2026-04-19T16:50:20.001Z</time></trkpt><trkpt lat="38.15380438136979" lon="14.823689333666895"><ele>23.0</ele><time>2026-04-19T16:50:21.001Z</time></trkpt><trkpt lat="38.153939995903194" lon="14.823674719426423"><ele>23.0</ele><time>2026-04-19T16:50:22.001Z</time></trkpt><trkpt lat="38.15407715384421" lon="14.823661314896524"><ele>23.0</ele><time>2026-04-19T16:50:23.001Z</time></trkpt><trkpt lat="38.15421677511606" lon="14.823649149309704"><ele>23.0</ele><time>2026-04-19T16:50:24.001Z</time></trkpt><trkpt lat="38.15435981724398" lon="14.823636099993237"><ele>22.25</ele><time>2026-04-19T16:50:25.001Z</time></trkpt><trkpt lat="38.15450634887103" lon="14.823622887880168"><ele>21.5</ele><time>2026-04-19T16:50:26.001Z</time></trkpt><trkpt lat="38.15465031511955" lon="14.823610080248388"><ele>20.75</ele><time>2026-04-19T16:50:27.001Z</time></trkpt><trkpt lat="38.154785745114786" lon="14.823599982495228"><ele>20.0</ele><time>2026-04-19T16:50:28.001Z</time></trkpt><trkpt lat="38.154916979374725" lon="14.823591161613498"><ele>19.0</ele><time>2026-04-19T16:50:29.001Z</time></trkpt><trkpt lat="38.155044151351575" lon="14.823583037268572"><ele>18.0</ele><time>2026-04-19T16:50:30.001Z</time></trkpt><trkpt lat="38.15516707207779" lon="14.823569145860944"><ele>17.0</ele><time>2026-04-19T16:50:31.001Z</time></trkpt><trkpt lat="38.15528663832616" lon="14.823555417170478"><ele>16.0</ele><time>2026-04-19T16:50:32.001Z</time></trkpt><trkpt lat="38.155399114796104" lon="14.823546315330608"><ele>16.0</ele><time>2026-04-19T16:50:33.001Z</time></trkpt><trkpt lat="38.15550924936339" lon="14.823538497195756"><ele>16.0</ele><time>2026-04-19T16:50:34.001Z</time></trkpt><trkpt lat="38.15561582410249" lon="14.82353609250882"><ele>16.0</ele><time>2026-04-19T16:50:35.001Z</time></trkpt><trkpt lat="38.155717893836695" lon="14.823536770991044"><ele>16.0</ele><time>2026-04-19T16:50:36.001Z</time></trkpt><trkpt lat="38.15581797127935" lon="14.823543936456309"><ele>16.0</ele><time>2026-04-19T16:50:36.999Z</time></trkpt><trkpt lat="38.15591647437789" lon="14.823549513581234"><ele>16.333333333333332</ele><time>2026-04-19T16:50:37.999Z</time></trkpt><trkpt lat="38.15600892708515" lon="14.823559479223553"><ele>16.666666666666664</ele><time>2026-04-19T16:50:38.999Z</time></trkpt><trkpt lat="38.15609833791282" lon="14.823571993932516"><ele>17.0</ele><time>2026-04-19T16:50:39.999Z</time></trkpt><trkpt lat="38.15618364422206" lon="14.823585558364831"><ele>17.333333333333332</ele><time>2026-04-19T16:50:40.999Z</time></trkpt><trkpt lat="38.156262502328694" lon="14.823597669740629"><ele>17.666666666666668</ele><time>2026-04-19T16:50:42Z</time></trkpt><trkpt lat="38.15633779790749" lon="14.823612071973722"><ele>18.0</ele><time>2026-04-19T16:50:43Z</time></trkpt><trkpt lat="38.15642764321726" lon="14.823628645616715"><ele>18.0</ele><time>2026-04-19T16:50:45Z</time></trkpt><trkpt lat="38.156525599152545" lon="14.82363954589583"><ele>18.0</ele><time>2026-04-19T16:50:48Z</time></trkpt><trkpt lat="38.156580287523866" lon="14.823544689329186"><ele>18.0</ele><time>2026-04-19T16:50:50Z</time></trkpt><trkpt lat="38.156590680067744" lon="14.82339627541136"><ele>18.0</ele><time>2026-04-19T16:50:52Z</time></trkpt><trkpt lat="38.15660089582378" lon="14.82329595122851"><ele>18.0</ele><time>2026-04-19T16:50:53Z</time></trkpt><trkpt lat="38.1566022667143" lon="14.823180976944524"><ele>17.5</ele><time>2026-04-19T16:50:54Z</time></trkpt><trkpt lat="38.15659914208402" lon="14.823063182006742"><ele>17.0</ele><time>2026-04-19T16:50:55Z</time></trkpt><trkpt lat="38.156594568833974" lon="14.822918460807763"><ele>16.5</ele><time>2026-04-19T16:50:56Z</time></trkpt><trkpt lat="38.15657361007817" lon="14.82274937030374"><ele>16.0</ele><time>2026-04-19T16:50:57Z</time></trkpt><trkpt lat="38.15653740310875" lon="14.822603244260872"><ele>17.25</ele><time>2026-04-19T16:50:58Z</time></trkpt><trkpt lat="38.156506556114664" lon="14.822456965475498"><ele>18.5</ele><time>2026-04-19T16:50:59Z</time></trkpt><trkpt lat="38.15645555838171" lon="14.822328287502602"><ele>19.75</ele><time>2026-04-19T16:51:00Z</time></trkpt><trkpt lat="38.15638443334102" lon="14.822216319402573"><ele>21.0</ele><time>2026-04-19T16:51:01Z</time></trkpt><trkpt lat="38.15632436961017" lon="14.822095717097383"><ele>21.0</ele><time>2026-04-19T16:51:02Z</time></trkpt><trkpt lat="38.156261660964596" lon="14.821975987866969"><ele>21.0</ele><time>2026-04-19T16:51:03Z</time></trkpt><trkpt lat="38.156195933658225" lon="14.82185575142051"><ele>21.0</ele><time>2026-04-19T16:51:04Z</time></trkpt><trkpt lat="38.156125670769946" lon="14.821725831535936"><ele>21.0</ele><time>2026-04-19T16:51:05Z</time></trkpt><trkpt lat="38.15605688269623" lon="14.821594331864578"><ele>21.75</ele><time>2026-04-19T16:51:06Z</time></trkpt><trkpt lat="38.15599238158019" lon="14.821455594112539"><ele>22.5</ele><time>2026-04-19T16:51:07Z</time></trkpt><trkpt lat="38.15594382789996" lon="14.8213104475021"><ele>23.25</ele><time>2026-04-19T16:51:08Z</time></trkpt><trkpt lat="38.15590960782344" lon="14.821156894693702"><ele>24.0</ele><time>2026-04-19T16:51:09Z</time></trkpt><trkpt lat="38.15588801582379" lon="14.82100027949833"><ele>22.75</ele><time>2026-04-19T16:51:10Z</time></trkpt><trkpt lat="38.155874210271115" lon="14.820842725784685"><ele>21.5</ele><time>2026-04-19T16:51:11Z</time></trkpt><trkpt lat="38.15585738082742" lon="14.820686560368669"><ele>20.25</ele><time>2026-04-19T16:51:12Z</time></trkpt><trkpt lat="38.15583946431044" lon="14.820530342503565"><ele>19.0</ele><time>2026-04-19T16:51:13Z</time></trkpt><trkpt lat="38.155820376749794" lon="14.820378374123507"><ele>19.0</ele><time>2026-04-19T16:51:14Z</time></trkpt><trkpt lat="38.1558024155081" lon="14.820228943154872"><ele>19.0</ele><time>2026-04-19T16:51:15Z</time></trkpt><trkpt lat="38.155781649283846" lon="14.820080666646266"><ele>19.0</ele><time>2026-04-19T16:51:16Z</time></trkpt><trkpt lat="38.155749282705685" lon="14.819940863264925"><ele>19.0</ele><time>2026-04-19T16:51:17Z</time></trkpt><trkpt lat="38.15570639949082" lon="14.819811661881896"><ele>21.4</ele><time>2026-04-19T16:51:18Z</time></trkpt><trkpt lat="38.155661706178016" lon="14.81969350621802"><ele>23.799999999999997</ele><time>2026-04-19T16:51:19Z</time></trkpt><trkpt lat="38.155623030725025" lon="14.81957664944096"><ele>26.200000000000003</ele><time>2026-04-19T16:51:20Z</time></trkpt><trkpt lat="38.15558539234083" lon="14.819463810652584"><ele>28.6</ele><time>2026-04-19T16:51:21Z</time></trkpt><trkpt lat="38.1555519302815" lon="14.81935664818545"><ele>31.0</ele><time>2026-04-19T16:51:22Z</time></trkpt><trkpt lat="38.155526490848054" lon="14.819255102995877"><ele>31.0</ele><time>2026-04-19T16:51:23Z</time></trkpt><trkpt lat="38.15551229639933" lon="14.81916437361015"><ele>31.0</ele><time>2026-04-19T16:51:24Z</time></trkpt><trkpt lat="38.15551015564728" lon="14.81908362978551"><ele>31.0</ele><time>2026-04-19T16:51:25Z</time></trkpt><trkpt lat="38.155493464408835" lon="14.818943477276878"><ele>31.0</ele><time>2026-04-19T16:51:27Z</time></trkpt><trkpt lat="38.15542414048257" lon="14.818843774462103"><ele>31.0</ele><time>2026-04-19T16:51:29Z</time></trkpt><trkpt lat="38.15534751571533" lon="14.818731936081722"><ele>31.000000000000004</ele><time>2026-04-19T16:51:31Z</time></trkpt><trkpt lat="38.15530864360387" lon="14.81865983515804"><ele>31.0</ele><time>2026-04-19T16:51:32Z</time></trkpt><trkpt lat="38.15526868190604" lon="14.818577986425126"><ele>31.0</ele><time>2026-04-19T16:51:33Z</time></trkpt><trkpt lat="38.155231139614" lon="14.818489644540264"><ele>31.0</ele><time>2026-04-19T16:51:34Z</time></trkpt><trkpt lat="38.1551959264805" lon="14.81839878717324"><ele>31.000000000000004</ele><time>2026-04-19T16:51:35Z</time></trkpt><trkpt lat="38.15516294651412" lon="14.81830381282773"><ele>31.0</ele><time>2026-04-19T16:51:36Z</time></trkpt><trkpt lat="38.155128723187154" lon="14.818209362834963"><ele>29.000000000000004</ele><time>2026-04-19T16:51:37Z</time></trkpt><trkpt lat="38.15509298872022" lon="14.818110856161955"><ele>27.0</ele><time>2026-04-19T16:51:38Z</time></trkpt><trkpt lat="38.155055880241065" lon="14.81801109620768"><ele>25.0</ele><time>2026-04-19T16:51:39Z</time></trkpt><trkpt lat="38.155021362144616" lon="14.817909061920975"><ele>23.0</ele><time>2026-04-19T16:51:40Z</time></trkpt><trkpt lat="38.154985750920304" lon="14.81781009273372"><ele>21.0</ele><time>2026-04-19T16:51:41Z</time></trkpt><trkpt lat="38.15495106507757" lon="14.817709892604762"><ele>19.0</ele><time>2026-04-19T16:51:42Z</time></trkpt><trkpt lat="38.15491319525116" lon="14.817600990858033"><ele>18.2</ele><time>2026-04-19T16:51:43Z</time></trkpt><trkpt lat="38.15487408035859" lon="14.817480088235019"><ele>17.4</ele><time>2026-04-19T16:51:44Z</time></trkpt><trkpt lat="38.154835165351145" lon="14.81736479212963"><ele>16.6</ele><time>2026-04-19T16:51:45.001Z</time></trkpt><trkpt lat="38.15479470292712" lon="14.81724547320256"><ele>15.8</ele><time>2026-04-19T16:51:46.001Z</time></trkpt><trkpt lat="38.1547507827843" lon="14.81712198115302"><ele>15.0</ele><time>2026-04-19T16:51:47.001Z</time></trkpt><trkpt lat="38.15470409607329" lon="14.816997422875465"><ele>22.25</ele><time>2026-04-19T16:51:48.001Z</time></trkpt><trkpt lat="38.15466081677395" lon="14.81686458814254"><ele>29.5</ele><time>2026-04-19T16:51:49.001Z</time></trkpt><trkpt lat="38.15462759184477" lon="14.816723712722398"><ele>36.75</ele><time>2026-04-19T16:51:50.001Z</time></trkpt><trkpt lat="38.15460151679442" lon="14.816575163153095"><ele>44.0</ele><time>2026-04-19T16:51:51.001Z</time></trkpt><trkpt lat="38.154578344192245" lon="14.816426428286894"><ele>44.0</ele><time>2026-04-19T16:51:52.001Z</time></trkpt><trkpt lat="38.154554375872344" lon="14.816277411398135"><ele>44.0</ele><time>2026-04-19T16:51:53.001Z</time></trkpt><trkpt lat="38.15453215912565" lon="14.816126396437504"><ele>44.0</ele><time>2026-04-19T16:51:54.001Z</time></trkpt><trkpt lat="38.154516592742404" lon="14.815972933585059"><ele>44.0</ele><time>2026-04-19T16:51:55.001Z</time></trkpt><trkpt lat="38.15450667719226" lon="14.815815704551477"><ele>42.5</ele><time>2026-04-19T16:51:56.001Z</time></trkpt><trkpt lat="38.15449788423156" lon="14.81565709991601"><ele>41.0</ele><time>2026-04-19T16:51:57.001Z</time></trkpt><trkpt lat="38.1544902446852" lon="14.815498350276798"><ele>39.5</ele><time>2026-04-19T16:51:58.001Z</time></trkpt><trkpt lat="38.154487062300916" lon="14.815337715284201"><ele>38.0</ele><time>2026-04-19T16:51:59.001Z</time></trkpt><trkpt lat="38.1544843471653" lon="14.815175426656563"><ele>33.0</ele><time>2026-04-19T16:52:00.001Z</time></trkpt><trkpt lat="38.154482932801486" lon="14.81501119101782"><ele>28.0</ele><time>2026-04-19T16:52:01.001Z</time></trkpt><trkpt lat="38.1544798121503" lon="14.814834510681978"><ele>23.0</ele><time>2026-04-19T16:52:02.001Z</time></trkpt><trkpt lat="38.15446728514646" lon="14.814662837371797"><ele>18.0</ele><time>2026-04-19T16:52:03.001Z</time></trkpt><trkpt lat="38.1544490867009" lon="14.814488764542968"><ele>17.0</ele><time>2026-04-19T16:52:04.001Z</time></trkpt><trkpt lat="38.15442111628011" lon="14.814312517326451"><ele>16.0</ele><time>2026-04-19T16:52:05.001Z</time></trkpt><trkpt lat="38.1543870890299" lon="14.81413632135012"><ele>15.0</ele><time>2026-04-19T16:52:06.001Z</time></trkpt><trkpt lat="38.15435300100376" lon="14.813955628044118"><ele>14.0</ele><time>2026-04-19T16:52:07.001Z</time></trkpt><trkpt lat="38.154317062638505" lon="14.813770761582216"><ele>14.0</ele><time>2026-04-19T16:52:08.001Z</time></trkpt><trkpt lat="38.15428214793483" lon="14.81358379133367"><ele>14.0</ele><time>2026-04-19T16:52:09.001Z</time></trkpt><trkpt lat="38.154247032143225" lon="14.81339369980624"><ele>14.0</ele><time>2026-04-19T16:52:10.001Z</time></trkpt><trkpt lat="38.15421061348371" lon="14.813198016445046"><ele>13.0</ele><time>2026-04-19T16:52:11.001Z</time></trkpt><trkpt lat="38.15417036481422" lon="14.813001255133942"><ele>12.0</ele><time>2026-04-19T16:52:12.001Z</time></trkpt><trkpt lat="38.15412994213463" lon="14.812806236508822"><ele>11.0</ele><time>2026-04-19T16:52:13.001Z</time></trkpt><trkpt lat="38.15409022472334" lon="14.812614028316313"><ele>10.666666666666666</ele><time>2026-04-19T16:52:14.001Z</time></trkpt><trkpt lat="38.15404294376094" lon="14.812424163800795"><ele>10.333333333333334</ele><time>2026-04-19T16:52:15.001Z</time></trkpt><trkpt lat="38.153972885280396" lon="14.812251381658502"><ele>10.0</ele><time>2026-04-19T16:52:16.001Z</time></trkpt><trkpt lat="38.153890271759565" lon="14.81208887593903"><ele>12.666666666666668</ele><time>2026-04-19T16:52:17.001Z</time></trkpt><trkpt lat="38.1537910207768" lon="14.811941225168988"><ele>15.333333333333334</ele><time>2026-04-19T16:52:18.001Z</time></trkpt><trkpt lat="38.153682149752015" lon="14.811806795260964"><ele>18.0</ele><time>2026-04-19T16:52:19.001Z</time></trkpt><trkpt lat="38.1535655261126" lon="14.811682343202353"><ele>18.0</ele><time>2026-04-19T16:52:20.001Z</time></trkpt><trkpt lat="38.15344893514871" lon="14.811558753173543"><ele>18.0</ele><time>2026-04-19T16:52:21.001Z</time></trkpt><trkpt lat="38.153333150682464" lon="14.81144011224689"><ele>18.0</ele><time>2026-04-19T16:52:22.001Z</time></trkpt><trkpt lat="38.15321949445213" lon="14.811318106630521"><ele>18.0</ele><time>2026-04-19T16:52:23.001Z</time></trkpt><trkpt lat="38.15310998652998" lon="14.811193120087434"><ele>23.5</ele><time>2026-04-19T16:52:24.001Z</time></trkpt><trkpt lat="38.1530051067909" lon="14.811064078479932"><ele>29.0</ele><time>2026-04-19T16:52:25.001Z</time></trkpt><trkpt lat="38.15290757387632" lon="14.810925696525741"><ele>34.5</ele><time>2026-04-19T16:52:26.001Z</time></trkpt><trkpt lat="38.15282173331309" lon="14.810781104412172"><ele>40.0</ele><time>2026-04-19T16:52:27.001Z</time></trkpt><trkpt lat="38.15275245858666" lon="14.81064565895535"><ele>40.0</ele><time>2026-04-19T16:52:28.001Z</time></trkpt><trkpt lat="38.15269503155888" lon="14.810528185480116"><ele>40.0</ele><time>2026-04-19T16:52:29.001Z</time></trkpt><trkpt lat="38.1526360912453" lon="14.81041873939187"><ele>40.0</ele><time>2026-04-19T16:52:30.001Z</time></trkpt><trkpt lat="38.1525796979136" lon="14.810310347993221"><ele>40.0</ele><time>2026-04-19T16:52:31.001Z</time></trkpt><trkpt lat="38.15252604964954" lon="14.810195259951103"><ele>40.0</ele><time>2026-04-19T16:52:32.001Z</time></trkpt><trkpt lat="38.15246982867208" lon="14.810076639130777"><ele>34.0</ele><time>2026-04-19T16:52:33.001Z</time></trkpt><trkpt lat="38.15240552332752" lon="14.809943333187524"><ele>28.0</ele><time>2026-04-19T16:52:34.001Z</time></trkpt><trkpt lat="38.15233787963505" lon="14.809804004635502"><ele>22.0</ele><time>2026-04-19T16:52:35.001Z</time></trkpt><trkpt lat="38.1522657011461" lon="14.809650301139396"><ele>16.0</ele><time>2026-04-19T16:52:36.001Z</time></trkpt><trkpt lat="38.15219317508738" lon="14.809485880509632"><ele>23.0</ele><time>2026-04-19T16:52:37.001Z</time></trkpt><trkpt lat="38.15212645133618" lon="14.809326415149636"><ele>30.0</ele><time>2026-04-19T16:52:38.001Z</time></trkpt><trkpt lat="38.15206175601622" lon="14.809166296418544"><ele>37.0</ele><time>2026-04-19T16:52:39.001Z</time></trkpt><trkpt lat="38.15199788175116" lon="14.809005655741734"><ele>44.0</ele><time>2026-04-19T16:52:40.001Z</time></trkpt><trkpt lat="38.1519324438678" lon="14.808844979120652"><ele>44.0</ele><time>2026-04-19T16:52:41.001Z</time></trkpt><trkpt lat="38.151863420265194" lon="14.808680746059835"><ele>44.0</ele><time>2026-04-19T16:52:42.001Z</time></trkpt><trkpt lat="38.151794765595035" lon="14.8085134255815"><ele>44.0</ele><time>2026-04-19T16:52:43Z</time></trkpt><trkpt lat="38.15172377782333" lon="14.808344084929345"><ele>44.0</ele><time>2026-04-19T16:52:44Z</time></trkpt><trkpt lat="38.151654304191936" lon="14.808174433968949"><ele>44.0</ele><time>2026-04-19T16:52:45Z</time></trkpt><trkpt lat="38.15158697423428" lon="14.808007956662413"><ele>44.0</ele><time>2026-04-19T16:52:46Z</time></trkpt><trkpt lat="38.15152182680784" lon="14.807846202075787"><ele>44.0</ele><time>2026-04-19T16:52:47Z</time></trkpt><trkpt lat="38.1514575216665" lon="14.807689972690264"><ele>44.0</ele><time>2026-04-19T16:52:48Z</time></trkpt><trkpt lat="38.151397579256916" lon="14.807538167790424"><ele>44.0</ele><time>2026-04-19T16:52:49Z</time></trkpt><trkpt lat="38.151339427011656" lon="14.80738863797886"><ele>44.0</ele><time>2026-04-19T16:52:50Z</time></trkpt><trkpt lat="38.15127712940741" lon="14.80724802465904"><ele>44.0</ele><time>2026-04-19T16:52:51Z</time></trkpt><trkpt lat="38.151205837942165" lon="14.807116069632851"><ele>44.0</ele><time>2026-04-19T16:52:52Z</time></trkpt><trkpt lat="38.15113138472625" lon="14.806977985768112"><ele>44.0</ele><time>2026-04-19T16:52:53Z</time></trkpt><trkpt lat="38.15104025526531" lon="14.806859210327033"><ele>44.0</ele><time>2026-04-19T16:52:54Z</time></trkpt><trkpt lat="38.15094061303296" lon="14.806754418966863"><ele>44.0</ele><time>2026-04-19T16:52:55Z</time></trkpt><trkpt lat="38.15085556800567" lon="14.806631648573639"><ele>44.0</ele><time>2026-04-19T16:52:56Z</time></trkpt><trkpt lat="38.15076514607379" lon="14.806525578579315"><ele>43.5</ele><time>2026-04-19T16:52:57Z</time></trkpt><trkpt lat="38.15067908745434" lon="14.806425457306968"><ele>43.0</ele><time>2026-04-19T16:52:58Z</time></trkpt><trkpt lat="38.15058599142456" lon="14.806328228584482"><ele>42.5</ele><time>2026-04-19T16:52:59Z</time></trkpt><trkpt lat="38.1504911835081" lon="14.806245463604807"><ele>42.0</ele><time>2026-04-19T16:53:00Z</time></trkpt><trkpt lat="38.150397990271735" lon="14.806177991656282"><ele>42.0</ele><time>2026-04-19T16:53:01Z</time></trkpt><trkpt lat="38.150304999379344" lon="14.806120673264212"><ele>42.0</ele><time>2026-04-19T16:53:02Z</time></trkpt><trkpt lat="38.1502148265274" lon="14.806075624140123"><ele>42.0</ele><time>2026-04-19T16:53:03Z</time></trkpt><trkpt lat="38.15012996843262" lon="14.806033515440605"><ele>42.0</ele><time>2026-04-19T16:53:04Z</time></trkpt><trkpt lat="38.150049590216554" lon="14.805994720022252"><ele>42.0</ele><time>2026-04-19T16:53:05Z</time></trkpt><trkpt lat="38.149970120897564" lon="14.805955732476061"><ele>39.666666666666664</ele><time>2026-04-19T16:53:06Z</time></trkpt><trkpt lat="38.14989422199384" lon="14.805912662798969"><ele>37.333333333333336</ele><time>2026-04-19T16:53:07Z</time></trkpt><trkpt lat="38.149821937643146" lon="14.805867915414893"><ele>35.0</ele><time>2026-04-19T16:53:08Z</time></trkpt><trkpt lat="38.149752369937744" lon="14.805816883811254"><ele>32.66666666666667</ele><time>2026-04-19T16:53:09Z</time></trkpt><trkpt lat="38.149696667619956" lon="14.805743440640569"><ele>30.333333333333336</ele><time>2026-04-19T16:53:10Z</time></trkpt><trkpt lat="38.149652470357694" lon="14.805655731528743"><ele>28.0</ele><time>2026-04-19T16:53:11Z</time></trkpt><trkpt lat="38.149615950622234" lon="14.805551906612143"><ele>28.0</ele><time>2026-04-19T16:53:12Z</time></trkpt><trkpt lat="38.149586717932884" lon="14.805433456336331"><ele>27.999999999999996</ele><time>2026-04-19T16:53:13Z</time></trkpt><trkpt lat="38.1495609769364" lon="14.805306114951629"><ele>27.999999999999996</ele><time>2026-04-19T16:53:14Z</time></trkpt><trkpt lat="38.14953604873671" lon="14.805175390664418"><ele>28.0</ele><time>2026-04-19T16:53:15Z</time></trkpt><trkpt lat="38.14950668039168" lon="14.805036952542906"><ele>28.0</ele><time>2026-04-19T16:53:16Z</time></trkpt><trkpt lat="38.14947740131006" lon="14.804897743067613"><ele>25.0</ele><time>2026-04-19T16:53:17Z</time></trkpt><trkpt lat="38.149446164824866" lon="14.804754398328262"><ele>22.0</ele><time>2026-04-19T16:53:18Z</time></trkpt><trkpt lat="38.1494130901647" lon="14.804608005448676"><ele>19.0</ele><time>2026-04-19T16:53:19Z</time></trkpt><trkpt lat="38.14938254130203" lon="14.804460005948373"><ele>16.0</ele><time>2026-04-19T16:53:20Z</time></trkpt><trkpt lat="38.14935026572712" lon="14.804311272985107"><ele>15.25</ele><time>2026-04-19T16:53:21Z</time></trkpt><trkpt lat="38.1493198214492" lon="14.804163649967522"><ele>14.5</ele><time>2026-04-19T16:53:22Z</time></trkpt><trkpt lat="38.14928888116459" lon="14.804014632396372"><ele>13.75</ele><time>2026-04-19T16:53:23Z</time></trkpt><trkpt lat="38.14925428289889" lon="14.80386240782065"><ele>13.0</ele><time>2026-04-19T16:53:24Z</time></trkpt><trkpt lat="38.14922227266067" lon="14.803715868940166"><ele>13.0</ele><time>2026-04-19T16:53:25Z</time></trkpt><trkpt lat="38.14919102286025" lon="14.803561072572391"><ele>13.0</ele><time>2026-04-19T16:53:26Z</time></trkpt><trkpt lat="38.1491593272682" lon="14.803410914324203"><ele>13.0</ele><time>2026-04-19T16:53:27Z</time></trkpt><trkpt lat="38.1491275304502" lon="14.803262701010832"><ele>13.0</ele><time>2026-04-19T16:53:28Z</time></trkpt><trkpt lat="38.14909130020202" lon="14.803111725538209"><ele>13.0</ele><time>2026-04-19T16:53:29Z</time></trkpt><trkpt lat="38.14906074026617" lon="14.80295914145134"><ele>13.0</ele><time>2026-04-19T16:53:30Z</time></trkpt><trkpt lat="38.14903251489985" lon="14.802805807934671"><ele>13.0</ele><time>2026-04-19T16:53:31Z</time></trkpt><trkpt lat="38.149003616618586" lon="14.802657008216167"><ele>13.0</ele><time>2026-04-19T16:53:32Z</time></trkpt><trkpt lat="38.14897502953437" lon="14.802515211464833"><ele>12.8</ele><time>2026-04-19T16:53:33Z</time></trkpt><trkpt lat="38.14894518396509" lon="14.80237499639217"><ele>12.600000000000001</ele><time>2026-04-19T16:53:34Z</time></trkpt><trkpt lat="38.14891272979411" lon="14.80223531817035"><ele>12.399999999999999</ele><time>2026-04-19T16:53:35Z</time></trkpt><trkpt lat="38.14888555470502" lon="14.8021043354716"><ele>12.2</ele><time>2026-04-19T16:53:36Z</time></trkpt><trkpt lat="38.14886050611477" lon="14.801982743695357"><ele>12.0</ele><time>2026-04-19T16:53:37Z</time></trkpt><trkpt lat="38.14883568900605" lon="14.80186644495269"><ele>12.666666666666666</ele><time>2026-04-19T16:53:38Z</time></trkpt><trkpt lat="38.148812758390726" lon="14.801759411749913"><ele>13.333333333333332</ele><time>2026-04-19T16:53:39Z</time></trkpt><trkpt lat="38.14879249360564" lon="14.801666193265316"><ele>14.0</ele><time>2026-04-19T16:53:40.001Z</time></trkpt><trkpt lat="38.14876571532693" lon="14.801540828738922"><ele>14.666666666666666</ele><time>2026-04-19T16:53:42.001Z</time></trkpt><trkpt lat="38.148744151029945" lon="14.80143964750517"><ele>15.333333333333332</ele><time>2026-04-19T16:53:45.001Z</time></trkpt><trkpt lat="38.14872196252262" lon="14.801359408005217"><ele>16.0</ele><time>2026-04-19T16:53:48.001Z</time></trkpt><trkpt lat="38.14853909814192" lon="14.801452307371678"><ele>16.0</ele><time>2026-04-19T16:53:50.001Z</time></trkpt><trkpt lat="38.148476749690175" lon="14.801506551036788"><ele>16.0</ele><time>2026-04-19T16:53:51.001Z</time></trkpt><trkpt lat="38.148400372876104" lon="14.801567457679525"><ele>16.0</ele><time>2026-04-19T16:53:52.001Z</time></trkpt><trkpt lat="38.14830527229355" lon="14.801603320968127"><ele>16.0</ele><time>2026-04-19T16:53:53.001Z</time></trkpt><trkpt lat="38.148198602398615" lon="14.801637485768548"><ele>16.0</ele><time>2026-04-19T16:53:54.001Z</time></trkpt><trkpt lat="38.14807636196398" lon="14.801674828414821"><ele>15.75</ele><time>2026-04-19T16:53:55.001Z</time></trkpt><trkpt lat="38.147930937179716" lon="14.80171925353747"><ele>15.5</ele><time>2026-04-19T16:53:56.001Z</time></trkpt><trkpt lat="38.14779718986452" lon="14.801782589091788"><ele>15.25</ele><time>2026-04-19T16:53:57.001Z</time></trkpt><trkpt lat="38.14764756465077" lon="14.801825886939794"><ele>15.0</ele><time>2026-04-19T16:53:58.001Z</time></trkpt><trkpt lat="38.147491100514486" lon="14.801876349710488"><ele>15.666666666666668</ele><time>2026-04-19T16:53:59.001Z</time></trkpt><trkpt lat="38.14732585492503" lon="14.801908063349767"><ele>16.333333333333336</ele><time>2026-04-19T16:54:00.001Z</time></trkpt><trkpt lat="38.14717012958647" lon="14.80198020877604"><ele>17.0</ele><time>2026-04-19T16:54:01.001Z</time></trkpt><trkpt lat="38.14701186123386" lon="14.802029243537845"><ele>17.0</ele><time>2026-04-19T16:54:02.001Z</time></trkpt><trkpt lat="38.146839855462794" lon="14.80208145893456"><ele>17.0</ele><time>2026-04-19T16:54:03.001Z</time></trkpt><trkpt lat="38.14666974788704" lon="14.802127816034208"><ele>17.0</ele><time>2026-04-19T16:54:04.001Z</time></trkpt><trkpt lat="38.146497297753605" lon="14.802179176954327"><ele>17.0</ele><time>2026-04-19T16:54:05.001Z</time></trkpt><trkpt lat="38.146312147444156" lon="14.802243599672911"><ele>17.0</ele><time>2026-04-19T16:54:06.001Z</time></trkpt><trkpt lat="38.14612595779779" lon="14.802308538566546"><ele>17.0</ele><time>2026-04-19T16:54:07.001Z</time></trkpt><trkpt lat="38.14593650354" lon="14.802368095857576"><ele>17.0</ele><time>2026-04-19T16:54:08.001Z</time></trkpt><trkpt lat="38.14574292065882" lon="14.802428719389766"><ele>17.0</ele><time>2026-04-19T16:54:09.001Z</time></trkpt><trkpt lat="38.145549003366284" lon="14.802487484734597"><ele>17.0</ele><time>2026-04-19T16:54:10.001Z</time></trkpt><trkpt lat="38.14536239879915" lon="14.802544975626091"><ele>17.666666666666668</ele><time>2026-04-19T16:54:11.001Z</time></trkpt><trkpt lat="38.14518053799576" lon="14.802598706164591"><ele>18.333333333333332</ele><time>2026-04-19T16:54:12.001Z</time></trkpt><trkpt lat="38.14500630885813" lon="14.802656269177774"><ele>19.0</ele><time>2026-04-19T16:54:13.001Z</time></trkpt><trkpt lat="38.14482634068271" lon="14.8027083454599"><ele>19.333333333333332</ele><time>2026-04-19T16:54:14.001Z</time></trkpt><trkpt lat="38.14465250627217" lon="14.802754181755207"><ele>19.666666666666668</ele><time>2026-04-19T16:54:15.001Z</time></trkpt><trkpt lat="38.14447554949434" lon="14.802812504672659"><ele>20.0</ele><time>2026-04-19T16:54:16.001Z</time></trkpt><trkpt lat="38.14430556834592" lon="14.802858195131014"><ele>20.0</ele><time>2026-04-19T16:54:17.001Z</time></trkpt><trkpt lat="38.14413370146437" lon="14.802896916665418"><ele>20.0</ele><time>2026-04-19T16:54:18.001Z</time></trkpt><trkpt lat="38.143957403510086" lon="14.802935993271863"><ele>20.0</ele><time>2026-04-19T16:54:19.001Z</time></trkpt><trkpt lat="38.14377008667178" lon="14.802981406421399"><ele>21.0</ele><time>2026-04-19T16:54:20.001Z</time></trkpt><trkpt lat="38.14356930616207" lon="14.80303375895774"><ele>22.0</ele><time>2026-04-19T16:54:21.001Z</time></trkpt><trkpt lat="38.14335232367236" lon="14.803086475995293"><ele>23.0</ele><time>2026-04-19T16:54:22.001Z</time></trkpt><trkpt lat="38.143122457641915" lon="14.803141273079968"><ele>23.0</ele><time>2026-04-19T16:54:23.001Z</time></trkpt><trkpt lat="38.14287493507746" lon="14.80320137169538"><ele>23.0</ele><time>2026-04-19T16:54:24.001Z</time></trkpt><trkpt lat="38.14261294712125" lon="14.80326747132041"><ele>25.5</ele><time>2026-04-19T16:54:25.001Z</time></trkpt><trkpt lat="38.14233286773863" lon="14.803341076082653"><ele>28.0</ele><time>2026-04-19T16:54:26.001Z</time></trkpt><trkpt lat="38.14205149103852" lon="14.803411336973827"><ele>28.0</ele><time>2026-04-19T16:54:27.001Z</time></trkpt><trkpt lat="38.14178392928675" lon="14.803480971347856"><ele>28.0</ele><time>2026-04-19T16:54:28.001Z</time></trkpt><trkpt lat="38.14150528940796" lon="14.803531029511273"><ele>27.5</ele><time>2026-04-19T16:54:29.001Z</time></trkpt><trkpt lat="38.141233490152864" lon="14.803616694828838"><ele>27.0</ele><time>2026-04-19T16:54:30.001Z</time></trkpt><trkpt lat="38.140964545650164" lon="14.803656481659157"><ele>27.5</ele><time>2026-04-19T16:54:31.001Z</time></trkpt><trkpt lat="38.140716053101826" lon="14.803697205513062"><ele>28.0</ele><time>2026-04-19T16:54:32.001Z</time></trkpt><trkpt lat="38.14048219395653" lon="14.803731833121436"><ele>28.0</ele><time>2026-04-19T16:54:33.001Z</time></trkpt><trkpt lat="38.14025539929435" lon="14.803765903881583"><ele>28.0</ele><time>2026-04-19T16:54:34.001Z</time></trkpt><trkpt lat="38.140042533864964" lon="14.803794538014348"><ele>28.0</ele><time>2026-04-19T16:54:35.001Z</time></trkpt><trkpt lat="38.13984081483609" lon="14.803821806539709"><ele>28.333333333333336</ele><time>2026-04-19T16:54:36.001Z</time></trkpt><trkpt lat="38.139647719624506" lon="14.80384868289807"><ele>28.666666666666664</ele><time>2026-04-19T16:54:37.001Z</time></trkpt><trkpt lat="38.13946799755854" lon="14.803873697885253"><ele>29.0</ele><time>2026-04-19T16:54:38.001Z</time></trkpt><trkpt lat="38.139290396984144" lon="14.803898417589142"><ele>29.0</ele><time>2026-04-19T16:54:39.001Z</time></trkpt><trkpt lat="38.13912364444198" lon="14.803921628789881"><ele>29.0</ele><time>2026-04-19T16:54:40.001Z</time></trkpt><trkpt lat="38.13896817610197" lon="14.803963100247397"><ele>29.0</ele><time>2026-04-19T16:54:41.001Z</time></trkpt><trkpt lat="38.13881379261662" lon="14.803964575889081"><ele>28.0</ele><time>2026-04-19T16:54:42.001Z</time></trkpt><trkpt lat="38.13866366711296" lon="14.803985375647853"><ele>27.0</ele><time>2026-04-19T16:54:43.001Z</time></trkpt><trkpt lat="38.13850023144486" lon="14.804008019517694"><ele>26.0</ele><time>2026-04-19T16:54:44.001Z</time></trkpt><trkpt lat="38.1383166226943" lon="14.804033458354509"><ele>27.0</ele><time>2026-04-19T16:54:45.001Z</time></trkpt><trkpt lat="38.13811400943023" lon="14.804061611172534"><ele>28.0</ele><time>2026-04-19T16:54:46.001Z</time></trkpt><trkpt lat="38.13788929340677" lon="14.804093280837607"><ele>29.0</ele><time>2026-04-19T16:54:47.001Z</time></trkpt><trkpt lat="38.137664652774255" lon="14.804125408313578"><ele>29.0</ele><time>2026-04-19T16:54:48.001Z</time></trkpt><trkpt lat="38.137432663973506" lon="14.804159236663924"><ele>29.0</ele><time>2026-04-19T16:54:49Z</time></trkpt><trkpt lat="38.13718584584875" lon="14.804191021675582"><ele>31.0</ele><time>2026-04-19T16:54:50Z</time></trkpt><trkpt lat="38.13694134303242" lon="14.804225592777213"><ele>33.0</ele><time>2026-04-19T16:54:51Z</time></trkpt><trkpt lat="38.13670157070766" lon="14.804258433437457"><ele>33.0</ele><time>2026-04-19T16:54:52Z</time></trkpt><trkpt lat="38.13645848103109" lon="14.804291176809405"><ele>33.0</ele><time>2026-04-19T16:54:53Z</time></trkpt><trkpt lat="38.136213345164684" lon="14.80432594088389"><ele>32.5</ele><time>2026-04-19T16:54:54Z</time></trkpt><trkpt lat="38.13595844333244" lon="14.80436208992444"><ele>32.0</ele><time>2026-04-19T16:54:55Z</time></trkpt><trkpt lat="38.13571476737103" lon="14.80439559847112"><ele>33.5</ele><time>2026-04-19T16:54:56Z</time></trkpt><trkpt lat="38.13548316942165" lon="14.80442743047677"><ele>35.0</ele><time>2026-04-19T16:54:57Z</time></trkpt><trkpt lat="38.13526203928669" lon="14.804464124435905"><ele>35.0</ele><time>2026-04-19T16:54:58Z</time></trkpt><trkpt lat="38.1350381749035" lon="14.804507591955481"><ele>35.0</ele><time>2026-04-19T16:54:59Z</time></trkpt><trkpt lat="38.13479800771132" lon="14.804554168289314"><ele>35.0</ele><time>2026-04-19T16:55:00Z</time></trkpt><trkpt lat="38.13454409270872" lon="14.804600668389236"><ele>35.0</ele><time>2026-04-19T16:55:01Z</time></trkpt><trkpt lat="38.134279959675936" lon="14.804649039785161"><ele>35.5</ele><time>2026-04-19T16:55:02Z</time></trkpt><trkpt lat="38.13401649296132" lon="14.804718069467121"><ele>36.0</ele><time>2026-04-19T16:55:03Z</time></trkpt><trkpt lat="38.13375752969681" lon="14.804766846428398"><ele>36.0</ele><time>2026-04-19T16:55:04Z</time></trkpt><trkpt lat="38.13351491116514" lon="14.804809355241385"><ele>36.0</ele><time>2026-04-19T16:55:05Z</time></trkpt><trkpt lat="38.133273351564156" lon="14.804852839084568"><ele>37.0</ele><time>2026-04-19T16:55:06Z</time></trkpt><trkpt lat="38.133039959923856" lon="14.80489446480276"><ele>38.0</ele><time>2026-04-19T16:55:07Z</time></trkpt><trkpt lat="38.132809138215165" lon="14.804934749489497"><ele>38.0</ele><time>2026-04-19T16:55:08Z</time></trkpt><trkpt lat="38.13258396813768" lon="14.804977848890257"><ele>38.0</ele><time>2026-04-19T16:55:09Z</time></trkpt><trkpt lat="38.13235626357957" lon="14.805018689367857"><ele>39.0</ele><time>2026-04-19T16:55:10Z</time></trkpt><trkpt lat="38.13212948267436" lon="14.80505246793484"><ele>40.0</ele><time>2026-04-19T16:55:11Z</time></trkpt><trkpt lat="38.13190710144347" lon="14.805074625724004"><ele>40.0</ele><time>2026-04-19T16:55:12Z</time></trkpt><trkpt lat="38.13169843498927" lon="14.805086875103283"><ele>40.0</ele><time>2026-04-19T16:55:13Z</time></trkpt><trkpt lat="38.131500019144134" lon="14.805097466558989"><ele>40.0</ele><time>2026-04-19T16:55:14Z</time></trkpt><trkpt lat="38.13130063214722" lon="14.805104211214259"><ele>40.0</ele><time>2026-04-19T16:55:15Z</time></trkpt><trkpt lat="38.131089118937" lon="14.805099223757225"><ele>40.0</ele><time>2026-04-19T16:55:16Z</time></trkpt><trkpt lat="38.130871222134466" lon="14.80508193540983"><ele>40.0</ele><time>2026-04-19T16:55:17Z</time></trkpt><trkpt lat="38.13064923261839" lon="14.805047241357546"><ele>40.0</ele><time>2026-04-19T16:55:18Z</time></trkpt><trkpt lat="38.130425983904615" lon="14.80499833752574"><ele>40.0</ele><time>2026-04-19T16:55:19Z</time></trkpt><trkpt lat="38.13020332680807" lon="14.8049321603671"><ele>40.0</ele><time>2026-04-19T16:55:20Z</time></trkpt><trkpt lat="38.1299789849869" lon="14.80484964893267"><ele>40.0</ele><time>2026-04-19T16:55:21Z</time></trkpt><trkpt lat="38.12975557450475" lon="14.804740736347718"><ele>41.0</ele><time>2026-04-19T16:55:22Z</time></trkpt><trkpt lat="38.12952724617643" lon="14.804615680758436"><ele>42.0</ele><time>2026-04-19T16:55:23Z</time></trkpt><trkpt lat="38.1292910501889" lon="14.804474130759585"><ele>42.0</ele><time>2026-04-19T16:55:24Z</time></trkpt><trkpt lat="38.129050758831184" lon="14.804327388968904"><ele>42.0</ele><time>2026-04-19T16:55:25Z</time></trkpt><trkpt lat="38.12880978430523" lon="14.804161584595745"><ele>42.0</ele><time>2026-04-19T16:55:26Z</time></trkpt><trkpt lat="38.12859126753235" lon="14.803999203096943"><ele>42.0</ele><time>2026-04-19T16:55:27Z</time></trkpt><trkpt lat="38.12838338403443" lon="14.803857917885733"><ele>43.666666666666664</ele><time>2026-04-19T16:55:28Z</time></trkpt><trkpt lat="38.128181368985544" lon="14.803742607154915"><ele>45.33333333333333</ele><time>2026-04-19T16:55:29Z</time></trkpt><trkpt lat="38.12797587010266" lon="14.803633149977498"><ele>47.0</ele><time>2026-04-19T16:55:30Z</time></trkpt><trkpt lat="38.12778248471429" lon="14.803530005812911"><ele>47.33333333333333</ele><time>2026-04-19T16:55:31Z</time></trkpt><trkpt lat="38.12758549396981" lon="14.803432619564196"><ele>47.666666666666664</ele><time>2026-04-19T16:55:32Z</time></trkpt><trkpt lat="38.12739074386765" lon="14.80335664613752"><ele>48.0</ele><time>2026-04-19T16:55:33Z</time></trkpt><trkpt lat="38.127203038180475" lon="14.803297083683534"><ele>48.33333333333333</ele><time>2026-04-19T16:55:34.001Z</time></trkpt><trkpt lat="38.12702123341971" lon="14.803267786239145"><ele>48.666666666666664</ele><time>2026-04-19T16:55:35.001Z</time></trkpt><trkpt lat="38.12684552541724" lon="14.803282902627554"><ele>49.0</ele><time>2026-04-19T16:55:36.001Z</time></trkpt><trkpt lat="38.12668167851622" lon="14.803337201123025"><ele>48.33333333333333</ele><time>2026-04-19T16:55:37.001Z</time></trkpt><trkpt lat="38.126534842137104" lon="14.803426066404164"><ele>47.666666666666664</ele><time>2026-04-19T16:55:38.001Z</time></trkpt><trkpt lat="38.1264028154353" lon="14.803528213728102"><ele>47.0</ele><time>2026-04-19T16:55:39.001Z</time></trkpt><trkpt lat="38.126255774611025" lon="14.8036347024629"><ele>47.0</ele><time>2026-04-19T16:55:40.001Z</time></trkpt><trkpt lat="38.126091444486114" lon="14.803749638585275"><ele>47.0</ele><time>2026-04-19T16:55:41.001Z</time></trkpt><trkpt lat="38.12591412106386" lon="14.803873132774454"><ele>47.0</ele><time>2026-04-19T16:55:42.001Z</time></trkpt><trkpt lat="38.125723200516646" lon="14.80400637259447"><ele>49.5</ele><time>2026-04-19T16:55:43.001Z</time></trkpt><trkpt lat="38.125528484512934" lon="14.80414962666679"><ele>52.0</ele><time>2026-04-19T16:55:44.001Z</time></trkpt><trkpt lat="38.12532657088851" lon="14.804295935277962"><ele>52.0</ele><time>2026-04-19T16:55:45.001Z</time></trkpt><trkpt lat="38.125099139295216" lon="14.804459576251958"><ele>52.0</ele><time>2026-04-19T16:55:46.001Z</time></trkpt><trkpt lat="38.12485321195217" lon="14.804629351679921"><ele>52.0</ele><time>2026-04-19T16:55:47.001Z</time></trkpt><trkpt lat="38.12461196861483" lon="14.804797051877943"><ele>52.0</ele><time>2026-04-19T16:55:48.001Z</time></trkpt><trkpt lat="38.124364003617934" lon="14.804951420593136"><ele>52.0</ele><time>2026-04-19T16:55:49.001Z</time></trkpt><trkpt lat="38.12411499706257" lon="14.805111901442382"><ele>52.0</ele><time>2026-04-19T16:55:50.001Z</time></trkpt><trkpt lat="38.12388334214642" lon="14.805266627653314"><ele>51.5</ele><time>2026-04-19T16:55:51.001Z</time></trkpt><trkpt lat="38.12364530737506" lon="14.805423804664922"><ele>51.0</ele><time>2026-04-19T16:55:52.001Z</time></trkpt><trkpt lat="38.12341214601104" lon="14.805591200776027"><ele>53.5</ele><time>2026-04-19T16:55:53.001Z</time></trkpt><trkpt lat="38.12317550308118" lon="14.805756287678525"><ele>56.0</ele><time>2026-04-19T16:55:54.001Z</time></trkpt><trkpt lat="38.12293504913289" lon="14.805919110022908"><ele>55.0</ele><time>2026-04-19T16:55:55.001Z</time></trkpt><trkpt lat="38.122690341331186" lon="14.806082802383798"><ele>54.0</ele><time>2026-04-19T16:55:56.001Z</time></trkpt><trkpt lat="38.122432871526605" lon="14.806254792829318"><ele>56.0</ele><time>2026-04-19T16:55:57.001Z</time></trkpt><trkpt lat="38.122162359524665" lon="14.8064354537098"><ele>58.0</ele><time>2026-04-19T16:55:58.001Z</time></trkpt><trkpt lat="38.12188702498857" lon="14.806625893654687"><ele>58.0</ele><time>2026-04-19T16:55:59.001Z</time></trkpt><trkpt lat="38.121625008686266" lon="14.80681196208323"><ele>58.0</ele><time>2026-04-19T16:56:00.001Z</time></trkpt><trkpt lat="38.12137776988168" lon="14.806978856746715"><ele>59.0</ele><time>2026-04-19T16:56:01.001Z</time></trkpt><trkpt lat="38.12115883913038" lon="14.80713455902808"><ele>60.0</ele><time>2026-04-19T16:56:02.001Z</time></trkpt><trkpt lat="38.12094178509169" lon="14.80726921334888"><ele>60.0</ele><time>2026-04-19T16:56:03.001Z</time></trkpt><trkpt lat="38.12072502726003" lon="14.807388981351329"><ele>60.0</ele><time>2026-04-19T16:56:04.001Z</time></trkpt><trkpt lat="38.12051582041601" lon="14.8074462787772"><ele>60.0</ele><time>2026-04-19T16:56:05.001Z</time></trkpt><trkpt lat="38.12029902520976" lon="14.807482292789079"><ele>60.0</ele><time>2026-04-19T16:56:06.001Z</time></trkpt><trkpt lat="38.12007099160619" lon="14.807506222897086"><ele>60.0</ele><time>2026-04-19T16:56:07.001Z</time></trkpt><trkpt lat="38.119844990962136" lon="14.807516103914674"><ele>60.0</ele><time>2026-04-19T16:56:08.001Z</time></trkpt><trkpt lat="38.11961931045467" lon="14.807503627521948"><ele>60.0</ele><time>2026-04-19T16:56:09.001Z</time></trkpt><trkpt lat="38.119395391023474" lon="14.807430110076481"><ele>60.0</ele><time>2026-04-19T16:56:10.001Z</time></trkpt><trkpt lat="38.11916242881603" lon="14.807365818798754"><ele>60.0</ele><time>2026-04-19T16:56:11.001Z</time></trkpt><trkpt lat="38.11892354238898" lon="14.807314170734061"><ele>62.0</ele><time>2026-04-19T16:56:12.001Z</time></trkpt><trkpt lat="38.11867410832176" lon="14.807244301518404"><ele>64.0</ele><time>2026-04-19T16:56:13.001Z</time></trkpt><trkpt lat="38.11841872588485" lon="14.807160253968442"><ele>68.0</ele><time>2026-04-19T16:56:14.001Z</time></trkpt><trkpt lat="38.11816068059909" lon="14.807055651616245"><ele>72.0</ele><time>2026-04-19T16:56:15.001Z</time></trkpt><trkpt lat="38.11789708660759" lon="14.806949002788512"><ele>72.0</ele><time>2026-04-19T16:56:16.001Z</time></trkpt><trkpt lat="38.1176312751552" lon="14.806836851953825"><ele>72.0</ele><time>2026-04-19T16:56:17.001Z</time></trkpt><trkpt lat="38.11734626200653" lon="14.806728834423943"><ele>69.0</ele><time>2026-04-19T16:56:18.001Z</time></trkpt><trkpt lat="38.11704610499179" lon="14.806618269321575"><ele>66.0</ele><time>2026-04-19T16:56:19.001Z</time></trkpt><trkpt lat="38.11675344762917" lon="14.80649679857728"><ele>65.5</ele><time>2026-04-19T16:56:20.001Z</time></trkpt><trkpt lat="38.116484689976794" lon="14.806398841405034"><ele>65.0</ele><time>2026-04-19T16:56:21.001Z</time></trkpt><trkpt lat="38.11623435407112" lon="14.806305077076829"><ele>65.0</ele><time>2026-04-19T16:56:22.001Z</time></trkpt><trkpt lat="38.11600857010071" lon="14.806203273519653"><ele>65.0</ele><time>2026-04-19T16:56:23.001Z</time></trkpt><trkpt lat="38.11579873240822" lon="14.806075531420746"><ele>66.66666666666667</ele><time>2026-04-19T16:56:24.001Z</time></trkpt><trkpt lat="38.11560267489002" lon="14.805937877851758"><ele>68.33333333333333</ele><time>2026-04-19T16:56:25.001Z</time></trkpt><trkpt lat="38.11540786833378" lon="14.805796204946757"><ele>70.0</ele><time>2026-04-19T16:56:26.001Z</time></trkpt><trkpt lat="38.11524136609882" lon="14.805597681088521"><ele>70.0</ele><time>2026-04-19T16:56:27.001Z</time></trkpt><trkpt lat="38.11506213932848" lon="14.805401158920555"><ele>70.0</ele><time>2026-04-19T16:56:28.001Z</time></trkpt><trkpt lat="38.11486712397111" lon="14.805210404361151"><ele>71.5</ele><time>2026-04-19T16:56:29.001Z</time></trkpt><trkpt lat="38.11468450067368" lon="14.804996733797678"><ele>73.0</ele><time>2026-04-19T16:56:30.001Z</time></trkpt><trkpt lat="38.114500453940884" lon="14.804786309304593"><ele>73.0</ele><time>2026-04-19T16:56:31.001Z</time></trkpt><trkpt lat="38.11431717005584" lon="14.804586654103865"><ele>73.0</ele><time>2026-04-19T16:56:32.001Z</time></trkpt><trkpt lat="38.11414489132056" lon="14.80439726116618"><ele>73.0</ele><time>2026-04-19T16:56:33.001Z</time></trkpt><trkpt lat="38.113990483434456" lon="14.804221582715053"><ele>73.0</ele><time>2026-04-19T16:56:34.001Z</time></trkpt><trkpt lat="38.113851763594774" lon="14.804060185498104"><ele>73.0</ele><time>2026-04-19T16:56:35.001Z</time></trkpt><trkpt lat="38.11371609560495" lon="14.80392001818601"><ele>73.0</ele><time>2026-04-19T16:56:36.001Z</time></trkpt><trkpt lat="38.1135670099091" lon="14.803822975527735"><ele>73.0</ele><time>2026-04-19T16:56:37.001Z</time></trkpt><trkpt lat="38.11339369561486" lon="14.803777347314794"><ele>73.0</ele><time>2026-04-19T16:56:38.001Z</time></trkpt><trkpt lat="38.11320330185541" lon="14.803770865281473"><ele>73.0</ele><time>2026-04-19T16:56:39.001Z</time></trkpt><trkpt lat="38.112998349810205" lon="14.803770980445586"><ele>73.0</ele><time>2026-04-19T16:56:40.001Z</time></trkpt><trkpt lat="38.112787253485294" lon="14.803755222447498"><ele>73.0</ele><time>2026-04-19T16:56:41.001Z</time></trkpt><trkpt lat="38.112566162180435" lon="14.80373751044804"><ele>74.5</ele><time>2026-04-19T16:56:42.002Z</time></trkpt><trkpt lat="38.11233323849518" lon="14.803715642570957"><ele>76.0</ele><time>2026-04-19T16:56:43.002Z</time></trkpt><trkpt lat="38.11209559437892" lon="14.803690270880457"><ele>76.0</ele><time>2026-04-19T16:56:44.002Z</time></trkpt><trkpt lat="38.11184718745517" lon="14.803668870152233"><ele>76.0</ele><time>2026-04-19T16:56:45.002Z</time></trkpt><trkpt lat="38.11160962407666" lon="14.803644820410295"><ele>76.66666666666666</ele><time>2026-04-19T16:56:46.002Z</time></trkpt><trkpt lat="38.1113841907547" lon="14.803631468686502"><ele>77.33333333333333</ele><time>2026-04-19T16:56:47.002Z</time></trkpt><trkpt lat="38.11116749731728" lon="14.80365273461452"><ele>78.0</ele><time>2026-04-19T16:56:48.002Z</time></trkpt><trkpt lat="38.11095055169612" lon="14.80371993065755"><ele>79.5</ele><time>2026-04-19T16:56:49.002Z</time></trkpt><trkpt lat="38.11073307817139" lon="14.80382957561932"><ele>81.0</ele><time>2026-04-19T16:56:50.002Z</time></trkpt><trkpt lat="38.110520493172324" lon="14.80397537899892"><ele>81.0</ele><time>2026-04-19T16:56:51.002Z</time></trkpt><trkpt lat="38.110310691371005" lon="14.804142368553345"><ele>81.0</ele><time>2026-04-19T16:56:52.002Z</time></trkpt><trkpt lat="38.110091565401106" lon="14.804314851199155"><ele>83.0</ele><time>2026-04-19T16:56:53.002Z</time></trkpt><trkpt lat="38.10986930265001" lon="14.804475273633948"><ele>85.0</ele><time>2026-04-19T16:56:54Z</time></trkpt><trkpt lat="38.10965899936715" lon="14.804620461619546"><ele>85.0</ele><time>2026-04-19T16:56:55Z</time></trkpt><trkpt lat="38.10946965648418" lon="14.8047599098872"><ele>85.0</ele><time>2026-04-19T16:56:56Z</time></trkpt><trkpt lat="38.10930401277006" lon="14.804903539956525"><ele>85.0</ele><time>2026-04-19T16:56:57Z</time></trkpt><trkpt lat="38.10916297681794" lon="14.805060822361817"><ele>87.33333333333333</ele><time>2026-04-19T16:56:58Z</time></trkpt><trkpt lat="38.109046864939046" lon="14.805242871862406"><ele>89.66666666666667</ele><time>2026-04-19T16:56:59Z</time></trkpt><trkpt lat="38.10891398698888" lon="14.80542759386684"><ele>92.0</ele><time>2026-04-19T16:57:00Z</time></trkpt><trkpt lat="38.10877927731022" lon="14.805629097292188"><ele>92.0</ele><time>2026-04-19T16:57:01Z</time></trkpt><trkpt lat="38.108642896307344" lon="14.805848480460266"><ele>92.0</ele><time>2026-04-19T16:57:02Z</time></trkpt><trkpt lat="38.1086483418868" lon="14.806249234452789"><ele>90.5</ele><time>2026-04-19T16:57:03Z</time></trkpt><trkpt lat="38.10853082817022" lon="14.806534427304003"><ele>89.0</ele><time>2026-04-19T16:57:04Z</time></trkpt><trkpt lat="38.108402301548836" lon="14.806844447456829"><ele>89.0</ele><time>2026-04-19T16:57:05Z</time></trkpt><trkpt lat="38.10827173746424" lon="14.807154555702596"><ele>89.0</ele><time>2026-04-19T16:57:06Z</time></trkpt><trkpt lat="38.10813753213859" lon="14.807467134723383"><ele>88.5</ele><time>2026-04-19T16:57:07Z</time></trkpt><trkpt lat="38.10800154498829" lon="14.80779917428258"><ele>88.0</ele><time>2026-04-19T16:57:08Z</time></trkpt><trkpt lat="38.10786053773779" lon="14.808134954204116"><ele>88.0</ele><time>2026-04-19T16:57:09Z</time></trkpt><trkpt lat="38.10772009444681" lon="14.808478737760295"><ele>88.0</ele><time>2026-04-19T16:57:10Z</time></trkpt><trkpt lat="38.107579407372675" lon="14.808823493657108"><ele>88.0</ele><time>2026-04-19T16:57:11Z</time></trkpt><trkpt lat="38.10744153998365" lon="14.809169432794622"><ele>88.0</ele><time>2026-04-19T16:57:12Z</time></trkpt><trkpt lat="38.10731730791603" lon="14.809508415581986"><ele>91.0</ele><time>2026-04-19T16:57:13Z</time></trkpt><trkpt lat="38.10720458913225" lon="14.809842232209556"><ele>94.0</ele><time>2026-04-19T16:57:13.999Z</time></trkpt><trkpt lat="38.10710291292112" lon="14.810156703113666"><ele>94.5</ele><time>2026-04-19T16:57:14.999Z</time></trkpt><trkpt lat="38.1070064319232" lon="14.810448068473155"><ele>95.0</ele><time>2026-04-19T16:57:15.999Z</time></trkpt><trkpt lat="38.10691015611651" lon="14.810725521668948"><ele>95.0</ele><time>2026-04-19T16:57:16.999Z</time></trkpt><trkpt lat="38.10682105144894" lon="14.81098208514956"><ele>95.0</ele><time>2026-04-19T16:57:17.999Z</time></trkpt><trkpt lat="38.1067350768359" lon="14.811211044477108"><ele>95.0</ele><time>2026-04-19T16:57:18.999Z</time></trkpt><trkpt lat="38.10664277813016" lon="14.811410740302378"><ele>96.66666666666667</ele><time>2026-04-19T16:57:19.999Z</time></trkpt><trkpt lat="38.1065347757721" lon="14.81159254932118"><ele>98.33333333333334</ele><time>2026-04-19T16:57:20.999Z</time></trkpt><trkpt lat="38.10642542081834" lon="14.811759427241588"><ele>100.0</ele><time>2026-04-19T16:57:21.999Z</time></trkpt><trkpt lat="38.10631680435259" lon="14.811903955309077"><ele>100.0</ele><time>2026-04-19T16:57:22.999Z</time></trkpt><trkpt lat="38.10621261536297" lon="14.81205056902175"><ele>100.0</ele><time>2026-04-19T16:57:23.999Z</time></trkpt><trkpt lat="38.10609787931718" lon="14.81217868567147"><ele>100.0</ele><time>2026-04-19T16:57:24.999Z</time></trkpt><trkpt lat="38.10596267877005" lon="14.812291516298979"><ele>100.0</ele><time>2026-04-19T16:57:25.999Z</time></trkpt><trkpt lat="38.10581424016057" lon="14.812389226232511"><ele>100.0</ele><time>2026-04-19T16:57:26.999Z</time></trkpt><trkpt lat="38.105663964268366" lon="14.812475305640495"><ele>100.0</ele><time>2026-04-19T16:57:27.999Z</time></trkpt><trkpt lat="38.10551519157714" lon="14.812581937761998"><ele>101.0</ele><time>2026-04-19T16:57:28.999Z</time></trkpt><trkpt lat="38.10536919858945" lon="14.812710788201704"><ele>102.0</ele><time>2026-04-19T16:57:30Z</time></trkpt><trkpt lat="38.1052251369736" lon="14.812765998305219"><ele>103.0</ele><time>2026-04-19T16:57:31Z</time></trkpt><trkpt lat="38.10508321436517" lon="14.812866811017582"><ele>103.0</ele><time>2026-04-19T16:57:32Z</time></trkpt><trkpt lat="38.10494526601964" lon="14.81301771900387"><ele>103.0</ele><time>2026-04-19T16:57:33Z</time></trkpt><trkpt lat="38.10483048046844" lon="14.813223811400269"><ele>103.0</ele><time>2026-04-19T16:57:34Z</time></trkpt><trkpt lat="38.104719457524105" lon="14.81347837890503"><ele>106.5</ele><time>2026-04-19T16:57:35Z</time></trkpt><trkpt lat="38.10457727263726" lon="14.813730889711104"><ele>110.0</ele><time>2026-04-19T16:57:36Z</time></trkpt><trkpt lat="38.10442921220808" lon="14.813962494920153"><ele>110.0</ele><time>2026-04-19T16:57:37Z</time></trkpt><trkpt lat="38.104301615924136" lon="14.814208508834138"><ele>110.0</ele><time>2026-04-19T16:57:38Z</time></trkpt><trkpt lat="38.104196112515055" lon="14.814429428538004"><ele>110.0</ele><time>2026-04-19T16:57:39Z</time></trkpt><trkpt lat="38.1040961685703" lon="14.814640987630407"><ele>110.66666666666666</ele><time>2026-04-19T16:57:40Z</time></trkpt><trkpt lat="38.104009527310005" lon="14.814832908513"><ele>111.33333333333334</ele><time>2026-04-19T16:57:41Z</time></trkpt><trkpt lat="38.10393419075975" lon="14.815006367809378"><ele>112.0</ele><time>2026-04-19T16:57:42Z</time></trkpt><trkpt lat="38.1038698613039" lon="14.815150353862412"><ele>111.50000000000001</ele><time>2026-04-19T16:57:43Z</time></trkpt><trkpt lat="38.103822003225524" lon="14.815262657928281"><ele>111.0</ele><time>2026-04-19T16:57:44Z</time></trkpt><trkpt lat="38.10377873000528" lon="14.8153456672276"><ele>110.5</ele><time>2026-04-19T16:57:45Z</time></trkpt><trkpt lat="38.10371896065945" lon="14.815419689047449"><ele>110.0</ele><time>2026-04-19T16:57:47Z</time></trkpt><trkpt lat="38.10365969200141" lon="14.815389976983106"><ele>109.50000000000001</ele><time>2026-04-19T16:57:50Z</time></trkpt><trkpt lat="38.10362374162122" lon="14.81552322447197"><ele>109.0</ele><time>2026-04-19T16:58:14Z</time></trkpt><trkpt lat="38.103626259229095" lon="14.815613790696258"><ele>109.00000000000001</ele><time>2026-04-19T16:58:16Z</time></trkpt><trkpt lat="38.10353462068084" lon="14.815630252366061"><ele>109.0</ele><time>2026-04-19T16:58:32Z</time></trkpt><trkpt lat="38.10352653107095" lon="14.81551589543948"><ele>109.0</ele><time>2026-04-19T16:58:33Z</time></trkpt><trkpt lat="38.10359915723001" lon="14.815486145993773"><ele>109.0</ele><time>2026-04-19T16:58:36Z</time></trkpt><trkpt lat="38.103636292896" lon="14.815407878902537"><ele>109.00000000000001</ele><time>2026-04-19T16:58:38Z</time></trkpt><trkpt lat="38.10371014961735" lon="14.815360810355536"><ele>109.0</ele><time>2026-04-19T16:58:43.001Z</time></trkpt><trkpt lat="38.10366371579506" lon="14.815455361921417"><ele>109.0</ele><time>2026-04-19T16:58:45.001Z</time></trkpt><trkpt lat="38.10361141574298" lon="14.815540434321658"><ele>109.0</ele><time>2026-04-19T17:00:26.001Z</time></trkpt><trkpt lat="38.103600302181114" lon="14.815634910698847"><ele>109.0</ele><time>2026-04-19T17:00:28.001Z</time></trkpt><trkpt lat="38.10360484768237" lon="14.81575850694422"><ele>109.0</ele><time>2026-04-19T17:03:10.002Z</time></trkpt><trkpt lat="38.10355814127979" lon="14.815878515262755"><ele>109.0</ele><time>2026-04-19T17:03:12.001Z</time></trkpt><trkpt lat="38.10348618327338" lon="14.815997622575374"><ele>108.83333333333334</ele><time>2026-04-19T17:03:14.001Z</time></trkpt><trkpt lat="38.10345281201539" lon="14.816102122472843"><ele>108.66666666666667</ele><time>2026-04-19T17:03:16.001Z</time></trkpt><trkpt lat="38.10340735273461" lon="14.816190862767558"><ele>108.5</ele><time>2026-04-19T17:03:31.001Z</time></trkpt><trkpt lat="38.10335340176097" lon="14.816286000287292"><ele>108.33333333333334</ele><time>2026-04-19T17:03:33.001Z</time></trkpt><trkpt lat="38.103333345224684" lon="14.816364312856434"><ele>108.16666666666667</ele><time>2026-04-19T17:03:34.001Z</time></trkpt><trkpt lat="38.103294957835644" lon="14.816440808503598"><ele>108.0</ele><time>2026-04-19T17:03:35.001Z</time></trkpt><trkpt lat="38.10326162604302" lon="14.816514592280216"><ele>108.66666666666667</ele><time>2026-04-19T17:03:36.001Z</time></trkpt><trkpt lat="38.10322544665906" lon="14.816595343611107"><ele>109.33333333333334</ele><time>2026-04-19T17:03:37.001Z</time></trkpt><trkpt lat="38.10317060758451" lon="14.816667732578004"><ele>110.0</ele><time>2026-04-19T17:03:38.001Z</time></trkpt><trkpt lat="38.10314010839329" lon="14.816765412059928"><ele>110.66666666666667</ele><time>2026-04-19T17:03:39.001Z</time></trkpt><trkpt lat="38.10309208459683" lon="14.816856124040903"><ele>111.33333333333334</ele><time>2026-04-19T17:03:40.001Z</time></trkpt><trkpt lat="38.10303940281401" lon="14.816953646719005"><ele>112.0</ele><time>2026-04-19T17:03:41.001Z</time></trkpt><trkpt lat="38.10298072338694" lon="14.817066839923404"><ele>112.0</ele><time>2026-04-19T17:03:42.001Z</time></trkpt><trkpt lat="38.10291397204383" lon="14.817187178016265"><ele>112.0</ele><time>2026-04-19T17:03:43.001Z</time></trkpt><trkpt lat="38.10283713076109" lon="14.817330324037458"><ele>112.0</ele><time>2026-04-19T17:03:44.001Z</time></trkpt><trkpt lat="38.10275664741358" lon="14.817487264902411"><ele>112.0</ele><time>2026-04-19T17:03:45.001Z</time></trkpt><trkpt lat="38.102677511852576" lon="14.817630823464336"><ele>112.25</ele><time>2026-04-19T17:03:46.001Z</time></trkpt><trkpt lat="38.102605209788905" lon="14.817771090971007"><ele>112.5</ele><time>2026-04-19T17:03:47.001Z</time></trkpt><trkpt lat="38.102529799671224" lon="14.817913644204308"><ele>112.75</ele><time>2026-04-19T17:03:48.001Z</time></trkpt><trkpt lat="38.10245576790602" lon="14.818056741261719"><ele>113.0</ele><time>2026-04-19T17:03:49.001Z</time></trkpt><trkpt lat="38.10237815185282" lon="14.818193285018463"><ele>115.75</ele><time>2026-04-19T17:03:50.001Z</time></trkpt><trkpt lat="38.1023015613794" lon="14.818330388683654"><ele>118.5</ele><time>2026-04-19T17:03:51.001Z</time></trkpt><trkpt lat="38.10222703074477" lon="14.818468369660721"><ele>121.25</ele><time>2026-04-19T17:03:52.001Z</time></trkpt><trkpt lat="38.102155948885574" lon="14.818607635796832"><ele>124.0</ele><time>2026-04-19T17:03:53.001Z</time></trkpt><trkpt lat="38.10208517047781" lon="14.818749427668976"><ele>124.0</ele><time>2026-04-19T17:03:54.001Z</time></trkpt><trkpt lat="38.102013632900444" lon="14.818892637412787"><ele>124.0</ele><time>2026-04-19T17:03:55.001Z</time></trkpt><trkpt lat="38.101942045717166" lon="14.819036482275413"><ele>124.0</ele><time>2026-04-19T17:03:56.001Z</time></trkpt><trkpt lat="38.101868925280385" lon="14.819184909395812"><ele>124.0</ele><time>2026-04-19T17:03:57.001Z</time></trkpt><trkpt lat="38.10179368632773" lon="14.81933737806103"><ele>122.33333333333334</ele><time>2026-04-19T17:03:58.001Z</time></trkpt><trkpt lat="38.101717044144046" lon="14.819491949448462"><ele>120.66666666666666</ele><time>2026-04-19T17:03:59.001Z</time></trkpt><trkpt lat="38.10164014830836" lon="14.819650339338999"><ele>119.0</ele><time>2026-04-19T17:04:00.001Z</time></trkpt><trkpt lat="38.101556215006376" lon="14.819823346778339"><ele>119.0</ele><time>2026-04-19T17:04:01.001Z</time></trkpt><trkpt lat="38.101468840289" lon="14.820005731018346"><ele>119.0</ele><time>2026-04-19T17:04:02.001Z</time></trkpt><trkpt lat="38.101387630010045" lon="14.820179202915504"><ele>119.0</ele><time>2026-04-19T17:04:03.001Z</time></trkpt><trkpt lat="38.101304350089116" lon="14.82035135364928"><ele>119.0</ele><time>2026-04-19T17:04:04.001Z</time></trkpt><trkpt lat="38.10122041465307" lon="14.820528884131976"><ele>119.0</ele><time>2026-04-19T17:04:05.001Z</time></trkpt><trkpt lat="38.10113760094381" lon="14.820706352838755"><ele>119.0</ele><time>2026-04-19T17:04:06.001Z</time></trkpt><trkpt lat="38.10105493227503" lon="14.820884770637022"><ele>119.66666666666666</ele><time>2026-04-19T17:04:07.001Z</time></trkpt><trkpt lat="38.10097358000893" lon="14.821062975990452"><ele>120.33333333333334</ele><time>2026-04-19T17:04:08.001Z</time></trkpt><trkpt lat="38.10089073520799" lon="14.821243960020789"><ele>121.0</ele><time>2026-04-19T17:04:09.001Z</time></trkpt><trkpt lat="38.10080563222299" lon="14.821420061733988"><ele>121.0</ele><time>2026-04-19T17:04:10.001Z</time></trkpt><trkpt lat="38.10071466945054" lon="14.821590811144732"><ele>121.0</ele><time>2026-04-19T17:04:11.001Z</time></trkpt><trkpt lat="38.10059891472658" lon="14.821733495762013"><ele>121.0</ele><time>2026-04-19T17:04:12.001Z</time></trkpt><trkpt lat="38.10047793993177" lon="14.821865685345792"><ele>121.0</ele><time>2026-04-19T17:04:13.001Z</time></trkpt><trkpt lat="38.100343432518784" lon="14.821977338537083"><ele>121.0</ele><time>2026-04-19T17:04:14.001Z</time></trkpt><trkpt lat="38.10020175600271" lon="14.822083029263151"><ele>121.0</ele><time>2026-04-19T17:04:15.001Z</time></trkpt><trkpt lat="38.10004387617432" lon="14.822131787482773"><ele>123.0</ele><time>2026-04-19T17:04:16.001Z</time></trkpt><trkpt lat="38.099886243501295" lon="14.822182896076129"><ele>125.0</ele><time>2026-04-19T17:04:17.001Z</time></trkpt><trkpt lat="38.09973415501442" lon="14.82224497130961"><ele>127.0</ele><time>2026-04-19T17:04:18.001Z</time></trkpt><trkpt lat="38.09957847751213" lon="14.822294606456062"><ele>127.0</ele><time>2026-04-19T17:04:19.001Z</time></trkpt><trkpt lat="38.09942297847017" lon="14.822351246311797"><ele>127.0</ele><time>2026-04-19T17:04:20.001Z</time></trkpt><trkpt lat="38.09926991613445" lon="14.822406198615397"><ele>127.0</ele><time>2026-04-19T17:04:21.001Z</time></trkpt><trkpt lat="38.0991145598784" lon="14.82246085762615"><ele>128.0</ele><time>2026-04-19T17:04:22.001Z</time></trkpt><trkpt lat="38.098961356082135" lon="14.822512708252056"><ele>129.0</ele><time>2026-04-19T17:04:23.001Z</time></trkpt><trkpt lat="38.098807030255934" lon="14.82256625883514"><ele>130.0</ele><time>2026-04-19T17:04:24.001Z</time></trkpt><trkpt lat="38.09865228074651" lon="14.82262306692213"><ele>130.0</ele><time>2026-04-19T17:04:25.001Z</time></trkpt><trkpt lat="38.09849934195873" lon="14.822692126997818"><ele>130.0</ele><time>2026-04-19T17:04:26.001Z</time></trkpt><trkpt lat="38.09835036091567" lon="14.822775088664216"><ele>130.0</ele><time>2026-04-19T17:04:27.001Z</time></trkpt><trkpt lat="38.09819980608041" lon="14.822867127976508"><ele>130.0</ele><time>2026-04-19T17:04:28.001Z</time></trkpt><trkpt lat="38.09806215030142" lon="14.82299994680632"><ele>130.0</ele><time>2026-04-19T17:04:29.001Z</time></trkpt><trkpt lat="38.0979303652338" lon="14.823156458860092"><ele>130.0</ele><time>2026-04-19T17:04:30.001Z</time></trkpt><trkpt lat="38.09780032295741" lon="14.823341299729774"><ele>130.33333333333334</ele><time>2026-04-19T17:04:31.001Z</time></trkpt><trkpt lat="38.097680118938705" lon="14.823567677363817"><ele>130.66666666666666</ele><time>2026-04-19T17:04:32.001Z</time></trkpt><trkpt lat="38.097570900613626" lon="14.823795891073221"><ele>131.0</ele><time>2026-04-19T17:04:33.001Z</time></trkpt><trkpt lat="38.09746283929828" lon="14.824038550215546"><ele>133.0</ele><time>2026-04-19T17:04:34.001Z</time></trkpt><trkpt lat="38.097357926432196" lon="14.82427387812799"><ele>135.0</ele><time>2026-04-19T17:04:35.001Z</time></trkpt><trkpt lat="38.097243770804155" lon="14.82452326487543"><ele>137.0</ele><time>2026-04-19T17:04:36.001Z</time></trkpt><trkpt lat="38.097124167836554" lon="14.824789675622679"><ele>137.0</ele><time>2026-04-19T17:04:37.001Z</time></trkpt><trkpt lat="38.09719318744454" lon="14.824663482943135"><ele>137.0</ele><time>2026-04-19T17:04:38.001Z</time></trkpt><trkpt lat="38.09710693520042" lon="14.82485417210966"><ele>137.0</ele><time>2026-04-19T17:04:39.001Z</time></trkpt><trkpt lat="38.09702520459648" lon="14.825047865074204"><ele>137.33333333333331</ele><time>2026-04-19T17:04:40.001Z</time></trkpt><trkpt lat="38.096944016110946" lon="14.825242252008518"><ele>137.66666666666666</ele><time>2026-04-19T17:04:41.001Z</time></trkpt><trkpt lat="38.09687432066018" lon="14.825437106657024"><ele>138.0</ele><time>2026-04-19T17:04:42.001Z</time></trkpt><trkpt lat="38.09682598385632" lon="14.825644706294957"><ele>138.0</ele><time>2026-04-19T17:04:43.001Z</time></trkpt><trkpt lat="38.09679780686951" lon="14.825867965597597"><ele>138.0</ele><time>2026-04-19T17:04:44.001Z</time></trkpt><trkpt lat="38.09678055060756" lon="14.826088966831025"><ele>138.0</ele><time>2026-04-19T17:04:45.001Z</time></trkpt><trkpt lat="38.096767426991185" lon="14.826310248618405"><ele>138.33333333333334</ele><time>2026-04-19T17:04:46.001Z</time></trkpt><trkpt lat="38.09674880509964" lon="14.826529932895331"><ele>138.66666666666669</ele><time>2026-04-19T17:04:47.001Z</time></trkpt><trkpt lat="38.0967268419275" lon="14.826761369314493"><ele>139.0</ele><time>2026-04-19T17:04:48.001Z</time></trkpt><trkpt lat="38.096707943762944" lon="14.82698902003542"><ele>139.66666666666669</ele><time>2026-04-19T17:04:49.001Z</time></trkpt><trkpt lat="38.096692221653" lon="14.827213619294476"><ele>140.33333333333334</ele><time>2026-04-19T17:04:50.001Z</time></trkpt><trkpt lat="38.096657161439275" lon="14.82743932036563"><ele>141.0</ele><time>2026-04-19T17:04:51.001Z</time></trkpt><trkpt lat="38.09664073960714" lon="14.827661194964008"><ele>142.66666666666666</ele><time>2026-04-19T17:04:52.001Z</time></trkpt><trkpt lat="38.09661082745041" lon="14.827876805400122"><ele>144.33333333333331</ele><time>2026-04-19T17:04:53.001Z</time></trkpt><trkpt lat="38.0965589803236" lon="14.828086774775377"><ele>146.0</ele><time>2026-04-19T17:04:54.001Z</time></trkpt><trkpt lat="38.09649289047349" lon="14.828295708422528"><ele>146.33333333333331</ele><time>2026-04-19T17:04:55.001Z</time></trkpt><trkpt lat="38.09641255828752" lon="14.828479893428373"><ele>146.66666666666666</ele><time>2026-04-19T17:04:56.001Z</time></trkpt><trkpt lat="38.09631190034842" lon="14.828652943334996"><ele>147.0</ele><time>2026-04-19T17:04:57.001Z</time></trkpt><trkpt lat="38.0961922407511" lon="14.828808418416827"><ele>147.0</ele><time>2026-04-19T17:04:58.001Z</time></trkpt><trkpt lat="38.096060228674204" lon="14.828940768130053"><ele>147.0</ele><time>2026-04-19T17:04:59.002Z</time></trkpt><trkpt lat="38.09591671458128" lon="14.829055695181111"><ele>147.0</ele><time>2026-04-19T17:05:00.002Z</time></trkpt><trkpt lat="38.095759838608494" lon="14.829149301108952"><ele>147.66666666666666</ele><time>2026-04-19T17:05:01.002Z</time></trkpt><trkpt lat="38.0955912247143" lon="14.82922217461023"><ele>148.33333333333331</ele><time>2026-04-19T17:05:02.002Z</time></trkpt><trkpt lat="38.095412073743596" lon="14.829275742522897"><ele>149.0</ele><time>2026-04-19T17:05:03.002Z</time></trkpt><trkpt lat="38.09523262516286" lon="14.829350929172113"><ele>149.0</ele><time>2026-04-19T17:05:04.002Z</time></trkpt><trkpt lat="38.09505303827672" lon="14.829400847612177"><ele>149.0</ele><time>2026-04-19T17:05:05.002Z</time></trkpt><trkpt lat="38.0948743046026" lon="14.829456476244639"><ele>149.0</ele><time>2026-04-19T17:05:06.002Z</time></trkpt><trkpt lat="38.09469596634177" lon="14.829513782605776"><ele>150.0</ele><time>2026-04-19T17:05:07.002Z</time></trkpt><trkpt lat="38.09451984119979" lon="14.829569032158876"><ele>151.0</ele><time>2026-04-19T17:05:08.002Z</time></trkpt><trkpt lat="38.094347832710845" lon="14.82962311829759"><ele>152.0</ele><time>2026-04-19T17:05:09.002Z</time></trkpt><trkpt lat="38.0941811755074" lon="14.829694050390433"><ele>154.0</ele><time>2026-04-19T17:05:10.002Z</time></trkpt><trkpt lat="38.09401874701572" lon="14.829788877848605"><ele>156.0</ele><time>2026-04-19T17:05:11.002Z</time></trkpt><trkpt lat="38.09386610380141" lon="14.82989980941787"><ele>158.0</ele><time>2026-04-19T17:05:12.002Z</time></trkpt><trkpt lat="38.09371971348287" lon="14.830023461555507"><ele>157.33333333333331</ele><time>2026-04-19T17:05:13.002Z</time></trkpt><trkpt lat="38.093582417966324" lon="14.830163402189818"><ele>156.66666666666666</ele><time>2026-04-19T17:05:14.002Z</time></trkpt><trkpt lat="38.09345644729652" lon="14.830316916138392"><ele>156.0</ele><time>2026-04-19T17:05:15.002Z</time></trkpt><trkpt lat="38.09333409274427" lon="14.830480490118624"><ele>159.0</ele><time>2026-04-19T17:05:16.002Z</time></trkpt><trkpt lat="38.0932105879285" lon="14.830648703138971"><ele>162.0</ele><time>2026-04-19T17:05:17.002Z</time></trkpt><trkpt lat="38.09309098969737" lon="14.830805278090917"><ele>165.0</ele><time>2026-04-19T17:05:18.001Z</time></trkpt><trkpt lat="38.09296969308635" lon="14.830968282720868"><ele>164.33333333333334</ele><time>2026-04-19T17:05:19.001Z</time></trkpt><trkpt lat="38.09284799608117" lon="14.831128301786174"><ele>163.66666666666669</ele><time>2026-04-19T17:05:20.001Z</time></trkpt><trkpt lat="38.09272610668998" lon="14.831288202095461"><ele>163.0</ele><time>2026-04-19T17:05:21.001Z</time></trkpt><trkpt lat="38.09260016529878" lon="14.831447547270187"><ele>163.0</ele><time>2026-04-19T17:05:22.001Z</time></trkpt><trkpt lat="38.09247410677038" lon="14.831609923770392"><ele>163.0</ele><time>2026-04-19T17:05:23.001Z</time></trkpt><trkpt lat="38.09234919264041" lon="14.831773831400884"><ele>163.0</ele><time>2026-04-19T17:05:24.001Z</time></trkpt><trkpt lat="38.092222321703595" lon="14.83194130425634"><ele>163.0</ele><time>2026-04-19T17:05:25.001Z</time></trkpt><trkpt lat="38.092093162539626" lon="14.832112099470745"><ele>163.0</ele><time>2026-04-19T17:05:26.001Z</time></trkpt><trkpt lat="38.09196162484873" lon="14.83228801562085"><ele>163.0</ele><time>2026-04-19T17:05:27.001Z</time></trkpt><trkpt lat="38.091831808976906" lon="14.832469964618179"><ele>164.33333333333334</ele><time>2026-04-19T17:05:28Z</time></trkpt><trkpt lat="38.09170031287472" lon="14.832655555739848"><ele>165.66666666666666</ele><time>2026-04-19T17:05:29Z</time></trkpt><trkpt lat="38.091574244013024" lon="14.832847021467721"><ele>167.0</ele><time>2026-04-19T17:05:30Z</time></trkpt><trkpt lat="38.09144704738539" lon="14.833040956972233"><ele>168.33333333333331</ele><time>2026-04-19T17:05:31Z</time></trkpt><trkpt lat="38.091322361630965" lon="14.833238616275196"><ele>169.66666666666666</ele><time>2026-04-19T17:05:32Z</time></trkpt><trkpt lat="38.09118973446607" lon="14.833440275815525"><ele>171.0</ele><time>2026-04-19T17:05:33Z</time></trkpt><trkpt lat="38.09105765791529" lon="14.833640214899368"><ele>171.0</ele><time>2026-04-19T17:05:34Z</time></trkpt><trkpt lat="38.090928704830006" lon="14.833835808707526"><ele>171.0</ele><time>2026-04-19T17:05:35Z</time></trkpt><trkpt lat="38.090804709214375" lon="14.834031495347027"><ele>171.0</ele><time>2026-04-19T17:05:36Z</time></trkpt><trkpt lat="38.09068828032199" lon="14.834221400192096"><ele>177.66666666666666</ele><time>2026-04-19T17:05:37Z</time></trkpt><trkpt lat="38.09056418000387" lon="14.834400469793527"><ele>184.33333333333331</ele><time>2026-04-19T17:05:38Z</time></trkpt><trkpt lat="38.09045242665787" lon="14.834574184237553"><ele>191.0</ele><time>2026-04-19T17:05:39Z</time></trkpt><trkpt lat="38.090344279070095" lon="14.834741733792805"><ele>191.0</ele><time>2026-04-19T17:05:40Z</time></trkpt><trkpt lat="38.09023908270876" lon="14.834909716201913"><ele>191.0</ele><time>2026-04-19T17:05:41.001Z</time></trkpt><trkpt lat="38.090131721112286" lon="14.835067275271868"><ele>191.0</ele><time>2026-04-19T17:05:42.001Z</time></trkpt><trkpt lat="38.09003083186992" lon="14.835228050212935"><ele>188.0</ele><time>2026-04-19T17:05:43.001Z</time></trkpt><trkpt lat="38.0899335482824" lon="14.83538835069458"><ele>185.0</ele><time>2026-04-19T17:05:44.001Z</time></trkpt><trkpt lat="38.08984987300846" lon="14.83554488616229"><ele>182.0</ele><time>2026-04-19T17:05:45.001Z</time></trkpt><trkpt lat="38.089767486415155" lon="14.83572408438121"><ele>185.66666666666666</ele><time>2026-04-19T17:05:46.001Z</time></trkpt><trkpt lat="38.0896911323701" lon="14.835902712471192"><ele>189.33333333333331</ele><time>2026-04-19T17:05:47.001Z</time></trkpt><trkpt lat="38.08962534623886" lon="14.836079826496231"><ele>193.0</ele><time>2026-04-19T17:05:48.001Z</time></trkpt><trkpt lat="38.089566734282556" lon="14.836264474496188"><ele>193.0</ele><time>2026-04-19T17:05:49.001Z</time></trkpt><trkpt lat="38.08951577022581" lon="14.836440892857082"><ele>193.0</ele><time>2026-04-19T17:05:50.001Z</time></trkpt><trkpt lat="38.089458020524326" lon="14.836619133177201"><ele>193.0</ele><time>2026-04-19T17:05:51.001Z</time></trkpt><trkpt lat="38.08940350411481" lon="14.836793805906177"><ele>193.0</ele><time>2026-04-19T17:05:52.001Z</time></trkpt><trkpt lat="38.08934623152117" lon="14.836967449541243"><ele>190.33333333333331</ele><time>2026-04-19T17:05:53.001Z</time></trkpt><trkpt lat="38.08928422832469" lon="14.837144341135202"><ele>187.66666666666666</ele><time>2026-04-19T17:05:54.001Z</time></trkpt><trkpt lat="38.08922284995067" lon="14.837324320572181"><ele>185.0</ele><time>2026-04-19T17:05:55.001Z</time></trkpt><trkpt lat="38.089159202426266" lon="14.837497353287077"><ele>184.5</ele><time>2026-04-19T17:05:56.001Z</time></trkpt><trkpt lat="38.08909929289773" lon="14.837669850993294"><ele>184.0</ele><time>2026-04-19T17:05:57.001Z</time></trkpt><trkpt lat="38.08904552208291" lon="14.83784044341701"><ele>183.5</ele><time>2026-04-19T17:05:58.001Z</time></trkpt><trkpt lat="38.08898979664873" lon="14.83801112020534"><ele>183.0</ele><time>2026-04-19T17:05:59.001Z</time></trkpt><trkpt lat="38.08893520757322" lon="14.838179195092971"><ele>186.5</ele><time>2026-04-19T17:06:00.001Z</time></trkpt><trkpt lat="38.08888200628044" lon="14.838345003224008"><ele>190.0</ele><time>2026-04-19T17:06:01.001Z</time></trkpt><trkpt lat="38.08882758436599" lon="14.838510143197825"><ele>193.5</ele><time>2026-04-19T17:06:02.001Z</time></trkpt><trkpt lat="38.088774392097655" lon="14.838669772508917"><ele>197.0</ele><time>2026-04-19T17:06:03.001Z</time></trkpt><trkpt lat="38.08872521878059" lon="14.838826223947194"><ele>197.0</ele><time>2026-04-19T17:06:04.001Z</time></trkpt><trkpt lat="38.08867583450412" lon="14.83898307408944"><ele>197.0</ele><time>2026-04-19T17:06:05.001Z</time></trkpt><trkpt lat="38.088631037861305" lon="14.839136228473961"><ele>197.0</ele><time>2026-04-19T17:06:06.001Z</time></trkpt><trkpt lat="38.08858954298935" lon="14.839292045254773"><ele>197.0</ele><time>2026-04-19T17:06:07.001Z</time></trkpt><trkpt lat="38.08855267604095" lon="14.83944588542353"><ele>195.5</ele><time>2026-04-19T17:06:08.001Z</time></trkpt><trkpt lat="38.088522819287626" lon="14.839601839592321"><ele>194.0</ele><time>2026-04-19T17:06:09.001Z</time></trkpt><trkpt lat="38.088495429277096" lon="14.839760764829872"><ele>192.5</ele><time>2026-04-19T17:06:10.001Z</time></trkpt><trkpt lat="38.088465268827754" lon="14.839916050165199"><ele>191.0</ele><time>2026-04-19T17:06:11.001Z</time></trkpt><trkpt lat="38.08843916888315" lon="14.840073983104224"><ele>191.0</ele><time>2026-04-19T17:06:12.001Z</time></trkpt><trkpt lat="38.088410014167174" lon="14.840227204784018"><ele>191.0</ele><time>2026-04-19T17:06:13.001Z</time></trkpt><trkpt lat="38.08838290874183" lon="14.840381512794917"><ele>191.0</ele><time>2026-04-19T17:06:14.001Z</time></trkpt><trkpt lat="38.08835536960028" lon="14.840531335650951"><ele>191.0</ele><time>2026-04-19T17:06:15.001Z</time></trkpt><trkpt lat="38.08832731900183" lon="14.840685293361506"><ele>191.0</ele><time>2026-04-19T17:06:16.001Z</time></trkpt><trkpt lat="38.08829844368141" lon="14.84083436138277"><ele>191.0</ele><time>2026-04-19T17:06:17.001Z</time></trkpt><trkpt lat="38.088272859984876" lon="14.840986430322499"><ele>191.0</ele><time>2026-04-19T17:06:18.001Z</time></trkpt><trkpt lat="38.088247000099344" lon="14.84113524385757"><ele>191.0</ele><time>2026-04-19T17:06:19.001Z</time></trkpt><trkpt lat="38.08821611893678" lon="14.841281218189442"><ele>193.0</ele><time>2026-04-19T17:06:20.001Z</time></trkpt><trkpt lat="38.08818083201951" lon="14.841425456426798"><ele>195.0</ele><time>2026-04-19T17:06:21.001Z</time></trkpt><trkpt lat="38.08813253971468" lon="14.841576204747543"><ele>197.0</ele><time>2026-04-19T17:06:22.001Z</time></trkpt><trkpt lat="38.08807589627151" lon="14.841727616301707"><ele>199.0</ele><time>2026-04-19T17:06:23.001Z</time></trkpt><trkpt lat="38.088002861672614" lon="14.841874417634305"><ele>199.0</ele><time>2026-04-19T17:06:24.001Z</time></trkpt><trkpt lat="38.08790855274366" lon="14.842025494038495"><ele>199.0</ele><time>2026-04-19T17:06:25.001Z</time></trkpt><trkpt lat="38.08779894790355" lon="14.842169826190643"><ele>199.0</ele><time>2026-04-19T17:06:26.001Z</time></trkpt><trkpt lat="38.08767042656733" lon="14.842305987276108"><ele>199.0</ele><time>2026-04-19T17:06:27.001Z</time></trkpt><trkpt lat="38.087526420696314" lon="14.842432613808995"><ele>199.0</ele><time>2026-04-19T17:06:28.001Z</time></trkpt><trkpt lat="38.087379606207314" lon="14.842560231015426"><ele>199.0</ele><time>2026-04-19T17:06:29.001Z</time></trkpt><trkpt lat="38.08722755484088" lon="14.842681915622729"><ele>201.0</ele><time>2026-04-19T17:06:30.001Z</time></trkpt><trkpt lat="38.08707720507599" lon="14.842806755503428"><ele>203.0</ele><time>2026-04-19T17:06:31.001Z</time></trkpt><trkpt lat="38.086921895911146" lon="14.842917734935968"><ele>205.0</ele><time>2026-04-19T17:06:32.001Z</time></trkpt><trkpt lat="38.08675296392619" lon="14.842993700473171"><ele>207.0</ele><time>2026-04-19T17:06:33.001Z</time></trkpt><trkpt lat="38.0865827671582" lon="14.843046325189714"><ele>209.0</ele><time>2026-04-19T17:06:34.001Z</time></trkpt><trkpt lat="38.08641332667904" lon="14.843081528029648"><ele>211.0</ele><time>2026-04-19T17:06:35.001Z</time></trkpt><trkpt lat="38.08623822103634" lon="14.843099973880044"><ele>211.0</ele><time>2026-04-19T17:06:36.001Z</time></trkpt><trkpt lat="38.086069943036144" lon="14.843114893630169"><ele>211.0</ele><time>2026-04-19T17:06:37.001Z</time></trkpt><trkpt lat="38.085895089777544" lon="14.843138112197972"><ele>211.0</ele><time>2026-04-19T17:06:38.001Z</time></trkpt><trkpt lat="38.085733471495296" lon="14.843179462955096"><ele>213.66666666666666</ele><time>2026-04-19T17:06:39.001Z</time></trkpt><trkpt lat="38.08556503856807" lon="14.843239853084361"><ele>216.33333333333331</ele><time>2026-04-19T17:06:40.001Z</time></trkpt><trkpt lat="38.08539695721375" lon="14.843303226434394"><ele>219.0</ele><time>2026-04-19T17:06:41.001Z</time></trkpt><trkpt lat="38.08523094918583" lon="14.843362261414898"><ele>219.0</ele><time>2026-04-19T17:06:42.001Z</time></trkpt><trkpt lat="38.08506554304738" lon="14.843425938582852"><ele>219.0</ele><time>2026-04-19T17:06:43.001Z</time></trkpt><trkpt lat="38.08490004331172" lon="14.843488576863408"><ele>219.0</ele><time>2026-04-19T17:06:44.001Z</time></trkpt><trkpt lat="38.08473554568977" lon="14.843551232779703"><ele>216.66666666666669</ele><time>2026-04-19T17:06:45.001Z</time></trkpt><trkpt lat="38.08457242597865" lon="14.843608074515016"><ele>214.33333333333334</ele><time>2026-04-19T17:06:46.001Z</time></trkpt><trkpt lat="38.08441239246135" lon="14.843666165073031"><ele>212.0</ele><time>2026-04-19T17:06:47.001Z</time></trkpt><trkpt lat="38.08426686579916" lon="14.843734275541525"><ele>212.0</ele><time>2026-04-19T17:06:48.001Z</time></trkpt><trkpt lat="38.08413226631553" lon="14.843813156523337"><ele>212.0</ele><time>2026-04-19T17:06:49.001Z</time></trkpt><trkpt lat="38.0840146546123" lon="14.843911600407848"><ele>212.0</ele><time>2026-04-19T17:06:50.001Z</time></trkpt><trkpt lat="38.08391056027175" lon="14.844024680226871"><ele>212.0</ele><time>2026-04-19T17:06:51.001Z</time></trkpt><trkpt lat="38.08382570460636" lon="14.844152495093152"><ele>213.25</ele><time>2026-04-19T17:06:52.001Z</time></trkpt><trkpt lat="38.08375351239505" lon="14.844293697040014"><ele>214.5</ele><time>2026-04-19T17:06:53.001Z</time></trkpt><trkpt lat="38.083692833547424" lon="14.844443037922757"><ele>215.75</ele><time>2026-04-19T17:06:54.001Z</time></trkpt><trkpt lat="38.08364776811905" lon="14.844605714404882"><ele>217.0</ele><time>2026-04-19T17:06:55.001Z</time></trkpt><trkpt lat="38.08361727841691" lon="14.844774347344588"><ele>217.0</ele><time>2026-04-19T17:06:56.001Z</time></trkpt><trkpt lat="38.08359970291808" lon="14.844949131842373"><ele>217.0</ele><time>2026-04-19T17:06:57.001Z</time></trkpt><trkpt lat="38.08359336996547" lon="14.845128915114799"><ele>217.0</ele><time>2026-04-19T17:06:58.001Z</time></trkpt><trkpt lat="38.08358855232729" lon="14.845303513609702"><ele>217.0</ele><time>2026-04-19T17:06:59.001Z</time></trkpt><trkpt lat="38.08358273748687" lon="14.845489835667816"><ele>217.33333333333331</ele><time>2026-04-19T17:07:00.001Z</time></trkpt><trkpt lat="38.08357823031996" lon="14.845674877845246"><ele>217.66666666666669</ele><time>2026-04-19T17:07:01.001Z</time></trkpt><trkpt lat="38.08357209765819" lon="14.84587185586403"><ele>218.0</ele><time>2026-04-19T17:07:02.001Z</time></trkpt><trkpt lat="38.08356561201377" lon="14.846079374568795"><ele>220.0</ele><time>2026-04-19T17:07:03.001Z</time></trkpt><trkpt lat="38.083559796678436" lon="14.8462796064016"><ele>222.0</ele><time>2026-04-19T17:07:04.001Z</time></trkpt><trkpt lat="38.08355002952671" lon="14.846471233469584"><ele>224.0</ele><time>2026-04-19T17:07:05.001Z</time></trkpt><trkpt lat="38.08353111587718" lon="14.846660214031994"><ele>224.33333333333334</ele><time>2026-04-19T17:07:06.001Z</time></trkpt><trkpt lat="38.08349793935098" lon="14.846851539751931"><ele>224.66666666666669</ele><time>2026-04-19T17:07:07.001Z</time></trkpt><trkpt lat="38.083453012158856" lon="14.84703927869719"><ele>225.0</ele><time>2026-04-19T17:07:08.001Z</time></trkpt><trkpt lat="38.08338338205477" lon="14.84721671244557"><ele>225.0</ele><time>2026-04-19T17:07:09.001Z</time></trkpt><trkpt lat="38.08328775588947" lon="14.84737557289525"><ele>225.0</ele><time>2026-04-19T17:07:10.001Z</time></trkpt><trkpt lat="38.083180396876514" lon="14.847523838031774"><ele>225.0</ele><time>2026-04-19T17:07:11.001Z</time></trkpt><trkpt lat="38.08306231774811" lon="14.847664871169561"><ele>227.33333333333331</ele><time>2026-04-19T17:07:12.001Z</time></trkpt><trkpt lat="38.08293188239452" lon="14.84779463946319"><ele>229.66666666666666</ele><time>2026-04-19T17:07:13.001Z</time></trkpt><trkpt lat="38.08279428542069" lon="14.847914378336402"><ele>232.0</ele><time>2026-04-19T17:07:14.001Z</time></trkpt><trkpt lat="38.0826565635643" lon="14.848032175589397"><ele>232.0</ele><time>2026-04-19T17:07:15.002Z</time></trkpt><trkpt lat="38.08251022700139" lon="14.848175930055385"><ele>232.0</ele><time>2026-04-19T17:07:16.002Z</time></trkpt><trkpt lat="38.08236757669509" lon="14.848312316032795"><ele>232.0</ele><time>2026-04-19T17:07:17.002Z</time></trkpt><trkpt lat="38.08222861447421" lon="14.848439467851378"><ele>234.0</ele><time>2026-04-19T17:07:18.002Z</time></trkpt><trkpt lat="38.08209813535834" lon="14.84856430272435"><ele>236.0</ele><time>2026-04-19T17:07:19.002Z</time></trkpt><trkpt lat="38.081972959612294" lon="14.848691517337747"><ele>238.0</ele><time>2026-04-19T17:07:20.002Z</time></trkpt><trkpt lat="38.08185895407226" lon="14.84881608975326"><ele>238.0</ele><time>2026-04-19T17:07:21.002Z</time></trkpt><trkpt lat="38.08176010295256" lon="14.84895978072808"><ele>238.0</ele><time>2026-04-19T17:07:22.002Z</time></trkpt><trkpt lat="38.08168041815818" lon="14.849106841260507"><ele>238.0</ele><time>2026-04-19T17:07:23.002Z</time></trkpt><trkpt lat="38.08161751827212" lon="14.849266481151046"><ele>238.0</ele><time>2026-04-19T17:07:24Z</time></trkpt><trkpt lat="38.08158025786178" lon="14.849423180209966"><ele>237.49999999999997</ele><time>2026-04-19T17:07:25Z</time></trkpt><trkpt lat="38.081561741472214" lon="14.849573023708833"><ele>237.0</ele><time>2026-04-19T17:07:26Z</time></trkpt><trkpt lat="38.08154957403571" lon="14.849699057372815"><ele>236.5</ele><time>2026-04-19T17:07:27Z</time></trkpt><trkpt lat="38.08153418493073" lon="14.8497903095948"><ele>236.0</ele><time>2026-04-19T17:07:28Z</time></trkpt><trkpt lat="38.081526677166124" lon="14.84989254928293"><ele>235.49999999999997</ele><time>2026-04-19T17:07:30Z</time></trkpt><trkpt lat="38.081524419232004" lon="14.849977589281586"><ele>235.0</ele><time>2026-04-19T17:07:32Z</time></trkpt><trkpt lat="38.08162832249362" lon="14.849970704568307"><ele>235.0</ele><time>2026-04-19T17:07:33Z</time></trkpt><trkpt lat="38.08169495439891" lon="14.850005130341236"><ele>234.99999999999997</ele><time>2026-04-19T17:07:35Z</time></trkpt><trkpt lat="38.081771770830805" lon="14.85001184382304"><ele>235.0</ele><time>2026-04-19T17:07:37Z</time></trkpt><trkpt lat="38.08184097285885" lon="14.85002434251593"><ele>235.0</ele><time>2026-04-19T17:07:39Z</time></trkpt><trkpt lat="38.08191182399966" lon="14.850033487293748"><ele>234.99999999999997</ele><time>2026-04-19T17:07:41Z</time></trkpt><trkpt lat="38.081979667595355" lon="14.850048206042073"><ele>235.0</ele><time>2026-04-19T17:07:43Z</time></trkpt><trkpt lat="38.08205466553144" lon="14.850083767154397"><ele>235.0</ele><time>2026-04-19T17:07:46Z</time></trkpt><trkpt lat="38.082049362692565" lon="14.850243793916654"><ele>235.16666666666666</ele><time>2026-04-19T17:07:49Z</time></trkpt><trkpt lat="38.082041805094946" lon="14.850326099076646"><ele>235.33333333333331</ele><time>2026-04-19T17:07:50Z</time></trkpt><trkpt lat="38.082032541518636" lon="14.850420886241055"><ele>235.5</ele><time>2026-04-19T17:07:51Z</time></trkpt><trkpt lat="38.08202301398379" lon="14.85051837483749"><ele>235.66666666666669</ele><time>2026-04-19T17:07:52Z</time></trkpt><trkpt lat="38.082012741226684" lon="14.85062354193131"><ele>235.83333333333334</ele><time>2026-04-19T17:07:53Z</time></trkpt><trkpt lat="38.08200163729713" lon="14.850737210425219"><ele>236.0</ele><time>2026-04-19T17:07:54Z</time></trkpt><trkpt lat="38.08199039637277" lon="14.85085228104318"><ele>236.8</ele><time>2026-04-19T17:07:55Z</time></trkpt><trkpt lat="38.08200867779688" lon="14.850974635651335"><ele>237.60000000000002</ele><time>2026-04-19T17:07:56Z</time></trkpt><trkpt lat="38.081989927688554" lon="14.851094301483963"><ele>238.4</ele><time>2026-04-19T17:07:57Z</time></trkpt><trkpt lat="38.08196043548728" lon="14.851211548474518"><ele>239.2</ele><time>2026-04-19T17:07:58Z</time></trkpt><trkpt lat="38.08193303266129" lon="14.851325093067015"><ele>240.0</ele><time>2026-04-19T17:07:59Z</time></trkpt><trkpt lat="38.08190796795172" lon="14.851436613126806"><ele>240.0</ele><time>2026-04-19T17:08:00Z</time></trkpt><trkpt lat="38.081883867716016" lon="14.851549625345886"><ele>240.0</ele><time>2026-04-19T17:08:01.001Z</time></trkpt><trkpt lat="38.0818374078784" lon="14.851641907219642"><ele>240.0</ele><time>2026-04-19T17:08:02.001Z</time></trkpt><trkpt lat="38.08179997854641" lon="14.85175306423946"><ele>240.0</ele><time>2026-04-19T17:08:03.001Z</time></trkpt><trkpt lat="38.08176353202666" lon="14.851863396526428"><ele>240.0</ele><time>2026-04-19T17:08:04.001Z</time></trkpt><trkpt lat="38.08172215963257" lon="14.851979058906188"><ele>241.0</ele><time>2026-04-19T17:08:05.001Z</time></trkpt><trkpt lat="38.08167919047837" lon="14.852089105592915"><ele>242.0</ele><time>2026-04-19T17:08:06.001Z</time></trkpt><trkpt lat="38.08165094225991" lon="14.85220512768109"><ele>243.0</ele><time>2026-04-19T17:08:07.001Z</time></trkpt><trkpt lat="38.08160817836877" lon="14.85230445542679"><ele>244.0</ele><time>2026-04-19T17:08:08.001Z</time></trkpt><trkpt lat="38.08154857407104" lon="14.852398540865703"><ele>245.0</ele><time>2026-04-19T17:08:09.001Z</time></trkpt><trkpt lat="38.08151022312848" lon="14.852514144226037"><ele>245.0</ele><time>2026-04-19T17:08:10.001Z</time></trkpt><trkpt lat="38.08146836573631" lon="14.852622672414409"><ele>245.0</ele><time>2026-04-19T17:08:11.001Z</time></trkpt><trkpt lat="38.08140916272931" lon="14.852721149101585"><ele>245.0</ele><time>2026-04-19T17:08:12.001Z</time></trkpt><trkpt lat="38.08137285543261" lon="14.852836579434305"><ele>245.0</ele><time>2026-04-19T17:08:13.001Z</time></trkpt><trkpt lat="38.08132681245309" lon="14.852946357700443"><ele>245.0</ele><time>2026-04-19T17:08:14.001Z</time></trkpt><trkpt lat="38.08127696493668" lon="14.853052783595903"><ele>245.0</ele><time>2026-04-19T17:08:15.001Z</time></trkpt><trkpt lat="38.081220371388646" lon="14.85315607467888"><ele>245.0</ele><time>2026-04-19T17:08:16.001Z</time></trkpt><trkpt lat="38.081164974777344" lon="14.853264074377053"><ele>245.0</ele><time>2026-04-19T17:08:17.001Z</time></trkpt><trkpt lat="38.081110778897596" lon="14.853368843507683"><ele>245.0</ele><time>2026-04-19T17:08:18.001Z</time></trkpt><trkpt lat="38.08105675621764" lon="14.853473997014644"><ele>245.0</ele><time>2026-04-19T17:08:19.001Z</time></trkpt><trkpt lat="38.08100593484042" lon="14.853576216463292"><ele>245.0</ele><time>2026-04-19T17:08:20.001Z</time></trkpt><trkpt lat="38.08095571854339" lon="14.853682295984374"><ele>245.0</ele><time>2026-04-19T17:08:21.001Z</time></trkpt><trkpt lat="38.080905012028296" lon="14.853787900823974"><ele>245.0</ele><time>2026-04-19T17:08:22.001Z</time></trkpt><trkpt lat="38.08085569353727" lon="14.853894726064164"><ele>245.0</ele><time>2026-04-19T17:08:23.001Z</time></trkpt><trkpt lat="38.080807884452696" lon="14.853998781907903"><ele>245.0</ele><time>2026-04-19T17:08:24.001Z</time></trkpt><trkpt lat="38.08076452286953" lon="14.854108373261665"><ele>245.2</ele><time>2026-04-19T17:08:25.001Z</time></trkpt><trkpt lat="38.08072263758422" lon="14.854218400921495"><ele>245.4</ele><time>2026-04-19T17:08:26.001Z</time></trkpt><trkpt lat="38.08068342050899" lon="14.854328566022739"><ele>245.60000000000002</ele><time>2026-04-19T17:08:27.001Z</time></trkpt><trkpt lat="38.08064437351387" lon="14.85443898535872"><ele>245.8</ele><time>2026-04-19T17:08:28.001Z</time></trkpt><trkpt lat="38.08060417811173" lon="14.854550630674602"><ele>246.0</ele><time>2026-04-19T17:08:29.001Z</time></trkpt><trkpt lat="38.08056602028733" lon="14.85466207623892"><ele>246.0</ele><time>2026-04-19T17:08:30.001Z</time></trkpt><trkpt lat="38.080524817020475" lon="14.85477514733152"><ele>246.00000000000003</ele><time>2026-04-19T17:08:31.001Z</time></trkpt><trkpt lat="38.08048502935613" lon="14.854888413103575"><ele>246.00000000000003</ele><time>2026-04-19T17:08:32.001Z</time></trkpt><trkpt lat="38.08044212398151" lon="14.85501536654661"><ele>246.0</ele><time>2026-04-19T17:08:33.001Z</time></trkpt><trkpt lat="38.08039923712095" lon="14.855158779940497"><ele>246.0</ele><time>2026-04-19T17:08:34.001Z</time></trkpt><trkpt lat="38.080360944694434" lon="14.855293608328472"><ele>248.0</ele><time>2026-04-19T17:08:35.001Z</time></trkpt><trkpt lat="38.08033032083983" lon="14.85543546243371"><ele>250.0</ele><time>2026-04-19T17:08:36.001Z</time></trkpt><trkpt lat="38.08031136173805" lon="14.855578922724884"><ele>252.0</ele><time>2026-04-19T17:08:37.001Z</time></trkpt><trkpt lat="38.08029567885528" lon="14.85572728897492"><ele>254.0</ele><time>2026-04-19T17:08:38.001Z</time></trkpt><trkpt lat="38.08027978465462" lon="14.85587649699478"><ele>255.5</ele><time>2026-04-19T17:08:39.001Z</time></trkpt><trkpt lat="38.080256798347826" lon="14.85601403082086"><ele>257.0</ele><time>2026-04-19T17:08:40.001Z</time></trkpt><trkpt lat="38.08022830631011" lon="14.856155946759463"><ele>258.5</ele><time>2026-04-19T17:08:41.001Z</time></trkpt><trkpt lat="38.080191175078845" lon="14.8562991947855"><ele>260.0</ele><time>2026-04-19T17:08:42.001Z</time></trkpt><trkpt lat="38.080151775634555" lon="14.856453585635292"><ele>260.0</ele><time>2026-04-19T17:08:43.001Z</time></trkpt><trkpt lat="38.08010624682569" lon="14.856619355842328"><ele>260.0</ele><time>2026-04-19T17:08:44.001Z</time></trkpt><trkpt lat="38.08006088407515" lon="14.856798274144895"><ele>260.0</ele><time>2026-04-19T17:08:45.001Z</time></trkpt><trkpt lat="38.08001567879957" lon="14.85697899519944"><ele>260.0</ele><time>2026-04-19T17:08:46.001Z</time></trkpt><trkpt lat="38.07994364852304" lon="14.857148490358005"><ele>259.33333333333337</ele><time>2026-04-19T17:08:47.001Z</time></trkpt><trkpt lat="38.07987109601275" lon="14.857319829525407"><ele>258.6666666666667</ele><time>2026-04-19T17:08:48.001Z</time></trkpt><trkpt lat="38.079792112479375" lon="14.857505237291157"><ele>258.0</ele><time>2026-04-19T17:08:49.001Z</time></trkpt><trkpt lat="38.0797260796563" lon="14.857684474822618"><ele>259.6666666666667</ele><time>2026-04-19T17:08:50.001Z</time></trkpt><trkpt lat="38.07961968210448" lon="14.857826305123703"><ele>261.33333333333337</ele><time>2026-04-19T17:08:51.001Z</time></trkpt><trkpt lat="38.079534215073664" lon="14.857987500395135"><ele>263.0</ele><time>2026-04-19T17:08:52.001Z</time></trkpt><trkpt lat="38.079428984229814" lon="14.858127511798656"><ele>263.0</ele><time>2026-04-19T17:08:53.001Z</time></trkpt><trkpt lat="38.07931498651578" lon="14.858256442486173"><ele>263.0</ele><time>2026-04-19T17:08:54.001Z</time></trkpt><trkpt lat="38.0791926363694" lon="14.858377488840462"><ele>263.0</ele><time>2026-04-19T17:08:55.001Z</time></trkpt><trkpt lat="38.079068244825166" lon="14.858501449147195"><ele>265.5</ele><time>2026-04-19T17:08:56.001Z</time></trkpt><trkpt lat="38.078944098797535" lon="14.85862413690463"><ele>268.0</ele><time>2026-04-19T17:08:57.001Z</time></trkpt><trkpt lat="38.0788253248147" lon="14.858738715424042"><ele>270.5</ele><time>2026-04-19T17:08:58.001Z</time></trkpt><trkpt lat="38.078704675816915" lon="14.85882278773381"><ele>273.0</ele><time>2026-04-19T17:08:59.001Z</time></trkpt><trkpt lat="38.078602474862976" lon="14.858931687251404"><ele>273.0</ele><time>2026-04-19T17:09:00.001Z</time></trkpt><trkpt lat="38.078473572037126" lon="14.858999318608014"><ele>273.0</ele><time>2026-04-19T17:09:01.001Z</time></trkpt><trkpt lat="38.0783453566534" lon="14.859079117571456"><ele>273.0</ele><time>2026-04-19T17:09:02.001Z</time></trkpt><trkpt lat="38.07821095646857" lon="14.859152985242128"><ele>273.0</ele><time>2026-04-19T17:09:03.001Z</time></trkpt><trkpt lat="38.07807480353489" lon="14.859236258092851"><ele>277.0</ele><time>2026-04-19T17:09:04.001Z</time></trkpt><trkpt lat="38.0779286097823" lon="14.859297620870537"><ele>281.0</ele><time>2026-04-19T17:09:05.001Z</time></trkpt><trkpt lat="38.07777949686578" lon="14.859363546524149"><ele>285.0</ele><time>2026-04-19T17:09:06.001Z</time></trkpt><trkpt lat="38.07763457801873" lon="14.859430310350811"><ele>285.0</ele><time>2026-04-19T17:09:07.001Z</time></trkpt><trkpt lat="38.07749217086403" lon="14.859497378010216"><ele>285.0</ele><time>2026-04-19T17:09:08.001Z</time></trkpt><trkpt lat="38.07735591989844" lon="14.85956359296065"><ele>285.0</ele><time>2026-04-19T17:09:09.001Z</time></trkpt><trkpt lat="38.07722931133927" lon="14.859648220228316"><ele>285.0</ele><time>2026-04-19T17:09:10.001Z</time></trkpt><trkpt lat="38.07710105906143" lon="14.85973763307292"><ele>284.25</ele><time>2026-04-19T17:09:11.001Z</time></trkpt><trkpt lat="38.076975208909786" lon="14.859830078569592"><ele>283.5</ele><time>2026-04-19T17:09:12.001Z</time></trkpt><trkpt lat="38.076854637346706" lon="14.859936334411824"><ele>282.75</ele><time>2026-04-19T17:09:13.001Z</time></trkpt><trkpt lat="38.07674023799717" lon="14.860045198493928"><ele>282.0</ele><time>2026-04-19T17:09:14.001Z</time></trkpt><trkpt lat="38.076624190129714" lon="14.860158517405498"><ele>280.6666666666667</ele><time>2026-04-19T17:09:15.001Z</time></trkpt><trkpt lat="38.07650696007787" lon="14.860269309577982"><ele>279.33333333333337</ele><time>2026-04-19T17:09:16.001Z</time></trkpt><trkpt lat="38.0763811220665" lon="14.860372647488575"><ele>278.0</ele><time>2026-04-19T17:09:17.001Z</time></trkpt><trkpt lat="38.076251392506066" lon="14.860483016514511"><ele>278.0</ele><time>2026-04-19T17:09:18.001Z</time></trkpt><trkpt lat="38.076128505022005" lon="14.860598607639071"><ele>278.0</ele><time>2026-04-19T17:09:19.001Z</time></trkpt><trkpt lat="38.07597885439834" lon="14.860734249923842"><ele>278.0</ele><time>2026-04-19T17:09:20.001Z</time></trkpt><trkpt lat="38.07582943590727" lon="14.860867613511147"><ele>278.33333333333337</ele><time>2026-04-19T17:09:21.001Z</time></trkpt><trkpt lat="38.075675690792785" lon="14.861003895957955"><ele>278.6666666666667</ele><time>2026-04-19T17:09:22.001Z</time></trkpt><trkpt lat="38.075525487298925" lon="14.861135238130357"><ele>279.0</ele><time>2026-04-19T17:09:23.001Z</time></trkpt><trkpt lat="38.075376793310255" lon="14.861259967111085"><ele>279.0</ele><time>2026-04-19T17:09:24.001Z</time></trkpt><trkpt lat="38.07524871495157" lon="14.861368276734579"><ele>279.0</ele><time>2026-04-19T17:09:25.001Z</time></trkpt><trkpt lat="38.07512048099597" lon="14.861485020404608"><ele>279.0</ele><time>2026-04-19T17:09:26.001Z</time></trkpt><trkpt lat="38.075002330294" lon="14.861608520176427"><ele>283.3333333333333</ele><time>2026-04-19T17:09:27.001Z</time></trkpt><trkpt lat="38.07489926198006" lon="14.861748136131187"><ele>287.66666666666663</ele><time>2026-04-19T17:09:28.001Z</time></trkpt><trkpt lat="38.0748046407831" lon="14.8619094118148"><ele>292.0</ele><time>2026-04-19T17:09:29.001Z</time></trkpt><trkpt lat="38.074726139239274" lon="14.862088309555274"><ele>292.0</ele><time>2026-04-19T17:09:30Z</time></trkpt><trkpt lat="38.074657925066425" lon="14.862283269383944"><ele>292.0</ele><time>2026-04-19T17:09:31Z</time></trkpt><trkpt lat="38.07459850276788" lon="14.862491444800648"><ele>292.0</ele><time>2026-04-19T17:09:32Z</time></trkpt><trkpt lat="38.07452032447927" lon="14.862700124522172"><ele>292.3333333333333</ele><time>2026-04-19T17:09:33Z</time></trkpt><trkpt lat="38.07445044103499" lon="14.8629186147447"><ele>292.6666666666667</ele><time>2026-04-19T17:09:34Z</time></trkpt><trkpt lat="38.07438739826553" lon="14.863152820801506"><ele>293.0</ele><time>2026-04-19T17:09:35Z</time></trkpt><trkpt lat="38.074314134213246" lon="14.863377735053875"><ele>294.6666666666667</ele><time>2026-04-19T17:09:36Z</time></trkpt><trkpt lat="38.0742408664749" lon="14.863608929238492"><ele>296.3333333333333</ele><time>2026-04-19T17:09:37Z</time></trkpt><trkpt lat="38.074149296668196" lon="14.863833315334595"><ele>298.0</ele><time>2026-04-19T17:09:38Z</time></trkpt><trkpt lat="38.074073467331445" lon="14.864065370433488"><ele>300.3333333333333</ele><time>2026-04-19T17:09:39Z</time></trkpt><trkpt lat="38.07399894109631" lon="14.864294502872117"><ele>302.6666666666667</ele><time>2026-04-19T17:09:40Z</time></trkpt><trkpt lat="38.07393893403088" lon="14.86452906923933"><ele>305.0</ele><time>2026-04-19T17:09:41Z</time></trkpt><trkpt lat="38.07384895387786" lon="14.864754467630089"><ele>305.0</ele><time>2026-04-19T17:09:42Z</time></trkpt><trkpt lat="38.07377596413532" lon="14.864977538426004"><ele>305.0</ele><time>2026-04-19T17:09:43Z</time></trkpt><trkpt lat="38.07370262257064" lon="14.865196258987616"><ele>305.0</ele><time>2026-04-19T17:09:44Z</time></trkpt><trkpt lat="38.07362841576796" lon="14.865403451466369"><ele>305.33333333333337</ele><time>2026-04-19T17:09:45Z</time></trkpt><trkpt lat="38.07354303371569" lon="14.865610465030493"><ele>305.6666666666667</ele><time>2026-04-19T17:09:46Z</time></trkpt><trkpt lat="38.073454653528884" lon="14.865814412808696"><ele>306.0</ele><time>2026-04-19T17:09:47Z</time></trkpt><trkpt lat="38.073357840038135" lon="14.866016232963883"><ele>304.3333333333333</ele><time>2026-04-19T17:09:48Z</time></trkpt><trkpt lat="38.0732600261027" lon="14.866213978867453"><ele>302.66666666666663</ele><time>2026-04-19T17:09:49Z</time></trkpt><trkpt lat="38.07316207663071" lon="14.866412390005742"><ele>301.0</ele><time>2026-04-19T17:09:50Z</time></trkpt><trkpt lat="38.07306094513753" lon="14.866617284801572"><ele>301.0</ele><time>2026-04-19T17:09:51Z</time></trkpt><trkpt lat="38.07296335348572" lon="14.866818026893744"><ele>301.0</ele><time>2026-04-19T17:09:52Z</time></trkpt><trkpt lat="38.072882445897015" lon="14.86702209254069"><ele>301.0</ele><time>2026-04-19T17:09:53Z</time></trkpt><trkpt lat="38.07278699261513" lon="14.867219515570486"><ele>301.0</ele><time>2026-04-19T17:09:54Z</time></trkpt><trkpt lat="38.07268131926139" lon="14.867403472009965"><ele>301.0</ele><time>2026-04-19T17:09:55.001Z</time></trkpt><trkpt lat="38.07258867713304" lon="14.86759640179458"><ele>301.0</ele><time>2026-04-19T17:09:56.001Z</time></trkpt><trkpt lat="38.07249752285147" lon="14.86778774878374"><ele>303.0</ele><time>2026-04-19T17:09:57.001Z</time></trkpt><trkpt lat="38.07240422287492" lon="14.867983598623868"><ele>305.0</ele><time>2026-04-19T17:09:58.001Z</time></trkpt><trkpt lat="38.07230751958477" lon="14.868174464485254"><ele>307.0</ele><time>2026-04-19T17:09:59.001Z</time></trkpt><trkpt lat="38.072209887341316" lon="14.868368901568779"><ele>307.3333333333333</ele><time>2026-04-19T17:10:00.001Z</time></trkpt><trkpt lat="38.07211374153353" lon="14.86856200000512"><ele>307.6666666666667</ele><time>2026-04-19T17:10:01.001Z</time></trkpt><trkpt lat="38.07201760346751" lon="14.86876054966644"><ele>308.0</ele><time>2026-04-19T17:10:02.001Z</time></trkpt><trkpt lat="38.071924065379974" lon="14.868957899837039"><ele>308.0</ele><time>2026-04-19T17:10:03.001Z</time></trkpt><trkpt lat="38.07183207007259" lon="14.869154798623224"><ele>308.0</ele><time>2026-04-19T17:10:04.001Z</time></trkpt><trkpt lat="38.0717427283476" lon="14.869347844324773"><ele>308.0</ele><time>2026-04-19T17:10:05.001Z</time></trkpt><trkpt lat="38.07166107572411" lon="14.869533821479084"><ele>309.33333333333337</ele><time>2026-04-19T17:10:06.001Z</time></trkpt><trkpt lat="38.07158049683508" lon="14.86971198756113"><ele>310.6666666666667</ele><time>2026-04-19T17:10:07.001Z</time></trkpt><trkpt lat="38.07148238827396" lon="14.869872998266324"><ele>312.0</ele><time>2026-04-19T17:10:08.001Z</time></trkpt><trkpt lat="38.07137255000106" lon="14.87002181705117"><ele>312.6666666666667</ele><time>2026-04-19T17:10:09.001Z</time></trkpt><trkpt lat="38.07125108986801" lon="14.870176111334516"><ele>313.33333333333337</ele><time>2026-04-19T17:10:10.001Z</time></trkpt><trkpt lat="38.07112733971045" lon="14.870334750170272"><ele>314.0</ele><time>2026-04-19T17:10:11.001Z</time></trkpt><trkpt lat="38.071004970142475" lon="14.870494394298662"><ele>314.0</ele><time>2026-04-19T17:10:12.001Z</time></trkpt><trkpt lat="38.07088101045227" lon="14.870655069894989"><ele>314.0</ele><time>2026-04-19T17:10:13.001Z</time></trkpt><trkpt lat="38.07075502746693" lon="14.870813511260689"><ele>314.0</ele><time>2026-04-19T17:10:14.001Z</time></trkpt><trkpt lat="38.070627156103356" lon="14.870968971155493"><ele>315.6666666666667</ele><time>2026-04-19T17:10:15.001Z</time></trkpt><trkpt lat="38.07049887016982" lon="14.87111627644054"><ele>317.3333333333333</ele><time>2026-04-19T17:10:16.001Z</time></trkpt><trkpt lat="38.07036956176202" lon="14.871269363507087"><ele>319.0</ele><time>2026-04-19T17:10:17.001Z</time></trkpt><trkpt lat="38.07024598188597" lon="14.87142774945996"><ele>319.0</ele><time>2026-04-19T17:10:18.001Z</time></trkpt><trkpt lat="38.07011743409075" lon="14.871593042123033"><ele>319.0</ele><time>2026-04-19T17:10:19.001Z</time></trkpt><trkpt lat="38.06998996189141" lon="14.871756952053815"><ele>319.0</ele><time>2026-04-19T17:10:20.001Z</time></trkpt><trkpt lat="38.069855916299794" lon="14.871929314149396"><ele>318.66666666666663</ele><time>2026-04-19T17:10:21.001Z</time></trkpt><trkpt lat="38.06972314483639" lon="14.872100037975114"><ele>318.3333333333333</ele><time>2026-04-19T17:10:22.001Z</time></trkpt><trkpt lat="38.069588654505" lon="14.872272971999077"><ele>318.0</ele><time>2026-04-19T17:10:23.001Z</time></trkpt><trkpt lat="38.069456465067404" lon="14.872445761978849"><ele>319.6666666666667</ele><time>2026-04-19T17:10:24.001Z</time></trkpt><trkpt lat="38.06933150362427" lon="14.87262457448112"><ele>321.33333333333337</ele><time>2026-04-19T17:10:25.001Z</time></trkpt><trkpt lat="38.06922319279198" lon="14.872811795954465"><ele>323.0</ele><time>2026-04-19T17:10:26.001Z</time></trkpt><trkpt lat="38.069084467127205" lon="14.87296109996144"><ele>323.0</ele><time>2026-04-19T17:10:27.001Z</time></trkpt><trkpt lat="38.06896874489791" lon="14.87313089400607"><ele>323.0</ele><time>2026-04-19T17:10:28.001Z</time></trkpt><trkpt lat="38.06884497101819" lon="14.873283682478057"><ele>323.0</ele><time>2026-04-19T17:10:29.001Z</time></trkpt><trkpt lat="38.06871649901451" lon="14.873428426970122"><ele>324.0</ele><time>2026-04-19T17:10:30.001Z</time></trkpt><trkpt lat="38.0685952064329" lon="14.873587689996045"><ele>325.0</ele><time>2026-04-19T17:10:31.001Z</time></trkpt><trkpt lat="38.06847219511361" lon="14.873751642056012"><ele>326.0</ele><time>2026-04-19T17:10:32.001Z</time></trkpt><trkpt lat="38.06834614606593" lon="14.873914777349482"><ele>327.6666666666667</ele><time>2026-04-19T17:10:33.001Z</time></trkpt><trkpt lat="38.068229096985455" lon="14.874087315771849"><ele>329.3333333333333</ele><time>2026-04-19T17:10:34.001Z</time></trkpt><trkpt lat="38.06809380586314" lon="14.874239405785595"><ele>331.0</ele><time>2026-04-19T17:10:35.001Z</time></trkpt><trkpt lat="38.067944087516764" lon="14.874367986647476"><ele>331.66666666666663</ele><time>2026-04-19T17:10:36.001Z</time></trkpt><trkpt lat="38.06779444581895" lon="14.874496929387519"><ele>332.3333333333333</ele><time>2026-04-19T17:10:37.001Z</time></trkpt><trkpt lat="38.06763426486293" lon="14.87462430955563"><ele>333.0</ele><time>2026-04-19T17:10:38.001Z</time></trkpt><trkpt lat="38.06748374588154" lon="14.874755084633948"><ele>332.0</ele><time>2026-04-19T17:10:39.001Z</time></trkpt><trkpt lat="38.067324215441324" lon="14.874869985830722"><ele>331.0</ele><time>2026-04-19T17:10:40.001Z</time></trkpt><trkpt lat="38.06717254979324" lon="14.874983078356536"><ele>330.0</ele><time>2026-04-19T17:10:41.001Z</time></trkpt><trkpt lat="38.06701575284501" lon="14.875091508529287"><ele>330.6666666666667</ele><time>2026-04-19T17:10:42.001Z</time></trkpt><trkpt lat="38.06687145258428" lon="14.875210115579895"><ele>331.33333333333337</ele><time>2026-04-19T17:10:43.001Z</time></trkpt><trkpt lat="38.06672906781209" lon="14.875336845432454"><ele>332.0</ele><time>2026-04-19T17:10:44.001Z</time></trkpt><trkpt lat="38.06658486621518" lon="14.875480072113378"><ele>332.0</ele><time>2026-04-19T17:10:45.001Z</time></trkpt><trkpt lat="38.06644945171478" lon="14.875634042318877"><ele>332.0</ele><time>2026-04-19T17:10:46.001Z</time></trkpt><trkpt lat="38.066312790870015" lon="14.875792391365803"><ele>332.0</ele><time>2026-04-19T17:10:47.001Z</time></trkpt><trkpt lat="38.06618112024765" lon="14.87595084283402"><ele>333.33333333333337</ele><time>2026-04-19T17:10:48.001Z</time></trkpt><trkpt lat="38.06606473771364" lon="14.876122570967823"><ele>334.6666666666667</ele><time>2026-04-19T17:10:49.001Z</time></trkpt><trkpt lat="38.065943321108556" lon="14.8762899902015"><ele>336.0</ele><time>2026-04-19T17:10:50.001Z</time></trkpt><trkpt lat="38.065818619872985" lon="14.876453072826584"><ele>336.6666666666667</ele><time>2026-04-19T17:10:51.001Z</time></trkpt><trkpt lat="38.06569360592086" lon="14.87661662745666"><ele>337.33333333333337</ele><time>2026-04-19T17:10:52.001Z</time></trkpt><trkpt lat="38.065570818576305" lon="14.87678605921554"><ele>338.0</ele><time>2026-04-19T17:10:53.001Z</time></trkpt><trkpt lat="38.06544729171893" lon="14.876954285545443"><ele>338.6666666666667</ele><time>2026-04-19T17:10:54.001Z</time></trkpt><trkpt lat="38.06532482410547" lon="14.877118060935635"><ele>339.3333333333333</ele><time>2026-04-19T17:10:55.001Z</time></trkpt><trkpt lat="38.065203440903346" lon="14.877278434100896"><ele>340.0</ele><time>2026-04-19T17:10:56.001Z</time></trkpt><trkpt lat="38.06508414209595" lon="14.877445485428574"><ele>342.0</ele><time>2026-04-19T17:10:57.001Z</time></trkpt><trkpt lat="38.06496678113417" lon="14.87761701355926"><ele>344.0</ele><time>2026-04-19T17:10:58.001Z</time></trkpt><trkpt lat="38.064850670174565" lon="14.877793112183914"><ele>346.0</ele><time>2026-04-19T17:10:59.001Z</time></trkpt><trkpt lat="38.064738066574535" lon="14.87797432641334"><ele>346.0</ele><time>2026-04-19T17:11:00.001Z</time></trkpt><trkpt lat="38.064621778952464" lon="14.878156292275646"><ele>346.0</ele><time>2026-04-19T17:11:01.001Z</time></trkpt><trkpt lat="38.064505210641926" lon="14.878336933369175"><ele>346.0</ele><time>2026-04-19T17:11:02.001Z</time></trkpt><trkpt lat="38.0643886819404" lon="14.878522379749755"><ele>348.3333333333333</ele><time>2026-04-19T17:11:03.001Z</time></trkpt><trkpt lat="38.064276937008685" lon="14.878708944914393"><ele>350.6666666666667</ele><time>2026-04-19T17:11:04.001Z</time></trkpt><trkpt lat="38.06417492592398" lon="14.878891661571272"><ele>353.0</ele><time>2026-04-19T17:11:05.001Z</time></trkpt><trkpt lat="38.064077243396895" lon="14.87908608550419"><ele>353.0</ele><time>2026-04-19T17:11:06.001Z</time></trkpt><trkpt lat="38.0639569176181" lon="14.879264280825382"><ele>353.0</ele><time>2026-04-19T17:11:07.001Z</time></trkpt><trkpt lat="38.0638524715213" lon="14.879460172353097"><ele>353.0</ele><time>2026-04-19T17:11:08.001Z</time></trkpt><trkpt lat="38.06377528150351" lon="14.879671133506385"><ele>354.0</ele><time>2026-04-19T17:11:09.001Z</time></trkpt><trkpt lat="38.06369179308034" lon="14.879870665062509"><ele>355.0</ele><time>2026-04-19T17:11:10.001Z</time></trkpt><trkpt lat="38.06360123972307" lon="14.880078094641355"><ele>356.0</ele><time>2026-04-19T17:11:11.001Z</time></trkpt><trkpt lat="38.06348601605078" lon="14.880257777902104"><ele>357.6666666666667</ele><time>2026-04-19T17:11:12.001Z</time></trkpt><trkpt lat="38.063364873214795" lon="14.880421128044874"><ele>359.3333333333333</ele><time>2026-04-19T17:11:13.001Z</time></trkpt><trkpt lat="38.063228425715856" lon="14.880564786344065"><ele>361.0</ele><time>2026-04-19T17:11:14.001Z</time></trkpt><trkpt lat="38.06307065405238" lon="14.880693713301635"><ele>361.0</ele><time>2026-04-19T17:11:15.001Z</time></trkpt><trkpt lat="38.06291877797896" lon="14.880838599537604"><ele>361.0</ele><time>2026-04-19T17:11:16.001Z</time></trkpt><trkpt lat="38.06277429263542" lon="14.88094672218179"><ele>361.0</ele><time>2026-04-19T17:11:17.001Z</time></trkpt><trkpt lat="38.062636138249" lon="14.881052025055656"><ele>361.0</ele><time>2026-04-19T17:11:18.001Z</time></trkpt><trkpt lat="38.06250025028552" lon="14.881162932987245"><ele>361.0</ele><time>2026-04-19T17:11:19.001Z</time></trkpt><trkpt lat="38.06237663253606" lon="14.881300365271903"><ele>361.0</ele><time>2026-04-19T17:11:20.001Z</time></trkpt><trkpt lat="38.06227582583432" lon="14.881472935255388"><ele>361.0</ele><time>2026-04-19T17:11:21.001Z</time></trkpt><trkpt lat="38.06221939216243" lon="14.881677604647939"><ele>361.0</ele><time>2026-04-19T17:11:22.001Z</time></trkpt><trkpt lat="38.062198196680434" lon="14.881904525731422"><ele>361.0</ele><time>2026-04-19T17:11:23.001Z</time></trkpt><trkpt lat="38.062156239865296" lon="14.882119505294309"><ele>361.66666666666663</ele><time>2026-04-19T17:11:24.002Z</time></trkpt><trkpt lat="38.06211663057211" lon="14.882334849307123"><ele>362.3333333333333</ele><time>2026-04-19T17:11:25.002Z</time></trkpt><trkpt lat="38.06207731893685" lon="14.882556676649067"><ele>363.0</ele><time>2026-04-19T17:11:26.002Z</time></trkpt><trkpt lat="38.06205312197572" lon="14.882782501814074"><ele>363.6666666666667</ele><time>2026-04-19T17:11:27.002Z</time></trkpt><trkpt lat="38.06204313754253" lon="14.883015670369964"><ele>364.33333333333337</ele><time>2026-04-19T17:11:28.002Z</time></trkpt><trkpt lat="38.06203713496978" lon="14.883251265727038"><ele>365.0</ele><time>2026-04-19T17:11:29.002Z</time></trkpt><trkpt lat="38.06203260522877" lon="14.883483063736394"><ele>367.0</ele><time>2026-04-19T17:11:30.002Z</time></trkpt><trkpt lat="38.06202803357569" lon="14.883709417611305"><ele>369.0</ele><time>2026-04-19T17:11:31.002Z</time></trkpt><trkpt lat="38.06201427198003" lon="14.883927506393082"><ele>371.0</ele><time>2026-04-19T17:11:32.002Z</time></trkpt><trkpt lat="38.06198356251744" lon="14.884133425615568"><ele>375.33333333333337</ele><time>2026-04-19T17:11:33.002Z</time></trkpt><trkpt lat="38.061923929589796" lon="14.884327262048744"><ele>379.6666666666667</ele><time>2026-04-19T17:11:34.002Z</time></trkpt><trkpt lat="38.061839700931486" lon="14.884499810725176"><ele>384.0</ele><time>2026-04-19T17:11:35.002Z</time></trkpt><trkpt lat="38.061736052608246" lon="14.884666634608354"><ele>384.0</ele><time>2026-04-19T17:11:36.001Z</time></trkpt><trkpt lat="38.06161945213666" lon="14.884834246446474"><ele>384.0</ele><time>2026-04-19T17:11:37.001Z</time></trkpt><trkpt lat="38.061505369930835" lon="14.885001832964521"><ele>384.0</ele><time>2026-04-19T17:11:38.001Z</time></trkpt><trkpt lat="38.06138645004965" lon="14.885172119450472"><ele>383.6666666666667</ele><time>2026-04-19T17:11:39.001Z</time></trkpt><trkpt lat="38.0612664525085" lon="14.885340021561644"><ele>383.33333333333337</ele><time>2026-04-19T17:11:40.001Z</time></trkpt><trkpt lat="38.06114724591552" lon="14.885518350543538"><ele>383.0</ele><time>2026-04-19T17:11:41.001Z</time></trkpt><trkpt lat="38.06102989399643" lon="14.885694475188306"><ele>383.0</ele><time>2026-04-19T17:11:42.001Z</time></trkpt><trkpt lat="38.06091494452488" lon="14.885863542401662"><ele>383.0</ele><time>2026-04-19T17:11:43.001Z</time></trkpt><trkpt lat="38.06079821098401" lon="14.886027895463227"><ele>383.0</ele><time>2026-04-19T17:11:44.001Z</time></trkpt><trkpt lat="38.06069311141552" lon="14.886203349138496"><ele>383.6666666666667</ele><time>2026-04-19T17:11:45.001Z</time></trkpt><trkpt lat="38.06061210030565" lon="14.88639842123269"><ele>384.33333333333337</ele><time>2026-04-19T17:11:46.001Z</time></trkpt><trkpt lat="38.06055151942796" lon="14.886615705084246"><ele>385.0</ele><time>2026-04-19T17:11:47.001Z</time></trkpt><trkpt lat="38.06050149121032" lon="14.886839990114805"><ele>385.0</ele><time>2026-04-19T17:11:48.001Z</time></trkpt><trkpt lat="38.06045182918579" lon="14.887063175257856"><ele>385.0</ele><time>2026-04-19T17:11:49.001Z</time></trkpt><trkpt lat="38.060402865540645" lon="14.887293077391123"><ele>385.0</ele><time>2026-04-19T17:11:50.001Z</time></trkpt><trkpt lat="38.060353586894344" lon="14.88752645598033"><ele>386.33333333333337</ele><time>2026-04-19T17:11:51.001Z</time></trkpt><trkpt lat="38.06030698226341" lon="14.887759281039406"><ele>387.66666666666663</ele><time>2026-04-19T17:11:52.001Z</time></trkpt><trkpt lat="38.060257129494026" lon="14.887996313189085"><ele>389.0</ele><time>2026-04-19T17:11:53.001Z</time></trkpt><trkpt lat="38.060223187342416" lon="14.888238738293042"><ele>390.0</ele><time>2026-04-19T17:11:54.001Z</time></trkpt><trkpt lat="38.06018943397262" lon="14.888479746906318"><ele>391.0</ele><time>2026-04-19T17:11:55.001Z</time></trkpt><trkpt lat="38.06015542593202" lon="14.88872535933857"><ele>392.0</ele><time>2026-04-19T17:11:56.001Z</time></trkpt><trkpt lat="38.06012246127503" lon="14.888968289256594"><ele>392.0</ele><time>2026-04-19T17:11:57.001Z</time></trkpt><trkpt lat="38.060088443721405" lon="14.88921897859819"><ele>392.0</ele><time>2026-04-19T17:11:58.001Z</time></trkpt><trkpt lat="38.06005447472948" lon="14.889459668932995"><ele>392.0</ele><time>2026-04-19T17:11:59.001Z</time></trkpt><trkpt lat="38.06002085022111" lon="14.889803039740716"><ele>394.0</ele><time>2026-04-19T17:12:00.001Z</time></trkpt><trkpt lat="38.06002041220811" lon="14.889911575564842"><ele>396.0</ele><time>2026-04-19T17:12:01.001Z</time></trkpt><trkpt lat="38.060016862896624" lon="14.890148511665815"><ele>398.0</ele><time>2026-04-19T17:12:02.001Z</time></trkpt><trkpt lat="38.06002657651473" lon="14.890393685645643"><ele>400.3333333333333</ele><time>2026-04-19T17:12:03.001Z</time></trkpt><trkpt lat="38.06002972783596" lon="14.890633003646922"><ele>402.66666666666663</ele><time>2026-04-19T17:12:04.001Z</time></trkpt><trkpt lat="38.06003405406209" lon="14.890877491067224"><ele>405.0</ele><time>2026-04-19T17:12:05.001Z</time></trkpt><trkpt lat="38.06003610792014" lon="14.891126144879292"><ele>406.66666666666663</ele><time>2026-04-19T17:12:06.001Z</time></trkpt><trkpt lat="38.06004220830543" lon="14.891368117869856"><ele>408.3333333333333</ele><time>2026-04-19T17:12:07.001Z</time></trkpt><trkpt lat="38.06003187902234" lon="14.891610826108945"><ele>410.0</ele><time>2026-04-19T17:12:08.001Z</time></trkpt><trkpt lat="38.06003739987305" lon="14.89184944524556"><ele>411.0</ele><time>2026-04-19T17:12:09.001Z</time></trkpt><trkpt lat="38.060051578179774" lon="14.892077258960752"><ele>412.0</ele><time>2026-04-19T17:12:10.001Z</time></trkpt><trkpt lat="38.060054820886975" lon="14.892293372544662"><ele>413.0</ele><time>2026-04-19T17:12:11.001Z</time></trkpt><trkpt lat="38.060038367168914" lon="14.892488552261192"><ele>412.75</ele><time>2026-04-19T17:12:12.001Z</time></trkpt><trkpt lat="38.05999180024392" lon="14.892659643344471"><ele>412.5</ele><time>2026-04-19T17:12:13.001Z</time></trkpt><trkpt lat="38.059929288283634" lon="14.892814835085415"><ele>412.25</ele><time>2026-04-19T17:12:14Z</time></trkpt><trkpt lat="38.05985473627449" lon="14.892945823319497"><ele>412.0</ele><time>2026-04-19T17:12:15Z</time></trkpt><trkpt lat="38.059751195415714" lon="14.893084410539167"><ele>412.0</ele><time>2026-04-19T17:12:16Z</time></trkpt><trkpt lat="38.05962641688919" lon="14.893197758086057"><ele>412.0</ele><time>2026-04-19T17:12:17Z</time></trkpt><trkpt lat="38.05948073203057" lon="14.893273142184263"><ele>412.0</ele><time>2026-04-19T17:12:18Z</time></trkpt><trkpt lat="38.059323047366696" lon="14.893344873704944"><ele>412.0</ele><time>2026-04-19T17:12:19Z</time></trkpt><trkpt lat="38.05916552439671" lon="14.893420958729639"><ele>412.0</ele><time>2026-04-19T17:12:20Z</time></trkpt><trkpt lat="38.059013544253304" lon="14.893504756931232"><ele>412.0</ele><time>2026-04-19T17:12:21Z</time></trkpt><trkpt lat="38.058864921342945" lon="14.893564317115917"><ele>415.75</ele><time>2026-04-19T17:12:22Z</time></trkpt><trkpt lat="38.058718953212086" lon="14.893625533765162"><ele>419.5</ele><time>2026-04-19T17:12:23Z</time></trkpt><trkpt lat="38.05858607751216" lon="14.893691949256668"><ele>423.25</ele><time>2026-04-19T17:12:24Z</time></trkpt><trkpt lat="38.0584512871591" lon="14.893778146555658"><ele>427.0</ele><time>2026-04-19T17:12:25Z</time></trkpt><trkpt lat="38.0583217646631" lon="14.893890334068365"><ele>426.0</ele><time>2026-04-19T17:12:26Z</time></trkpt><trkpt lat="38.058195304233024" lon="14.89402434162829"><ele>425.0</ele><time>2026-04-19T17:12:27Z</time></trkpt><trkpt lat="38.058071337391716" lon="14.894165737381552"><ele>424.0</ele><time>2026-04-19T17:12:28Z</time></trkpt><trkpt lat="38.057940402374484" lon="14.894305300312771"><ele>426.6666666666667</ele><time>2026-04-19T17:12:29Z</time></trkpt><trkpt lat="38.05780466166102" lon="14.894442606150204"><ele>429.33333333333337</ele><time>2026-04-19T17:12:30Z</time></trkpt><trkpt lat="38.057665268510625" lon="14.89458204126034"><ele>432.0</ele><time>2026-04-19T17:12:31Z</time></trkpt><trkpt lat="38.05752256749491" lon="14.894725753728531"><ele>433.0</ele><time>2026-04-19T17:12:32Z</time></trkpt><trkpt lat="38.0573864092132" lon="14.894875478761591"><ele>434.0</ele><time>2026-04-19T17:12:33Z</time></trkpt><trkpt lat="38.05724539259027" lon="14.895027781308347"><ele>435.0</ele><time>2026-04-19T17:12:34Z</time></trkpt><trkpt lat="38.05710641878886" lon="14.895175966299849"><ele>435.0</ele><time>2026-04-19T17:12:35Z</time></trkpt><trkpt lat="38.05696896937811" lon="14.89532770098321"><ele>435.0</ele><time>2026-04-19T17:12:36Z</time></trkpt><trkpt lat="38.056837961266424" lon="14.895488733710046"><ele>435.0</ele><time>2026-04-19T17:12:37Z</time></trkpt><trkpt lat="38.05671353957971" lon="14.89565315109014"><ele>436.33333333333337</ele><time>2026-04-19T17:12:38Z</time></trkpt><trkpt lat="38.0565800014051" lon="14.895799110971698"><ele>437.6666666666667</ele><time>2026-04-19T17:12:39Z</time></trkpt><trkpt lat="38.05645811961637" lon="14.895960592126404"><ele>439.0</ele><time>2026-04-19T17:12:40Z</time></trkpt><trkpt lat="38.05634352050336" lon="14.89613000109182"><ele>439.0</ele><time>2026-04-19T17:12:41Z</time></trkpt><trkpt lat="38.056220050924345" lon="14.896281695201623"><ele>439.0</ele><time>2026-04-19T17:12:42Z</time></trkpt><trkpt lat="38.056098599084415" lon="14.896432353088132"><ele>439.0</ele><time>2026-04-19T17:12:43Z</time></trkpt><trkpt lat="38.055965149170376" lon="14.89657055071827"><ele>439.0</ele><time>2026-04-19T17:12:44Z</time></trkpt><trkpt lat="38.055815842198214" lon="14.896692061284341"><ele>439.0</ele><time>2026-04-19T17:12:45Z</time></trkpt><trkpt lat="38.05566430570121" lon="14.896795732881985"><ele>439.0</ele><time>2026-04-19T17:12:46Z</time></trkpt><trkpt lat="38.05552128440216" lon="14.896893392647671"><ele>440.25</ele><time>2026-04-19T17:12:47Z</time></trkpt><trkpt lat="38.05539722979695" lon="14.896991448817133"><ele>441.5</ele><time>2026-04-19T17:12:48Z</time></trkpt><trkpt lat="38.05529289092867" lon="14.897119625068054"><ele>442.75</ele><time>2026-04-19T17:12:49Z</time></trkpt><trkpt lat="38.055215077946514" lon="14.897278079714104"><ele>444.0</ele><time>2026-04-19T17:12:50Z</time></trkpt><trkpt lat="38.05517317210144" lon="14.897457130358756"><ele>445.0</ele><time>2026-04-19T17:12:51Z</time></trkpt><trkpt lat="38.05517460093716" lon="14.897640600174528"><ele>446.0</ele><time>2026-04-19T17:12:52Z</time></trkpt><trkpt lat="38.05521201321912" lon="14.897812721621623"><ele>447.0</ele><time>2026-04-19T17:12:53Z</time></trkpt><trkpt lat="38.055282205929" lon="14.89797846469224"><ele>448.0</ele><time>2026-04-19T17:12:54Z</time></trkpt><trkpt lat="38.055377558292335" lon="14.898133033319805"><ele>448.0</ele><time>2026-04-19T17:12:55Z</time></trkpt><trkpt lat="38.055470401881095" lon="14.898293606487785"><ele>448.0</ele><time>2026-04-19T17:12:56Z</time></trkpt><trkpt lat="38.05554734307983" lon="14.898452390961362"><ele>448.0</ele><time>2026-04-19T17:12:57Z</time></trkpt><trkpt lat="38.05561025172768" lon="14.89860306360078"><ele>448.0</ele><time>2026-04-19T17:12:58Z</time></trkpt><trkpt lat="38.055663035012124" lon="14.89875216564657"><ele>449.25</ele><time>2026-04-19T17:12:59Z</time></trkpt><trkpt lat="38.05570034509579" lon="14.898901131265983"><ele>450.5</ele><time>2026-04-19T17:13:00Z</time></trkpt><trkpt lat="38.055681034121285" lon="14.899055918713097"><ele>451.75</ele><time>2026-04-19T17:13:01Z</time></trkpt><trkpt lat="38.05564795061428" lon="14.899187409749207"><ele>453.0</ele><time>2026-04-19T17:13:02Z</time></trkpt><trkpt lat="38.05560978447057" lon="14.89931623821745"><ele>453.25</ele><time>2026-04-19T17:13:03Z</time></trkpt><trkpt lat="38.055512410711216" lon="14.899387825626224"><ele>453.5</ele><time>2026-04-19T17:13:04Z</time></trkpt><trkpt lat="38.05540793906671" lon="14.899458041824815"><ele>453.75</ele><time>2026-04-19T17:13:05Z</time></trkpt><trkpt lat="38.05529492906221" lon="14.899542244407447"><ele>454.0</ele><time>2026-04-19T17:13:06Z</time></trkpt><trkpt lat="38.05516853386471" lon="14.899619214831246"><ele>454.0</ele><time>2026-04-19T17:13:07Z</time></trkpt><trkpt lat="38.05503851175711" lon="14.899707449330116"><ele>454.0</ele><time>2026-04-19T17:13:08.001Z</time></trkpt><trkpt lat="38.05490807207493" lon="14.899805911137882"><ele>454.0</ele><time>2026-04-19T17:13:09.001Z</time></trkpt><trkpt lat="38.05478912529627" lon="14.899920993995641"><ele>454.0</ele><time>2026-04-19T17:13:10.001Z</time></trkpt><trkpt lat="38.05467869864333" lon="14.900046487177423"><ele>455.0</ele><time>2026-04-19T17:13:11.001Z</time></trkpt><trkpt lat="38.054580788258285" lon="14.900178557361592"><ele>456.0</ele><time>2026-04-19T17:13:12.001Z</time></trkpt><trkpt lat="38.054494344384366" lon="14.900331462829953"><ele>457.0</ele><time>2026-04-19T17:13:13.001Z</time></trkpt><trkpt lat="38.0544213469639" lon="14.900507214166371"><ele>458.0</ele><time>2026-04-19T17:13:14.001Z</time></trkpt><trkpt lat="38.054358887439385" lon="14.900703895171459"><ele>458.0</ele><time>2026-04-19T17:13:15.001Z</time></trkpt><trkpt lat="38.05430011382003" lon="14.900891433963764"><ele>458.0</ele><time>2026-04-19T17:13:16.001Z</time></trkpt><trkpt lat="38.054242005407325" lon="14.901081777268992"><ele>458.0</ele><time>2026-04-19T17:13:17.001Z</time></trkpt><trkpt lat="38.05417826820496" lon="14.90126198235122"><ele>461.3333333333333</ele><time>2026-04-19T17:13:18.001Z</time></trkpt><trkpt lat="38.054099506095326" lon="14.901431535329786"><ele>464.66666666666663</ele><time>2026-04-19T17:13:19.001Z</time></trkpt><trkpt lat="38.05400375130283" lon="14.901588717980719"><ele>468.0</ele><time>2026-04-19T17:13:20.001Z</time></trkpt><trkpt lat="38.05389214295807" lon="14.901738320957769"><ele>467.25</ele><time>2026-04-19T17:13:21.001Z</time></trkpt><trkpt lat="38.05378445970056" lon="14.901863854160387"><ele>466.5</ele><time>2026-04-19T17:13:22.001Z</time></trkpt><trkpt lat="38.05368614018906" lon="14.901970666684074"><ele>465.75</ele><time>2026-04-19T17:13:23.001Z</time></trkpt><trkpt lat="38.053604548165644" lon="14.902073695014357"><ele>465.0</ele><time>2026-04-19T17:13:24.001Z</time></trkpt><trkpt lat="38.05355077289729" lon="14.902198589745765"><ele>465.0</ele><time>2026-04-19T17:13:25.001Z</time></trkpt><trkpt lat="38.053535457143525" lon="14.90235333820146"><ele>465.0</ele><time>2026-04-19T17:13:26.001Z</time></trkpt><trkpt lat="38.05353778368494" lon="14.902531990638767"><ele>465.0</ele><time>2026-04-19T17:13:27.001Z</time></trkpt><trkpt lat="38.053540290171554" lon="14.902726717441812"><ele>465.0</ele><time>2026-04-19T17:13:28.001Z</time></trkpt><trkpt lat="38.05354608668998" lon="14.902926797821838"><ele>468.0</ele><time>2026-04-19T17:13:29.001Z</time></trkpt><trkpt lat="38.05353073417473" lon="14.903135132040884"><ele>471.0</ele><time>2026-04-19T17:13:30.001Z</time></trkpt><trkpt lat="38.053530734176555" lon="14.903323695650286"><ele>474.0</ele><time>2026-04-19T17:13:31.001Z</time></trkpt><trkpt lat="38.0535234829436" lon="14.903497040547224"><ele>477.75</ele><time>2026-04-19T17:13:32.001Z</time></trkpt><trkpt lat="38.053505596567206" lon="14.903665131611953"><ele>481.5</ele><time>2026-04-19T17:13:33.001Z</time></trkpt><trkpt lat="38.05347094500611" lon="14.90381663068931"><ele>485.25</ele><time>2026-04-19T17:13:34.001Z</time></trkpt><trkpt lat="38.053417273215864" lon="14.903957205024817"><ele>489.0</ele><time>2026-04-19T17:13:35.001Z</time></trkpt><trkpt lat="38.053341576929164" lon="14.904081750760938"><ele>488.75</ele><time>2026-04-19T17:13:36.001Z</time></trkpt><trkpt lat="38.053244362771665" lon="14.904200066292889"><ele>488.5</ele><time>2026-04-19T17:13:37.001Z</time></trkpt><trkpt lat="38.053139362491756" lon="14.904318667739714"><ele>488.25</ele><time>2026-04-19T17:13:38.001Z</time></trkpt><trkpt lat="38.05303352862906" lon="14.904436232430298"><ele>488.0</ele><time>2026-04-19T17:13:39.001Z</time></trkpt><trkpt lat="38.052931130057836" lon="14.904554545125194"><ele>488.0</ele><time>2026-04-19T17:13:40.001Z</time></trkpt><trkpt lat="38.05279140860284" lon="14.904625888435223"><ele>488.0</ele><time>2026-04-19T17:13:41.001Z</time></trkpt><trkpt lat="38.05265863272958" lon="14.904701372832607"><ele>488.0</ele><time>2026-04-19T17:13:42Z</time></trkpt><trkpt lat="38.05251429533894" lon="14.904773984946488"><ele>487.66666666666663</ele><time>2026-04-19T17:13:43Z</time></trkpt><trkpt lat="38.0523743364553" lon="14.90486370951667"><ele>487.33333333333337</ele><time>2026-04-19T17:13:44Z</time></trkpt><trkpt lat="38.05222921320026" lon="14.904934666832961"><ele>487.0</ele><time>2026-04-19T17:13:45Z</time></trkpt><trkpt lat="38.05208799319659" lon="14.905004352769337"><ele>490.0</ele><time>2026-04-19T17:13:46Z</time></trkpt><trkpt lat="38.05195131356084" lon="14.905080588299045"><ele>493.0</ele><time>2026-04-19T17:13:47Z</time></trkpt><trkpt lat="38.051820324481746" lon="14.905148045892556"><ele>496.0</ele><time>2026-04-19T17:13:48Z</time></trkpt><trkpt lat="38.05170611386355" lon="14.905244724756725"><ele>499.0</ele><time>2026-04-19T17:13:49Z</time></trkpt><trkpt lat="38.05161719925581" lon="14.90538179496099"><ele>500.33333333333337</ele><time>2026-04-19T17:13:50Z</time></trkpt><trkpt lat="38.05154481076706" lon="14.905553107409952"><ele>501.66666666666663</ele><time>2026-04-19T17:13:51Z</time></trkpt><trkpt lat="38.051478606879016" lon="14.905729162687079"><ele>503.0</ele><time>2026-04-19T17:13:52Z</time></trkpt><trkpt lat="38.05143668860203" lon="14.90592015321934"><ele>503.0</ele><time>2026-04-19T17:13:53Z</time></trkpt><trkpt lat="38.0514133789564" lon="14.906127836248794"><ele>503.0</ele><time>2026-04-19T17:13:54Z</time></trkpt><trkpt lat="38.05139980894111" lon="14.906346954536454"><ele>503.0</ele><time>2026-04-19T17:13:55Z</time></trkpt><trkpt lat="38.05138632790837" lon="14.90655289978135"><ele>502.66666666666663</ele><time>2026-04-19T17:13:56Z</time></trkpt><trkpt lat="38.051354632104534" lon="14.906774396709519"><ele>502.33333333333337</ele><time>2026-04-19T17:13:57Z</time></trkpt><trkpt lat="38.051334610958996" lon="14.907006257136024"><ele>502.0</ele><time>2026-04-19T17:13:58Z</time></trkpt><trkpt lat="38.05132846801213" lon="14.907250605529027"><ele>502.0</ele><time>2026-04-19T17:13:59Z</time></trkpt><trkpt lat="38.0513030224137" lon="14.907495891940984"><ele>502.0</ele><time>2026-04-19T17:14:00Z</time></trkpt><trkpt lat="38.051282504253" lon="14.90772742020641"><ele>502.0</ele><time>2026-04-19T17:14:01Z</time></trkpt><trkpt lat="38.051262312971396" lon="14.907945804419645"><ele>502.0</ele><time>2026-04-19T17:14:02Z</time></trkpt><trkpt lat="38.051231211259264" lon="14.908157628578397"><ele>502.0</ele><time>2026-04-19T17:14:03Z</time></trkpt><trkpt lat="38.0512129740707" lon="14.908358599229004"><ele>502.0</ele><time>2026-04-19T17:14:04Z</time></trkpt><trkpt lat="38.05119570517177" lon="14.908538117934249"><ele>502.75</ele><time>2026-04-19T17:14:05Z</time></trkpt><trkpt lat="38.0511767629951" lon="14.90869968848444"><ele>503.5</ele><time>2026-04-19T17:14:06Z</time></trkpt><trkpt lat="38.05114574462438" lon="14.908843210871764"><ele>504.25</ele><time>2026-04-19T17:14:07Z</time></trkpt><trkpt lat="38.05109267453715" lon="14.908969238555674"><ele>505.0</ele><time>2026-04-19T17:14:08Z</time></trkpt><trkpt lat="38.05101633522658" lon="14.909074385664017"><ele>505.0</ele><time>2026-04-19T17:14:09Z</time></trkpt><trkpt lat="38.05091135339329" lon="14.909180542466398"><ele>505.0</ele><time>2026-04-19T17:14:10Z</time></trkpt><trkpt lat="38.050800217520084" lon="14.909292658082176"><ele>505.0</ele><time>2026-04-19T17:14:11Z</time></trkpt><trkpt lat="38.05070050240881" lon="14.909424205201852"><ele>505.0</ele><time>2026-04-19T17:14:12Z</time></trkpt><trkpt lat="38.050581874994585" lon="14.909532791243167"><ele>509.6666666666667</ele><time>2026-04-19T17:14:13Z</time></trkpt><trkpt lat="38.05044940743092" lon="14.909630793143485"><ele>514.3333333333334</ele><time>2026-04-19T17:14:14Z</time></trkpt><trkpt lat="38.05029698212123" lon="14.90967215716341"><ele>519.0</ele><time>2026-04-19T17:14:15Z</time></trkpt><trkpt lat="38.0501442138911" lon="14.909731842875265"><ele>519.0</ele><time>2026-04-19T17:14:16Z</time></trkpt><trkpt lat="38.04999681575114" lon="14.90978573106817"><ele>519.0</ele><time>2026-04-19T17:14:17Z</time></trkpt><trkpt lat="38.04985416849267" lon="14.909864494015789"><ele>519.0</ele><time>2026-04-19T17:14:18Z</time></trkpt><trkpt lat="38.049725990393426" lon="14.909962777150083"><ele>520.0</ele><time>2026-04-19T17:14:19Z</time></trkpt><trkpt lat="38.04961894936895" lon="14.91007228942186"><ele>521.0</ele><time>2026-04-19T17:14:20Z</time></trkpt><trkpt lat="38.04953548961169" lon="14.910201388527032"><ele>522.0</ele><time>2026-04-19T17:14:21Z</time></trkpt><trkpt lat="38.04946380382397" lon="14.91035675306364"><ele>523.0</ele><time>2026-04-19T17:14:22Z</time></trkpt><trkpt lat="38.04939372184585" lon="14.910530495695436"><ele>523.0</ele><time>2026-04-19T17:14:23Z</time></trkpt><trkpt lat="38.04932049063883" lon="14.910695426860372"><ele>523.0</ele><time>2026-04-19T17:14:24Z</time></trkpt><trkpt lat="38.04925197240019" lon="14.91082916069881"><ele>523.0</ele><time>2026-04-19T17:14:25Z</time></trkpt><trkpt lat="38.04918112746596" lon="14.910952970722102"><ele>523.0</ele><time>2026-04-19T17:14:26Z</time></trkpt><trkpt lat="38.049142013016365" lon="14.91107297225444"><ele>526.0</ele><time>2026-04-19T17:14:27Z</time></trkpt><trkpt lat="38.04915199995936" lon="14.911177219210485"><ele>529.0</ele><time>2026-04-19T17:14:28Z</time></trkpt><trkpt lat="38.049197255910975" lon="14.911268343160117"><ele>532.0</ele><time>2026-04-19T17:14:29Z</time></trkpt><trkpt lat="38.049284858489344" lon="14.911298861984271"><ele>535.0</ele><time>2026-04-19T17:14:30Z</time></trkpt><trkpt lat="38.04937312989472" lon="14.911265364466422"><ele>538.0</ele><time>2026-04-19T17:14:31Z</time></trkpt><trkpt lat="38.04944021199353" lon="14.911186288910912"><ele>541.0</ele><time>2026-04-19T17:14:32Z</time></trkpt><trkpt lat="38.049480572331035" lon="14.911055257690808"><ele>541.0</ele><time>2026-04-19T17:14:33Z</time></trkpt><trkpt lat="38.04950103211439" lon="14.91092232031943"><ele>541.0</ele><time>2026-04-19T17:14:34Z</time></trkpt><trkpt lat="38.04955864535999" lon="14.910820859842538"><ele>541.0</ele><time>2026-04-19T17:14:35Z</time></trkpt><trkpt lat="38.04961249810971" lon="14.910713168600013"><ele>541.0</ele><time>2026-04-19T17:14:36Z</time></trkpt><trkpt lat="38.04966921118412" lon="14.910615757565788"><ele>541.0</ele><time>2026-04-19T17:14:37Z</time></trkpt><trkpt lat="38.04972844433452" lon="14.910535865676234"><ele>541.6666666666667</ele><time>2026-04-19T17:14:38Z</time></trkpt><trkpt lat="38.049780386919764" lon="14.910477714301793"><ele>542.3333333333334</ele><time>2026-04-19T17:14:39Z</time></trkpt><trkpt lat="38.049854879799675" lon="14.910431310228741"><ele>543.0</ele><time>2026-04-19T17:14:41Z</time></trkpt><trkpt lat="38.04989124972382" lon="14.910365284872718"><ele>543.6666666666666</ele><time>2026-04-19T17:14:57Z</time></trkpt><trkpt lat="38.04982880189091" lon="14.91037682334598"><ele>544.3333333333333</ele><time>2026-04-19T17:15:03Z</time></trkpt><trkpt lat="38.049903451066925" lon="14.910375534377392"><ele>545.0</ele><time>2026-04-19T17:15:39.001Z</time></trkpt><trkpt lat="38.050020279847715" lon="14.910292512863608"><ele>545.0</ele><time>2026-04-19T17:15:41.001Z</time></trkpt><trkpt lat="38.05008342602086" lon="14.91026434781841"><ele>545.0</ele><time>2026-04-19T17:15:42.001Z</time></trkpt><trkpt lat="38.0501993360395" lon="14.910236926749056"><ele>545.0</ele><time>2026-04-19T17:15:44.001Z</time></trkpt><trkpt lat="38.050276271135154" lon="14.910246316421917"><ele>545.0</ele><time>2026-04-19T17:15:46.001Z</time></trkpt><trkpt lat="38.0503394814957" lon="14.910266285901985"><ele>545.0</ele><time>2026-04-19T17:15:50Z</time></trkpt><trkpt lat="38.05043013163033" lon="14.91030813465614"><ele>545.0</ele><time>2026-04-19T17:15:57Z</time></trkpt><trkpt lat="38.05050557837545" lon="14.910367835981788"><ele>545.0</ele><time>2026-04-19T17:15:59Z</time></trkpt><trkpt lat="38.050585208405835" lon="14.910409062117498"><ele>545.0</ele><time>2026-04-19T17:16:01Z</time></trkpt><trkpt lat="38.05065723657936" lon="14.91044635259107"><ele>545.0</ele><time>2026-04-19T17:16:03Z</time></trkpt><trkpt lat="38.05072937398917" lon="14.910479854386217"><ele>545.0</ele><time>2026-04-19T17:16:55Z</time></trkpt><trkpt lat="38.05083072053776" lon="14.91050338776841"><ele>545.0</ele><time>2026-04-19T17:16:57Z</time></trkpt><trkpt lat="38.05090596436355" lon="14.910475783451986"><ele>545.0</ele><time>2026-04-19T17:16:58Z</time></trkpt><trkpt lat="38.05097299982488" lon="14.910448447633405"><ele>546.0</ele><time>2026-04-19T17:16:59.001Z</time></trkpt><trkpt lat="38.05103757025714" lon="14.910374758707505"><ele>547.0</ele><time>2026-04-19T17:17:00.001Z</time></trkpt><trkpt lat="38.0510998128275" lon="14.91028646582978"><ele>548.0</ele><time>2026-04-19T17:17:01.001Z</time></trkpt><trkpt lat="38.051178496355725" lon="14.910193770114331"><ele>549.0</ele><time>2026-04-19T17:17:02.001Z</time></trkpt><trkpt lat="38.0512729774112" lon="14.910095459309717"><ele>550.0</ele><time>2026-04-19T17:17:03.001Z</time></trkpt><trkpt lat="38.051378446134414" lon="14.909985510635744"><ele>549.25</ele><time>2026-04-19T17:17:04.001Z</time></trkpt><trkpt lat="38.051485004666475" lon="14.909891852911283"><ele>548.5</ele><time>2026-04-19T17:17:05.001Z</time></trkpt><trkpt lat="38.051604979944074" lon="14.909810882871065"><ele>547.75</ele><time>2026-04-19T17:17:06.001Z</time></trkpt><trkpt lat="38.05172107742225" lon="14.909749302736422"><ele>547.0</ele><time>2026-04-19T17:17:07.001Z</time></trkpt><trkpt lat="38.05181137145635" lon="14.909694879584917"><ele>547.0</ele><time>2026-04-19T17:17:08.001Z</time></trkpt><trkpt lat="38.05188040274769" lon="14.90960423592819"><ele>547.0</ele><time>2026-04-19T17:17:09.001Z</time></trkpt><trkpt lat="38.051943625227786" lon="14.909514756004302"><ele>547.0</ele><time>2026-04-19T17:17:10.001Z</time></trkpt><trkpt lat="38.05200936508992" lon="14.90944803903017"><ele>547.0</ele><time>2026-04-19T17:17:11.001Z</time></trkpt><trkpt lat="38.052079780597175" lon="14.909420662655519"><ele>547.0</ele><time>2026-04-19T17:17:12.001Z</time></trkpt><trkpt lat="38.05214522593721" lon="14.909441225597677"><ele>547.0</ele><time>2026-04-19T17:17:13.001Z</time></trkpt><trkpt lat="38.05214603587997" lon="14.909579690851169"><ele>547.0</ele><time>2026-04-19T17:17:15.001Z</time></trkpt><trkpt lat="38.05209564856838" lon="14.909630659656848"><ele>547.0</ele><time>2026-04-19T17:17:16.001Z</time></trkpt><trkpt lat="38.052043057465205" lon="14.909715624583672"><ele>547.0</ele><time>2026-04-19T17:17:17.001Z</time></trkpt><trkpt lat="38.05196466909777" lon="14.90979017046343"><ele>547.0</ele><time>2026-04-19T17:17:18.001Z</time></trkpt><trkpt lat="38.05188361753595" lon="14.909871580045554"><ele>547.0</ele><time>2026-04-19T17:17:19.001Z</time></trkpt><trkpt lat="38.05180822664175" lon="14.909957469660965"><ele>547.0</ele><time>2026-04-19T17:17:20.001Z</time></trkpt><trkpt lat="38.051724877290184" lon="14.910043671946935"><ele>547.0</ele><time>2026-04-19T17:17:21.001Z</time></trkpt><trkpt lat="38.05163857242244" lon="14.910131100911432"><ele>547.0</ele><time>2026-04-19T17:17:22.001Z</time></trkpt><trkpt lat="38.05155421719523" lon="14.910222919009403"><ele>547.0</ele><time>2026-04-19T17:17:23.001Z</time></trkpt><trkpt lat="38.05146653264126" lon="14.910318623750523"><ele>547.0</ele><time>2026-04-19T17:17:24.001Z</time></trkpt><trkpt lat="38.051399920811384" lon="14.910453945513392"><ele>547.75</ele><time>2026-04-19T17:17:25.001Z</time></trkpt><trkpt lat="38.05134318122382" lon="14.910600073762456"><ele>548.5</ele><time>2026-04-19T17:17:26.001Z</time></trkpt><trkpt lat="38.051286214686954" lon="14.910715800162155"><ele>549.25</ele><time>2026-04-19T17:17:27.001Z</time></trkpt><trkpt lat="38.05119855887171" lon="14.910807291387686"><ele>550.0</ele><time>2026-04-19T17:17:28.001Z</time></trkpt><trkpt lat="38.0510887220101" lon="14.91087163677959"><ele>554.0</ele><time>2026-04-19T17:17:29.001Z</time></trkpt><trkpt lat="38.050979281814676" lon="14.910934604311281"><ele>558.0</ele><time>2026-04-19T17:17:30.001Z</time></trkpt><trkpt lat="38.050865861518155" lon="14.910955565380943"><ele>562.0</ele><time>2026-04-19T17:17:31.001Z</time></trkpt><trkpt lat="38.05076253065818" lon="14.910966832550127"><ele>566.0</ele><time>2026-04-19T17:17:32.001Z</time></trkpt><trkpt lat="38.05066898624244" lon="14.910966369035563"><ele>570.0</ele><time>2026-04-19T17:17:33.001Z</time></trkpt><trkpt lat="38.050585958024" lon="14.910979553364196"><ele>570.0</ele><time>2026-04-19T17:17:34.001Z</time></trkpt><trkpt lat="38.05051277248383" lon="14.911014423287437"><ele>570.0</ele><time>2026-04-19T17:17:35.001Z</time></trkpt><trkpt lat="38.05046725194846" lon="14.911089924193094"><ele>570.0</ele><time>2026-04-19T17:17:36.001Z</time></trkpt><trkpt lat="38.05047012077629" lon="14.911187345894387"><ele>570.0</ele><time>2026-04-19T17:17:37.001Z</time></trkpt><trkpt lat="38.05052062865032" lon="14.911279395014263"><ele>570.0</ele><time>2026-04-19T17:17:38.001Z</time></trkpt><trkpt lat="38.050598292011834" lon="14.91132528425537"><ele>570.0</ele><time>2026-04-19T17:17:39.001Z</time></trkpt><trkpt lat="38.05068931033667" lon="14.911319041648152"><ele>570.0</ele><time>2026-04-19T17:17:40.001Z</time></trkpt><trkpt lat="38.050750149246085" lon="14.911255623812309"><ele>570.0</ele><time>2026-04-19T17:17:41.001Z</time></trkpt><trkpt lat="38.050839674504935" lon="14.911195093188773"><ele>570.0</ele><time>2026-04-19T17:17:42.001Z</time></trkpt><trkpt lat="38.0509522174163" lon="14.911152932159327"><ele>570.0</ele><time>2026-04-19T17:17:43.001Z</time></trkpt><trkpt lat="38.0510797992617" lon="14.911120302284964"><ele>570.0</ele><time>2026-04-19T17:17:44.001Z</time></trkpt><trkpt lat="38.05119758540693" lon="14.911089244938127"><ele>570.5</ele><time>2026-04-19T17:17:45.001Z</time></trkpt><trkpt lat="38.051322270809436" lon="14.911050150488848"><ele>571.0</ele><time>2026-04-19T17:17:46.001Z</time></trkpt><trkpt lat="38.05144415605049" lon="14.910981711216758"><ele>571.5</ele><time>2026-04-19T17:17:47.001Z</time></trkpt><trkpt lat="38.0515550475577" lon="14.910884375763281"><ele>572.0</ele><time>2026-04-19T17:17:48.001Z</time></trkpt><trkpt lat="38.05166106720034" lon="14.91076587749208"><ele>572.0</ele><time>2026-04-19T17:17:49.001Z</time></trkpt><trkpt lat="38.05176409187511" lon="14.910635403901514"><ele>572.0</ele><time>2026-04-19T17:17:50.001Z</time></trkpt><trkpt lat="38.05187640038227" lon="14.91053239035129"><ele>572.0</ele><time>2026-04-19T17:17:51.001Z</time></trkpt><trkpt lat="38.0519730116866" lon="14.910416738160835"><ele>572.0</ele><time>2026-04-19T17:17:52.001Z</time></trkpt><trkpt lat="38.05207713630431" lon="14.91030683815231"><ele>572.0</ele><time>2026-04-19T17:17:53.001Z</time></trkpt><trkpt lat="38.052197672754126" lon="14.910241947697019"><ele>572.0</ele><time>2026-04-19T17:17:54Z</time></trkpt><trkpt lat="38.05230931354476" lon="14.910184865648958"><ele>572.0</ele><time>2026-04-19T17:17:55Z</time></trkpt><trkpt lat="38.05241978592636" lon="14.910164133375943"><ele>572.0</ele><time>2026-04-19T17:17:56Z</time></trkpt><trkpt lat="38.05250666265996" lon="14.910190945864862"><ele>574.8000000000001</ele><time>2026-04-19T17:17:57Z</time></trkpt><trkpt lat="38.05257300523749" lon="14.910250209518574"><ele>577.6</ele><time>2026-04-19T17:17:58Z</time></trkpt><trkpt lat="38.052619878518264" lon="14.910333284896263"><ele>580.4000000000001</ele><time>2026-04-19T17:17:59Z</time></trkpt><trkpt lat="38.052669549718715" lon="14.9104276985987"><ele>583.2</ele><time>2026-04-19T17:18:00Z</time></trkpt><trkpt lat="38.05272640816303" lon="14.910531827261517"><ele>586.0</ele><time>2026-04-19T17:18:01Z</time></trkpt><trkpt lat="38.05276992730965" lon="14.910650095948728"><ele>586.0</ele><time>2026-04-19T17:18:02Z</time></trkpt><trkpt lat="38.052803092785915" lon="14.910767594743149"><ele>586.0</ele><time>2026-04-19T17:18:03Z</time></trkpt><trkpt lat="38.052837092585" lon="14.910881193236424"><ele>586.0</ele><time>2026-04-19T17:18:04Z</time></trkpt><trkpt lat="38.05287131765304" lon="14.910997967382457"><ele>586.0</ele><time>2026-04-19T17:18:05Z</time></trkpt><trkpt lat="38.0529075400023" lon="14.911124081062427"><ele>586.0</ele><time>2026-04-19T17:18:06Z</time></trkpt><trkpt lat="38.05294623541211" lon="14.911260509440964"><ele>593.25</ele><time>2026-04-19T17:18:07Z</time></trkpt><trkpt lat="38.052984267245876" lon="14.911394965738113"><ele>600.5</ele><time>2026-04-19T17:18:08Z</time></trkpt><trkpt lat="38.05301906163857" lon="14.911518596872424"><ele>607.75</ele><time>2026-04-19T17:18:09Z</time></trkpt><trkpt lat="38.05306298388497" lon="14.911674742288893"><ele>615.0</ele><time>2026-04-19T17:18:10Z</time></trkpt><trkpt lat="38.05310606360385" lon="14.911822348453223"><ele>614.25</ele><time>2026-04-19T17:18:11Z</time></trkpt><trkpt lat="38.053152121362814" lon="14.911971931214488"><ele>613.5</ele><time>2026-04-19T17:18:12Z</time></trkpt><trkpt lat="38.05320182926828" lon="14.912124262704427"><ele>612.75</ele><time>2026-04-19T17:18:13Z</time></trkpt><trkpt lat="38.05326095203325" lon="14.912254309199788"><ele>612.0</ele><time>2026-04-19T17:18:14Z</time></trkpt><trkpt lat="38.05332133129591" lon="14.91238770440137"><ele>612.0</ele><time>2026-04-19T17:18:15Z</time></trkpt><trkpt lat="38.05337713471863" lon="14.912487448889259"><ele>612.0</ele><time>2026-04-19T17:18:16Z</time></trkpt><trkpt lat="38.0534311076245" lon="14.912548987702737"><ele>612.0</ele><time>2026-04-19T17:18:17Z</time></trkpt><trkpt lat="38.05349931034686" lon="14.912546491676574"><ele>612.0</ele><time>2026-04-19T17:18:18Z</time></trkpt><trkpt lat="38.05356443871573" lon="14.912500547481772"><ele>612.0</ele><time>2026-04-19T17:18:19Z</time></trkpt><trkpt lat="38.05362270977991" lon="14.912427491514848"><ele>612.0</ele><time>2026-04-19T17:18:20Z</time></trkpt><trkpt lat="38.05368352632357" lon="14.912358457092795"><ele>612.0</ele><time>2026-04-19T17:18:21Z</time></trkpt><trkpt lat="38.053736176667684" lon="14.91228608786571"><ele>612.0</ele><time>2026-04-19T17:18:22Z</time></trkpt><trkpt lat="38.05374192929527" lon="14.912172441559662"><ele>612.0</ele><time>2026-04-19T17:18:23Z</time></trkpt><trkpt lat="38.053711699552636" lon="14.912066592862672"><ele>612.0</ele><time>2026-04-19T17:18:24Z</time></trkpt><trkpt lat="38.0536697288919" lon="14.911976520717458"><ele>612.0</ele><time>2026-04-19T17:18:25Z</time></trkpt><trkpt lat="38.05366637228851" lon="14.911876249290357"><ele>612.0</ele><time>2026-04-19T17:18:26Z</time></trkpt><trkpt lat="38.05370141630811" lon="14.91176111617795"><ele>608.4</ele><time>2026-04-19T17:18:27Z</time></trkpt><trkpt lat="38.05374897427271" lon="14.911640992118107"><ele>604.8000000000001</ele><time>2026-04-19T17:18:28Z</time></trkpt><trkpt lat="38.053798056368365" lon="14.91153199605088"><ele>601.2</ele><time>2026-04-19T17:18:29Z</time></trkpt><trkpt lat="38.053825534767036" lon="14.91143514641174"><ele>597.6</ele><time>2026-04-19T17:18:30Z</time></trkpt><trkpt lat="38.05384326523126" lon="14.911307788796298"><ele>594.0</ele><time>2026-04-19T17:18:31Z</time></trkpt><trkpt lat="38.05385228498346" lon="14.91115460296056"><ele>594.0</ele><time>2026-04-19T17:18:32Z</time></trkpt><trkpt lat="38.05383260294857" lon="14.911009087162"><ele>594.0</ele><time>2026-04-19T17:18:33Z</time></trkpt><trkpt lat="38.053803944523985" lon="14.910867997960414"><ele>594.0</ele><time>2026-04-19T17:18:34Z</time></trkpt><trkpt lat="38.05378394588905" lon="14.910733085974066"><ele>594.0</ele><time>2026-04-19T17:18:35Z</time></trkpt><trkpt lat="38.05376752252844" lon="14.910601724526666"><ele>594.0</ele><time>2026-04-19T17:18:36Z</time></trkpt><trkpt lat="38.05375482250946" lon="14.910474093312127"><ele>591.8333333333334</ele><time>2026-04-19T17:18:37Z</time></trkpt><trkpt lat="38.05373831197682" lon="14.910352479287715"><ele>589.6666666666666</ele><time>2026-04-19T17:18:38Z</time></trkpt><trkpt lat="38.05372853407439" lon="14.910244839144823"><ele>587.5</ele><time>2026-04-19T17:18:39Z</time></trkpt><trkpt lat="38.053726937295714" lon="14.910141474358984"><ele>585.3333333333333</ele><time>2026-04-19T17:18:40Z</time></trkpt><trkpt lat="38.05374779514893" lon="14.910042901154982"><ele>583.1666666666666</ele><time>2026-04-19T17:18:41Z</time></trkpt><trkpt lat="38.05379630579518" lon="14.909959125915174"><ele>581.0</ele><time>2026-04-19T17:18:42Z</time></trkpt><trkpt lat="38.05383116725762" lon="14.909851400744095"><ele>579.6</ele><time>2026-04-19T17:18:43Z</time></trkpt><trkpt lat="38.05391311895515" lon="14.909783214793572"><ele>578.2</ele><time>2026-04-19T17:18:44Z</time></trkpt><trkpt lat="38.05397023415749" lon="14.90968503501756"><ele>576.8</ele><time>2026-04-19T17:18:45Z</time></trkpt><trkpt lat="38.05400499864048" lon="14.909580060637825"><ele>575.4</ele><time>2026-04-19T17:18:46.001Z</time></trkpt><trkpt lat="38.053987918881596" lon="14.909452210367034"><ele>574.0</ele><time>2026-04-19T17:18:47.001Z</time></trkpt><trkpt lat="38.05394913028975" lon="14.909327400646905"><ele>573.4</ele><time>2026-04-19T17:18:48.001Z</time></trkpt><trkpt lat="38.05391972676606" lon="14.90920171115022"><ele>572.8</ele><time>2026-04-19T17:18:49.001Z</time></trkpt><trkpt lat="38.05391279880668" lon="14.909071059455888"><ele>572.2</ele><time>2026-04-19T17:18:50.001Z</time></trkpt><trkpt lat="38.0539475834592" lon="14.908951657070075"><ele>571.6</ele><time>2026-04-19T17:18:51.001Z</time></trkpt><trkpt lat="38.053970719087225" lon="14.908831202253532"><ele>571.0</ele><time>2026-04-19T17:18:52.001Z</time></trkpt><trkpt lat="38.053967774614414" lon="14.908717122092574"><ele>571.0</ele><time>2026-04-19T17:18:53.001Z</time></trkpt><trkpt lat="38.05396299577863" lon="14.908601138847322"><ele>571.0</ele><time>2026-04-19T17:18:54.001Z</time></trkpt><trkpt lat="38.053956772671505" lon="14.908481951331662"><ele>571.0</ele><time>2026-04-19T17:18:55.001Z</time></trkpt><trkpt lat="38.05397423723476" lon="14.908358987855483"><ele>571.0</ele><time>2026-04-19T17:18:56.001Z</time></trkpt><trkpt lat="38.054021779665085" lon="14.908248975901232"><ele>571.0</ele><time>2026-04-19T17:18:57.001Z</time></trkpt><trkpt lat="38.05408096305681" lon="14.908145014992945"><ele>580.0</ele><time>2026-04-19T17:18:58.001Z</time></trkpt><trkpt lat="38.054145499830845" lon="14.908049205027638"><ele>589.0</ele><time>2026-04-19T17:18:59.001Z</time></trkpt><trkpt lat="38.05420787236861" lon="14.907945105093468"><ele>598.0</ele><time>2026-04-19T17:19:00.001Z</time></trkpt><trkpt lat="38.054278343563105" lon="14.907838177009731"><ele>607.0</ele><time>2026-04-19T17:19:01.001Z</time></trkpt><trkpt lat="38.05435039870997" lon="14.907718373209146"><ele>616.0</ele><time>2026-04-19T17:19:02.001Z</time></trkpt><trkpt lat="38.05442874695271" lon="14.907619919606661"><ele>612.0</ele><time>2026-04-19T17:19:03.001Z</time></trkpt><trkpt lat="38.054491061503036" lon="14.907516565992387"><ele>608.0</ele><time>2026-04-19T17:19:04.001Z</time></trkpt><trkpt lat="38.05455464986637" lon="14.907417875811605"><ele>604.0</ele><time>2026-04-19T17:19:05.001Z</time></trkpt><trkpt lat="38.05462664175346" lon="14.907329426027761"><ele>600.0</ele><time>2026-04-19T17:19:06.001Z</time></trkpt><trkpt lat="38.054713146770744" lon="14.907270573890647"><ele>596.0</ele><time>2026-04-19T17:19:07.001Z</time></trkpt><trkpt lat="38.054807818794956" lon="14.907249637737003"><ele>596.0</ele><time>2026-04-19T17:19:08.001Z</time></trkpt><trkpt lat="38.054908650575605" lon="14.907242268483895"><ele>596.0</ele><time>2026-04-19T17:19:09.001Z</time></trkpt><trkpt lat="38.055009440767826" lon="14.90726881022151"><ele>596.0</ele><time>2026-04-19T17:19:10.001Z</time></trkpt><trkpt lat="38.05510739147128" lon="14.907318355081884"><ele>596.0</ele><time>2026-04-19T17:19:11.001Z</time></trkpt><trkpt lat="38.05519259913099" lon="14.9073973381194"><ele>596.0</ele><time>2026-04-19T17:19:12.001Z</time></trkpt><trkpt lat="38.05526562475361" lon="14.907496169911976"><ele>607.5</ele><time>2026-04-19T17:19:13.001Z</time></trkpt><trkpt lat="38.055336270455676" lon="14.907603475098522"><ele>619.0</ele><time>2026-04-19T17:19:14.001Z</time></trkpt><trkpt lat="38.055420093944576" lon="14.907702510059856"><ele>630.5</ele><time>2026-04-19T17:19:15.001Z</time></trkpt><trkpt lat="38.05552422114612" lon="14.907786410518394"><ele>642.0</ele><time>2026-04-19T17:19:16.001Z</time></trkpt><trkpt lat="38.055638208820845" lon="14.907863707907762"><ele>642.0</ele><time>2026-04-19T17:19:17.001Z</time></trkpt><trkpt lat="38.05575278625249" lon="14.90794274721"><ele>642.0</ele><time>2026-04-19T17:19:18.001Z</time></trkpt><trkpt lat="38.05586605425912" lon="14.908022283168535"><ele>642.0</ele><time>2026-04-19T17:19:19.001Z</time></trkpt><trkpt lat="38.05597868798415" lon="14.908103056546999"><ele>642.0</ele><time>2026-04-19T17:19:20.001Z</time></trkpt><trkpt lat="38.056089298331884" lon="14.908184772953344"><ele>644.0</ele><time>2026-04-19T17:19:21.001Z</time></trkpt><trkpt lat="38.056195648417244" lon="14.908266874776343"><ele>646.0</ele><time>2026-04-19T17:19:22.001Z</time></trkpt><trkpt lat="38.056299279492706" lon="14.90834863781582"><ele>648.0</ele><time>2026-04-19T17:19:23.001Z</time></trkpt><trkpt lat="38.056398945612685" lon="14.908421992587364"><ele>650.0</ele><time>2026-04-19T17:19:24.001Z</time></trkpt><trkpt lat="38.05649819613918" lon="14.908474841506798"><ele>650.0</ele><time>2026-04-19T17:19:25.001Z</time></trkpt><trkpt lat="38.056599553153646" lon="14.908495100094099"><ele>650.0</ele><time>2026-04-19T17:19:26.001Z</time></trkpt><trkpt lat="38.05669992485574" lon="14.90849104906174"><ele>650.0</ele><time>2026-04-19T17:19:27.001Z</time></trkpt><trkpt lat="38.056795554306284" lon="14.908488490574182"><ele>650.0</ele><time>2026-04-19T17:19:28.001Z</time></trkpt><trkpt lat="38.0568871051508" lon="14.908517293961312"><ele>650.0</ele><time>2026-04-19T17:19:29.001Z</time></trkpt><trkpt lat="38.056973309262276" lon="14.908571083774538"><ele>648.4</ele><time>2026-04-19T17:19:30.001Z</time></trkpt><trkpt lat="38.057027208609405" lon="14.908675542180776"><ele>646.8</ele><time>2026-04-19T17:19:31.001Z</time></trkpt><trkpt lat="38.05708382261165" lon="14.908779262694088"><ele>645.2</ele><time>2026-04-19T17:19:32.001Z</time></trkpt><trkpt lat="38.05713437412356" lon="14.908894327532632"><ele>643.6</ele><time>2026-04-19T17:19:33.001Z</time></trkpt><trkpt lat="38.05719235682516" lon="14.909007376998574"><ele>642.0</ele><time>2026-04-19T17:19:34.001Z</time></trkpt><trkpt lat="38.05724007631494" lon="14.909129290032475"><ele>643.6</ele><time>2026-04-19T17:19:35.001Z</time></trkpt><trkpt lat="38.05728886884557" lon="14.90925483356103"><ele>645.2</ele><time>2026-04-19T17:19:36.001Z</time></trkpt><trkpt lat="38.05734436177236" lon="14.909368994168036"><ele>646.8</ele><time>2026-04-19T17:19:37.001Z</time></trkpt><trkpt lat="38.057424655028576" lon="14.909447017547622"><ele>648.4</ele><time>2026-04-19T17:19:38.001Z</time></trkpt><trkpt lat="38.05752700254111" lon="14.909483215167157"><ele>650.0</ele><time>2026-04-19T17:19:39.001Z</time></trkpt><trkpt lat="38.05763761138499" lon="14.909475199020582"><ele>650.0</ele><time>2026-04-19T17:19:40.001Z</time></trkpt><trkpt lat="38.05774824969743" lon="14.909453725853764"><ele>650.0</ele><time>2026-04-19T17:19:41.001Z</time></trkpt><trkpt lat="38.05785592382135" lon="14.909444036269624"><ele>650.0</ele><time>2026-04-19T17:19:42.001Z</time></trkpt><trkpt lat="38.05796354080877" lon="14.909455424797942"><ele>650.0</ele><time>2026-04-19T17:19:43.001Z</time></trkpt><trkpt lat="38.05806543539737" lon="14.909492305899972"><ele>650.0</ele><time>2026-04-19T17:19:44.001Z</time></trkpt><trkpt lat="38.05813079346956" lon="14.909575498387516"><ele>650.0</ele><time>2026-04-19T17:19:45.001Z</time></trkpt><trkpt lat="38.05819506183399" lon="14.909642491737129"><ele>650.0</ele><time>2026-04-19T17:19:46.001Z</time></trkpt><trkpt lat="38.05820394778312" lon="14.909772945311756"><ele>650.0</ele><time>2026-04-19T17:19:48.001Z</time></trkpt><trkpt lat="38.05815022899247" lon="14.90986220242596"><ele>650.0</ele><time>2026-04-19T17:20:31Z</time></trkpt><trkpt lat="38.05805207508163" lon="14.909841068477157"><ele>650.0</ele><time>2026-04-19T17:20:33Z</time></trkpt><trkpt lat="38.05799894655507" lon="14.909787614075364"><ele>650.0</ele><time>2026-04-19T17:20:34Z</time></trkpt><trkpt lat="38.05795656982939" lon="14.90972221540654"><ele>650.0</ele><time>2026-04-19T17:20:35Z</time></trkpt><trkpt lat="38.05785971585764" lon="14.90964903016742"><ele>650.0</ele><time>2026-04-19T17:20:37Z</time></trkpt><trkpt lat="38.05778923980788" lon="14.909642837339934"><ele>650.0</ele><time>2026-04-19T17:20:38Z</time></trkpt><trkpt lat="38.05770948691787" lon="14.909640152280934"><ele>650.0</ele><time>2026-04-19T17:20:39Z</time></trkpt><trkpt lat="38.05762748240038" lon="14.909634386710621"><ele>650.0</ele><time>2026-04-19T17:20:40Z</time></trkpt><trkpt lat="38.05753874625" lon="14.90963329513023"><ele>650.0</ele><time>2026-04-19T17:20:41Z</time></trkpt><trkpt lat="38.05744150240817" lon="14.909624523759454"><ele>653.0</ele><time>2026-04-19T17:20:42Z</time></trkpt><trkpt lat="38.057337022816434" lon="14.909605794887119"><ele>656.0</ele><time>2026-04-19T17:20:43Z</time></trkpt><trkpt lat="38.05723252403534" lon="14.909576326361735"><ele>659.0</ele><time>2026-04-19T17:20:44Z</time></trkpt><trkpt lat="38.057144205887695" lon="14.909543145318088"><ele>662.0</ele><time>2026-04-19T17:20:45Z</time></trkpt><trkpt lat="38.057048351195554" lon="14.90951293297359"><ele>665.0</ele><time>2026-04-19T17:20:46Z</time></trkpt><trkpt lat="38.05694646941934" lon="14.909502274092176"><ele>665.0</ele><time>2026-04-19T17:20:47Z</time></trkpt><trkpt lat="38.05686284493148" lon="14.909486512097233"><ele>665.0</ele><time>2026-04-19T17:20:48Z</time></trkpt><trkpt lat="38.05679113120579" lon="14.909475343775306"><ele>665.0</ele><time>2026-04-19T17:20:49.001Z</time></trkpt><trkpt lat="38.05667996027663" lon="14.90945169080663"><ele>665.0</ele><time>2026-04-19T17:20:51.001Z</time></trkpt><trkpt lat="38.056614554175496" lon="14.909421836530475"><ele>665.0</ele><time>2026-04-19T17:21:01.001Z</time></trkpt><trkpt lat="38.05654478326933" lon="14.909369765745753"><ele>665.0</ele><time>2026-04-19T17:21:03.001Z</time></trkpt><trkpt lat="38.056473734601475" lon="14.90934375553981"><ele>665.6</ele><time>2026-04-19T17:21:04.001Z</time></trkpt><trkpt lat="38.056399082615386" lon="14.909306202344395"><ele>666.2</ele><time>2026-04-19T17:21:05.001Z</time></trkpt><trkpt lat="38.05631503206368" lon="14.909263411431237"><ele>666.8</ele><time>2026-04-19T17:21:06.001Z</time></trkpt><trkpt lat="38.05622174700073" lon="14.90923648764714"><ele>667.4</ele><time>2026-04-19T17:21:07.001Z</time></trkpt><trkpt lat="38.05612889636107" lon="14.909207152061104"><ele>668.0</ele><time>2026-04-19T17:21:08.001Z</time></trkpt><trkpt lat="38.056031760345086" lon="14.909177899858898"><ele>665.0</ele><time>2026-04-19T17:21:09.001Z</time></trkpt><trkpt lat="38.0559321229844" lon="14.909156852285914"><ele>662.0</ele><time>2026-04-19T17:21:10.001Z</time></trkpt><trkpt lat="38.05583419086888" lon="14.909137831669181"><ele>659.0</ele><time>2026-04-19T17:21:11.001Z</time></trkpt><trkpt lat="38.05573795403524" lon="14.90910543307094"><ele>656.0</ele><time>2026-04-19T17:21:12.001Z</time></trkpt><trkpt lat="38.05564311850506" lon="14.909080181333918"><ele>653.0</ele><time>2026-04-19T17:21:13.001Z</time></trkpt><trkpt lat="38.05554985471525" lon="14.909053507087386"><ele>653.0</ele><time>2026-04-19T17:21:14.001Z</time></trkpt><trkpt lat="38.05545995472876" lon="14.909026334675334"><ele>653.0</ele><time>2026-04-19T17:21:15.001Z</time></trkpt><trkpt lat="38.05538264001541" lon="14.908987269981433"><ele>653.0</ele><time>2026-04-19T17:21:16.001Z</time></trkpt><trkpt lat="38.05532480520185" lon="14.908942538518177"><ele>653.0</ele><time>2026-04-19T17:21:17.001Z</time></trkpt><trkpt lat="38.055264607621396" lon="14.90881321019123"><ele>653.0</ele><time>2026-04-19T17:21:19.001Z</time></trkpt><trkpt lat="38.05525842884068" lon="14.908723981158442"><ele>653.0</ele><time>2026-04-19T17:21:20.001Z</time></trkpt><trkpt lat="38.05520727528486" lon="14.908656814521532"><ele>653.0</ele><time>2026-04-19T17:21:21.001Z</time></trkpt><trkpt lat="38.055169260736164" lon="14.908590819605356"><ele>653.0</ele><time>2026-04-19T17:21:22.001Z</time></trkpt><trkpt lat="38.05507446825962" lon="14.908508588835344"><ele>653.0</ele><time>2026-04-19T17:21:24.001Z</time></trkpt><trkpt lat="38.05500038588955" lon="14.90845620585432"><ele>653.0</ele><time>2026-04-19T17:21:26.001Z</time></trkpt><trkpt lat="38.054924042238916" lon="14.90850083144786"><ele>653.0</ele><time>2026-04-19T17:21:28.001Z</time></trkpt><trkpt lat="38.05487172580075" lon="14.908578184672011"><ele>653.0</ele><time>2026-04-19T17:21:30.001Z</time></trkpt><trkpt lat="38.054831876448524" lon="14.90864238720345"><ele>647.0</ele><time>2026-04-19T17:21:31.001Z</time></trkpt><trkpt lat="38.05479479774243" lon="14.908720182318387"><ele>641.0</ele><time>2026-04-19T17:21:32.001Z</time></trkpt><trkpt lat="38.054772276388945" lon="14.908806803458544"><ele>635.0</ele><time>2026-04-19T17:21:33.001Z</time></trkpt><trkpt lat="38.05475618073445" lon="14.908895107135034"><ele>629.0</ele><time>2026-04-19T17:21:34.001Z</time></trkpt><trkpt lat="38.05477205063019" lon="14.908993865152638"><ele>623.0</ele><time>2026-04-19T17:21:35.001Z</time></trkpt><trkpt lat="38.05478242920131" lon="14.909104452705941"><ele>617.0</ele><time>2026-04-19T17:21:36.001Z</time></trkpt><trkpt lat="38.05479643531636" lon="14.90921265360149"><ele>616.8000000000001</ele><time>2026-04-19T17:21:37.001Z</time></trkpt><trkpt lat="38.05480622824901" lon="14.9093261242199"><ele>616.6</ele><time>2026-04-19T17:21:38.001Z</time></trkpt><trkpt lat="38.054814742792566" lon="14.909450301748246"><ele>616.4000000000001</ele><time>2026-04-19T17:21:39.001Z</time></trkpt><trkpt lat="38.054823988873856" lon="14.909575420269142"><ele>616.2</ele><time>2026-04-19T17:21:40.001Z</time></trkpt><trkpt lat="38.0548416763168" lon="14.909721274415801"><ele>616.0</ele><time>2026-04-19T17:21:41.001Z</time></trkpt><trkpt lat="38.05486035097811" lon="14.909858945493635"><ele>616.0</ele><time>2026-04-19T17:21:42.001Z</time></trkpt><trkpt lat="38.05487635627648" lon="14.909995952409332"><ele>616.0</ele><time>2026-04-19T17:21:43.001Z</time></trkpt><trkpt lat="38.05489306352577" lon="14.910131375628925"><ele>616.0</ele><time>2026-04-19T17:21:44.001Z</time></trkpt><trkpt lat="38.05489873057349" lon="14.910265272343135"><ele>616.0</ele><time>2026-04-19T17:21:45.001Z</time></trkpt><trkpt lat="38.05489768028387" lon="14.910401314479412"><ele>616.0</ele><time>2026-04-19T17:21:46.001Z</time></trkpt><trkpt lat="38.054890362153934" lon="14.910537390009198"><ele>616.0</ele><time>2026-04-19T17:21:47.001Z</time></trkpt><trkpt lat="38.054883675019155" lon="14.910674549764323"><ele>616.0</ele><time>2026-04-19T17:21:48.001Z</time></trkpt><trkpt lat="38.054881652727325" lon="14.910798581050397"><ele>616.0</ele><time>2026-04-19T17:21:49.001Z</time></trkpt><trkpt lat="38.054893101825854" lon="14.910910123347072"><ele>616.0</ele><time>2026-04-19T17:21:50.001Z</time></trkpt><trkpt lat="38.05491595483998" lon="14.911009493009196"><ele>616.0</ele><time>2026-04-19T17:21:51.001Z</time></trkpt><trkpt lat="38.054934615246886" lon="14.911100345875601"><ele>615.8</ele><time>2026-04-19T17:21:52.001Z</time></trkpt><trkpt lat="38.05494034589333" lon="14.911181319995059"><ele>615.6</ele><time>2026-04-19T17:21:53.001Z</time></trkpt><trkpt lat="38.054940830685226" lon="14.911315389082274"><ele>615.4</ele><time>2026-04-19T17:21:55.001Z</time></trkpt><trkpt lat="38.05492931850908" lon="14.911432836694694"><ele>615.2</ele><time>2026-04-19T17:21:57.001Z</time></trkpt><trkpt lat="38.054909214589195" lon="14.911555506953523"><ele>615.0</ele><time>2026-04-19T17:21:59.001Z</time></trkpt><trkpt lat="38.054860839858215" lon="14.91165900060175"><ele>615.4</ele><time>2026-04-19T17:22:01.001Z</time></trkpt><trkpt lat="38.05482979256416" lon="14.91177966562924"><ele>615.8</ele><time>2026-04-19T17:22:03.001Z</time></trkpt><trkpt lat="38.054792687824246" lon="14.911914374146383"><ele>616.2</ele><time>2026-04-19T17:22:05Z</time></trkpt><trkpt lat="38.054752429341654" lon="14.91206630369923"><ele>616.6</ele><time>2026-04-19T17:22:07Z</time></trkpt><trkpt lat="38.054748516433264" lon="14.912150325112282"><ele>617.0</ele><time>2026-04-19T17:22:08Z</time></trkpt><trkpt lat="38.05474424693304" lon="14.912234345859597"><ele>617.0</ele><time>2026-04-19T17:22:09Z</time></trkpt><trkpt lat="38.054738935420446" lon="14.912329826591227"><ele>617.0</ele><time>2026-04-19T17:22:10Z</time></trkpt><trkpt lat="38.0547673556785" lon="14.912426786845804"><ele>617.0</ele><time>2026-04-19T17:22:11Z</time></trkpt><trkpt lat="38.054806543272726" lon="14.91253343679044"><ele>617.0</ele><time>2026-04-19T17:22:12Z</time></trkpt><trkpt lat="38.05484862467311" lon="14.912648612494579"><ele>617.0</ele><time>2026-04-19T17:22:13Z</time></trkpt><trkpt lat="38.05488912318387" lon="14.912762813119215"><ele>617.0</ele><time>2026-04-19T17:22:14Z</time></trkpt><trkpt lat="38.054927914600576" lon="14.912872971688538"><ele>623.6</ele><time>2026-04-19T17:22:15Z</time></trkpt><trkpt lat="38.05496898935089" lon="14.912984476463373"><ele>630.2</ele><time>2026-04-19T17:22:16Z</time></trkpt><trkpt lat="38.05500159733646" lon="14.91309375772688"><ele>636.8</ele><time>2026-04-19T17:22:17Z</time></trkpt><trkpt lat="38.05501399239821" lon="14.913208459071827"><ele>643.4</ele><time>2026-04-19T17:22:18Z</time></trkpt><trkpt lat="38.05501113527112" lon="14.913328995683534"><ele>650.0</ele><time>2026-04-19T17:22:19Z</time></trkpt><trkpt lat="38.055008105652" lon="14.913458862248769"><ele>650.0</ele><time>2026-04-19T17:22:20Z</time></trkpt><trkpt lat="38.05500592417107" lon="14.913588951247393"><ele>650.0</ele><time>2026-04-19T17:22:21Z</time></trkpt><trkpt lat="38.05500133626334" lon="14.913728230326447"><ele>650.0</ele><time>2026-04-19T17:22:22Z</time></trkpt><trkpt lat="38.05499684746592" lon="14.913864500804133"><ele>650.0</ele><time>2026-04-19T17:22:23Z</time></trkpt><trkpt lat="38.05499350413989" lon="14.914000023968944"><ele>650.0</ele><time>2026-04-19T17:22:24Z</time></trkpt><trkpt lat="38.05500814503881" lon="14.914146684469564"><ele>650.4</ele><time>2026-04-19T17:22:25Z</time></trkpt><trkpt lat="38.05499806573843" lon="14.914286086714549"><ele>650.8</ele><time>2026-04-19T17:22:26Z</time></trkpt><trkpt lat="38.054989711517024" lon="14.914421987706456"><ele>651.2</ele><time>2026-04-19T17:22:27Z</time></trkpt><trkpt lat="38.05495813546654" lon="14.914551169404705"><ele>651.6</ele><time>2026-04-19T17:22:28Z</time></trkpt><trkpt lat="38.05496302252844" lon="14.914686090325336"><ele>652.0</ele><time>2026-04-19T17:22:29Z</time></trkpt><trkpt lat="38.054951262060385" lon="14.914813400743293"><ele>653.2</ele><time>2026-04-19T17:22:30Z</time></trkpt><trkpt lat="38.05493186290216" lon="14.914933218318104"><ele>654.4000000000001</ele><time>2026-04-19T17:22:31Z</time></trkpt><trkpt lat="38.05489455256406" lon="14.915041847304371"><ele>655.5999999999999</ele><time>2026-04-19T17:22:32Z</time></trkpt><trkpt lat="38.05482956831472" lon="14.915118819414579"><ele>656.8</ele><time>2026-04-19T17:22:33Z</time></trkpt><trkpt lat="38.05475175127458" lon="14.91515820931"><ele>658.0</ele><time>2026-04-19T17:22:34Z</time></trkpt><trkpt lat="38.0546637222789" lon="14.915173971237177"><ele>658.0</ele><time>2026-04-19T17:22:35Z</time></trkpt><trkpt lat="38.054569652274694" lon="14.915158119121793"><ele>658.0</ele><time>2026-04-19T17:22:36Z</time></trkpt><trkpt lat="38.054480377614794" lon="14.91510419240062"><ele>658.0</ele><time>2026-04-19T17:22:37Z</time></trkpt><trkpt lat="38.05439851202267" lon="14.915020658577449"><ele>658.0</ele><time>2026-04-19T17:22:38Z</time></trkpt><trkpt lat="38.05432355326229" lon="14.914922543181802"><ele>658.0</ele><time>2026-04-19T17:22:39Z</time></trkpt><trkpt lat="38.05424502233631" lon="14.914822610690694"><ele>658.0</ele><time>2026-04-19T17:22:40Z</time></trkpt><trkpt lat="38.05417058900153" lon="14.914709434949112"><ele>658.0</ele><time>2026-04-19T17:22:41Z</time></trkpt><trkpt lat="38.05408153869237" lon="14.91461217480119"><ele>658.0</ele><time>2026-04-19T17:22:42Z</time></trkpt><trkpt lat="38.053991885220064" lon="14.91451180006824"><ele>658.0</ele><time>2026-04-19T17:22:43.001Z</time></trkpt><trkpt lat="38.053898538712296" lon="14.914411198679346"><ele>662.25</ele><time>2026-04-19T17:22:44.001Z</time></trkpt><trkpt lat="38.05380121951559" lon="14.9143175570685"><ele>666.5</ele><time>2026-04-19T17:22:45.001Z</time></trkpt><trkpt lat="38.05368987667828" lon="14.914250484023677"><ele>670.75</ele><time>2026-04-19T17:22:46.001Z</time></trkpt><trkpt lat="38.053586911859476" lon="14.914170092051899"><ele>675.0</ele><time>2026-04-19T17:22:47.001Z</time></trkpt><trkpt lat="38.05351537162378" lon="14.914048830992117"><ele>675.0</ele><time>2026-04-19T17:22:48.001Z</time></trkpt><trkpt lat="38.053470824632406" lon="14.913915680305024"><ele>675.0</ele><time>2026-04-19T17:22:49.001Z</time></trkpt><trkpt lat="38.05341381310871" lon="14.91378164517548"><ele>675.0</ele><time>2026-04-19T17:22:50.001Z</time></trkpt><trkpt lat="38.05332878803684" lon="14.91366737357048"><ele>675.0</ele><time>2026-04-19T17:22:51.001Z</time></trkpt><trkpt lat="38.05323048603826" lon="14.91356814227381"><ele>673.4</ele><time>2026-04-19T17:22:52.001Z</time></trkpt><trkpt lat="38.053132004556346" lon="14.913468646919997"><ele>671.8</ele><time>2026-04-19T17:22:53.001Z</time></trkpt><trkpt lat="38.05302918534457" lon="14.913395218177076"><ele>670.2</ele><time>2026-04-19T17:22:54.001Z</time></trkpt><trkpt lat="38.052938613634254" lon="14.913311575890193"><ele>668.6</ele><time>2026-04-19T17:22:55.001Z</time></trkpt><trkpt lat="38.05284961245675" lon="14.913279615324544"><ele>667.0</ele><time>2026-04-19T17:22:56.001Z</time></trkpt><trkpt lat="38.05276351597321" lon="14.913296593007743"><ele>667.0</ele><time>2026-04-19T17:22:57.001Z</time></trkpt><trkpt lat="38.05270107562409" lon="14.913398005809908"><ele>667.0</ele><time>2026-04-19T17:22:58.001Z</time></trkpt><trkpt lat="38.052699022944076" lon="14.913524405685896"><ele>667.0</ele><time>2026-04-19T17:22:59.001Z</time></trkpt><trkpt lat="38.05270225362884" lon="14.91364646418901"><ele>667.0</ele><time>2026-04-19T17:23:00.001Z</time></trkpt><trkpt lat="38.0526791784708" lon="14.913768118026205"><ele>667.0</ele><time>2026-04-19T17:23:01.001Z</time></trkpt><trkpt lat="38.052643841080965" lon="14.913882591987038"><ele>667.0</ele><time>2026-04-19T17:23:02.001Z</time></trkpt><trkpt lat="38.05259494895698" lon="14.913991544737554"><ele>667.0</ele><time>2026-04-19T17:23:03.001Z</time></trkpt><trkpt lat="38.05256242784595" lon="14.91409676653912"><ele>667.0</ele><time>2026-04-19T17:23:04.001Z</time></trkpt><trkpt lat="38.052520842406416" lon="14.91419977997072"><ele>667.0</ele><time>2026-04-19T17:23:05.001Z</time></trkpt><trkpt lat="38.05245616096027" lon="14.914283102900773"><ele>667.0</ele><time>2026-04-19T17:23:06.001Z</time></trkpt><trkpt lat="38.052408684471494" lon="14.914388050188036"><ele>666.8</ele><time>2026-04-19T17:23:07.001Z</time></trkpt><trkpt lat="38.05232576301656" lon="14.914458897792201"><ele>666.6</ele><time>2026-04-19T17:23:08.001Z</time></trkpt><trkpt lat="38.052256799094394" lon="14.914557715119301"><ele>666.4</ele><time>2026-04-19T17:23:09.001Z</time></trkpt><trkpt lat="38.052172611055646" lon="14.914640649153544"><ele>666.1999999999999</ele><time>2026-04-19T17:23:10.001Z</time></trkpt><trkpt lat="38.0520902920442" lon="14.914710825879988"><ele>666.0</ele><time>2026-04-19T17:23:11.001Z</time></trkpt><trkpt lat="38.052009075725245" lon="14.914806673265716"><ele>666.0</ele><time>2026-04-19T17:23:12.001Z</time></trkpt><trkpt lat="38.051935539380274" lon="14.914903032174143"><ele>666.0</ele><time>2026-04-19T17:23:13.001Z</time></trkpt><trkpt lat="38.05186203275719" lon="14.914996824964653"><ele>666.0</ele><time>2026-04-19T17:23:14.001Z</time></trkpt><trkpt lat="38.051791677195176" lon="14.915091973189819"><ele>666.0</ele><time>2026-04-19T17:23:15.001Z</time></trkpt><trkpt lat="38.05171898363176" lon="14.915179554893593"><ele>666.0</ele><time>2026-04-19T17:23:16.001Z</time></trkpt><trkpt lat="38.051652333756465" lon="14.915275237030977"><ele>667.1999999999999</ele><time>2026-04-19T17:23:17.001Z</time></trkpt><trkpt lat="38.05157806797058" lon="14.915355753027864"><ele>668.4</ele><time>2026-04-19T17:23:18.001Z</time></trkpt><trkpt lat="38.05148386640092" lon="14.915395599335605"><ele>669.6</ele><time>2026-04-19T17:23:19.001Z</time></trkpt><trkpt lat="38.05139245961979" lon="14.915447630207325"><ele>670.8</ele><time>2026-04-19T17:23:20.001Z</time></trkpt><trkpt lat="38.05129725276585" lon="14.915462540795605"><ele>672.0</ele><time>2026-04-19T17:23:21.001Z</time></trkpt><trkpt lat="38.05120934119729" lon="14.915519748010784"><ele>672.0</ele><time>2026-04-19T17:23:22.001Z</time></trkpt><trkpt lat="38.05112524561983" lon="14.915593233210195"><ele>672.0</ele><time>2026-04-19T17:23:23.001Z</time></trkpt><trkpt lat="38.05104264918623" lon="14.91567650288837"><ele>672.0</ele><time>2026-04-19T17:23:24.001Z</time></trkpt><trkpt lat="38.050974549154944" lon="14.915777603951305"><ele>672.0</ele><time>2026-04-19T17:23:25.001Z</time></trkpt><trkpt lat="38.05090372640913" lon="14.915889508052656"><ele>672.0</ele><time>2026-04-19T17:23:26.001Z</time></trkpt><trkpt lat="38.05083132991816" lon="14.916001009040357"><ele>673.0</ele><time>2026-04-19T17:23:27.001Z</time></trkpt><trkpt lat="38.050750365437594" lon="14.91610946942367"><ele>674.0</ele><time>2026-04-19T17:23:28.001Z</time></trkpt><trkpt lat="38.05065190589425" lon="14.916200283395638"><ele>675.0</ele><time>2026-04-19T17:23:29.001Z</time></trkpt><trkpt lat="38.050543747618526" lon="14.916272829090945"><ele>676.0</ele><time>2026-04-19T17:23:30.001Z</time></trkpt><trkpt lat="38.05043733442837" lon="14.91633021705798"><ele>676.0</ele><time>2026-04-19T17:23:31.001Z</time></trkpt><trkpt lat="38.05032898208137" lon="14.916400323049281"><ele>676.0</ele><time>2026-04-19T17:23:32.001Z</time></trkpt><trkpt lat="38.05022651050587" lon="14.916482809744318"><ele>676.0</ele><time>2026-04-19T17:23:33.001Z</time></trkpt><trkpt lat="38.05012197516961" lon="14.916559528592016"><ele>676.0</ele><time>2026-04-19T17:23:34.001Z</time></trkpt><trkpt lat="38.05002066491842" lon="14.91665386760515"><ele>679.75</ele><time>2026-04-19T17:23:35.001Z</time></trkpt><trkpt lat="38.04992253143087" lon="14.916741209684815"><ele>683.5</ele><time>2026-04-19T17:23:36.001Z</time></trkpt><trkpt lat="38.04983001284116" lon="14.916825878481013"><ele>687.25</ele><time>2026-04-19T17:23:37.001Z</time></trkpt><trkpt lat="38.04974933799295" lon="14.916946604389317"><ele>691.0</ele><time>2026-04-19T17:23:38.001Z</time></trkpt><trkpt lat="38.04966114855796" lon="14.917068620633728"><ele>691.0</ele><time>2026-04-19T17:23:39.001Z</time></trkpt><trkpt lat="38.04957984228372" lon="14.917202875578733"><ele>691.0</ele><time>2026-04-19T17:23:40.001Z</time></trkpt><trkpt lat="38.04949507606651" lon="14.917326035740716"><ele>691.0</ele><time>2026-04-19T17:23:41.001Z</time></trkpt><trkpt lat="38.04938919984816" lon="14.917408243825413"><ele>691.0</ele><time>2026-04-19T17:23:42.001Z</time></trkpt><trkpt lat="38.0492928102353" lon="14.91748281684284"><ele>691.0</ele><time>2026-04-19T17:23:43.001Z</time></trkpt><trkpt lat="38.049204803068285" lon="14.917564235215307"><ele>691.0</ele><time>2026-04-19T17:23:44.001Z</time></trkpt><trkpt lat="38.04911268393487" lon="14.917589659109765"><ele>691.0</ele><time>2026-04-19T17:23:45.001Z</time></trkpt><trkpt lat="38.04902520602367" lon="14.917560096300965"><ele>691.0</ele><time>2026-04-19T17:23:46.001Z</time></trkpt><trkpt lat="38.04894630342762" lon="14.917482151284558"><ele>691.0</ele><time>2026-04-19T17:23:47.001Z</time></trkpt><trkpt lat="38.04884978833042" lon="14.917444765497216"><ele>691.0</ele><time>2026-04-19T17:23:48.001Z</time></trkpt><trkpt lat="38.048753879756354" lon="14.91739617410092"><ele>691.0</ele><time>2026-04-19T17:23:49.001Z</time></trkpt><trkpt lat="38.04866120373177" lon="14.917353642662638"><ele>691.0</ele><time>2026-04-19T17:23:50.001Z</time></trkpt><trkpt lat="38.04858040735259" lon="14.917337201738118"><ele>691.0</ele><time>2026-04-19T17:23:51.001Z</time></trkpt><trkpt lat="38.048511671911896" lon="14.917376114605268"><ele>691.0</ele><time>2026-04-19T17:23:52.001Z</time></trkpt><trkpt lat="38.048466624172974" lon="14.917446223473389"><ele>691.0</ele><time>2026-04-19T17:23:53.001Z</time></trkpt><trkpt lat="38.048461335122134" lon="14.91757321079336"><ele>693.1666666666667</ele><time>2026-04-19T17:23:55.001Z</time></trkpt><trkpt lat="38.0484769547542" lon="14.917664418909995"><ele>695.3333333333334</ele><time>2026-04-19T17:23:58.001Z</time></trkpt><trkpt lat="38.04856418145965" lon="14.917685989156743"><ele>697.5</ele><time>2026-04-19T17:23:59.001Z</time></trkpt><trkpt lat="38.04866915859296" lon="14.917732734846199"><ele>699.6666666666666</ele><time>2026-04-19T17:24:01.001Z</time></trkpt><trkpt lat="38.04875073213907" lon="14.917761484017946"><ele>701.8333333333333</ele><time>2026-04-19T17:24:02.001Z</time></trkpt><trkpt lat="38.04883473018629" lon="14.917789482080005"><ele>704.0</ele><time>2026-04-19T17:24:03.001Z</time></trkpt><trkpt lat="38.04891219654597" lon="14.917817948719552"><ele>704.0</ele><time>2026-04-19T17:24:04.001Z</time></trkpt><trkpt lat="38.048993541775594" lon="14.917846332813724"><ele>704.0</ele><time>2026-04-19T17:24:05.001Z</time></trkpt><trkpt lat="38.049082653675995" lon="14.917875654109583"><ele>704.0</ele><time>2026-04-19T17:24:06.001Z</time></trkpt><trkpt lat="38.049164118120814" lon="14.91789668013778"><ele>704.0</ele><time>2026-04-19T17:24:07.001Z</time></trkpt><trkpt lat="38.0492526560081" lon="14.917909269196231"><ele>704.0</ele><time>2026-04-19T17:24:08.001Z</time></trkpt><trkpt lat="38.0493326375541" lon="14.917861267282115"><ele>704.0</ele><time>2026-04-19T17:24:09.001Z</time></trkpt><trkpt lat="38.04941157981272" lon="14.917827543683693"><ele>701.4000000000001</ele><time>2026-04-19T17:24:10.001Z</time></trkpt><trkpt lat="38.04949663920014" lon="14.917809208367464"><ele>698.8</ele><time>2026-04-19T17:24:11Z</time></trkpt><trkpt lat="38.049580967707904" lon="14.917753832408465"><ele>696.2</ele><time>2026-04-19T17:24:12Z</time></trkpt><trkpt lat="38.049654857241116" lon="14.917656644184815"><ele>693.5999999999999</ele><time>2026-04-19T17:24:13Z</time></trkpt><trkpt lat="38.04972456826542" lon="14.917545844788036"><ele>691.0</ele><time>2026-04-19T17:24:14Z</time></trkpt><trkpt lat="38.04979167285057" lon="14.917428765950161"><ele>691.0</ele><time>2026-04-19T17:24:15Z</time></trkpt><trkpt lat="38.049866091047264" lon="14.91730432949526"><ele>691.0</ele><time>2026-04-19T17:24:16Z</time></trkpt><trkpt lat="38.04995029365479" lon="14.917221823605663"><ele>691.0</ele><time>2026-04-19T17:24:17Z</time></trkpt><trkpt lat="38.050051542507006" lon="14.917148997733673"><ele>691.0</ele><time>2026-04-19T17:24:18Z</time></trkpt><trkpt lat="38.05016346428526" lon="14.917083215599487"><ele>698.0</ele><time>2026-04-19T17:24:19Z</time></trkpt><trkpt lat="38.05027108240082" lon="14.91699937590837"><ele>705.0</ele><time>2026-04-19T17:24:20Z</time></trkpt><trkpt lat="38.050389251487246" lon="14.916931277624403"><ele>712.0</ele><time>2026-04-19T17:24:21Z</time></trkpt><trkpt lat="38.05051660660294" lon="14.916879169313654"><ele>719.0</ele><time>2026-04-19T17:24:22Z</time></trkpt><trkpt lat="38.050634047770046" lon="14.916789134258618"><ele>719.25</ele><time>2026-04-19T17:24:23Z</time></trkpt><trkpt lat="38.05075751299319" lon="14.916717856145866"><ele>719.5</ele><time>2026-04-19T17:24:24Z</time></trkpt><trkpt lat="38.05088017509977" lon="14.916652070509002"><ele>719.75</ele><time>2026-04-19T17:24:25Z</time></trkpt><trkpt lat="38.050982308339925" lon="14.916538458726396"><ele>720.0</ele><time>2026-04-19T17:24:26Z</time></trkpt><trkpt lat="38.05108357874736" lon="14.91643343329259"><ele>720.0</ele><time>2026-04-19T17:24:27Z</time></trkpt><trkpt lat="38.051181792678406" lon="14.916329829158533"><ele>720.0</ele><time>2026-04-19T17:24:28Z</time></trkpt><trkpt lat="38.0513013719223" lon="14.916287770933867"><ele>720.0</ele><time>2026-04-19T17:24:29Z</time></trkpt><trkpt lat="38.05141463152079" lon="14.916254881668461"><ele>720.0</ele><time>2026-04-19T17:24:30Z</time></trkpt><trkpt lat="38.05153017038161" lon="14.916260032269708"><ele>725.75</ele><time>2026-04-19T17:24:31Z</time></trkpt><trkpt lat="38.05165848897909" lon="14.916278361590004"><ele>731.5</ele><time>2026-04-19T17:24:32Z</time></trkpt><trkpt lat="38.051787589812996" lon="14.916277108909968"><ele>737.25</ele><time>2026-04-19T17:24:33Z</time></trkpt><trkpt lat="38.051914179792234" lon="14.916280593504384"><ele>743.0</ele><time>2026-04-19T17:24:34Z</time></trkpt><trkpt lat="38.05203913474777" lon="14.916282525441186"><ele>743.0</ele><time>2026-04-19T17:24:35Z</time></trkpt><trkpt lat="38.052163703884695" lon="14.916260676213515"><ele>743.0</ele><time>2026-04-19T17:24:36Z</time></trkpt><trkpt lat="38.05228875570368" lon="14.916230589379044"><ele>743.0</ele><time>2026-04-19T17:24:37Z</time></trkpt><trkpt lat="38.052416824317646" lon="14.916197745679415"><ele>743.0</ele><time>2026-04-19T17:24:38Z</time></trkpt><trkpt lat="38.0525428935781" lon="14.916164426862938"><ele>743.5</ele><time>2026-04-19T17:24:39Z</time></trkpt><trkpt lat="38.05266713764736" lon="14.916152622423132"><ele>744.0</ele><time>2026-04-19T17:24:40Z</time></trkpt><trkpt lat="38.05279278102819" lon="14.916161735815777"><ele>744.5</ele><time>2026-04-19T17:24:41Z</time></trkpt><trkpt lat="38.05291668240164" lon="14.916192533357497"><ele>745.0</ele><time>2026-04-19T17:24:42Z</time></trkpt><trkpt lat="38.05304226137666" lon="14.91620920246799"><ele>745.0</ele><time>2026-04-19T17:24:43Z</time></trkpt><trkpt lat="38.05315813610913" lon="14.91622820743967"><ele>745.0</ele><time>2026-04-19T17:24:44Z</time></trkpt><trkpt lat="38.05325549462813" lon="14.9162759807724"><ele>745.0</ele><time>2026-04-19T17:24:45Z</time></trkpt><trkpt lat="38.05333559304387" lon="14.916374894959981"><ele>745.0</ele><time>2026-04-19T17:24:46.001Z</time></trkpt><trkpt lat="38.05341695816071" lon="14.916457278560424"><ele>745.0</ele><time>2026-04-19T17:24:47.001Z</time></trkpt><trkpt lat="38.05346707088833" lon="14.916569343489954"><ele>745.0</ele><time>2026-04-19T17:24:48.001Z</time></trkpt><trkpt lat="38.053482476764984" lon="14.91666936642795"><ele>745.0</ele><time>2026-04-19T17:24:49.001Z</time></trkpt><trkpt lat="38.05342844423823" lon="14.916753584076895"><ele>745.0</ele><time>2026-04-19T17:24:50.001Z</time></trkpt><trkpt lat="38.05327639709681" lon="14.916679700065705"><ele>745.0</ele><time>2026-04-19T17:24:52.001Z</time></trkpt><trkpt lat="38.05322283628659" lon="14.916617580953623"><ele>745.0</ele><time>2026-04-19T17:24:53.001Z</time></trkpt><trkpt lat="38.05315030741453" lon="14.916569596885566"><ele>745.0</ele><time>2026-04-19T17:24:54.001Z</time></trkpt><trkpt lat="38.053070363635044" lon="14.916480366857531"><ele>745.0</ele><time>2026-04-19T17:24:55.001Z</time></trkpt><trkpt lat="38.05298811197269" lon="14.91641218529859"><ele>745.0</ele><time>2026-04-19T17:24:56.001Z</time></trkpt><trkpt lat="38.052903904206325" lon="14.916366174670063"><ele>745.0</ele><time>2026-04-19T17:24:57.001Z</time></trkpt><trkpt lat="38.052803781884265" lon="14.916367703863003"><ele>745.0</ele><time>2026-04-19T17:24:58.001Z</time></trkpt><trkpt lat="38.052689778840524" lon="14.916372795053187"><ele>745.0</ele><time>2026-04-19T17:24:59.001Z</time></trkpt><trkpt lat="38.0525803209953" lon="14.916396538776029"><ele>745.0</ele><time>2026-04-19T17:25:00.001Z</time></trkpt><trkpt lat="38.05247914986448" lon="14.916442759216995"><ele>745.0</ele><time>2026-04-19T17:25:01.001Z</time></trkpt><trkpt lat="38.05236274494658" lon="14.91646863506126"><ele>745.0</ele><time>2026-04-19T17:25:02.001Z</time></trkpt><trkpt lat="38.05224015954205" lon="14.916545102766579"><ele>744.5</ele><time>2026-04-19T17:25:03.001Z</time></trkpt><trkpt lat="38.05211728709277" lon="14.916612340223267"><ele>744.0</ele><time>2026-04-19T17:25:04.001Z</time></trkpt><trkpt lat="38.051987067571034" lon="14.91666095964725"><ele>743.5</ele><time>2026-04-19T17:25:05.001Z</time></trkpt><trkpt lat="38.0518693779765" lon="14.916714750868502"><ele>743.0</ele><time>2026-04-19T17:25:06.001Z</time></trkpt><trkpt lat="38.05174131156583" lon="14.916694048800844"><ele>745.75</ele><time>2026-04-19T17:25:07.001Z</time></trkpt><trkpt lat="38.05162086407943" lon="14.916705673708579"><ele>748.5</ele><time>2026-04-19T17:25:08.001Z</time></trkpt><trkpt lat="38.051509568306614" lon="14.916725456900528"><ele>751.25</ele><time>2026-04-19T17:25:09.001Z</time></trkpt><trkpt lat="38.05140538279161" lon="14.916783510773243"><ele>754.0</ele><time>2026-04-19T17:25:10.001Z</time></trkpt><trkpt lat="38.05132211418965" lon="14.916897290917715"><ele>754.0</ele><time>2026-04-19T17:25:11.001Z</time></trkpt><trkpt lat="38.0512499053776" lon="14.917037163842215"><ele>754.0</ele><time>2026-04-19T17:25:12.001Z</time></trkpt><trkpt lat="38.05116989402138" lon="14.917154328622932"><ele>754.0</ele><time>2026-04-19T17:25:13.001Z</time></trkpt><trkpt lat="38.05106051927313" lon="14.917226429313974"><ele>754.0</ele><time>2026-04-19T17:25:14.001Z</time></trkpt><trkpt lat="38.0509448274732" lon="14.917269402569607"><ele>754.0</ele><time>2026-04-19T17:25:15.001Z</time></trkpt><trkpt lat="38.050845114861346" lon="14.917362658655136"><ele>754.0</ele><time>2026-04-19T17:25:16.001Z</time></trkpt><trkpt lat="38.05074132997545" lon="14.91746170770383"><ele>754.0</ele><time>2026-04-19T17:25:17.001Z</time></trkpt><trkpt lat="38.050644411666646" lon="14.917579233543647"><ele>754.0</ele><time>2026-04-19T17:25:18.001Z</time></trkpt><trkpt lat="38.05054883107383" lon="14.917696431451427"><ele>755.0</ele><time>2026-04-19T17:25:19.001Z</time></trkpt><trkpt lat="38.050451634839646" lon="14.917809223926591"><ele>756.0</ele><time>2026-04-19T17:25:20.001Z</time></trkpt><trkpt lat="38.05035912078361" lon="14.91792030831081"><ele>757.0</ele><time>2026-04-19T17:25:21.001Z</time></trkpt><trkpt lat="38.050283383969486" lon="14.91803470140941"><ele>758.0</ele><time>2026-04-19T17:25:22.001Z</time></trkpt><trkpt lat="38.05024170896882" lon="14.918185227011778"><ele>758.0</ele><time>2026-04-19T17:25:23.001Z</time></trkpt><trkpt lat="38.050225261149336" lon="14.918350462245328"><ele>758.0</ele><time>2026-04-19T17:25:24.001Z</time></trkpt><trkpt lat="38.05019594060509" lon="14.91849854156281"><ele>758.0</ele><time>2026-04-19T17:25:25.001Z</time></trkpt><trkpt lat="38.050116473267835" lon="14.91860327895491"><ele>758.0</ele><time>2026-04-19T17:25:26.001Z</time></trkpt><trkpt lat="38.05002163057885" lon="14.918697733286264"><ele>756.5</ele><time>2026-04-19T17:25:27.001Z</time></trkpt><trkpt lat="38.049912867653106" lon="14.918786598181576"><ele>755.0</ele><time>2026-04-19T17:25:28.001Z</time></trkpt><trkpt lat="38.049800257974724" lon="14.918881746170596"><ele>753.5</ele><time>2026-04-19T17:25:29.001Z</time></trkpt><trkpt lat="38.04968186251057" lon="14.918940204024281"><ele>752.0</ele><time>2026-04-19T17:25:30.001Z</time></trkpt><trkpt lat="38.04956350119173" lon="14.918991131698107"><ele>752.0</ele><time>2026-04-19T17:25:31.001Z</time></trkpt><trkpt lat="38.04946571896377" lon="14.919067159041134"><ele>752.0</ele><time>2026-04-19T17:25:32.001Z</time></trkpt><trkpt lat="38.04937375243604" lon="14.919156223301712"><ele>752.0</ele><time>2026-04-19T17:25:33.001Z</time></trkpt><trkpt lat="38.049288664563214" lon="14.91925468149333"><ele>752.0</ele><time>2026-04-19T17:25:34.001Z</time></trkpt><trkpt lat="38.049222191499986" lon="14.919361794336657"><ele>756.4000000000001</ele><time>2026-04-19T17:25:35.001Z</time></trkpt><trkpt lat="38.04919630237687" lon="14.919491725856467"><ele>760.8000000000001</ele><time>2026-04-19T17:25:36.001Z</time></trkpt><trkpt lat="38.04920035482817" lon="14.919634995842323"><ele>765.2</ele><time>2026-04-19T17:25:37.001Z</time></trkpt><trkpt lat="38.04922004755379" lon="14.919775699937924"><ele>769.6</ele><time>2026-04-19T17:25:38.001Z</time></trkpt><trkpt lat="38.04921103305804" lon="14.919901803286828"><ele>774.0</ele><time>2026-04-19T17:25:39.001Z</time></trkpt><trkpt lat="38.049180180457356" lon="14.920015213767256"><ele>775.2</ele><time>2026-04-19T17:25:40.001Z</time></trkpt><trkpt lat="38.0491084952216" lon="14.920079812356107"><ele>776.4000000000001</ele><time>2026-04-19T17:25:41.001Z</time></trkpt><trkpt lat="38.049032483994715" lon="14.920168144316829"><ele>777.6</ele><time>2026-04-19T17:25:42.001Z</time></trkpt><trkpt lat="38.04893877268529" lon="14.920234746142858"><ele>778.8</ele><time>2026-04-19T17:25:43.001Z</time></trkpt><trkpt lat="38.04884655233058" lon="14.920317373275156"><ele>780.0</ele><time>2026-04-19T17:25:44.001Z</time></trkpt><trkpt lat="38.048752177615434" lon="14.920405783183734"><ele>780.0</ele><time>2026-04-19T17:25:45.001Z</time></trkpt><trkpt lat="38.04864826846755" lon="14.920465790249548"><ele>780.0</ele><time>2026-04-19T17:25:46.001Z</time></trkpt><trkpt lat="38.048554462921" lon="14.920519578495888"><ele>780.0</ele><time>2026-04-19T17:25:47.001Z</time></trkpt><trkpt lat="38.04845172214711" lon="14.92058089918319"><ele>780.0</ele><time>2026-04-19T17:25:48.001Z</time></trkpt><trkpt lat="38.04833609849351" lon="14.920617587920285"><ele>781.6</ele><time>2026-04-19T17:25:49.001Z</time></trkpt><trkpt lat="38.04822484671932" lon="14.920665407440122"><ele>783.2</ele><time>2026-04-19T17:25:50.001Z</time></trkpt><trkpt lat="38.04812251595835" lon="14.920706111598411"><ele>784.8</ele><time>2026-04-19T17:25:51.001Z</time></trkpt><trkpt lat="38.048031915877324" lon="14.920729889735979"><ele>786.4</ele><time>2026-04-19T17:25:52.001Z</time></trkpt><trkpt lat="38.04795115832296" lon="14.920682058701669"><ele>788.0</ele><time>2026-04-19T17:25:53.001Z</time></trkpt><trkpt lat="38.04788670897232" lon="14.920621065182411"><ele>788.0000000000001</ele><time>2026-04-19T17:25:54.001Z</time></trkpt><trkpt lat="38.0478112433367" lon="14.920558234783922"><ele>788.0</ele><time>2026-04-19T17:25:55.001Z</time></trkpt><trkpt lat="38.04773323450278" lon="14.920500197465701"><ele>788.0</ele><time>2026-04-19T17:25:56.001Z</time></trkpt><trkpt lat="38.04765666902439" lon="14.920439556064366"><ele>788.0</ele><time>2026-04-19T17:25:57.001Z</time></trkpt><trkpt lat="38.04757672291766" lon="14.920374412501594"><ele>788.0000000000001</ele><time>2026-04-19T17:25:58.001Z</time></trkpt><trkpt lat="38.047507740790856" lon="14.920316003485386"><ele>788.0</ele><time>2026-04-19T17:25:59.001Z</time></trkpt><trkpt lat="38.047444474342164" lon="14.920260989232855"><ele>790.1666666666667</ele><time>2026-04-19T17:26:00.001Z</time></trkpt><trkpt lat="38.04738202046681" lon="14.920210046863438"><ele>792.3333333333334</ele><time>2026-04-19T17:26:01.001Z</time></trkpt><trkpt lat="38.04731524645065" lon="14.920160180155564"><ele>794.5</ele><time>2026-04-19T17:26:02.001Z</time></trkpt><trkpt lat="38.04723243125928" lon="14.92014536275733"><ele>796.6666666666667</ele><time>2026-04-19T17:26:03.001Z</time></trkpt><trkpt lat="38.04716315403725" lon="14.920131783295469"><ele>798.8333333333334</ele><time>2026-04-19T17:26:04.001Z</time></trkpt><trkpt lat="38.04708425235626" lon="14.92011006808053"><ele>801.0</ele><time>2026-04-19T17:26:05.001Z</time></trkpt><trkpt lat="38.047001015247055" lon="14.920104959112619"><ele>801.0</ele><time>2026-04-19T17:26:06.001Z</time></trkpt><trkpt lat="38.04691377544581" lon="14.92010259969383"><ele>801.0</ele><time>2026-04-19T17:26:07.001Z</time></trkpt><trkpt lat="38.04682842818909" lon="14.920101538974993"><ele>801.0</ele><time>2026-04-19T17:26:08.001Z</time></trkpt><trkpt lat="38.04673840047845" lon="14.920114506720294"><ele>801.0</ele><time>2026-04-19T17:26:09.001Z</time></trkpt><trkpt lat="38.04664657409882" lon="14.920108076602036"><ele>801.0</ele><time>2026-04-19T17:26:10.001Z</time></trkpt><trkpt lat="38.04655742130133" lon="14.920103563561563"><ele>801.0</ele><time>2026-04-19T17:26:11.001Z</time></trkpt><trkpt lat="38.04646480148153" lon="14.920106610167323"><ele>801.1666666666666</ele><time>2026-04-19T17:26:12.001Z</time></trkpt><trkpt lat="38.046373115534664" lon="14.920114227142566"><ele>801.3333333333333</ele><time>2026-04-19T17:26:13.001Z</time></trkpt><trkpt lat="38.0462833127969" lon="14.920122789841946"><ele>801.5</ele><time>2026-04-19T17:26:14.001Z</time></trkpt><trkpt lat="38.04619818473036" lon="14.920135555846588"><ele>801.6666666666666</ele><time>2026-04-19T17:26:15.001Z</time></trkpt><trkpt lat="38.046119971631356" lon="14.920164298580357"><ele>801.8333333333333</ele><time>2026-04-19T17:26:16.001Z</time></trkpt><trkpt lat="38.04605805780147" lon="14.920227663597501"><ele>802.0</ele><time>2026-04-19T17:26:17Z</time></trkpt><trkpt lat="38.04603305986429" lon="14.920320648760432"><ele>801.9999999999999</ele><time>2026-04-19T17:26:18Z</time></trkpt><trkpt lat="38.046052490366336" lon="14.920412949565057"><ele>802.0</ele><time>2026-04-19T17:26:19Z</time></trkpt><trkpt lat="38.04611397236075" lon="14.920466651488645"><ele>802.0</ele><time>2026-04-19T17:26:20Z</time></trkpt><trkpt lat="38.0461885842756" lon="14.920486236799565"><ele>802.0</ele><time>2026-04-19T17:26:21Z</time></trkpt><trkpt lat="38.04627401689954" lon="14.920467421537865"><ele>801.9999999999999</ele><time>2026-04-19T17:26:22Z</time></trkpt><trkpt lat="38.0463678200657" lon="14.92043436483053"><ele>802.0</ele><time>2026-04-19T17:26:23Z</time></trkpt><trkpt lat="38.04647703384683" lon="14.920400651584247"><ele>802.0</ele><time>2026-04-19T17:26:24Z</time></trkpt><trkpt lat="38.04659406965664" lon="14.920377741477457"><ele>802.0</ele><time>2026-04-19T17:26:25Z</time></trkpt><trkpt lat="38.046707613868655" lon="14.920364417822395"><ele>802.0</ele><time>2026-04-19T17:26:26Z</time></trkpt><trkpt lat="38.04682688916972" lon="14.920363021874056"><ele>802.0</ele><time>2026-04-19T17:26:27Z</time></trkpt><trkpt lat="38.04694422550148" lon="14.920379422891084"><ele>801.8</ele><time>2026-04-19T17:26:28Z</time></trkpt><trkpt lat="38.04705522421154" lon="14.920414042235402"><ele>801.6</ele><time>2026-04-19T17:26:29Z</time></trkpt><trkpt lat="38.04715703033555" lon="14.920469923685772"><ele>801.4</ele><time>2026-04-19T17:26:30Z</time></trkpt><trkpt lat="38.04724312141533" lon="14.920554178295015"><ele>801.1999999999999</ele><time>2026-04-19T17:26:31Z</time></trkpt><trkpt lat="38.04732096919315" lon="14.920656414918135"><ele>801.0</ele><time>2026-04-19T17:26:32Z</time></trkpt><trkpt lat="38.04739553130692" lon="14.920765052084821"><ele>804.0</ele><time>2026-04-19T17:26:33Z</time></trkpt><trkpt lat="38.047470772991076" lon="14.92087560064202"><ele>807.0</ele><time>2026-04-19T17:26:34Z</time></trkpt><trkpt lat="38.04754971268229" lon="14.92097850884494"><ele>810.0</ele><time>2026-04-19T17:26:35Z</time></trkpt><trkpt lat="38.04763911069587" lon="14.921059746176747"><ele>813.0</ele><time>2026-04-19T17:26:36Z</time></trkpt><trkpt lat="38.047744544364136" lon="14.921122079881908"><ele>813.0</ele><time>2026-04-19T17:26:37Z</time></trkpt><trkpt lat="38.04785431541657" lon="14.9211802802134"><ele>813.0</ele><time>2026-04-19T17:26:38Z</time></trkpt><trkpt lat="38.04796557687955" lon="14.92123457823966"><ele>813.0</ele><time>2026-04-19T17:26:39Z</time></trkpt><trkpt lat="38.04807002526221" lon="14.92128864744848"><ele>813.0</ele><time>2026-04-19T17:26:40Z</time></trkpt><trkpt lat="38.04817019940574" lon="14.921334204207445"><ele>813.0</ele><time>2026-04-19T17:26:41Z</time></trkpt><trkpt lat="38.04826596050915" lon="14.92134105198021"><ele>813.0</ele><time>2026-04-19T17:26:42Z</time></trkpt><trkpt lat="38.04836846859058" lon="14.921312887050671"><ele>813.0</ele><time>2026-04-19T17:26:43.001Z</time></trkpt><trkpt lat="38.04846955345753" lon="14.921251079824144"><ele>813.0</ele><time>2026-04-19T17:26:44.001Z</time></trkpt><trkpt lat="38.04857008357644" lon="14.921176001538969"><ele>813.0</ele><time>2026-04-19T17:26:45.001Z</time></trkpt><trkpt lat="38.04867387061226" lon="14.921093014316565"><ele>813.5</ele><time>2026-04-19T17:26:46.001Z</time></trkpt><trkpt lat="38.04878110766002" lon="14.921011006251167"><ele>814.0</ele><time>2026-04-19T17:26:47.001Z</time></trkpt><trkpt lat="38.04889022759049" lon="14.920930162827604"><ele>814.5</ele><time>2026-04-19T17:26:48.001Z</time></trkpt><trkpt lat="38.0489941317525" lon="14.920852221223583"><ele>815.0</ele><time>2026-04-19T17:26:49.001Z</time></trkpt><trkpt lat="38.049101785048784" lon="14.920778342987065"><ele>812.25</ele><time>2026-04-19T17:26:50.001Z</time></trkpt><trkpt lat="38.049207042617375" lon="14.92072297039024"><ele>809.5</ele><time>2026-04-19T17:26:51.001Z</time></trkpt><trkpt lat="38.04931584714447" lon="14.92068349229515"><ele>806.75</ele><time>2026-04-19T17:26:52.001Z</time></trkpt><trkpt lat="38.04941504028452" lon="14.92062359186188"><ele>804.0</ele><time>2026-04-19T17:26:53.001Z</time></trkpt><trkpt lat="38.04949764976874" lon="14.920525515751871"><ele>804.0</ele><time>2026-04-19T17:26:54.001Z</time></trkpt><trkpt lat="38.049565678593524" lon="14.920397798656579"><ele>804.0</ele><time>2026-04-19T17:26:55.001Z</time></trkpt><trkpt lat="38.04963223847388" lon="14.920266884679792"><ele>804.0</ele><time>2026-04-19T17:26:56.001Z</time></trkpt><trkpt lat="38.04970751232257" lon="14.920141985706854"><ele>804.0</ele><time>2026-04-19T17:26:57.001Z</time></trkpt><trkpt lat="38.049797630308646" lon="14.920032192899843"><ele>806.25</ele><time>2026-04-19T17:26:58.001Z</time></trkpt><trkpt lat="38.04992837433871" lon="14.919927820361977"><ele>808.5</ele><time>2026-04-19T17:26:59.001Z</time></trkpt><trkpt lat="38.050058494957206" lon="14.919821761018376"><ele>810.75</ele><time>2026-04-19T17:27:00.001Z</time></trkpt><trkpt lat="38.05012450740132" lon="14.919755646858949"><ele>813.0</ele><time>2026-04-19T17:27:01.001Z</time></trkpt><trkpt lat="38.05023661244985" lon="14.919662557672078"><ele>813.0</ele><time>2026-04-19T17:27:02.001Z</time></trkpt><trkpt lat="38.050346640607" lon="14.919556523162724"><ele>813.0</ele><time>2026-04-19T17:27:03.001Z</time></trkpt><trkpt lat="38.05044272518528" lon="14.919429927595495"><ele>813.0</ele><time>2026-04-19T17:27:04.001Z</time></trkpt><trkpt lat="38.050543358282006" lon="14.919284825682034"><ele>813.0</ele><time>2026-04-19T17:27:05.001Z</time></trkpt><trkpt lat="38.05063506438927" lon="14.919151050275374"><ele>817.25</ele><time>2026-04-19T17:27:06.001Z</time></trkpt><trkpt lat="38.05072721450284" lon="14.919014367842937"><ele>821.5</ele><time>2026-04-19T17:27:07.001Z</time></trkpt><trkpt lat="38.050800688090895" lon="14.918860864312576"><ele>825.75</ele><time>2026-04-19T17:27:08.001Z</time></trkpt><trkpt lat="38.05084514690923" lon="14.918687510882947"><ele>830.0</ele><time>2026-04-19T17:27:09.001Z</time></trkpt><trkpt lat="38.050899634276306" lon="14.918550129101195"><ele>830.0</ele><time>2026-04-19T17:27:10.001Z</time></trkpt><trkpt lat="38.050955475784356" lon="14.918434343397626"><ele>830.0</ele><time>2026-04-19T17:27:11.001Z</time></trkpt><trkpt lat="38.05102499994784" lon="14.918342166866838"><ele>830.0</ele><time>2026-04-19T17:27:12.001Z</time></trkpt><trkpt lat="38.051115712677884" lon="14.918282275345726"><ele>830.0</ele><time>2026-04-19T17:27:13.001Z</time></trkpt><trkpt lat="38.051218006880006" lon="14.918239116396236"><ele>830.0</ele><time>2026-04-19T17:27:14.001Z</time></trkpt><trkpt lat="38.05133464776582" lon="14.918193674012725"><ele>829.75</ele><time>2026-04-19T17:27:15.001Z</time></trkpt><trkpt lat="38.05145495688097" lon="14.918150096198199"><ele>829.5</ele><time>2026-04-19T17:27:16.001Z</time></trkpt><trkpt lat="38.05157796589838" lon="14.91810742502771"><ele>829.25</ele><time>2026-04-19T17:27:17.001Z</time></trkpt><trkpt lat="38.051693224410535" lon="14.918063779188815"><ele>829.0</ele><time>2026-04-19T17:27:18.001Z</time></trkpt><trkpt lat="38.05181192070198" lon="14.918093249991372"><ele>829.0</ele><time>2026-04-19T17:27:19.001Z</time></trkpt><trkpt lat="38.0519393115674" lon="14.918116084986115"><ele>829.0</ele><time>2026-04-19T17:27:20.001Z</time></trkpt><trkpt lat="38.05205285873815" lon="14.918152137338188"><ele>829.0</ele><time>2026-04-19T17:27:21.001Z</time></trkpt><trkpt lat="38.052159288114055" lon="14.918212740923918"><ele>829.0</ele><time>2026-04-19T17:27:22.001Z</time></trkpt><trkpt lat="38.052242749447124" lon="14.91831591248175"><ele>835.5</ele><time>2026-04-19T17:27:23.001Z</time></trkpt><trkpt lat="38.05229343918259" lon="14.918446528610845"><ele>842.0</ele><time>2026-04-19T17:27:24.001Z</time></trkpt><trkpt lat="38.05236333405121" lon="14.918580102665718"><ele>848.5</ele><time>2026-04-19T17:27:25.001Z</time></trkpt><trkpt lat="38.05241174263222" lon="14.918732739451844"><ele>855.0</ele><time>2026-04-19T17:27:26.001Z</time></trkpt><trkpt lat="38.052445927561074" lon="14.918883146775977"><ele>855.25</ele><time>2026-04-19T17:27:27.001Z</time></trkpt><trkpt lat="38.05248347040548" lon="14.919048615340653"><ele>855.5</ele><time>2026-04-19T17:27:28.001Z</time></trkpt><trkpt lat="38.05252041651052" lon="14.919207735101985"><ele>855.75</ele><time>2026-04-19T17:27:29.001Z</time></trkpt><trkpt lat="38.052557598993666" lon="14.919367069802611"><ele>856.0</ele><time>2026-04-19T17:27:30.001Z</time></trkpt><trkpt lat="38.05259314294102" lon="14.919523686735884"><ele>856.0</ele><time>2026-04-19T17:27:31.001Z</time></trkpt><trkpt lat="38.05263811912812" lon="14.919668016952352"><ele>856.0</ele><time>2026-04-19T17:27:32.001Z</time></trkpt><trkpt lat="38.05267661123975" lon="14.9198191121664"><ele>856.0</ele><time>2026-04-19T17:27:33.001Z</time></trkpt><trkpt lat="38.05273535392081" lon="14.919954563361795"><ele>856.0</ele><time>2026-04-19T17:27:34.001Z</time></trkpt><trkpt lat="38.052811303384765" lon="14.920075072475708"><ele>860.5</ele><time>2026-04-19T17:27:35.001Z</time></trkpt><trkpt lat="38.052900240277474" lon="14.920175601417608"><ele>865.0</ele><time>2026-04-19T17:27:36.001Z</time></trkpt><trkpt lat="38.053000401073525" lon="14.920258942597286"><ele>869.5</ele><time>2026-04-19T17:27:37.001Z</time></trkpt><trkpt lat="38.05309409303248" lon="14.920339174265262"><ele>874.0</ele><time>2026-04-19T17:27:38.001Z</time></trkpt><trkpt lat="38.05317119631411" lon="14.920435840309958"><ele>874.0</ele><time>2026-04-19T17:27:39.001Z</time></trkpt><trkpt lat="38.05322012363115" lon="14.920554053674364"><ele>874.0000000000001</ele><time>2026-04-19T17:27:40.001Z</time></trkpt><trkpt lat="38.05322274391894" lon="14.920698919856575"><ele>874.0000000000001</ele><time>2026-04-19T17:27:41.001Z</time></trkpt><trkpt lat="38.05325932867427" lon="14.920815190022266"><ele>874.0</ele><time>2026-04-19T17:27:42.001Z</time></trkpt><trkpt lat="38.05330414739902" lon="14.920918649790151"><ele>874.0</ele><time>2026-04-19T17:27:43.001Z</time></trkpt><trkpt lat="38.05336437700337" lon="14.921007879081403"><ele>870.6666666666666</ele><time>2026-04-19T17:27:44Z</time></trkpt><trkpt lat="38.05342877680444" lon="14.92108826916314"><ele>867.3333333333333</ele><time>2026-04-19T17:27:45Z</time></trkpt><trkpt lat="38.053496897703106" lon="14.921182995673703"><ele>864.0</ele><time>2026-04-19T17:27:46Z</time></trkpt><trkpt lat="38.05355551921524" lon="14.921251512844304"><ele>860.6666666666667</ele><time>2026-04-19T17:27:47Z</time></trkpt><trkpt lat="38.05361751612737" lon="14.921318947523563"><ele>857.3333333333334</ele><time>2026-04-19T17:27:48Z</time></trkpt><trkpt lat="38.05367696725694" lon="14.921391385453173"><ele>854.0</ele><time>2026-04-19T17:27:49Z</time></trkpt><trkpt lat="38.053735193413665" lon="14.9214681484066"><ele>854.0000000000001</ele><time>2026-04-19T17:27:50Z</time></trkpt><trkpt lat="38.05379509982072" lon="14.921546909107487"><ele>854.0</ele><time>2026-04-19T17:27:51Z</time></trkpt><trkpt lat="38.05385900201658" lon="14.921627447055842"><ele>854.0</ele><time>2026-04-19T17:27:52Z</time></trkpt><trkpt lat="38.05391286440354" lon="14.92171224696178"><ele>854.0</ele><time>2026-04-19T17:27:53Z</time></trkpt><trkpt lat="38.05398516489691" lon="14.921794585681221"><ele>854.0000000000001</ele><time>2026-04-19T17:27:54Z</time></trkpt><trkpt lat="38.054045143039694" lon="14.921879732347804"><ele>854.0</ele><time>2026-04-19T17:27:55Z</time></trkpt><trkpt lat="38.05410604445703" lon="14.921957379977092"><ele>852.5000000000001</ele><time>2026-04-19T17:27:56Z</time></trkpt><trkpt lat="38.05416401588097" lon="14.922019783432118"><ele>851.0</ele><time>2026-04-19T17:27:57Z</time></trkpt><trkpt lat="38.054216021730376" lon="14.92210135548514"><ele>849.5</ele><time>2026-04-19T17:27:58Z</time></trkpt><trkpt lat="38.054263115027446" lon="14.9221664905697"><ele>848.0</ele><time>2026-04-19T17:27:59Z</time></trkpt><trkpt lat="38.0543147690893" lon="14.922232322633432"><ele>846.5000000000001</ele><time>2026-04-19T17:28:00Z</time></trkpt><trkpt lat="38.05437978209607" lon="14.922315306264252"><ele>845.0</ele><time>2026-04-19T17:28:02Z</time></trkpt><trkpt lat="38.05441330282628" lon="14.922406818372334"><ele>845.0000000000001</ele><time>2026-04-19T17:28:04Z</time></trkpt><trkpt lat="38.054420979334125" lon="14.922564457396353"><ele>845.0</ele><time>2026-04-19T17:28:06Z</time></trkpt><trkpt lat="38.05441960302879" lon="14.922649311000093"><ele>845.0</ele><time>2026-04-19T17:28:07Z</time></trkpt><trkpt lat="38.054429640242944" lon="14.922734667780887"><ele>845.0</ele><time>2026-04-19T17:28:08Z</time></trkpt><trkpt lat="38.05446971784191" lon="14.922813754298664"><ele>845.0000000000001</ele><time>2026-04-19T17:28:09Z</time></trkpt><trkpt lat="38.0545418681206" lon="14.922868498649894"><ele>845.0</ele><time>2026-04-19T17:28:10Z</time></trkpt><trkpt lat="38.05461546562046" lon="14.922942377237336"><ele>845.0</ele><time>2026-04-19T17:28:11Z</time></trkpt><trkpt lat="38.054690857722576" lon="14.923022903857762"><ele>845.0</ele><time>2026-04-19T17:28:12Z</time></trkpt><trkpt lat="38.05477331904297" lon="14.923114494923247"><ele>845.0</ele><time>2026-04-19T17:28:13Z</time></trkpt><trkpt lat="38.054866792361814" lon="14.923186356922493"><ele>845.0</ele><time>2026-04-19T17:28:14Z</time></trkpt><trkpt lat="38.054963873717156" lon="14.923247135438688"><ele>845.0</ele><time>2026-04-19T17:28:15Z</time></trkpt><trkpt lat="38.05506218830547" lon="14.923306415607684"><ele>845.0</ele><time>2026-04-19T17:28:16Z</time></trkpt><trkpt lat="38.05515271698975" lon="14.923383455016577"><ele>845.0</ele><time>2026-04-19T17:28:17Z</time></trkpt><trkpt lat="38.05523888389063" lon="14.923471163807383"><ele>845.0</ele><time>2026-04-19T17:28:18Z</time></trkpt><trkpt lat="38.055321453222426" lon="14.923566460043112"><ele>845.0</ele><time>2026-04-19T17:28:19Z</time></trkpt><trkpt lat="38.05540188347534" lon="14.923659762016227"><ele>845.0</ele><time>2026-04-19T17:28:20Z</time></trkpt><trkpt lat="38.055489075492595" lon="14.923744754044048"><ele>842.8</ele><time>2026-04-19T17:28:21Z</time></trkpt><trkpt lat="38.05557227893509" lon="14.923829955787856"><ele>840.6</ele><time>2026-04-19T17:28:22Z</time></trkpt><trkpt lat="38.05565996514628" lon="14.92390427832071"><ele>838.4000000000001</ele><time>2026-04-19T17:28:22.999Z</time></trkpt><trkpt lat="38.055757176989935" lon="14.923953735099841"><ele>836.2</ele><time>2026-04-19T17:28:23.999Z</time></trkpt><trkpt lat="38.05586458099603" lon="14.923983993147623"><ele>834.0</ele><time>2026-04-19T17:28:24.999Z</time></trkpt><trkpt lat="38.055969589640846" lon="14.924013180299147"><ele>834.0</ele><time>2026-04-19T17:28:25.999Z</time></trkpt><trkpt lat="38.056064646158646" lon="14.924071380382639"><ele>834.0</ele><time>2026-04-19T17:28:26.999Z</time></trkpt><trkpt lat="38.056160984627695" lon="14.924109755004991"><ele>834.0</ele><time>2026-04-19T17:28:27.999Z</time></trkpt><trkpt lat="38.05624864414294" lon="14.924158676623923"><ele>834.0</ele><time>2026-04-19T17:28:28.999Z</time></trkpt><trkpt lat="38.05632927109511" lon="14.92422080336019"><ele>834.0</ele><time>2026-04-19T17:28:29.999Z</time></trkpt><trkpt lat="38.05640468815306" lon="14.924293503117372"><ele>833.8000000000001</ele><time>2026-04-19T17:28:31Z</time></trkpt><trkpt lat="38.056471255496334" lon="14.92437814483986"><ele>833.6</ele><time>2026-04-19T17:28:32Z</time></trkpt><trkpt lat="38.05653636901411" lon="14.924464555134898"><ele>833.4</ele><time>2026-04-19T17:28:33Z</time></trkpt><trkpt lat="38.05659790093693" lon="14.924552406259401"><ele>833.2</ele><time>2026-04-19T17:28:34Z</time></trkpt><trkpt lat="38.05665150192614" lon="14.924648048652312"><ele>833.0</ele><time>2026-04-19T17:28:35Z</time></trkpt><trkpt lat="38.05670849571135" lon="14.924751565892365"><ele>833.0</ele><time>2026-04-19T17:28:36Z</time></trkpt><trkpt lat="38.0567669903944" lon="14.924856568464868"><ele>833.0</ele><time>2026-04-19T17:28:37Z</time></trkpt><trkpt lat="38.05682698004185" lon="14.92496332806058"><ele>833.0</ele><time>2026-04-19T17:28:38Z</time></trkpt><trkpt lat="38.05688690625619" lon="14.925070124001138"><ele>833.0</ele><time>2026-04-19T17:28:39Z</time></trkpt><trkpt lat="38.05693744710763" lon="14.925177727661163"><ele>833.0</ele><time>2026-04-19T17:28:40Z</time></trkpt><trkpt lat="38.05698492365714" lon="14.925283455973767"><ele>829.4</ele><time>2026-04-19T17:28:41Z</time></trkpt><trkpt lat="38.057021208930436" lon="14.925388916064453"><ele>825.8</ele><time>2026-04-19T17:28:42Z</time></trkpt><trkpt lat="38.05704813861053" lon="14.925502885722027"><ele>822.2</ele><time>2026-04-19T17:28:43Z</time></trkpt><trkpt lat="38.05706754554722" lon="14.925617144945717"><ele>818.6</ele><time>2026-04-19T17:28:44Z</time></trkpt><trkpt lat="38.05707734311028" lon="14.925728979305225"><ele>815.0</ele><time>2026-04-19T17:28:45Z</time></trkpt><trkpt lat="38.0570901186498" lon="14.9258372357672"><ele>815.0000000000001</ele><time>2026-04-19T17:28:46Z</time></trkpt><trkpt lat="38.05710537093469" lon="14.925917593171432"><ele>815.0</ele><time>2026-04-19T17:28:47Z</time></trkpt><trkpt lat="38.057172576598255" lon="14.926041931136451"><ele>815.0</ele><time>2026-04-19T17:28:49Z</time></trkpt><trkpt lat="38.05721700375772" lon="14.926135546060273"><ele>815.0</ele><time>2026-04-19T17:28:51Z</time></trkpt><trkpt lat="38.05715808134998" lon="14.926045912032578"><ele>815.0000000000001</ele><time>2026-04-19T17:30:08Z</time></trkpt><trkpt lat="38.057125412580426" lon="14.925970550994226"><ele>815.0</ele><time>2026-04-19T17:30:09Z</time></trkpt><trkpt lat="38.057115662472846" lon="14.925863410678296"><ele>815.0000000000001</ele><time>2026-04-19T17:30:10Z</time></trkpt><trkpt lat="38.057107272077914" lon="14.925774884852643"><ele>815.0</ele><time>2026-04-19T17:30:11Z</time></trkpt><trkpt lat="38.05709686053963" lon="14.925684963625155"><ele>815.0</ele><time>2026-04-19T17:30:12Z</time></trkpt><trkpt lat="38.05709102766006" lon="14.925594304628698"><ele>815.0</ele><time>2026-04-19T17:30:13Z</time></trkpt><trkpt lat="38.05707818299166" lon="14.925499152008388"><ele>815.0000000000001</ele><time>2026-04-19T17:30:14Z</time></trkpt><trkpt lat="38.05705647940148" lon="14.92539846963591"><ele>815.0</ele><time>2026-04-19T17:30:15Z</time></trkpt><trkpt lat="38.05701906022882" lon="14.925296386076242"><ele>815.0</ele><time>2026-04-19T17:30:16.001Z</time></trkpt><trkpt lat="38.05697413929747" lon="14.925196423545405"><ele>815.0</ele><time>2026-04-19T17:30:17.001Z</time></trkpt><trkpt lat="38.056924419816376" lon="14.92509770890189"><ele>815.0</ele><time>2026-04-19T17:30:18.001Z</time></trkpt><trkpt lat="38.056872067431144" lon="14.925003215952268"><ele>815.0</ele><time>2026-04-19T17:30:19.001Z</time></trkpt><trkpt lat="38.056818345070255" lon="14.924910853909"><ele>815.0</ele><time>2026-04-19T17:30:20.001Z</time></trkpt><trkpt lat="38.05676581308575" lon="14.924818035783364"><ele>813.4</ele><time>2026-04-19T17:30:21.001Z</time></trkpt><trkpt lat="38.05668574617843" lon="14.924764797129823"><ele>811.8</ele><time>2026-04-19T17:30:22.001Z</time></trkpt><trkpt lat="38.056616402838905" lon="14.924691021679463"><ele>810.2</ele><time>2026-04-19T17:30:23.001Z</time></trkpt><trkpt lat="38.05654333421853" lon="14.924613282731913"><ele>808.6</ele><time>2026-04-19T17:30:24.001Z</time></trkpt><trkpt lat="38.05645129491107" lon="14.924564041397108"><ele>807.0</ele><time>2026-04-19T17:30:25.001Z</time></trkpt><trkpt lat="38.05637092681491" lon="14.924474026435789"><ele>807.0</ele><time>2026-04-19T17:30:26.001Z</time></trkpt><trkpt lat="38.05630640932559" lon="14.924407972241122"><ele>807.0</ele><time>2026-04-19T17:30:27.001Z</time></trkpt><trkpt lat="38.05623398435661" lon="14.92436327277345"><ele>807.0</ele><time>2026-04-19T17:30:28.001Z</time></trkpt><trkpt lat="38.056150025998306" lon="14.924334128355524"><ele>807.0</ele><time>2026-04-19T17:30:29Z</time></trkpt><trkpt lat="38.0561155563283" lon="14.92440355033653"><ele>807.0</ele><time>2026-04-19T17:30:30Z</time></trkpt><trkpt lat="38.05601016482601" lon="14.924402545133313"><ele>807.0</ele><time>2026-04-19T17:30:31Z</time></trkpt><trkpt lat="38.05590344519571" lon="14.924401527262663"><ele>807.0</ele><time>2026-04-19T17:30:32Z</time></trkpt><trkpt lat="38.05579941598104" lon="14.924400535052946"><ele>807.0</ele><time>2026-04-19T17:30:33Z</time></trkpt><trkpt lat="38.05570136156791" lon="14.923916102199481"><ele>808.25</ele><time>2026-04-19T17:30:34Z</time></trkpt><trkpt lat="38.05560991017134" lon="14.92384408899312"><ele>809.5</ele><time>2026-04-19T17:30:35Z</time></trkpt><trkpt lat="38.05554611528152" lon="14.923720165337073"><ele>810.75</ele><time>2026-04-19T17:30:36Z</time></trkpt><trkpt lat="38.05548809914693" lon="14.923546409895138"><ele>812.0</ele><time>2026-04-19T17:30:37Z</time></trkpt><trkpt lat="38.05544083033422" lon="14.923338792461744"><ele>828.5</ele><time>2026-04-19T17:30:38Z</time></trkpt><trkpt lat="38.05540590077633" lon="14.923109886857764"><ele>845.0</ele><time>2026-04-19T17:30:39Z</time></trkpt><trkpt lat="38.055118153812984" lon="14.923380629314005"><ele>845.0</ele><time>2026-04-19T17:30:40Z</time></trkpt><trkpt lat="38.0550375787658" lon="14.923260115231962"><ele>845.0</ele><time>2026-04-19T17:30:41Z</time></trkpt><trkpt lat="38.054944367998445" lon="14.92319595441674"><ele>845.0</ele><time>2026-04-19T17:30:42Z</time></trkpt><trkpt lat="38.05485308548851" lon="14.92315590341958"><ele>845.0</ele><time>2026-04-19T17:30:43Z</time></trkpt><trkpt lat="38.05478119850908" lon="14.923079725635304"><ele>845.0</ele><time>2026-04-19T17:30:44Z</time></trkpt><trkpt lat="38.05470500941547" lon="14.923002667863997"><ele>845.0000000000001</ele><time>2026-04-19T17:30:45Z</time></trkpt><trkpt lat="38.05463644554093" lon="14.922916216573405"><ele>845.0</ele><time>2026-04-19T17:30:46Z</time></trkpt><trkpt lat="38.05456008930585" lon="14.922831712171844"><ele>845.0</ele><time>2026-04-19T17:30:47Z</time></trkpt><trkpt lat="38.054487813028956" lon="14.922751723164847"><ele>845.0</ele><time>2026-04-19T17:30:48Z</time></trkpt><trkpt lat="38.054437564562" lon="14.922677548516143"><ele>845.0000000000001</ele><time>2026-04-19T17:30:49Z</time></trkpt><trkpt lat="38.05440625793738" lon="14.922596241236473"><ele>845.0</ele><time>2026-04-19T17:30:50Z</time></trkpt><trkpt lat="38.05444830266209" lon="14.922509691891468"><ele>844.9999999999999</ele><time>2026-04-19T17:30:51Z</time></trkpt><trkpt lat="38.05444500957763" lon="14.922421248520417"><ele>845.0</ele><time>2026-04-19T17:30:52Z</time></trkpt><trkpt lat="38.05443071584864" lon="14.922336893394792"><ele>845.0</ele><time>2026-04-19T17:30:53Z</time></trkpt><trkpt lat="38.05439228639715" lon="14.92225809194993"><ele>845.0</ele><time>2026-04-19T17:30:55Z</time></trkpt><trkpt lat="38.05433695399941" lon="14.922191929682905"><ele>845.0</ele><time>2026-04-19T17:30:59Z</time></trkpt><trkpt lat="38.05427946261533" lon="14.922121377051763"><ele>844.9999999999999</ele><time>2026-04-19T17:31:03Z</time></trkpt><trkpt lat="38.05422748967139" lon="14.922070640764698"><ele>845.0</ele><time>2026-04-19T17:31:20Z</time></trkpt><trkpt lat="38.05418892175511" lon="14.922004570235234"><ele>843.6</ele><time>2026-04-19T17:31:22Z</time></trkpt><trkpt lat="38.0540385803342" lon="14.922100352805588"><ele>842.2</ele><time>2026-04-19T17:31:23Z</time></trkpt><trkpt lat="38.053955193387715" lon="14.922038690684047"><ele>840.8</ele><time>2026-04-19T17:31:24Z</time></trkpt><trkpt lat="38.05388400493808" lon="14.921985624654768"><ele>839.4</ele><time>2026-04-19T17:31:25Z</time></trkpt><trkpt lat="38.053811469752226" lon="14.921922821098223"><ele>838.0</ele><time>2026-04-19T17:31:26Z</time></trkpt><trkpt lat="38.053729943867985" lon="14.921849882621471"><ele>838.0</ele><time>2026-04-19T17:31:27Z</time></trkpt><trkpt lat="38.053645810076766" lon="14.921773504030272"><ele>838.0</ele><time>2026-04-19T17:31:28Z</time></trkpt><trkpt lat="38.053557870300814" lon="14.921692907040482"><ele>838.0</ele><time>2026-04-19T17:31:29Z</time></trkpt><trkpt lat="38.053461036310054" lon="14.921619041154603"><ele>838.0</ele><time>2026-04-19T17:31:30Z</time></trkpt><trkpt lat="38.05336153138628" lon="14.92156776263293"><ele>838.0</ele><time>2026-04-19T17:31:31Z</time></trkpt><trkpt lat="38.053275207636126" lon="14.921524560943089"><ele>844.4</ele><time>2026-04-19T17:31:32Z</time></trkpt><trkpt lat="38.05319772809103" lon="14.921460576068831"><ele>850.8</ele><time>2026-04-19T17:31:33Z</time></trkpt><trkpt lat="38.053146272380566" lon="14.921373770338262"><ele>857.2</ele><time>2026-04-19T17:31:34Z</time></trkpt><trkpt lat="38.05309575194028" lon="14.92129069235471"><ele>863.6</ele><time>2026-04-19T17:31:35Z</time></trkpt><trkpt lat="38.05303950926553" lon="14.921197459388996"><ele>870.0</ele><time>2026-04-19T17:31:36Z</time></trkpt><trkpt lat="38.0529696651169" lon="14.921101658062781"><ele>870.0</ele><time>2026-04-19T17:31:37Z</time></trkpt><trkpt lat="38.0529096243574" lon="14.920996853769818"><ele>870.0</ele><time>2026-04-19T17:31:38Z</time></trkpt><trkpt lat="38.05284677998002" lon="14.92089657769435"><ele>870.0</ele><time>2026-04-19T17:31:39Z</time></trkpt><trkpt lat="38.05277089149949" lon="14.920805495903002"><ele>870.0</ele><time>2026-04-19T17:31:40Z</time></trkpt><trkpt lat="38.052663097818524" lon="14.920736308375549"><ele>870.0</ele><time>2026-04-19T17:31:41Z</time></trkpt><trkpt lat="38.05254912936509" lon="14.920665951479892"><ele>877.25</ele><time>2026-04-19T17:31:42Z</time></trkpt><trkpt lat="38.05243110188313" lon="14.920581023742642"><ele>884.5</ele><time>2026-04-19T17:31:43Z</time></trkpt><trkpt lat="38.05232035538046" lon="14.920509577980434"><ele>891.75</ele><time>2026-04-19T17:31:44Z</time></trkpt><trkpt lat="38.05221989427303" lon="14.920441502194562"><ele>899.0</ele><time>2026-04-19T17:31:45Z</time></trkpt><trkpt lat="38.05213079570535" lon="14.920373859884666"><ele>899.0</ele><time>2026-04-19T17:31:46Z</time></trkpt><trkpt lat="38.0520677166344" lon="14.920273067683578"><ele>899.0000000000001</ele><time>2026-04-19T17:31:47Z</time></trkpt><trkpt lat="38.05200685774498" lon="14.920169517920492"><ele>899.0000000000001</ele><time>2026-04-19T17:31:48Z</time></trkpt><trkpt lat="38.05193930148419" lon="14.920062934542198"><ele>899.0</ele><time>2026-04-19T17:31:49Z</time></trkpt><trkpt lat="38.051846312904914" lon="14.91999123574265"><ele>899.0</ele><time>2026-04-19T17:31:50Z</time></trkpt><trkpt lat="38.05173310135973" lon="14.919976648885706"><ele>894.8000000000001</ele><time>2026-04-19T17:31:51Z</time></trkpt><trkpt lat="38.05163275287297" lon="14.919980524922826"><ele>890.6000000000001</ele><time>2026-04-19T17:31:52Z</time></trkpt><trkpt lat="38.051544821304226" lon="14.919993278218058"><ele>886.4</ele><time>2026-04-19T17:31:53Z</time></trkpt><trkpt lat="38.05149466410003" lon="14.920084092192857"><ele>882.2</ele><time>2026-04-19T17:31:54Z</time></trkpt><trkpt lat="38.051442105519385" lon="14.92013115983473"><ele>878.0</ele><time>2026-04-19T17:31:55Z</time></trkpt><trkpt lat="38.05136491612276" lon="14.920240932248502"><ele>878.0</ele><time>2026-04-19T17:31:57Z</time></trkpt><trkpt lat="38.05129328529138" lon="14.920351854599865"><ele>878.0</ele><time>2026-04-19T17:31:59Z</time></trkpt><trkpt lat="38.051258904544376" lon="14.92043212564725"><ele>878.0</ele><time>2026-04-19T17:32:01Z</time></trkpt><trkpt lat="38.051203704483115" lon="14.920526090974617"><ele>878.0</ele><time>2026-04-19T17:32:03Z</time></trkpt><trkpt lat="38.05115691031664" lon="14.920607596943315"><ele>878.0</ele><time>2026-04-19T17:32:04Z</time></trkpt><trkpt lat="38.05109583160477" lon="14.92069918492208"><ele>878.0</ele><time>2026-04-19T17:32:05Z</time></trkpt><trkpt lat="38.0510252808007" lon="14.920788225524497"><ele>878.0</ele><time>2026-04-19T17:32:06Z</time></trkpt><trkpt lat="38.05093950824421" lon="14.920870046527694"><ele>878.0</ele><time>2026-04-19T17:32:07Z</time></trkpt><trkpt lat="38.05083942723847" lon="14.920930567479584"><ele>878.0</ele><time>2026-04-19T17:32:08Z</time></trkpt><trkpt lat="38.05073963372319" lon="14.920973863447774"><ele>878.0</ele><time>2026-04-19T17:32:09Z</time></trkpt><trkpt lat="38.0506408876522" lon="14.921036195071755"><ele>876.8</ele><time>2026-04-19T17:32:10Z</time></trkpt><trkpt lat="38.050545723911455" lon="14.921084630821374"><ele>875.5999999999999</ele><time>2026-04-19T17:32:11Z</time></trkpt><trkpt lat="38.05046552100739" lon="14.9211656352895"><ele>874.4000000000001</ele><time>2026-04-19T17:32:12.001Z</time></trkpt><trkpt lat="38.050393174461966" lon="14.921264490180963"><ele>873.2</ele><time>2026-04-19T17:32:13.001Z</time></trkpt><trkpt lat="38.050322898271865" lon="14.921391632782038"><ele>872.0</ele><time>2026-04-19T17:32:14.001Z</time></trkpt><trkpt lat="38.05024471027925" lon="14.921499888707329"><ele>872.0</ele><time>2026-04-19T17:32:15.001Z</time></trkpt><trkpt lat="38.05014458366459" lon="14.921576344545324"><ele>872.0</ele><time>2026-04-19T17:32:16.001Z</time></trkpt><trkpt lat="38.05007548081377" lon="14.921676853033347"><ele>872.0</ele><time>2026-04-19T17:32:17.001Z</time></trkpt><trkpt lat="38.05000701040712" lon="14.921763178150504"><ele>872.0</ele><time>2026-04-19T17:32:18.001Z</time></trkpt><trkpt lat="38.04995594140667" lon="14.921873183427394"><ele>872.0</ele><time>2026-04-19T17:32:19.001Z</time></trkpt><trkpt lat="38.04989304758704" lon="14.92196980534499"><ele>871.8</ele><time>2026-04-19T17:32:20.001Z</time></trkpt><trkpt lat="38.04982519353321" lon="14.92206312115705"><ele>871.6</ele><time>2026-04-19T17:32:21.001Z</time></trkpt><trkpt lat="38.049742602400265" lon="14.922133814295128"><ele>871.3999999999999</ele><time>2026-04-19T17:32:22.001Z</time></trkpt><trkpt lat="38.049655205360885" lon="14.922182693953593"><ele>871.1999999999999</ele><time>2026-04-19T17:32:23.001Z</time></trkpt><trkpt lat="38.04956945892614" lon="14.922266219657411"><ele>871.0</ele><time>2026-04-19T17:32:24.001Z</time></trkpt><trkpt lat="38.049480024847064" lon="14.922365976921386"><ele>871.0</ele><time>2026-04-19T17:32:25.001Z</time></trkpt><trkpt lat="38.04940196876039" lon="14.922485637708077"><ele>871.0</ele><time>2026-04-19T17:32:26.001Z</time></trkpt><trkpt lat="38.049321545976895" lon="14.922602403146254"><ele>871.0</ele><time>2026-04-19T17:32:27.001Z</time></trkpt><trkpt lat="38.04923415684854" lon="14.92271115411466"><ele>871.0</ele><time>2026-04-19T17:32:28.001Z</time></trkpt><trkpt lat="38.04913001367381" lon="14.922796323533474"><ele>875.0</ele><time>2026-04-19T17:32:29.001Z</time></trkpt><trkpt lat="38.04903962632653" lon="14.922901174325617"><ele>879.0</ele><time>2026-04-19T17:32:30.001Z</time></trkpt><trkpt lat="38.048923136009584" lon="14.922948090199892"><ele>883.0</ele><time>2026-04-19T17:32:31.001Z</time></trkpt><trkpt lat="38.04882579633561" lon="14.923029332480091"><ele>887.0</ele><time>2026-04-19T17:32:32.001Z</time></trkpt><trkpt lat="38.048728150541706" lon="14.923100379150906"><ele>887.0</ele><time>2026-04-19T17:32:33.001Z</time></trkpt><trkpt lat="38.048627393117116" lon="14.923166775456734"><ele>887.0</ele><time>2026-04-19T17:32:34.001Z</time></trkpt><trkpt lat="38.04854367521133" lon="14.92323179617143"><ele>887.0</ele><time>2026-04-19T17:32:35Z</time></trkpt><trkpt lat="38.04846052069285" lon="14.923322223819158"><ele>887.0</ele><time>2026-04-19T17:32:36Z</time></trkpt><trkpt lat="38.04838619020619" lon="14.923428764400622"><ele>887.0</ele><time>2026-04-19T17:32:37Z</time></trkpt><trkpt lat="38.04830990544309" lon="14.923530465461614"><ele>892.6</ele><time>2026-04-19T17:32:38Z</time></trkpt><trkpt lat="38.04821317375159" lon="14.923595214388476"><ele>898.2</ele><time>2026-04-19T17:32:39Z</time></trkpt><trkpt lat="38.04812727195294" lon="14.923663067900023"><ele>903.8</ele><time>2026-04-19T17:32:40Z</time></trkpt><trkpt lat="38.048048133533015" lon="14.923719021595556"><ele>909.4</ele><time>2026-04-19T17:32:41Z</time></trkpt><trkpt lat="38.04796818296879" lon="14.92375214086932"><ele>915.0</ele><time>2026-04-19T17:32:42Z</time></trkpt><trkpt lat="38.04790360569003" lon="14.923759340764999"><ele>915.0</ele><time>2026-04-19T17:32:43Z</time></trkpt><trkpt lat="38.047822138670355" lon="14.923693705320478"><ele>915.0</ele><time>2026-04-19T17:32:44Z</time></trkpt><trkpt lat="38.04774509319598" lon="14.923673441911491"><ele>915.0</ele><time>2026-04-19T17:32:45Z</time></trkpt><trkpt lat="38.04769173529549" lon="14.923620195905542"><ele>915.0</ele><time>2026-04-19T17:32:46Z</time></trkpt><trkpt lat="38.047629375208714" lon="14.923580016736597"><ele>915.0</ele><time>2026-04-19T17:32:47Z</time></trkpt><trkpt lat="38.04756734199239" lon="14.923560381610523"><ele>915.0</ele><time>2026-04-19T17:32:48Z</time></trkpt><trkpt lat="38.04745064670945" lon="14.923615090066113"><ele>915.3333333333334</ele><time>2026-04-19T17:32:50Z</time></trkpt><trkpt lat="38.04738841804183" lon="14.923666410344968"><ele>915.6666666666667</ele><time>2026-04-19T17:32:51Z</time></trkpt><trkpt lat="38.04731414859443" lon="14.92369339617282"><ele>916.0</ele><time>2026-04-19T17:32:52Z</time></trkpt><trkpt lat="38.04723272229399" lon="14.923673070567482"><ele>916.3333333333334</ele><time>2026-04-19T17:32:53Z</time></trkpt><trkpt lat="38.047147731002674" lon="14.923667488518449"><ele>916.6666666666667</ele><time>2026-04-19T17:32:54Z</time></trkpt><trkpt lat="38.047058689438494" lon="14.923681877040591"><ele>917.0</ele><time>2026-04-19T17:32:55Z</time></trkpt><trkpt lat="38.04696224116735" lon="14.923683711403507"><ele>917.0</ele><time>2026-04-19T17:32:56Z</time></trkpt><trkpt lat="38.04686819798594" lon="14.923654144166582"><ele>917.0</ele><time>2026-04-19T17:32:57Z</time></trkpt><trkpt lat="38.04677803112491" lon="14.923624744082016"><ele>917.0</ele><time>2026-04-19T17:32:58Z</time></trkpt><trkpt lat="38.04668500507993" lon="14.923591094832817"><ele>917.0</ele><time>2026-04-19T17:32:59Z</time></trkpt><trkpt lat="38.04659570815723" lon="14.923574355604366"><ele>917.0</ele><time>2026-04-19T17:33:00Z</time></trkpt><trkpt lat="38.04650484243303" lon="14.923562176098606"><ele>918.0000000000001</ele><time>2026-04-19T17:33:01Z</time></trkpt><trkpt lat="38.04642290893329" lon="14.923550074185265"><ele>919.0</ele><time>2026-04-19T17:33:02Z</time></trkpt><trkpt lat="38.04634759716443" lon="14.923525688777971"><ele>920.0</ele><time>2026-04-19T17:33:03Z</time></trkpt><trkpt lat="38.04627161224393" lon="14.923494071816624"><ele>921.0</ele><time>2026-04-19T17:33:04Z</time></trkpt><trkpt lat="38.046194428178346" lon="14.923482357565584"><ele>922.0000000000001</ele><time>2026-04-19T17:33:05Z</time></trkpt><trkpt lat="38.04612128098409" lon="14.923470577059419"><ele>923.0</ele><time>2026-04-19T17:33:06Z</time></trkpt><trkpt lat="38.04603916697591" lon="14.923484128668692"><ele>923.0</ele><time>2026-04-19T17:33:07Z</time></trkpt><trkpt lat="38.04596008724666" lon="14.923511032176645"><ele>923.0</ele><time>2026-04-19T17:33:08Z</time></trkpt><trkpt lat="38.04587983521978" lon="14.9235367128169"><ele>923.0</ele><time>2026-04-19T17:33:09Z</time></trkpt><trkpt lat="38.04579108925766" lon="14.92355745943886"><ele>923.0</ele><time>2026-04-19T17:33:10Z</time></trkpt><trkpt lat="38.04569720719445" lon="14.923583118760403"><ele>923.0</ele><time>2026-04-19T17:33:11Z</time></trkpt><trkpt lat="38.04559493561869" lon="14.923614845535914"><ele>920.4</ele><time>2026-04-19T17:33:12Z</time></trkpt><trkpt lat="38.045491225990816" lon="14.923642420087553"><ele>917.8</ele><time>2026-04-19T17:33:13Z</time></trkpt><trkpt lat="38.04539194961336" lon="14.923695994609984"><ele>915.2</ele><time>2026-04-19T17:33:14Z</time></trkpt><trkpt lat="38.04528542757175" lon="14.923735944521079"><ele>912.6</ele><time>2026-04-19T17:33:15Z</time></trkpt><trkpt lat="38.04518418784747" lon="14.92378916843093"><ele>910.0</ele><time>2026-04-19T17:33:16Z</time></trkpt><trkpt lat="38.045088106090354" lon="14.923856095842151"><ele>910.0</ele><time>2026-04-19T17:33:17Z</time></trkpt><trkpt lat="38.04499570775536" lon="14.92392428507349"><ele>910.0</ele><time>2026-04-19T17:33:18Z</time></trkpt><trkpt lat="38.0449176150164" lon="14.924003402027965"><ele>910.0</ele><time>2026-04-19T17:33:19Z</time></trkpt><trkpt lat="38.044845499582365" lon="14.924082608491492"><ele>910.0</ele><time>2026-04-19T17:33:20Z</time></trkpt><trkpt lat="38.04477587502143" lon="14.924158268835765"><ele>910.0</ele><time>2026-04-19T17:33:21Z</time></trkpt><trkpt lat="38.044693686854195" lon="14.924219789021175"><ele>910.8333333333333</ele><time>2026-04-19T17:33:22Z</time></trkpt><trkpt lat="38.04462730123354" lon="14.924289182580209"><ele>911.6666666666666</ele><time>2026-04-19T17:33:23Z</time></trkpt><trkpt lat="38.04455931700001" lon="14.92436024718674"><ele>912.5</ele><time>2026-04-19T17:33:24Z</time></trkpt><trkpt lat="38.044491337115154" lon="14.924427387974639"><ele>913.3333333333333</ele><time>2026-04-19T17:33:25Z</time></trkpt><trkpt lat="38.044427261919786" lon="14.924488989672446"><ele>914.1666666666666</ele><time>2026-04-19T17:33:26Z</time></trkpt><trkpt lat="38.04437322740691" lon="14.92456498314654"><ele>915.0</ele><time>2026-04-19T17:33:27Z</time></trkpt><trkpt lat="38.04431739294396" lon="14.924614532557317"><ele>915.0</ele><time>2026-04-19T17:33:28Z</time></trkpt><trkpt lat="38.04422124078719" lon="14.924693581436353"><ele>915.0</ele><time>2026-04-19T17:33:30Z</time></trkpt><trkpt lat="38.044166470714046" lon="14.924750319236855"><ele>915.0</ele><time>2026-04-19T17:33:32Z</time></trkpt><trkpt lat="38.04409890315624" lon="14.924842730047919"><ele>915.0</ele><time>2026-04-19T17:33:34Z</time></trkpt><trkpt lat="38.04404804265469" lon="14.924892065378458"><ele>915.0</ele><time>2026-04-19T17:33:35Z</time></trkpt><trkpt lat="38.043985484660624" lon="14.924969715428034"><ele>915.0</ele><time>2026-04-19T17:33:36Z</time></trkpt><trkpt lat="38.04391533048215" lon="14.925050366938766"><ele>916.6</ele><time>2026-04-19T17:33:37Z</time></trkpt><trkpt lat="38.0438560345953" lon="14.925145277376156"><ele>918.2</ele><time>2026-04-19T17:33:38Z</time></trkpt><trkpt lat="38.0438023049424" lon="14.925249632170265"><ele>919.8</ele><time>2026-04-19T17:33:39Z</time></trkpt><trkpt lat="38.043768363882904" lon="14.925366189508885"><ele>921.4</ele><time>2026-04-19T17:33:40Z</time></trkpt><trkpt lat="38.0437552275384" lon="14.925499211337524"><ele>923.0</ele><time>2026-04-19T17:33:41Z</time></trkpt><trkpt lat="38.043730821667424" lon="14.925629722188678"><ele>923.0000000000001</ele><time>2026-04-19T17:33:42Z</time></trkpt><trkpt lat="38.04373096819202" lon="14.925740209120917"><ele>923.0</ele><time>2026-04-19T17:33:43Z</time></trkpt><trkpt lat="38.04368848443573" lon="14.925825399455963"><ele>923.0</ele><time>2026-04-19T17:33:44Z</time></trkpt><trkpt lat="38.04362006753412" lon="14.925885526089864"><ele>923.0</ele><time>2026-04-19T17:33:45Z</time></trkpt><trkpt lat="38.04353476960252" lon="14.92593064524799"><ele>923.0000000000001</ele><time>2026-04-19T17:33:46Z</time></trkpt><trkpt lat="38.04345438391013" lon="14.92597672956682"><ele>923.0</ele><time>2026-04-19T17:33:47Z</time></trkpt><trkpt lat="38.04336215937733" lon="14.926024139159624"><ele>930.2</ele><time>2026-04-19T17:33:48Z</time></trkpt><trkpt lat="38.043264032210374" lon="14.926064030041156"><ele>937.4</ele><time>2026-04-19T17:33:49Z</time></trkpt><trkpt lat="38.04316980220638" lon="14.926093818720778"><ele>944.6000000000001</ele><time>2026-04-19T17:33:50Z</time></trkpt><trkpt lat="38.04308218568598" lon="14.92614699529578"><ele>951.8000000000001</ele><time>2026-04-19T17:33:51Z</time></trkpt><trkpt lat="38.043004377793885" lon="14.926215544779481"><ele>959.0</ele><time>2026-04-19T17:33:52Z</time></trkpt><trkpt lat="38.04292202847748" lon="14.926253341284763"><ele>959.0000000000001</ele><time>2026-04-19T17:33:53Z</time></trkpt><trkpt lat="38.04285409861328" lon="14.926298075253733"><ele>959.0</ele><time>2026-04-19T17:33:54Z</time></trkpt><trkpt lat="38.04277524828341" lon="14.926267236482069"><ele>959.0</ele><time>2026-04-19T17:33:55Z</time></trkpt><trkpt lat="38.04272554976483" lon="14.926182842091293"><ele>959.0</ele><time>2026-04-19T17:33:56Z</time></trkpt><trkpt lat="38.042672085717996" lon="14.926097801133439"><ele>959.0000000000001</ele><time>2026-04-19T17:33:57Z</time></trkpt><trkpt lat="38.042625972111" lon="14.925988372420308"><ele>959.0</ele><time>2026-04-19T17:33:58Z</time></trkpt><trkpt lat="38.04257539285519" lon="14.925880690929421"><ele>960.2</ele><time>2026-04-19T17:33:59Z</time></trkpt><trkpt lat="38.0425179939447" lon="14.925764378577515"><ele>961.4000000000001</ele><time>2026-04-19T17:34:00Z</time></trkpt><trkpt lat="38.042459633892264" lon="14.925656041219726"><ele>962.6</ele><time>2026-04-19T17:34:01Z</time></trkpt><trkpt lat="38.04240891063965" lon="14.925543168786064"><ele>963.8</ele><time>2026-04-19T17:34:02Z</time></trkpt><trkpt lat="38.04233558717549" lon="14.925472877527431"><ele>965.0</ele><time>2026-04-19T17:34:03.001Z</time></trkpt><trkpt lat="38.04225777838616" lon="14.925410816565263"><ele>965.0</ele><time>2026-04-19T17:34:04.001Z</time></trkpt><trkpt lat="38.04217617726179" lon="14.925334917131186"><ele>965.0</ele><time>2026-04-19T17:34:05.001Z</time></trkpt><trkpt lat="38.04209497064796" lon="14.925267955278887"><ele>965.0</ele><time>2026-04-19T17:34:06.001Z</time></trkpt><trkpt lat="38.04200403685125" lon="14.925199820982979"><ele>965.0</ele><time>2026-04-19T17:34:07.001Z</time></trkpt><trkpt lat="38.04189872730133" lon="14.925135986797518"><ele>965.0</ele><time>2026-04-19T17:34:08.001Z</time></trkpt><trkpt lat="38.041773217327226" lon="14.925111569434426"><ele>965.0</ele><time>2026-04-19T17:34:09.001Z</time></trkpt><trkpt lat="38.041645421961846" lon="14.925094557941724"><ele>965.0</ele><time>2026-04-19T17:34:10.001Z</time></trkpt><trkpt lat="38.041507230513886" lon="14.925093267395592"><ele>965.0</ele><time>2026-04-19T17:34:11.001Z</time></trkpt><trkpt lat="38.04138364059536" lon="14.925070045931673"><ele>965.0</ele><time>2026-04-19T17:34:12.001Z</time></trkpt><trkpt lat="38.041257726651544" lon="14.925022536602647"><ele>964.25</ele><time>2026-04-19T17:34:13.001Z</time></trkpt><trkpt lat="38.04113635317044" lon="14.92500745435983"><ele>963.5</ele><time>2026-04-19T17:34:14.001Z</time></trkpt><trkpt lat="38.04102097768771" lon="14.924981373334601"><ele>962.75</ele><time>2026-04-19T17:34:15.001Z</time></trkpt><trkpt lat="38.0408733553187" lon="14.924985233317514"><ele>962.0</ele><time>2026-04-19T17:34:16.001Z</time></trkpt><trkpt lat="38.04075183536201" lon="14.924984955249919"><ele>964.25</ele><time>2026-04-19T17:34:17.001Z</time></trkpt><trkpt lat="38.04062958289063" lon="14.924962918845658"><ele>966.5</ele><time>2026-04-19T17:34:18.001Z</time></trkpt><trkpt lat="38.040499871195884" lon="14.92493415374648"><ele>968.75</ele><time>2026-04-19T17:34:19.001Z</time></trkpt><trkpt lat="38.04036993237123" lon="14.924904392533957"><ele>971.0</ele><time>2026-04-19T17:34:20.001Z</time></trkpt><trkpt lat="38.04023900642198" lon="14.924881745675597"><ele>971.0</ele><time>2026-04-19T17:34:21.001Z</time></trkpt><trkpt lat="38.040112017413506" lon="14.924862352403537"><ele>971.0</ele><time>2026-04-19T17:34:22.001Z</time></trkpt><trkpt lat="38.03998521045192" lon="14.924860532530301"><ele>971.0</ele><time>2026-04-19T17:34:23.001Z</time></trkpt><trkpt lat="38.039856303307715" lon="14.924864471878314"><ele>971.0</ele><time>2026-04-19T17:34:24.001Z</time></trkpt><trkpt lat="38.03972313093644" lon="14.924879116388086"><ele>972.0</ele><time>2026-04-19T17:34:25.001Z</time></trkpt><trkpt lat="38.0395870882335" lon="14.924905477247306"><ele>973.0</ele><time>2026-04-19T17:34:26.001Z</time></trkpt><trkpt lat="38.03944965942722" lon="14.924935875933325"><ele>974.0</ele><time>2026-04-19T17:34:27.001Z</time></trkpt><trkpt lat="38.03931383197224" lon="14.92496710877231"><ele>975.0</ele><time>2026-04-19T17:34:28.001Z</time></trkpt><trkpt lat="38.03917619375911" lon="14.924951175639615"><ele>976.5</ele><time>2026-04-19T17:34:29.001Z</time></trkpt><trkpt lat="38.03904394189825" lon="14.92495629162106"><ele>978.0</ele><time>2026-04-19T17:34:30.001Z</time></trkpt><trkpt lat="38.03892317241164" lon="14.924948696058358"><ele>979.5</ele><time>2026-04-19T17:34:31.001Z</time></trkpt><trkpt lat="38.03880668251585" lon="14.924918378662579"><ele>981.0</ele><time>2026-04-19T17:34:32.001Z</time></trkpt><trkpt lat="38.03870080392059" lon="14.924864309837286"><ele>981.0</ele><time>2026-04-19T17:34:33.001Z</time></trkpt><trkpt lat="38.038591141039255" lon="14.92482981660071"><ele>981.0</ele><time>2026-04-19T17:34:34.001Z</time></trkpt><trkpt lat="38.03847547277778" lon="14.92480964490033"><ele>981.0</ele><time>2026-04-19T17:34:35.001Z</time></trkpt><trkpt lat="38.03835704573238" lon="14.92483823626849"><ele>981.0</ele><time>2026-04-19T17:34:36.001Z</time></trkpt><trkpt lat="38.03823666695534" lon="14.924884256486013"><ele>980.0</ele><time>2026-04-19T17:34:37.001Z</time></trkpt><trkpt lat="38.038116378797454" lon="14.924971439282997"><ele>979.0</ele><time>2026-04-19T17:34:38.001Z</time></trkpt><trkpt lat="38.03800084885718" lon="14.92504370512617"><ele>978.0</ele><time>2026-04-19T17:34:39.001Z</time></trkpt><trkpt lat="38.037886757974285" lon="14.92510875077359"><ele>977.0</ele><time>2026-04-19T17:34:40.001Z</time></trkpt><trkpt lat="38.037769370450604" lon="14.925147965581603"><ele>980.25</ele><time>2026-04-19T17:34:41Z</time></trkpt><trkpt lat="38.03766632357932" lon="14.925247919686024"><ele>983.5</ele><time>2026-04-19T17:34:42Z</time></trkpt><trkpt lat="38.037560527733696" lon="14.92535268312191"><ele>986.75</ele><time>2026-04-19T17:34:43Z</time></trkpt><trkpt lat="38.0374550833995" lon="14.925469422350112"><ele>990.0</ele><time>2026-04-19T17:34:44Z</time></trkpt><trkpt lat="38.03733289168985" lon="14.925599839314996"><ele>990.0</ele><time>2026-04-19T17:34:45Z</time></trkpt><trkpt lat="38.0372285056182" lon="14.925707849333747"><ele>990.0</ele><time>2026-04-19T17:34:46Z</time></trkpt><trkpt lat="38.037113016547" lon="14.92582807426709"><ele>990.0</ele><time>2026-04-19T17:34:47Z</time></trkpt><trkpt lat="38.03700743401139" lon="14.92594731255101"><ele>990.0</ele><time>2026-04-19T17:34:48Z</time></trkpt><trkpt lat="38.03689980686424" lon="14.926047684390303"><ele>993.25</ele><time>2026-04-19T17:34:49Z</time></trkpt><trkpt lat="38.03680618282169" lon="14.926157910139015"><ele>996.5</ele><time>2026-04-19T17:34:50Z</time></trkpt><trkpt lat="38.036720966139185" lon="14.92626063540625"><ele>999.75</ele><time>2026-04-19T17:34:51Z</time></trkpt><trkpt lat="38.036641013182305" lon="14.926362403829263"><ele>1003.0</ele><time>2026-04-19T17:34:52Z</time></trkpt><trkpt lat="38.03656524129666" lon="14.926480314350739"><ele>1003.0</ele><time>2026-04-19T17:34:53Z</time></trkpt><trkpt lat="38.03648413707245" lon="14.926590871637718"><ele>1003.0</ele><time>2026-04-19T17:34:54Z</time></trkpt><trkpt lat="38.03640090860897" lon="14.926702509818657"><ele>1003.0</ele><time>2026-04-19T17:34:55Z</time></trkpt><trkpt lat="38.03631595991151" lon="14.926811023333533"><ele>1003.0</ele><time>2026-04-19T17:34:56Z</time></trkpt><trkpt lat="38.036228981814865" lon="14.926911271128686"><ele>1006.25</ele><time>2026-04-19T17:34:57Z</time></trkpt><trkpt lat="38.036127488265805" lon="14.926986423713847"><ele>1009.5</ele><time>2026-04-19T17:34:58Z</time></trkpt><trkpt lat="38.036030832317905" lon="14.927074476901904"><ele>1012.75</ele><time>2026-04-19T17:34:59Z</time></trkpt><trkpt lat="38.03593236281169" lon="14.927159723468822"><ele>1016.0</ele><time>2026-04-19T17:35:00Z</time></trkpt><trkpt lat="38.03583371997977" lon="14.927237742299555"><ele>1015.1999999999999</ele><time>2026-04-19T17:35:01Z</time></trkpt><trkpt lat="38.03573437636731" lon="14.92730651491145"><ele>1014.3999999999999</ele><time>2026-04-19T17:35:02Z</time></trkpt><trkpt lat="38.035643672889066" lon="14.92738037316096"><ele>1013.6</ele><time>2026-04-19T17:35:03Z</time></trkpt><trkpt lat="38.035566928316925" lon="14.927464905537022"><ele>1012.8</ele><time>2026-04-19T17:35:04Z</time></trkpt><trkpt lat="38.035489647860736" lon="14.927549146027179"><ele>1012.0</ele><time>2026-04-19T17:35:05Z</time></trkpt><trkpt lat="38.0354294673635" lon="14.927651747523553"><ele>1014.0</ele><time>2026-04-19T17:35:06Z</time></trkpt><trkpt lat="38.035394272360925" lon="14.92777955556989"><ele>1016.0</ele><time>2026-04-19T17:35:07Z</time></trkpt><trkpt lat="38.03537276452222" lon="14.927915791158746"><ele>1018.0</ele><time>2026-04-19T17:35:08Z</time></trkpt><trkpt lat="38.03531926368076" lon="14.92803955606032"><ele>1020.0</ele><time>2026-04-19T17:35:09Z</time></trkpt><trkpt lat="38.035271625908166" lon="14.928167596398664"><ele>1022.0</ele><time>2026-04-19T17:35:10Z</time></trkpt><trkpt lat="38.03521443397273" lon="14.928290024324387"><ele>1023.2</ele><time>2026-04-19T17:35:11Z</time></trkpt><trkpt lat="38.03514801110926" lon="14.928394167119128"><ele>1024.4</ele><time>2026-04-19T17:35:12Z</time></trkpt><trkpt lat="38.03506894287366" lon="14.92847722937721"><ele>1025.6</ele><time>2026-04-19T17:35:13Z</time></trkpt><trkpt lat="38.034980877655144" lon="14.928558354486924"><ele>1026.8</ele><time>2026-04-19T17:35:14Z</time></trkpt><trkpt lat="38.03488839585393" lon="14.928630895732434"><ele>1028.0</ele><time>2026-04-19T17:35:15Z</time></trkpt><trkpt lat="38.03479531373937" lon="14.928698661536284"><ele>1029.0</ele><time>2026-04-19T17:35:16Z</time></trkpt><trkpt lat="38.03469727015465" lon="14.928765815598743"><ele>1030.0</ele><time>2026-04-19T17:35:17Z</time></trkpt><trkpt lat="38.03460074608905" lon="14.928830480016282"><ele>1031.0</ele><time>2026-04-19T17:35:18Z</time></trkpt><trkpt lat="38.034496849848665" lon="14.92889720622506"><ele>1032.0</ele><time>2026-04-19T17:35:19Z</time></trkpt><trkpt lat="38.03439278363354" lon="14.928961404245944"><ele>1032.0</ele><time>2026-04-19T17:35:20Z</time></trkpt><trkpt lat="38.034287140389715" lon="14.929023375502938"><ele>1032.0</ele><time>2026-04-19T17:35:21Z</time></trkpt><trkpt lat="38.034185194260495" lon="14.929081134088634"><ele>1032.0</ele><time>2026-04-19T17:35:22Z</time></trkpt><trkpt lat="38.03407656645009" lon="14.929142678310102"><ele>1032.0</ele><time>2026-04-19T17:35:23Z</time></trkpt><trkpt lat="38.03397298089502" lon="14.929201365770812"><ele>1032.75</ele><time>2026-04-19T17:35:24Z</time></trkpt><trkpt lat="38.03386531504958" lon="14.929256015202602"><ele>1033.5</ele><time>2026-04-19T17:35:25Z</time></trkpt><trkpt lat="38.03375792639696" lon="14.929306906246714"><ele>1034.25</ele><time>2026-04-19T17:35:26Z</time></trkpt><trkpt lat="38.03364736090068" lon="14.929357636294807"><ele>1035.0</ele><time>2026-04-19T17:35:27Z</time></trkpt><trkpt lat="38.03353950696808" lon="14.929404398460797"><ele>1035.0</ele><time>2026-04-19T17:35:28Z</time></trkpt><trkpt lat="38.03342732091662" lon="14.929452863420828"><ele>1035.0</ele><time>2026-04-19T17:35:29Z</time></trkpt><trkpt lat="38.0333219672431" lon="14.929495043643056"><ele>1035.0</ele><time>2026-04-19T17:35:30Z</time></trkpt><trkpt lat="38.033218602554726" lon="14.929529931394832"><ele>1035.0</ele><time>2026-04-19T17:35:31Z</time></trkpt><trkpt lat="38.033134925541056" lon="14.929546726248212"><ele>1035.0</ele><time>2026-04-19T17:35:32Z</time></trkpt><trkpt lat="38.03306048626021" lon="14.929535617574578"><ele>1038.0</ele><time>2026-04-19T17:35:33Z</time></trkpt><trkpt lat="38.0329969347192" lon="14.92949407595732"><ele>1041.0</ele><time>2026-04-19T17:35:34Z</time></trkpt><trkpt lat="38.032928418102784" lon="14.929435628121613"><ele>1044.0</ele><time>2026-04-19T17:35:35Z</time></trkpt><trkpt lat="38.03285594429923" lon="14.929372409608154"><ele>1047.0</ele><time>2026-04-19T17:35:36Z</time></trkpt><trkpt lat="38.03278101967816" lon="14.929309094043994"><ele>1050.0</ele><time>2026-04-19T17:35:37Z</time></trkpt><trkpt lat="38.032699677938375" lon="14.929284532738334"><ele>1053.0</ele><time>2026-04-19T17:35:38Z</time></trkpt><trkpt lat="38.03263233028149" lon="14.929242164689859"><ele>1053.0</ele><time>2026-04-19T17:35:39Z</time></trkpt><trkpt lat="38.0325296545512" lon="14.929292293852166"><ele>1053.0</ele><time>2026-04-19T17:35:40Z</time></trkpt><trkpt lat="38.03242929580861" lon="14.929285870904813"><ele>1053.0</ele><time>2026-04-19T17:35:41Z</time></trkpt><trkpt lat="38.03233832658579" lon="14.929193574874342"><ele>1053.0</ele><time>2026-04-19T17:35:42Z</time></trkpt><trkpt lat="38.03221319210396" lon="14.929140110119935"><ele>1054.25</ele><time>2026-04-19T17:35:43Z</time></trkpt><trkpt lat="38.032098205803834" lon="14.92914421636046"><ele>1055.5</ele><time>2026-04-19T17:35:44.001Z</time></trkpt><trkpt lat="38.03198185115486" lon="14.929137547571196"><ele>1056.75</ele><time>2026-04-19T17:35:45.001Z</time></trkpt><trkpt lat="38.03186884580458" lon="14.929103209668147"><ele>1058.0</ele><time>2026-04-19T17:35:46.001Z</time></trkpt><trkpt lat="38.03175599274251" lon="14.929088109041349"><ele>1058.0</ele><time>2026-04-19T17:35:47.001Z</time></trkpt><trkpt lat="38.031645352995525" lon="14.929073304577367"><ele>1058.0</ele><time>2026-04-19T17:35:48.001Z</time></trkpt><trkpt lat="38.03154032191272" lon="14.92904915208253"><ele>1058.0</ele><time>2026-04-19T17:35:49.001Z</time></trkpt><trkpt lat="38.031440982910716" lon="14.929005459971973"><ele>1058.0</ele><time>2026-04-19T17:35:50.001Z</time></trkpt><trkpt lat="38.0313435615921" lon="14.928994694976504"><ele>1058.0</ele><time>2026-04-19T17:35:51.001Z</time></trkpt><trkpt lat="38.03124367162361" lon="14.92898181005183"><ele>1058.2</ele><time>2026-04-19T17:35:52.001Z</time></trkpt><trkpt lat="38.03114004287934" lon="14.929016766075096"><ele>1058.4</ele><time>2026-04-19T17:35:53.001Z</time></trkpt><trkpt lat="38.03103136277257" lon="14.929036981381572"><ele>1058.6000000000001</ele><time>2026-04-19T17:35:54.001Z</time></trkpt><trkpt lat="38.03093055561438" lon="14.929063291861164"><ele>1058.8</ele><time>2026-04-19T17:35:55.001Z</time></trkpt><trkpt lat="38.030843627377095" lon="14.929079069934378"><ele>1059.0</ele><time>2026-04-19T17:35:56.001Z</time></trkpt><trkpt lat="38.030770025682926" lon="14.92908315941581"><ele>1056.6000000000001</ele><time>2026-04-19T17:35:57.001Z</time></trkpt><trkpt lat="38.03066865060544" lon="14.929098323499112"><ele>1054.2</ele><time>2026-04-19T17:35:59.001Z</time></trkpt><trkpt lat="38.0305945220997" lon="14.929131057367675"><ele>1051.8000000000002</ele><time>2026-04-19T17:36:01.001Z</time></trkpt><trkpt lat="38.03052010750463" lon="14.92921077084764"><ele>1049.4</ele><time>2026-04-19T17:36:03.001Z</time></trkpt><trkpt lat="38.03049543851727" lon="14.929354471677502"><ele>1047.0</ele><time>2026-04-19T17:36:05.001Z</time></trkpt><trkpt lat="38.030517913487756" lon="14.929437954668863"><ele>1047.0</ele><time>2026-04-19T17:36:06.001Z</time></trkpt><trkpt lat="38.03056250141805" lon="14.929517871017612"><ele>1047.0</ele><time>2026-04-19T17:36:07.001Z</time></trkpt><trkpt lat="38.030598742041576" lon="14.929592812011784"><ele>1047.0</ele><time>2026-04-19T17:36:08.001Z</time></trkpt><trkpt lat="38.03063696332798" lon="14.929677504977642"><ele>1047.0</ele><time>2026-04-19T17:36:09.001Z</time></trkpt><trkpt lat="38.030680895394006" lon="14.929748998807327"><ele>1047.0</ele><time>2026-04-19T17:36:10.001Z</time></trkpt><trkpt lat="38.0306950989127" lon="14.929856591830568"><ele>1047.0</ele><time>2026-04-19T17:36:11.001Z</time></trkpt><trkpt lat="38.03071663047754" lon="14.929976994580247"><ele>1050.2</ele><time>2026-04-19T17:36:12.001Z</time></trkpt><trkpt lat="38.030690143936084" lon="14.930086032826607"><ele>1053.4</ele><time>2026-04-19T17:36:13.001Z</time></trkpt><trkpt lat="38.03063193288299" lon="14.930172685974542"><ele>1056.6</ele><time>2026-04-19T17:36:14.001Z</time></trkpt><trkpt lat="38.03056511564924" lon="14.930284251513696"><ele>1059.8</ele><time>2026-04-19T17:36:15.001Z</time></trkpt><trkpt lat="38.03051284961343" lon="14.930397711380223"><ele>1063.0</ele><time>2026-04-19T17:36:16.001Z</time></trkpt><trkpt lat="38.03047906620631" lon="14.93051197990779"><ele>1063.0</ele><time>2026-04-19T17:36:17.001Z</time></trkpt><trkpt lat="38.03044315816276" lon="14.930623007243902"><ele>1063.0</ele><time>2026-04-19T17:36:18.001Z</time></trkpt><trkpt lat="38.030396802021016" lon="14.930716175655983"><ele>1063.0</ele><time>2026-04-19T17:36:19.001Z</time></trkpt><trkpt lat="38.03034692260714" lon="14.93081494666278"><ele>1063.0</ele><time>2026-04-19T17:36:20.001Z</time></trkpt><trkpt lat="38.03030058585112" lon="14.930916217325736"><ele>1063.0</ele><time>2026-04-19T17:36:21.001Z</time></trkpt><trkpt lat="38.03026140570347" lon="14.931034297923539"><ele>1065.5</ele><time>2026-04-19T17:36:22.001Z</time></trkpt><trkpt lat="38.03023609219036" lon="14.93116431177617"><ele>1068.0</ele><time>2026-04-19T17:36:23.001Z</time></trkpt><trkpt lat="38.03022549349948" lon="14.931310055568243"><ele>1070.5</ele><time>2026-04-19T17:36:24.001Z</time></trkpt><trkpt lat="38.030221736512075" lon="14.931469256911322"><ele>1073.0</ele><time>2026-04-19T17:36:25.001Z</time></trkpt><trkpt lat="38.03022023337219" lon="14.931617404265078"><ele>1074.5</ele><time>2026-04-19T17:36:26.001Z</time></trkpt><trkpt lat="38.03020858078152" lon="14.931758606334592"><ele>1076.0</ele><time>2026-04-19T17:36:27.001Z</time></trkpt><trkpt lat="38.03019102605453" lon="14.931905029708194"><ele>1077.5</ele><time>2026-04-19T17:36:28.001Z</time></trkpt><trkpt lat="38.030172545464076" lon="14.932049993749432"><ele>1079.0</ele><time>2026-04-19T17:36:29.001Z</time></trkpt><trkpt lat="38.030154203805445" lon="14.932197242368526"><ele>1079.0</ele><time>2026-04-19T17:36:30.001Z</time></trkpt><trkpt lat="38.0301383198795" lon="14.932347973560125"><ele>1079.0</ele><time>2026-04-19T17:36:31.001Z</time></trkpt><trkpt lat="38.03010950220189" lon="14.932499926293486"><ele>1079.0</ele><time>2026-04-19T17:36:32.001Z</time></trkpt><trkpt lat="38.030107536443644" lon="14.932648590750514"><ele>1079.0</ele><time>2026-04-19T17:36:33.001Z</time></trkpt><trkpt lat="38.03009412789431" lon="14.932785714407895"><ele>1081.0</ele><time>2026-04-19T17:36:34.001Z</time></trkpt><trkpt lat="38.030066706081136" lon="14.932922169366769"><ele>1083.0</ele><time>2026-04-19T17:36:35.001Z</time></trkpt><trkpt lat="38.03000401320099" lon="14.933053925902342"><ele>1085.0</ele><time>2026-04-19T17:36:36.001Z</time></trkpt><trkpt lat="38.02996534510306" lon="14.933210067680054"><ele>1087.0</ele><time>2026-04-19T17:36:37.001Z</time></trkpt><trkpt lat="38.02993895007691" lon="14.93335686444878"><ele>1085.2</ele><time>2026-04-19T17:36:38.001Z</time></trkpt><trkpt lat="38.02991244037556" lon="14.933503031827033"><ele>1083.4</ele><time>2026-04-19T17:36:39.001Z</time></trkpt><trkpt lat="38.02987624354643" lon="14.933634801581311"><ele>1081.6</ele><time>2026-04-19T17:36:40.001Z</time></trkpt><trkpt lat="38.02983629178092" lon="14.933762251274427"><ele>1079.8</ele><time>2026-04-19T17:36:41.001Z</time></trkpt><trkpt lat="38.029795753253275" lon="14.933884184638488"><ele>1078.0</ele><time>2026-04-19T17:36:42.001Z</time></trkpt><trkpt lat="38.02974684159376" lon="14.934010634135612"><ele>1078.0</ele><time>2026-04-19T17:36:43.001Z</time></trkpt><trkpt lat="38.029683729379286" lon="14.934129553995657"><ele>1078.0</ele><time>2026-04-19T17:36:44.001Z</time></trkpt><trkpt lat="38.029604472297436" lon="14.934247690692382"><ele>1078.0</ele><time>2026-04-19T17:36:45.001Z</time></trkpt><trkpt lat="38.029516291584756" lon="14.93436280997243"><ele>1078.0</ele><time>2026-04-19T17:36:46.001Z</time></trkpt><trkpt lat="38.02942658411552" lon="14.934463648569675"><ele>1075.75</ele><time>2026-04-19T17:36:47Z</time></trkpt><trkpt lat="38.02932828771015" lon="14.934545792453912"><ele>1073.5</ele><time>2026-04-19T17:36:48Z</time></trkpt><trkpt lat="38.029221868464035" lon="14.93461310071037"><ele>1071.25</ele><time>2026-04-19T17:36:49Z</time></trkpt><trkpt lat="38.02911467661223" lon="14.934670443270202"><ele>1069.0</ele><time>2026-04-19T17:36:50Z</time></trkpt><trkpt lat="38.029021914983396" lon="14.934743383324097"><ele>1069.0</ele><time>2026-04-19T17:36:51Z</time></trkpt><trkpt lat="38.028924859564846" lon="14.934783792052288"><ele>1069.0</ele><time>2026-04-19T17:36:52Z</time></trkpt><trkpt lat="38.028849532808046" lon="14.934882648110824"><ele>1069.0</ele><time>2026-04-19T17:36:53Z</time></trkpt><trkpt lat="38.028765361686084" lon="14.934960117801273"><ele>1069.0</ele><time>2026-04-19T17:36:54Z</time></trkpt><trkpt lat="38.02867369877239" lon="14.935107159213993"><ele>1069.4</ele><time>2026-04-19T17:36:55Z</time></trkpt><trkpt lat="38.028562309463126" lon="14.935216781372924"><ele>1069.8000000000002</ele><time>2026-04-19T17:36:56Z</time></trkpt><trkpt lat="38.028496442677806" lon="14.935264916859513"><ele>1070.1999999999998</ele><time>2026-04-19T17:36:58Z</time></trkpt><trkpt lat="38.02843392668517" lon="14.935314519995504"><ele>1070.6</ele><time>2026-04-19T17:36:59Z</time></trkpt><trkpt lat="38.0283669293878" lon="14.935367927935554"><ele>1071.0</ele><time>2026-04-19T17:37:00Z</time></trkpt><trkpt lat="38.02829505107872" lon="14.935425766973585"><ele>1071.0</ele><time>2026-04-19T17:37:01Z</time></trkpt><trkpt lat="38.02822077742663" lon="14.935490710446262"><ele>1071.0</ele><time>2026-04-19T17:37:02Z</time></trkpt><trkpt lat="38.02815654892696" lon="14.93557402939784"><ele>1071.0</ele><time>2026-04-19T17:37:03Z</time></trkpt><trkpt lat="38.028087351563606" lon="14.935650129131833"><ele>1071.0</ele><time>2026-04-19T17:37:04Z</time></trkpt><trkpt lat="38.02802674280096" lon="14.93572854464263"><ele>1071.0</ele><time>2026-04-19T17:37:05Z</time></trkpt><trkpt lat="38.02797343187409" lon="14.935806335398844"><ele>1071.0</ele><time>2026-04-19T17:37:06Z</time></trkpt><trkpt lat="38.02791505266991" lon="14.935886531820591"><ele>1076.3999999999999</ele><time>2026-04-19T17:37:07Z</time></trkpt><trkpt lat="38.027829832559405" lon="14.93593689766738"><ele>1081.8</ele><time>2026-04-19T17:37:08Z</time></trkpt><trkpt lat="38.02775337803895" lon="14.936010345464979"><ele>1087.1999999999998</ele><time>2026-04-19T17:37:09Z</time></trkpt><trkpt lat="38.02768641067824" lon="14.936100578327743"><ele>1092.6</ele><time>2026-04-19T17:37:10Z</time></trkpt><trkpt lat="38.02761368576034" lon="14.936172047824202"><ele>1098.0</ele><time>2026-04-19T17:37:11Z</time></trkpt><trkpt lat="38.027524247978086" lon="14.936202711227859"><ele>1097.6666666666667</ele><time>2026-04-19T17:37:12Z</time></trkpt><trkpt lat="38.02744965831798" lon="14.936144991434174"><ele>1097.3333333333333</ele><time>2026-04-19T17:37:13Z</time></trkpt><trkpt lat="38.02736774604511" lon="14.936094682557371"><ele>1097.0</ele><time>2026-04-19T17:37:14Z</time></trkpt><trkpt lat="38.02729714826692" lon="14.93607857561567"><ele>1096.6666666666665</ele><time>2026-04-19T17:37:15Z</time></trkpt><trkpt lat="38.02721066272588" lon="14.936112639310394"><ele>1096.3333333333333</ele><time>2026-04-19T17:37:16Z</time></trkpt><trkpt lat="38.02711559289191" lon="14.936166110737876"><ele>1096.0</ele><time>2026-04-19T17:37:17Z</time></trkpt><trkpt lat="38.02702116700183" lon="14.936204389169115"><ele>1096.0</ele><time>2026-04-19T17:37:18Z</time></trkpt><trkpt lat="38.0269249416919" lon="14.936254350224791"><ele>1096.0</ele><time>2026-04-19T17:37:19Z</time></trkpt><trkpt lat="38.026810712737735" lon="14.936274006131343"><ele>1096.0</ele><time>2026-04-19T17:37:20Z</time></trkpt><trkpt lat="38.02669813251188" lon="14.936313649359333"><ele>1096.0</ele><time>2026-04-19T17:37:21Z</time></trkpt><trkpt lat="38.02659739755638" lon="14.936365544700408"><ele>1096.0</ele><time>2026-04-19T17:37:22Z</time></trkpt><trkpt lat="38.02648384217714" lon="14.936382225266472"><ele>1095.6</ele><time>2026-04-19T17:37:23Z</time></trkpt><trkpt lat="38.026374341442114" lon="14.936404097398444"><ele>1095.1999999999998</ele><time>2026-04-19T17:37:24Z</time></trkpt><trkpt lat="38.02627741300729" lon="14.936437435661288"><ele>1094.8000000000002</ele><time>2026-04-19T17:37:25Z</time></trkpt><trkpt lat="38.026190288613996" lon="14.936482730462705"><ele>1094.4</ele><time>2026-04-19T17:37:26Z</time></trkpt><trkpt lat="38.026104144576514" lon="14.936520541959233"><ele>1094.0</ele><time>2026-04-19T17:37:27Z</time></trkpt><trkpt lat="38.02602150107986" lon="14.936508118080326"><ele>1094.0</ele><time>2026-04-19T17:37:28Z</time></trkpt><trkpt lat="38.0259579210128" lon="14.93649755687909"><ele>1094.0</ele><time>2026-04-19T17:37:29Z</time></trkpt><trkpt lat="38.02586882465162" lon="14.936428203743528"><ele>1094.0</ele><time>2026-04-19T17:37:31Z</time></trkpt><trkpt lat="38.02587585828185" lon="14.93634347229508"><ele>1094.0</ele><time>2026-04-19T17:37:32Z</time></trkpt><trkpt lat="38.02589628014583" lon="14.93618029283621"><ele>1094.0</ele><time>2026-04-19T17:37:34.001Z</time></trkpt><trkpt lat="38.02591847098597" lon="14.936100298687675"><ele>1094.0</ele><time>2026-04-19T17:37:35.001Z</time></trkpt><trkpt lat="38.025902514812394" lon="14.935989496291802"><ele>1094.0</ele><time>2026-04-19T17:37:36.001Z</time></trkpt><trkpt lat="38.02585545551797" lon="14.935891840340044"><ele>1094.0</ele><time>2026-04-19T17:37:37.001Z</time></trkpt><trkpt lat="38.02578681730521" lon="14.935799117672248"><ele>1094.0</ele><time>2026-04-19T17:37:38.001Z</time></trkpt><trkpt lat="38.02570903150132" lon="14.935713324286068"><ele>1094.0</ele><time>2026-04-19T17:37:39.001Z</time></trkpt><trkpt lat="38.025628575813386" lon="14.935639865656412"><ele>1094.0</ele><time>2026-04-19T17:37:40.001Z</time></trkpt><trkpt lat="38.02553879542844" lon="14.935590069735829"><ele>1091.8</ele><time>2026-04-19T17:37:41.001Z</time></trkpt><trkpt lat="38.0254452709673" lon="14.93556545998214"><ele>1089.6000000000001</ele><time>2026-04-19T17:37:42.001Z</time></trkpt><trkpt lat="38.02535168433095" lon="14.935574880019155"><ele>1087.4</ele><time>2026-04-19T17:37:43.001Z</time></trkpt><trkpt lat="38.0252640447556" lon="14.935620606406212"><ele>1085.2</ele><time>2026-04-19T17:37:44.001Z</time></trkpt><trkpt lat="38.02518778849036" lon="14.935704621469215"><ele>1083.0</ele><time>2026-04-19T17:37:45.001Z</time></trkpt><trkpt lat="38.02511777316165" lon="14.935818906365723"><ele>1081.25</ele><time>2026-04-19T17:37:46.001Z</time></trkpt><trkpt lat="38.025049334120794" lon="14.935942116207716"><ele>1079.5</ele><time>2026-04-19T17:37:47.001Z</time></trkpt><trkpt lat="38.02498098247679" lon="14.936062308894922"><ele>1077.75</ele><time>2026-04-19T17:37:48.001Z</time></trkpt><trkpt lat="38.02491249210175" lon="14.936176966238444"><ele>1076.0</ele><time>2026-04-19T17:37:49.001Z</time></trkpt><trkpt lat="38.02485534613489" lon="14.936294128486084"><ele>1076.0</ele><time>2026-04-19T17:37:50.001Z</time></trkpt><trkpt lat="38.02482925791047" lon="14.936424495942429"><ele>1076.0</ele><time>2026-04-19T17:37:51.001Z</time></trkpt><trkpt lat="38.02479671401639" lon="14.936558597212183"><ele>1076.0</ele><time>2026-04-19T17:37:52.001Z</time></trkpt><trkpt lat="38.02474859438845" lon="14.936696642437347"><ele>1076.0</ele><time>2026-04-19T17:37:53.001Z</time></trkpt><trkpt lat="38.02468224172719" lon="14.93683038792224"><ele>1081.0</ele><time>2026-04-19T17:37:54.001Z</time></trkpt><trkpt lat="38.024617174639026" lon="14.936964920525748"><ele>1086.0</ele><time>2026-04-19T17:37:55.001Z</time></trkpt><trkpt lat="38.0245696637047" lon="14.93709051426502"><ele>1091.0</ele><time>2026-04-19T17:37:56.001Z</time></trkpt><trkpt lat="38.02447619573402" lon="14.937167811164501"><ele>1096.0</ele><time>2026-04-19T17:37:57.001Z</time></trkpt><trkpt lat="38.024371021374826" lon="14.937200646583257"><ele>1096.0</ele><time>2026-04-19T17:37:58.001Z</time></trkpt><trkpt lat="38.0242595675008" lon="14.93725546513879"><ele>1096.0</ele><time>2026-04-19T17:37:59.001Z</time></trkpt><trkpt lat="38.02416170009144" lon="14.937339564033511"><ele>1096.0</ele><time>2026-04-19T17:38:00.001Z</time></trkpt><trkpt lat="38.024060148343644" lon="14.937414248931185"><ele>1096.0</ele><time>2026-04-19T17:38:01.001Z</time></trkpt><trkpt lat="38.02396527754423" lon="14.937493333365367"><ele>1099.6</ele><time>2026-04-19T17:38:02.001Z</time></trkpt><trkpt lat="38.0238813793829" lon="14.937589552426655"><ele>1103.1999999999998</ele><time>2026-04-19T17:38:03.001Z</time></trkpt><trkpt lat="38.023832689595295" lon="14.937702262815776"><ele>1106.8000000000002</ele><time>2026-04-19T17:38:04.001Z</time></trkpt><trkpt lat="38.02377092867969" lon="14.937808665400707"><ele>1110.4</ele><time>2026-04-19T17:38:05.001Z</time></trkpt><trkpt lat="38.02370789392462" lon="14.937895037169794"><ele>1114.0</ele><time>2026-04-19T17:38:06.001Z</time></trkpt><trkpt lat="38.023626859862404" lon="14.937952192761033"><ele>1114.0</ele><time>2026-04-19T17:38:07.001Z</time></trkpt><trkpt lat="38.023529504581504" lon="14.93786303283775"><ele>1114.0</ele><time>2026-04-19T17:38:08.001Z</time></trkpt><trkpt lat="38.02343866229594" lon="14.937863032839529"><ele>1114.0</ele><time>2026-04-19T17:38:09.001Z</time></trkpt><trkpt lat="38.023341657511885" lon="14.937887022699702"><ele>1114.0</ele><time>2026-04-19T17:38:10.001Z</time></trkpt><trkpt lat="38.02324108273824" lon="14.937912850802098"><ele>1114.0</ele><time>2026-04-19T17:38:11.001Z</time></trkpt><trkpt lat="38.02314473943263" lon="14.937946877456318"><ele>1112.2</ele><time>2026-04-19T17:38:12.001Z</time></trkpt><trkpt lat="38.02304820306398" lon="14.93798293284985"><ele>1110.4</ele><time>2026-04-19T17:38:13.001Z</time></trkpt><trkpt lat="38.02295657451856" lon="14.938013555643916"><ele>1108.6</ele><time>2026-04-19T17:38:14.001Z</time></trkpt><trkpt lat="38.022867483064495" lon="14.938043190870168"><ele>1106.8</ele><time>2026-04-19T17:38:15.001Z</time></trkpt><trkpt lat="38.022782045511896" lon="14.93807516704587"><ele>1105.0</ele><time>2026-04-19T17:38:16.001Z</time></trkpt><trkpt lat="38.022694742441395" lon="14.938104803939993"><ele>1105.0</ele><time>2026-04-19T17:38:17.001Z</time></trkpt><trkpt lat="38.02258917427259" lon="14.938101147562467"><ele>1105.0</ele><time>2026-04-19T17:38:18.001Z</time></trkpt><trkpt lat="38.0225132846663" lon="14.938103652113298"><ele>1105.0</ele><time>2026-04-19T17:38:19.001Z</time></trkpt><trkpt lat="38.022434643748916" lon="14.93810433366885"><ele>1105.0</ele><time>2026-04-19T17:38:20.001Z</time></trkpt><trkpt lat="38.0223644287796" lon="14.938119244550847"><ele>1105.0</ele><time>2026-04-19T17:38:21.001Z</time></trkpt><trkpt lat="38.02228219447405" lon="14.938114299763656"><ele>1105.0</ele><time>2026-04-19T17:38:23.001Z</time></trkpt><trkpt lat="38.022183073663115" lon="14.938115556664377"><ele>1103.8333333333333</ele><time>2026-04-19T17:38:31.001Z</time></trkpt><trkpt lat="38.022146513262385" lon="14.938183286776379"><ele>1102.6666666666665</ele><time>2026-04-19T17:38:32.001Z</time></trkpt><trkpt lat="38.02208013966596" lon="14.938149241825172"><ele>1101.5</ele><time>2026-04-19T17:38:33.001Z</time></trkpt><trkpt lat="38.02202900968517" lon="14.938221963707496"><ele>1100.3333333333333</ele><time>2026-04-19T17:38:35.001Z</time></trkpt><trkpt lat="38.022002472980994" lon="14.938342259470575"><ele>1099.1666666666667</ele><time>2026-04-19T17:38:37.001Z</time></trkpt><trkpt lat="38.021980057125205" lon="14.938421490827155"><ele>1098.0</ele><time>2026-04-19T17:38:38.001Z</time></trkpt><trkpt lat="38.02195080427957" lon="14.938505938184544"><ele>1098.0</ele><time>2026-04-19T17:38:39.001Z</time></trkpt><trkpt lat="38.02191697843748" lon="14.93858735571052"><ele>1098.0</ele><time>2026-04-19T17:38:40.001Z</time></trkpt><trkpt lat="38.021886919725496" lon="14.938664535041674"><ele>1098.0</ele><time>2026-04-19T17:38:41.001Z</time></trkpt><trkpt lat="38.02185642059327" lon="14.938738152263085"><ele>1098.0</ele><time>2026-04-19T17:38:42.001Z</time></trkpt><trkpt lat="38.02179845595891" lon="14.938845799494596"><ele>1098.0</ele><time>2026-04-19T17:38:44.001Z</time></trkpt><trkpt lat="38.02172867605465" lon="14.93891829701123"><ele>1098.0</ele><time>2026-04-19T17:38:46.001Z</time></trkpt><trkpt lat="38.02162956862501" lon="14.938972377371286"><ele>1096.5714285714284</ele><time>2026-04-19T17:38:48.001Z</time></trkpt><trkpt lat="38.02156588340495" lon="14.938979373895195"><ele>1095.142857142857</ele><time>2026-04-19T17:38:49.001Z</time></trkpt><trkpt lat="38.02150181815584" lon="14.938981719668723"><ele>1093.7142857142858</ele><time>2026-04-19T17:38:50.001Z</time></trkpt><trkpt lat="38.021438828532524" lon="14.938973598728564"><ele>1092.2857142857142</ele><time>2026-04-19T17:38:51.001Z</time></trkpt><trkpt lat="38.0213128610511" lon="14.938957156905067"><ele>1090.857142857143</ele><time>2026-04-19T17:38:53Z</time></trkpt><trkpt lat="38.02125498443011" lon="14.938922672223446"><ele>1089.4285714285713</ele><time>2026-04-19T17:38:54Z</time></trkpt><trkpt lat="38.021188821739074" lon="14.938908849395096"><ele>1088.0</ele><time>2026-04-19T17:38:55Z</time></trkpt><trkpt lat="38.02112312866145" lon="14.938900683505207"><ele>1087.9999999999998</ele><time>2026-04-19T17:38:56Z</time></trkpt><trkpt lat="38.021057093592255" lon="14.938901134182005"><ele>1088.0</ele><time>2026-04-19T17:38:57Z</time></trkpt><trkpt lat="38.02098835279895" lon="14.938918131862879"><ele>1088.0</ele><time>2026-04-19T17:38:58Z</time></trkpt><trkpt lat="38.02092192455836" lon="14.938947165765988"><ele>1088.0</ele><time>2026-04-19T17:38:59Z</time></trkpt><trkpt lat="38.02086042741148" lon="14.93899233632056"><ele>1088.0</ele><time>2026-04-19T17:39:00Z</time></trkpt><trkpt lat="38.020801020903654" lon="14.939028993840598"><ele>1087.9999999999998</ele><time>2026-04-19T17:39:01Z</time></trkpt><trkpt lat="38.02073586056408" lon="14.939066733527845"><ele>1088.0</ele><time>2026-04-19T17:39:02Z</time></trkpt><trkpt lat="38.02067121859694" lon="14.939113500989114"><ele>1087.6666666666667</ele><time>2026-04-19T17:39:03Z</time></trkpt><trkpt lat="38.02059712804665" lon="14.939133845032524"><ele>1087.3333333333335</ele><time>2026-04-19T17:39:04Z</time></trkpt><trkpt lat="38.020520111033385" lon="14.939147330766422"><ele>1087.0</ele><time>2026-04-19T17:39:05Z</time></trkpt><trkpt lat="38.02045271931002" lon="14.939130534166488"><ele>1086.6666666666667</ele><time>2026-04-19T17:39:06Z</time></trkpt><trkpt lat="38.02035883564923" lon="14.939109870326323"><ele>1086.3333333333333</ele><time>2026-04-19T17:39:08Z</time></trkpt><trkpt lat="38.02028211101548" lon="14.939079399140923"><ele>1086.0</ele><time>2026-04-19T17:39:10Z</time></trkpt><trkpt lat="38.02022784854147" lon="14.939007930029636"><ele>1086.0</ele><time>2026-04-19T17:39:12Z</time></trkpt><trkpt lat="38.020159137813486" lon="14.938961383388865"><ele>1086.0</ele><time>2026-04-19T17:39:14Z</time></trkpt><trkpt lat="38.0200641075093" lon="14.938924916379392"><ele>1086.0</ele><time>2026-04-19T17:39:16Z</time></trkpt><trkpt lat="38.01998439535812" lon="14.938939351547402"><ele>1086.0</ele><time>2026-04-19T17:39:19Z</time></trkpt><trkpt lat="38.01991999255844" lon="14.938957460118184"><ele>1086.0</ele><time>2026-04-19T17:39:24.001Z</time></trkpt><trkpt lat="38.019871572713" lon="14.939010502762981"><ele>1086.0</ele><time>2026-04-19T17:39:26.001Z</time></trkpt><trkpt lat="38.01978752133623" lon="14.939067749950246"><ele>1086.1666666666667</ele><time>2026-04-19T17:39:29.001Z</time></trkpt><trkpt lat="38.019697223967555" lon="14.93903227862815"><ele>1086.3333333333333</ele><time>2026-04-19T17:39:31.001Z</time></trkpt><trkpt lat="38.01959129151564" lon="14.938961248913468"><ele>1086.5</ele><time>2026-04-19T17:39:33.001Z</time></trkpt><trkpt lat="38.019532229729606" lon="14.938913473507261"><ele>1086.6666666666665</ele><time>2026-04-19T17:39:34.001Z</time></trkpt><trkpt lat="38.019469458522735" lon="14.938864365787158"><ele>1086.8333333333333</ele><time>2026-04-19T17:39:35.001Z</time></trkpt><trkpt lat="38.019402784559354" lon="14.93881316245724"><ele>1087.0</ele><time>2026-04-19T17:39:36.001Z</time></trkpt><trkpt lat="38.01933571117154" lon="14.93875124667771"><ele>1087.0</ele><time>2026-04-19T17:39:37.001Z</time></trkpt><trkpt lat="38.01927993123882" lon="14.93867737094385"><ele>1087.0</ele><time>2026-04-19T17:39:38.001Z</time></trkpt><trkpt lat="38.01923663648363" lon="14.938585363545853"><ele>1087.0</ele><time>2026-04-19T17:39:39.001Z</time></trkpt><trkpt lat="38.01919450305039" lon="14.938484899933979"><ele>1087.0</ele><time>2026-04-19T17:39:40.001Z</time></trkpt><trkpt lat="38.019155305523086" lon="14.938377989645465"><ele>1087.0</ele><time>2026-04-19T17:39:41.001Z</time></trkpt><trkpt lat="38.019115032929676" lon="14.938270567998654"><ele>1087.0</ele><time>2026-04-19T17:39:42.001Z</time></trkpt><trkpt lat="38.01906727714872" lon="14.938163042515155"><ele>1088.2</ele><time>2026-04-19T17:39:43.001Z</time></trkpt><trkpt lat="38.019011338780395" lon="14.938061611702587"><ele>1089.4</ele><time>2026-04-19T17:39:44.001Z</time></trkpt><trkpt lat="38.01895178713175" lon="14.937971236485264"><ele>1090.6</ele><time>2026-04-19T17:39:45.001Z</time></trkpt><trkpt lat="38.018888370895354" lon="14.937883036616373"><ele>1091.8</ele><time>2026-04-19T17:39:46.001Z</time></trkpt><trkpt lat="38.01882611569731" lon="14.93779432641334"><ele>1093.0</ele><time>2026-04-19T17:39:47.001Z</time></trkpt><trkpt lat="38.01875036573173" lon="14.937711992154789"><ele>1093.0</ele><time>2026-04-19T17:39:48.001Z</time></trkpt><trkpt lat="38.018691264914864" lon="14.937618127234352"><ele>1093.0</ele><time>2026-04-19T17:39:49.001Z</time></trkpt><trkpt lat="38.018624044324795" lon="14.937538034570375"><ele>1093.0</ele><time>2026-04-19T17:39:50.001Z</time></trkpt><trkpt lat="38.01855123706767" lon="14.937465599687153"><ele>1093.0</ele><time>2026-04-19T17:39:51.001Z</time></trkpt><trkpt lat="38.01848527136436" lon="14.937380836782294"><ele>1093.0</ele><time>2026-04-19T17:39:52.001Z</time></trkpt><trkpt lat="38.01840633511873" lon="14.937316066275644"><ele>1093.1666666666665</ele><time>2026-04-19T17:39:53.001Z</time></trkpt><trkpt lat="38.01832875476576" lon="14.937255756928637"><ele>1093.3333333333333</ele><time>2026-04-19T17:39:54.001Z</time></trkpt><trkpt lat="38.0182554897669" lon="14.937203282963042"><ele>1093.5</ele><time>2026-04-19T17:39:55.001Z</time></trkpt><trkpt lat="38.01819444487855" lon="14.937161648282949"><ele>1093.6666666666667</ele><time>2026-04-19T17:39:56.001Z</time></trkpt><trkpt lat="38.01813578917031" lon="14.937121127654454"><ele>1093.8333333333335</ele><time>2026-04-19T17:39:57.001Z</time></trkpt><trkpt lat="38.01807038711886" lon="14.937075493295493"><ele>1094.0</ele><time>2026-04-19T17:39:58.001Z</time></trkpt><trkpt lat="38.01799830203213" lon="14.937025195866092"><ele>1094.0</ele><time>2026-04-19T17:39:59.001Z</time></trkpt><trkpt lat="38.01791998036947" lon="14.93698816984482"><ele>1094.0</ele><time>2026-04-19T17:40:00.001Z</time></trkpt><trkpt lat="38.01786607998265" lon="14.936912735223572"><ele>1094.0</ele><time>2026-04-19T17:40:01.001Z</time></trkpt><trkpt lat="38.01781042345784" lon="14.936849565853048"><ele>1094.0</ele><time>2026-04-19T17:40:02.001Z</time></trkpt><trkpt lat="38.017762498095955" lon="14.936788847921854"><ele>1094.0</ele><time>2026-04-19T17:40:03.001Z</time></trkpt><trkpt lat="38.017732636355184" lon="14.936695152288276"><ele>1094.0</ele><time>2026-04-19T17:40:04.001Z</time></trkpt><trkpt lat="38.017707415603745" lon="14.936595050240289"><ele>1092.1666666666667</ele><time>2026-04-19T17:40:05.001Z</time></trkpt><trkpt lat="38.017685754727644" lon="14.936490848745104"><ele>1090.3333333333335</ele><time>2026-04-19T17:40:06.001Z</time></trkpt><trkpt lat="38.017691407571256" lon="14.936382506294835"><ele>1088.5</ele><time>2026-04-19T17:40:07.001Z</time></trkpt><trkpt lat="38.01768516991088" lon="14.936290128693686"><ele>1086.6666666666667</ele><time>2026-04-19T17:40:08.001Z</time></trkpt><trkpt lat="38.01768073475317" lon="14.936191410625439"><ele>1084.8333333333333</ele><time>2026-04-19T17:40:09.001Z</time></trkpt><trkpt lat="38.017672977266926" lon="14.93607790928707"><ele>1083.0</ele><time>2026-04-19T17:40:10.001Z</time></trkpt><trkpt lat="38.01767915887605" lon="14.935961836053252"><ele>1083.5</ele><time>2026-04-19T17:40:11.001Z</time></trkpt><trkpt lat="38.01769005102962" lon="14.935851785473725"><ele>1084.0</ele><time>2026-04-19T17:40:12.001Z</time></trkpt><trkpt lat="38.01769685105342" lon="14.935751788214013"><ele>1084.5</ele><time>2026-04-19T17:40:13.001Z</time></trkpt><trkpt lat="38.01769670895183" lon="14.935653406692616"><ele>1085.0</ele><time>2026-04-19T17:40:14.001Z</time></trkpt><trkpt lat="38.01770361772896" lon="14.935573714454149"><ele>1085.5</ele><time>2026-04-19T17:40:15.001Z</time></trkpt><trkpt lat="38.01768384726153" lon="14.935427050743273"><ele>1086.0</ele><time>2026-04-19T17:40:17.001Z</time></trkpt><trkpt lat="38.01766483197527" lon="14.935275767054543"><ele>1086.0</ele><time>2026-04-19T17:40:19.001Z</time></trkpt><trkpt lat="38.017654168521474" lon="14.9351942498309"><ele>1086.0</ele><time>2026-04-19T17:40:20.001Z</time></trkpt><trkpt lat="38.01764846488736" lon="14.935108291496919"><ele>1086.0</ele><time>2026-04-19T17:40:21.001Z</time></trkpt><trkpt lat="38.0176411640308" lon="14.935019171168848"><ele>1086.0</ele><time>2026-04-19T17:40:22.001Z</time></trkpt><trkpt lat="38.01765336177559" lon="14.934924936322783"><ele>1086.0</ele><time>2026-04-19T17:40:23.001Z</time></trkpt><trkpt lat="38.017649078081675" lon="14.934830608226846"><ele>1086.0</ele><time>2026-04-19T17:40:24.001Z</time></trkpt><trkpt lat="38.0176447074002" lon="14.934734364523733"><ele>1086.0</ele><time>2026-04-19T17:40:25.001Z</time></trkpt><trkpt lat="38.01763188467263" lon="14.934636895406499"><ele>1085.5</ele><time>2026-04-19T17:40:26.001Z</time></trkpt><trkpt lat="38.01762419020795" lon="14.934534292270111"><ele>1085.0</ele><time>2026-04-19T17:40:27.001Z</time></trkpt><trkpt lat="38.017620361611826" lon="14.934431072591071"><ele>1084.5</ele><time>2026-04-19T17:40:28.001Z</time></trkpt><trkpt lat="38.017616830353255" lon="14.934323805824588"><ele>1084.0</ele><time>2026-04-19T17:40:29.001Z</time></trkpt><trkpt lat="38.01760955457684" lon="14.93421695473206"><ele>1083.5</ele><time>2026-04-19T17:40:30.001Z</time></trkpt><trkpt lat="38.017600576245755" lon="14.934110143990718"><ele>1083.0</ele><time>2026-04-19T17:40:31.001Z</time></trkpt><trkpt lat="38.01759176020722" lon="14.934005831630806"><ele>1081.8333333333333</ele><time>2026-04-19T17:40:32.001Z</time></trkpt><trkpt lat="38.01757029113143" lon="14.933901443279868"><ele>1080.6666666666667</ele><time>2026-04-19T17:40:33.001Z</time></trkpt><trkpt lat="38.01754087011815" lon="14.933798249587475"><ele>1079.5</ele><time>2026-04-19T17:40:34.001Z</time></trkpt><trkpt lat="38.01749886155618" lon="14.933697953166826"><ele>1078.3333333333335</ele><time>2026-04-19T17:40:35.001Z</time></trkpt><trkpt lat="38.01745422137715" lon="14.933594714007953"><ele>1077.1666666666667</ele><time>2026-04-19T17:40:36.001Z</time></trkpt><trkpt lat="38.01740917778072" lon="14.933490577288616"><ele>1076.0</ele><time>2026-04-19T17:40:37.001Z</time></trkpt><trkpt lat="38.01735921167304" lon="14.933393892174017"><ele>1077.6</ele><time>2026-04-19T17:40:38.001Z</time></trkpt><trkpt lat="38.017295807186386" lon="14.933308554133896"><ele>1079.1999999999998</ele><time>2026-04-19T17:40:39.001Z</time></trkpt><trkpt lat="38.017227764500696" lon="14.93322605214865"><ele>1080.8000000000002</ele><time>2026-04-19T17:40:40.001Z</time></trkpt><trkpt lat="38.017176293153824" lon="14.933122156182968"><ele>1082.4</ele><time>2026-04-19T17:40:41.001Z</time></trkpt><trkpt lat="38.017104913529295" lon="14.933034057470772"><ele>1084.0</ele><time>2026-04-19T17:40:42.001Z</time></trkpt><trkpt lat="38.0170313434782" lon="14.932939250008406"><ele>1084.0</ele><time>2026-04-19T17:40:43.001Z</time></trkpt><trkpt lat="38.01695250749485" lon="14.9328471361325"><ele>1084.0</ele><time>2026-04-19T17:40:44.001Z</time></trkpt><trkpt lat="38.01686409123527" lon="14.932761959182539"><ele>1084.0</ele><time>2026-04-19T17:40:45.001Z</time></trkpt><trkpt lat="38.01676598488145" lon="14.932684473167331"><ele>1084.0</ele><time>2026-04-19T17:40:46.001Z</time></trkpt><trkpt lat="38.016659758850345" lon="14.932616082293526"><ele>1081.25</ele><time>2026-04-19T17:40:47.001Z</time></trkpt><trkpt lat="38.01654086218411" lon="14.932553829217419"><ele>1078.5</ele><time>2026-04-19T17:40:48.001Z</time></trkpt><trkpt lat="38.01644451236304" lon="14.932474840488828"><ele>1075.75</ele><time>2026-04-19T17:40:49.001Z</time></trkpt><trkpt lat="38.01634407014645" lon="14.932393147628618"><ele>1073.0</ele><time>2026-04-19T17:40:50.001Z</time></trkpt><trkpt lat="38.01624223916334" lon="14.932316582004344"><ele>1073.0</ele><time>2026-04-19T17:40:51.001Z</time></trkpt><trkpt lat="38.01613083670624" lon="14.932242066309566"><ele>1073.0</ele><time>2026-04-19T17:40:52.001Z</time></trkpt><trkpt lat="38.016016338908464" lon="14.932175792370078"><ele>1073.0</ele><time>2026-04-19T17:40:53.001Z</time></trkpt><trkpt lat="38.01591387316526" lon="14.932118284057735"><ele>1073.0</ele><time>2026-04-19T17:40:54.001Z</time></trkpt><trkpt lat="38.01582819536135" lon="14.932069272337904"><ele>1077.8</ele><time>2026-04-19T17:40:55.001Z</time></trkpt><trkpt lat="38.015757790236535" lon="14.93202807769152"><ele>1082.6</ele><time>2026-04-19T17:40:56.001Z</time></trkpt><trkpt lat="38.015656456085075" lon="14.931984413954668"><ele>1087.4</ele><time>2026-04-19T17:40:58.001Z</time></trkpt><trkpt lat="38.01556830470993" lon="14.931888072119548"><ele>1092.2</ele><time>2026-04-19T17:41:00.001Z</time></trkpt><trkpt lat="38.01546970399413" lon="14.931789633723294"><ele>1097.0</ele><time>2026-04-19T17:41:02.001Z</time></trkpt><trkpt lat="38.0154205162622" lon="14.931735317974653"><ele>1091.0</ele><time>2026-04-19T17:41:03.001Z</time></trkpt><trkpt lat="38.0153711257194" lon="14.931678106211862"><ele>1085.0</ele><time>2026-04-19T17:41:04.001Z</time></trkpt><trkpt lat="38.015320767794854" lon="14.931619264789106"><ele>1079.0</ele><time>2026-04-19T17:41:05.001Z</time></trkpt><trkpt lat="38.015269389641325" lon="14.931563160788906"><ele>1073.0</ele><time>2026-04-19T17:41:06.001Z</time></trkpt><trkpt lat="38.015207588727044" lon="14.931512743361605"><ele>1067.0</ele><time>2026-04-19T17:41:07.001Z</time></trkpt><trkpt lat="38.015138359799536" lon="14.93147420010268"><ele>1061.0</ele><time>2026-04-19T17:41:08.001Z</time></trkpt><trkpt lat="38.015066638738716" lon="14.931437013869248"><ele>1055.0</ele><time>2026-04-19T17:41:09.001Z</time></trkpt><trkpt lat="38.01499417854252" lon="14.931410603860087"><ele>1058.2857142857142</ele><time>2026-04-19T17:41:10.001Z</time></trkpt><trkpt lat="38.01492155851494" lon="14.931397301862061"><ele>1061.5714285714287</ele><time>2026-04-19T17:41:11.001Z</time></trkpt><trkpt lat="38.0148534838485" lon="14.931378855000979"><ele>1064.857142857143</ele><time>2026-04-19T17:41:12.001Z</time></trkpt><trkpt lat="38.01479653876757" lon="14.931319962090278"><ele>1068.142857142857</ele><time>2026-04-19T17:41:13.001Z</time></trkpt><trkpt lat="38.014760403921485" lon="14.931243007211402"><ele>1071.4285714285716</ele><time>2026-04-19T17:41:14.001Z</time></trkpt><trkpt lat="38.0147127349049" lon="14.931171830040721"><ele>1074.7142857142858</ele><time>2026-04-19T17:41:15.001Z</time></trkpt><trkpt lat="38.01465754672225" lon="14.931102868118156"><ele>1078.0</ele><time>2026-04-19T17:41:16.001Z</time></trkpt><trkpt lat="38.014599727550625" lon="14.931040603937577"><ele>1078.0</ele><time>2026-04-19T17:41:17.001Z</time></trkpt><trkpt lat="38.01453890165941" lon="14.930980561868475"><ele>1078.0</ele><time>2026-04-19T17:41:18.001Z</time></trkpt><trkpt lat="38.014474178847735" lon="14.93092851252614"><ele>1078.0</ele><time>2026-04-19T17:41:19.001Z</time></trkpt><trkpt lat="38.014403139457656" lon="14.930885936341497"><ele>1078.0</ele><time>2026-04-19T17:41:20.001Z</time></trkpt><trkpt lat="38.014330482941915" lon="14.930864679875311"><ele>1078.0</ele><time>2026-04-19T17:41:21.001Z</time></trkpt><trkpt lat="38.0142815385409" lon="14.930805499108907"><ele>1078.0</ele><time>2026-04-19T17:41:22.001Z</time></trkpt><trkpt lat="38.01419750465535" lon="14.930713966568323"><ele>1074.25</ele><time>2026-04-19T17:41:24.001Z</time></trkpt><trkpt lat="38.01411369075251" lon="14.930621683810472"><ele>1070.5</ele><time>2026-04-19T17:41:26.001Z</time></trkpt><trkpt lat="38.01402741015563" lon="14.930539229402637"><ele>1066.75</ele><time>2026-04-19T17:41:28.001Z</time></trkpt><trkpt lat="38.01393168580366" lon="14.930449597639148"><ele>1063.0</ele><time>2026-04-19T17:41:30.001Z</time></trkpt><trkpt lat="38.01383284607602" lon="14.930357586659358"><ele>1063.0</ele><time>2026-04-19T17:41:32.001Z</time></trkpt><trkpt lat="38.01377565476592" lon="14.930311317808581"><ele>1063.0</ele><time>2026-04-19T17:41:33.001Z</time></trkpt><trkpt lat="38.01371815394647" lon="14.930272114209926"><ele>1063.0</ele><time>2026-04-19T17:41:34.001Z</time></trkpt><trkpt lat="38.01365579377606" lon="14.930250605608233"><ele>1063.0</ele><time>2026-04-19T17:41:35.001Z</time></trkpt><trkpt lat="38.01355371412047" lon="14.930188037931265"><ele>1063.0</ele><time>2026-04-19T17:41:37.001Z</time></trkpt><trkpt lat="38.013484512151585" lon="14.930097851613434"><ele>1063.0</ele><time>2026-04-19T17:41:39.001Z</time></trkpt><trkpt lat="38.013389884080794" lon="14.930037561887353"><ele>1060.3333333333333</ele><time>2026-04-19T17:41:41.001Z</time></trkpt><trkpt lat="38.01329128937493" lon="14.929944133123492"><ele>1057.6666666666665</ele><time>2026-04-19T17:41:43.001Z</time></trkpt><trkpt lat="38.013230312360506" lon="14.929903380504017"><ele>1055.0</ele><time>2026-04-19T17:41:44.001Z</time></trkpt><trkpt lat="38.01316605755032" lon="14.929862642838504"><ele>1052.3333333333333</ele><time>2026-04-19T17:41:45.001Z</time></trkpt><trkpt lat="38.01309756023181" lon="14.929823271082508"><ele>1049.6666666666667</ele><time>2026-04-19T17:41:46.001Z</time></trkpt><trkpt lat="38.01302446125954" lon="14.92978732757973"><ele>1047.0</ele><time>2026-04-19T17:41:47.001Z</time></trkpt><trkpt lat="38.012949600235515" lon="14.929757654084515"><ele>1047.0000000000002</ele><time>2026-04-19T17:41:48.001Z</time></trkpt><trkpt lat="38.01287592556463" lon="14.92973311320005"><ele>1047.0</ele><time>2026-04-19T17:41:49.001Z</time></trkpt><trkpt lat="38.012804348058545" lon="14.929709643763408"><ele>1047.0</ele><time>2026-04-19T17:41:50.001Z</time></trkpt><trkpt lat="38.01273462729651" lon="14.929684444669412"><ele>1047.0</ele><time>2026-04-19T17:41:51.001Z</time></trkpt><trkpt lat="38.01266644583492" lon="14.929657489249925"><ele>1047.0</ele><time>2026-04-19T17:41:52.001Z</time></trkpt><trkpt lat="38.01260005234064" lon="14.929639642163089"><ele>1047.0000000000002</ele><time>2026-04-19T17:41:53.001Z</time></trkpt><trkpt lat="38.012532662295534" lon="14.929635448213078"><ele>1047.0</ele><time>2026-04-19T17:41:54.001Z</time></trkpt><trkpt lat="38.01246956007319" lon="14.929631066114972"><ele>1045.8333333333333</ele><time>2026-04-19T17:41:55.001Z</time></trkpt><trkpt lat="38.01240616116426" lon="14.929626663495428"><ele>1044.6666666666667</ele><time>2026-04-19T17:41:56.001Z</time></trkpt><trkpt lat="38.01234126060617" lon="14.929620420787288"><ele>1043.5</ele><time>2026-04-19T17:41:57.001Z</time></trkpt><trkpt lat="38.01227798191419" lon="14.929640743867552"><ele>1042.3333333333335</ele><time>2026-04-19T17:41:58.001Z</time></trkpt><trkpt lat="38.01215350504544" lon="14.9296508341481"><ele>1041.1666666666667</ele><time>2026-04-19T17:42:00.001Z</time></trkpt><trkpt lat="38.01209214771209" lon="14.929668732726514"><ele>1040.0</ele><time>2026-04-19T17:42:01.001Z</time></trkpt><trkpt lat="38.01196941759319" lon="14.929672979313251"><ele>1040.0</ele><time>2026-04-19T17:42:03.001Z</time></trkpt><trkpt lat="38.01185528736065" lon="14.929703896438824"><ele>1040.0</ele><time>2026-04-19T17:42:05.001Z</time></trkpt><trkpt lat="38.01173471520195" lon="14.929725637833423"><ele>1040.0</ele><time>2026-04-19T17:42:07.001Z</time></trkpt><trkpt lat="38.01167129534675" lon="14.929736148720883"><ele>1040.0</ele><time>2026-04-19T17:42:08.001Z</time></trkpt><trkpt lat="38.011548739976355" lon="14.929759413513342"><ele>1040.0</ele><time>2026-04-19T17:42:10.001Z</time></trkpt><trkpt lat="38.011485509916795" lon="14.92977460599906"><ele>1038.4285714285716</ele><time>2026-04-19T17:42:11.001Z</time></trkpt><trkpt lat="38.011420555852204" lon="14.929790212734778"><ele>1036.857142857143</ele><time>2026-04-19T17:42:12.001Z</time></trkpt><trkpt lat="38.01135352312246" lon="14.929805248923811"><ele>1035.2857142857142</ele><time>2026-04-19T17:42:13.001Z</time></trkpt><trkpt lat="38.011284807217415" lon="14.929835509198286"><ele>1033.7142857142858</ele><time>2026-04-19T17:42:14.001Z</time></trkpt><trkpt lat="38.01121416241872" lon="14.929824490602273"><ele>1032.142857142857</ele><time>2026-04-19T17:42:15.001Z</time></trkpt><trkpt lat="38.01114203007037" lon="14.929819265265252"><ele>1030.5714285714287</ele><time>2026-04-19T17:42:16.001Z</time></trkpt><trkpt lat="38.01106664969672" lon="14.929820949006078"><ele>1029.0</ele><time>2026-04-19T17:42:17.001Z</time></trkpt><trkpt lat="38.01098844162238" lon="14.929850091907609"><ele>1029.0</ele><time>2026-04-19T17:42:18.001Z</time></trkpt><trkpt lat="38.010914576428206" lon="14.929868361066887"><ele>1029.0</ele><time>2026-04-19T17:42:19.001Z</time></trkpt><trkpt lat="38.010840182465564" lon="14.929896325698083"><ele>1029.0</ele><time>2026-04-19T17:42:20.001Z</time></trkpt><trkpt lat="38.010766316879185" lon="14.92991677650127"><ele>1029.0</ele><time>2026-04-19T17:42:21.001Z</time></trkpt><trkpt lat="38.01069354945043" lon="14.929923616968722"><ele>1029.0</ele><time>2026-04-19T17:42:22.001Z</time></trkpt><trkpt lat="38.01061724182294" lon="14.929900836009786"><ele>1029.0</ele><time>2026-04-19T17:42:23.001Z</time></trkpt><trkpt lat="38.01054529904527" lon="14.929904783478873"><ele>1027.6666666666667</ele><time>2026-04-19T17:42:24.001Z</time></trkpt><trkpt lat="38.01047215570923" lon="14.929913083469021"><ele>1026.3333333333333</ele><time>2026-04-19T17:42:25.001Z</time></trkpt><trkpt lat="38.01039739915945" lon="14.929925326372064"><ele>1025.0</ele><time>2026-04-19T17:42:26.001Z</time></trkpt><trkpt lat="38.010322117949826" lon="14.929947148439371"><ele>1023.6666666666666</ele><time>2026-04-19T17:42:27.001Z</time></trkpt><trkpt lat="38.01025340902301" lon="14.929998132265919"><ele>1022.3333333333333</ele><time>2026-04-19T17:42:28.001Z</time></trkpt><trkpt lat="38.01018381248631" lon="14.930026137410055"><ele>1021.0</ele><time>2026-04-19T17:42:29.001Z</time></trkpt><trkpt lat="38.01011453545345" lon="14.930053978027928"><ele>1020.9999999999999</ele><time>2026-04-19T17:42:30.001Z</time></trkpt><trkpt lat="38.0100426793708" lon="14.930046321682216"><ele>1021.0</ele><time>2026-04-19T17:42:31.001Z</time></trkpt><trkpt lat="38.009979577135404" lon="14.930034069315282"><ele>1021.0</ele><time>2026-04-19T17:42:32.001Z</time></trkpt><trkpt lat="38.00990245172448" lon="14.929943565041363"><ele>1021.0</ele><time>2026-04-19T17:42:34.001Z</time></trkpt><trkpt lat="38.00986655585555" lon="14.929841477424901"><ele>1020.9999999999999</ele><time>2026-04-19T17:42:36.001Z</time></trkpt><trkpt lat="38.009850683624386" lon="14.929726995268076"><ele>1021.0</ele><time>2026-04-19T17:42:38.001Z</time></trkpt><trkpt lat="38.009817262817556" lon="14.92961575266472"><ele>1022.1666666666666</ele><time>2026-04-19T17:42:40.001Z</time></trkpt><trkpt lat="38.00979314028392" lon="14.92951910841469"><ele>1023.3333333333333</ele><time>2026-04-19T17:42:42.001Z</time></trkpt><trkpt lat="38.009747031265775" lon="14.929449873391537"><ele>1024.5</ele><time>2026-04-19T17:42:45.001Z</time></trkpt><trkpt lat="38.00966783583168" lon="14.929398907202108"><ele>1025.6666666666667</ele><time>2026-04-19T17:42:47.001Z</time></trkpt><trkpt lat="38.00957689043433" lon="14.929346294210575"><ele>1026.8333333333335</ele><time>2026-04-19T17:42:49.001Z</time></trkpt><trkpt lat="38.009498749043544" lon="14.92931107234395"><ele>1028.0</ele><time>2026-04-19T17:42:51.001Z</time></trkpt><trkpt lat="38.00944070515333" lon="14.92927870154653"><ele>1028.0</ele><time>2026-04-19T17:43:18.001Z</time></trkpt><trkpt lat="38.009372444178275" lon="14.92924063110553"><ele>1028.0</ele><time>2026-04-19T17:43:37Z</time></trkpt><trkpt lat="38.00929276361598" lon="14.929284006427277"><ele>1028.0</ele><time>2026-04-19T17:43:38Z</time></trkpt><trkpt lat="38.00918481413787" lon="14.929321448485942"><ele>1028.0</ele><time>2026-04-19T17:43:40Z</time></trkpt><trkpt lat="38.00910147843255" lon="14.92934742811102"><ele>1028.0</ele><time>2026-04-19T17:43:42Z</time></trkpt><trkpt lat="38.00902882926068" lon="14.929342183398642"><ele>1028.0</ele><time>2026-04-19T17:49:40Z</time></trkpt><trkpt lat="38.008943276312834" lon="14.929283976472812"><ele>1027.6</ele><time>2026-04-19T17:49:43Z</time></trkpt><trkpt lat="38.00883422977139" lon="14.929245193757813"><ele>1027.1999999999998</ele><time>2026-04-19T17:49:45Z</time></trkpt><trkpt lat="38.00870849588159" lon="14.929273072334352"><ele>1026.8</ele><time>2026-04-19T17:49:47Z</time></trkpt><trkpt lat="38.00864932695887" lon="14.929314119435224"><ele>1026.3999999999999</ele><time>2026-04-19T17:49:48Z</time></trkpt><trkpt lat="38.00853092597641" lon="14.929390817338627"><ele>1026.0</ele><time>2026-04-19T17:49:50Z</time></trkpt><trkpt lat="38.008467782822464" lon="14.929454326875321"><ele>1026.0</ele><time>2026-04-19T17:49:51Z</time></trkpt><trkpt lat="38.00838720406144" lon="14.929492501208335"><ele>1026.0</ele><time>2026-04-19T17:49:52Z</time></trkpt><trkpt lat="38.00830605595832" lon="14.92952885785927"><ele>1026.0</ele><time>2026-04-19T17:49:53Z</time></trkpt><trkpt lat="38.00822434464142" lon="14.929557617367344"><ele>1026.0</ele><time>2026-04-19T17:49:54Z</time></trkpt><trkpt lat="38.0081348768659" lon="14.929562702165843"><ele>1026.0</ele><time>2026-04-19T17:49:55Z</time></trkpt><trkpt lat="38.00804660025226" lon="14.929578403875244"><ele>1026.0</ele><time>2026-04-19T17:49:56Z</time></trkpt><trkpt lat="38.0079575170354" lon="14.929581208125262"><ele>1026.3999999999999</ele><time>2026-04-19T17:49:57Z</time></trkpt><trkpt lat="38.00785994748991" lon="14.929576703757048"><ele>1026.8</ele><time>2026-04-19T17:49:58Z</time></trkpt><trkpt lat="38.007748920454134" lon="14.929563459224237"><ele>1027.1999999999998</ele><time>2026-04-19T17:49:59Z</time></trkpt><trkpt lat="38.00763399908704" lon="14.929553820137613"><ele>1027.6</ele><time>2026-04-19T17:50:00Z</time></trkpt><trkpt lat="38.007531149161174" lon="14.929552574874775"><ele>1028.0</ele><time>2026-04-19T17:50:01Z</time></trkpt><trkpt lat="38.00742863563266" lon="14.929551333684053"><ele>1028.8</ele><time>2026-04-19T17:50:02Z</time></trkpt><trkpt lat="38.007325393191735" lon="14.929551819697796"><ele>1029.6</ele><time>2026-04-19T17:50:03Z</time></trkpt><trkpt lat="38.007223063772024" lon="14.929552167848575"><ele>1030.4</ele><time>2026-04-19T17:50:04Z</time></trkpt><trkpt lat="38.0071239447618" lon="14.92954881923863"><ele>1031.2</ele><time>2026-04-19T17:50:05Z</time></trkpt><trkpt lat="38.0070372994349" lon="14.929528582734294"><ele>1032.0</ele><time>2026-04-19T17:50:06Z</time></trkpt><trkpt lat="38.006957321103364" lon="14.929488210138125"><ele>1032.0</ele><time>2026-04-19T17:50:07Z</time></trkpt><trkpt lat="38.006882082700855" lon="14.929462242546833"><ele>1032.0</ele><time>2026-04-19T17:50:08Z</time></trkpt><trkpt lat="38.00681918314028" lon="14.929442777497238"><ele>1032.0</ele><time>2026-04-19T17:50:09Z</time></trkpt><trkpt lat="38.0067204754733" lon="14.929458948667014"><ele>1032.0</ele><time>2026-04-19T17:50:11Z</time></trkpt><trkpt lat="38.00664629990963" lon="14.92957298125911"><ele>1032.0</ele><time>2026-04-19T17:50:13Z</time></trkpt><trkpt lat="38.0065867687893" lon="14.92961004419607"><ele>1032.0</ele><time>2026-04-19T17:50:14Z</time></trkpt><trkpt lat="38.006534892697815" lon="14.929668229659947"><ele>1032.5714285714284</ele><time>2026-04-19T17:50:15Z</time></trkpt><trkpt lat="38.00648384064447" lon="14.929725490659768"><ele>1033.142857142857</ele><time>2026-04-19T17:50:16Z</time></trkpt><trkpt lat="38.006424833987424" lon="14.929775367824274"><ele>1033.7142857142858</ele><time>2026-04-19T17:50:17Z</time></trkpt><trkpt lat="38.00635391697122" lon="14.929812538851294"><ele>1034.2857142857142</ele><time>2026-04-19T17:50:18Z</time></trkpt><trkpt lat="38.00627692277408" lon="14.92983951405814"><ele>1034.857142857143</ele><time>2026-04-19T17:50:19Z</time></trkpt><trkpt lat="38.00620233178717" lon="14.929873843285064"><ele>1035.4285714285713</ele><time>2026-04-19T17:50:20Z</time></trkpt><trkpt lat="38.006137775892824" lon="14.929905480733627"><ele>1036.0</ele><time>2026-04-19T17:50:21Z</time></trkpt><trkpt lat="38.006071914660616" lon="14.929933291654468"><ele>1036.0</ele><time>2026-04-19T17:50:22Z</time></trkpt><trkpt lat="38.00595309183513" lon="14.92989561184722"><ele>1036.0</ele><time>2026-04-19T17:50:24Z</time></trkpt><trkpt lat="38.00588801323013" lon="14.92986130080592"><ele>1036.0</ele><time>2026-04-19T17:50:25Z</time></trkpt><trkpt lat="38.005837902627995" lon="14.929806784776188"><ele>1036.0</ele><time>2026-04-19T17:50:26Z</time></trkpt><trkpt lat="38.00579165660312" lon="14.92975020550417"><ele>1036.0</ele><time>2026-04-19T17:50:27Z</time></trkpt><trkpt lat="38.00574321573739" lon="14.929695246439833"><ele>1036.0</ele><time>2026-04-19T17:50:28Z</time></trkpt><trkpt lat="38.00564980518295" lon="14.929593900525735"><ele>1039.3333333333333</ele><time>2026-04-19T17:50:30Z</time></trkpt><trkpt lat="38.00559437440851" lon="14.929549070333806"><ele>1042.6666666666665</ele><time>2026-04-19T17:50:31Z</time></trkpt><trkpt lat="38.005526367800584" lon="14.929518931203864"><ele>1046.0</ele><time>2026-04-19T17:50:32Z</time></trkpt><trkpt lat="38.005438594527064" lon="14.92953669897737"><ele>1049.3333333333333</ele><time>2026-04-19T17:50:33Z</time></trkpt><trkpt lat="38.00535802730171" lon="14.929529143776712"><ele>1052.6666666666667</ele><time>2026-04-19T17:50:34Z</time></trkpt><trkpt lat="38.005276550887096" lon="14.929496534601336"><ele>1056.0</ele><time>2026-04-19T17:50:35Z</time></trkpt><trkpt lat="38.0051891682378" lon="14.929480267120404"><ele>1056.0</ele><time>2026-04-19T17:50:36Z</time></trkpt><trkpt lat="38.0051009952224" lon="14.929459680256489"><ele>1056.0</ele><time>2026-04-19T17:50:37Z</time></trkpt><trkpt lat="38.0050152091376" lon="14.929433585984174"><ele>1056.0</ele><time>2026-04-19T17:50:38Z</time></trkpt><trkpt lat="38.004936253840654" lon="14.929425745217603"><ele>1056.0</ele><time>2026-04-19T17:50:39Z</time></trkpt><trkpt lat="38.0048565501296" lon="14.929437062680362"><ele>1056.0</ele><time>2026-04-19T17:50:40Z</time></trkpt><trkpt lat="38.00478532581163" lon="14.929474243626109"><ele>1056.0</ele><time>2026-04-19T17:50:41Z</time></trkpt><trkpt lat="38.00471085067106" lon="14.929501072438889"><ele>1057.0</ele><time>2026-04-19T17:50:43Z</time></trkpt><trkpt lat="38.004646647677795" lon="14.929507715311516"><ele>1058.0</ele><time>2026-04-19T17:50:46.001Z</time></trkpt><trkpt lat="38.00455877993324" lon="14.929484063668085"><ele>1059.0</ele><time>2026-04-19T17:50:48.001Z</time></trkpt><trkpt lat="38.004485531623374" lon="14.929440996878549"><ele>1060.0</ele><time>2026-04-19T17:50:50.001Z</time></trkpt><trkpt lat="38.00447804514858" lon="14.92931000619316"><ele>1061.0</ele><time>2026-04-19T17:50:52.001Z</time></trkpt><trkpt lat="38.004508415914934" lon="14.929196656703827"><ele>1062.0</ele><time>2026-04-19T17:50:54.001Z</time></trkpt><trkpt lat="38.004503646275126" lon="14.929114059855992"><ele>1062.0</ele><time>2026-04-19T17:50:58.001Z</time></trkpt><trkpt lat="38.00449494529766" lon="14.929021050834791"><ele>1062.0</ele><time>2026-04-19T17:51:07.001Z</time></trkpt><trkpt lat="38.004365880667706" lon="14.929005157363115"><ele>1062.0</ele><time>2026-04-19T17:51:08.001Z</time></trkpt><trkpt lat="38.004288712251835" lon="14.928927675807516"><ele>1062.0</ele><time>2026-04-19T17:51:10.001Z</time></trkpt><trkpt lat="38.00419178647013" lon="14.928849698670259"><ele>1062.0</ele><time>2026-04-19T17:51:12.001Z</time></trkpt><trkpt lat="38.00408815055647" lon="14.928764655523208"><ele>1065.0</ele><time>2026-04-19T17:51:14.001Z</time></trkpt><trkpt lat="38.00398316600518" lon="14.928689155712506"><ele>1068.0</ele><time>2026-04-19T17:51:16.001Z</time></trkpt><trkpt lat="38.00387744292335" lon="14.92862901835311"><ele>1071.0</ele><time>2026-04-19T17:51:18.001Z</time></trkpt><trkpt lat="38.003776769327246" lon="14.928562882160282"><ele>1074.0</ele><time>2026-04-19T17:51:20.001Z</time></trkpt><trkpt lat="38.003657102830665" lon="14.92853897894727"><ele>1074.0</ele><time>2026-04-19T17:51:22.001Z</time></trkpt><trkpt lat="38.00355522695543" lon="14.928503827400592"><ele>1074.0</ele><time>2026-04-19T17:51:24.001Z</time></trkpt><trkpt lat="38.00353238094919" lon="14.928427528331106"><ele>1074.0</ele><time>2026-04-19T17:51:25.001Z</time></trkpt><trkpt lat="38.00345577646594" lon="14.92831291070219"><ele>1074.0</ele><time>2026-04-19T17:51:27.001Z</time></trkpt><trkpt lat="38.00337576819033" lon="14.92818737338955"><ele>1074.0</ele><time>2026-04-19T17:51:29Z</time></trkpt><trkpt lat="38.00330439667875" lon="14.928071597307198"><ele>1077.4</ele><time>2026-04-19T17:51:31Z</time></trkpt><trkpt lat="38.0032436874473" lon="14.927962460858192"><ele>1080.8000000000002</ele><time>2026-04-19T17:51:33Z</time></trkpt><trkpt lat="38.00317745716279" lon="14.927816888722683"><ele>1084.1999999999998</ele><time>2026-04-19T17:51:35Z</time></trkpt><trkpt lat="38.003142029220825" lon="14.927726840578329"><ele>1087.6</ele><time>2026-04-19T17:51:36Z</time></trkpt><trkpt lat="38.003106342124" lon="14.927642294793404"><ele>1091.0</ele><time>2026-04-19T17:51:37Z</time></trkpt><trkpt lat="38.00306432179226" lon="14.92756819514865"><ele>1092.3333333333335</ele><time>2026-04-19T17:51:38Z</time></trkpt><trkpt lat="38.003036310806955" lon="14.927479778620112"><ele>1093.6666666666667</ele><time>2026-04-19T17:51:39Z</time></trkpt><trkpt lat="38.0030011370558" lon="14.927389062527224"><ele>1095.0</ele><time>2026-04-19T17:51:40Z</time></trkpt><trkpt lat="38.00297076843738" lon="14.927288024531624"><ele>1096.3333333333333</ele><time>2026-04-19T17:51:41Z</time></trkpt><trkpt lat="38.00292738524855" lon="14.927198512523987"><ele>1097.6666666666665</ele><time>2026-04-19T17:51:42Z</time></trkpt><trkpt lat="38.00288371394731" lon="14.927107030990824"><ele>1099.0</ele><time>2026-04-19T17:51:43Z</time></trkpt><trkpt lat="38.00282392302885" lon="14.927021888388037"><ele>1099.0</ele><time>2026-04-19T17:51:44Z</time></trkpt><trkpt lat="38.00275207853176" lon="14.926946490739036"><ele>1099.0</ele><time>2026-04-19T17:51:45Z</time></trkpt><trkpt lat="38.00268476768348" lon="14.926874955660658"><ele>1099.0</ele><time>2026-04-19T17:51:46Z</time></trkpt><trkpt lat="38.002622730076666" lon="14.926806609945574"><ele>1099.0</ele><time>2026-04-19T17:51:47Z</time></trkpt><trkpt lat="38.00255854555851" lon="14.926743579542281"><ele>1099.0</ele><time>2026-04-19T17:51:48Z</time></trkpt><trkpt lat="38.00249962134531" lon="14.926676922141294"><ele>1099.0</ele><time>2026-04-19T17:51:49Z</time></trkpt><trkpt lat="38.002440659940646" lon="14.926610286432398"><ele>1102.8333333333333</ele><time>2026-04-19T17:51:50Z</time></trkpt><trkpt lat="38.002376207255665" lon="14.926554902171985"><ele>1106.6666666666665</ele><time>2026-04-19T17:51:51Z</time></trkpt><trkpt lat="38.00229771654207" lon="14.926504726611851"><ele>1110.5</ele><time>2026-04-19T17:51:52Z</time></trkpt><trkpt lat="38.002209633118035" lon="14.926489247356956"><ele>1114.3333333333333</ele><time>2026-04-19T17:51:53Z</time></trkpt><trkpt lat="38.002126815884125" lon="14.926478449484373"><ele>1118.1666666666667</ele><time>2026-04-19T17:51:54Z</time></trkpt><trkpt lat="38.00205016024947" lon="14.926466838757412"><ele>1122.0</ele><time>2026-04-19T17:51:55Z</time></trkpt><trkpt lat="38.00198155665275" lon="14.926445003754273"><ele>1122.0</ele><time>2026-04-19T17:51:56Z</time></trkpt><trkpt lat="38.00191853194795" lon="14.926407175360165"><ele>1122.0</ele><time>2026-04-19T17:51:57Z</time></trkpt><trkpt lat="38.00185979060788" lon="14.926346532911186"><ele>1122.0</ele><time>2026-04-19T17:51:58Z</time></trkpt><trkpt lat="38.0017975197933" lon="14.926281090610127"><ele>1122.0</ele><time>2026-04-19T17:51:59Z</time></trkpt><trkpt lat="38.00173617314193" lon="14.926217628573646"><ele>1122.0</ele><time>2026-04-19T17:52:00Z</time></trkpt><trkpt lat="38.001672153179186" lon="14.926154700477227"><ele>1122.0</ele><time>2026-04-19T17:52:01Z</time></trkpt><trkpt lat="38.001604629617766" lon="14.926099649848652"><ele>1124.0</ele><time>2026-04-19T17:52:02Z</time></trkpt><trkpt lat="38.001538265326715" lon="14.926051649110715"><ele>1126.0</ele><time>2026-04-19T17:52:03Z</time></trkpt><trkpt lat="38.00147250214943" lon="14.92601141601267"><ele>1128.0</ele><time>2026-04-19T17:52:04Z</time></trkpt><trkpt lat="38.001410359558356" lon="14.925974052070949"><ele>1130.0</ele><time>2026-04-19T17:52:05Z</time></trkpt><trkpt lat="38.001320340691684" lon="14.925914863400653"><ele>1132.0</ele><time>2026-04-19T17:52:07Z</time></trkpt><trkpt lat="38.00131466673736" lon="14.925834219226902"><ele>1134.0</ele><time>2026-04-19T17:52:08Z</time></trkpt><trkpt lat="38.001290774375995" lon="14.925756786007938"><ele>1136.0</ele><time>2026-04-19T17:52:09Z</time></trkpt><trkpt lat="38.00125983064501" lon="14.925680451942895"><ele>1136.0</ele><time>2026-04-19T17:52:10Z</time></trkpt><trkpt lat="38.001221415899906" lon="14.925609146316702"><ele>1136.0</ele><time>2026-04-19T17:52:11Z</time></trkpt><trkpt lat="38.00118156572265" lon="14.925540878963568"><ele>1136.0</ele><time>2026-04-19T17:52:12Z</time></trkpt><trkpt lat="38.00116132197035" lon="14.92539946118844"><ele>1136.0</ele><time>2026-04-19T17:52:14Z</time></trkpt><trkpt lat="38.001208511265425" lon="14.925263830362404"><ele>1136.0</ele><time>2026-04-19T17:52:16Z</time></trkpt><trkpt lat="38.0012498467213" lon="14.925180270445125"><ele>1136.0</ele><time>2026-04-19T17:52:18Z</time></trkpt><trkpt lat="38.001270081245266" lon="14.925099344327453"><ele>1135.6</ele><time>2026-04-19T17:52:22Z</time></trkpt><trkpt lat="38.001134718533" lon="14.925029622496773"><ele>1135.1999999999998</ele><time>2026-04-19T17:52:26Z</time></trkpt><trkpt lat="38.00102346512679" lon="14.925013664155024"><ele>1134.8000000000002</ele><time>2026-04-19T17:52:28Z</time></trkpt><trkpt lat="38.00094891286042" lon="14.925014666226941"><ele>1134.4</ele><time>2026-04-19T17:52:29Z</time></trkpt><trkpt lat="38.000876489165066" lon="14.925037994816236"><ele>1134.0</ele><time>2026-04-19T17:52:30Z</time></trkpt><trkpt lat="38.0008100885319" lon="14.925093530791504"><ele>1136.8333333333333</ele><time>2026-04-19T17:52:31Z</time></trkpt><trkpt lat="38.000771491176515" lon="14.925176739111004"><ele>1139.6666666666667</ele><time>2026-04-19T17:52:32Z</time></trkpt><trkpt lat="38.000733583264626" lon="14.925244367091432"><ele>1142.5</ele><time>2026-04-19T17:52:33Z</time></trkpt><trkpt lat="38.00066615527524" lon="14.925362472811795"><ele>1145.3333333333335</ele><time>2026-04-19T17:52:35Z</time></trkpt><trkpt lat="38.00062240260639" lon="14.9254226298122"><ele>1148.1666666666667</ele><time>2026-04-19T17:52:37Z</time></trkpt><trkpt lat="38.00058844422375" lon="14.925495600301142"><ele>1151.0</ele><time>2026-04-19T17:53:03.001Z</time></trkpt><trkpt lat="38.000570734103114" lon="14.925610282710608"><ele>1151.0</ele><time>2026-04-19T17:53:05.001Z</time></trkpt><trkpt lat="38.000582936463196" lon="14.92577339247792"><ele>1151.0</ele><time>2026-04-19T17:53:07.001Z</time></trkpt><trkpt lat="38.00059040265565" lon="14.92585750528831"><ele>1151.0</ele><time>2026-04-19T17:53:08.001Z</time></trkpt><trkpt lat="38.0006081495656" lon="14.925947047058477"><ele>1151.0</ele><time>2026-04-19T17:53:09.001Z</time></trkpt><trkpt lat="38.00063980424834" lon="14.926034299962316"><ele>1151.0</ele><time>2026-04-19T17:53:10.001Z</time></trkpt><trkpt lat="38.000677816529816" lon="14.926121414635052"><ele>1151.0</ele><time>2026-04-19T17:53:11.001Z</time></trkpt><trkpt lat="38.000725628228594" lon="14.92619524729858"><ele>1151.6666666666667</ele><time>2026-04-19T17:53:12.001Z</time></trkpt><trkpt lat="38.000757081928555" lon="14.926305136979765"><ele>1152.3333333333335</ele><time>2026-04-19T17:53:14.001Z</time></trkpt><trkpt lat="38.00072112833564" lon="14.926377566144815"><ele>1153.0</ele><time>2026-04-19T17:53:17.001Z</time></trkpt><trkpt lat="38.00064503094487" lon="14.926321385875958"><ele>1153.6666666666667</ele><time>2026-04-19T17:53:19.001Z</time></trkpt><trkpt lat="38.000585564597195" lon="14.926291245986956"><ele>1154.3333333333333</ele><time>2026-04-19T17:53:20.001Z</time></trkpt><trkpt lat="38.00048993364341" lon="14.926197736534737"><ele>1155.0</ele><time>2026-04-19T17:53:22.001Z</time></trkpt><trkpt lat="38.00039495316976" lon="14.926102529512898"><ele>1155.0</ele><time>2026-04-19T17:53:24.001Z</time></trkpt><trkpt lat="38.0002857251569" lon="14.926027090450683"><ele>1155.0</ele><time>2026-04-19T17:53:26.001Z</time></trkpt><trkpt lat="38.00021106004129" lon="14.926047865182712"><ele>1155.0</ele><time>2026-04-19T17:53:27.001Z</time></trkpt><trkpt lat="38.00014173641394" lon="14.926091111092687"><ele>1155.0</ele><time>2026-04-19T17:53:28.001Z</time></trkpt><trkpt lat="38.00006468482362" lon="14.92615037035416"><ele>1155.0</ele><time>2026-04-19T17:53:29.001Z</time></trkpt><trkpt lat="37.999984213492574" lon="14.926215949400726"><ele>1155.0</ele><time>2026-04-19T17:53:30.001Z</time></trkpt><trkpt lat="37.999908758227065" lon="14.92627744045114"><ele>1155.0</ele><time>2026-04-19T17:53:31.001Z</time></trkpt><trkpt lat="37.99982943274773" lon="14.926339418604071"><ele>1155.0</ele><time>2026-04-19T17:53:32.001Z</time></trkpt><trkpt lat="37.99975174835323" lon="14.926390935586735"><ele>1155.0</ele><time>2026-04-19T17:53:33.001Z</time></trkpt><trkpt lat="37.999671071952484" lon="14.926435538690669"><ele>1155.0</ele><time>2026-04-19T17:53:34.001Z</time></trkpt><trkpt lat="37.9995876706579" lon="14.926480284211962"><ele>1155.0</ele><time>2026-04-19T17:53:35Z</time></trkpt><trkpt lat="37.99950423674561" lon="14.926528251221866"><ele>1155.0</ele><time>2026-04-19T17:53:36Z</time></trkpt><trkpt lat="37.99942412142851" lon="14.926577526480623"><ele>1155.0</ele><time>2026-04-19T17:53:37Z</time></trkpt><trkpt lat="37.99933144652924" lon="14.926616850701974"><ele>1155.0</ele><time>2026-04-19T17:53:38Z</time></trkpt><trkpt lat="37.999232058522736" lon="14.926648839468765"><ele>1155.0</ele><time>2026-04-19T17:53:39Z</time></trkpt><trkpt lat="37.99913538641222" lon="14.926668324834749"><ele>1155.0</ele><time>2026-04-19T17:53:40Z</time></trkpt><trkpt lat="37.999045600810994" lon="14.926679368694062"><ele>1156.0</ele><time>2026-04-19T17:53:41Z</time></trkpt><trkpt lat="37.9989597647362" lon="14.926687852209069"><ele>1157.0</ele><time>2026-04-19T17:53:42Z</time></trkpt><trkpt lat="37.99887889418941" lon="14.92668334080949"><ele>1158.0</ele><time>2026-04-19T17:53:43Z</time></trkpt><trkpt lat="37.9988008293972" lon="14.926661325438758"><ele>1159.0</ele><time>2026-04-19T17:53:44Z</time></trkpt><trkpt lat="37.99872500558968" lon="14.92662532223557"><ele>1160.0</ele><time>2026-04-19T17:53:45Z</time></trkpt><trkpt lat="37.99864352996392" lon="14.926584637468574"><ele>1161.0</ele><time>2026-04-19T17:53:46Z</time></trkpt><trkpt lat="37.99855699553468" lon="14.926552389786865"><ele>1161.0</ele><time>2026-04-19T17:53:47Z</time></trkpt><trkpt lat="37.998467776042276" lon="14.926545441340567"><ele>1161.0</ele><time>2026-04-19T17:53:48Z</time></trkpt><trkpt lat="37.99838383939187" lon="14.926549070144581"><ele>1161.0</ele><time>2026-04-19T17:53:49Z</time></trkpt><trkpt lat="37.99830613974711" lon="14.926555417295265"><ele>1161.0</ele><time>2026-04-19T17:53:50Z</time></trkpt><trkpt lat="37.998233027250414" lon="14.926559970867702"><ele>1161.0</ele><time>2026-04-19T17:53:51Z</time></trkpt><trkpt lat="37.998152408322575" lon="14.926572260448175"><ele>1161.0</ele><time>2026-04-19T17:53:53Z</time></trkpt><trkpt lat="37.99812571352737" lon="14.926644951054792"><ele>1159.6666666666667</ele><time>2026-04-19T17:53:55Z</time></trkpt><trkpt lat="37.998203967259194" lon="14.92674637918662"><ele>1158.3333333333333</ele><time>2026-04-19T17:54:43Z</time></trkpt><trkpt lat="37.998270340093306" lon="14.926785667281514"><ele>1157.0</ele><time>2026-04-19T17:54:44Z</time></trkpt><trkpt lat="37.99835219166466" lon="14.926822582882378"><ele>1155.6666666666665</ele><time>2026-04-19T17:54:45Z</time></trkpt><trkpt lat="37.99842641428812" lon="14.926865929740678"><ele>1154.3333333333333</ele><time>2026-04-19T17:54:46Z</time></trkpt><trkpt lat="37.99846103884931" lon="14.926944557605687"><ele>1153.0</ele><time>2026-04-19T17:54:48Z</time></trkpt><trkpt lat="37.998417603690505" lon="14.927009181957319"><ele>1153.0</ele><time>2026-04-19T17:54:50Z</time></trkpt><trkpt lat="37.99835698650699" lon="14.926970541381975"><ele>1153.0</ele><time>2026-04-19T17:54:51Z</time></trkpt><trkpt lat="37.99827234736088" lon="14.926984419744718"><ele>1153.0</ele><time>2026-04-19T17:54:52Z</time></trkpt><trkpt lat="37.99817657293027" lon="14.926973537714533"><ele>1153.0</ele><time>2026-04-19T17:54:53Z</time></trkpt><trkpt lat="37.99808560332602" lon="14.926955042065359"><ele>1153.0</ele><time>2026-04-19T17:54:54Z</time></trkpt><trkpt lat="37.99800818751641" lon="14.92695237944926"><ele>1153.0</ele><time>2026-04-19T17:54:55Z</time></trkpt><trkpt lat="37.997928894022905" lon="14.926954940668276"><ele>1158.0</ele><time>2026-04-19T17:54:56Z</time></trkpt><trkpt lat="37.99785083757153" lon="14.926964312262832"><ele>1163.0</ele><time>2026-04-19T17:54:57Z</time></trkpt><trkpt lat="37.997759129019" lon="14.926988797784842"><ele>1168.0</ele><time>2026-04-19T17:54:58Z</time></trkpt><trkpt lat="37.997673462966546" lon="14.927025769482547"><ele>1173.0</ele><time>2026-04-19T17:54:59Z</time></trkpt><trkpt lat="37.99758815729528" lon="14.927078529619365"><ele>1178.0</ele><time>2026-04-19T17:55:00Z</time></trkpt><trkpt lat="37.99751189654403" lon="14.92712342003021"><ele>1183.0</ele><time>2026-04-19T17:55:01Z</time></trkpt><trkpt lat="37.99744083689775" lon="14.92716237819527"><ele>1186.4285714285713</ele><time>2026-04-19T17:55:02Z</time></trkpt><trkpt lat="37.997374707381574" lon="14.927195449228098"><ele>1189.857142857143</ele><time>2026-04-19T17:55:03Z</time></trkpt><trkpt lat="37.99729606588594" lon="14.927219046442705"><ele>1193.2857142857142</ele><time>2026-04-19T17:55:04Z</time></trkpt><trkpt lat="37.997222370377" lon="14.927228459320887"><ele>1196.7142857142858</ele><time>2026-04-19T17:55:05Z</time></trkpt><trkpt lat="37.997149284085744" lon="14.927223381644781"><ele>1200.142857142857</ele><time>2026-04-19T17:55:06Z</time></trkpt><trkpt lat="37.997081630383896" lon="14.927207628823188"><ele>1203.5714285714284</ele><time>2026-04-19T17:55:07Z</time></trkpt><trkpt lat="37.99701420792737" lon="14.927185233582744"><ele>1207.0</ele><time>2026-04-19T17:55:08Z</time></trkpt><trkpt lat="37.99693949680383" lon="14.927165407584235"><ele>1206.9999999999998</ele><time>2026-04-19T17:55:09Z</time></trkpt><trkpt lat="37.99685315437809" lon="14.927148208431182"><ele>1207.0</ele><time>2026-04-19T17:55:10.001Z</time></trkpt><trkpt lat="37.99677275721928" lon="14.927144942215183"><ele>1207.0</ele><time>2026-04-19T17:55:11.001Z</time></trkpt><trkpt lat="37.99670072440065" lon="14.92714758975228"><ele>1207.0</ele><time>2026-04-19T17:55:12.001Z</time></trkpt><trkpt lat="37.99663632436286" lon="14.927153036555044"><ele>1207.0</ele><time>2026-04-19T17:55:13.001Z</time></trkpt><trkpt lat="37.99657014462198" lon="14.927155642229229"><ele>1206.9999999999998</ele><time>2026-04-19T17:55:14.001Z</time></trkpt><trkpt lat="37.99650855865777" lon="14.92713145637326"><ele>1207.0</ele><time>2026-04-19T17:55:15.001Z</time></trkpt><trkpt lat="37.99645011524012" lon="14.927089377786041"><ele>1210.8</ele><time>2026-04-19T17:55:16.001Z</time></trkpt><trkpt lat="37.99640750578525" lon="14.927025824469546"><ele>1214.6</ele><time>2026-04-19T17:55:17.001Z</time></trkpt><trkpt lat="37.99634491404439" lon="14.926966956825765"><ele>1218.3999999999999</ele><time>2026-04-19T17:55:18.001Z</time></trkpt><trkpt lat="37.99625707363462" lon="14.92690711600326"><ele>1222.2</ele><time>2026-04-19T17:55:20.001Z</time></trkpt><trkpt lat="37.99613408111942" lon="14.926942148147631"><ele>1226.0</ele><time>2026-04-19T17:55:22.001Z</time></trkpt><trkpt lat="37.99610440000987" lon="14.927044572179613"><ele>1226.0</ele><time>2026-04-19T17:55:23.001Z</time></trkpt><trkpt lat="37.99613093877538" lon="14.927157678461926"><ele>1226.0</ele><time>2026-04-19T17:55:24.001Z</time></trkpt><trkpt lat="37.99604297846995" lon="14.927278804691813"><ele>1226.0</ele><time>2026-04-19T17:55:26.001Z</time></trkpt><trkpt lat="37.99595045708194" lon="14.92725803378709"><ele>1226.0</ele><time>2026-04-19T17:55:27.001Z</time></trkpt><trkpt lat="37.99585330898277" lon="14.927248317535721"><ele>1226.0</ele><time>2026-04-19T17:55:28.001Z</time></trkpt><trkpt lat="37.99577145597206" lon="14.927233087275003"><ele>1228.3999999999999</ele><time>2026-04-19T17:55:29.001Z</time></trkpt><trkpt lat="37.99567978629556" lon="14.927194412215698"><ele>1230.8</ele><time>2026-04-19T17:55:30.001Z</time></trkpt><trkpt lat="37.99559169274011" lon="14.927171130584567"><ele>1233.1999999999998</ele><time>2026-04-19T17:55:31.001Z</time></trkpt><trkpt lat="37.995490451178725" lon="14.927169042300026"><ele>1235.6</ele><time>2026-04-19T17:55:32.001Z</time></trkpt><trkpt lat="37.99538223471763" lon="14.927188590421006"><ele>1238.0</ele><time>2026-04-19T17:55:33.001Z</time></trkpt><trkpt lat="37.99527568194193" lon="14.927207058728266"><ele>1238.0</ele><time>2026-04-19T17:55:34.001Z</time></trkpt><trkpt lat="37.99516809984333" lon="14.927225705498426"><ele>1238.0</ele><time>2026-04-19T17:55:35.001Z</time></trkpt><trkpt lat="37.99506178261012" lon="14.927244132961775"><ele>1238.0</ele><time>2026-04-19T17:55:36.001Z</time></trkpt><trkpt lat="37.994963365556735" lon="14.927261191160186"><ele>1238.0</ele><time>2026-04-19T17:55:37.001Z</time></trkpt><trkpt lat="37.99486491795905" lon="14.92728069491247"><ele>1238.0</ele><time>2026-04-19T17:55:38.001Z</time></trkpt><trkpt lat="37.994774291219365" lon="14.92729795055423"><ele>1241.2</ele><time>2026-04-19T17:55:39.001Z</time></trkpt><trkpt lat="37.99468218653755" lon="14.927313194502593"><ele>1244.4</ele><time>2026-04-19T17:55:40.001Z</time></trkpt><trkpt lat="37.99459175261578" lon="14.927328161852618"><ele>1247.6000000000001</ele><time>2026-04-19T17:55:41Z</time></trkpt><trkpt lat="37.99449903248224" lon="14.927343507660664"><ele>1250.8</ele><time>2026-04-19T17:55:42Z</time></trkpt><trkpt lat="37.99441134679486" lon="14.9273592054787"><ele>1254.0</ele><time>2026-04-19T17:55:43Z</time></trkpt><trkpt lat="37.99431935358581" lon="14.927376839550535"><ele>1254.0</ele><time>2026-04-19T17:55:44Z</time></trkpt><trkpt lat="37.9942217286387" lon="14.927397439535055"><ele>1254.0</ele><time>2026-04-19T17:55:45Z</time></trkpt><trkpt lat="37.99412616749076" lon="14.927417604023683"><ele>1254.0</ele><time>2026-04-19T17:55:46Z</time></trkpt><trkpt lat="37.99403319728848" lon="14.927437221781979"><ele>1254.0</ele><time>2026-04-19T17:55:47Z</time></trkpt><trkpt lat="37.993941604801854" lon="14.927456548835574"><ele>1254.0</ele><time>2026-04-19T17:55:48Z</time></trkpt><trkpt lat="37.993852058397714" lon="14.927493397283646"><ele>1257.6000000000001</ele><time>2026-04-19T17:55:49Z</time></trkpt><trkpt lat="37.99375103628786" lon="14.927496288911971"><ele>1261.2</ele><time>2026-04-19T17:55:50Z</time></trkpt><trkpt lat="37.993653712098805" lon="14.927516525579337"><ele>1264.8000000000002</ele><time>2026-04-19T17:55:51Z</time></trkpt><trkpt lat="37.99356111783838" lon="14.927535778774562"><ele>1268.4</ele><time>2026-04-19T17:55:52Z</time></trkpt><trkpt lat="37.993465362441604" lon="14.927555689277886"><ele>1272.0</ele><time>2026-04-19T17:55:53Z</time></trkpt><trkpt lat="37.99337356731949" lon="14.927575443793344"><ele>1273.8333333333333</ele><time>2026-04-19T17:55:54Z</time></trkpt><trkpt lat="37.9932930313152" lon="14.927593780205816"><ele>1275.6666666666667</ele><time>2026-04-19T17:55:55Z</time></trkpt><trkpt lat="37.99321823348649" lon="14.927617342051606"><ele>1277.5</ele><time>2026-04-19T17:55:56Z</time></trkpt><trkpt lat="37.99314592037972" lon="14.927630975887528"><ele>1279.3333333333335</ele><time>2026-04-19T17:55:57Z</time></trkpt><trkpt lat="37.993077885050745" lon="14.927625020130396"><ele>1281.1666666666667</ele><time>2026-04-19T17:55:58Z</time></trkpt><trkpt lat="37.99300245135375" lon="14.927592996968588"><ele>1283.0</ele><time>2026-04-19T17:55:59Z</time></trkpt><trkpt lat="37.99292095566577" lon="14.927539402533402"><ele>1283.0</ele><time>2026-04-19T17:56:00Z</time></trkpt><trkpt lat="37.99285668935857" lon="14.92747869140622"><ele>1283.0</ele><time>2026-04-19T17:56:03Z</time></trkpt><trkpt lat="37.99278028552299" lon="14.927427999315643"><ele>1283.0</ele><time>2026-04-19T17:56:07Z</time></trkpt><trkpt lat="37.99270721432693" lon="14.92740755440676"><ele>1283.0</ele><time>2026-04-19T17:58:25.001Z</time></trkpt><trkpt lat="37.9926166518266" lon="14.927402956718115"><ele>1283.0</ele><time>2026-04-19T17:58:28.001Z</time></trkpt><trkpt lat="37.992528787559664" lon="14.927427479020501"><ele>1283.0</ele><time>2026-04-19T17:58:31.001Z</time></trkpt><trkpt lat="37.992437199161046" lon="14.927410542425106"><ele>1282.8000000000002</ele><time>2026-04-19T17:58:34.001Z</time></trkpt><trkpt lat="37.99235698580154" lon="14.9274042871366"><ele>1282.6</ele><time>2026-04-19T17:58:36.001Z</time></trkpt><trkpt lat="37.99224975250486" lon="14.927394318539779"><ele>1282.4</ele><time>2026-04-19T17:58:38.001Z</time></trkpt><trkpt lat="37.99213191298934" lon="14.927378014017194"><ele>1282.1999999999998</ele><time>2026-04-19T17:58:40.001Z</time></trkpt><trkpt lat="37.99203287492296" lon="14.927360856307338"><ele>1282.0</ele><time>2026-04-19T17:58:42.001Z</time></trkpt><trkpt lat="37.99195216786522" lon="14.927345333844867"><ele>1282.0</ele><time>2026-04-19T17:58:44.001Z</time></trkpt><trkpt lat="37.99188589952965" lon="14.927330827719361"><ele>1282.0</ele><time>2026-04-19T17:58:46.001Z</time></trkpt><trkpt lat="37.99182209118436" lon="14.92731685876509"><ele>1282.0</ele><time>2026-04-19T17:58:48.001Z</time></trkpt><trkpt lat="37.991734662089385" lon="14.927318991027576"><ele>1282.0</ele><time>2026-04-19T17:58:51.001Z</time></trkpt><trkpt lat="37.99167330289879" lon="14.927297905458008"><ele>1282.0</ele><time>2026-04-19T17:58:54.001Z</time></trkpt><trkpt lat="37.99165776094283" lon="14.927438592077905"><ele>1282.0</ele><time>2026-04-19T17:59:00.001Z</time></trkpt><trkpt lat="37.991703254195" lon="14.92751967305547"><ele>1282.6666666666665</ele><time>2026-04-19T17:59:03.001Z</time></trkpt><trkpt lat="37.99173684450461" lon="14.927603501598037"><ele>1283.3333333333333</ele><time>2026-04-19T17:59:06.001Z</time></trkpt><trkpt lat="37.99176755426715" lon="14.927685727411465"><ele>1284.0</ele><time>2026-04-19T17:59:09.001Z</time></trkpt><trkpt lat="37.99179247052874" lon="14.92776513406992"><ele>1284.6666666666667</ele><time>2026-04-19T17:59:14.001Z</time></trkpt><trkpt lat="37.99183266615031" lon="14.927848666597344"><ele>1285.3333333333335</ele><time>2026-04-19T17:59:38.001Z</time></trkpt><trkpt lat="37.99189142827439" lon="14.927988010157243"><ele>1286.0</ele><time>2026-04-19T17:59:40.001Z</time></trkpt><trkpt lat="37.991930371164145" lon="14.928086677149054"><ele>1286.0</ele><time>2026-04-19T17:59:41.001Z</time></trkpt><trkpt lat="37.99197025433777" lon="14.928192676035552"><ele>1286.0</ele><time>2026-04-19T17:59:42.001Z</time></trkpt><trkpt lat="37.99200939075198" lon="14.92829414813039"><ele>1286.0</ele><time>2026-04-19T17:59:43.001Z</time></trkpt><trkpt lat="37.99205284554333" lon="14.928398614196656"><ele>1286.0</ele><time>2026-04-19T17:59:44.001Z</time></trkpt><trkpt lat="37.992096884527385" lon="14.92850234197176"><ele>1286.0</ele><time>2026-04-19T17:59:45.001Z</time></trkpt><trkpt lat="37.99214085411257" lon="14.928605427786843"><ele>1285.1999999999998</ele><time>2026-04-19T17:59:46.001Z</time></trkpt><trkpt lat="37.99218477045891" lon="14.928712540502076"><ele>1284.3999999999999</ele><time>2026-04-19T17:59:47.001Z</time></trkpt><trkpt lat="37.99223336092616" lon="14.92883052739093"><ele>1283.6</ele><time>2026-04-19T17:59:48.001Z</time></trkpt><trkpt lat="37.99227071006023" lon="14.928973171485273"><ele>1282.8</ele><time>2026-04-19T17:59:49.001Z</time></trkpt><trkpt lat="37.992321360437835" lon="14.92911111270822"><ele>1282.0</ele><time>2026-04-19T17:59:50.001Z</time></trkpt><trkpt lat="37.99237571605346" lon="14.929241451987663"><ele>1282.0</ele><time>2026-04-19T17:59:51.001Z</time></trkpt><trkpt lat="37.99239074464547" lon="14.929396279372535"><ele>1282.0</ele><time>2026-04-19T17:59:52.001Z</time></trkpt><trkpt lat="37.99238509423215" lon="14.929567301842749"><ele>1282.0</ele><time>2026-04-19T17:59:53.001Z</time></trkpt><trkpt lat="37.992363464949676" lon="14.929750664794572"><ele>1282.0</ele><time>2026-04-19T17:59:54.001Z</time></trkpt><trkpt lat="37.99232520188737" lon="14.929944046562062"><ele>1281.75</ele><time>2026-04-19T17:59:55Z</time></trkpt><trkpt lat="37.99228531365614" lon="14.930117470116965"><ele>1281.5</ele><time>2026-04-19T17:59:56Z</time></trkpt><trkpt lat="37.99225914053292" lon="14.930285748950153"><ele>1281.25</ele><time>2026-04-19T17:59:57Z</time></trkpt><trkpt lat="37.992242289931866" lon="14.930441246758551"><ele>1281.0</ele><time>2026-04-19T17:59:58Z</time></trkpt><trkpt lat="37.992281282263846" lon="14.930579261239046"><ele>1281.0</ele><time>2026-04-19T17:59:59Z</time></trkpt><trkpt lat="37.99235134777856" lon="14.930689455461152"><ele>1281.0</ele><time>2026-04-19T18:00:00Z</time></trkpt><trkpt lat="37.992447082162776" lon="14.93076973651887"><ele>1281.0</ele><time>2026-04-19T18:00:01Z</time></trkpt><trkpt lat="37.99256355626296" lon="14.930823778916777"><ele>1281.0</ele><time>2026-04-19T18:00:02Z</time></trkpt><trkpt lat="37.99268400726868" lon="14.930910321130051"><ele>1282.75</ele><time>2026-04-19T18:00:02.999Z</time></trkpt><trkpt lat="37.99281641203338" lon="14.930990841403435"><ele>1284.5</ele><time>2026-04-19T18:00:03.999Z</time></trkpt><trkpt lat="37.99293208438704" lon="14.9310642174765"><ele>1286.25</ele><time>2026-04-19T18:00:04.999Z</time></trkpt><trkpt lat="37.99303487042438" lon="14.931150331929313"><ele>1288.0</ele><time>2026-04-19T18:00:05.999Z</time></trkpt><trkpt lat="37.99311243535254" lon="14.931239276659811"><ele>1288.0</ele><time>2026-04-19T18:00:06.999Z</time></trkpt><trkpt lat="37.993154681255625" lon="14.931346213234145"><ele>1288.0</ele><time>2026-04-19T18:00:08Z</time></trkpt><trkpt lat="37.993156479559495" lon="14.931471527916397"><ele>1288.0</ele><time>2026-04-19T18:00:09Z</time></trkpt><trkpt lat="37.99313101675002" lon="14.931610707686707"><ele>1288.0</ele><time>2026-04-19T18:00:10Z</time></trkpt><trkpt lat="37.993068792183514" lon="14.931578383939563"><ele>1288.0</ele><time>2026-04-19T18:00:12Z</time></trkpt><trkpt lat="37.99296298592168" lon="14.931632581976759"><ele>1288.0</ele><time>2026-04-19T18:00:13Z</time></trkpt><trkpt lat="37.99283282721205" lon="14.931695884051294"><ele>1288.0</ele><time>2026-04-19T18:00:14Z</time></trkpt><trkpt lat="37.992689494749705" lon="14.931768057557452"><ele>1288.0</ele><time>2026-04-19T18:00:15Z</time></trkpt><trkpt lat="37.992533832554905" lon="14.93186850379828"><ele>1287.3333333333333</ele><time>2026-04-19T18:00:16Z</time></trkpt><trkpt lat="37.99236828805162" lon="14.93194755305532"><ele>1286.6666666666667</ele><time>2026-04-19T18:00:17Z</time></trkpt><trkpt lat="37.992200770394966" lon="14.932041699919916"><ele>1286.0</ele><time>2026-04-19T18:00:18Z</time></trkpt><trkpt lat="37.99204063171667" lon="14.932172119572856"><ele>1286.0</ele><time>2026-04-19T18:00:19Z</time></trkpt><trkpt lat="37.99187319860127" lon="14.932335772336993"><ele>1286.0</ele><time>2026-04-19T18:00:20Z</time></trkpt><trkpt lat="37.9917129758765" lon="14.93250815674415"><ele>1286.0</ele><time>2026-04-19T18:00:21Z</time></trkpt><trkpt lat="37.99154695611632" lon="14.932704021271643"><ele>1284.3333333333335</ele><time>2026-04-19T18:00:22Z</time></trkpt><trkpt lat="37.99140083172009" lon="14.932904463170336"><ele>1282.6666666666667</ele><time>2026-04-19T18:00:23Z</time></trkpt><trkpt lat="37.99127041621091" lon="14.933097177946745"><ele>1281.0</ele><time>2026-04-19T18:00:24Z</time></trkpt><trkpt lat="37.9911586912011" lon="14.93329150999385"><ele>1285.6666666666667</ele><time>2026-04-19T18:00:25Z</time></trkpt><trkpt lat="37.99105143575815" lon="14.933484901813232"><ele>1290.3333333333335</ele><time>2026-04-19T18:00:26Z</time></trkpt><trkpt lat="37.990950780937126" lon="14.933670821170676"><ele>1295.0</ele><time>2026-04-19T18:00:27Z</time></trkpt><trkpt lat="37.99084514742958" lon="14.933824498939268"><ele>1291.0</ele><time>2026-04-19T18:00:28Z</time></trkpt><trkpt lat="37.99076262735385" lon="14.933966707326963"><ele>1287.0</ele><time>2026-04-19T18:00:29Z</time></trkpt><trkpt lat="37.99068063947175" lon="14.93408562184971"><ele>1283.0</ele><time>2026-04-19T18:00:30Z</time></trkpt><trkpt lat="37.99058754685769" lon="14.934156915128947"><ele>1279.0</ele><time>2026-04-19T18:00:31Z</time></trkpt><trkpt lat="37.99049079143624" lon="14.934190556862804"><ele>1279.0</ele><time>2026-04-19T18:00:32Z</time></trkpt><trkpt lat="37.99039841512841" lon="14.93418394374527"><ele>1279.0</ele><time>2026-04-19T18:00:33Z</time></trkpt><trkpt lat="37.990294268403034" lon="14.934171276583562"><ele>1279.0</ele><time>2026-04-19T18:00:34Z</time></trkpt><trkpt lat="37.99020469773956" lon="14.934076596385346"><ele>1279.0</ele><time>2026-04-19T18:00:35Z</time></trkpt><trkpt lat="37.9901182040717" lon="14.933970191560523"><ele>1279.0</ele><time>2026-04-19T18:00:36Z</time></trkpt><trkpt lat="37.99003690863245" lon="14.933834572719306"><ele>1278.5</ele><time>2026-04-19T18:00:37Z</time></trkpt><trkpt lat="37.98993872236169" lon="14.93370445796711"><ele>1278.0</ele><time>2026-04-19T18:00:38Z</time></trkpt><trkpt lat="37.989863887853694" lon="14.933559458312292"><ele>1277.5</ele><time>2026-04-19T18:00:39Z</time></trkpt><trkpt lat="37.98979088474362" lon="14.933430982732897"><ele>1277.0</ele><time>2026-04-19T18:00:40Z</time></trkpt><trkpt lat="37.9897172033808" lon="14.93333503795025"><ele>1277.0</ele><time>2026-04-19T18:00:41Z</time></trkpt><trkpt lat="37.989633513733985" lon="14.933284024751371"><ele>1277.0</ele><time>2026-04-19T18:00:42Z</time></trkpt><trkpt lat="37.98953413775191" lon="14.933284084223367"><ele>1277.0</ele><time>2026-04-19T18:00:43Z</time></trkpt><trkpt lat="37.9894323848571" lon="14.933332120660207"><ele>1277.0</ele><time>2026-04-19T18:00:44Z</time></trkpt><trkpt lat="37.98930997416715" lon="14.933407975141767"><ele>1277.0</ele><time>2026-04-19T18:00:45Z</time></trkpt><trkpt lat="37.98920687431231" lon="14.933464166104354"><ele>1277.75</ele><time>2026-04-19T18:00:46Z</time></trkpt><trkpt lat="37.9890755456326" lon="14.93353169287793"><ele>1278.5</ele><time>2026-04-19T18:00:47Z</time></trkpt><trkpt lat="37.98894665139738" lon="14.933599147354867"><ele>1279.25</ele><time>2026-04-19T18:00:48Z</time></trkpt><trkpt lat="37.988822853365065" lon="14.933665864217163"><ele>1280.0</ele><time>2026-04-19T18:00:49Z</time></trkpt><trkpt lat="37.98870348136821" lon="14.933746727863177"><ele>1280.0</ele><time>2026-04-19T18:00:50Z</time></trkpt><trkpt lat="37.98860052976261" lon="14.933865287634022"><ele>1280.0</ele><time>2026-04-19T18:00:51Z</time></trkpt><trkpt lat="37.98850707309972" lon="14.934017611465082"><ele>1280.0</ele><time>2026-04-19T18:00:52Z</time></trkpt><trkpt lat="37.98841999508935" lon="14.934195164403123"><ele>1277.6666666666667</ele><time>2026-04-19T18:00:53Z</time></trkpt><trkpt lat="37.98831273305566" lon="14.934389252246898"><ele>1275.3333333333333</ele><time>2026-04-19T18:00:54Z</time></trkpt><trkpt lat="37.98817915358258" lon="14.934585190206134"><ele>1273.0</ele><time>2026-04-19T18:00:55Z</time></trkpt><trkpt lat="37.98805856614531" lon="14.934828346884052"><ele>1282.0</ele><time>2026-04-19T18:00:56Z</time></trkpt><trkpt lat="37.98791759039573" lon="14.935072563096998"><ele>1291.0</ele><time>2026-04-19T18:00:57Z</time></trkpt><trkpt lat="37.98777282675442" lon="14.935319131928962"><ele>1291.0</ele><time>2026-04-19T18:00:58Z</time></trkpt><trkpt lat="37.987620142058525" lon="14.935582448088379"><ele>1291.0</ele><time>2026-04-19T18:00:59Z</time></trkpt><trkpt lat="37.98746575564204" lon="14.935847112614109"><ele>1284.0</ele><time>2026-04-19T18:01:00Z</time></trkpt><trkpt lat="37.987325916714354" lon="14.936092142430395"><ele>1277.0</ele><time>2026-04-19T18:01:01Z</time></trkpt><trkpt lat="37.987183477396364" lon="14.936309512634327"><ele>1277.0</ele><time>2026-04-19T18:01:02Z</time></trkpt><trkpt lat="37.98706254423853" lon="14.93653221646047"><ele>1277.0</ele><time>2026-04-19T18:01:03Z</time></trkpt><trkpt lat="37.98696873772167" lon="14.936761531180542"><ele>1277.0</ele><time>2026-04-19T18:01:04Z</time></trkpt><trkpt lat="37.986867336166455" lon="14.93698331316367"><ele>1278.6666666666667</ele><time>2026-04-19T18:01:05Z</time></trkpt><trkpt lat="37.986764371062215" lon="14.937218963214997"><ele>1280.3333333333333</ele><time>2026-04-19T18:01:06Z</time></trkpt><trkpt lat="37.98665761191722" lon="14.937464955427952"><ele>1282.0</ele><time>2026-04-19T18:01:07Z</time></trkpt><trkpt lat="37.986559388091074" lon="14.937697817256721"><ele>1278.0</ele><time>2026-04-19T18:01:08Z</time></trkpt><trkpt lat="37.98645151359334" lon="14.937904413256906"><ele>1274.0</ele><time>2026-04-19T18:01:09Z</time></trkpt><trkpt lat="37.98636452098825" lon="14.938113206300375"><ele>1270.0</ele><time>2026-04-19T18:01:10Z</time></trkpt><trkpt lat="37.986277669481794" lon="14.938309541111018"><ele>1275.6666666666665</ele><time>2026-04-19T18:01:11Z</time></trkpt><trkpt lat="37.986138514885695" lon="14.938436990524966"><ele>1281.3333333333333</ele><time>2026-04-19T18:01:12Z</time></trkpt><trkpt lat="37.985998502120246" lon="14.938535935876082"><ele>1287.0</ele><time>2026-04-19T18:01:13Z</time></trkpt><trkpt lat="37.98585697785848" lon="14.93861382900845"><ele>1281.0</ele><time>2026-04-19T18:01:14Z</time></trkpt><trkpt lat="37.98571586527002" lon="14.938691427534414"><ele>1275.0</ele><time>2026-04-19T18:01:15Z</time></trkpt><trkpt lat="37.985572708472056" lon="14.938787114310514"><ele>1269.0</ele><time>2026-04-19T18:01:16Z</time></trkpt><trkpt lat="37.985407974312864" lon="14.93886991387723"><ele>1269.0</ele><time>2026-04-19T18:01:17Z</time></trkpt><trkpt lat="37.98524915127005" lon="14.938959210463292"><ele>1269.0</ele><time>2026-04-19T18:01:18Z</time></trkpt><trkpt lat="37.98511247765306" lon="14.93903538929316"><ele>1269.0</ele><time>2026-04-19T18:01:19Z</time></trkpt><trkpt lat="37.98500296084516" lon="14.939097721683261"><ele>1269.0</ele><time>2026-04-19T18:01:20Z</time></trkpt><trkpt lat="37.984901268638176" lon="14.93915687858693"><ele>1269.6000000000001</ele><time>2026-04-19T18:01:21Z</time></trkpt><trkpt lat="37.984799901453705" lon="14.939218757582323"><ele>1270.2</ele><time>2026-04-19T18:01:22Z</time></trkpt><trkpt lat="37.9846995831101" lon="14.939275061246912"><ele>1270.8000000000002</ele><time>2026-04-19T18:01:23Z</time></trkpt><trkpt lat="37.984602519961015" lon="14.939325960079763"><ele>1271.4</ele><time>2026-04-19T18:01:24Z</time></trkpt><trkpt lat="37.984505099723975" lon="14.939379524899508"><ele>1272.0</ele><time>2026-04-19T18:01:25Z</time></trkpt><trkpt lat="37.9844081585186" lon="14.939434822043024"><ele>1272.0</ele><time>2026-04-19T18:01:26Z</time></trkpt><trkpt lat="37.98431398918403" lon="14.939495214912077"><ele>1272.0</ele><time>2026-04-19T18:01:27Z</time></trkpt><trkpt lat="37.984229926314285" lon="14.939575286977627"><ele>1272.0</ele><time>2026-04-19T18:01:28Z</time></trkpt><trkpt lat="37.984153925935736" lon="14.93967741074466"><ele>1272.0</ele><time>2026-04-19T18:01:29Z</time></trkpt><trkpt lat="37.98408931062415" lon="14.939804826394544"><ele>1272.0</ele><time>2026-04-19T18:01:30Z</time></trkpt><trkpt lat="37.9840295924271" lon="14.939946723321576"><ele>1272.0</ele><time>2026-04-19T18:01:31Z</time></trkpt><trkpt lat="37.98396153224345" lon="14.940083404934494"><ele>1272.0</ele><time>2026-04-19T18:01:32Z</time></trkpt><trkpt lat="37.98392189640245" lon="14.940239130869834"><ele>1272.0</ele><time>2026-04-19T18:01:33Z</time></trkpt><trkpt lat="37.9838700187568" lon="14.940383199130425"><ele>1272.0</ele><time>2026-04-19T18:01:34Z</time></trkpt><trkpt lat="37.98381834742645" lon="14.940515725200534"><ele>1272.0</ele><time>2026-04-19T18:01:35Z</time></trkpt><trkpt lat="37.983755388385376" lon="14.940627746751623"><ele>1272.0</ele><time>2026-04-19T18:01:36Z</time></trkpt><trkpt lat="37.98369058136776" lon="14.940735151919354"><ele>1272.0</ele><time>2026-04-19T18:01:37Z</time></trkpt><trkpt lat="37.98361117848296" lon="14.94082885038346"><ele>1272.0</ele><time>2026-04-19T18:01:38Z</time></trkpt><trkpt lat="37.983517051087006" lon="14.940911424428759"><ele>1272.0</ele><time>2026-04-19T18:01:39Z</time></trkpt><trkpt lat="37.983409249985876" lon="14.940973818917831"><ele>1271.5</ele><time>2026-04-19T18:01:40Z</time></trkpt><trkpt lat="37.98329227806346" lon="14.941023087721776"><ele>1271.0</ele><time>2026-04-19T18:01:41Z</time></trkpt><trkpt lat="37.98317730279394" lon="14.941043711080614"><ele>1270.5</ele><time>2026-04-19T18:01:42Z</time></trkpt><trkpt lat="37.98305611933218" lon="14.941047793411872"><ele>1270.0</ele><time>2026-04-19T18:01:43Z</time></trkpt><trkpt lat="37.98293086921262" lon="14.941044062047668"><ele>1270.0</ele><time>2026-04-19T18:01:44Z</time></trkpt><trkpt lat="37.98279485046266" lon="14.94105645554196"><ele>1270.0</ele><time>2026-04-19T18:01:45Z</time></trkpt><trkpt lat="37.98265301989563" lon="14.941044264467198"><ele>1270.0</ele><time>2026-04-19T18:01:46Z</time></trkpt><trkpt lat="37.98251420609191" lon="14.941012188224502"><ele>1270.0</ele><time>2026-04-19T18:01:47Z</time></trkpt><trkpt lat="37.98237626457417" lon="14.941022337028947"><ele>1269.75</ele><time>2026-04-19T18:01:48Z</time></trkpt><trkpt lat="37.98224045508426" lon="14.94101241703204"><ele>1269.5</ele><time>2026-04-19T18:01:49Z</time></trkpt><trkpt lat="37.982111842106704" lon="14.941003058359327"><ele>1269.25</ele><time>2026-04-19T18:01:50Z</time></trkpt><trkpt lat="37.981984870633354" lon="14.940994987860932"><ele>1269.0</ele><time>2026-04-19T18:01:51Z</time></trkpt><trkpt lat="37.981857071321805" lon="14.940988541061902"><ele>1269.0</ele><time>2026-04-19T18:01:52Z</time></trkpt><trkpt lat="37.98172859412003" lon="14.940983014340587"><ele>1269.0</ele><time>2026-04-19T18:01:53Z</time></trkpt><trkpt lat="37.98159524053153" lon="14.940978762377735"><ele>1269.0</ele><time>2026-04-19T18:01:54Z</time></trkpt><trkpt lat="37.98146126301931" lon="14.940975784081568"><ele>1269.0</ele><time>2026-04-19T18:01:55Z</time></trkpt><trkpt lat="37.98132730485379" lon="14.940971714832711"><ele>1269.0</ele><time>2026-04-19T18:01:56Z</time></trkpt><trkpt lat="37.98119534713286" lon="14.940970023401096"><ele>1269.0</ele><time>2026-04-19T18:01:57Z</time></trkpt><trkpt lat="37.98106191697521" lon="14.940986477753274"><ele>1269.0</ele><time>2026-04-19T18:01:58Z</time></trkpt><trkpt lat="37.98092540880219" lon="14.94101924864243"><ele>1269.0</ele><time>2026-04-19T18:01:59Z</time></trkpt><trkpt lat="37.98078337150095" lon="14.941064329256331"><ele>1269.75</ele><time>2026-04-19T18:02:00Z</time></trkpt><trkpt lat="37.98064098515975" lon="14.94111298654353"><ele>1270.5</ele><time>2026-04-19T18:02:01Z</time></trkpt><trkpt lat="37.98049653253844" lon="14.941162446258717"><ele>1271.25</ele><time>2026-04-19T18:02:02Z</time></trkpt><trkpt lat="37.98035340186247" lon="14.94120921368617"><ele>1272.0</ele><time>2026-04-19T18:02:03Z</time></trkpt><trkpt lat="37.98021535723456" lon="14.941254375272639"><ele>1272.0</ele><time>2026-04-19T18:02:04Z</time></trkpt><trkpt lat="37.98008001027837" lon="14.941299857708879"><ele>1272.0</ele><time>2026-04-19T18:02:05Z</time></trkpt><trkpt lat="37.979953477330156" lon="14.941343952048316"><ele>1272.0</ele><time>2026-04-19T18:02:06Z</time></trkpt><trkpt lat="37.979834917267944" lon="14.941385565804952"><ele>1272.0</ele><time>2026-04-19T18:02:07Z</time></trkpt><trkpt lat="37.97972129317458" lon="14.941431962479022"><ele>1271.2</ele><time>2026-04-19T18:02:08Z</time></trkpt><trkpt lat="37.979609697091135" lon="14.941480068182017"><ele>1270.4</ele><time>2026-04-19T18:02:09Z</time></trkpt><trkpt lat="37.979503317385905" lon="14.941525639139039"><ele>1269.6</ele><time>2026-04-19T18:02:10Z</time></trkpt><trkpt lat="37.9794010264934" lon="14.94156994730204"><ele>1268.8</ele><time>2026-04-19T18:02:11Z</time></trkpt><trkpt lat="37.97930751189239" lon="14.941610939259867"><ele>1268.0</ele><time>2026-04-19T18:02:12Z</time></trkpt><trkpt lat="37.97922219157194" lon="14.941667037340746"><ele>1268.5</ele><time>2026-04-19T18:02:13Z</time></trkpt><trkpt lat="37.97914511908187" lon="14.941750244776358"><ele>1269.0</ele><time>2026-04-19T18:02:14Z</time></trkpt><trkpt lat="37.9790780946674" lon="14.94185859501668"><ele>1269.5</ele><time>2026-04-19T18:02:15Z</time></trkpt><trkpt lat="37.97900546023426" lon="14.941983700826462"><ele>1270.0</ele><time>2026-04-19T18:02:16Z</time></trkpt><trkpt lat="37.97895364455548" lon="14.942120115721783"><ele>1270.0</ele><time>2026-04-19T18:02:17Z</time></trkpt><trkpt lat="37.978897950721525" lon="14.942267407726753"><ele>1270.0</ele><time>2026-04-19T18:02:18Z</time></trkpt><trkpt lat="37.978841637121626" lon="14.942412417790733"><ele>1270.0</ele><time>2026-04-19T18:02:19Z</time></trkpt><trkpt lat="37.97878512314493" lon="14.942575749343568"><ele>1270.0</ele><time>2026-04-19T18:02:20Z</time></trkpt><trkpt lat="37.97870870656341" lon="14.942727884564151"><ele>1272.75</ele><time>2026-04-19T18:02:21Z</time></trkpt><trkpt lat="37.97861818381245" lon="14.942862365762586"><ele>1275.5</ele><time>2026-04-19T18:02:22Z</time></trkpt><trkpt lat="37.97854313199998" lon="14.94299600264323"><ele>1278.25</ele><time>2026-04-19T18:02:23Z</time></trkpt><trkpt lat="37.97846842558972" lon="14.943127411615306"><ele>1281.0</ele><time>2026-04-19T18:02:24Z</time></trkpt><trkpt lat="37.97839493553779" lon="14.943252544343974"><ele>1278.3999999999999</ele><time>2026-04-19T18:02:25Z</time></trkpt><trkpt lat="37.978325961674976" lon="14.943369987295888"><ele>1275.8</ele><time>2026-04-19T18:02:26Z</time></trkpt><trkpt lat="37.9782646173792" lon="14.943479914017768"><ele>1273.1999999999998</ele><time>2026-04-19T18:02:27Z</time></trkpt><trkpt lat="37.97823165452612" lon="14.943590957160502"><ele>1270.6</ele><time>2026-04-19T18:02:28Z</time></trkpt><trkpt lat="37.97818667334889" lon="14.943678084357597"><ele>1268.0</ele><time>2026-04-19T18:02:29Z</time></trkpt><trkpt lat="37.97817250127842" lon="14.943783587590035"><ele>1267.8</ele><time>2026-04-19T18:02:30Z</time></trkpt><trkpt lat="37.978202971496195" lon="14.943886796535121"><ele>1267.6</ele><time>2026-04-19T18:02:31Z</time></trkpt><trkpt lat="37.9782172834342" lon="14.94399611120023"><ele>1267.4</ele><time>2026-04-19T18:02:32Z</time></trkpt><trkpt lat="37.97828555974025" lon="14.94410267429612"><ele>1267.2</ele><time>2026-04-19T18:02:33Z</time></trkpt><trkpt lat="37.9783552297804" lon="14.944223676983462"><ele>1267.0</ele><time>2026-04-19T18:02:34Z</time></trkpt><trkpt lat="37.9784339049202" lon="14.94434139701397"><ele>1266.5</ele><time>2026-04-19T18:02:35Z</time></trkpt><trkpt lat="37.97851718793225" lon="14.944461577995607"><ele>1266.0</ele><time>2026-04-19T18:02:36Z</time></trkpt><trkpt lat="37.97861343035456" lon="14.94458925781322"><ele>1265.5</ele><time>2026-04-19T18:02:37Z</time></trkpt><trkpt lat="37.97872243575642" lon="14.944705036949124"><ele>1265.0</ele><time>2026-04-19T18:02:38Z</time></trkpt><trkpt lat="37.978829992123615" lon="14.944808151114826"><ele>1265.0</ele><time>2026-04-19T18:02:39Z</time></trkpt><trkpt lat="37.97893104530672" lon="14.944902389814894"><ele>1265.0</ele><time>2026-04-19T18:02:40Z</time></trkpt><trkpt lat="37.97900805415538" lon="14.945008527259546"><ele>1265.0</ele><time>2026-04-19T18:02:41Z</time></trkpt><trkpt lat="37.979073445890684" lon="14.945089692920211"><ele>1265.0</ele><time>2026-04-19T18:02:42Z</time></trkpt><trkpt lat="37.979128925026025" lon="14.94516369187185"><ele>1265.0</ele><time>2026-04-19T18:02:43Z</time></trkpt><trkpt lat="37.97915085111629" lon="14.945269611396032"><ele>1265.0</ele><time>2026-04-19T18:02:44Z</time></trkpt><trkpt lat="37.979143671749874" lon="14.945377353464789"><ele>1265.0</ele><time>2026-04-19T18:02:45Z</time></trkpt><trkpt lat="37.97912398471559" lon="14.945481042098944"><ele>1265.0</ele><time>2026-04-19T18:02:46Z</time></trkpt><trkpt lat="37.97909392150498" lon="14.945599723864502"><ele>1265.0</ele><time>2026-04-19T18:02:47Z</time></trkpt><trkpt lat="37.97906115726673" lon="14.945725888918098"><ele>1265.0</ele><time>2026-04-19T18:02:48Z</time></trkpt><trkpt lat="37.979025958432814" lon="14.945855367026885"><ele>1266.4</ele><time>2026-04-19T18:02:49Z</time></trkpt><trkpt lat="37.97899066356008" lon="14.94598519838974"><ele>1267.8</ele><time>2026-04-19T18:02:50Z</time></trkpt><trkpt lat="37.978953506556024" lon="14.946108043090717"><ele>1269.2</ele><time>2026-04-19T18:02:51Z</time></trkpt><trkpt lat="37.978903448014854" lon="14.946206452473223"><ele>1270.6</ele><time>2026-04-19T18:02:52Z</time></trkpt><trkpt lat="37.978827940846536" lon="14.946286260677525"><ele>1272.0</ele><time>2026-04-19T18:02:53Z</time></trkpt><trkpt lat="37.97873140391458" lon="14.946328562906862"><ele>1272.0</ele><time>2026-04-19T18:02:54Z</time></trkpt><trkpt lat="37.97862159035945" lon="14.946341237469532"><ele>1272.0</ele><time>2026-04-19T18:02:55Z</time></trkpt><trkpt lat="37.978511158966185" lon="14.946352563990654"><ele>1272.0</ele><time>2026-04-19T18:02:56Z</time></trkpt><trkpt lat="37.97840074742775" lon="14.946364030661607"><ele>1272.0</ele><time>2026-04-19T18:02:57Z</time></trkpt><trkpt lat="37.978290858839756" lon="14.946383566795356"><ele>1272.0</ele><time>2026-04-19T18:02:58Z</time></trkpt><trkpt lat="37.97818139181983" lon="14.946434532562899"><ele>1272.75</ele><time>2026-04-19T18:02:59Z</time></trkpt><trkpt lat="37.97808194737974" lon="14.946514852874577"><ele>1273.5</ele><time>2026-04-19T18:03:00Z</time></trkpt><trkpt lat="37.97800141585253" lon="14.946630667640122"><ele>1274.25</ele><time>2026-04-19T18:03:01Z</time></trkpt><trkpt lat="37.9778998502242" lon="14.946725583163301"><ele>1275.0</ele><time>2026-04-19T18:03:02Z</time></trkpt><trkpt lat="37.9778040181673" lon="14.946837441815683"><ele>1275.0</ele><time>2026-04-19T18:03:03Z</time></trkpt><trkpt lat="37.97770717509938" lon="14.946950048078879"><ele>1275.0</ele><time>2026-04-19T18:03:04Z</time></trkpt><trkpt lat="37.97760948858996" lon="14.947063489820467"><ele>1275.0</ele><time>2026-04-19T18:03:05Z</time></trkpt><trkpt lat="37.97751264435388" lon="14.947175952839352"><ele>1275.0</ele><time>2026-04-19T18:03:06Z</time></trkpt><trkpt lat="37.97742044907411" lon="14.947283608030904"><ele>1274.4</ele><time>2026-04-19T18:03:07Z</time></trkpt><trkpt lat="37.97733637143579" lon="14.947383513730147"><ele>1273.8</ele><time>2026-04-19T18:03:08Z</time></trkpt><trkpt lat="37.977259198478" lon="14.947482960616886"><ele>1273.2</ele><time>2026-04-19T18:03:09Z</time></trkpt><trkpt lat="37.97718883100222" lon="14.947587713597718"><ele>1272.6</ele><time>2026-04-19T18:03:10Z</time></trkpt><trkpt lat="37.97712609248993" lon="14.947705670766092"><ele>1272.0</ele><time>2026-04-19T18:03:11Z</time></trkpt><trkpt lat="37.977070074243755" lon="14.947834116729794"><ele>1272.0</ele><time>2026-04-19T18:03:12Z</time></trkpt><trkpt lat="37.977025337759656" lon="14.947978796262506"><ele>1272.0</ele><time>2026-04-19T18:03:13Z</time></trkpt><trkpt lat="37.977004128342536" lon="14.948139093784711"><ele>1272.0</ele><time>2026-04-19T18:03:14Z</time></trkpt><trkpt lat="37.97697195772911" lon="14.948300610383615"><ele>1272.0</ele><time>2026-04-19T18:03:15Z</time></trkpt><trkpt lat="37.976947827200846" lon="14.948479923862966"><ele>1272.6666666666667</ele><time>2026-04-19T18:03:16Z</time></trkpt><trkpt lat="37.97693029902508" lon="14.948668415252108"><ele>1273.3333333333335</ele><time>2026-04-19T18:03:17Z</time></trkpt><trkpt lat="37.97692011497966" lon="14.94886702594111"><ele>1274.0</ele><time>2026-04-19T18:03:18Z</time></trkpt><trkpt lat="37.976893576640755" lon="14.949051634289802"><ele>1275.75</ele><time>2026-04-19T18:03:19Z</time></trkpt><trkpt lat="37.97688375451914" lon="14.949231890089306"><ele>1277.5</ele><time>2026-04-19T18:03:20Z</time></trkpt><trkpt lat="37.97687482322043" lon="14.949400672065504"><ele>1279.25</ele><time>2026-04-19T18:03:21Z</time></trkpt><trkpt lat="37.97686279545045" lon="14.94956111765731"><ele>1281.0</ele><time>2026-04-19T18:03:22Z</time></trkpt><trkpt lat="37.976835851724594" lon="14.949711534371774"><ele>1281.0</ele><time>2026-04-19T18:03:23Z</time></trkpt><trkpt lat="37.97679262832133" lon="14.949845488356903"><ele>1281.0</ele><time>2026-04-19T18:03:24Z</time></trkpt><trkpt lat="37.976729660401006" lon="14.949976151278815"><ele>1281.0</ele><time>2026-04-19T18:03:25Z</time></trkpt><trkpt lat="37.976653983261535" lon="14.950101767465277"><ele>1281.0</ele><time>2026-04-19T18:03:26Z</time></trkpt><trkpt lat="37.976570071170954" lon="14.950237487353066"><ele>1278.75</ele><time>2026-04-19T18:03:27Z</time></trkpt><trkpt lat="37.976485631856924" lon="14.950374060108684"><ele>1276.5</ele><time>2026-04-19T18:03:28Z</time></trkpt><trkpt lat="37.97640013362324" lon="14.95051234557251"><ele>1274.25</ele><time>2026-04-19T18:03:29Z</time></trkpt><trkpt lat="37.97631493822557" lon="14.950650141177567"><ele>1272.0</ele><time>2026-04-19T18:03:30Z</time></trkpt><trkpt lat="37.976231976155105" lon="14.950786914310125"><ele>1273.0</ele><time>2026-04-19T18:03:31Z</time></trkpt><trkpt lat="37.97614816505002" lon="14.950922653874711"><ele>1274.0</ele><time>2026-04-19T18:03:32Z</time></trkpt><trkpt lat="37.97606481015027" lon="14.951052575228891"><ele>1275.0</ele><time>2026-04-19T18:03:33Z</time></trkpt><trkpt lat="37.97597558435695" lon="14.951165315096736"><ele>1276.0</ele><time>2026-04-19T18:03:34Z</time></trkpt><trkpt lat="37.97587997318403" lon="14.951273864918317"><ele>1274.0</ele><time>2026-04-19T18:03:35Z</time></trkpt><trkpt lat="37.97578555583315" lon="14.951378300847653"><ele>1272.0</ele><time>2026-04-19T18:03:36Z</time></trkpt><trkpt lat="37.975698663582776" lon="14.951500114876223"><ele>1270.0</ele><time>2026-04-19T18:03:37Z</time></trkpt><trkpt lat="37.9755948371214" lon="14.951590588659846"><ele>1268.0</ele><time>2026-04-19T18:03:38Z</time></trkpt><trkpt lat="37.97551982532362" lon="14.951714678506733"><ele>1268.0</ele><time>2026-04-19T18:03:39Z</time></trkpt><trkpt lat="37.97544179948767" lon="14.951828616233751"><ele>1268.0</ele><time>2026-04-19T18:03:40Z</time></trkpt><trkpt lat="37.975353888317976" lon="14.951940974584115"><ele>1268.0</ele><time>2026-04-19T18:03:41Z</time></trkpt><trkpt lat="37.9752955225356" lon="14.952089675795836"><ele>1268.0</ele><time>2026-04-19T18:03:42Z</time></trkpt><trkpt lat="37.975213134484534" lon="14.952219423706257"><ele>1268.0</ele><time>2026-04-19T18:03:43Z</time></trkpt><trkpt lat="37.975145252943406" lon="14.95235246374939"><ele>1268.0</ele><time>2026-04-19T18:03:44Z</time></trkpt><trkpt lat="37.97508035530707" lon="14.952477277648368"><ele>1268.0</ele><time>2026-04-19T18:03:45Z</time></trkpt><trkpt lat="37.975009358570254" lon="14.952585732861897"><ele>1268.0</ele><time>2026-04-19T18:03:46Z</time></trkpt><trkpt lat="37.974932594491506" lon="14.952676362786185"><ele>1265.6</ele><time>2026-04-19T18:03:47Z</time></trkpt><trkpt lat="37.97485666344335" lon="14.952753571703562"><ele>1263.1999999999998</ele><time>2026-04-19T18:03:48Z</time></trkpt><trkpt lat="37.974785186497805" lon="14.952821114140724"><ele>1260.8</ele><time>2026-04-19T18:03:49Z</time></trkpt><trkpt lat="37.974726510039915" lon="14.952873295292324"><ele>1258.3999999999999</ele><time>2026-04-19T18:03:50Z</time></trkpt><trkpt lat="37.97463783800727" lon="14.952958072259642"><ele>1256.0</ele><time>2026-04-19T18:03:52Z</time></trkpt><trkpt lat="37.974550875440414" lon="14.952999202116226"><ele>1256.0</ele><time>2026-04-19T18:03:54Z</time></trkpt><trkpt lat="37.974485029304574" lon="14.953053565244813"><ele>1256.0</ele><time>2026-04-19T18:03:56Z</time></trkpt><trkpt lat="37.9744063245279" lon="14.95306796847681"><ele>1256.0</ele><time>2026-04-19T18:05:16Z</time></trkpt><trkpt lat="37.97434241825413" lon="14.953103149547449"><ele>1256.0</ele><time>2026-04-19T18:05:18Z</time></trkpt><trkpt lat="37.974367594402665" lon="14.953272081933777"><ele>1256.0</ele><time>2026-04-19T18:05:21Z</time></trkpt><trkpt lat="37.97443634970511" lon="14.95333427521719"><ele>1256.0</ele><time>2026-04-19T18:05:24Z</time></trkpt><trkpt lat="37.97446148598119" lon="14.953251867150783"><ele>1256.0</ele><time>2026-04-19T18:05:27Z</time></trkpt></trkseg><trkseg><trkpt lat="37.97439418213107" lon="14.953123074385855"><ele>1256.0</ele><time>2026-04-19T19:22:24.999Z</time></trkpt><trkpt lat="37.9742807928105" lon="14.953124046306367"><ele>1256.0</ele><time>2026-04-19T19:22:27Z</time></trkpt><trkpt lat="37.97421643471514" lon="14.953138906592612"><ele>1256.0</ele><time>2026-04-19T19:22:28Z</time></trkpt><trkpt lat="37.97415170910824" lon="14.953151593785874"><ele>1256.0</ele><time>2026-04-19T19:22:29Z</time></trkpt><trkpt lat="37.97403036558197" lon="14.953167252120902"><ele>1256.0</ele><time>2026-04-19T19:22:31Z</time></trkpt><trkpt lat="37.97396906388455" lon="14.95318587376037"><ele>1256.0</ele><time>2026-04-19T19:22:32Z</time></trkpt><trkpt lat="37.97390347614935" lon="14.953180971643286"><ele>1257.2</ele><time>2026-04-19T19:22:33Z</time></trkpt><trkpt lat="37.9737941128937" lon="14.95321247477296"><ele>1258.3999999999999</ele><time>2026-04-19T19:22:35Z</time></trkpt><trkpt lat="37.97369684368509" lon="14.953250199453898"><ele>1259.6</ele><time>2026-04-19T19:22:37Z</time></trkpt><trkpt lat="37.97359603685202" lon="14.953314032703299"><ele>1260.8</ele><time>2026-04-19T19:22:39Z</time></trkpt><trkpt lat="37.97349272350146" lon="14.95336424998545"><ele>1262.0</ele><time>2026-04-19T19:22:41Z</time></trkpt><trkpt lat="37.97340390297022" lon="14.953409212479995"><ele>1260.3333333333335</ele><time>2026-04-19T19:22:43Z</time></trkpt><trkpt lat="37.97328611053446" lon="14.953469405646116"><ele>1258.6666666666667</ele><time>2026-04-19T19:22:45Z</time></trkpt><trkpt lat="37.97321180915155" lon="14.953491249108932"><ele>1257.0</ele><time>2026-04-19T19:22:46Z</time></trkpt><trkpt lat="37.973137072391175" lon="14.953527227283724"><ele>1255.3333333333333</ele><time>2026-04-19T19:22:47Z</time></trkpt><trkpt lat="37.97306336247661" lon="14.953560079086273"><ele>1253.6666666666665</ele><time>2026-04-19T19:22:48Z</time></trkpt><trkpt lat="37.97298278325527" lon="14.953592635925432"><ele>1252.0</ele><time>2026-04-19T19:22:49Z</time></trkpt><trkpt lat="37.97289683698117" lon="14.953620847259568"><ele>1252.0</ele><time>2026-04-19T19:22:50Z</time></trkpt><trkpt lat="37.97281063048364" lon="14.953661773419915"><ele>1252.0</ele><time>2026-04-19T19:22:51Z</time></trkpt><trkpt lat="37.97272397336602" lon="14.953676153957447"><ele>1252.0</ele><time>2026-04-19T19:22:52Z</time></trkpt><trkpt lat="37.97263609685564" lon="14.95366234148101"><ele>1252.0</ele><time>2026-04-19T19:22:53Z</time></trkpt><trkpt lat="37.97254655151853" lon="14.953668160624419"><ele>1252.0</ele><time>2026-04-19T19:22:54Z</time></trkpt><trkpt lat="37.97245091622298" lon="14.95367437552635"><ele>1251.6</ele><time>2026-04-19T19:22:55Z</time></trkpt><trkpt lat="37.972355690657146" lon="14.953678546771888"><ele>1251.2</ele><time>2026-04-19T19:22:56Z</time></trkpt><trkpt lat="37.97225856035085" lon="14.953682455435793"><ele>1250.8</ele><time>2026-04-19T19:22:57Z</time></trkpt><trkpt lat="37.972162726901246" lon="14.953685825968847"><ele>1250.4</ele><time>2026-04-19T19:22:58Z</time></trkpt><trkpt lat="37.97207346627018" lon="14.953688846346388"><ele>1250.0</ele><time>2026-04-19T19:22:59Z</time></trkpt><trkpt lat="37.971981335169424" lon="14.953691963854642"><ele>1250.0</ele><time>2026-04-19T19:23:00Z</time></trkpt><trkpt lat="37.97188118853093" lon="14.953695352590971"><ele>1250.0</ele><time>2026-04-19T19:23:01Z</time></trkpt><trkpt lat="37.97178796196391" lon="14.953698507168014"><ele>1250.0</ele><time>2026-04-19T19:23:02Z</time></trkpt><trkpt lat="37.971699742593096" lon="14.953701247750237"><ele>1250.0</ele><time>2026-04-19T19:23:03Z</time></trkpt><trkpt lat="37.97160862854494" lon="14.953703977911754"><ele>1250.0</ele><time>2026-04-19T19:23:04Z</time></trkpt><trkpt lat="37.971514246468864" lon="14.953706805998083"><ele>1252.4</ele><time>2026-04-19T19:23:05Z</time></trkpt><trkpt lat="37.97141853746655" lon="14.953709673843536"><ele>1254.8</ele><time>2026-04-19T19:23:06Z</time></trkpt><trkpt lat="37.9713212580698" lon="14.953712588745681"><ele>1257.2</ele><time>2026-04-19T19:23:07Z</time></trkpt><trkpt lat="37.9712259655173" lon="14.953714502588841"><ele>1259.6</ele><time>2026-04-19T19:23:08Z</time></trkpt><trkpt lat="37.97112554448102" lon="14.953719607671129"><ele>1262.0</ele><time>2026-04-19T19:23:09Z</time></trkpt><trkpt lat="37.971030068202346" lon="14.953733878737555"><ele>1262.0</ele><time>2026-04-19T19:23:10Z</time></trkpt><trkpt lat="37.97093935661699" lon="14.953780390026596"><ele>1262.0</ele><time>2026-04-19T19:23:11Z</time></trkpt><trkpt lat="37.970841263405866" lon="14.953802028069246"><ele>1262.0</ele><time>2026-04-19T19:23:12Z</time></trkpt><trkpt lat="37.97074921124155" lon="14.953856511101831"><ele>1262.0</ele><time>2026-04-19T19:23:13Z</time></trkpt><trkpt lat="37.97066144653832" lon="14.95391584111649"><ele>1262.0</ele><time>2026-04-19T19:23:14Z</time></trkpt><trkpt lat="37.97057581129108" lon="14.953979580350595"><ele>1263.0</ele><time>2026-04-19T19:23:15Z</time></trkpt><trkpt lat="37.97048994664995" lon="14.954045586805162"><ele>1264.0</ele><time>2026-04-19T19:23:16Z</time></trkpt><trkpt lat="37.970402338449496" lon="14.954112933588243"><ele>1265.0</ele><time>2026-04-19T19:23:17Z</time></trkpt><trkpt lat="37.97031494265443" lon="14.954179042504189"><ele>1266.0</ele><time>2026-04-19T19:23:18Z</time></trkpt><trkpt lat="37.97022726434825" lon="14.954243369026184"><ele>1267.0</ele><time>2026-04-19T19:23:19Z</time></trkpt><trkpt lat="37.9701373577315" lon="14.954324745709975"><ele>1268.4</ele><time>2026-04-19T19:23:20Z</time></trkpt><trkpt lat="37.97003242464791" lon="14.954361989576698"><ele>1269.8000000000002</ele><time>2026-04-19T19:23:21Z</time></trkpt><trkpt lat="37.96992845309997" lon="14.954400535111674"><ele>1271.2</ele><time>2026-04-19T19:23:22Z</time></trkpt><trkpt lat="37.9698196688388" lon="14.954417345087897"><ele>1272.6000000000001</ele><time>2026-04-19T19:23:23Z</time></trkpt><trkpt lat="37.969707015616954" lon="14.954427233551133"><ele>1274.0</ele><time>2026-04-19T19:23:24Z</time></trkpt><trkpt lat="37.969593654425324" lon="14.954433836196879"><ele>1274.0</ele><time>2026-04-19T19:23:25Z</time></trkpt><trkpt lat="37.96947156182183" lon="14.954438681860719"><ele>1274.0</ele><time>2026-04-19T19:23:26Z</time></trkpt><trkpt lat="37.969344050807486" lon="14.954443402097413"><ele>1274.0</ele><time>2026-04-19T19:23:27Z</time></trkpt><trkpt lat="37.969214960620405" lon="14.954447168742355"><ele>1274.0</ele><time>2026-04-19T19:23:28Z</time></trkpt><trkpt lat="37.969092644864894" lon="14.954450737720135"><ele>1273.75</ele><time>2026-04-19T19:23:29Z</time></trkpt><trkpt lat="37.968978357959585" lon="14.954454072429735"><ele>1273.5</ele><time>2026-04-19T19:23:30Z</time></trkpt><trkpt lat="37.96886424408084" lon="14.95445740208965"><ele>1273.25</ele><time>2026-04-19T19:23:31Z</time></trkpt><trkpt lat="37.96874557649566" lon="14.954460864620334"><ele>1273.0</ele><time>2026-04-19T19:23:32Z</time></trkpt><trkpt lat="37.968625166728856" lon="14.95446437798489"><ele>1273.0</ele><time>2026-04-19T19:23:33Z</time></trkpt><trkpt lat="37.9685044989296" lon="14.9544694210178"><ele>1273.0</ele><time>2026-04-19T19:23:34Z</time></trkpt><trkpt lat="37.968385540365304" lon="14.954476760163864"><ele>1273.0</ele><time>2026-04-19T19:23:35Z</time></trkpt><trkpt lat="37.96825569879253" lon="14.954486819382833"><ele>1273.0</ele><time>2026-04-19T19:23:36Z</time></trkpt><trkpt lat="37.968129008198325" lon="14.954500708208382"><ele>1272.25</ele><time>2026-04-19T19:23:37Z</time></trkpt><trkpt lat="37.96800278771801" lon="14.954514541180387"><ele>1271.5</ele><time>2026-04-19T19:23:38Z</time></trkpt><trkpt lat="37.96787792874591" lon="14.954529748668982"><ele>1270.75</ele><time>2026-04-19T19:23:39Z</time></trkpt><trkpt lat="37.96774237601795" lon="14.954547042551978"><ele>1270.0</ele><time>2026-04-19T19:23:40Z</time></trkpt><trkpt lat="37.96761337911062" lon="14.954571411266611"><ele>1268.0</ele><time>2026-04-19T19:23:41Z</time></trkpt><trkpt lat="37.96747859895924" lon="14.954577559637624"><ele>1266.0</ele><time>2026-04-19T19:23:42Z</time></trkpt><trkpt lat="37.96733989331667" lon="14.954576278836743"><ele>1264.0</ele><time>2026-04-19T19:23:43Z</time></trkpt><trkpt lat="37.96720390338444" lon="14.95454074272886"><ele>1262.0</ele><time>2026-04-19T19:23:44Z</time></trkpt><trkpt lat="37.967069596451985" lon="14.954542994628623"><ele>1262.0</ele><time>2026-04-19T19:23:45Z</time></trkpt><trkpt lat="37.96694053304398" lon="14.954522846724235"><ele>1262.0</ele><time>2026-04-19T19:23:46Z</time></trkpt><trkpt lat="37.96681601508572" lon="14.954515686171943"><ele>1262.0</ele><time>2026-04-19T19:23:47Z</time></trkpt><trkpt lat="37.96668918319385" lon="14.95453335721405"><ele>1262.0</ele><time>2026-04-19T19:23:48Z</time></trkpt><trkpt lat="37.96657291983491" lon="14.954575602098261"><ele>1258.75</ele><time>2026-04-19T19:23:49Z</time></trkpt><trkpt lat="37.966465648245965" lon="14.954674610136168"><ele>1255.5</ele><time>2026-04-19T19:23:50Z</time></trkpt><trkpt lat="37.96635575634699" lon="14.95475490275542"><ele>1252.25</ele><time>2026-04-19T19:23:51Z</time></trkpt><trkpt lat="37.96625050929729" lon="14.954841580231317"><ele>1249.0</ele><time>2026-04-19T19:23:52Z</time></trkpt><trkpt lat="37.96615174436897" lon="14.954920761344747"><ele>1249.0</ele><time>2026-04-19T19:23:53Z</time></trkpt><trkpt lat="37.96603390274924" lon="14.955025712234171"><ele>1249.0</ele><time>2026-04-19T19:23:54Z</time></trkpt><trkpt lat="37.96590583950342" lon="14.955104276683246"><ele>1249.0</ele><time>2026-04-19T19:23:55Z</time></trkpt><trkpt lat="37.96577773110815" lon="14.955181575438848"><ele>1249.0</ele><time>2026-04-19T19:23:56Z</time></trkpt><trkpt lat="37.965644689345154" lon="14.955259286253979"><ele>1244.75</ele><time>2026-04-19T19:23:57Z</time></trkpt><trkpt lat="37.96551705718554" lon="14.955343037121116"><ele>1240.5</ele><time>2026-04-19T19:23:58Z</time></trkpt><trkpt lat="37.96539188789487" lon="14.955424086322298"><ele>1236.25</ele><time>2026-04-19T19:23:59Z</time></trkpt><trkpt lat="37.96526423496508" lon="14.955492905051692"><ele>1232.0</ele><time>2026-04-19T19:24:00Z</time></trkpt><trkpt lat="37.96512864846886" lon="14.955546054984286"><ele>1232.0</ele><time>2026-04-19T19:24:01Z</time></trkpt><trkpt lat="37.96498586813971" lon="14.955562935919648"><ele>1232.0</ele><time>2026-04-19T19:24:02Z</time></trkpt><trkpt lat="37.964840981739094" lon="14.955608649462581"><ele>1232.0</ele><time>2026-04-19T19:24:03Z</time></trkpt><trkpt lat="37.96469679831674" lon="14.955630390005648"><ele>1232.0</ele><time>2026-04-19T19:24:04Z</time></trkpt><trkpt lat="37.96455642459743" lon="14.955660676712695"><ele>1232.0</ele><time>2026-04-19T19:24:05Z</time></trkpt><trkpt lat="37.96441912091621" lon="14.955697757907565"><ele>1232.0</ele><time>2026-04-19T19:24:06Z</time></trkpt><trkpt lat="37.964285011401664" lon="14.955738717749172"><ele>1232.0</ele><time>2026-04-19T19:24:07Z</time></trkpt><trkpt lat="37.964152341084755" lon="14.955781896054052"><ele>1232.0</ele><time>2026-04-19T19:24:08Z</time></trkpt><trkpt lat="37.96401657710388" lon="14.955814312282127"><ele>1231.0</ele><time>2026-04-19T19:24:09Z</time></trkpt><trkpt lat="37.9638828882033" lon="14.955848730675719"><ele>1230.0</ele><time>2026-04-19T19:24:10Z</time></trkpt><trkpt lat="37.963747938902046" lon="14.955873458884357"><ele>1229.0</ele><time>2026-04-19T19:24:11Z</time></trkpt><trkpt lat="37.9636150861944" lon="14.955884383256574"><ele>1228.0</ele><time>2026-04-19T19:24:12Z</time></trkpt><trkpt lat="37.96348072700715" lon="14.955889016755139"><ele>1225.5</ele><time>2026-04-19T19:24:13Z</time></trkpt><trkpt lat="37.96335095621007" lon="14.95589604241236"><ele>1223.0</ele><time>2026-04-19T19:24:14Z</time></trkpt><trkpt lat="37.96322197967189" lon="14.955899290182941"><ele>1220.5</ele><time>2026-04-19T19:24:15Z</time></trkpt><trkpt lat="37.96308958259479" lon="14.955895455236268"><ele>1218.0</ele><time>2026-04-19T19:24:16Z</time></trkpt><trkpt lat="37.962959348200485" lon="14.95587941734086"><ele>1219.75</ele><time>2026-04-19T19:24:17Z</time></trkpt><trkpt lat="37.96284068525821" lon="14.9558169922376"><ele>1221.5</ele><time>2026-04-19T19:24:18Z</time></trkpt><trkpt lat="37.96272956050424" lon="14.955742609350503"><ele>1223.25</ele><time>2026-04-19T19:24:19Z</time></trkpt><trkpt lat="37.962627281927666" lon="14.955643264932762"><ele>1225.0</ele><time>2026-04-19T19:24:20Z</time></trkpt><trkpt lat="37.96252746307899" lon="14.955537989675262"><ele>1225.25</ele><time>2026-04-19T19:24:21.001Z</time></trkpt><trkpt lat="37.962422100876864" lon="14.95543765091055"><ele>1225.5</ele><time>2026-04-19T19:24:22.001Z</time></trkpt><trkpt lat="37.96231250613079" lon="14.95534303444128"><ele>1225.75</ele><time>2026-04-19T19:24:23.001Z</time></trkpt><trkpt lat="37.96220446374542" lon="14.955241094545048"><ele>1226.0</ele><time>2026-04-19T19:24:24Z</time></trkpt><trkpt lat="37.962104135814776" lon="14.95513883330179"><ele>1226.25</ele><time>2026-04-19T19:24:25Z</time></trkpt><trkpt lat="37.96200067075074" lon="14.955037074471866"><ele>1226.5</ele><time>2026-04-19T19:24:26Z</time></trkpt><trkpt lat="37.96188565891824" lon="14.954942002830686"><ele>1226.75</ele><time>2026-04-19T19:24:27Z</time></trkpt><trkpt lat="37.961766267973886" lon="14.954860046426635"><ele>1227.0</ele><time>2026-04-19T19:24:28Z</time></trkpt><trkpt lat="37.961641219867225" lon="14.954792657769534"><ele>1226.0</ele><time>2026-04-19T19:24:29Z</time></trkpt><trkpt lat="37.96150949580707" lon="14.954736993007826"><ele>1225.0</ele><time>2026-04-19T19:24:30Z</time></trkpt><trkpt lat="37.961378570566836" lon="14.954694829207558"><ele>1224.0</ele><time>2026-04-19T19:24:31Z</time></trkpt><trkpt lat="37.961255044682" lon="14.954647876718624"><ele>1223.0</ele><time>2026-04-19T19:24:32Z</time></trkpt><trkpt lat="37.96112447423642" lon="14.95461155345982"><ele>1223.0</ele><time>2026-04-19T19:24:33Z</time></trkpt><trkpt lat="37.960999362150105" lon="14.954565154615802"><ele>1223.0</ele><time>2026-04-19T19:24:34Z</time></trkpt><trkpt lat="37.960876240108554" lon="14.954525220537448"><ele>1223.0</ele><time>2026-04-19T19:24:35Z</time></trkpt><trkpt lat="37.960752532516224" lon="14.95448838969052"><ele>1223.0</ele><time>2026-04-19T19:24:36Z</time></trkpt><trkpt lat="37.9606290388043" lon="14.954448487816821"><ele>1221.75</ele><time>2026-04-19T19:24:37Z</time></trkpt><trkpt lat="37.960505851935295" lon="14.954404054470379"><ele>1220.5</ele><time>2026-04-19T19:24:38Z</time></trkpt><trkpt lat="37.96038807060116" lon="14.954359329029899"><ele>1219.25</ele><time>2026-04-19T19:24:39Z</time></trkpt><trkpt lat="37.960263628995634" lon="14.954317183352957"><ele>1218.0</ele><time>2026-04-19T19:24:40Z</time></trkpt><trkpt lat="37.96013567617183" lon="14.954280860244795"><ele>1216.25</ele><time>2026-04-19T19:24:41Z</time></trkpt><trkpt lat="37.96000981760008" lon="14.954249117206382"><ele>1214.5</ele><time>2026-04-19T19:24:42Z</time></trkpt><trkpt lat="37.95988279384072" lon="14.9542230084446"><ele>1212.75</ele><time>2026-04-19T19:24:43Z</time></trkpt><trkpt lat="37.95974811992019" lon="14.95421011403425"><ele>1211.0</ele><time>2026-04-19T19:24:44Z</time></trkpt><trkpt lat="37.95961374738505" lon="14.954212149007237"><ele>1211.0</ele><time>2026-04-19T19:24:45Z</time></trkpt><trkpt lat="37.95947912061967" lon="14.95421870441271"><ele>1211.0</ele><time>2026-04-19T19:24:46Z</time></trkpt><trkpt lat="37.959335558726806" lon="14.954215688454303"><ele>1211.0</ele><time>2026-04-19T19:24:47Z</time></trkpt><trkpt lat="37.95918233622459" lon="14.954201260545922"><ele>1211.0</ele><time>2026-04-19T19:24:48Z</time></trkpt><trkpt lat="37.95903338108377" lon="14.95419343020564"><ele>1210.3333333333335</ele><time>2026-04-19T19:24:49Z</time></trkpt><trkpt lat="37.95888306663714" lon="14.954188527178676"><ele>1209.6666666666667</ele><time>2026-04-19T19:24:50Z</time></trkpt><trkpt lat="37.9587344224211" lon="14.954184319379578"><ele>1209.0</ele><time>2026-04-19T19:24:51Z</time></trkpt><trkpt lat="37.958576411393466" lon="14.954181258861597"><ele>1209.0</ele><time>2026-04-19T19:24:52Z</time></trkpt><trkpt lat="37.95841963225915" lon="14.954194973919028"><ele>1209.0</ele><time>2026-04-19T19:24:53Z</time></trkpt><trkpt lat="37.95826593077362" lon="14.954214540725443"><ele>1209.0</ele><time>2026-04-19T19:24:54Z</time></trkpt><trkpt lat="37.95811029193624" lon="14.954238026347639"><ele>1216.3333333333333</ele><time>2026-04-19T19:24:55Z</time></trkpt><trkpt lat="37.95795655902392" lon="14.954260549621177"><ele>1223.6666666666665</ele><time>2026-04-19T19:24:56Z</time></trkpt><trkpt lat="37.957809527449186" lon="14.95427008541447"><ele>1231.0</ele><time>2026-04-19T19:24:57Z</time></trkpt><trkpt lat="37.95766098332695" lon="14.954275206243784"><ele>1231.25</ele><time>2026-04-19T19:24:58Z</time></trkpt><trkpt lat="37.95751125089485" lon="14.954276431549037"><ele>1231.5</ele><time>2026-04-19T19:24:59Z</time></trkpt><trkpt lat="37.95736203137305" lon="14.954281821645868"><ele>1231.75</ele><time>2026-04-19T19:25:00Z</time></trkpt><trkpt lat="37.95722585596055" lon="14.954288037724195"><ele>1232.0</ele><time>2026-04-19T19:25:01Z</time></trkpt><trkpt lat="37.957083778312644" lon="14.954293279305567"><ele>1232.0</ele><time>2026-04-19T19:25:02Z</time></trkpt><trkpt lat="37.95695062714476" lon="14.954309503250556"><ele>1232.0</ele><time>2026-04-19T19:25:03Z</time></trkpt><trkpt lat="37.95682334196894" lon="14.954352105147624"><ele>1232.0</ele><time>2026-04-19T19:25:04Z</time></trkpt><trkpt lat="37.95670228250645" lon="14.954414948122537"><ele>1232.0</ele><time>2026-04-19T19:25:05Z</time></trkpt><trkpt lat="37.95659377533704" lon="14.954518835546379"><ele>1229.5</ele><time>2026-04-19T19:25:06Z</time></trkpt><trkpt lat="37.95649244257379" lon="14.954638947743785"><ele>1227.0</ele><time>2026-04-19T19:25:07Z</time></trkpt><trkpt lat="37.95639663486829" lon="14.954740407284039"><ele>1224.5</ele><time>2026-04-19T19:25:08Z</time></trkpt><trkpt lat="37.95626424094181" lon="14.954823583417072"><ele>1222.0</ele><time>2026-04-19T19:25:09Z</time></trkpt><trkpt lat="37.95611950774062" lon="14.95489496207454"><ele>1222.0</ele><time>2026-04-19T19:25:10Z</time></trkpt><trkpt lat="37.95598991622119" lon="14.954964344574913"><ele>1222.0</ele><time>2026-04-19T19:25:11Z</time></trkpt><trkpt lat="37.955873152472606" lon="14.955062586833508"><ele>1222.0</ele><time>2026-04-19T19:25:12Z</time></trkpt><trkpt lat="37.95577110766487" lon="14.955187488340245"><ele>1222.0</ele><time>2026-04-19T19:25:13Z</time></trkpt><trkpt lat="37.9556636072613" lon="14.95530296757796"><ele>1223.0</ele><time>2026-04-19T19:25:14Z</time></trkpt><trkpt lat="37.955544845358894" lon="14.955389433303434"><ele>1224.0</ele><time>2026-04-19T19:25:15Z</time></trkpt><trkpt lat="37.95541149807536" lon="14.955452353998826"><ele>1225.0</ele><time>2026-04-19T19:25:16Z</time></trkpt><trkpt lat="37.95527630377329" lon="14.9554959481641"><ele>1226.0</ele><time>2026-04-19T19:25:17Z</time></trkpt><trkpt lat="37.955140257205656" lon="14.955540584140243"><ele>1221.25</ele><time>2026-04-19T19:25:18Z</time></trkpt><trkpt lat="37.95500653688915" lon="14.955587276894114"><ele>1216.5</ele><time>2026-04-19T19:25:19Z</time></trkpt><trkpt lat="37.95487200242116" lon="14.955643641643574"><ele>1211.75</ele><time>2026-04-19T19:25:20Z</time></trkpt><trkpt lat="37.954739003854286" lon="14.955719383988402"><ele>1207.0</ele><time>2026-04-19T19:25:21Z</time></trkpt><trkpt lat="37.9546106754124" lon="14.955812636867831"><ele>1206.5</ele><time>2026-04-19T19:25:22Z</time></trkpt><trkpt lat="37.95448639251238" lon="14.955916469627685"><ele>1206.0</ele><time>2026-04-19T19:25:23Z</time></trkpt><trkpt lat="37.95436502277414" lon="14.95602855363014"><ele>1205.5</ele><time>2026-04-19T19:25:24Z</time></trkpt><trkpt lat="37.95424537520822" lon="14.956131676335763"><ele>1205.0</ele><time>2026-04-19T19:25:25Z</time></trkpt><trkpt lat="37.95412332658966" lon="14.956226118139536"><ele>1205.0</ele><time>2026-04-19T19:25:26Z</time></trkpt><trkpt lat="37.954006080590574" lon="14.956321166099343"><ele>1205.0</ele><time>2026-04-19T19:25:27Z</time></trkpt><trkpt lat="37.95390020313861" lon="14.956428612360439"><ele>1205.0</ele><time>2026-04-19T19:25:28Z</time></trkpt><trkpt lat="37.95381378493932" lon="14.956558904618428"><ele>1205.0</ele><time>2026-04-19T19:25:29Z</time></trkpt><trkpt lat="37.953747292796365" lon="14.956709787358605"><ele>1210.5</ele><time>2026-04-19T19:25:30Z</time></trkpt><trkpt lat="37.95369065435232" lon="14.9568682535767"><ele>1216.0</ele><time>2026-04-19T19:25:31Z</time></trkpt><trkpt lat="37.95363412322142" lon="14.957025192577975"><ele>1221.5</ele><time>2026-04-19T19:25:32Z</time></trkpt><trkpt lat="37.953559852683824" lon="14.957160148564293"><ele>1227.0</ele><time>2026-04-19T19:25:33Z</time></trkpt><trkpt lat="37.953465631344045" lon="14.957271050603143"><ele>1220.25</ele><time>2026-04-19T19:25:34Z</time></trkpt><trkpt lat="37.95334752955913" lon="14.957348437020505"><ele>1213.5</ele><time>2026-04-19T19:25:35Z</time></trkpt><trkpt lat="37.953221653508166" lon="14.957395753690708"><ele>1206.75</ele><time>2026-04-19T19:25:36Z</time></trkpt><trkpt lat="37.95308204514743" lon="14.957431177530855"><ele>1200.0</ele><time>2026-04-19T19:25:37Z</time></trkpt><trkpt lat="37.95293366740878" lon="14.957465147124768"><ele>1200.0</ele><time>2026-04-19T19:25:38Z</time></trkpt><trkpt lat="37.95279078921265" lon="14.957492219105236"><ele>1200.0</ele><time>2026-04-19T19:25:39Z</time></trkpt><trkpt lat="37.95264231690153" lon="14.957517214012768"><ele>1200.0</ele><time>2026-04-19T19:25:40Z</time></trkpt><trkpt lat="37.95249440601468" lon="14.957545588159745"><ele>1200.0</ele><time>2026-04-19T19:25:41Z</time></trkpt><trkpt lat="37.95234324570211" lon="14.957564323645459"><ele>1196.25</ele><time>2026-04-19T19:25:42Z</time></trkpt><trkpt lat="37.95219338237676" lon="14.95756948621279"><ele>1192.5</ele><time>2026-04-19T19:25:43Z</time></trkpt><trkpt lat="37.95204461120697" lon="14.957559328069689"><ele>1188.75</ele><time>2026-04-19T19:25:44Z</time></trkpt><trkpt lat="37.95190161098818" lon="14.95753361687465"><ele>1185.0</ele><time>2026-04-19T19:25:45Z</time></trkpt><trkpt lat="37.9517570116169" lon="14.957510142634764"><ele>1183.25</ele><time>2026-04-19T19:25:46Z</time></trkpt><trkpt lat="37.95161242388485" lon="14.957508822759253"><ele>1181.5</ele><time>2026-04-19T19:25:47Z</time></trkpt><trkpt lat="37.9514674392628" lon="14.957536014580612"><ele>1179.75</ele><time>2026-04-19T19:25:48Z</time></trkpt><trkpt lat="37.951325960255055" lon="14.957587332812865"><ele>1178.0</ele><time>2026-04-19T19:25:49Z</time></trkpt><trkpt lat="37.951183487824686" lon="14.95765151227792"><ele>1177.0</ele><time>2026-04-19T19:25:50Z</time></trkpt><trkpt lat="37.95104597515695" lon="14.957732209684304"><ele>1176.0</ele><time>2026-04-19T19:25:51Z</time></trkpt><trkpt lat="37.95090923269139" lon="14.957821652796095"><ele>1175.0</ele><time>2026-04-19T19:25:52Z</time></trkpt><trkpt lat="37.95077440296689" lon="14.957914338736128"><ele>1175.0</ele><time>2026-04-19T19:25:53Z</time></trkpt><trkpt lat="37.950636543145315" lon="14.958008861346464"><ele>1175.0</ele><time>2026-04-19T19:25:54Z</time></trkpt><trkpt lat="37.950500465177605" lon="14.958103461506983"><ele>1175.0</ele><time>2026-04-19T19:25:55Z</time></trkpt><trkpt lat="37.95036626624022" lon="14.958202237454046"><ele>1175.0</ele><time>2026-04-19T19:25:56Z</time></trkpt><trkpt lat="37.95023609415964" lon="14.958306988390472"><ele>1175.0</ele><time>2026-04-19T19:25:57Z</time></trkpt><trkpt lat="37.95011191882298" lon="14.958421161255336"><ele>1175.0</ele><time>2026-04-19T19:25:58Z</time></trkpt><trkpt lat="37.94999513899829" lon="14.958538699194754"><ele>1173.5</ele><time>2026-04-19T19:25:59Z</time></trkpt><trkpt lat="37.94987921586689" lon="14.958652838568115"><ele>1172.0</ele><time>2026-04-19T19:26:00Z</time></trkpt><trkpt lat="37.94975892863318" lon="14.958754943248643"><ele>1170.5</ele><time>2026-04-19T19:26:01Z</time></trkpt><trkpt lat="37.949634545275345" lon="14.958844438192662"><ele>1169.0</ele><time>2026-04-19T19:26:02Z</time></trkpt><trkpt lat="37.94950901167663" lon="14.958929512989178"><ele>1169.0</ele><time>2026-04-19T19:26:03Z</time></trkpt><trkpt lat="37.949383255010574" lon="14.95901403701953"><ele>1169.0</ele><time>2026-04-19T19:26:04.001Z</time></trkpt><trkpt lat="37.949260987600056" lon="14.959102939054015"><ele>1169.0</ele><time>2026-04-19T19:26:05.001Z</time></trkpt><trkpt lat="37.949142203977836" lon="14.959197495386707"><ele>1169.0</ele><time>2026-04-19T19:26:06.001Z</time></trkpt><trkpt lat="37.94902949352326" lon="14.959298738044549"><ele>1168.0</ele><time>2026-04-19T19:26:07.001Z</time></trkpt><trkpt lat="37.94892685563004" lon="14.959414133886565"><ele>1167.0</ele><time>2026-04-19T19:26:08.001Z</time></trkpt><trkpt lat="37.948835116794015" lon="14.959544061524747"><ele>1166.0</ele><time>2026-04-19T19:26:09.001Z</time></trkpt><trkpt lat="37.94875252640682" lon="14.959691947759845"><ele>1165.0</ele><time>2026-04-19T19:26:10.001Z</time></trkpt><trkpt lat="37.94865920192222" lon="14.959836220897964"><ele>1165.0</ele><time>2026-04-19T19:26:11.001Z</time></trkpt><trkpt lat="37.94857658948502" lon="14.95999413125707"><ele>1165.0</ele><time>2026-04-19T19:26:12.001Z</time></trkpt><trkpt lat="37.94849496686733" lon="14.960150043965335"><ele>1165.0</ele><time>2026-04-19T19:26:13.001Z</time></trkpt><trkpt lat="37.94841534536578" lon="14.960301502943691"><ele>1165.0</ele><time>2026-04-19T19:26:14.001Z</time></trkpt><trkpt lat="37.948332914958165" lon="14.960442722157682"><ele>1164.5</ele><time>2026-04-19T19:26:15.001Z</time></trkpt><trkpt lat="37.94825044231625" lon="14.960577661517428"><ele>1164.0</ele><time>2026-04-19T19:26:16.001Z</time></trkpt><trkpt lat="37.948137381842656" lon="14.960661460521486"><ele>1163.5</ele><time>2026-04-19T19:26:17.001Z</time></trkpt><trkpt lat="37.9480154905632" lon="14.960705577232572"><ele>1163.0</ele><time>2026-04-19T19:26:18.001Z</time></trkpt><trkpt lat="37.94788916601464" lon="14.960710771909115"><ele>1163.0</ele><time>2026-04-19T19:26:19.001Z</time></trkpt><trkpt lat="37.94776373116345" lon="14.960699042592836"><ele>1163.0</ele><time>2026-04-19T19:26:20.001Z</time></trkpt><trkpt lat="37.947632073995855" lon="14.960688637146934"><ele>1163.0</ele><time>2026-04-19T19:26:21.001Z</time></trkpt><trkpt lat="37.94749590657521" lon="14.96068882074356"><ele>1163.0</ele><time>2026-04-19T19:26:22.001Z</time></trkpt><trkpt lat="37.947350524929334" lon="14.960696412194553"><ele>1164.6666666666667</ele><time>2026-04-19T19:26:23.001Z</time></trkpt><trkpt lat="37.94719500089548" lon="14.960716330219174"><ele>1166.3333333333333</ele><time>2026-04-19T19:26:24.001Z</time></trkpt><trkpt lat="37.94703924988355" lon="14.9607531324179"><ele>1168.0</ele><time>2026-04-19T19:26:25.001Z</time></trkpt><trkpt lat="37.94688045082683" lon="14.960781803292548"><ele>1168.0</ele><time>2026-04-19T19:26:26.001Z</time></trkpt><trkpt lat="37.94673162643339" lon="14.9608273550015"><ele>1168.0</ele><time>2026-04-19T19:26:27.001Z</time></trkpt><trkpt lat="37.94658934959841" lon="14.960871320006575"><ele>1168.0</ele><time>2026-04-19T19:26:28.001Z</time></trkpt><trkpt lat="37.94645578702845" lon="14.960911213207515"><ele>1168.0</ele><time>2026-04-19T19:26:29.001Z</time></trkpt><trkpt lat="37.94633186052454" lon="14.960958884350317"><ele>1168.5</ele><time>2026-04-19T19:26:30Z</time></trkpt><trkpt lat="37.946212231363134" lon="14.96095302119924"><ele>1169.0</ele><time>2026-04-19T19:26:31Z</time></trkpt><trkpt lat="37.94610229423269" lon="14.9608984285909"><ele>1169.5</ele><time>2026-04-19T19:26:32Z</time></trkpt><trkpt lat="37.945997697911544" lon="14.960807490409165"><ele>1170.0</ele><time>2026-04-19T19:26:33Z</time></trkpt><trkpt lat="37.94589405074263" lon="14.96070771879162"><ele>1167.5</ele><time>2026-04-19T19:26:34Z</time></trkpt><trkpt lat="37.945784976591" lon="14.960601123176113"><ele>1165.0</ele><time>2026-04-19T19:26:35Z</time></trkpt><trkpt lat="37.94567138299754" lon="14.960493499392104"><ele>1162.5</ele><time>2026-04-19T19:26:36Z</time></trkpt><trkpt lat="37.945563594911825" lon="14.960381668352868"><ele>1160.0</ele><time>2026-04-19T19:26:37Z</time></trkpt><trkpt lat="37.945470503899614" lon="14.960252292868661"><ele>1160.0</ele><time>2026-04-19T19:26:38Z</time></trkpt><trkpt lat="37.9454023525394" lon="14.960106288016373"><ele>1160.0</ele><time>2026-04-19T19:26:39Z</time></trkpt><trkpt lat="37.945344335291985" lon="14.959962116435515"><ele>1160.0</ele><time>2026-04-19T19:26:40Z</time></trkpt><trkpt lat="37.94527065836069" lon="14.959840502256798"><ele>1160.0</ele><time>2026-04-19T19:26:41Z</time></trkpt><trkpt lat="37.945187076869544" lon="14.959740389610202"><ele>1160.25</ele><time>2026-04-19T19:26:42Z</time></trkpt><trkpt lat="37.94507031851246" lon="14.9596867294895"><ele>1160.5</ele><time>2026-04-19T19:26:43Z</time></trkpt><trkpt lat="37.94494474208266" lon="14.959694709422088"><ele>1160.75</ele><time>2026-04-19T19:26:44Z</time></trkpt><trkpt lat="37.944827118586396" lon="14.959691882756589"><ele>1161.0</ele><time>2026-04-19T19:26:45Z</time></trkpt><trkpt lat="37.94471486867045" lon="14.959688724860191"><ele>1161.0</ele><time>2026-04-19T19:26:46Z</time></trkpt><trkpt lat="37.944606868235944" lon="14.959660496148645"><ele>1161.0</ele><time>2026-04-19T19:26:47Z</time></trkpt><trkpt lat="37.94451506425812" lon="14.959589722595881"><ele>1161.0</ele><time>2026-04-19T19:26:48Z</time></trkpt><trkpt lat="37.944464026762525" lon="14.959479654008838"><ele>1161.0</ele><time>2026-04-19T19:26:49Z</time></trkpt><trkpt lat="37.94441969482064" lon="14.95935976026383"><ele>1161.0</ele><time>2026-04-19T19:26:50Z</time></trkpt><trkpt lat="37.944375424777384" lon="14.959236042046546"><ele>1161.3999999999999</ele><time>2026-04-19T19:26:51Z</time></trkpt><trkpt lat="37.94432705815312" lon="14.959108345323573"><ele>1161.8</ele><time>2026-04-19T19:26:52Z</time></trkpt><trkpt lat="37.94428153662615" lon="14.958984981688213"><ele>1162.1999999999998</ele><time>2026-04-19T19:26:53Z</time></trkpt><trkpt lat="37.944240634397914" lon="14.95886587457704"><ele>1162.6</ele><time>2026-04-19T19:26:54Z</time></trkpt><trkpt lat="37.94419575472922" lon="14.958754593028026"><ele>1163.0</ele><time>2026-04-19T19:26:55Z</time></trkpt><trkpt lat="37.94414027243843" lon="14.958660740723106"><ele>1163.0</ele><time>2026-04-19T19:26:56Z</time></trkpt><trkpt lat="37.94407139408587" lon="14.958600275854266"><ele>1163.0</ele><time>2026-04-19T19:26:57Z</time></trkpt><trkpt lat="37.94399927964326" lon="14.958547550024992"><ele>1163.0</ele><time>2026-04-19T19:26:58Z</time></trkpt><trkpt lat="37.94390361750352" lon="14.95855644186441"><ele>1163.0</ele><time>2026-04-19T19:26:59Z</time></trkpt><trkpt lat="37.943806637890766" lon="14.958603538178796"><ele>1163.0</ele><time>2026-04-19T19:27:00Z</time></trkpt><trkpt lat="37.94371228604058" lon="14.958661364234569"><ele>1163.0</ele><time>2026-04-19T19:27:01Z</time></trkpt><trkpt lat="37.943616844735836" lon="14.958727137695668"><ele>1163.0</ele><time>2026-04-19T19:27:02Z</time></trkpt><trkpt lat="37.943518351468505" lon="14.95879516577915"><ele>1163.0</ele><time>2026-04-19T19:27:03Z</time></trkpt><trkpt lat="37.943412073287256" lon="14.95886813156874"><ele>1163.0</ele><time>2026-04-19T19:27:04Z</time></trkpt><trkpt lat="37.94330165820853" lon="14.958938816324238"><ele>1162.5</ele><time>2026-04-19T19:27:05Z</time></trkpt><trkpt lat="37.94318880631271" lon="14.959005910837494"><ele>1162.0</ele><time>2026-04-19T19:27:06Z</time></trkpt><trkpt lat="37.94307426544013" lon="14.959076189352354"><ele>1161.5</ele><time>2026-04-19T19:27:07Z</time></trkpt><trkpt lat="37.942959724838595" lon="14.959144343397723"><ele>1161.0</ele><time>2026-04-19T19:27:08Z</time></trkpt><trkpt lat="37.94284458643857" lon="14.959201444435015"><ele>1159.25</ele><time>2026-04-19T19:27:09Z</time></trkpt><trkpt lat="37.942723445236666" lon="14.959246896827976"><ele>1157.5</ele><time>2026-04-19T19:27:10Z</time></trkpt><trkpt lat="37.94260357861412" lon="14.95928293794313"><ele>1155.75</ele><time>2026-04-19T19:27:11Z</time></trkpt><trkpt lat="37.942491767940915" lon="14.959325729342568"><ele>1154.0</ele><time>2026-04-19T19:27:12Z</time></trkpt><trkpt lat="37.942383947972324" lon="14.959392892517444"><ele>1154.0</ele><time>2026-04-19T19:27:13Z</time></trkpt><trkpt lat="37.942310124489524" lon="14.959512189230596"><ele>1154.0</ele><time>2026-04-19T19:27:14Z</time></trkpt><trkpt lat="37.942276299694974" lon="14.959657788104419"><ele>1154.0</ele><time>2026-04-19T19:27:15Z</time></trkpt><trkpt lat="37.94226773775085" lon="14.959792328814343"><ele>1154.0</ele><time>2026-04-19T19:27:16Z</time></trkpt><trkpt lat="37.94225232567493" lon="14.959920962773973"><ele>1154.0</ele><time>2026-04-19T19:27:17Z</time></trkpt><trkpt lat="37.94223149747568" lon="14.960041309100662"><ele>1150.6000000000001</ele><time>2026-04-19T19:27:18Z</time></trkpt><trkpt lat="37.9421863277947" lon="14.96014072831097"><ele>1147.2</ele><time>2026-04-19T19:27:19Z</time></trkpt><trkpt lat="37.94212569661256" lon="14.960220881601508"><ele>1143.8000000000002</ele><time>2026-04-19T19:27:20Z</time></trkpt><trkpt lat="37.94203829344032" lon="14.960248168957817"><ele>1140.4</ele><time>2026-04-19T19:27:21Z</time></trkpt><trkpt lat="37.94194858987088" lon="14.960231088837599"><ele>1137.0</ele><time>2026-04-19T19:27:22Z</time></trkpt><trkpt lat="37.94186472905079" lon="14.960186820714299"><ele>1137.0</ele><time>2026-04-19T19:27:23Z</time></trkpt><trkpt lat="37.941788773442866" lon="14.960108566427017"><ele>1137.0</ele><time>2026-04-19T19:27:24Z</time></trkpt><trkpt lat="37.94170499338582" lon="14.960038038381024"><ele>1137.0</ele><time>2026-04-19T19:27:25Z</time></trkpt><trkpt lat="37.941613770609884" lon="14.959973469028006"><ele>1137.0</ele><time>2026-04-19T19:27:26Z</time></trkpt><trkpt lat="37.941524043267286" lon="14.959915584276606"><ele>1137.0</ele><time>2026-04-19T19:27:27Z</time></trkpt><trkpt lat="37.94141978469485" lon="14.959857126287746"><ele>1143.0</ele><time>2026-04-19T19:27:28Z</time></trkpt><trkpt lat="37.94131254881156" lon="14.959812938155627"><ele>1149.0</ele><time>2026-04-19T19:27:29Z</time></trkpt><trkpt lat="37.94120206186269" lon="14.959777686311543"><ele>1155.0</ele><time>2026-04-19T19:27:30Z</time></trkpt><trkpt lat="37.941097371816944" lon="14.95973566000839"><ele>1161.0</ele><time>2026-04-19T19:27:31Z</time></trkpt><trkpt lat="37.94099594346876" lon="14.959702611431743"><ele>1167.0</ele><time>2026-04-19T19:27:32Z</time></trkpt><trkpt lat="37.9408959699222" lon="14.959694476122353"><ele>1166.4</ele><time>2026-04-19T19:27:33Z</time></trkpt><trkpt lat="37.940798173126765" lon="14.959714113736622"><ele>1165.8000000000002</ele><time>2026-04-19T19:27:34Z</time></trkpt><trkpt lat="37.94070248760462" lon="14.959773431665507"><ele>1165.2</ele><time>2026-04-19T19:27:35Z</time></trkpt><trkpt lat="37.94062385513956" lon="14.959870859909802"><ele>1164.6000000000001</ele><time>2026-04-19T19:27:36Z</time></trkpt><trkpt lat="37.940550624974186" lon="14.959970972559661"><ele>1164.0</ele><time>2026-04-19T19:27:37.001Z</time></trkpt><trkpt lat="37.94047796156753" lon="14.960070093529431"><ele>1158.8</ele><time>2026-04-19T19:27:38.001Z</time></trkpt><trkpt lat="37.940406687627565" lon="14.960169667016297"><ele>1153.6000000000001</ele><time>2026-04-19T19:27:39.001Z</time></trkpt><trkpt lat="37.94034745329105" lon="14.960274578706212"><ele>1148.4</ele><time>2026-04-19T19:27:40.001Z</time></trkpt><trkpt lat="37.94025662890615" lon="14.96032356139221"><ele>1143.2</ele><time>2026-04-19T19:27:41.001Z</time></trkpt><trkpt lat="37.94016377515976" lon="14.960310819994275"><ele>1138.0</ele><time>2026-04-19T19:27:42.001Z</time></trkpt><trkpt lat="37.940088476379" lon="14.960250254813612"><ele>1136.0</ele><time>2026-04-19T19:27:43.001Z</time></trkpt><trkpt lat="37.94002283954022" lon="14.960176114785272"><ele>1134.0</ele><time>2026-04-19T19:27:44.001Z</time></trkpt><trkpt lat="37.93996260827895" lon="14.960085461993248"><ele>1132.0</ele><time>2026-04-19T19:27:45.001Z</time></trkpt><trkpt lat="37.939894712177775" lon="14.959996189815117"><ele>1130.0</ele><time>2026-04-19T19:27:46.001Z</time></trkpt><trkpt lat="37.939814157035265" lon="14.959913804885364"><ele>1128.0</ele><time>2026-04-19T19:27:47.001Z</time></trkpt><trkpt lat="37.939727442039796" lon="14.959831999384196"><ele>1135.0</ele><time>2026-04-19T19:27:48.001Z</time></trkpt><trkpt lat="37.939637922690764" lon="14.959750367430175"><ele>1142.0</ele><time>2026-04-19T19:27:49.001Z</time></trkpt><trkpt lat="37.93954510685733" lon="14.959672057362022"><ele>1149.0</ele><time>2026-04-19T19:27:50.001Z</time></trkpt><trkpt lat="37.93945026560105" lon="14.959594669998346"><ele>1156.0</ele><time>2026-04-19T19:27:51.001Z</time></trkpt><trkpt lat="37.939352755845874" lon="14.959516940116188"><ele>1156.0</ele><time>2026-04-19T19:27:52.001Z</time></trkpt><trkpt lat="37.93925644608585" lon="14.959430691918714"><ele>1156.0</ele><time>2026-04-19T19:27:53.001Z</time></trkpt><trkpt lat="37.93916263732937" lon="14.959341281074753"><ele>1156.0</ele><time>2026-04-19T19:27:54.001Z</time></trkpt><trkpt lat="37.939070715300176" lon="14.959256065131312"><ele>1156.0</ele><time>2026-04-19T19:27:55.001Z</time></trkpt><trkpt lat="37.938981050752936" lon="14.959176989448654"><ele>1156.3999999999999</ele><time>2026-04-19T19:27:56.001Z</time></trkpt><trkpt lat="37.93889472821534" lon="14.959101686146079"><ele>1156.8</ele><time>2026-04-19T19:27:57.001Z</time></trkpt><trkpt lat="37.93881496520767" lon="14.959025817777864"><ele>1157.1999999999998</ele><time>2026-04-19T19:27:58.001Z</time></trkpt><trkpt lat="37.9387366434222" lon="14.958954742564137"><ele>1157.6</ele><time>2026-04-19T19:27:59.001Z</time></trkpt><trkpt lat="37.93865387465198" lon="14.958898429116498"><ele>1158.0</ele><time>2026-04-19T19:28:00.001Z</time></trkpt><trkpt lat="37.93856197729827" lon="14.958864167145677"><ele>1158.0</ele><time>2026-04-19T19:28:01.001Z</time></trkpt><trkpt lat="37.93846707834007" lon="14.958854066936446"><ele>1158.0</ele><time>2026-04-19T19:28:02.001Z</time></trkpt><trkpt lat="37.938369594824536" lon="14.958872730314365"><ele>1158.0</ele><time>2026-04-19T19:28:03.001Z</time></trkpt><trkpt lat="37.93826537239648" lon="14.95887953843226"><ele>1158.0</ele><time>2026-04-19T19:28:04.001Z</time></trkpt><trkpt lat="37.93816219164295" lon="14.958907795210466"><ele>1158.0</ele><time>2026-04-19T19:28:05.001Z</time></trkpt><trkpt lat="37.93805463239877" lon="14.9589371896034"><ele>1154.5</ele><time>2026-04-19T19:28:06.001Z</time></trkpt><trkpt lat="37.937945856856054" lon="14.958966744382558"><ele>1151.0</ele><time>2026-04-19T19:28:07.001Z</time></trkpt><trkpt lat="37.93783583601323" lon="14.958996637497224"><ele>1147.5</ele><time>2026-04-19T19:28:08.001Z</time></trkpt><trkpt lat="37.93772544628304" lon="14.959025010229013"><ele>1144.0</ele><time>2026-04-19T19:28:09.001Z</time></trkpt><trkpt lat="37.93761417526824" lon="14.959051403186352"><ele>1144.0</ele><time>2026-04-19T19:28:10.001Z</time></trkpt><trkpt lat="37.93750315199646" lon="14.959091648496676"><ele>1144.0</ele><time>2026-04-19T19:28:11.001Z</time></trkpt><trkpt lat="37.93738658273452" lon="14.95910740865223"><ele>1144.0</ele><time>2026-04-19T19:28:12.001Z</time></trkpt><trkpt lat="37.93727245596972" lon="14.95911880650848"><ele>1144.0</ele><time>2026-04-19T19:28:13.001Z</time></trkpt><trkpt lat="37.937156827397935" lon="14.959121627743434"><ele>1144.0</ele><time>2026-04-19T19:28:14.001Z</time></trkpt><trkpt lat="37.937041963903305" lon="14.959111779763523"><ele>1144.0</ele><time>2026-04-19T19:28:15.001Z</time></trkpt><trkpt lat="37.936927380108244" lon="14.959086191391478"><ele>1144.0</ele><time>2026-04-19T19:28:16.001Z</time></trkpt><trkpt lat="37.93681298823215" lon="14.959045466268366"><ele>1144.0</ele><time>2026-04-19T19:28:17.001Z</time></trkpt><trkpt lat="37.936703228246415" lon="14.958988324977922"><ele>1142.0</ele><time>2026-04-19T19:28:18.001Z</time></trkpt><trkpt lat="37.936600533200696" lon="14.95891527200441"><ele>1140.0</ele><time>2026-04-19T19:28:19.001Z</time></trkpt><trkpt lat="37.93650170141964" lon="14.958833388405576"><ele>1138.0</ele><time>2026-04-19T19:28:20.001Z</time></trkpt><trkpt lat="37.93640585088087" lon="14.958744677516497"><ele>1136.0</ele><time>2026-04-19T19:28:21.001Z</time></trkpt><trkpt lat="37.93631369241813" lon="14.958649085931004"><ele>1136.0</ele><time>2026-04-19T19:28:22.001Z</time></trkpt><trkpt lat="37.936224280399685" lon="14.95854946593431"><ele>1136.0</ele><time>2026-04-19T19:28:23.001Z</time></trkpt><trkpt lat="37.93614372485837" lon="14.958445504216598"><ele>1136.0</ele><time>2026-04-19T19:28:24.001Z</time></trkpt><trkpt lat="37.93606727881339" lon="14.958344930763435"><ele>1136.0</ele><time>2026-04-19T19:28:25.001Z</time></trkpt><trkpt lat="37.93599111424354" lon="14.958252301641513"><ele>1136.6</ele><time>2026-04-19T19:28:26.001Z</time></trkpt><trkpt lat="37.93591147347581" lon="14.958170982598253"><ele>1137.1999999999998</ele><time>2026-04-19T19:28:27.001Z</time></trkpt><trkpt lat="37.93582421846946" lon="14.958111386340368"><ele>1137.8000000000002</ele><time>2026-04-19T19:28:28.001Z</time></trkpt><trkpt lat="37.93573234396194" lon="14.958055874468693"><ele>1138.4</ele><time>2026-04-19T19:28:29.001Z</time></trkpt><trkpt lat="37.93562763419708" lon="14.958044190502074"><ele>1139.0</ele><time>2026-04-19T19:28:30.001Z</time></trkpt><trkpt lat="37.93552445151485" lon="14.95805242547782"><ele>1139.0</ele><time>2026-04-19T19:28:31.001Z</time></trkpt><trkpt lat="37.935422282020866" lon="14.958063516580797"><ele>1139.0</ele><time>2026-04-19T19:28:32.001Z</time></trkpt><trkpt lat="37.93532189906466" lon="14.95808337526903"><ele>1139.0</ele><time>2026-04-19T19:28:33.001Z</time></trkpt><trkpt lat="37.93522286844544" lon="14.95804919197786"><ele>1139.0</ele><time>2026-04-19T19:28:34.001Z</time></trkpt><trkpt lat="37.935130395646674" lon="14.957990299622454"><ele>1139.0</ele><time>2026-04-19T19:28:35.001Z</time></trkpt><trkpt lat="37.935039557021646" lon="14.957922989682132"><ele>1135.2</ele><time>2026-04-19T19:28:36Z</time></trkpt><trkpt lat="37.934946226077976" lon="14.957858593075425"><ele>1131.4</ele><time>2026-04-19T19:28:37Z</time></trkpt><trkpt lat="37.9348498922022" lon="14.957799281401671"><ele>1127.6</ele><time>2026-04-19T19:28:38Z</time></trkpt><trkpt lat="37.934753141164315" lon="14.95774128913923"><ele>1123.8</ele><time>2026-04-19T19:28:39Z</time></trkpt><trkpt lat="37.93466146648864" lon="14.957684886969167"><ele>1120.0</ele><time>2026-04-19T19:28:40Z</time></trkpt><trkpt lat="37.93456996181785" lon="14.957625618351454"><ele>1120.0</ele><time>2026-04-19T19:28:41Z</time></trkpt><trkpt lat="37.93447850262361" lon="14.957563893692765"><ele>1120.0</ele><time>2026-04-19T19:28:42Z</time></trkpt><trkpt lat="37.93438946959304" lon="14.957494881705847"><ele>1120.0</ele><time>2026-04-19T19:28:43Z</time></trkpt><trkpt lat="37.93429919145536" lon="14.957424795661575"><ele>1120.0</ele><time>2026-04-19T19:28:44Z</time></trkpt><trkpt lat="37.93422025768369" lon="14.95734132515"><ele>1120.0</ele><time>2026-04-19T19:28:45Z</time></trkpt><trkpt lat="37.93415896323543" lon="14.95723557277886"><ele>1121.6</ele><time>2026-04-19T19:28:46Z</time></trkpt><trkpt lat="37.93413681502042" lon="14.957102691769233"><ele>1123.2</ele><time>2026-04-19T19:28:47Z</time></trkpt><trkpt lat="37.93411680357684" lon="14.956977387074282"><ele>1124.8</ele><time>2026-04-19T19:28:48Z</time></trkpt><trkpt lat="37.934116754646055" lon="14.956848442992563"><ele>1126.4</ele><time>2026-04-19T19:28:49Z</time></trkpt><trkpt lat="37.934122257173364" lon="14.95671692717204"><ele>1128.0</ele><time>2026-04-19T19:28:50Z</time></trkpt><trkpt lat="37.93412592390241" lon="14.956577661056897"><ele>1129.6</ele><time>2026-04-19T19:28:51Z</time></trkpt><trkpt lat="37.93412157169353" lon="14.95644110430068"><ele>1131.1999999999998</ele><time>2026-04-19T19:28:52Z</time></trkpt><trkpt lat="37.93410726419556" lon="14.956303800659015"><ele>1132.8</ele><time>2026-04-19T19:28:53Z</time></trkpt><trkpt lat="37.934083230894956" lon="14.95616741369346"><ele>1134.3999999999999</ele><time>2026-04-19T19:28:54Z</time></trkpt><trkpt lat="37.934052979894574" lon="14.956034852746814"><ele>1136.0</ele><time>2026-04-19T19:28:55Z</time></trkpt><trkpt lat="37.93402873296243" lon="14.95589842401399"><ele>1135.8</ele><time>2026-04-19T19:28:56Z</time></trkpt><trkpt lat="37.93400926115288" lon="14.955760597625803"><ele>1135.6</ele><time>2026-04-19T19:28:57Z</time></trkpt><trkpt lat="37.93399861701889" lon="14.955626903993835"><ele>1135.4</ele><time>2026-04-19T19:28:58Z</time></trkpt><trkpt lat="37.93399094205383" lon="14.955493456872086"><ele>1135.2</ele><time>2026-04-19T19:28:59Z</time></trkpt><trkpt lat="37.93397025297941" lon="14.955365475512991"><ele>1135.0</ele><time>2026-04-19T19:29:00Z</time></trkpt><trkpt lat="37.933928728649065" lon="14.955244270726244"><ele>1135.0</ele><time>2026-04-19T19:29:01Z</time></trkpt><trkpt lat="37.93387994233179" lon="14.955126238894143"><ele>1135.0</ele><time>2026-04-19T19:29:02Z</time></trkpt><trkpt lat="37.93383182246721" lon="14.955004949163225"><ele>1135.0</ele><time>2026-04-19T19:29:03Z</time></trkpt><trkpt lat="37.93378303519294" lon="14.954882214676973"><ele>1135.0</ele><time>2026-04-19T19:29:04Z</time></trkpt><trkpt lat="37.93373113415071" lon="14.954757673537463"><ele>1135.0</ele><time>2026-04-19T19:29:05Z</time></trkpt><trkpt lat="37.93367746997681" lon="14.954635264007402"><ele>1137.2</ele><time>2026-04-19T19:29:06Z</time></trkpt><trkpt lat="37.933626203711164" lon="14.954515102793424"><ele>1139.4</ele><time>2026-04-19T19:29:07Z</time></trkpt><trkpt lat="37.93357474024787" lon="14.954398878348742"><ele>1141.6</ele><time>2026-04-19T19:29:08Z</time></trkpt><trkpt lat="37.93352689283976" lon="14.954282361941935"><ele>1143.8</ele><time>2026-04-19T19:29:09Z</time></trkpt><trkpt lat="37.9334911474768" lon="14.954161182110834"><ele>1146.0</ele><time>2026-04-19T19:29:10Z</time></trkpt><trkpt lat="37.93347221936685" lon="14.954036470815824"><ele>1143.6666666666667</ele><time>2026-04-19T19:29:11Z</time></trkpt><trkpt lat="37.93346818131258" lon="14.953912563053452"><ele>1141.3333333333333</ele><time>2026-04-19T19:29:12Z</time></trkpt><trkpt lat="37.933482016376175" lon="14.953799610668005"><ele>1139.0</ele><time>2026-04-19T19:29:13Z</time></trkpt><trkpt lat="37.93349026035384" lon="14.953696762987045"><ele>1136.6666666666665</ele><time>2026-04-19T19:29:14Z</time></trkpt><trkpt lat="37.93347726147236" lon="14.9535985089896"><ele>1134.3333333333333</ele><time>2026-04-19T19:29:15Z</time></trkpt><trkpt lat="37.93343969863045" lon="14.95351332579232"><ele>1132.0</ele><time>2026-04-19T19:29:16Z</time></trkpt><trkpt lat="37.933376889181524" lon="14.953448294437452"><ele>1132.0</ele><time>2026-04-19T19:29:17Z</time></trkpt><trkpt lat="37.93330395779328" lon="14.95339476406876"><ele>1132.0</ele><time>2026-04-19T19:29:18Z</time></trkpt><trkpt lat="37.93321530067923" lon="14.95339475472287"><ele>1132.0</ele><time>2026-04-19T19:29:19Z</time></trkpt><trkpt lat="37.93312583265826" lon="14.953435877238148"><ele>1132.0</ele><time>2026-04-19T19:29:20.001Z</time></trkpt><trkpt lat="37.9330459738492" lon="14.953498795249224"><ele>1132.0</ele><time>2026-04-19T19:29:21.001Z</time></trkpt><trkpt lat="37.93298996109681" lon="14.953600411686212"><ele>1132.0</ele><time>2026-04-19T19:29:22.001Z</time></trkpt><trkpt lat="37.932926655638646" lon="14.953695279528926"><ele>1132.0</ele><time>2026-04-19T19:29:23.001Z</time></trkpt><trkpt lat="37.932862473492804" lon="14.953800252218208"><ele>1132.0</ele><time>2026-04-19T19:29:24.001Z</time></trkpt><trkpt lat="37.93279957369302" lon="14.953905795725579"><ele>1132.0</ele><time>2026-04-19T19:29:25.001Z</time></trkpt><trkpt lat="37.93272088928898" lon="14.95400451598596"><ele>1132.0</ele><time>2026-04-19T19:29:26.001Z</time></trkpt><trkpt lat="37.93266308072042" lon="14.95413088194941"><ele>1131.2</ele><time>2026-04-19T19:29:27.001Z</time></trkpt><trkpt lat="37.932614879023255" lon="14.954253631002894"><ele>1130.4</ele><time>2026-04-19T19:29:28.001Z</time></trkpt><trkpt lat="37.93256714480614" lon="14.954366842436357"><ele>1129.6</ele><time>2026-04-19T19:29:29.001Z</time></trkpt><trkpt lat="37.932517676869004" lon="14.954475207973926"><ele>1128.8</ele><time>2026-04-19T19:29:30.001Z</time></trkpt><trkpt lat="37.93246317632084" lon="14.954578229620886"><ele>1128.0</ele><time>2026-04-19T19:29:31.001Z</time></trkpt><trkpt lat="37.93236554088475" lon="14.954623489570547"><ele>1128.0</ele><time>2026-04-19T19:29:32.001Z</time></trkpt><trkpt lat="37.932270393234205" lon="14.954675881712344"><ele>1128.0</ele><time>2026-04-19T19:29:33.001Z</time></trkpt><trkpt lat="37.932172122169824" lon="14.95472921451352"><ele>1128.0</ele><time>2026-04-19T19:29:34.001Z</time></trkpt><trkpt lat="37.932073741392074" lon="14.95478260873442"><ele>1128.0</ele><time>2026-04-19T19:29:35.001Z</time></trkpt><trkpt lat="37.931972741000216" lon="14.954837425315846"><ele>1128.0</ele><time>2026-04-19T19:29:36.001Z</time></trkpt><trkpt lat="37.931870538163395" lon="14.954892894483026"><ele>1128.0</ele><time>2026-04-19T19:29:37.001Z</time></trkpt><trkpt lat="37.931768044006354" lon="14.954944575573757"><ele>1128.0</ele><time>2026-04-19T19:29:38.001Z</time></trkpt><trkpt lat="37.93166248793746" lon="14.954990025285458"><ele>1128.0</ele><time>2026-04-19T19:29:39.001Z</time></trkpt><trkpt lat="37.93154806766611" lon="14.954992199568663"><ele>1128.0</ele><time>2026-04-19T19:29:40.001Z</time></trkpt><trkpt lat="37.931438256140055" lon="14.954955785044396"><ele>1130.5</ele><time>2026-04-19T19:29:41.001Z</time></trkpt><trkpt lat="37.93132628644041" lon="14.954936305473007"><ele>1133.0</ele><time>2026-04-19T19:29:42.001Z</time></trkpt><trkpt lat="37.931215022652914" lon="14.954954990903202"><ele>1135.5</ele><time>2026-04-19T19:29:43.001Z</time></trkpt><trkpt lat="37.931106847480706" lon="14.954959801533134"><ele>1138.0</ele><time>2026-04-19T19:29:44.001Z</time></trkpt><trkpt lat="37.9309950803558" lon="14.955016608420738"><ele>1134.25</ele><time>2026-04-19T19:29:45.001Z</time></trkpt><trkpt lat="37.930895471234464" lon="14.9550965099782"><ele>1130.5</ele><time>2026-04-19T19:29:46.001Z</time></trkpt><trkpt lat="37.93079954020467" lon="14.95517657642004"><ele>1126.75</ele><time>2026-04-19T19:29:47.001Z</time></trkpt><trkpt lat="37.930704806649366" lon="14.955257531768687"><ele>1123.0</ele><time>2026-04-19T19:29:48.001Z</time></trkpt><trkpt lat="37.93060910312814" lon="14.955339214195924"><ele>1123.0</ele><time>2026-04-19T19:29:49.001Z</time></trkpt><trkpt lat="37.93051313176804" lon="14.955421009370774"><ele>1123.0</ele><time>2026-04-19T19:29:50.001Z</time></trkpt><trkpt lat="37.93042297752972" lon="14.955513811495342"><ele>1123.0</ele><time>2026-04-19T19:29:51.001Z</time></trkpt><trkpt lat="37.93031217588033" lon="14.95556046772575"><ele>1123.0</ele><time>2026-04-19T19:29:52.001Z</time></trkpt><trkpt lat="37.93021064273134" lon="14.955634606778501"><ele>1123.0</ele><time>2026-04-19T19:29:53.001Z</time></trkpt><trkpt lat="37.93009715420537" lon="14.95567486640902"><ele>1123.0</ele><time>2026-04-19T19:29:54.001Z</time></trkpt><trkpt lat="37.92999584015821" lon="14.955753783466212"><ele>1123.0</ele><time>2026-04-19T19:29:55.001Z</time></trkpt><trkpt lat="37.92990437007525" lon="14.955862372968621"><ele>1123.0</ele><time>2026-04-19T19:29:56.001Z</time></trkpt><trkpt lat="37.929821394232015" lon="14.955980688702219"><ele>1121.75</ele><time>2026-04-19T19:29:57.001Z</time></trkpt><trkpt lat="37.92974114489655" lon="14.956096986598238"><ele>1120.5</ele><time>2026-04-19T19:29:58.001Z</time></trkpt><trkpt lat="37.92966197194919" lon="14.956208703262371"><ele>1119.25</ele><time>2026-04-19T19:29:59.001Z</time></trkpt><trkpt lat="37.9295867699881" lon="14.95631656711431"><ele>1118.0</ele><time>2026-04-19T19:30:00.001Z</time></trkpt><trkpt lat="37.92953163851082" lon="14.956443980544696"><ele>1118.0</ele><time>2026-04-19T19:30:01.001Z</time></trkpt><trkpt lat="37.92946565901972" lon="14.956561982916577"><ele>1118.0</ele><time>2026-04-19T19:30:02.001Z</time></trkpt><trkpt lat="37.929448694779396" lon="14.956717607728413"><ele>1118.0</ele><time>2026-04-19T19:30:03.001Z</time></trkpt><trkpt lat="37.92943109257621" lon="14.956866472311573"><ele>1118.0</ele><time>2026-04-19T19:30:04.001Z</time></trkpt><trkpt lat="37.92939934539438" lon="14.957003935359799"><ele>1119.75</ele><time>2026-04-19T19:30:05.001Z</time></trkpt><trkpt lat="37.92933767603751" lon="14.957121140220334"><ele>1121.5</ele><time>2026-04-19T19:30:06.001Z</time></trkpt><trkpt lat="37.92925553069619" lon="14.957214370540399"><ele>1123.25</ele><time>2026-04-19T19:30:07.001Z</time></trkpt><trkpt lat="37.929159208016785" lon="14.957308470968774"><ele>1125.0</ele><time>2026-04-19T19:30:08.001Z</time></trkpt><trkpt lat="37.929055747544716" lon="14.957405703298432"><ele>1125.0</ele><time>2026-04-19T19:30:09.001Z</time></trkpt><trkpt lat="37.928948866535826" lon="14.95750615030994"><ele>1125.0</ele><time>2026-04-19T19:30:10.001Z</time></trkpt><trkpt lat="37.92883760605737" lon="14.957612712661751"><ele>1125.0</ele><time>2026-04-19T19:30:11.001Z</time></trkpt><trkpt lat="37.9287202923088" lon="14.957726068670565"><ele>1125.0</ele><time>2026-04-19T19:30:12.001Z</time></trkpt><trkpt lat="37.92860753096049" lon="14.957841385124768"><ele>1124.5</ele><time>2026-04-19T19:30:13.001Z</time></trkpt><trkpt lat="37.9285055149391" lon="14.957970632989687"><ele>1124.0</ele><time>2026-04-19T19:30:14.001Z</time></trkpt><trkpt lat="37.928417123569574" lon="14.95810838289169"><ele>1123.5</ele><time>2026-04-19T19:30:15.001Z</time></trkpt><trkpt lat="37.928330895483384" lon="14.958246354962178"><ele>1123.0</ele><time>2026-04-19T19:30:16.001Z</time></trkpt><trkpt lat="37.92824456044051" lon="14.95838449816331"><ele>1114.5</ele><time>2026-04-19T19:30:17.001Z</time></trkpt><trkpt lat="37.92816026627852" lon="14.958516007815293"><ele>1106.0</ele><time>2026-04-19T19:30:18.001Z</time></trkpt><trkpt lat="37.92807808513205" lon="14.958632455138753"><ele>1097.5</ele><time>2026-04-19T19:30:19.001Z</time></trkpt><trkpt lat="37.92799417295692" lon="14.958733464546293"><ele>1089.0</ele><time>2026-04-19T19:30:20.001Z</time></trkpt><trkpt lat="37.927883395510754" lon="14.958769151317808"><ele>1089.0</ele><time>2026-04-19T19:30:21.001Z</time></trkpt><trkpt lat="37.92777039796087" lon="14.95875217787541"><ele>1089.0</ele><time>2026-04-19T19:30:22.001Z</time></trkpt><trkpt lat="37.927674124110744" lon="14.958707923968532"><ele>1089.0</ele><time>2026-04-19T19:30:23.001Z</time></trkpt><trkpt lat="37.927578366276975" lon="14.958655836519698"><ele>1089.0</ele><time>2026-04-19T19:30:24.001Z</time></trkpt><trkpt lat="37.92747460262148" lon="14.958607679181682"><ele>1089.0</ele><time>2026-04-19T19:30:25.001Z</time></trkpt><trkpt lat="37.92736805865372" lon="14.95857763688478"><ele>1091.75</ele><time>2026-04-19T19:30:26.001Z</time></trkpt><trkpt lat="37.92725933733523" lon="14.958573154520119"><ele>1094.5</ele><time>2026-04-19T19:30:27.001Z</time></trkpt><trkpt lat="37.92715015291285" lon="14.958602629847245"><ele>1097.25</ele><time>2026-04-19T19:30:28.001Z</time></trkpt><trkpt lat="37.927042683825775" lon="14.958663581949045"><ele>1100.0</ele><time>2026-04-19T19:30:29.001Z</time></trkpt><trkpt lat="37.92693154503843" lon="14.958719263372114"><ele>1100.0</ele><time>2026-04-19T19:30:30.001Z</time></trkpt><trkpt lat="37.92682703023464" lon="14.958796979838437"><ele>1100.0</ele><time>2026-04-19T19:30:31.001Z</time></trkpt><trkpt lat="37.92671904131265" lon="14.958877388144398"><ele>1100.0</ele><time>2026-04-19T19:30:32.001Z</time></trkpt><trkpt lat="37.92661574322693" lon="14.958964103377788"><ele>1100.0</ele><time>2026-04-19T19:30:33.001Z</time></trkpt><trkpt lat="37.92651774625237" lon="14.959062776258866"><ele>1102.0</ele><time>2026-04-19T19:30:34.001Z</time></trkpt><trkpt lat="37.926428614022164" lon="14.959164423910092"><ele>1104.0</ele><time>2026-04-19T19:30:35.001Z</time></trkpt><trkpt lat="37.92634257474341" lon="14.959268334730693"><ele>1106.0</ele><time>2026-04-19T19:30:36.001Z</time></trkpt><trkpt lat="37.92625743239749" lon="14.959350235832455"><ele>1108.0</ele><time>2026-04-19T19:30:37.001Z</time></trkpt><trkpt lat="37.92617451513418" lon="14.959408829756889"><ele>1110.0</ele><time>2026-04-19T19:30:38.001Z</time></trkpt><trkpt lat="37.92607950601532" lon="14.95939560144022"><ele>1110.0</ele><time>2026-04-19T19:30:39.001Z</time></trkpt><trkpt lat="37.92600246044136" lon="14.959333078606946"><ele>1110.0</ele><time>2026-04-19T19:30:40.001Z</time></trkpt><trkpt lat="37.925961392938056" lon="14.959224842517564"><ele>1110.0</ele><time>2026-04-19T19:30:41.001Z</time></trkpt><trkpt lat="37.92589764710171" lon="14.95913556941451"><ele>1110.0</ele><time>2026-04-19T19:30:42.001Z</time></trkpt><trkpt lat="37.92582323384713" lon="14.959051617099936"><ele>1110.0</ele><time>2026-04-19T19:30:43.001Z</time></trkpt><trkpt lat="37.92572262462122" lon="14.959003533808525"><ele>1107.5</ele><time>2026-04-19T19:30:44.001Z</time></trkpt><trkpt lat="37.92560957725002" lon="14.95898296202607"><ele>1105.0</ele><time>2026-04-19T19:30:45.001Z</time></trkpt><trkpt lat="37.925494701753415" lon="14.958952499022695"><ele>1102.5</ele><time>2026-04-19T19:30:46.001Z</time></trkpt><trkpt lat="37.925375709461576" lon="14.958952993796585"><ele>1100.0</ele><time>2026-04-19T19:30:47Z</time></trkpt><trkpt lat="37.92525794178545" lon="14.958910635431605"><ele>1100.0</ele><time>2026-04-19T19:30:48Z</time></trkpt><trkpt lat="37.92514215413992" lon="14.95885788238887"><ele>1100.0</ele><time>2026-04-19T19:30:49Z</time></trkpt><trkpt lat="37.92502571719485" lon="14.958793789427434"><ele>1100.0</ele><time>2026-04-19T19:30:50Z</time></trkpt><trkpt lat="37.92490919316145" lon="14.958723899268412"><ele>1100.0</ele><time>2026-04-19T19:30:51Z</time></trkpt><trkpt lat="37.92479220600751" lon="14.95864983735102"><ele>1101.75</ele><time>2026-04-19T19:30:52Z</time></trkpt><trkpt lat="37.92467867953279" lon="14.958565392164095"><ele>1103.5</ele><time>2026-04-19T19:30:53.001Z</time></trkpt><trkpt lat="37.92457139791906" lon="14.958470390873382"><ele>1105.25</ele><time>2026-04-19T19:30:54.001Z</time></trkpt><trkpt lat="37.92446735642992" lon="14.958368581646058"><ele>1107.0</ele><time>2026-04-19T19:30:55.001Z</time></trkpt><trkpt lat="37.92436466350858" lon="14.958262639683596"><ele>1107.0</ele><time>2026-04-19T19:30:56.001Z</time></trkpt><trkpt lat="37.92426274085863" lon="14.958158683972723"><ele>1107.0</ele><time>2026-04-19T19:30:57.001Z</time></trkpt><trkpt lat="37.924160212608996" lon="14.958056065854061"><ele>1107.0</ele><time>2026-04-19T19:30:58.001Z</time></trkpt><trkpt lat="37.92405412406953" lon="14.957962136846332"><ele>1107.0</ele><time>2026-04-19T19:30:59.001Z</time></trkpt><trkpt lat="37.92393800633466" lon="14.957894211282445"><ele>1101.75</ele><time>2026-04-19T19:31:00.001Z</time></trkpt><trkpt lat="37.923814466874425" lon="14.957850616871132"><ele>1096.5</ele><time>2026-04-19T19:31:01.001Z</time></trkpt><trkpt lat="37.923692335882286" lon="14.957792518462991"><ele>1091.25</ele><time>2026-04-19T19:31:02.001Z</time></trkpt><trkpt lat="37.92356301480845" lon="14.957791712041814"><ele>1086.0</ele><time>2026-04-19T19:31:03.001Z</time></trkpt><trkpt lat="37.92343551083765" lon="14.957787321804458"><ele>1082.75</ele><time>2026-04-19T19:31:04.001Z</time></trkpt><trkpt lat="37.92330579398825" lon="14.957774220066629"><ele>1079.5</ele><time>2026-04-19T19:31:05.001Z</time></trkpt><trkpt lat="37.923174446698695" lon="14.95777672193966"><ele>1076.25</ele><time>2026-04-19T19:31:06.001Z</time></trkpt><trkpt lat="37.92304195295291" lon="14.957781394459037"><ele>1073.0</ele><time>2026-04-19T19:31:07.001Z</time></trkpt><trkpt lat="37.92291080717293" lon="14.957785312732188"><ele>1073.0</ele><time>2026-04-19T19:31:08.001Z</time></trkpt><trkpt lat="37.92278267896575" lon="14.957789140846478"><ele>1073.0</ele><time>2026-04-19T19:31:09.001Z</time></trkpt><trkpt lat="37.922655396493276" lon="14.957808822340938"><ele>1073.0</ele><time>2026-04-19T19:31:10.001Z</time></trkpt><trkpt lat="37.92253154445425" lon="14.957815417239857"><ele>1073.0</ele><time>2026-04-19T19:31:11.001Z</time></trkpt><trkpt lat="37.92240810121276" lon="14.957827569697912"><ele>1072.25</ele><time>2026-04-19T19:31:12.001Z</time></trkpt><trkpt lat="37.92229506401056" lon="14.957891434133769"><ele>1071.5</ele><time>2026-04-19T19:31:13.001Z</time></trkpt><trkpt lat="37.92220769679579" lon="14.958004556528493"><ele>1070.75</ele><time>2026-04-19T19:31:14.001Z</time></trkpt><trkpt lat="37.922102271208686" lon="14.958081940519959"><ele>1070.0</ele><time>2026-04-19T19:31:15.001Z</time></trkpt><trkpt lat="37.92200931807722" lon="14.958173413613451"><ele>1070.0</ele><time>2026-04-19T19:31:16.001Z</time></trkpt><trkpt lat="37.92191254372649" lon="14.958271907796602"><ele>1070.0</ele><time>2026-04-19T19:31:17.001Z</time></trkpt><trkpt lat="37.921816072405846" lon="14.958375796274186"><ele>1070.0</ele><time>2026-04-19T19:31:18.001Z</time></trkpt><trkpt lat="37.92174347571259" lon="14.958511519568509"><ele>1070.0</ele><time>2026-04-19T19:31:19.001Z</time></trkpt><trkpt lat="37.921652648771676" lon="14.95861738276514"><ele>1069.5</ele><time>2026-04-19T19:31:20.001Z</time></trkpt><trkpt lat="37.921566081575314" lon="14.95873009719045"><ele>1069.0</ele><time>2026-04-19T19:31:21.001Z</time></trkpt><trkpt lat="37.92148500698751" lon="14.958841273934485"><ele>1068.5</ele><time>2026-04-19T19:31:22.001Z</time></trkpt><trkpt lat="37.92138783313903" lon="14.958936712092816"><ele>1068.0</ele><time>2026-04-19T19:31:23.001Z</time></trkpt><trkpt lat="37.92131242590051" lon="14.959050638112013"><ele>1068.0</ele><time>2026-04-19T19:31:24.001Z</time></trkpt><trkpt lat="37.92122865019804" lon="14.959149325539467"><ele>1068.0</ele><time>2026-04-19T19:31:25.001Z</time></trkpt><trkpt lat="37.92114323282782" lon="14.959243424772986"><ele>1068.0</ele><time>2026-04-19T19:31:26.001Z</time></trkpt><trkpt lat="37.92105828339747" lon="14.959328228953142"><ele>1068.0</ele><time>2026-04-19T19:31:27.001Z</time></trkpt><trkpt lat="37.92098744804314" lon="14.959401225338485"><ele>1068.0</ele><time>2026-04-19T19:31:28.001Z</time></trkpt><trkpt lat="37.92093424748087" lon="14.959458984243684"><ele>1067.6666666666667</ele><time>2026-04-19T19:31:29.001Z</time></trkpt><trkpt lat="37.920900790132414" lon="14.959527879549135"><ele>1067.3333333333333</ele><time>2026-04-19T19:31:30.001Z</time></trkpt><trkpt lat="37.92086572068034" lon="14.95960770399279"><ele>1067.0</ele><time>2026-04-19T19:31:31.001Z</time></trkpt><trkpt lat="37.92081745827359" lon="14.959684699599373"><ele>1066.6666666666665</ele><time>2026-04-19T19:31:32.001Z</time></trkpt><trkpt lat="37.9207743107957" lon="14.959766910272917"><ele>1066.3333333333333</ele><time>2026-04-19T19:31:33.001Z</time></trkpt><trkpt lat="37.92075241646131" lon="14.959864526183074"><ele>1066.0</ele><time>2026-04-19T19:31:34.001Z</time></trkpt><trkpt lat="37.92075669657511" lon="14.959972125300098"><ele>1063.1666666666665</ele><time>2026-04-19T19:31:35.001Z</time></trkpt><trkpt lat="37.92078086394201" lon="14.960077338526794"><ele>1060.3333333333333</ele><time>2026-04-19T19:31:36.001Z</time></trkpt><trkpt lat="37.92082928360274" lon="14.960173406253864"><ele>1057.5</ele><time>2026-04-19T19:31:37.001Z</time></trkpt><trkpt lat="37.92089604108642" lon="14.960252822642115"><ele>1054.6666666666667</ele><time>2026-04-19T19:31:38.001Z</time></trkpt><trkpt lat="37.920976570479304" lon="14.960304456517294"><ele>1051.8333333333335</ele><time>2026-04-19T19:31:39.001Z</time></trkpt><trkpt lat="37.92106668309715" lon="14.96031898122319"><ele>1049.0</ele><time>2026-04-19T19:31:40.001Z</time></trkpt><trkpt lat="37.9211563289549" lon="14.960294587403817"><ele>1049.6000000000001</ele><time>2026-04-19T19:31:41.001Z</time></trkpt><trkpt lat="37.92123866559959" lon="14.960240357670857"><ele>1050.2</ele><time>2026-04-19T19:31:42.001Z</time></trkpt><trkpt lat="37.9213032954734" lon="14.960161148893347"><ele>1050.8000000000002</ele><time>2026-04-19T19:31:43.001Z</time></trkpt><trkpt lat="37.92135713521962" lon="14.960068814214043"><ele>1051.4</ele><time>2026-04-19T19:31:44.001Z</time></trkpt><trkpt lat="37.921430676737764" lon="14.959999601912006"><ele>1052.0</ele><time>2026-04-19T19:31:45.001Z</time></trkpt><trkpt lat="37.92149549574024" lon="14.959915920774568"><ele>1052.0</ele><time>2026-04-19T19:31:46.001Z</time></trkpt><trkpt lat="37.92156005083081" lon="14.959830078890818"><ele>1052.0</ele><time>2026-04-19T19:31:47.001Z</time></trkpt><trkpt lat="37.92162313832696" lon="14.959746546432964"><ele>1052.0</ele><time>2026-04-19T19:31:48.001Z</time></trkpt><trkpt lat="37.92167957327164" lon="14.959655956353155"><ele>1052.0</ele><time>2026-04-19T19:31:49.001Z</time></trkpt><trkpt lat="37.9217516593479" lon="14.959587338686925"><ele>1052.0</ele><time>2026-04-19T19:31:50.001Z</time></trkpt><trkpt lat="37.92182122816071" lon="14.959513381995981"><ele>1051.3333333333335</ele><time>2026-04-19T19:31:51.001Z</time></trkpt><trkpt lat="37.921880470239984" lon="14.959428430479152"><ele>1050.6666666666667</ele><time>2026-04-19T19:31:52.001Z</time></trkpt><trkpt lat="37.92193731485524" lon="14.95934293352729"><ele>1050.0</ele><time>2026-04-19T19:31:53.001Z</time></trkpt><trkpt lat="37.922008150275445" lon="14.959283178413813"><ele>1049.3333333333333</ele><time>2026-04-19T19:31:54.001Z</time></trkpt><trkpt lat="37.922089525944344" lon="14.959258118828881"><ele>1048.6666666666665</ele><time>2026-04-19T19:31:55.001Z</time></trkpt><trkpt lat="37.92217211064729" lon="14.959261167274715"><ele>1048.0</ele><time>2026-04-19T19:31:56.001Z</time></trkpt><trkpt lat="37.92224990651357" lon="14.959300988472195"><ele>1048.0</ele><time>2026-04-19T19:31:57.001Z</time></trkpt><trkpt lat="37.92230700627355" lon="14.95937866573155"><ele>1048.0</ele><time>2026-04-19T19:31:58.001Z</time></trkpt><trkpt lat="37.92233822329252" lon="14.959479239443946"><ele>1048.0</ele><time>2026-04-19T19:31:59.001Z</time></trkpt><trkpt lat="37.9223393143238" lon="14.95959168039866"><ele>1048.0</ele><time>2026-04-19T19:32:00.001Z</time></trkpt><trkpt lat="37.92230299872261" lon="14.959700378255578"><ele>1048.0</ele><time>2026-04-19T19:32:01.001Z</time></trkpt><trkpt lat="37.92225134864343" lon="14.95980202968722"><ele>1048.0</ele><time>2026-04-19T19:32:02.001Z</time></trkpt><trkpt lat="37.92218964083218" lon="14.959907269800006"><ele>1048.0</ele><time>2026-04-19T19:32:03.001Z</time></trkpt><trkpt lat="37.922123236478065" lon="14.96002054935619"><ele>1048.0</ele><time>2026-04-19T19:32:04.001Z</time></trkpt><trkpt lat="37.922045392465236" lon="14.960140978236867"><ele>1048.0</ele><time>2026-04-19T19:32:05.001Z</time></trkpt><trkpt lat="37.921954362603614" lon="14.960247644494094"><ele>1048.0</ele><time>2026-04-19T19:32:06.001Z</time></trkpt><trkpt lat="37.92184849847934" lon="14.960350208502033"><ele>1046.25</ele><time>2026-04-19T19:32:07.001Z</time></trkpt><trkpt lat="37.92174102516359" lon="14.960437967531512"><ele>1044.5</ele><time>2026-04-19T19:32:08.001Z</time></trkpt><trkpt lat="37.92163948517717" lon="14.960523833169553"><ele>1042.75</ele><time>2026-04-19T19:32:09.001Z</time></trkpt><trkpt lat="37.9215375098666" lon="14.960606714112252"><ele>1041.0</ele><time>2026-04-19T19:32:10.001Z</time></trkpt><trkpt lat="37.92143671940141" lon="14.960690171109944"><ele>1041.0</ele><time>2026-04-19T19:32:11.001Z</time></trkpt><trkpt lat="37.92133660460816" lon="14.960774007659579"><ele>1041.0</ele><time>2026-04-19T19:32:12.001Z</time></trkpt><trkpt lat="37.92122296786683" lon="14.960832058047043"><ele>1041.0</ele><time>2026-04-19T19:32:13.001Z</time></trkpt><trkpt lat="37.92111971811364" lon="14.96091707084306"><ele>1041.0</ele><time>2026-04-19T19:32:14.001Z</time></trkpt><trkpt lat="37.92102463883107" lon="14.96101793163801"><ele>1039.75</ele><time>2026-04-19T19:32:15.001Z</time></trkpt><trkpt lat="37.9209136640286" lon="14.961082822687573"><ele>1038.5</ele><time>2026-04-19T19:32:16.001Z</time></trkpt><trkpt lat="37.920812938575786" lon="14.96116413050684"><ele>1037.25</ele><time>2026-04-19T19:32:17.001Z</time></trkpt><trkpt lat="37.920720521010914" lon="14.961262912574504"><ele>1036.0</ele><time>2026-04-19T19:32:18.001Z</time></trkpt><trkpt lat="37.92060895157861" lon="14.961328793403215"><ele>1036.0</ele><time>2026-04-19T19:32:19.001Z</time></trkpt><trkpt lat="37.92050642485957" lon="14.961415632761895"><ele>1036.0</ele><time>2026-04-19T19:32:20.001Z</time></trkpt><trkpt lat="37.9204065588815" lon="14.961513300846924"><ele>1036.0</ele><time>2026-04-19T19:32:21.001Z</time></trkpt><trkpt lat="37.92032096474008" lon="14.96162867200096"><ele>1036.0</ele><time>2026-04-19T19:32:22.001Z</time></trkpt><trkpt lat="37.920251152881995" lon="14.961753519952152"><ele>1034.2</ele><time>2026-04-19T19:32:23.001Z</time></trkpt><trkpt lat="37.9201963868935" lon="14.961885017522029"><ele>1032.3999999999999</ele><time>2026-04-19T19:32:24.001Z</time></trkpt><trkpt lat="37.92013196319273" lon="14.962000686942165"><ele>1030.6</ele><time>2026-04-19T19:32:25.001Z</time></trkpt><trkpt lat="37.92005118772591" lon="14.96208067842584"><ele>1028.8</ele><time>2026-04-19T19:32:26.001Z</time></trkpt><trkpt lat="37.919958823123785" lon="14.962122994355326"><ele>1027.0</ele><time>2026-04-19T19:32:27.001Z</time></trkpt><trkpt lat="37.91986093349662" lon="14.962174996419632"><ele>1027.0</ele><time>2026-04-19T19:32:28.001Z</time></trkpt><trkpt lat="37.91975008436436" lon="14.962215385011127"><ele>1027.0</ele><time>2026-04-19T19:32:29.001Z</time></trkpt><trkpt lat="37.91963961098754" lon="14.962264743573556"><ele>1027.0</ele><time>2026-04-19T19:32:30.001Z</time></trkpt><trkpt lat="37.919522384525706" lon="14.96228951637616"><ele>1027.0</ele><time>2026-04-19T19:32:31.001Z</time></trkpt><trkpt lat="37.91941504944265" lon="14.962329505725226"><ele>1027.0</ele><time>2026-04-19T19:32:32.001Z</time></trkpt><trkpt lat="37.919306918235016" lon="14.962367319853477"><ele>1027.0</ele><time>2026-04-19T19:32:33.001Z</time></trkpt><trkpt lat="37.91919950405005" lon="14.962400430707929"><ele>1027.0</ele><time>2026-04-19T19:32:34.001Z</time></trkpt><trkpt lat="37.91909056486455" lon="14.962366972583919"><ele>1027.0</ele><time>2026-04-19T19:32:35.001Z</time></trkpt><trkpt lat="37.91897860756809" lon="14.962360436691698"><ele>1027.0</ele><time>2026-04-19T19:32:36.001Z</time></trkpt><trkpt lat="37.91886186939687" lon="14.962326779383401"><ele>1026.75</ele><time>2026-04-19T19:32:37.001Z</time></trkpt><trkpt lat="37.918742934387225" lon="14.962314146759178"><ele>1026.5</ele><time>2026-04-19T19:32:38.001Z</time></trkpt><trkpt lat="37.91862880940722" lon="14.962295680858077"><ele>1026.25</ele><time>2026-04-19T19:32:39.001Z</time></trkpt><trkpt lat="37.918513789316556" lon="14.96228005531392"><ele>1026.0</ele><time>2026-04-19T19:32:40.001Z</time></trkpt><trkpt lat="37.91840147843318" lon="14.962254252361472"><ele>1025.5</ele><time>2026-04-19T19:32:41.001Z</time></trkpt><trkpt lat="37.918290331365" lon="14.962228785755952"><ele>1025.0</ele><time>2026-04-19T19:32:42.001Z</time></trkpt><trkpt lat="37.91817232080138" lon="14.962226642391544"><ele>1024.5</ele><time>2026-04-19T19:32:43.001Z</time></trkpt><trkpt lat="37.91805324923554" lon="14.962257790729192"><ele>1024.0</ele><time>2026-04-19T19:32:44.001Z</time></trkpt><trkpt lat="37.91793557654026" lon="14.962298096748711"><ele>1024.0</ele><time>2026-04-19T19:32:45.001Z</time></trkpt><trkpt lat="37.91782241076686" lon="14.962345984682734"><ele>1024.0</ele><time>2026-04-19T19:32:46.001Z</time></trkpt><trkpt lat="37.91770982019695" lon="14.962386247908714"><ele>1024.0</ele><time>2026-04-19T19:32:47.001Z</time></trkpt><trkpt lat="37.91760297522013" lon="14.962450260065742"><ele>1024.0</ele><time>2026-04-19T19:32:48.001Z</time></trkpt><trkpt lat="37.91749337735116" lon="14.962490965795766"><ele>1022.75</ele><time>2026-04-19T19:32:49.001Z</time></trkpt><trkpt lat="37.91738103219332" lon="14.962534947776815"><ele>1021.5</ele><time>2026-04-19T19:32:50.001Z</time></trkpt><trkpt lat="37.91727319195249" lon="14.962583460317534"><ele>1020.25</ele><time>2026-04-19T19:32:51.001Z</time></trkpt><trkpt lat="37.917166700671515" lon="14.962633409864793"><ele>1019.0</ele><time>2026-04-19T19:32:52.001Z</time></trkpt><trkpt lat="37.91706305608633" lon="14.96268373915065"><ele>1019.0</ele><time>2026-04-19T19:32:53.001Z</time></trkpt><trkpt lat="37.916958157666926" lon="14.962738394925726"><ele>1019.0000000000001</ele><time>2026-04-19T19:32:54.001Z</time></trkpt><trkpt lat="37.916855945963256" lon="14.962769317044291"><ele>1019.0000000000001</ele><time>2026-04-19T19:32:55.001Z</time></trkpt><trkpt lat="37.916771578540754" lon="14.962818681745109"><ele>1019.0</ele><time>2026-04-19T19:32:56.001Z</time></trkpt><trkpt lat="37.91669561603898" lon="14.962863128549593"><ele>1019.0</ele><time>2026-04-19T19:32:57.001Z</time></trkpt><trkpt lat="37.916626854669424" lon="14.96289900032247"><ele>1021.2</ele><time>2026-04-19T19:32:58.001Z</time></trkpt><trkpt lat="37.916549260348035" lon="14.962936750348327"><ele>1023.4000000000001</ele><time>2026-04-19T19:32:59.001Z</time></trkpt><trkpt lat="37.91647393221224" lon="14.962988291607331"><ele>1025.6</ele><time>2026-04-19T19:33:00.001Z</time></trkpt><trkpt lat="37.91638199238087" lon="14.963012079468912"><ele>1027.8</ele><time>2026-04-19T19:33:01.001Z</time></trkpt><trkpt lat="37.91628080252468" lon="14.963044410221098"><ele>1030.0</ele><time>2026-04-19T19:33:02.001Z</time></trkpt><trkpt lat="37.91616667417875" lon="14.963082610042868"><ele>1030.0</ele><time>2026-04-19T19:33:03.001Z</time></trkpt><trkpt lat="37.91605813480201" lon="14.963121635808566"><ele>1030.0</ele><time>2026-04-19T19:33:04.001Z</time></trkpt><trkpt lat="37.9159473618279" lon="14.963157174616365"><ele>1030.0</ele><time>2026-04-19T19:33:05.001Z</time></trkpt><trkpt lat="37.91583490039844" lon="14.963189796215561"><ele>1030.0</ele><time>2026-04-19T19:33:06.001Z</time></trkpt><trkpt lat="37.91572265397536" lon="14.963219905887108"><ele>1030.25</ele><time>2026-04-19T19:33:07.001Z</time></trkpt><trkpt lat="37.91560937374697" lon="14.963259715218001"><ele>1030.5</ele><time>2026-04-19T19:33:08.001Z</time></trkpt><trkpt lat="37.91548638100591" lon="14.963267305616057"><ele>1030.75</ele><time>2026-04-19T19:33:09.001Z</time></trkpt><trkpt lat="37.915365940991535" lon="14.963332456182677"><ele>1031.0</ele><time>2026-04-19T19:33:10.001Z</time></trkpt><trkpt lat="37.91526586499004" lon="14.96343994272417"><ele>1029.0</ele><time>2026-04-19T19:33:11Z</time></trkpt><trkpt lat="37.915161793892906" lon="14.96351618143266"><ele>1027.0</ele><time>2026-04-19T19:33:12Z</time></trkpt><trkpt lat="37.91505368786857" lon="14.963593935171357"><ele>1025.0</ele><time>2026-04-19T19:33:13Z</time></trkpt><trkpt lat="37.91494619101709" lon="14.96366869503577"><ele>1023.0</ele><time>2026-04-19T19:33:14Z</time></trkpt><trkpt lat="37.9148646098062" lon="14.963797950239377"><ele>1023.0</ele><time>2026-04-19T19:33:15Z</time></trkpt><trkpt lat="37.914773083214335" lon="14.96389463874078"><ele>1023.0</ele><time>2026-04-19T19:33:16Z</time></trkpt><trkpt lat="37.91467964288739" lon="14.963981937202231"><ele>1023.0</ele><time>2026-04-19T19:33:17Z</time></trkpt><trkpt lat="37.91457235577772" lon="14.96404617880221"><ele>1023.0</ele><time>2026-04-19T19:33:18Z</time></trkpt><trkpt lat="37.91450141994428" lon="14.964152977380841"><ele>1021.0</ele><time>2026-04-19T19:33:19Z</time></trkpt><trkpt lat="37.91440299548864" lon="14.964226778915902"><ele>1019.0</ele><time>2026-04-19T19:33:20Z</time></trkpt><trkpt lat="37.91431053822079" lon="14.964277721103626"><ele>1017.0</ele><time>2026-04-19T19:33:21Z</time></trkpt><trkpt lat="37.91419513342555" lon="14.964332486480638"><ele>1015.0</ele><time>2026-04-19T19:33:22Z</time></trkpt><trkpt lat="37.91406710322411" lon="14.964360323527876"><ele>1015.0</ele><time>2026-04-19T19:33:23Z</time></trkpt><trkpt lat="37.91395988015506" lon="14.964415201742478"><ele>1015.0</ele><time>2026-04-19T19:33:24Z</time></trkpt><trkpt lat="37.91385278053402" lon="14.964470016816872"><ele>1015.0</ele><time>2026-04-19T19:33:25Z</time></trkpt><trkpt lat="37.91375119624249" lon="14.964523328699984"><ele>1015.0</ele><time>2026-04-19T19:33:26Z</time></trkpt><trkpt lat="37.91363959232992" lon="14.964583448594995"><ele>1015.0</ele><time>2026-04-19T19:33:27Z</time></trkpt><trkpt lat="37.91352865093179" lon="14.964643211509504"><ele>1015.0</ele><time>2026-04-19T19:33:28Z</time></trkpt><trkpt lat="37.913414889770486" lon="14.964701015929808"><ele>1015.0</ele><time>2026-04-19T19:33:29Z</time></trkpt><trkpt lat="37.91330615071105" lon="14.964748299095294"><ele>1015.0</ele><time>2026-04-19T19:33:30Z</time></trkpt><trkpt lat="37.91319950333731" lon="14.964784569912586"><ele>1015.0</ele><time>2026-04-19T19:33:31Z</time></trkpt><trkpt lat="37.91309492993507" lon="14.964813182972057"><ele>1015.0</ele><time>2026-04-19T19:33:32Z</time></trkpt><trkpt lat="37.91299382492068" lon="14.964817408330312"><ele>1015.0</ele><time>2026-04-19T19:33:33Z</time></trkpt><trkpt lat="37.91292088110455" lon="14.964765132729832"><ele>1015.0</ele><time>2026-04-19T19:33:34Z</time></trkpt><trkpt lat="37.91282846261051" lon="14.964704450263158"><ele>1015.0</ele><time>2026-04-19T19:33:35Z</time></trkpt><trkpt lat="37.91272098341455" lon="14.964652404831545"><ele>1015.0</ele><time>2026-04-19T19:33:36Z</time></trkpt><trkpt lat="37.912626507087005" lon="14.964566343837248"><ele>1015.0</ele><time>2026-04-19T19:33:37Z</time></trkpt><trkpt lat="37.91252500481665" lon="14.964519109371997"><ele>1015.0</ele><time>2026-04-19T19:33:38Z</time></trkpt><trkpt lat="37.912407408339625" lon="14.964491750798658"><ele>1015.0</ele><time>2026-04-19T19:33:39Z</time></trkpt><trkpt lat="37.91228980461262" lon="14.964490934462757"><ele>1012.25</ele><time>2026-04-19T19:33:40Z</time></trkpt><trkpt lat="37.912169389446056" lon="14.964511716413817"><ele>1009.5</ele><time>2026-04-19T19:33:41Z</time></trkpt><trkpt lat="37.91205305388555" lon="14.964553825472649"><ele>1006.75</ele><time>2026-04-19T19:33:42Z</time></trkpt><trkpt lat="37.91193461667799" lon="14.964583464398656"><ele>1004.0</ele><time>2026-04-19T19:33:43Z</time></trkpt><trkpt lat="37.91182923478927" lon="14.9646312951226"><ele>1003.0</ele><time>2026-04-19T19:33:44Z</time></trkpt><trkpt lat="37.91172655081797" lon="14.964661311530566"><ele>1002.0000000000001</ele><time>2026-04-19T19:33:45Z</time></trkpt><trkpt lat="37.91162563739963" lon="14.964679947430357"><ele>1001.0000000000001</ele><time>2026-04-19T19:33:46Z</time></trkpt><trkpt lat="37.911527859366515" lon="14.964615383430884"><ele>1000.0</ele><time>2026-04-19T19:33:47Z</time></trkpt><trkpt lat="37.911427291235434" lon="14.964557351271004"><ele>999.0</ele><time>2026-04-19T19:33:48Z</time></trkpt><trkpt lat="37.91134111241258" lon="14.96446403352355"><ele>999.0</ele><time>2026-04-19T19:33:49Z</time></trkpt><trkpt lat="37.91125526957247" lon="14.96436582031235"><ele>999.0</ele><time>2026-04-19T19:33:50Z</time></trkpt><trkpt lat="37.91115940617655" lon="14.964269662662453"><ele>999.0</ele><time>2026-04-19T19:33:51Z</time></trkpt><trkpt lat="37.91107043635062" lon="14.964174054700813"><ele>999.0</ele><time>2026-04-19T19:33:52Z</time></trkpt><trkpt lat="37.91098040678776" lon="14.964080926378715"><ele>998.0</ele><time>2026-04-19T19:33:53Z</time></trkpt><trkpt lat="37.9108894126205" lon="14.96399304666732"><ele>997.0</ele><time>2026-04-19T19:33:54Z</time></trkpt><trkpt lat="37.9107896535075" lon="14.963918298494415"><ele>996.0</ele><time>2026-04-19T19:33:55Z</time></trkpt><trkpt lat="37.91068156030929" lon="14.963859284401353"><ele>995.0</ele><time>2026-04-19T19:33:56Z</time></trkpt><trkpt lat="37.91057063922279" lon="14.963815080587604"><ele>995.0</ele><time>2026-04-19T19:33:57Z</time></trkpt><trkpt lat="37.9104539382614" lon="14.963780628426056"><ele>995.0</ele><time>2026-04-19T19:33:58Z</time></trkpt><trkpt lat="37.91034007496559" lon="14.963748611985809"><ele>995.0</ele><time>2026-04-19T19:33:59Z</time></trkpt><trkpt lat="37.91022391437706" lon="14.963709231052738"><ele>995.0</ele><time>2026-04-19T19:34:00Z</time></trkpt><trkpt lat="37.91011144227055" lon="14.963667713285115"><ele>992.2</ele><time>2026-04-19T19:34:01Z</time></trkpt><trkpt lat="37.90999755141311" lon="14.963628928735595"><ele>989.4</ele><time>2026-04-19T19:34:02Z</time></trkpt><trkpt lat="37.909887903383485" lon="14.963595990496136"><ele>986.5999999999999</ele><time>2026-04-19T19:34:03Z</time></trkpt><trkpt lat="37.90978382223124" lon="14.963562274410117"><ele>983.8</ele><time>2026-04-19T19:34:04Z</time></trkpt><trkpt lat="37.90968051173914" lon="14.963529712779465"><ele>981.0</ele><time>2026-04-19T19:34:05Z</time></trkpt><trkpt lat="37.90957458980645" lon="14.963520890278371"><ele>981.0</ele><time>2026-04-19T19:34:06Z</time></trkpt><trkpt lat="37.909465958917195" lon="14.963522353096739"><ele>981.0</ele><time>2026-04-19T19:34:07Z</time></trkpt><trkpt lat="37.90935523342292" lon="14.96354861472588"><ele>981.0</ele><time>2026-04-19T19:34:08Z</time></trkpt><trkpt lat="37.90924053288044" lon="14.963603878231378"><ele>981.0</ele><time>2026-04-19T19:34:09Z</time></trkpt><trkpt lat="37.90912752138686" lon="14.963676449354253"><ele>980.75</ele><time>2026-04-19T19:34:10Z</time></trkpt><trkpt lat="37.909016582057134" lon="14.963756927460377"><ele>980.5</ele><time>2026-04-19T19:34:11Z</time></trkpt><trkpt lat="37.90890357366081" lon="14.963846922337531"><ele>980.25</ele><time>2026-04-19T19:34:12Z</time></trkpt><trkpt lat="37.90879236005192" lon="14.963934548479273"><ele>980.0</ele><time>2026-04-19T19:34:13Z</time></trkpt><trkpt lat="37.9086699607431" lon="14.96398866147289"><ele>980.0</ele><time>2026-04-19T19:34:14Z</time></trkpt><trkpt lat="37.90856197683277" lon="14.964070275171316"><ele>980.0</ele><time>2026-04-19T19:34:15Z</time></trkpt><trkpt lat="37.9084512477689" lon="14.964145823287067"><ele>980.0</ele><time>2026-04-19T19:34:16Z</time></trkpt><trkpt lat="37.90833110396206" lon="14.964163817690935"><ele>980.0</ele><time>2026-04-19T19:34:17Z</time></trkpt><trkpt lat="37.908208630515496" lon="14.964169732813653"><ele>979.75</ele><time>2026-04-19T19:34:18Z</time></trkpt><trkpt lat="37.90808118618695" lon="14.964174833355651"><ele>979.5</ele><time>2026-04-19T19:34:19Z</time></trkpt><trkpt lat="37.90795346151669" lon="14.964198829721218"><ele>979.25</ele><time>2026-04-19T19:34:20Z</time></trkpt><trkpt lat="37.907828126477284" lon="14.964202423981378"><ele>979.0</ele><time>2026-04-19T19:34:21Z</time></trkpt><trkpt lat="37.90770300029925" lon="14.96420623218619"><ele>979.0</ele><time>2026-04-19T19:34:22Z</time></trkpt><trkpt lat="37.907578181318954" lon="14.964189264394422"><ele>979.0</ele><time>2026-04-19T19:34:23Z</time></trkpt><trkpt lat="37.907460067128284" lon="14.96419265305169"><ele>979.0</ele><time>2026-04-19T19:34:24Z</time></trkpt><trkpt lat="37.907336021243054" lon="14.964184304084942"><ele>979.0</ele><time>2026-04-19T19:34:25Z</time></trkpt><trkpt lat="37.90722075049726" lon="14.964139996349669"><ele>978.0</ele><time>2026-04-19T19:34:26Z</time></trkpt><trkpt lat="37.90711301251683" lon="14.96406862635551"><ele>977.0</ele><time>2026-04-19T19:34:27Z</time></trkpt><trkpt lat="37.90701144651022" lon="14.963993301593167"><ele>976.0</ele><time>2026-04-19T19:34:28Z</time></trkpt><trkpt lat="37.90694564287743" lon="14.963870808171329"><ele>975.0</ele><time>2026-04-19T19:34:29Z</time></trkpt><trkpt lat="37.9068947995512" lon="14.96373732795886"><ele>975.0</ele><time>2026-04-19T19:34:30Z</time></trkpt><trkpt lat="37.90684516073207" lon="14.96360320626593"><ele>975.0</ele><time>2026-04-19T19:34:31Z</time></trkpt><trkpt lat="37.906787134594936" lon="14.963465778348773"><ele>975.0</ele><time>2026-04-19T19:34:32Z</time></trkpt><trkpt lat="37.90672143431245" lon="14.963326195253881"><ele>975.0</ele><time>2026-04-19T19:34:33Z</time></trkpt><trkpt lat="37.90665289414692" lon="14.963180177724466"><ele>974.25</ele><time>2026-04-19T19:34:34Z</time></trkpt><trkpt lat="37.90658855318296" lon="14.96302804906239"><ele>973.5</ele><time>2026-04-19T19:34:35Z</time></trkpt><trkpt lat="37.90652532203091" lon="14.962874136695772"><ele>972.75</ele><time>2026-04-19T19:34:36Z</time></trkpt><trkpt lat="37.90646303389104" lon="14.962723120007619"><ele>972.0</ele><time>2026-04-19T19:34:37Z</time></trkpt><trkpt lat="37.90639064196594" lon="14.962583082907619"><ele>973.5</ele><time>2026-04-19T19:34:38Z</time></trkpt><trkpt lat="37.90630690570413" lon="14.962457054660504"><ele>975.0</ele><time>2026-04-19T19:34:39Z</time></trkpt><trkpt lat="37.906212721277086" lon="14.962353007200663"><ele>976.5</ele><time>2026-04-19T19:34:40Z</time></trkpt><trkpt lat="37.90610766300706" lon="14.962269905695605"><ele>978.0</ele><time>2026-04-19T19:34:41Z</time></trkpt><trkpt lat="37.905997012013856" lon="14.962207520824538"><ele>975.75</ele><time>2026-04-19T19:34:42Z</time></trkpt><trkpt lat="37.90588146303126" lon="14.962163879462453"><ele>973.5</ele><time>2026-04-19T19:34:43Z</time></trkpt><trkpt lat="37.90575724237424" lon="14.962142236452127"><ele>971.25</ele><time>2026-04-19T19:34:44Z</time></trkpt><trkpt lat="37.905630180964735" lon="14.96213302245963"><ele>969.0</ele><time>2026-04-19T19:34:45Z</time></trkpt><trkpt lat="37.90549883389201" lon="14.962134865126952"><ele>969.0</ele><time>2026-04-19T19:34:46Z</time></trkpt><trkpt lat="37.90536981120955" lon="14.962106629592023"><ele>969.0</ele><time>2026-04-19T19:34:47Z</time></trkpt><trkpt lat="37.9052477696768" lon="14.962096799665055"><ele>969.0</ele><time>2026-04-19T19:34:48Z</time></trkpt><trkpt lat="37.90512980261457" lon="14.962075580925566"><ele>969.0</ele><time>2026-04-19T19:34:49Z</time></trkpt><trkpt lat="37.90501923881433" lon="14.962030625638217"><ele>967.25</ele><time>2026-04-19T19:34:50Z</time></trkpt><trkpt lat="37.90491386760503" lon="14.961971365938634"><ele>965.5</ele><time>2026-04-19T19:34:51Z</time></trkpt><trkpt lat="37.904819346649006" lon="14.96188251900848"><ele>963.75</ele><time>2026-04-19T19:34:52Z</time></trkpt><trkpt lat="37.90471313604417" lon="14.96179442623824"><ele>962.0</ele><time>2026-04-19T19:34:53Z</time></trkpt><trkpt lat="37.904615074711415" lon="14.961682855262914"><ele>962.25</ele><time>2026-04-19T19:34:54Z</time></trkpt><trkpt lat="37.90451408098733" lon="14.96156641370301"><ele>962.5</ele><time>2026-04-19T19:34:55Z</time></trkpt><trkpt lat="37.90438498960801" lon="14.961501870434994"><ele>962.75</ele><time>2026-04-19T19:34:56Z</time></trkpt><trkpt lat="37.90426188648991" lon="14.961418921379622"><ele>963.0</ele><time>2026-04-19T19:34:57Z</time></trkpt><trkpt lat="37.90414058398319" lon="14.961322012408338"><ele>963.0</ele><time>2026-04-19T19:34:58Z</time></trkpt><trkpt lat="37.90402270371895" lon="14.961222315889184"><ele>963.0</ele><time>2026-04-19T19:34:59Z</time></trkpt><trkpt lat="37.903909561928046" lon="14.961129274184668"><ele>963.0</ele><time>2026-04-19T19:35:00Z</time></trkpt><trkpt lat="37.90380283664046" lon="14.961041028127289"><ele>963.0</ele><time>2026-04-19T19:35:01Z</time></trkpt><trkpt lat="37.90370633103876" lon="14.9609554011709"><ele>966.2</ele><time>2026-04-19T19:35:02Z</time></trkpt><trkpt lat="37.90362600085267" lon="14.960860089266031"><ele>969.4</ele><time>2026-04-19T19:35:03Z</time></trkpt><trkpt lat="37.903575056387076" lon="14.96074503374472"><ele>972.6000000000001</ele><time>2026-04-19T19:35:04Z</time></trkpt><trkpt lat="37.903559569665006" lon="14.96061761002473"><ele>975.8000000000001</ele><time>2026-04-19T19:35:05Z</time></trkpt><trkpt lat="37.903553706569355" lon="14.96048804693266"><ele>979.0</ele><time>2026-04-19T19:35:06Z</time></trkpt><trkpt lat="37.90353664489309" lon="14.960357461145255"><ele>979.0</ele><time>2026-04-19T19:35:07Z</time></trkpt><trkpt lat="37.90350576805537" lon="14.960223423702889"><ele>979.0</ele><time>2026-04-19T19:35:08Z</time></trkpt><trkpt lat="37.90345845677851" lon="14.960091947391774"><ele>979.0</ele><time>2026-04-19T19:35:09Z</time></trkpt><trkpt lat="37.903388808725296" lon="14.959963187836932"><ele>979.0</ele><time>2026-04-19T19:35:10Z</time></trkpt><trkpt lat="37.90331886926794" lon="14.959840072059237"><ele>977.75</ele><time>2026-04-19T19:35:11Z</time></trkpt><trkpt lat="37.90323930172954" lon="14.95971835069043"><ele>976.5</ele><time>2026-04-19T19:35:12Z</time></trkpt><trkpt lat="37.90314592966007" lon="14.959612837048109"><ele>975.25</ele><time>2026-04-19T19:35:13Z</time></trkpt><trkpt lat="37.90304230099089" lon="14.95950979269406"><ele>974.0</ele><time>2026-04-19T19:35:14Z</time></trkpt><trkpt lat="37.902937783848984" lon="14.959410813745952"><ele>974.0</ele><time>2026-04-19T19:35:15Z</time></trkpt><trkpt lat="37.902833950062025" lon="14.959318190579793"><ele>974.0</ele><time>2026-04-19T19:35:16Z</time></trkpt><trkpt lat="37.902728085091894" lon="14.959233627482693"><ele>974.0</ele><time>2026-04-19T19:35:17Z</time></trkpt><trkpt lat="37.902612846448406" lon="14.959162695822453"><ele>974.0</ele><time>2026-04-19T19:35:18Z</time></trkpt><trkpt lat="37.902491439137364" lon="14.959101058367523"><ele>975.25</ele><time>2026-04-19T19:35:19Z</time></trkpt><trkpt lat="37.902366584090544" lon="14.959045200947592"><ele>976.5</ele><time>2026-04-19T19:35:20Z</time></trkpt><trkpt lat="37.902239641019044" lon="14.959001654684897"><ele>977.75</ele><time>2026-04-19T19:35:21Z</time></trkpt><trkpt lat="37.902109795186405" lon="14.958964570696661"><ele>979.0</ele><time>2026-04-19T19:35:22Z</time></trkpt><trkpt lat="37.90198163786354" lon="14.95892402210092"><ele>979.0</ele><time>2026-04-19T19:35:23Z</time></trkpt><trkpt lat="37.90186169440266" lon="14.95887812006457"><ele>979.0</ele><time>2026-04-19T19:35:24Z</time></trkpt><trkpt lat="37.90174416852879" lon="14.958826007883234"><ele>979.0</ele><time>2026-04-19T19:35:25Z</time></trkpt><trkpt lat="37.90162891377526" lon="14.958761913477442"><ele>979.0</ele><time>2026-04-19T19:35:26Z</time></trkpt><trkpt lat="37.901532269552376" lon="14.95866403283527"><ele>979.75</ele><time>2026-04-19T19:35:27Z</time></trkpt><trkpt lat="37.90143113876155" lon="14.958575807623587"><ele>980.5</ele><time>2026-04-19T19:35:28Z</time></trkpt><trkpt lat="37.90134717409253" lon="14.958455038368074"><ele>981.25</ele><time>2026-04-19T19:35:29Z</time></trkpt><trkpt lat="37.901267327831995" lon="14.958321329979537"><ele>982.0</ele><time>2026-04-19T19:35:30Z</time></trkpt><trkpt lat="37.90117348768188" lon="14.958183036829919"><ele>980.5</ele><time>2026-04-19T19:35:31Z</time></trkpt><trkpt lat="37.901069964850606" lon="14.958051281533688"><ele>979.0</ele><time>2026-04-19T19:35:32Z</time></trkpt><trkpt lat="37.90096540235934" lon="14.957921039954382"><ele>977.5</ele><time>2026-04-19T19:35:33Z</time></trkpt><trkpt lat="37.90087123138335" lon="14.957786111190284"><ele>976.0</ele><time>2026-04-19T19:35:34Z</time></trkpt><trkpt lat="37.900791430545254" lon="14.957640997665933"><ele>977.0</ele><time>2026-04-19T19:35:35Z</time></trkpt><trkpt lat="37.90072885916269" lon="14.957485621810376"><ele>978.0</ele><time>2026-04-19T19:35:36Z</time></trkpt><trkpt lat="37.90067553673208" lon="14.957321165002059"><ele>979.0</ele><time>2026-04-19T19:35:37Z</time></trkpt><trkpt lat="37.90062813366944" lon="14.95715329462783"><ele>980.0</ele><time>2026-04-19T19:35:38Z</time></trkpt><trkpt lat="37.90057756966836" lon="14.956987899754008"><ele>980.0</ele><time>2026-04-19T19:35:39Z</time></trkpt><trkpt lat="37.900524614999156" lon="14.956827317698899"><ele>980.0</ele><time>2026-04-19T19:35:40Z</time></trkpt><trkpt lat="37.90046480236536" lon="14.956671484669366"><ele>980.0</ele><time>2026-04-19T19:35:41Z</time></trkpt><trkpt lat="37.90038931652492" lon="14.956527340665229"><ele>980.0</ele><time>2026-04-19T19:35:42Z</time></trkpt><trkpt lat="37.900295564977604" lon="14.956399616915846"><ele>982.25</ele><time>2026-04-19T19:35:43Z</time></trkpt><trkpt lat="37.90018721584094" lon="14.95628504150635"><ele>984.5</ele><time>2026-04-19T19:35:44Z</time></trkpt><trkpt lat="37.900074618725405" lon="14.956172923678238"><ele>986.75</ele><time>2026-04-19T19:35:45Z</time></trkpt><trkpt lat="37.89996026394517" lon="14.956058009712844"><ele>989.0</ele><time>2026-04-19T19:35:46Z</time></trkpt><trkpt lat="37.89984951875357" lon="14.955936168736285"><ele>982.6666666666667</ele><time>2026-04-19T19:35:47Z</time></trkpt><trkpt lat="37.89974060220662" lon="14.955807275272084"><ele>976.3333333333333</ele><time>2026-04-19T19:35:48Z</time></trkpt><trkpt lat="37.89963206609062" lon="14.955674254493525"><ele>970.0</ele><time>2026-04-19T19:35:49Z</time></trkpt><trkpt lat="37.899523042268164" lon="14.955544035801887"><ele>970.0</ele><time>2026-04-19T19:35:50Z</time></trkpt><trkpt lat="37.89941516699638" lon="14.955404683167894"><ele>970.0</ele><time>2026-04-19T19:35:51Z</time></trkpt><trkpt lat="37.899306868987324" lon="14.955266421660184"><ele>970.0</ele><time>2026-04-19T19:35:52Z</time></trkpt><trkpt lat="37.89920082686116" lon="14.955126760581232"><ele>968.25</ele><time>2026-04-19T19:35:53Z</time></trkpt><trkpt lat="37.8990974254956" lon="14.954986892836105"><ele>966.5</ele><time>2026-04-19T19:35:54Z</time></trkpt><trkpt lat="37.89899001390825" lon="14.954852888855838"><ele>964.75</ele><time>2026-04-19T19:35:55Z</time></trkpt><trkpt lat="37.898886105434165" lon="14.954729267753525"><ele>963.0</ele><time>2026-04-19T19:35:56Z</time></trkpt><trkpt lat="37.89878589924371" lon="14.954630423353091"><ele>963.0</ele><time>2026-04-19T19:35:57Z</time></trkpt><trkpt lat="37.898678624399004" lon="14.954564193507572"><ele>963.0</ele><time>2026-04-19T19:35:58Z</time></trkpt><trkpt lat="37.89857242105211" lon="14.954515252044118"><ele>963.0</ele><time>2026-04-19T19:35:59Z</time></trkpt><trkpt lat="37.89845552975799" lon="14.95452925030958"><ele>963.0</ele><time>2026-04-19T19:36:00Z</time></trkpt><trkpt lat="37.89835585010972" lon="14.954598263734937"><ele>960.25</ele><time>2026-04-19T19:36:01Z</time></trkpt><trkpt lat="37.89825750403412" lon="14.954663696960543"><ele>957.5</ele><time>2026-04-19T19:36:02Z</time></trkpt><trkpt lat="37.89819592609046" lon="14.954781835094735"><ele>954.75</ele><time>2026-04-19T19:36:03Z</time></trkpt><trkpt lat="37.89814399665829" lon="14.954906101141626"><ele>952.0</ele><time>2026-04-19T19:36:04Z</time></trkpt><trkpt lat="37.898130305175776" lon="14.955069465185606"><ele>952.25</ele><time>2026-04-19T19:36:05Z</time></trkpt><trkpt lat="37.89816805502468" lon="14.955255007865581"><ele>952.5</ele><time>2026-04-19T19:36:06Z</time></trkpt><trkpt lat="37.89824643776491" lon="14.95542614596371"><ele>952.75</ele><time>2026-04-19T19:36:07Z</time></trkpt><trkpt lat="37.89833685588294" lon="14.955549032878867"><ele>953.0</ele><time>2026-04-19T19:36:09Z</time></trkpt><trkpt lat="37.89848247608005" lon="14.955648678503506"><ele>953.0</ele><time>2026-04-19T19:36:10Z</time></trkpt><trkpt lat="37.89857982384501" lon="14.955761687652164"><ele>953.0</ele><time>2026-04-19T19:36:11Z</time></trkpt><trkpt lat="37.89868192567237" lon="14.955870624955722"><ele>953.0</ele><time>2026-04-19T19:36:12Z</time></trkpt><trkpt lat="37.89879061421122" lon="14.95598667114626"><ele>953.0</ele><time>2026-04-19T19:36:13Z</time></trkpt><trkpt lat="37.898910858836004" lon="14.95609001548273"><ele>954.25</ele><time>2026-04-19T19:36:14Z</time></trkpt><trkpt lat="37.899013926293335" lon="14.95620300451864"><ele>955.5</ele><time>2026-04-19T19:36:15Z</time></trkpt><trkpt lat="37.89911747028032" lon="14.956313765416793"><ele>956.75</ele><time>2026-04-19T19:36:16Z</time></trkpt><trkpt lat="37.899223764380615" lon="14.956428031356252"><ele>958.0</ele><time>2026-04-19T19:36:17Z</time></trkpt><trkpt lat="37.8993237712463" lon="14.956537850953042"><ele>958.0</ele><time>2026-04-19T19:36:18Z</time></trkpt><trkpt lat="37.89942085813935" lon="14.956657861482665"><ele>958.0</ele><time>2026-04-19T19:36:19Z</time></trkpt><trkpt lat="37.89949512456303" lon="14.956757762797725"><ele>958.0</ele><time>2026-04-19T19:36:20Z</time></trkpt><trkpt lat="37.89954347219173" lon="14.956857073745157"><ele>958.0</ele><time>2026-04-19T19:36:21Z</time></trkpt><trkpt lat="37.899594014166134" lon="14.956955521621351"><ele>958.0</ele><time>2026-04-19T19:36:22Z</time></trkpt><trkpt lat="37.8995597573696" lon="14.957067361112708"><ele>956.2</ele><time>2026-04-19T19:36:23Z</time></trkpt><trkpt lat="37.89949081396911" lon="14.957153180500365"><ele>954.4</ele><time>2026-04-19T19:36:24Z</time></trkpt><trkpt lat="37.89938446730499" lon="14.957176284785332"><ele>952.6000000000001</ele><time>2026-04-19T19:36:25Z</time></trkpt><trkpt lat="37.89929134550628" lon="14.957100869207286"><ele>950.8000000000001</ele><time>2026-04-19T19:36:26Z</time></trkpt><trkpt lat="37.89923771216351" lon="14.95702544976897"><ele>949.0</ele><time>2026-04-19T19:36:27Z</time></trkpt><trkpt lat="37.89917166126427" lon="14.956954197745523"><ele>944.0</ele><time>2026-04-19T19:36:28Z</time></trkpt><trkpt lat="37.899124315104785" lon="14.95687484269948"><ele>939.0000000000001</ele><time>2026-04-19T19:36:29Z</time></trkpt><trkpt lat="37.899022008984744" lon="14.956782671559967"><ele>934.0000000000001</ele><time>2026-04-19T19:36:30Z</time></trkpt><trkpt lat="37.89891699563415" lon="14.956739818553661"><ele>929.0</ele><time>2026-04-19T19:36:31Z</time></trkpt><trkpt lat="37.89879906985791" lon="14.956739465819167"><ele>924.0</ele><time>2026-04-19T19:36:32Z</time></trkpt><trkpt lat="37.898670978649946" lon="14.956739247175202"><ele>924.0</ele><time>2026-04-19T19:36:33Z</time></trkpt><trkpt lat="37.8985467447482" lon="14.956716575109231"><ele>924.0</ele><time>2026-04-19T19:36:34Z</time></trkpt><trkpt lat="37.898424249920694" lon="14.95670925241505"><ele>924.0</ele><time>2026-04-19T19:36:35Z</time></trkpt><trkpt lat="37.89830717009191" lon="14.956691257410283"><ele>924.0</ele><time>2026-04-19T19:36:36Z</time></trkpt><trkpt lat="37.89818012464413" lon="14.956668486383535"><ele>924.5</ele><time>2026-04-19T19:36:37Z</time></trkpt><trkpt lat="37.898049640309395" lon="14.956630167212655"><ele>925.0</ele><time>2026-04-19T19:36:38Z</time></trkpt><trkpt lat="37.897927172798326" lon="14.95658206093689"><ele>925.5</ele><time>2026-04-19T19:36:39Z</time></trkpt><trkpt lat="37.89780468405525" lon="14.956540735306085"><ele>926.0</ele><time>2026-04-19T19:36:40Z</time></trkpt><trkpt lat="37.89768674843009" lon="14.956477635337702"><ele>923.5</ele><time>2026-04-19T19:36:41Z</time></trkpt><trkpt lat="37.8975701625983" lon="14.956424439375814"><ele>921.0</ele><time>2026-04-19T19:36:42Z</time></trkpt><trkpt lat="37.897457975892" lon="14.956369113933599"><ele>918.5</ele><time>2026-04-19T19:36:43Z</time></trkpt><trkpt lat="37.89735265486018" lon="14.956297678331575"><ele>916.0</ele><time>2026-04-19T19:36:44Z</time></trkpt><trkpt lat="37.89727752655016" lon="14.956186277367362"><ele>916.0</ele><time>2026-04-19T19:36:45Z</time></trkpt><trkpt lat="37.89718820422126" lon="14.956092660839854"><ele>916.0</ele><time>2026-04-19T19:36:46Z</time></trkpt><trkpt lat="37.89711116308201" lon="14.955975782891047"><ele>916.0</ele><time>2026-04-19T19:36:47Z</time></trkpt><trkpt lat="37.89702785850978" lon="14.955856211044214"><ele>916.0</ele><time>2026-04-19T19:36:48Z</time></trkpt><trkpt lat="37.89695192832274" lon="14.955737687472281"><ele>914.25</ele><time>2026-04-19T19:36:49Z</time></trkpt><trkpt lat="37.896878395157586" lon="14.955617984157055"><ele>912.5</ele><time>2026-04-19T19:36:50Z</time></trkpt><trkpt lat="37.89680685883387" lon="14.955501877781899"><ele>910.75</ele><time>2026-04-19T19:36:51Z</time></trkpt><trkpt lat="37.896720803675095" lon="14.955405652838799"><ele>909.0</ele><time>2026-04-19T19:36:52.001Z</time></trkpt><trkpt lat="37.89661336391277" lon="14.95534851054082"><ele>909.0</ele><time>2026-04-19T19:36:53Z</time></trkpt><trkpt lat="37.89649963871762" lon="14.955315473209815"><ele>909.0</ele><time>2026-04-19T19:36:54.001Z</time></trkpt><trkpt lat="37.89638307304007" lon="14.955333082576233"><ele>909.0</ele><time>2026-04-19T19:36:55.001Z</time></trkpt><trkpt lat="37.89627223194055" lon="14.955389231998662"><ele>909.0</ele><time>2026-04-19T19:36:56.001Z</time></trkpt><trkpt lat="37.896164804582035" lon="14.955430398183577"><ele>909.0</ele><time>2026-04-19T19:36:57.001Z</time></trkpt><trkpt lat="37.896053909591956" lon="14.955388013104988"><ele>909.0</ele><time>2026-04-19T19:36:58.001Z</time></trkpt><trkpt lat="37.895945452737465" lon="14.955323674703486"><ele>909.0</ele><time>2026-04-19T19:36:59Z</time></trkpt><trkpt lat="37.8958196142484" lon="14.955269920765058"><ele>909.0</ele><time>2026-04-19T19:37:00Z</time></trkpt><trkpt lat="37.89570090569928" lon="14.955200080653054"><ele>910.0</ele><time>2026-04-19T19:37:01Z</time></trkpt><trkpt lat="37.89558130864563" lon="14.955131521723347"><ele>911.0</ele><time>2026-04-19T19:37:02Z</time></trkpt><trkpt lat="37.89548496415522" lon="14.955015001067967"><ele>912.0</ele><time>2026-04-19T19:37:03Z</time></trkpt><trkpt lat="37.895390538885934" lon="14.954895058845732"><ele>913.0</ele><time>2026-04-19T19:37:04Z</time></trkpt><trkpt lat="37.89528979603642" lon="14.954768650378565"><ele>913.0</ele><time>2026-04-19T19:37:05Z</time></trkpt><trkpt lat="37.8951843141428" lon="14.954642219985194"><ele>913.0</ele><time>2026-04-19T19:37:06Z</time></trkpt><trkpt lat="37.89507033774221" lon="14.954521986116559"><ele>913.0</ele><time>2026-04-19T19:37:07Z</time></trkpt><trkpt lat="37.89494322476688" lon="14.954418109877555"><ele>913.0</ele><time>2026-04-19T19:37:08Z</time></trkpt><trkpt lat="37.8948138899781" lon="14.954329515470972"><ele>912.5</ele><time>2026-04-19T19:37:09Z</time></trkpt><trkpt lat="37.89468456244217" lon="14.954255208116267"><ele>912.0</ele><time>2026-04-19T19:37:10Z</time></trkpt><trkpt lat="37.89455846380196" lon="14.95419010100967"><ele>911.5</ele><time>2026-04-19T19:37:11Z</time></trkpt><trkpt lat="37.89442830953001" lon="14.954143472524205"><ele>911.0</ele><time>2026-04-19T19:37:12Z</time></trkpt><trkpt lat="37.89428520029353" lon="14.95411610167098"><ele>906.3333333333334</ele><time>2026-04-19T19:37:13Z</time></trkpt><trkpt lat="37.89413831864105" lon="14.954093397749244"><ele>901.6666666666667</ele><time>2026-04-19T19:37:14Z</time></trkpt><trkpt lat="37.89398938690004" lon="14.954051089848555"><ele>897.0</ele><time>2026-04-19T19:37:15Z</time></trkpt><trkpt lat="37.89383779787475" lon="14.954024590260468"><ele>897.0</ele><time>2026-04-19T19:37:16Z</time></trkpt><trkpt lat="37.893680368738984" lon="14.954017312136216"><ele>897.0</ele><time>2026-04-19T19:37:17Z</time></trkpt><trkpt lat="37.8935291841816" lon="14.953989601831767"><ele>897.0</ele><time>2026-04-19T19:37:18Z</time></trkpt><trkpt lat="37.8933829349594" lon="14.95394548707936"><ele>895.75</ele><time>2026-04-19T19:37:19Z</time></trkpt><trkpt lat="37.89323880010338" lon="14.953923582620632"><ele>894.5</ele><time>2026-04-19T19:37:20Z</time></trkpt><trkpt lat="37.89310804565931" lon="14.953923827539342"><ele>893.25</ele><time>2026-04-19T19:37:21Z</time></trkpt><trkpt lat="37.89299787311506" lon="14.95391256515854"><ele>892.0</ele><time>2026-04-19T19:37:22Z</time></trkpt><trkpt lat="37.89290095883244" lon="14.953948519388446"><ele>892.0</ele><time>2026-04-19T19:37:23Z</time></trkpt><trkpt lat="37.89281342930522" lon="14.953977607249392"><ele>892.0</ele><time>2026-04-19T19:37:24Z</time></trkpt><trkpt lat="37.8927926882143" lon="14.954122515513816"><ele>892.0</ele><time>2026-04-19T19:37:25Z</time></trkpt><trkpt lat="37.89278442605894" lon="14.954246403430213"><ele>892.0</ele><time>2026-04-19T19:37:26Z</time></trkpt><trkpt lat="37.892848264948476" lon="14.954366093951856"><ele>892.0</ele><time>2026-04-19T19:37:27Z</time></trkpt><trkpt lat="37.89292284185822" lon="14.954472863229789"><ele>889.5</ele><time>2026-04-19T19:37:28Z</time></trkpt><trkpt lat="37.89301220857715" lon="14.954567577043838"><ele>887.0</ele><time>2026-04-19T19:37:29Z</time></trkpt><trkpt lat="37.8931014277648" lon="14.95467487341277"><ele>884.5</ele><time>2026-04-19T19:37:30Z</time></trkpt><trkpt lat="37.89319519822643" lon="14.954758324816334"><ele>882.0</ele><time>2026-04-19T19:37:31Z</time></trkpt><trkpt lat="37.89330452269792" lon="14.954789605944557"><ele>882.0</ele><time>2026-04-19T19:37:32Z</time></trkpt><trkpt lat="37.89341035601634" lon="14.954790859430446"><ele>882.0</ele><time>2026-04-19T19:37:33Z</time></trkpt><trkpt lat="37.89348500473193" lon="14.954856770926366"><ele>882.0</ele><time>2026-04-19T19:37:34Z</time></trkpt><trkpt lat="37.893526256070835" lon="14.954928023112817"><ele>882.0</ele><time>2026-04-19T19:37:35Z</time></trkpt><trkpt lat="37.89350934092809" lon="14.95504907972147"><ele>882.0</ele><time>2026-04-19T19:37:36Z</time></trkpt><trkpt lat="37.89346036623017" lon="14.955141359148149"><ele>878.6666666666666</ele><time>2026-04-19T19:37:37Z</time></trkpt><trkpt lat="37.893395462827336" lon="14.955195798583121"><ele>875.3333333333333</ele><time>2026-04-19T19:37:38Z</time></trkpt><trkpt lat="37.89332588227326" lon="14.955199615771042"><ele>872.0</ele><time>2026-04-19T19:37:39Z</time></trkpt><trkpt lat="37.89324892751402" lon="14.955140652690105"><ele>868.6666666666666</ele><time>2026-04-19T19:37:40Z</time></trkpt><trkpt lat="37.89316022965037" lon="14.955119356977326"><ele>865.3333333333333</ele><time>2026-04-19T19:37:41Z</time></trkpt><trkpt lat="37.8930709317597" lon="14.955094224016676"><ele>862.0</ele><time>2026-04-19T19:37:42Z</time></trkpt><trkpt lat="37.892974278536094" lon="14.955078238813432"><ele>862.0</ele><time>2026-04-19T19:37:43Z</time></trkpt><trkpt lat="37.892873690978334" lon="14.955090261462786"><ele>862.0</ele><time>2026-04-19T19:37:44Z</time></trkpt><trkpt lat="37.89276691519434" lon="14.955140969279151"><ele>862.0</ele><time>2026-04-19T19:37:45Z</time></trkpt><trkpt lat="37.892667594721544" lon="14.955229592017114"><ele>862.0</ele><time>2026-04-19T19:37:46Z</time></trkpt><trkpt lat="37.892557738540646" lon="14.955290000790814"><ele>862.75</ele><time>2026-04-19T19:37:47Z</time></trkpt><trkpt lat="37.89243713305662" lon="14.95537495892368"><ele>863.5</ele><time>2026-04-19T19:37:48Z</time></trkpt><trkpt lat="37.89231739951579" lon="14.955458005366516"><ele>864.25</ele><time>2026-04-19T19:37:49Z</time></trkpt><trkpt lat="37.892203519478" lon="14.955536508816884"><ele>865.0</ele><time>2026-04-19T19:37:50Z</time></trkpt><trkpt lat="37.89209476573519" lon="14.95560646280067"><ele>865.0</ele><time>2026-04-19T19:37:51Z</time></trkpt><trkpt lat="37.891980893447645" lon="14.955663016339436"><ele>865.0</ele><time>2026-04-19T19:37:52Z</time></trkpt><trkpt lat="37.89186214697313" lon="14.955706162799391"><ele>865.0</ele><time>2026-04-19T19:37:53Z</time></trkpt><trkpt lat="37.89173591766865" lon="14.955749550273357"><ele>865.0</ele><time>2026-04-19T19:37:54Z</time></trkpt><trkpt lat="37.89160533246284" lon="14.955748196905546"><ele>864.5</ele><time>2026-04-19T19:37:55Z</time></trkpt><trkpt lat="37.891474309398674" lon="14.955724396132219"><ele>864.0</ele><time>2026-04-19T19:37:56Z</time></trkpt><trkpt lat="37.89134273137844" lon="14.955681603233804"><ele>863.5</ele><time>2026-04-19T19:37:57Z</time></trkpt><trkpt lat="37.89121619461087" lon="14.955614304549133"><ele>863.0</ele><time>2026-04-19T19:37:58Z</time></trkpt><trkpt lat="37.891091440162114" lon="14.955520425420165"><ele>863.0</ele><time>2026-04-19T19:37:59Z</time></trkpt><trkpt lat="37.89097522772047" lon="14.955420833678296"><ele>863.0</ele><time>2026-04-19T19:38:00Z</time></trkpt><trkpt lat="37.89086249405156" lon="14.955330769781549"><ele>863.0</ele><time>2026-04-19T19:38:01Z</time></trkpt><trkpt lat="37.89074287074472" lon="14.955262153361923"><ele>863.0</ele><time>2026-04-19T19:38:02Z</time></trkpt><trkpt lat="37.89061182098017" lon="14.955233097832345"><ele>859.0</ele><time>2026-04-19T19:38:03Z</time></trkpt><trkpt lat="37.890477180974315" lon="14.955245073802093"><ele>855.0</ele><time>2026-04-19T19:38:04Z</time></trkpt><trkpt lat="37.890337566920586" lon="14.95527873824834"><ele>851.0</ele><time>2026-04-19T19:38:05Z</time></trkpt><trkpt lat="37.890194470310455" lon="14.955273120239463"><ele>847.0</ele><time>2026-04-19T19:38:06Z</time></trkpt><trkpt lat="37.89004743894874" lon="14.95528716366879"><ele>844.25</ele><time>2026-04-19T19:38:07Z</time></trkpt><trkpt lat="37.88990597195645" lon="14.95529939496849"><ele>841.5</ele><time>2026-04-19T19:38:08Z</time></trkpt><trkpt lat="37.88976863898508" lon="14.95530194881564"><ele>838.75</ele><time>2026-04-19T19:38:09Z</time></trkpt><trkpt lat="37.88963277340393" lon="14.955289611796303"><ele>836.0</ele><time>2026-04-19T19:38:10Z</time></trkpt><trkpt lat="37.88949287156929" lon="14.955285998768963"><ele>836.0</ele><time>2026-04-19T19:38:11Z</time></trkpt><trkpt lat="37.88935555120377" lon="14.95525784417096"><ele>836.0</ele><time>2026-04-19T19:38:12Z</time></trkpt><trkpt lat="37.88921640936621" lon="14.955234518469618"><ele>836.0</ele><time>2026-04-19T19:38:13Z</time></trkpt><trkpt lat="37.8890757154001" lon="14.95521755188018"><ele>836.0</ele><time>2026-04-19T19:38:14Z</time></trkpt><trkpt lat="37.88893470339256" lon="14.955198431581712"><ele>835.5</ele><time>2026-04-19T19:38:15Z</time></trkpt><trkpt lat="37.88879258084428" lon="14.955175662304532"><ele>835.0</ele><time>2026-04-19T19:38:16Z</time></trkpt><trkpt lat="37.88865052750994" lon="14.955132798699484"><ele>834.5</ele><time>2026-04-19T19:38:17Z</time></trkpt><trkpt lat="37.888508247408936" lon="14.955107992373277"><ele>834.0</ele><time>2026-04-19T19:38:18Z</time></trkpt><trkpt lat="37.8883680256837" lon="14.955080354200575"><ele>833.25</ele><time>2026-04-19T19:38:19Z</time></trkpt><trkpt lat="37.88823321770738" lon="14.95504952267805"><ele>832.5</ele><time>2026-04-19T19:38:20Z</time></trkpt><trkpt lat="37.88810996087462" lon="14.954972717490243"><ele>831.75</ele><time>2026-04-19T19:38:21Z</time></trkpt><trkpt lat="37.88798586435686" lon="14.954879774387434"><ele>831.0</ele><time>2026-04-19T19:38:22Z</time></trkpt><trkpt lat="37.88785167270107" lon="14.954791557067914"><ele>831.3333333333333</ele><time>2026-04-19T19:38:23Z</time></trkpt><trkpt lat="37.88771712168305" lon="14.954702575804331"><ele>831.6666666666666</ele><time>2026-04-19T19:38:24Z</time></trkpt><trkpt lat="37.88757967236376" lon="14.954610175632665"><ele>832.0</ele><time>2026-04-19T19:38:25Z</time></trkpt><trkpt lat="37.88744453777412" lon="14.954508692603127"><ele>832.0</ele><time>2026-04-19T19:38:26Z</time></trkpt><trkpt lat="37.88730312352162" lon="14.95440017305"><ele>832.0</ele><time>2026-04-19T19:38:27Z</time></trkpt><trkpt lat="37.88715324801767" lon="14.954282336436163"><ele>832.0</ele><time>2026-04-19T19:38:28Z</time></trkpt><trkpt lat="37.88701421243285" lon="14.954161119900409"><ele>833.3333333333333</ele><time>2026-04-19T19:38:29Z</time></trkpt><trkpt lat="37.886874663374414" lon="14.954051157578578"><ele>834.6666666666667</ele><time>2026-04-19T19:38:30Z</time></trkpt><trkpt lat="37.886744817839954" lon="14.953946591837953"><ele>836.0</ele><time>2026-04-19T19:38:31Z</time></trkpt><trkpt lat="37.886615678190566" lon="14.953837811359772"><ele>834.5</ele><time>2026-04-19T19:38:32Z</time></trkpt><trkpt lat="37.886493245520874" lon="14.953726464649959"><ele>833.0</ele><time>2026-04-19T19:38:33Z</time></trkpt><trkpt lat="37.886393937267215" lon="14.953602512522217"><ele>831.5</ele><time>2026-04-19T19:38:34Z</time></trkpt><trkpt lat="37.88632933821293" lon="14.953458851276846"><ele>830.0</ele><time>2026-04-19T19:38:35Z</time></trkpt><trkpt lat="37.88629170866991" lon="14.953295635801732"><ele>830.0</ele><time>2026-04-19T19:38:36Z</time></trkpt><trkpt lat="37.88627742906118" lon="14.953134704425986"><ele>830.0</ele><time>2026-04-19T19:38:37Z</time></trkpt><trkpt lat="37.88628698051447" lon="14.952978150526258"><ele>830.0</ele><time>2026-04-19T19:38:38Z</time></trkpt><trkpt lat="37.88631748359463" lon="14.952828246189743"><ele>830.0</ele><time>2026-04-19T19:38:39Z</time></trkpt><trkpt lat="37.8863454301703" lon="14.952682209711554"><ele>830.0</ele><time>2026-04-19T19:38:40Z</time></trkpt><trkpt lat="37.88636027999188" lon="14.95254208667765"><ele>830.0</ele><time>2026-04-19T19:38:41Z</time></trkpt><trkpt lat="37.88634570849533" lon="14.95240397454174"><ele>830.0</ele><time>2026-04-19T19:38:42Z</time></trkpt><trkpt lat="37.88629280194864" lon="14.952282408031746"><ele>830.0</ele><time>2026-04-19T19:38:43Z</time></trkpt><trkpt lat="37.88620795143779" lon="14.952189183058781"><ele>830.0</ele><time>2026-04-19T19:38:44Z</time></trkpt><trkpt lat="37.88610446057778" lon="14.952117817066064"><ele>830.0</ele><time>2026-04-19T19:38:45Z</time></trkpt><trkpt lat="37.886005084033194" lon="14.952043995688971"><ele>830.0</ele><time>2026-04-19T19:38:46Z</time></trkpt><trkpt lat="37.88591883739766" lon="14.951938838984818"><ele>830.0</ele><time>2026-04-19T19:38:47Z</time></trkpt><trkpt lat="37.88584430745448" lon="14.951800260852064"><ele>830.0</ele><time>2026-04-19T19:38:48Z</time></trkpt><trkpt lat="37.88577423427023" lon="14.951653422327166"><ele>826.75</ele><time>2026-04-19T19:38:49Z</time></trkpt><trkpt lat="37.88571317068565" lon="14.95149986047054"><ele>823.5</ele><time>2026-04-19T19:38:50Z</time></trkpt><trkpt lat="37.885666591255905" lon="14.951343860168288"><ele>820.25</ele><time>2026-04-19T19:38:51.001Z</time></trkpt><trkpt lat="37.88562796794167" lon="14.951194017397986"><ele>817.0</ele><time>2026-04-19T19:38:52.001Z</time></trkpt><trkpt lat="37.88558870765749" lon="14.951051604700812"><ele>817.0</ele><time>2026-04-19T19:38:53.001Z</time></trkpt><trkpt lat="37.88552581965004" lon="14.950924193825951"><ele>817.0</ele><time>2026-04-19T19:38:54.001Z</time></trkpt><trkpt lat="37.88544348949299" lon="14.95081069152915"><ele>817.0</ele><time>2026-04-19T19:38:55.001Z</time></trkpt><trkpt lat="37.88534322366793" lon="14.950715629200829"><ele>817.0</ele><time>2026-04-19T19:38:56.001Z</time></trkpt><trkpt lat="37.88522918986042" lon="14.950650815990981"><ele>819.0</ele><time>2026-04-19T19:38:57.001Z</time></trkpt><trkpt lat="37.88510469453547" lon="14.950622973974651"><ele>821.0</ele><time>2026-04-19T19:38:58.001Z</time></trkpt><trkpt lat="37.88497920644425" lon="14.950573766011315"><ele>823.0</ele><time>2026-04-19T19:38:59.001Z</time></trkpt><trkpt lat="37.88484960953772" lon="14.950537255846257"><ele>825.0</ele><time>2026-04-19T19:39:00.001Z</time></trkpt><trkpt lat="37.88471640884352" lon="14.950521758451625"><ele>820.0</ele><time>2026-04-19T19:39:01.001Z</time></trkpt><trkpt lat="37.884587545001004" lon="14.950480882135917"><ele>815.0</ele><time>2026-04-19T19:39:02.001Z</time></trkpt><trkpt lat="37.884462884561046" lon="14.950442956981794"><ele>810.0</ele><time>2026-04-19T19:39:03.001Z</time></trkpt><trkpt lat="37.88434056856555" lon="14.950409050242087"><ele>805.0</ele><time>2026-04-19T19:39:04.001Z</time></trkpt><trkpt lat="37.88422570899922" lon="14.950353059505243"><ele>801.0</ele><time>2026-04-19T19:39:05Z</time></trkpt><trkpt lat="37.884103459064995" lon="14.950328148506825"><ele>797.0</ele><time>2026-04-19T19:39:06Z</time></trkpt><trkpt lat="37.88398760364306" lon="14.950265333867558"><ele>793.0</ele><time>2026-04-19T19:39:07Z</time></trkpt><trkpt lat="37.88388173031937" lon="14.950180220003759"><ele>789.0</ele><time>2026-04-19T19:39:08Z</time></trkpt><trkpt lat="37.883786842005826" lon="14.950082749319236"><ele>794.0</ele><time>2026-04-19T19:39:09Z</time></trkpt><trkpt lat="37.88369860193089" lon="14.94997507336655"><ele>799.0</ele><time>2026-04-19T19:39:10Z</time></trkpt><trkpt lat="37.8836230662849" lon="14.949853880434915"><ele>804.0</ele><time>2026-04-19T19:39:11Z</time></trkpt><trkpt lat="37.88356753605598" lon="14.949718895707866"><ele>809.0</ele><time>2026-04-19T19:39:12Z</time></trkpt><trkpt lat="37.883526395799" lon="14.949575657956014"><ele>809.0</ele><time>2026-04-19T19:39:13Z</time></trkpt><trkpt lat="37.88349915658984" lon="14.949424222506035"><ele>809.0</ele><time>2026-04-19T19:39:14Z</time></trkpt><trkpt lat="37.88349111438095" lon="14.949266017887654"><ele>809.0</ele><time>2026-04-19T19:39:15Z</time></trkpt><trkpt lat="37.883500040821794" lon="14.949106781777651"><ele>809.0</ele><time>2026-04-19T19:39:16Z</time></trkpt><trkpt lat="37.883519135577444" lon="14.948951346632827"><ele>810.0</ele><time>2026-04-19T19:39:17Z</time></trkpt><trkpt lat="37.88354578240522" lon="14.948801071075087"><ele>811.0</ele><time>2026-04-19T19:39:18Z</time></trkpt><trkpt lat="37.88357112610191" lon="14.948661456957845"><ele>812.0</ele><time>2026-04-19T19:39:19Z</time></trkpt><trkpt lat="37.88359370281172" lon="14.948529753595416"><ele>813.0</ele><time>2026-04-19T19:39:20Z</time></trkpt><trkpt lat="37.88360221721548" lon="14.94841419603991"><ele>814.0</ele><time>2026-04-19T19:39:21Z</time></trkpt><trkpt lat="37.88356719195408" lon="14.948309290775896"><ele>814.0</ele><time>2026-04-19T19:39:22Z</time></trkpt><trkpt lat="37.88348573492729" lon="14.948247229030933"><ele>814.0</ele><time>2026-04-19T19:39:23Z</time></trkpt><trkpt lat="37.88339167416624" lon="14.948204964259741"><ele>814.0</ele><time>2026-04-19T19:39:24Z</time></trkpt><trkpt lat="37.88332540063108" lon="14.948306517036029"><ele>814.0</ele><time>2026-04-19T19:39:26Z</time></trkpt><trkpt lat="37.883324409930054" lon="14.94845779785587"><ele>814.0</ele><time>2026-04-19T19:39:27Z</time></trkpt><trkpt lat="37.88334988145001" lon="14.948585867924328"><ele>807.75</ele><time>2026-04-19T19:39:28Z</time></trkpt><trkpt lat="37.88332936630313" lon="14.948713021982707"><ele>801.5</ele><time>2026-04-19T19:39:29Z</time></trkpt><trkpt lat="37.8832846352129" lon="14.948847799402028"><ele>795.25</ele><time>2026-04-19T19:39:30Z</time></trkpt><trkpt lat="37.88324330127233" lon="14.948986381160742"><ele>789.0</ele><time>2026-04-19T19:39:31Z</time></trkpt><trkpt lat="37.88320946149587" lon="14.949135657114494"><ele>787.5</ele><time>2026-04-19T19:39:32Z</time></trkpt><trkpt lat="37.883198368682045" lon="14.949284584447957"><ele>786.0</ele><time>2026-04-19T19:39:33Z</time></trkpt><trkpt lat="37.88317598345203" lon="14.949429594992708"><ele>784.5</ele><time>2026-04-19T19:39:34Z</time></trkpt><trkpt lat="37.88317292391079" lon="14.949578373341463"><ele>783.0</ele><time>2026-04-19T19:39:35Z</time></trkpt><trkpt lat="37.88318952981561" lon="14.949724158460452"><ele>783.0</ele><time>2026-04-19T19:39:36Z</time></trkpt><trkpt lat="37.88322630743709" lon="14.949871749963823"><ele>783.0</ele><time>2026-04-19T19:39:37Z</time></trkpt><trkpt lat="37.883279319098904" lon="14.950015511265802"><ele>783.0</ele><time>2026-04-19T19:39:38Z</time></trkpt><trkpt lat="37.88333228401919" lon="14.950157417614129"><ele>783.0</ele><time>2026-04-19T19:39:39Z</time></trkpt><trkpt lat="37.8834065957006" lon="14.95029160745355"><ele>784.5</ele><time>2026-04-19T19:39:40Z</time></trkpt><trkpt lat="37.88347686310021" lon="14.95041464884383"><ele>786.0</ele><time>2026-04-19T19:39:41Z</time></trkpt><trkpt lat="37.883512956507225" lon="14.95055318965195"><ele>787.5</ele><time>2026-04-19T19:39:42Z</time></trkpt><trkpt lat="37.88352616521019" lon="14.950685281805518"><ele>789.0</ele><time>2026-04-19T19:39:43Z</time></trkpt><trkpt lat="37.88352207680521" lon="14.950824004866744"><ele>785.5</ele><time>2026-04-19T19:39:44Z</time></trkpt><trkpt lat="37.88352291081987" lon="14.95096750794942"><ele>782.0</ele><time>2026-04-19T19:39:45Z</time></trkpt><trkpt lat="37.883593851015554" lon="14.951093180187982"><ele>778.5</ele><time>2026-04-19T19:39:46Z</time></trkpt><trkpt lat="37.88367703969826" lon="14.951204359716954"><ele>775.0</ele><time>2026-04-19T19:39:47Z</time></trkpt><trkpt lat="37.88376400411406" lon="14.95130456603499"><ele>775.0</ele><time>2026-04-19T19:39:48Z</time></trkpt><trkpt lat="37.88384030411873" lon="14.951403259127684"><ele>775.0</ele><time>2026-04-19T19:39:49Z</time></trkpt><trkpt lat="37.883931289277676" lon="14.95145436236988"><ele>775.0</ele><time>2026-04-19T19:39:50Z</time></trkpt><trkpt lat="37.8840396312849" lon="14.951442902590744"><ele>775.0</ele><time>2026-04-19T19:39:51Z</time></trkpt><trkpt lat="37.88413307305323" lon="14.951412532578363"><ele>775.0</ele><time>2026-04-19T19:39:52Z</time></trkpt><trkpt lat="37.88419620997971" lon="14.951449659386656"><ele>774.9999999999999</ele><time>2026-04-19T19:39:53Z</time></trkpt><trkpt lat="37.88420954664559" lon="14.951536436461836"><ele>775.0</ele><time>2026-04-19T19:39:54Z</time></trkpt><trkpt lat="37.88415928572034" lon="14.951604620088283"><ele>775.0</ele><time>2026-04-19T19:39:55Z</time></trkpt><trkpt lat="37.884094748073686" lon="14.951652674048088"><ele>775.0</ele><time>2026-04-19T19:39:56Z</time></trkpt><trkpt lat="37.8840240752237" lon="14.951617150149918"><ele>774.9999999999999</ele><time>2026-04-19T19:39:57Z</time></trkpt><trkpt lat="37.883960414852716" lon="14.951569935407333"><ele>775.0</ele><time>2026-04-19T19:39:58Z</time></trkpt><trkpt lat="37.88387173228721" lon="14.951525704352157"><ele>775.0</ele><time>2026-04-19T19:39:59Z</time></trkpt><trkpt lat="37.88376643534931" lon="14.95146667049654"><ele>775.0</ele><time>2026-04-19T19:40:00Z</time></trkpt><trkpt lat="37.88366532432718" lon="14.951354197585331"><ele>775.0</ele><time>2026-04-19T19:40:01Z</time></trkpt><trkpt lat="37.88356174721395" lon="14.951253739813785"><ele>775.0</ele><time>2026-04-19T19:40:02Z</time></trkpt><trkpt lat="37.88347766088366" lon="14.951168146263521"><ele>773.2</ele><time>2026-04-19T19:40:03Z</time></trkpt><trkpt lat="37.883397530526416" lon="14.95107449940228"><ele>771.4</ele><time>2026-04-19T19:40:04Z</time></trkpt><trkpt lat="37.883340530678865" lon="14.950963612617123"><ele>769.5999999999999</ele><time>2026-04-19T19:40:05Z</time></trkpt><trkpt lat="37.88330862596083" lon="14.95084042183734"><ele>767.8</ele><time>2026-04-19T19:40:06Z</time></trkpt><trkpt lat="37.88329634124912" lon="14.950719680072119"><ele>766.0</ele><time>2026-04-19T19:40:07Z</time></trkpt><trkpt lat="37.88326408781907" lon="14.95060422601321"><ele>766.0</ele><time>2026-04-19T19:40:08Z</time></trkpt><trkpt lat="37.88319779294926" lon="14.95051272564071"><ele>766.0</ele><time>2026-04-19T19:40:09Z</time></trkpt><trkpt lat="37.88311387705047" lon="14.950436353554583"><ele>766.0</ele><time>2026-04-19T19:40:10Z</time></trkpt><trkpt lat="37.883018676060544" lon="14.950369070273984"><ele>766.0</ele><time>2026-04-19T19:40:11Z</time></trkpt><trkpt lat="37.88291286350931" lon="14.950315433471042"><ele>766.0</ele><time>2026-04-19T19:40:12Z</time></trkpt><trkpt lat="37.882804466920874" lon="14.950287179685416"><ele>766.0</ele><time>2026-04-19T19:40:13Z</time></trkpt><trkpt lat="37.88269999166737" lon="14.950267378895353"><ele>766.0</ele><time>2026-04-19T19:40:14Z</time></trkpt><trkpt lat="37.8825966440026" lon="14.950213378629222"><ele>766.0</ele><time>2026-04-19T19:40:15Z</time></trkpt><trkpt lat="37.8825181085973" lon="14.950114362894418"><ele>766.0</ele><time>2026-04-19T19:40:16Z</time></trkpt><trkpt lat="37.8824862893934" lon="14.949970532505409"><ele>766.0</ele><time>2026-04-19T19:40:17Z</time></trkpt><trkpt lat="37.88247604479673" lon="14.949831471154038"><ele>765.5999999999999</ele><time>2026-04-19T19:40:18Z</time></trkpt><trkpt lat="37.88245067596752" lon="14.949689666079232"><ele>765.2</ele><time>2026-04-19T19:40:19Z</time></trkpt><trkpt lat="37.88245109009198" lon="14.949549528902994"><ele>764.8</ele><time>2026-04-19T19:40:20Z</time></trkpt><trkpt lat="37.882436528769496" lon="14.949416235158564"><ele>764.4000000000001</ele><time>2026-04-19T19:40:21Z</time></trkpt><trkpt lat="37.88239559143895" lon="14.949285057914313"><ele>764.0</ele><time>2026-04-19T19:40:22Z</time></trkpt><trkpt lat="37.88232788996048" lon="14.94917880618714"><ele>764.0</ele><time>2026-04-19T19:40:23Z</time></trkpt><trkpt lat="37.8822341201639" lon="14.94909542746507"><ele>764.0</ele><time>2026-04-19T19:40:24Z</time></trkpt><trkpt lat="37.88212913360772" lon="14.949019090578295"><ele>764.0</ele><time>2026-04-19T19:40:25Z</time></trkpt><trkpt lat="37.882037466078856" lon="14.948930650194121"><ele>764.0</ele><time>2026-04-19T19:40:26Z</time></trkpt><trkpt lat="37.881961245905394" lon="14.94881252359758"><ele>764.0</ele><time>2026-04-19T19:40:27Z</time></trkpt><trkpt lat="37.88190240254389" lon="14.948676066132297"><ele>764.0</ele><time>2026-04-19T19:40:28Z</time></trkpt><trkpt lat="37.88183986056341" lon="14.948585418786054"><ele>764.0</ele><time>2026-04-19T19:40:29Z</time></trkpt><trkpt lat="37.88176536875083" lon="14.948563693242487"><ele>764.0</ele><time>2026-04-19T19:40:30Z</time></trkpt><trkpt lat="37.88168847977363" lon="14.948610704565736"><ele>764.0</ele><time>2026-04-19T19:40:31Z</time></trkpt><trkpt lat="37.881632590768405" lon="14.94868965783235"><ele>762.0</ele><time>2026-04-19T19:40:32Z</time></trkpt><trkpt lat="37.88164721107268" lon="14.94884238609524"><ele>760.0</ele><time>2026-04-19T19:40:33Z</time></trkpt><trkpt lat="37.88169358183398" lon="14.948964183501198"><ele>758.0</ele><time>2026-04-19T19:40:34Z</time></trkpt><trkpt lat="37.88175467211427" lon="14.94909329577872"><ele>756.0</ele><time>2026-04-19T19:40:35Z</time></trkpt><trkpt lat="37.881807663761656" lon="14.949233359706868"><ele>756.0</ele><time>2026-04-19T19:40:36Z</time></trkpt><trkpt lat="37.88185418750259" lon="14.949373309878698"><ele>756.0</ele><time>2026-04-19T19:40:37Z</time></trkpt><trkpt lat="37.8819042691673" lon="14.949521069279548"><ele>756.0</ele><time>2026-04-19T19:40:38Z</time></trkpt><trkpt lat="37.8819538136292" lon="14.949661474645724"><ele>756.0</ele><time>2026-04-19T19:40:39Z</time></trkpt><trkpt lat="37.88198854789751" lon="14.949795938483518"><ele>756.0</ele><time>2026-04-19T19:40:40Z</time></trkpt><trkpt lat="37.881992136097836" lon="14.9499340787102"><ele>756.0</ele><time>2026-04-19T19:40:41Z</time></trkpt><trkpt lat="37.88196914533552" lon="14.950058657002616"><ele>756.0</ele><time>2026-04-19T19:40:42Z</time></trkpt><trkpt lat="37.88192702518849" lon="14.950134745901916"><ele>756.0</ele><time>2026-04-19T19:40:43Z</time></trkpt><trkpt lat="37.881858038276214" lon="14.950126786308113"><ele>756.0</ele><time>2026-04-19T19:40:44Z</time></trkpt><trkpt lat="37.88174350704106" lon="14.950051786718111"><ele>752.4</ele><time>2026-04-19T19:40:46Z</time></trkpt><trkpt lat="37.88168707279516" lon="14.949965575068841"><ele>748.8</ele><time>2026-04-19T19:40:47Z</time></trkpt><trkpt lat="37.88163398173221" lon="14.949866868664584"><ele>745.1999999999999</ele><time>2026-04-19T19:40:48Z</time></trkpt><trkpt lat="37.88157613890618" lon="14.949750540090337"><ele>741.5999999999999</ele><time>2026-04-19T19:40:49Z</time></trkpt><trkpt lat="37.881508654829275" lon="14.949630549208504"><ele>738.0</ele><time>2026-04-19T19:40:50Z</time></trkpt><trkpt lat="37.88144196253982" lon="14.949513450145625"><ele>738.0</ele><time>2026-04-19T19:40:51Z</time></trkpt><trkpt lat="37.88137472659618" lon="14.949400787255083"><ele>738.0</ele><time>2026-04-19T19:40:52Z</time></trkpt><trkpt lat="37.88131587958913" lon="14.949293644322761"><ele>738.0</ele><time>2026-04-19T19:40:53Z</time></trkpt><trkpt lat="37.88125585088474" lon="14.949198956672324"><ele>738.0</ele><time>2026-04-19T19:40:54.001Z</time></trkpt><trkpt lat="37.881186974920794" lon="14.949126618122733"><ele>738.0</ele><time>2026-04-19T19:40:55.001Z</time></trkpt><trkpt lat="37.88111422305253" lon="14.949072490151012"><ele>738.0</ele><time>2026-04-19T19:40:56.001Z</time></trkpt><trkpt lat="37.881022283155865" lon="14.94912729786793"><ele>738.0</ele><time>2026-04-19T19:40:57.001Z</time></trkpt><trkpt lat="37.880989003726725" lon="14.949230606604509"><ele>738.0</ele><time>2026-04-19T19:40:58.001Z</time></trkpt><trkpt lat="37.880975397776076" lon="14.949338537198571"><ele>738.0</ele><time>2026-04-19T19:40:59.001Z</time></trkpt><trkpt lat="37.881031920861645" lon="14.949439268446445"><ele>738.0</ele><time>2026-04-19T19:41:00.001Z</time></trkpt><trkpt lat="37.881098112958966" lon="14.949544851322058"><ele>738.0</ele><time>2026-04-19T19:41:01.001Z</time></trkpt><trkpt lat="37.88114653718473" lon="14.949676123006052"><ele>738.0</ele><time>2026-04-19T19:41:02.001Z</time></trkpt><trkpt lat="37.881207444644346" lon="14.949807256872601"><ele>738.0</ele><time>2026-04-19T19:41:03.001Z</time></trkpt><trkpt lat="37.88126074917566" lon="14.949934081898547"><ele>738.0</ele><time>2026-04-19T19:41:04.001Z</time></trkpt><trkpt lat="37.881298476008055" lon="14.950060091173379"><ele>734.4</ele><time>2026-04-19T19:41:05.001Z</time></trkpt><trkpt lat="37.88131044102706" lon="14.950183196322245"><ele>730.8</ele><time>2026-04-19T19:41:06.001Z</time></trkpt><trkpt lat="37.881296926889725" lon="14.950304388616471"><ele>727.2</ele><time>2026-04-19T19:41:07.001Z</time></trkpt><trkpt lat="37.88128448752216" lon="14.95042956317861"><ele>723.6</ele><time>2026-04-19T19:41:08.001Z</time></trkpt><trkpt lat="37.88121898661665" lon="14.950525493886975"><ele>720.0</ele><time>2026-04-19T19:41:09.001Z</time></trkpt><trkpt lat="37.881175045881236" lon="14.950657822154517"><ele>720.0</ele><time>2026-04-19T19:41:10.001Z</time></trkpt><trkpt lat="37.881127812945884" lon="14.950800064719616"><ele>720.0</ele><time>2026-04-19T19:41:11Z</time></trkpt><trkpt lat="37.88107706192047" lon="14.950951365466954"><ele>720.0</ele><time>2026-04-19T19:41:12Z</time></trkpt><trkpt lat="37.88102392148665" lon="14.951108522010035"><ele>720.0</ele><time>2026-04-19T19:41:13Z</time></trkpt><trkpt lat="37.88096925109873" lon="14.951270203326825"><ele>720.25</ele><time>2026-04-19T19:41:14Z</time></trkpt><trkpt lat="37.88091319199943" lon="14.95143858540225"><ele>720.5</ele><time>2026-04-19T19:41:15Z</time></trkpt><trkpt lat="37.88085709308122" lon="14.951607068785716"><ele>720.75</ele><time>2026-04-19T19:41:16Z</time></trkpt><trkpt lat="37.880804316161246" lon="14.951767060571655"><ele>721.0</ele><time>2026-04-19T19:41:17Z</time></trkpt><trkpt lat="37.88075718096384" lon="14.951914207951923"><ele>723.5999999999999</ele><time>2026-04-19T19:41:18Z</time></trkpt><trkpt lat="37.8807145101206" lon="14.952056228840728"><ele>726.2</ele><time>2026-04-19T19:41:19Z</time></trkpt><trkpt lat="37.88069146768183" lon="14.952194108844452"><ele>728.8</ele><time>2026-04-19T19:41:20Z</time></trkpt><trkpt lat="37.88070325120261" lon="14.952328405327219"><ele>731.4000000000001</ele><time>2026-04-19T19:41:21Z</time></trkpt><trkpt lat="37.88068743521425" lon="14.952456820290355"><ele>734.0</ele><time>2026-04-19T19:41:22Z</time></trkpt><trkpt lat="37.88068235544723" lon="14.952592480282155"><ele>734.2</ele><time>2026-04-19T19:41:23Z</time></trkpt><trkpt lat="37.88068468115159" lon="14.95273172972637"><ele>734.4000000000001</ele><time>2026-04-19T19:41:24Z</time></trkpt><trkpt lat="37.88062820083461" lon="14.95284048031968"><ele>734.6</ele><time>2026-04-19T19:41:25Z</time></trkpt><trkpt lat="37.880576238549786" lon="14.95294138036714"><ele>734.8</ele><time>2026-04-19T19:41:26Z</time></trkpt><trkpt lat="37.88051146606375" lon="14.953019511005008"><ele>735.0</ele><time>2026-04-19T19:41:27Z</time></trkpt><trkpt lat="37.880435167658064" lon="14.953063390565289"><ele>735.0</ele><time>2026-04-19T19:41:28Z</time></trkpt><trkpt lat="37.88036473666277" lon="14.953146781186"><ele>735.0</ele><time>2026-04-19T19:41:29Z</time></trkpt><trkpt lat="37.88027816655282" lon="14.953183313348415"><ele>735.0</ele><time>2026-04-19T19:41:30Z</time></trkpt><trkpt lat="37.88019006797625" lon="14.953216711658854"><ele>735.0</ele><time>2026-04-19T19:41:31Z</time></trkpt><trkpt lat="37.880109329593" lon="14.953253010232174"><ele>735.0</ele><time>2026-04-19T19:41:32Z</time></trkpt><trkpt lat="37.880034868319626" lon="14.953273153171132"><ele>735.0</ele><time>2026-04-19T19:41:33Z</time></trkpt><trkpt lat="37.87996572103524" lon="14.953251942390414"><ele>736.2</ele><time>2026-04-19T19:41:34Z</time></trkpt><trkpt lat="37.8799122021304" lon="14.953199493474104"><ele>737.4</ele><time>2026-04-19T19:41:36Z</time></trkpt><trkpt lat="37.879835503827756" lon="14.95321107867673"><ele>738.5999999999999</ele><time>2026-04-19T19:52:24Z</time></trkpt><trkpt lat="37.87987794144354" lon="14.953349659853446"><ele>739.8</ele><time>2026-04-19T19:52:26Z</time></trkpt><trkpt lat="37.87990319425933" lon="14.95342458497716"><ele>741.0</ele><time>2026-04-19T19:52:27Z</time></trkpt><trkpt lat="37.879914731718785" lon="14.953593550724682"><ele>741.0</ele><time>2026-04-19T19:52:29Z</time></trkpt><trkpt lat="37.879901522609565" lon="14.953673130505056"><ele>741.0</ele><time>2026-04-19T19:52:30Z</time></trkpt><trkpt lat="37.8798890703589" lon="14.953764473876602"><ele>741.0</ele><time>2026-04-19T19:52:31Z</time></trkpt><trkpt lat="37.8798764608815" lon="14.953855369694375"><ele>741.0</ele><time>2026-04-19T19:52:32Z</time></trkpt><trkpt lat="37.879866125774754" lon="14.95395506464762"><ele>741.0</ele><time>2026-04-19T19:52:33Z</time></trkpt><trkpt lat="37.87985419026107" lon="14.954057645211286"><ele>741.0</ele><time>2026-04-19T19:52:34Z</time></trkpt><trkpt lat="37.87984163454903" lon="14.95416412228099"><ele>741.4</ele><time>2026-04-19T19:52:35Z</time></trkpt><trkpt lat="37.87982402024952" lon="14.954273652509391"><ele>741.8</ele><time>2026-04-19T19:52:36Z</time></trkpt><trkpt lat="37.879814107410354" lon="14.954391230645344"><ele>742.1999999999999</ele><time>2026-04-19T19:52:37Z</time></trkpt><trkpt lat="37.87980543897681" lon="14.954512923370629"><ele>742.5999999999999</ele><time>2026-04-19T19:52:38Z</time></trkpt><trkpt lat="37.87977588181196" lon="14.954629780536928"><ele>743.0</ele><time>2026-04-19T19:52:39Z</time></trkpt><trkpt lat="37.879759657509595" lon="14.954747917203896"><ele>743.0</ele><time>2026-04-19T19:52:40Z</time></trkpt><trkpt lat="37.87974630847828" lon="14.954865110071035"><ele>743.0</ele><time>2026-04-19T19:52:41Z</time></trkpt><trkpt lat="37.879734341327925" lon="14.954976097919968"><ele>743.0</ele><time>2026-04-19T19:52:42Z</time></trkpt><trkpt lat="37.879722160083716" lon="14.955084128348835"><ele>743.0</ele><time>2026-04-19T19:52:43Z</time></trkpt><trkpt lat="37.87970967975155" lon="14.955194811222961"><ele>743.0</ele><time>2026-04-19T19:52:44Z</time></trkpt><trkpt lat="37.87969749420473" lon="14.955302881241431"><ele>743.0</ele><time>2026-04-19T19:52:45Z</time></trkpt><trkpt lat="37.87968784354102" lon="14.95541527456711"><ele>743.1666666666666</ele><time>2026-04-19T19:52:46Z</time></trkpt><trkpt lat="37.879679164083655" lon="14.955528574545186"><ele>743.3333333333333</ele><time>2026-04-19T19:52:47Z</time></trkpt><trkpt lat="37.87967073072172" lon="14.95563866203552"><ele>743.5</ele><time>2026-04-19T19:52:48Z</time></trkpt><trkpt lat="37.87966256960472" lon="14.955745197502505"><ele>743.6666666666666</ele><time>2026-04-19T19:52:49Z</time></trkpt><trkpt lat="37.879649765941615" lon="14.955842995144964"><ele>743.8333333333334</ele><time>2026-04-19T19:52:50Z</time></trkpt><trkpt lat="37.87963762254113" lon="14.955930599008576"><ele>744.0</ele><time>2026-04-19T19:52:51Z</time></trkpt><trkpt lat="37.87962926723913" lon="14.95608180132848"><ele>744.0</ele><time>2026-04-19T19:52:53Z</time></trkpt><trkpt lat="37.879607050330634" lon="14.956225379128998"><ele>744.0</ele><time>2026-04-19T19:52:55Z</time></trkpt><trkpt lat="37.87957141172664" lon="14.956371645030655"><ele>744.0</ele><time>2026-04-19T19:52:57Z</time></trkpt><trkpt lat="37.87955956662633" lon="14.95645054539727"><ele>744.0</ele><time>2026-04-19T19:52:58Z</time></trkpt><trkpt lat="37.87955726965437" lon="14.95660193940902"><ele>744.0</ele><time>2026-04-19T19:53:00Z</time></trkpt><trkpt lat="37.87952172221484" lon="14.956742761165932"><ele>743.8000000000001</ele><time>2026-04-19T19:53:02Z</time></trkpt><trkpt lat="37.87950410386171" lon="14.95687432555623"><ele>743.6</ele><time>2026-04-19T19:53:04Z</time></trkpt><trkpt lat="37.879503433719904" lon="14.95700218335117"><ele>743.4</ele><time>2026-04-19T19:53:06Z</time></trkpt><trkpt lat="37.87948106462831" lon="14.95713787357524"><ele>743.2</ele><time>2026-04-19T19:53:08Z</time></trkpt><trkpt lat="37.87945422225941" lon="14.957289552171916"><ele>743.0</ele><time>2026-04-19T19:53:10Z</time></trkpt><trkpt lat="37.87940856217937" lon="14.957433400873677"><ele>743.0</ele><time>2026-04-19T19:53:12Z</time></trkpt><trkpt lat="37.87938892901125" lon="14.957516987591731"><ele>743.0</ele><time>2026-04-19T19:53:13Z</time></trkpt><trkpt lat="37.87936812735979" lon="14.95759940626078"><ele>743.0</ele><time>2026-04-19T19:53:14Z</time></trkpt><trkpt lat="37.8793258611997" lon="14.957743427455108"><ele>743.0</ele><time>2026-04-19T19:53:16Z</time></trkpt><trkpt lat="37.87928872564754" lon="14.957868703311377"><ele>743.0</ele><time>2026-04-19T19:53:18Z</time></trkpt><trkpt lat="37.87925192683622" lon="14.957993137148486"><ele>743.5999999999999</ele><time>2026-04-19T19:53:20Z</time></trkpt><trkpt lat="37.87921491630502" lon="14.958118545285586"><ele>744.1999999999999</ele><time>2026-04-19T19:53:22Z</time></trkpt><trkpt lat="37.8791813931156" lon="14.958243793235555"><ele>744.8</ele><time>2026-04-19T19:53:24Z</time></trkpt><trkpt lat="37.879148442400925" lon="14.958366901333525"><ele>745.4</ele><time>2026-04-19T19:53:26Z</time></trkpt><trkpt lat="37.879114967302485" lon="14.958491822466225"><ele>746.0</ele><time>2026-04-19T19:53:28Z</time></trkpt><trkpt lat="37.879078569980315" lon="14.958627574449189"><ele>746.0</ele><time>2026-04-19T19:53:30Z</time></trkpt><trkpt lat="37.87903666416445" lon="14.958771176974464"><ele>746.0</ele><time>2026-04-19T19:53:32Z</time></trkpt><trkpt lat="37.878990584741004" lon="14.958906693614967"><ele>746.0</ele><time>2026-04-19T19:53:34Z</time></trkpt><trkpt lat="37.87894324149143" lon="14.959031524137412"><ele>746.0</ele><time>2026-04-19T19:53:36Z</time></trkpt><trkpt lat="37.87889189545203" lon="14.959148229889273"><ele>745.1666666666666</ele><time>2026-04-19T19:53:38Z</time></trkpt><trkpt lat="37.87883094859876" lon="14.959279139051871"><ele>744.3333333333333</ele><time>2026-04-19T19:53:40Z</time></trkpt><trkpt lat="37.87879679512165" lon="14.959354497693917"><ele>743.5</ele><time>2026-04-19T19:53:41Z</time></trkpt><trkpt lat="37.87876305224482" lon="14.959428950511585"><ele>742.6666666666666</ele><time>2026-04-19T19:53:42Z</time></trkpt><trkpt lat="37.87872851419802" lon="14.959505157616698"><ele>741.8333333333334</ele><time>2026-04-19T19:53:43Z</time></trkpt><trkpt lat="37.878696908910335" lon="14.959577312309845"><ele>741.0</ele><time>2026-04-19T19:53:44Z</time></trkpt><trkpt lat="37.8786781130347" lon="14.959659004261646"><ele>741.0</ele><time>2026-04-19T19:53:45Z</time></trkpt><trkpt lat="37.87863296320155" lon="14.95972912872662"><ele>741.0</ele><time>2026-04-19T19:53:46Z</time></trkpt><trkpt lat="37.8786030128273" lon="14.959819446639019"><ele>741.0</ele><time>2026-04-19T19:53:47Z</time></trkpt><trkpt lat="37.87858219894594" lon="14.959933260527498"><ele>741.0</ele><time>2026-04-19T19:53:48Z</time></trkpt><trkpt lat="37.87856487512502" lon="14.960038794468717"><ele>741.0</ele><time>2026-04-19T19:53:49Z</time></trkpt><trkpt lat="37.878548111677794" lon="14.960145540357399"><ele>741.0</ele><time>2026-04-19T19:53:50Z</time></trkpt><trkpt lat="37.878532306283205" lon="14.960258477123386"><ele>739.8333333333334</ele><time>2026-04-19T19:53:51Z</time></trkpt><trkpt lat="37.87852252932213" lon="14.960368279699978"><ele>738.6666666666666</ele><time>2026-04-19T19:53:52Z</time></trkpt><trkpt lat="37.87851606757363" lon="14.960483343581505"><ele>737.5</ele><time>2026-04-19T19:53:53Z</time></trkpt><trkpt lat="37.878511044868404" lon="14.960594199039678"><ele>736.3333333333333</ele><time>2026-04-19T19:53:54Z</time></trkpt><trkpt lat="37.87850603919131" lon="14.960704677311279"><ele>735.1666666666666</ele><time>2026-04-19T19:53:55Z</time></trkpt><trkpt lat="37.87850073594794" lon="14.960816176360474"><ele>734.0</ele><time>2026-04-19T19:53:56Z</time></trkpt><trkpt lat="37.87849511096474" lon="14.960928539056814"><ele>734.0</ele><time>2026-04-19T19:53:57Z</time></trkpt><trkpt lat="37.87848948264696" lon="14.96104096842559"><ele>734.0</ele><time>2026-04-19T19:53:58Z</time></trkpt><trkpt lat="37.87848391038495" lon="14.961152278126404"><ele>734.0</ele><time>2026-04-19T19:53:59Z</time></trkpt><trkpt lat="37.878478346289185" lon="14.961263424658522"><ele>734.0</ele><time>2026-04-19T19:54:00Z</time></trkpt><trkpt lat="37.87847285778324" lon="14.961373061278053"><ele>734.0</ele><time>2026-04-19T19:54:01Z</time></trkpt><trkpt lat="37.878467484695314" lon="14.961480392328975"><ele>734.0</ele><time>2026-04-19T19:54:02Z</time></trkpt><trkpt lat="37.878462183669626" lon="14.96158628146568"><ele>734.0</ele><time>2026-04-19T19:54:03Z</time></trkpt><trkpt lat="37.87845526923912" lon="14.961688521405417"><ele>734.0</ele><time>2026-04-19T19:54:04Z</time></trkpt><trkpt lat="37.87847251039794" lon="14.961792003659756"><ele>734.0</ele><time>2026-04-19T19:54:05Z</time></trkpt><trkpt lat="37.87847237295007" lon="14.961896727164108"><ele>734.0</ele><time>2026-04-19T19:54:06Z</time></trkpt><trkpt lat="37.87846970165152" lon="14.962000918080381"><ele>734.0</ele><time>2026-04-19T19:54:07Z</time></trkpt><trkpt lat="37.87845992256665" lon="14.962111928258725"><ele>734.0</ele><time>2026-04-19T19:54:08Z</time></trkpt><trkpt lat="37.878420934888894" lon="14.962219459814923"><ele>733.4000000000001</ele><time>2026-04-19T19:54:09Z</time></trkpt><trkpt lat="37.878413679471855" lon="14.962331030028848"><ele>732.8</ele><time>2026-04-19T19:54:10Z</time></trkpt><trkpt lat="37.87840633920653" lon="14.96244390497516"><ele>732.2</ele><time>2026-04-19T19:54:11Z</time></trkpt><trkpt lat="37.87839886545155" lon="14.962558832688652"><ele>731.5999999999999</ele><time>2026-04-19T19:54:12Z</time></trkpt><trkpt lat="37.87839144374253" lon="14.962672960072641"><ele>731.0</ele><time>2026-04-19T19:54:13Z</time></trkpt><trkpt lat="37.87838370016912" lon="14.962787721827098"><ele>730.5</ele><time>2026-04-19T19:54:14Z</time></trkpt><trkpt lat="37.87837609593539" lon="14.96289644076435"><ele>730.0</ele><time>2026-04-19T19:54:15Z</time></trkpt><trkpt lat="37.878368516599366" lon="14.963004803927499"><ele>729.5</ele><time>2026-04-19T19:54:16Z</time></trkpt><trkpt lat="37.87836017140336" lon="14.963115948518055"><ele>729.0</ele><time>2026-04-19T19:54:17Z</time></trkpt><trkpt lat="37.87835116279834" lon="14.963233128692414"><ele>728.5</ele><time>2026-04-19T19:54:18Z</time></trkpt><trkpt lat="37.87834264919472" lon="14.963343869973455"><ele>728.0</ele><time>2026-04-19T19:54:19Z</time></trkpt><trkpt lat="37.87833445729147" lon="14.963450156285015"><ele>727.8333333333333</ele><time>2026-04-19T19:54:20Z</time></trkpt><trkpt lat="37.87832667256362" lon="14.963551044283928"><ele>727.6666666666666</ele><time>2026-04-19T19:54:21Z</time></trkpt><trkpt lat="37.87831887541624" lon="14.963652089776351"><ele>727.5</ele><time>2026-04-19T19:54:22Z</time></trkpt><trkpt lat="37.87831159013733" lon="14.963749094798253"><ele>727.3333333333334</ele><time>2026-04-19T19:54:23Z</time></trkpt><trkpt lat="37.87832805137761" lon="14.963840373827093"><ele>727.1666666666667</ele><time>2026-04-19T19:54:24Z</time></trkpt><trkpt lat="37.878323142027966" lon="14.963932929885209"><ele>727.0</ele><time>2026-04-19T19:54:25Z</time></trkpt><trkpt lat="37.87831613069703" lon="14.96401972316129"><ele>727.0</ele><time>2026-04-19T19:54:26Z</time></trkpt><trkpt lat="37.87830495127774" lon="14.964109584914373"><ele>727.0</ele><time>2026-04-19T19:54:27Z</time></trkpt><trkpt lat="37.87829381749318" lon="14.964200299345883"><ele>727.0</ele><time>2026-04-19T19:54:28Z</time></trkpt><trkpt lat="37.878288675873044" lon="14.964291024348112"><ele>727.0</ele><time>2026-04-19T19:54:29Z</time></trkpt><trkpt lat="37.878283685262865" lon="14.964380850607585"><ele>727.0</ele><time>2026-04-19T19:54:30Z</time></trkpt><trkpt lat="37.87827847727762" lon="14.964461446235376"><ele>727.0</ele><time>2026-04-19T19:54:31Z</time></trkpt><trkpt lat="37.878249642940744" lon="14.964607650632662"><ele>726.4000000000001</ele><time>2026-04-19T19:54:33Z</time></trkpt><trkpt lat="37.87823764884992" lon="14.964744608275868"><ele>725.8000000000001</ele><time>2026-04-19T19:54:35Z</time></trkpt><trkpt lat="37.878320319815685" lon="14.964881862378967"><ele>725.2</ele><time>2026-04-19T19:54:37Z</time></trkpt><trkpt lat="37.878380379787146" lon="14.965019548133018"><ele>724.6</ele><time>2026-04-19T19:54:39Z</time></trkpt><trkpt lat="37.87840576630672" lon="14.965097630394865"><ele>724.0</ele><time>2026-04-19T19:54:40Z</time></trkpt><trkpt lat="37.878429705552264" lon="14.965186241070523"><ele>722.8333333333334</ele><time>2026-04-19T19:54:41Z</time></trkpt><trkpt lat="37.87845287639204" lon="14.965281476014054"><ele>721.6666666666667</ele><time>2026-04-19T19:54:42Z</time></trkpt><trkpt lat="37.878474536860516" lon="14.965383371755038"><ele>720.5</ele><time>2026-04-19T19:54:43Z</time></trkpt><trkpt lat="37.878492290577455" lon="14.965479831826922"><ele>719.3333333333334</ele><time>2026-04-19T19:54:44Z</time></trkpt><trkpt lat="37.87851207953215" lon="14.96557915667289"><ele>718.1666666666666</ele><time>2026-04-19T19:54:45Z</time></trkpt><trkpt lat="37.87853511365696" lon="14.965682384596057"><ele>717.0</ele><time>2026-04-19T19:54:46Z</time></trkpt><trkpt lat="37.87855919006421" lon="14.965787505085935"><ele>717.2</ele><time>2026-04-19T19:54:47Z</time></trkpt><trkpt lat="37.87858553593496" lon="14.96589764872768"><ele>717.4000000000001</ele><time>2026-04-19T19:54:48Z</time></trkpt><trkpt lat="37.878607327523504" lon="14.966013071170279"><ele>717.5999999999999</ele><time>2026-04-19T19:54:49Z</time></trkpt><trkpt lat="37.87862825338346" lon="14.966125911711584"><ele>717.8</ele><time>2026-04-19T19:54:50Z</time></trkpt><trkpt lat="37.87865338076958" lon="14.96623823699677"><ele>718.0</ele><time>2026-04-19T19:54:51Z</time></trkpt><trkpt lat="37.878677442237894" lon="14.966351389774836"><ele>718.0</ele><time>2026-04-19T19:54:52Z</time></trkpt><trkpt lat="37.87870185481393" lon="14.966460822678073"><ele>718.0</ele><time>2026-04-19T19:54:53Z</time></trkpt><trkpt lat="37.87872384213511" lon="14.966570991201868"><ele>718.0</ele><time>2026-04-19T19:54:54Z</time></trkpt><trkpt lat="37.87874453003659" lon="14.966684689236985"><ele>718.0</ele><time>2026-04-19T19:54:55Z</time></trkpt><trkpt lat="37.87876679717846" lon="14.966797017776429"><ele>718.0</ele><time>2026-04-19T19:54:56Z</time></trkpt><trkpt lat="37.878788046595716" lon="14.966907891869484"><ele>717.5999999999999</ele><time>2026-04-19T19:54:57Z</time></trkpt><trkpt lat="37.87881143033527" lon="14.967018431807062"><ele>717.1999999999999</ele><time>2026-04-19T19:54:58Z</time></trkpt><trkpt lat="37.87883457103132" lon="14.96712617737937"><ele>716.8</ele><time>2026-04-19T19:54:59Z</time></trkpt><trkpt lat="37.878856837233634" lon="14.967236717857123"><ele>716.4</ele><time>2026-04-19T19:55:00Z</time></trkpt><trkpt lat="37.878878553305036" lon="14.96734808198421"><ele>716.0</ele><time>2026-04-19T19:55:01Z</time></trkpt><trkpt lat="37.87889479036256" lon="14.967462026949912"><ele>716.1999999999999</ele><time>2026-04-19T19:55:02Z</time></trkpt><trkpt lat="37.87891342585116" lon="14.967579975556934"><ele>716.4</ele><time>2026-04-19T19:55:03Z</time></trkpt><trkpt lat="37.878935404385395" lon="14.967701708384073"><ele>716.6</ele><time>2026-04-19T19:55:04Z</time></trkpt><trkpt lat="37.878956833351396" lon="14.967823669421518"><ele>716.8</ele><time>2026-04-19T19:55:05Z</time></trkpt><trkpt lat="37.878977572308074" lon="14.967950085150324"><ele>717.0</ele><time>2026-04-19T19:55:06Z</time></trkpt><trkpt lat="37.879002876351336" lon="14.968085492372639"><ele>717.0</ele><time>2026-04-19T19:55:07Z</time></trkpt><trkpt lat="37.879030308349506" lon="14.96822588935406"><ele>717.0</ele><time>2026-04-19T19:55:08Z</time></trkpt><trkpt lat="37.87906397539107" lon="14.9683639478288"><ele>717.0</ele><time>2026-04-19T19:55:09Z</time></trkpt><trkpt lat="37.87910213308925" lon="14.968500302833354"><ele>717.0</ele><time>2026-04-19T19:55:10Z</time></trkpt><trkpt lat="37.879143912133024" lon="14.968633303452275"><ele>717.25</ele><time>2026-04-19T19:55:11Z</time></trkpt><trkpt lat="37.879190429299214" lon="14.96876671088867"><ele>717.5</ele><time>2026-04-19T19:55:12Z</time></trkpt><trkpt lat="37.87923678934782" lon="14.96889764202866"><ele>717.75</ele><time>2026-04-19T19:55:13Z</time></trkpt><trkpt lat="37.87928506698893" lon="14.969023608423367"><ele>718.0</ele><time>2026-04-19T19:55:14Z</time></trkpt><trkpt lat="37.87933784660166" lon="14.96915100750154"><ele>717.2</ele><time>2026-04-19T19:55:15Z</time></trkpt><trkpt lat="37.87939266474113" lon="14.969276898847198"><ele>716.4</ele><time>2026-04-19T19:55:16Z</time></trkpt><trkpt lat="37.87944708253516" lon="14.969400313853434"><ele>715.6</ele><time>2026-04-19T19:55:17Z</time></trkpt><trkpt lat="37.87949858268481" lon="14.969524181243614"><ele>714.8000000000001</ele><time>2026-04-19T19:55:18Z</time></trkpt><trkpt lat="37.87953719723273" lon="14.96964193233542"><ele>714.0</ele><time>2026-04-19T19:55:19Z</time></trkpt><trkpt lat="37.879593439084466" lon="14.969764978885612"><ele>714.0</ele><time>2026-04-19T19:55:20Z</time></trkpt><trkpt lat="37.87962282622834" lon="14.969894668916043"><ele>714.0</ele><time>2026-04-19T19:55:21Z</time></trkpt><trkpt lat="37.879660532594094" lon="14.970021883494908"><ele>714.0</ele><time>2026-04-19T19:55:22Z</time></trkpt><trkpt lat="37.879687599981764" lon="14.970152986569365"><ele>714.0</ele><time>2026-04-19T19:55:23Z</time></trkpt><trkpt lat="37.879724942345746" lon="14.970282070962083"><ele>714.0</ele><time>2026-04-19T19:55:24Z</time></trkpt><trkpt lat="37.87975527764161" lon="14.970407815852383"><ele>714.0</ele><time>2026-04-19T19:55:25Z</time></trkpt><trkpt lat="37.879783346124114" lon="14.97053826019677"><ele>714.0</ele><time>2026-04-19T19:55:26Z</time></trkpt><trkpt lat="37.87981654347363" lon="14.97066294436035"><ele>714.0</ele><time>2026-04-19T19:55:27Z</time></trkpt><trkpt lat="37.8798492271425" lon="14.970792421264775"><ele>714.0</ele><time>2026-04-19T19:55:28Z</time></trkpt><trkpt lat="37.879882743903124" lon="14.970921277103653"><ele>714.0</ele><time>2026-04-19T19:55:29Z</time></trkpt><trkpt lat="37.87991960805845" lon="14.971054428336696"><ele>714.0</ele><time>2026-04-19T19:55:30Z</time></trkpt><trkpt lat="37.879948296431635" lon="14.971185032865023"><ele>714.0</ele><time>2026-04-19T19:55:31Z</time></trkpt><trkpt lat="37.87999209555631" lon="14.971323005025273"><ele>714.0</ele><time>2026-04-19T19:55:32Z</time></trkpt><trkpt lat="37.880039393253014" lon="14.9714628848803"><ele>714.0</ele><time>2026-04-19T19:55:33Z</time></trkpt><trkpt lat="37.88007394939672" lon="14.971617896078943"><ele>712.75</ele><time>2026-04-19T19:55:34Z</time></trkpt><trkpt lat="37.88013319834844" lon="14.971771312128558"><ele>711.5</ele><time>2026-04-19T19:55:35Z</time></trkpt><trkpt lat="37.8801916178176" lon="14.971914896476978"><ele>710.25</ele><time>2026-04-19T19:55:36Z</time></trkpt><trkpt lat="37.88026598316509" lon="14.972055598663419"><ele>709.0</ele><time>2026-04-19T19:55:37Z</time></trkpt><trkpt lat="37.880324869695755" lon="14.972210574845422"><ele>709.0</ele><time>2026-04-19T19:55:38Z</time></trkpt><trkpt lat="37.88038681391509" lon="14.972360925690017"><ele>709.0</ele><time>2026-04-19T19:55:39Z</time></trkpt><trkpt lat="37.88044634576484" lon="14.972510059976166"><ele>709.0</ele><time>2026-04-19T19:55:40Z</time></trkpt><trkpt lat="37.88049844392895" lon="14.972661019754868"><ele>709.0</ele><time>2026-04-19T19:55:41Z</time></trkpt><trkpt lat="37.88054945398531" lon="14.972812925525941"><ele>709.0</ele><time>2026-04-19T19:55:42Z</time></trkpt><trkpt lat="37.880602247510076" lon="14.972967192771735"><ele>709.0</ele><time>2026-04-19T19:55:43Z</time></trkpt><trkpt lat="37.8806376939165" lon="14.97313048850204"><ele>709.0</ele><time>2026-04-19T19:55:44Z</time></trkpt><trkpt lat="37.8806982528417" lon="14.973286305945624"><ele>709.0</ele><time>2026-04-19T19:55:45Z</time></trkpt><trkpt lat="37.88075035863341" lon="14.973449709337439"><ele>709.5</ele><time>2026-04-19T19:55:46Z</time></trkpt><trkpt lat="37.88079855750828" lon="14.973612031020805"><ele>710.0</ele><time>2026-04-19T19:55:47Z</time></trkpt><trkpt lat="37.880849723601074" lon="14.973770167490873"><ele>710.5</ele><time>2026-04-19T19:55:48Z</time></trkpt><trkpt lat="37.880902539788565" lon="14.973928854494194"><ele>711.0</ele><time>2026-04-19T19:55:49Z</time></trkpt><trkpt lat="37.88095947886572" lon="14.974082904040152"><ele>711.75</ele><time>2026-04-19T19:55:50Z</time></trkpt><trkpt lat="37.88101690252498" lon="14.974234066604755"><ele>712.5</ele><time>2026-04-19T19:55:51Z</time></trkpt><trkpt lat="37.881076754887665" lon="14.97438687496189"><ele>713.25</ele><time>2026-04-19T19:55:52Z</time></trkpt><trkpt lat="37.881137073683966" lon="14.974542338085968"><ele>714.0</ele><time>2026-04-19T19:55:53Z</time></trkpt><trkpt lat="37.88119850296565" lon="14.974697958839648"><ele>714.0</ele><time>2026-04-19T19:55:54Z</time></trkpt><trkpt lat="37.881261810697445" lon="14.97485257077861"><ele>714.0</ele><time>2026-04-19T19:55:55Z</time></trkpt><trkpt lat="37.88132294792425" lon="14.975007585553959"><ele>714.0</ele><time>2026-04-19T19:55:56Z</time></trkpt><trkpt lat="37.881383383618136" lon="14.97515953533771"><ele>714.0</ele><time>2026-04-19T19:55:57Z</time></trkpt><trkpt lat="37.88144310129038" lon="14.97531322859035"><ele>714.0</ele><time>2026-04-19T19:55:58Z</time></trkpt><trkpt lat="37.881501301805194" lon="14.975471530256803"><ele>714.0</ele><time>2026-04-19T19:55:59Z</time></trkpt><trkpt lat="37.88156308221206" lon="14.97563373099137"><ele>714.0</ele><time>2026-04-19T19:56:00Z</time></trkpt><trkpt lat="37.881624701761986" lon="14.975796672838626"><ele>714.0</ele><time>2026-04-19T19:56:01Z</time></trkpt><trkpt lat="37.88168584042591" lon="14.975959542816437"><ele>714.0</ele><time>2026-04-19T19:56:02Z</time></trkpt><trkpt lat="37.88174850930164" lon="14.9761172120995"><ele>714.0</ele><time>2026-04-19T19:56:03Z</time></trkpt><trkpt lat="37.881813993835465" lon="14.976281604023963"><ele>714.0</ele><time>2026-04-19T19:56:04Z</time></trkpt><trkpt lat="37.88188111428992" lon="14.976451255968392"><ele>714.0</ele><time>2026-04-19T19:56:05Z</time></trkpt><trkpt lat="37.88194708982527" lon="14.976619039330803"><ele>712.75</ele><time>2026-04-19T19:56:06Z</time></trkpt><trkpt lat="37.882011711340105" lon="14.976786000160208"><ele>711.5</ele><time>2026-04-19T19:56:07Z</time></trkpt><trkpt lat="37.88207457382886" lon="14.976950152388696"><ele>710.25</ele><time>2026-04-19T19:56:08Z</time></trkpt><trkpt lat="37.88213784791377" lon="14.977111732338528"><ele>709.0</ele><time>2026-04-19T19:56:09Z</time></trkpt><trkpt lat="37.8822013115165" lon="14.977270305493516"><ele>709.0</ele><time>2026-04-19T19:56:10Z</time></trkpt><trkpt lat="37.88226461695215" lon="14.977428286224338"><ele>709.0</ele><time>2026-04-19T19:56:11Z</time></trkpt><trkpt lat="37.88232450512726" lon="14.977588092597236"><ele>709.0</ele><time>2026-04-19T19:56:12Z</time></trkpt><trkpt lat="37.88238839302485" lon="14.977749361142994"><ele>709.0</ele><time>2026-04-19T19:56:13Z</time></trkpt><trkpt lat="37.88245295384058" lon="14.97790849794328"><ele>708.25</ele><time>2026-04-19T19:56:14Z</time></trkpt><trkpt lat="37.88251350362906" lon="14.978064661234447"><ele>707.5</ele><time>2026-04-19T19:56:15Z</time></trkpt><trkpt lat="37.8825733398265" lon="14.978220546715004"><ele>706.75</ele><time>2026-04-19T19:56:16Z</time></trkpt><trkpt lat="37.88262924266788" lon="14.97837135962054"><ele>706.0</ele><time>2026-04-19T19:56:17Z</time></trkpt><trkpt lat="37.88268623814182" lon="14.978516440590704"><ele>705.75</ele><time>2026-04-19T19:56:18Z</time></trkpt><trkpt lat="37.88274313049559" lon="14.978663621330275"><ele>705.5</ele><time>2026-04-19T19:56:19Z</time></trkpt><trkpt lat="37.88279598798955" lon="14.978806296307134"><ele>705.25</ele><time>2026-04-19T19:56:20Z</time></trkpt><trkpt lat="37.882849948054776" lon="14.978946603336036"><ele>705.0</ele><time>2026-04-19T19:56:21Z</time></trkpt><trkpt lat="37.88290313722361" lon="14.979088631916134"><ele>705.0</ele><time>2026-04-19T19:56:22Z</time></trkpt><trkpt lat="37.88295642105828" lon="14.979231792847559"><ele>705.0</ele><time>2026-04-19T19:56:23Z</time></trkpt><trkpt lat="37.88301015173499" lon="14.979380033423887"><ele>705.0</ele><time>2026-04-19T19:56:24Z</time></trkpt><trkpt lat="37.883063902912276" lon="14.979529701265784"><ele>705.0</ele><time>2026-04-19T19:56:25Z</time></trkpt><trkpt lat="37.8831207531566" lon="14.979683238421876"><ele>705.0</ele><time>2026-04-19T19:56:26Z</time></trkpt><trkpt lat="37.88317837707228" lon="14.979839951089765"><ele>705.0</ele><time>2026-04-19T19:56:27Z</time></trkpt><trkpt lat="37.88323642661725" lon="14.980001480066697"><ele>705.0</ele><time>2026-04-19T19:56:28Z</time></trkpt><trkpt lat="37.88329648448605" lon="14.98015921525772"><ele>705.0</ele><time>2026-04-19T19:56:29Z</time></trkpt><trkpt lat="37.883353503882745" lon="14.980320169570389"><ele>704.0</ele><time>2026-04-19T19:56:30Z</time></trkpt><trkpt lat="37.88340946491902" lon="14.980481276423667"><ele>703.0</ele><time>2026-04-19T19:56:31Z</time></trkpt><trkpt lat="37.88346578049056" lon="14.980643238957386"><ele>702.0</ele><time>2026-04-19T19:56:32Z</time></trkpt><trkpt lat="37.88352656101611" lon="14.980813849377533"><ele>701.0</ele><time>2026-04-19T19:56:33Z</time></trkpt><trkpt lat="37.883586605499126" lon="14.980985519043495"><ele>699.0</ele><time>2026-04-19T19:56:34Z</time></trkpt><trkpt lat="37.883646461240765" lon="14.98115767251514"><ele>697.0</ele><time>2026-04-19T19:56:35Z</time></trkpt><trkpt lat="37.883710820870945" lon="14.981333772735912"><ele>695.0</ele><time>2026-04-19T19:56:36Z</time></trkpt><trkpt lat="37.88377725367197" lon="14.981512642735767"><ele>695.3333333333333</ele><time>2026-04-19T19:56:37Z</time></trkpt><trkpt lat="37.88384123618222" lon="14.981693362151177"><ele>695.6666666666666</ele><time>2026-04-19T19:56:38Z</time></trkpt><trkpt lat="37.883904975470564" lon="14.981877360601766"><ele>696.0</ele><time>2026-04-19T19:56:39Z</time></trkpt><trkpt lat="37.88397230810558" lon="14.982060629189633"><ele>696.0</ele><time>2026-04-19T19:56:40Z</time></trkpt><trkpt lat="37.884041191549485" lon="14.982244755853705"><ele>696.0</ele><time>2026-04-19T19:56:41Z</time></trkpt><trkpt lat="37.88411121037772" lon="14.982433358996607"><ele>696.0</ele><time>2026-04-19T19:56:42Z</time></trkpt><trkpt lat="37.88418380082408" lon="14.98262912794794"><ele>695.6666666666666</ele><time>2026-04-19T19:56:43Z</time></trkpt><trkpt lat="37.88425841202265" lon="14.982826764200587"><ele>695.3333333333333</ele><time>2026-04-19T19:56:44Z</time></trkpt><trkpt lat="37.88433164158418" lon="14.983019895448637"><ele>695.0</ele><time>2026-04-19T19:56:45Z</time></trkpt><trkpt lat="37.884402047425596" lon="14.983206959780954"><ele>693.0</ele><time>2026-04-19T19:56:46Z</time></trkpt><trkpt lat="37.8844674290217" lon="14.983388699908357"><ele>691.0</ele><time>2026-04-19T19:56:47Z</time></trkpt><trkpt lat="37.88453313414348" lon="14.983573220123308"><ele>689.0</ele><time>2026-04-19T19:56:48Z</time></trkpt><trkpt lat="37.88459898816585" lon="14.983750494648856"><ele>689.0</ele><time>2026-04-19T19:56:49Z</time></trkpt><trkpt lat="37.884663775721776" lon="14.98392932453211"><ele>689.0</ele><time>2026-04-19T19:56:50Z</time></trkpt><trkpt lat="37.88472882450107" lon="14.984109491892692"><ele>689.0</ele><time>2026-04-19T19:56:51Z</time></trkpt><trkpt lat="37.884794054952174" lon="14.984291762848374"><ele>688.0</ele><time>2026-04-19T19:56:52Z</time></trkpt><trkpt lat="37.884861621798095" lon="14.984479171158704"><ele>687.0</ele><time>2026-04-19T19:56:53Z</time></trkpt><trkpt lat="37.88493081736485" lon="14.984667423662504"><ele>686.0</ele><time>2026-04-19T19:56:54Z</time></trkpt><trkpt lat="37.88499929034478" lon="14.98485783886947"><ele>685.6666666666666</ele><time>2026-04-19T19:56:55Z</time></trkpt><trkpt lat="37.885064060022906" lon="14.98504945261291"><ele>685.3333333333334</ele><time>2026-04-19T19:56:56Z</time></trkpt><trkpt lat="37.88512790359109" lon="14.985242753991464"><ele>685.0</ele><time>2026-04-19T19:56:57Z</time></trkpt><trkpt lat="37.88519010663954" lon="14.985438779601125"><ele>685.0</ele><time>2026-04-19T19:56:58Z</time></trkpt><trkpt lat="37.885253875108845" lon="14.985635429048303"><ele>685.0</ele><time>2026-04-19T19:56:59Z</time></trkpt><trkpt lat="37.88531644192642" lon="14.985832350220647"><ele>685.0</ele><time>2026-04-19T19:57:00Z</time></trkpt><trkpt lat="37.88538115300634" lon="14.986032123323877"><ele>682.6666666666667</ele><time>2026-04-19T19:57:01Z</time></trkpt><trkpt lat="37.885444467292366" lon="14.986227267330424"><ele>680.3333333333334</ele><time>2026-04-19T19:57:02Z</time></trkpt><trkpt lat="37.88549115194979" lon="14.986428738916205"><ele>678.0</ele><time>2026-04-19T19:57:03Z</time></trkpt><trkpt lat="37.88556570289631" lon="14.98661439937156"><ele>677.0</ele><time>2026-04-19T19:57:04Z</time></trkpt><trkpt lat="37.88562685194597" lon="14.986811617461475"><ele>676.0</ele><time>2026-04-19T19:57:05Z</time></trkpt><trkpt lat="37.88568838475791" lon="14.987005201250708"><ele>675.0</ele><time>2026-04-19T19:57:06Z</time></trkpt><trkpt lat="37.885734143796604" lon="14.987205582219794"><ele>675.0</ele><time>2026-04-19T19:57:07Z</time></trkpt><trkpt lat="37.885795332054705" lon="14.987401399148274"><ele>675.0</ele><time>2026-04-19T19:57:08Z</time></trkpt><trkpt lat="37.885856420551434" lon="14.987596896786936"><ele>675.0</ele><time>2026-04-19T19:57:09Z</time></trkpt><trkpt lat="37.88591564764736" lon="14.987786437508365"><ele>674.0</ele><time>2026-04-19T19:57:10Z</time></trkpt><trkpt lat="37.88597434702312" lon="14.987974289361883"><ele>673.0</ele><time>2026-04-19T19:57:11Z</time></trkpt><trkpt lat="37.88603281461728" lon="14.98816139951177"><ele>672.0</ele><time>2026-04-19T19:57:12Z</time></trkpt><trkpt lat="37.88609189918062" lon="14.988350484123762"><ele>671.3333333333334</ele><time>2026-04-19T19:57:13Z</time></trkpt><trkpt lat="37.88615118224717" lon="14.98854020396936"><ele>670.6666666666667</ele><time>2026-04-19T19:57:14Z</time></trkpt><trkpt lat="37.88620898056675" lon="14.98872427417697"><ele>670.0</ele><time>2026-04-19T19:57:15Z</time></trkpt><trkpt lat="37.886267318409246" lon="14.988909432499288"><ele>670.0</ele><time>2026-04-19T19:57:16Z</time></trkpt><trkpt lat="37.88632516047124" lon="14.989093018222098"><ele>670.0</ele><time>2026-04-19T19:57:17Z</time></trkpt><trkpt lat="37.88638185172069" lon="14.989276187217266"><ele>670.0</ele><time>2026-04-19T19:57:18Z</time></trkpt><trkpt lat="37.886440302277904" lon="14.98946385321695"><ele>669.6666666666667</ele><time>2026-04-19T19:57:19Z</time></trkpt><trkpt lat="37.88649947135458" lon="14.989651747065478"><ele>669.3333333333334</ele><time>2026-04-19T19:57:20Z</time></trkpt><trkpt lat="37.886560589250934" lon="14.989843170907841"><ele>669.0</ele><time>2026-04-19T19:57:21Z</time></trkpt><trkpt lat="37.886636391720785" lon="14.990028763914983"><ele>668.0</ele><time>2026-04-19T19:57:22Z</time></trkpt><trkpt lat="37.886697099229" lon="14.990222351683384"><ele>667.0</ele><time>2026-04-19T19:57:23Z</time></trkpt><trkpt lat="37.88675735819165" lon="14.990415092455718"><ele>666.0</ele><time>2026-04-19T19:57:24Z</time></trkpt><trkpt lat="37.88681549312473" lon="14.990602427160583"><ele>665.6666666666666</ele><time>2026-04-19T19:57:25Z</time></trkpt><trkpt lat="37.88687316392586" lon="14.990788641233024"><ele>665.3333333333333</ele><time>2026-04-19T19:57:26Z</time></trkpt><trkpt lat="37.88693159373735" lon="14.990970622154077"><ele>665.0</ele><time>2026-04-19T19:57:27Z</time></trkpt><trkpt lat="37.88698677929248" lon="14.991147461986241"><ele>664.5</ele><time>2026-04-19T19:57:28Z</time></trkpt><trkpt lat="37.887041401217665" lon="14.991325036990043"><ele>664.0</ele><time>2026-04-19T19:57:29Z</time></trkpt><trkpt lat="37.88709857912447" lon="14.991496413177607"><ele>663.5</ele><time>2026-04-19T19:57:30Z</time></trkpt><trkpt lat="37.88715798942112" lon="14.991662094834583"><ele>663.0</ele><time>2026-04-19T19:57:31Z</time></trkpt><trkpt lat="37.88722165691218" lon="14.991825853625482"><ele>662.75</ele><time>2026-04-19T19:57:32Z</time></trkpt><trkpt lat="37.88729386079531" lon="14.991984956159778"><ele>662.5</ele><time>2026-04-19T19:57:33Z</time></trkpt><trkpt lat="37.88737629913915" lon="14.992136461216427"><ele>662.25</ele><time>2026-04-19T19:57:34Z</time></trkpt><trkpt lat="37.88747369970632" lon="14.992276568600952"><ele>662.0</ele><time>2026-04-19T19:57:35Z</time></trkpt><trkpt lat="37.88758205487556" lon="14.99240963750681"><ele>660.6666666666666</ele><time>2026-04-19T19:57:36Z</time></trkpt><trkpt lat="37.887696115818045" lon="14.992541673784704"><ele>659.3333333333334</ele><time>2026-04-19T19:57:37Z</time></trkpt><trkpt lat="37.88781081588391" lon="14.992676276803786"><ele>658.0</ele><time>2026-04-19T19:57:38Z</time></trkpt><trkpt lat="37.887923612693946" lon="14.992816701938407"><ele>658.0</ele><time>2026-04-19T19:57:39Z</time></trkpt><trkpt lat="37.88803183424917" lon="14.992955288628513"><ele>658.0</ele><time>2026-04-19T19:57:40Z</time></trkpt><trkpt lat="37.888134299925824" lon="14.993096713436938"><ele>658.0</ele><time>2026-04-19T19:57:41Z</time></trkpt><trkpt lat="37.88822648328533" lon="14.993245763075345"><ele>658.25</ele><time>2026-04-19T19:57:42Z</time></trkpt><trkpt lat="37.888308705759925" lon="14.993399554418941"><ele>658.5</ele><time>2026-04-19T19:57:43Z</time></trkpt><trkpt lat="37.88838554855445" lon="14.993557158155053"><ele>658.75</ele><time>2026-04-19T19:57:44Z</time></trkpt><trkpt lat="37.888454271331284" lon="14.993719022718492"><ele>659.0</ele><time>2026-04-19T19:57:45Z</time></trkpt><trkpt lat="37.88851558375576" lon="14.993883651150718"><ele>657.25</ele><time>2026-04-19T19:57:46Z</time></trkpt><trkpt lat="37.888571843703744" lon="14.994051900933362"><ele>655.5</ele><time>2026-04-19T19:57:47Z</time></trkpt><trkpt lat="37.8886244168272" lon="14.994221727247947"><ele>653.75</ele><time>2026-04-19T19:57:48Z</time></trkpt><trkpt lat="37.88867497596919" lon="14.994394242437117"><ele>652.0</ele><time>2026-04-19T19:57:49Z</time></trkpt><trkpt lat="37.88872753246463" lon="14.994566461310534"><ele>651.75</ele><time>2026-04-19T19:57:50Z</time></trkpt><trkpt lat="37.8887746215489" lon="14.9947435910892"><ele>651.5</ele><time>2026-04-19T19:57:51Z</time></trkpt><trkpt lat="37.88880643498151" lon="14.994924495391313"><ele>651.25</ele><time>2026-04-19T19:57:52Z</time></trkpt><trkpt lat="37.888820990714244" lon="14.995108370221072"><ele>651.0</ele><time>2026-04-19T19:57:53Z</time></trkpt><trkpt lat="37.88881799554851" lon="14.995290124998595"><ele>650.75</ele><time>2026-04-19T19:57:54Z</time></trkpt><trkpt lat="37.888799786541284" lon="14.995466622472748"><ele>650.5</ele><time>2026-04-19T19:57:55Z</time></trkpt><trkpt lat="37.88877706326444" lon="14.995637231281345"><ele>650.25</ele><time>2026-04-19T19:57:56Z</time></trkpt><trkpt lat="37.888753496882" lon="14.995805232579723"><ele>650.0</ele><time>2026-04-19T19:57:57Z</time></trkpt><trkpt lat="37.888714152468445" lon="14.995970963773493"><ele>649.25</ele><time>2026-04-19T19:57:58Z</time></trkpt><trkpt lat="37.888690453609115" lon="14.996142661533314"><ele>648.5</ele><time>2026-04-19T19:57:59Z</time></trkpt><trkpt lat="37.888663659695695" lon="14.996310544008297"><ele>647.75</ele><time>2026-04-19T19:58:00Z</time></trkpt><trkpt lat="37.88863009697105" lon="14.99647757155773"><ele>647.0</ele><time>2026-04-19T19:58:01Z</time></trkpt><trkpt lat="37.888586504856576" lon="14.996642216991425"><ele>646.5</ele><time>2026-04-19T19:58:02Z</time></trkpt><trkpt lat="37.88853857631199" lon="14.99680891470565"><ele>646.0</ele><time>2026-04-19T19:58:03Z</time></trkpt><trkpt lat="37.88848921861967" lon="14.996975176025842"><ele>645.5</ele><time>2026-04-19T19:58:04Z</time></trkpt><trkpt lat="37.88843838495031" lon="14.997143391390319"><ele>645.0</ele><time>2026-04-19T19:58:05Z</time></trkpt><trkpt lat="37.88838792913622" lon="14.99731035686619"><ele>645.5</ele><time>2026-04-19T19:58:06Z</time></trkpt><trkpt lat="37.88833689161419" lon="14.99747479310355"><ele>646.0</ele><time>2026-04-19T19:58:07Z</time></trkpt><trkpt lat="37.888286203289645" lon="14.99763847954883"><ele>646.5</ele><time>2026-04-19T19:58:08Z</time></trkpt><trkpt lat="37.888234840853805" lon="14.997800332251146"><ele>647.0</ele><time>2026-04-19T19:58:09Z</time></trkpt><trkpt lat="37.88817868764768" lon="14.99794812338114"><ele>647.0</ele><time>2026-04-19T19:58:10Z</time></trkpt><trkpt lat="37.888104517370664" lon="14.998069587618279"><ele>647.0</ele><time>2026-04-19T19:58:11Z</time></trkpt><trkpt lat="37.8880344999714" lon="14.99819025551091"><ele>647.0</ele><time>2026-04-19T19:58:12Z</time></trkpt><trkpt lat="37.88798297160026" lon="14.998297199399051"><ele>647.0</ele><time>2026-04-19T19:58:13Z</time></trkpt><trkpt lat="37.88796674174417" lon="14.998433829067947"><ele>647.0</ele><time>2026-04-19T19:58:14Z</time></trkpt><trkpt lat="37.88796788908976" lon="14.998571575283384"><ele>645.75</ele><time>2026-04-19T19:58:15Z</time></trkpt><trkpt lat="37.887971695390256" lon="14.998710474477841"><ele>644.5</ele><time>2026-04-19T19:58:16Z</time></trkpt><trkpt lat="37.887976642107326" lon="14.998857119574469"><ele>643.25</ele><time>2026-04-19T19:58:17Z</time></trkpt><trkpt lat="37.8879817891135" lon="14.999009702315837"><ele>642.0</ele><time>2026-04-19T19:58:18Z</time></trkpt><trkpt lat="37.88798587865829" lon="14.999167463119978"><ele>641.0</ele><time>2026-04-19T19:58:19Z</time></trkpt><trkpt lat="37.88798978201345" lon="14.999331774221327"><ele>640.0</ele><time>2026-04-19T19:58:20Z</time></trkpt><trkpt lat="37.887993796877964" lon="14.999500779443334"><ele>639.0</ele><time>2026-04-19T19:58:21Z</time></trkpt><trkpt lat="37.88799957632073" lon="14.99967609369644"><ele>638.0</ele><time>2026-04-19T19:58:22Z</time></trkpt><trkpt lat="37.88800811735999" lon="14.999855516067074"><ele>638.0</ele><time>2026-04-19T19:58:23Z</time></trkpt><trkpt lat="37.88801762770774" lon="15.000023077668965"><ele>638.0</ele><time>2026-04-19T19:58:24Z</time></trkpt><trkpt lat="37.88802670952533" lon="15.000172687685827"><ele>638.0</ele><time>2026-04-19T19:58:25Z</time></trkpt><trkpt lat="37.888035605510545" lon="15.000310203541101"><ele>638.0</ele><time>2026-04-19T19:58:26Z</time></trkpt><trkpt lat="37.88804448784134" lon="15.000447508361372"><ele>638.0</ele><time>2026-04-19T19:58:27Z</time></trkpt><trkpt lat="37.88805107587767" lon="15.000572710416023"><ele>638.0</ele><time>2026-04-19T19:58:28Z</time></trkpt><trkpt lat="37.88805599431345" lon="15.0006945718566"><ele>638.0</ele><time>2026-04-19T19:58:29Z</time></trkpt><trkpt lat="37.88805876581341" lon="15.000824003953737"><ele>638.0</ele><time>2026-04-19T19:58:30Z</time></trkpt><trkpt lat="37.8880599642451" lon="15.000961025146786"><ele>638.0</ele><time>2026-04-19T19:58:31Z</time></trkpt><trkpt lat="37.8880610204662" lon="15.001107387479726"><ele>637.0</ele><time>2026-04-19T19:58:32Z</time></trkpt><trkpt lat="37.888060897024324" lon="15.001261112398915"><ele>636.0</ele><time>2026-04-19T19:58:33Z</time></trkpt><trkpt lat="37.888060471009176" lon="15.001418128821417"><ele>635.0</ele><time>2026-04-19T19:58:34Z</time></trkpt><trkpt lat="37.8880600286464" lon="15.001581171061279"><ele>634.0</ele><time>2026-04-19T19:58:35Z</time></trkpt><trkpt lat="37.88805959683646" lon="15.001740323761378"><ele>633.0</ele><time>2026-04-19T19:58:36Z</time></trkpt><trkpt lat="37.888059160729554" lon="15.001901059750148"><ele>632.0</ele><time>2026-04-19T19:58:37Z</time></trkpt><trkpt lat="37.88805932979837" lon="15.002064803454944"><ele>631.0</ele><time>2026-04-19T19:58:38Z</time></trkpt><trkpt lat="37.88805954577705" lon="15.002234661917234"><ele>630.0</ele><time>2026-04-19T19:58:39Z</time></trkpt><trkpt lat="37.8880597648625" lon="15.002406963859176"><ele>629.75</ele><time>2026-04-19T19:58:40Z</time></trkpt><trkpt lat="37.88805998820393" lon="15.002582612817097"><ele>629.5</ele><time>2026-04-19T19:58:41Z</time></trkpt><trkpt lat="37.88806021314215" lon="15.002759517853672"><ele>629.25</ele><time>2026-04-19T19:58:42Z</time></trkpt><trkpt lat="37.8880606286223" lon="15.002937154529668"><ele>629.0</ele><time>2026-04-19T19:58:43Z</time></trkpt><trkpt lat="37.88806107086709" lon="15.003117775625814"><ele>629.0</ele><time>2026-04-19T19:58:44Z</time></trkpt><trkpt lat="37.88806154381972" lon="15.003310938758657"><ele>629.0</ele><time>2026-04-19T19:58:45Z</time></trkpt><trkpt lat="37.88806202230344" lon="15.003506361140943"><ele>629.0</ele><time>2026-04-19T19:58:46Z</time></trkpt><trkpt lat="37.8880625110458" lon="15.00370597291905"><ele>628.75</ele><time>2026-04-19T19:58:47Z</time></trkpt><trkpt lat="37.88806299135779" lon="15.003902141890624"><ele>628.5</ele><time>2026-04-19T19:58:48Z</time></trkpt><trkpt lat="37.88806344840965" lon="15.004088680078107"><ele>628.25</ele><time>2026-04-19T19:58:49Z</time></trkpt><trkpt lat="37.888063898817805" lon="15.004272120006888"><ele>628.0</ele><time>2026-04-19T19:58:50Z</time></trkpt><trkpt lat="37.88806434746658" lon="15.004454843910022"><ele>626.75</ele><time>2026-04-19T19:58:51Z</time></trkpt><trkpt lat="37.88806487305292" lon="15.004641095014703"><ele>625.5</ele><time>2026-04-19T19:58:52Z</time></trkpt><trkpt lat="37.88806541206578" lon="15.00482646720634"><ele>624.25</ele><time>2026-04-19T19:58:53Z</time></trkpt><trkpt lat="37.888066281196885" lon="15.00501447080733"><ele>623.0</ele><time>2026-04-19T19:58:54Z</time></trkpt><trkpt lat="37.88806724251119" lon="15.005202339541677"><ele>622.25</ele><time>2026-04-19T19:58:55Z</time></trkpt><trkpt lat="37.88806806255214" lon="15.005390368936126"><ele>621.5</ele><time>2026-04-19T19:58:56Z</time></trkpt><trkpt lat="37.888068792657755" lon="15.005580402077562"><ele>620.75</ele><time>2026-04-19T19:58:57Z</time></trkpt><trkpt lat="37.88806951421193" lon="15.005768209595045"><ele>620.0</ele><time>2026-04-19T19:58:58Z</time></trkpt><trkpt lat="37.88807023561379" lon="15.00595597741901"><ele>619.0</ele><time>2026-04-19T19:58:59Z</time></trkpt><trkpt lat="37.88807095261186" lon="15.006144751760901"><ele>618.0</ele><time>2026-04-19T19:59:00Z</time></trkpt><trkpt lat="37.88807161112416" lon="15.006328131622316"><ele>617.0</ele><time>2026-04-19T19:59:01Z</time></trkpt><trkpt lat="37.88807228236007" lon="15.006515054843687"><ele>616.0</ele><time>2026-04-19T19:59:02Z</time></trkpt><trkpt lat="37.88807296084385" lon="15.006703996772812"><ele>615.6666666666667</ele><time>2026-04-19T19:59:03Z</time></trkpt><trkpt lat="37.88807325008831" lon="15.006894870194497"><ele>615.3333333333334</ele><time>2026-04-19T19:59:04Z</time></trkpt><trkpt lat="37.888073558308314" lon="15.007088339944199"><ele>615.0</ele><time>2026-04-19T19:59:05Z</time></trkpt><trkpt lat="37.88807385862972" lon="15.00727685182549"><ele>615.0</ele><time>2026-04-19T19:59:06Z</time></trkpt><trkpt lat="37.88807500789072" lon="15.007464383326008"><ele>615.0</ele><time>2026-04-19T19:59:07Z</time></trkpt><trkpt lat="37.88807539398333" lon="15.007651158247045"><ele>615.0</ele><time>2026-04-19T19:59:08Z</time></trkpt><trkpt lat="37.88807575798843" lon="15.007836687931174"><ele>615.0</ele><time>2026-04-19T19:59:09Z</time></trkpt><trkpt lat="37.888076119368996" lon="15.008020880237016"><ele>614.75</ele><time>2026-04-19T19:59:10Z</time></trkpt><trkpt lat="37.8880764752515" lon="15.008202270385626"><ele>614.5</ele><time>2026-04-19T19:59:11Z</time></trkpt><trkpt lat="37.88807682306441" lon="15.008379548060303"><ele>614.25</ele><time>2026-04-19T19:59:12Z</time></trkpt><trkpt lat="37.88807715858439" lon="15.008550560577016"><ele>614.0</ele><time>2026-04-19T19:59:13Z</time></trkpt><trkpt lat="37.8880774967029" lon="15.008722897475549"><ele>613.25</ele><time>2026-04-19T19:59:14Z</time></trkpt><trkpt lat="37.888077832517276" lon="15.008894059863001"><ele>612.5</ele><time>2026-04-19T19:59:15Z</time></trkpt><trkpt lat="37.888078168807624" lon="15.009065464663555"><ele>611.75</ele><time>2026-04-19T19:59:16Z</time></trkpt><trkpt lat="37.88807851665614" lon="15.009242760502131"><ele>611.0</ele><time>2026-04-19T19:59:17Z</time></trkpt><trkpt lat="37.88807887127503" lon="15.00942350643911"><ele>610.75</ele><time>2026-04-19T19:59:18Z</time></trkpt><trkpt lat="37.88807922078199" lon="15.009601647257437"><ele>610.5</ele><time>2026-04-19T19:59:19Z</time></trkpt><trkpt lat="37.888079608458625" lon="15.009787157656767"><ele>610.25</ele><time>2026-04-19T19:59:20Z</time></trkpt><trkpt lat="37.888080004338605" lon="15.009976153486917"><ele>610.0</ele><time>2026-04-19T19:59:21Z</time></trkpt><trkpt lat="37.88808039562134" lon="15.010162954402164"><ele>609.3333333333334</ele><time>2026-04-19T19:59:22Z</time></trkpt><trkpt lat="37.888080795235574" lon="15.010353732842223"><ele>608.6666666666666</ele><time>2026-04-19T19:59:23Z</time></trkpt><trkpt lat="37.88808119538342" lon="15.010544766005186"><ele>608.0</ele><time>2026-04-19T19:59:24Z</time></trkpt><trkpt lat="37.8880816034989" lon="15.010739603230657"><ele>607.6666666666666</ele><time>2026-04-19T19:59:25Z</time></trkpt><trkpt lat="37.88808201234682" lon="15.010934790013213"><ele>607.3333333333334</ele><time>2026-04-19T19:59:26Z</time></trkpt><trkpt lat="37.88808241981327" lon="15.011129317242496"><ele>607.0</ele><time>2026-04-19T19:59:27Z</time></trkpt><trkpt lat="37.88808297367742" lon="15.011327759274632"><ele>607.0</ele><time>2026-04-19T19:59:28Z</time></trkpt><trkpt lat="37.88808350966856" lon="15.011518100133358"><ele>607.0</ele><time>2026-04-19T19:59:29Z</time></trkpt><trkpt lat="37.88808403098054" lon="15.011703228057991"><ele>607.0</ele><time>2026-04-19T19:59:30Z</time></trkpt><trkpt lat="37.88808453753581" lon="15.011883115742654"><ele>607.0</ele><time>2026-04-19T19:59:31Z</time></trkpt><trkpt lat="37.88808503485438" lon="15.012059723242434"><ele>606.75</ele><time>2026-04-19T19:59:32Z</time></trkpt><trkpt lat="37.88808551399857" lon="15.01222987630851"><ele>606.5</ele><time>2026-04-19T19:59:33Z</time></trkpt><trkpt lat="37.88808599685892" lon="15.012401349084207"><ele>606.25</ele><time>2026-04-19T19:59:34Z</time></trkpt><trkpt lat="37.88808646898925" lon="15.012569011900538"><ele>606.0</ele><time>2026-04-19T19:59:35Z</time></trkpt><trkpt lat="37.888087129838205" lon="15.012737223585917"><ele>606.0</ele><time>2026-04-19T19:59:36Z</time></trkpt><trkpt lat="37.888087906626566" lon="15.012908893873975"><ele>606.0</ele><time>2026-04-19T19:59:37Z</time></trkpt><trkpt lat="37.88808872691707" lon="15.013090178257464"><ele>606.0</ele><time>2026-04-19T19:59:38Z</time></trkpt><trkpt lat="37.88808967274248" lon="15.013274893695451"><ele>606.0</ele><time>2026-04-19T19:59:39Z</time></trkpt><trkpt lat="37.88809063359861" lon="15.013462348114132"><ele>605.6666666666666</ele><time>2026-04-19T19:59:40Z</time></trkpt><trkpt lat="37.888091583659865" lon="15.013652692493869"><ele>605.3333333333333</ele><time>2026-04-19T19:59:41Z</time></trkpt><trkpt lat="37.88809252281136" lon="15.013843138936945"><ele>605.0</ele><time>2026-04-19T19:59:42Z</time></trkpt><trkpt lat="37.88809347786599" lon="15.014036810488635"><ele>604.6666666666666</ele><time>2026-04-19T19:59:43Z</time></trkpt><trkpt lat="37.88809443232347" lon="15.014230360761715"><ele>604.3333333333334</ele><time>2026-04-19T19:59:44Z</time></trkpt><trkpt lat="37.88809502608777" lon="15.014424188756937"><ele>604.0</ele><time>2026-04-19T19:59:45Z</time></trkpt><trkpt lat="37.888094641472726" lon="15.014608034314664"><ele>604.0</ele><time>2026-04-19T19:59:46Z</time></trkpt><trkpt lat="37.8880942720482" lon="15.01478461895705"><ele>604.0</ele><time>2026-04-19T19:59:47Z</time></trkpt><trkpt lat="37.88809205647362" lon="15.014956128763044"><ele>604.0</ele><time>2026-04-19T19:59:48Z</time></trkpt><trkpt lat="37.888083916194844" lon="15.015118274613066"><ele>604.0</ele><time>2026-04-19T19:59:49Z</time></trkpt><trkpt lat="37.88804467266197" lon="15.01525514725939"><ele>603.75</ele><time>2026-04-19T19:59:50Z</time></trkpt><trkpt lat="37.88799535553796" lon="15.015391523039778"><ele>603.5</ele><time>2026-04-19T19:59:51Z</time></trkpt><trkpt lat="37.88793140021045" lon="15.015511590453665"><ele>603.25</ele><time>2026-04-19T19:59:52Z</time></trkpt><trkpt lat="37.88791086538824" lon="15.015659453353257"><ele>603.0</ele><time>2026-04-19T19:59:53Z</time></trkpt><trkpt lat="37.88786627931723" lon="15.01578384558814"><ele>603.1999999999999</ele><time>2026-04-19T19:59:54Z</time></trkpt><trkpt lat="37.88783206372085" lon="15.015906139658126"><ele>603.4</ele><time>2026-04-19T19:59:55Z</time></trkpt><trkpt lat="37.887814301268754" lon="15.016024433671584"><ele>603.5999999999999</ele><time>2026-04-19T19:59:56Z</time></trkpt><trkpt lat="37.88781018274616" lon="15.016148476396351"><ele>603.8</ele><time>2026-04-19T19:59:57Z</time></trkpt><trkpt lat="37.887820384562" lon="15.016270582791126"><ele>604.0</ele><time>2026-04-19T19:59:58Z</time></trkpt><trkpt lat="37.887818171511086" lon="15.016404695903786"><ele>604.0</ele><time>2026-04-19T19:59:59Z</time></trkpt><trkpt lat="37.88785071520559" lon="15.016538009605155"><ele>604.0</ele><time>2026-04-19T20:00:00Z</time></trkpt><trkpt lat="37.88788605435869" lon="15.016682774842176"><ele>604.0</ele><time>2026-04-19T20:00:01Z</time></trkpt><trkpt lat="37.88792247594589" lon="15.016831973847054"><ele>604.0</ele><time>2026-04-19T20:00:02Z</time></trkpt><trkpt lat="37.88795946268241" lon="15.01698459609472"><ele>603.5</ele><time>2026-04-19T20:00:03Z</time></trkpt><trkpt lat="37.88799666067161" lon="15.017140466373116"><ele>603.0</ele><time>2026-04-19T20:00:04Z</time></trkpt><trkpt lat="37.888033587986705" lon="15.017295203247707"><ele>602.5</ele><time>2026-04-19T20:00:05Z</time></trkpt><trkpt lat="37.88806923037515" lon="15.017450118163818"><ele>602.0</ele><time>2026-04-19T20:00:06Z</time></trkpt><trkpt lat="37.88810431927047" lon="15.017601564005602"><ele>601.0</ele><time>2026-04-19T20:00:07Z</time></trkpt><trkpt lat="37.88813929269802" lon="15.017752728725977"><ele>600.0</ele><time>2026-04-19T20:00:08Z</time></trkpt><trkpt lat="37.88817392419656" lon="15.017902415455435"><ele>599.0</ele><time>2026-04-19T20:00:09Z</time></trkpt><trkpt lat="37.88820795187436" lon="15.018049492355619"><ele>598.0</ele><time>2026-04-19T20:00:10Z</time></trkpt><trkpt lat="37.88823790994488" lon="15.018191519211742"><ele>597.8</ele><time>2026-04-19T20:00:11Z</time></trkpt><trkpt lat="37.88826332916987" lon="15.01833196216212"><ele>597.5999999999999</ele><time>2026-04-19T20:00:12Z</time></trkpt><trkpt lat="37.88827974555044" lon="15.018471362170562"><ele>597.4000000000001</ele><time>2026-04-19T20:00:13Z</time></trkpt><trkpt lat="37.88829347466079" lon="15.018611725490615"><ele>597.2</ele><time>2026-04-19T20:00:14Z</time></trkpt><trkpt lat="37.88830708101935" lon="15.018750834542448"><ele>597.0</ele><time>2026-04-19T20:00:15Z</time></trkpt><trkpt lat="37.88831717798145" lon="15.018891363398717"><ele>597.0</ele><time>2026-04-19T20:00:16Z</time></trkpt><trkpt lat="37.88832833672595" lon="15.019036405635596"><ele>597.0</ele><time>2026-04-19T20:00:17Z</time></trkpt><trkpt lat="37.88833966466816" lon="15.019183647070639"><ele>597.0</ele><time>2026-04-19T20:00:18Z</time></trkpt><trkpt lat="37.8883508178986" lon="15.019328617557992"><ele>597.0</ele><time>2026-04-19T20:00:19Z</time></trkpt><trkpt lat="37.88836501870446" lon="15.019474845010478"><ele>596.6</ele><time>2026-04-19T20:00:20Z</time></trkpt><trkpt lat="37.88838795758596" lon="15.019618691775978"><ele>596.2</ele><time>2026-04-19T20:00:21Z</time></trkpt><trkpt lat="37.88841655615118" lon="15.019755718406733"><ele>595.8</ele><time>2026-04-19T20:00:22Z</time></trkpt><trkpt lat="37.888445740887256" lon="15.01988641023759"><ele>595.4</ele><time>2026-04-19T20:00:23Z</time></trkpt><trkpt lat="37.888478427557075" lon="15.020012824343528"><ele>595.0</ele><time>2026-04-19T20:00:24Z</time></trkpt><trkpt lat="37.88851580014147" lon="15.02013112431433"><ele>593.6</ele><time>2026-04-19T20:00:25Z</time></trkpt><trkpt lat="37.88856342667745" lon="15.020240162756439"><ele>592.2</ele><time>2026-04-19T20:00:26Z</time></trkpt><trkpt lat="37.8886068423132" lon="15.02034408782132"><ele>590.8</ele><time>2026-04-19T20:00:27Z</time></trkpt><trkpt lat="37.88862214341398" lon="15.020460991258355"><ele>589.4</ele><time>2026-04-19T20:00:28Z</time></trkpt><trkpt lat="37.88861880695617" lon="15.020586781716334"><ele>588.0</ele><time>2026-04-19T20:00:29Z</time></trkpt><trkpt lat="37.888622017705075" lon="15.02072063559712"><ele>588.75</ele><time>2026-04-19T20:00:30Z</time></trkpt><trkpt lat="37.88862540443196" lon="15.020861825634787"><ele>589.5</ele><time>2026-04-19T20:00:31Z</time></trkpt><trkpt lat="37.888627934054945" lon="15.021008631221791"><ele>590.25</ele><time>2026-04-19T20:00:32Z</time></trkpt><trkpt lat="37.88863001908705" lon="15.021157330473825"><ele>591.0</ele><time>2026-04-19T20:00:33Z</time></trkpt><trkpt lat="37.88863211736071" lon="15.021306974033877"><ele>591.0</ele><time>2026-04-19T20:00:34Z</time></trkpt><trkpt lat="37.88863200256273" lon="15.021454820192826"><ele>591.0</ele><time>2026-04-19T20:00:35Z</time></trkpt><trkpt lat="37.888626672411775" lon="15.021602455809882"><ele>591.0</ele><time>2026-04-19T20:00:36Z</time></trkpt><trkpt lat="37.8886184296234" lon="15.021753703153259"><ele>591.0</ele><time>2026-04-19T20:00:37Z</time></trkpt><trkpt lat="37.88861011230837" lon="15.021906317921964"><ele>590.75</ele><time>2026-04-19T20:00:38Z</time></trkpt><trkpt lat="37.888610395564655" lon="15.022068032098668"><ele>590.5</ele><time>2026-04-19T20:00:39Z</time></trkpt><trkpt lat="37.8886351903217" lon="15.022234770747712"><ele>590.25</ele><time>2026-04-19T20:00:40Z</time></trkpt><trkpt lat="37.88867420153843" lon="15.02239530010565"><ele>590.0</ele><time>2026-04-19T20:00:41Z</time></trkpt><trkpt lat="37.888716109625186" lon="15.022546550109784"><ele>590.0</ele><time>2026-04-19T20:00:42Z</time></trkpt><trkpt lat="37.888754642954815" lon="15.022692076157059"><ele>590.0</ele><time>2026-04-19T20:00:43Z</time></trkpt><trkpt lat="37.88878427222646" lon="15.022826970217059"><ele>590.0</ele><time>2026-04-19T20:00:44Z</time></trkpt><trkpt lat="37.88878735468407" lon="15.022955633076666"><ele>590.0</ele><time>2026-04-19T20:00:45Z</time></trkpt><trkpt lat="37.88877655312738" lon="15.023086824562805"><ele>590.0</ele><time>2026-04-19T20:00:46Z</time></trkpt><trkpt lat="37.88876157056544" lon="15.02321944386677"><ele>591.25</ele><time>2026-04-19T20:00:47Z</time></trkpt><trkpt lat="37.8887556340413" lon="15.023362670986096"><ele>592.5</ele><time>2026-04-19T20:00:48Z</time></trkpt><trkpt lat="37.88875833230178" lon="15.023507065949282"><ele>593.75</ele><time>2026-04-19T20:00:49Z</time></trkpt><trkpt lat="37.88875780489506" lon="15.023651741270596"><ele>595.0</ele><time>2026-04-19T20:00:50Z</time></trkpt><trkpt lat="37.88875165173068" lon="15.023796743704741"><ele>595.0</ele><time>2026-04-19T20:00:51Z</time></trkpt><trkpt lat="37.88873948594605" lon="15.02393917609751"><ele>595.0</ele><time>2026-04-19T20:00:52Z</time></trkpt><trkpt lat="37.8887183567954" lon="15.024077287093448"><ele>595.0</ele><time>2026-04-19T20:00:53Z</time></trkpt><trkpt lat="37.88868769860085" lon="15.024215324760096"><ele>595.0</ele><time>2026-04-19T20:00:54Z</time></trkpt><trkpt lat="37.888655489907045" lon="15.024356245636564"><ele>595.0</ele><time>2026-04-19T20:00:55Z</time></trkpt><trkpt lat="37.888622440616295" lon="15.024493673891675"><ele>595.0</ele><time>2026-04-19T20:00:56Z</time></trkpt><trkpt lat="37.888583865372745" lon="15.024627416093598"><ele>595.0</ele><time>2026-04-19T20:00:57Z</time></trkpt><trkpt lat="37.888537907816776" lon="15.02475636391978"><ele>595.0</ele><time>2026-04-19T20:00:58Z</time></trkpt><trkpt lat="37.88847717461857" lon="15.024872366877167"><ele>595.0</ele><time>2026-04-19T20:00:59Z</time></trkpt><trkpt lat="37.888406815386936" lon="15.024989977830767"><ele>595.0</ele><time>2026-04-19T20:01:00Z</time></trkpt><trkpt lat="37.88832970228123" lon="15.02510497200382"><ele>595.0</ele><time>2026-04-19T20:01:01Z</time></trkpt><trkpt lat="37.88825333060783" lon="15.025218155448165"><ele>595.0</ele><time>2026-04-19T20:01:02Z</time></trkpt><trkpt lat="37.88818096072841" lon="15.02532824113383"><ele>595.0</ele><time>2026-04-19T20:01:03Z</time></trkpt><trkpt lat="37.88811106910006" lon="15.025434556965891"><ele>595.0</ele><time>2026-04-19T20:01:04Z</time></trkpt><trkpt lat="37.88804348910952" lon="15.02554402800019"><ele>595.0</ele><time>2026-04-19T20:01:05Z</time></trkpt><trkpt lat="37.88798056394893" lon="15.025651518560347"><ele>595.0</ele><time>2026-04-19T20:01:06Z</time></trkpt><trkpt lat="37.88793447199663" lon="15.025774862766909"><ele>595.0</ele><time>2026-04-19T20:01:07Z</time></trkpt><trkpt lat="37.88793559755093" lon="15.025920288074474"><ele>595.0</ele><time>2026-04-19T20:01:08Z</time></trkpt><trkpt lat="37.887951914874776" lon="15.026042098343746"><ele>594.4</ele><time>2026-04-19T20:01:09Z</time></trkpt><trkpt lat="37.88796914822945" lon="15.026165744709592"><ele>593.8</ele><time>2026-04-19T20:01:10Z</time></trkpt><trkpt lat="37.8879799881469" lon="15.026297075847776"><ele>593.2</ele><time>2026-04-19T20:01:11Z</time></trkpt><trkpt lat="37.887975555285585" lon="15.026436918093047"><ele>592.6</ele><time>2026-04-19T20:01:12Z</time></trkpt><trkpt lat="37.88794895971267" lon="15.026576472225356"><ele>592.0</ele><time>2026-04-19T20:01:13Z</time></trkpt><trkpt lat="37.887909969055784" lon="15.026714253539282"><ele>589.75</ele><time>2026-04-19T20:01:14Z</time></trkpt><trkpt lat="37.88785800929633" lon="15.026913043560063"><ele>587.5</ele><time>2026-04-19T20:01:15Z</time></trkpt><trkpt lat="37.88783316530752" lon="15.027082564428234"><ele>585.25</ele><time>2026-04-19T20:01:16Z</time></trkpt><trkpt lat="37.88781771358614" lon="15.027246269412876"><ele>583.0</ele><time>2026-04-19T20:01:17Z</time></trkpt><trkpt lat="37.887806715697764" lon="15.027388941610885"><ele>581.6</ele><time>2026-04-19T20:01:18Z</time></trkpt><trkpt lat="37.887788112863966" lon="15.027532114188114"><ele>580.1999999999999</ele><time>2026-04-19T20:01:19Z</time></trkpt><trkpt lat="37.88775349547948" lon="15.027650294280072"><ele>578.8</ele><time>2026-04-19T20:01:20Z</time></trkpt><trkpt lat="37.88769402673591" lon="15.027772036104883"><ele>577.4</ele><time>2026-04-19T20:01:21Z</time></trkpt><trkpt lat="37.88761774553598" lon="15.027884373662994"><ele>576.0</ele><time>2026-04-19T20:01:22Z</time></trkpt><trkpt lat="37.887546638146084" lon="15.028009156787975"><ele>578.5</ele><time>2026-04-19T20:01:23Z</time></trkpt><trkpt lat="37.88749267753706" lon="15.028148687232312"><ele>581.0</ele><time>2026-04-19T20:01:24Z</time></trkpt><trkpt lat="37.88744266157567" lon="15.02830240273685"><ele>583.5</ele><time>2026-04-19T20:01:25Z</time></trkpt><trkpt lat="37.88741197553404" lon="15.028458158982698"><ele>586.0</ele><time>2026-04-19T20:01:26Z</time></trkpt><trkpt lat="37.887389027339424" lon="15.028617929718257"><ele>586.0</ele><time>2026-04-19T20:01:27Z</time></trkpt><trkpt lat="37.88736961677477" lon="15.028769546026206"><ele>586.0</ele><time>2026-04-19T20:01:28Z</time></trkpt><trkpt lat="37.88736071016455" lon="15.02892437635497"><ele>586.0</ele><time>2026-04-19T20:01:29Z</time></trkpt><trkpt lat="37.887350968523485" lon="15.029075356676113"><ele>586.0</ele><time>2026-04-19T20:01:30Z</time></trkpt><trkpt lat="37.887350332912035" lon="15.029241454655029"><ele>584.0</ele><time>2026-04-19T20:01:31Z</time></trkpt><trkpt lat="37.887361666777906" lon="15.029403374408055"><ele>582.0</ele><time>2026-04-19T20:01:32Z</time></trkpt><trkpt lat="37.887343007416334" lon="15.029562362398769"><ele>580.0</ele><time>2026-04-19T20:01:33Z</time></trkpt><trkpt lat="37.8873260605792" lon="15.02972390022009"><ele>578.0</ele><time>2026-04-19T20:01:34Z</time></trkpt><trkpt lat="37.88730935084198" lon="15.02988723484372"><ele>577.75</ele><time>2026-04-19T20:01:35Z</time></trkpt><trkpt lat="37.887296376317906" lon="15.030043714031605"><ele>577.5</ele><time>2026-04-19T20:01:36Z</time></trkpt><trkpt lat="37.88729425217144" lon="15.03019334860614"><ele>577.25</ele><time>2026-04-19T20:01:37Z</time></trkpt><trkpt lat="37.887304039062826" lon="15.030338993552174"><ele>577.0</ele><time>2026-04-19T20:01:38Z</time></trkpt><trkpt lat="37.88730928986779" lon="15.030477954698679"><ele>577.0</ele><time>2026-04-19T20:01:39.001Z</time></trkpt><trkpt lat="37.88727975053543" lon="15.030612398237615"><ele>577.0</ele><time>2026-04-19T20:01:40.001Z</time></trkpt><trkpt lat="37.88724690065077" lon="15.030757762712039"><ele>577.0</ele><time>2026-04-19T20:01:41.001Z</time></trkpt><trkpt lat="37.88721812194451" lon="15.030910564319845"><ele>577.0</ele><time>2026-04-19T20:01:42.001Z</time></trkpt><trkpt lat="37.887199819261355" lon="15.031053823452108"><ele>576.5</ele><time>2026-04-19T20:01:43.001Z</time></trkpt><trkpt lat="37.88718569416199" lon="15.031197141916365"><ele>576.0</ele><time>2026-04-19T20:01:44.001Z</time></trkpt><trkpt lat="37.88718188005941" lon="15.031342120266537"><ele>575.5</ele><time>2026-04-19T20:01:45.001Z</time></trkpt><trkpt lat="37.88721200231183" lon="15.031491434660877"><ele>575.0</ele><time>2026-04-19T20:01:46.001Z</time></trkpt><trkpt lat="37.88720173400621" lon="15.031643285558028"><ele>576.0</ele><time>2026-04-19T20:01:47.001Z</time></trkpt><trkpt lat="37.887197538244536" lon="15.031791908175743"><ele>577.0</ele><time>2026-04-19T20:01:48.001Z</time></trkpt><trkpt lat="37.887188586739796" lon="15.03193844101546"><ele>578.0</ele><time>2026-04-19T20:01:49.001Z</time></trkpt><trkpt lat="37.88717744692345" lon="15.032086902205108"><ele>579.0</ele><time>2026-04-19T20:01:50.001Z</time></trkpt><trkpt lat="37.88716412740466" lon="15.032237877828985"><ele>579.0</ele><time>2026-04-19T20:01:51.001Z</time></trkpt><trkpt lat="37.88714840269668" lon="15.032392022404949"><ele>579.0</ele><time>2026-04-19T20:01:52.001Z</time></trkpt><trkpt lat="37.88713205117783" lon="15.032549727876736"><ele>579.0</ele><time>2026-04-19T20:01:53.001Z</time></trkpt><trkpt lat="37.88711486716262" lon="15.032730293118435"><ele>579.0</ele><time>2026-04-19T20:01:54.001Z</time></trkpt><trkpt lat="37.887097403902274" lon="15.032918809257612"><ele>578.5</ele><time>2026-04-19T20:01:55.001Z</time></trkpt><trkpt lat="37.88707996939913" lon="15.033107014929534"><ele>578.0</ele><time>2026-04-19T20:01:56.001Z</time></trkpt><trkpt lat="37.8870633066456" lon="15.033286889401692"><ele>577.5</ele><time>2026-04-19T20:01:57.001Z</time></trkpt><trkpt lat="37.88704657527315" lon="15.033467504701981"><ele>577.0</ele><time>2026-04-19T20:01:58.001Z</time></trkpt><trkpt lat="37.88703030225974" lon="15.033643172001007"><ele>575.25</ele><time>2026-04-19T20:01:59.001Z</time></trkpt><trkpt lat="37.88701481856472" lon="15.033812366844261"><ele>573.5</ele><time>2026-04-19T20:02:00.001Z</time></trkpt><trkpt lat="37.88700287559038" lon="15.033976020211336"><ele>571.75</ele><time>2026-04-19T20:02:01.001Z</time></trkpt><trkpt lat="37.886997371526384" lon="15.034135572761338"><ele>570.0</ele><time>2026-04-19T20:02:02.001Z</time></trkpt><trkpt lat="37.887014539012284" lon="15.034291133402016"><ele>569.5</ele><time>2026-04-19T20:02:03.001Z</time></trkpt><trkpt lat="37.88702427337407" lon="15.034438850598292"><ele>569.0</ele><time>2026-04-19T20:02:04.001Z</time></trkpt><trkpt lat="37.88703913447153" lon="15.034581218920708"><ele>568.5</ele><time>2026-04-19T20:02:05.001Z</time></trkpt><trkpt lat="37.88707701002228" lon="15.034716029118693"><ele>568.0</ele><time>2026-04-19T20:02:06.001Z</time></trkpt><trkpt lat="37.887136672805994" lon="15.034837072679272"><ele>568.0</ele><time>2026-04-19T20:02:07.001Z</time></trkpt><trkpt lat="37.88717266685729" lon="15.034976183766394"><ele>568.0</ele><time>2026-04-19T20:02:08Z</time></trkpt><trkpt lat="37.88720612967151" lon="15.035113012503198"><ele>568.0</ele><time>2026-04-19T20:02:09Z</time></trkpt><trkpt lat="37.88723646889686" lon="15.035250760428118"><ele>568.0</ele><time>2026-04-19T20:02:10Z</time></trkpt><trkpt lat="37.88726427511987" lon="15.035388142034995"><ele>568.0</ele><time>2026-04-19T20:02:11Z</time></trkpt><trkpt lat="37.887279940341706" lon="15.035531516860676"><ele>568.0</ele><time>2026-04-19T20:02:12Z</time></trkpt><trkpt lat="37.88727336063283" lon="15.035672848533085"><ele>568.0</ele><time>2026-04-19T20:02:13Z</time></trkpt><trkpt lat="37.88726448890793" lon="15.035823249715769"><ele>568.0</ele><time>2026-04-19T20:02:14Z</time></trkpt><trkpt lat="37.887251429169176" lon="15.03597602868453"><ele>567.75</ele><time>2026-04-19T20:02:15Z</time></trkpt><trkpt lat="37.88723750685853" lon="15.036135390378096"><ele>567.5</ele><time>2026-04-19T20:02:16Z</time></trkpt><trkpt lat="37.887226004718784" lon="15.03629913729238"><ele>567.25</ele><time>2026-04-19T20:02:17Z</time></trkpt><trkpt lat="37.88721747638145" lon="15.036459032510999"><ele>567.0</ele><time>2026-04-19T20:02:18Z</time></trkpt><trkpt lat="37.88720857109394" lon="15.036620616869572"><ele>567.0</ele><time>2026-04-19T20:02:19Z</time></trkpt><trkpt lat="37.88719639815245" lon="15.036780558383576"><ele>567.0</ele><time>2026-04-19T20:02:20Z</time></trkpt><trkpt lat="37.887179324561785" lon="15.03693813635358"><ele>567.0</ele><time>2026-04-19T20:02:21Z</time></trkpt><trkpt lat="37.8871555033348" lon="15.037090196856441"><ele>567.0</ele><time>2026-04-19T20:02:22Z</time></trkpt><trkpt lat="37.88712427169438" lon="15.03724173017766"><ele>567.0</ele><time>2026-04-19T20:02:23Z</time></trkpt><trkpt lat="37.88709291394803" lon="15.037391909389385"><ele>567.0</ele><time>2026-04-19T20:02:24Z</time></trkpt><trkpt lat="37.887064085340036" lon="15.037540460826357"><ele>567.0</ele><time>2026-04-19T20:02:25Z</time></trkpt><trkpt lat="37.88703792890615" lon="15.037676818019957"><ele>567.0</ele><time>2026-04-19T20:02:26Z</time></trkpt><trkpt lat="37.887014653731995" lon="15.037800982737155"><ele>567.0</ele><time>2026-04-19T20:02:27Z</time></trkpt><trkpt lat="37.88699336969478" lon="15.037917387256588"><ele>567.0</ele><time>2026-04-19T20:02:28Z</time></trkpt><trkpt lat="37.88698000352091" lon="15.038035284636013"><ele>567.0</ele><time>2026-04-19T20:02:29Z</time></trkpt><trkpt lat="37.886982447770336" lon="15.038150956235068"><ele>567.0</ele><time>2026-04-19T20:02:30Z</time></trkpt><trkpt lat="37.88703700228104" lon="15.038265026457141"><ele>567.0</ele><time>2026-04-19T20:02:31Z</time></trkpt><trkpt lat="37.8870939710547" lon="15.038382385410753"><ele>566.5</ele><time>2026-04-19T20:02:32Z</time></trkpt><trkpt lat="37.88717241080528" lon="15.038495452748062"><ele>566.0</ele><time>2026-04-19T20:02:33Z</time></trkpt><trkpt lat="37.88725321015625" lon="15.038616046426261"><ele>565.5</ele><time>2026-04-19T20:02:34Z</time></trkpt><trkpt lat="37.88732511834078" lon="15.03874845450619"><ele>565.0</ele><time>2026-04-19T20:02:35Z</time></trkpt><trkpt lat="37.887405679153666" lon="15.038873823392192"><ele>565.0</ele><time>2026-04-19T20:02:36Z</time></trkpt><trkpt lat="37.88747866020899" lon="15.038996828517119"><ele>565.0</ele><time>2026-04-19T20:02:37Z</time></trkpt><trkpt lat="37.887546900716124" lon="15.039114691141664"><ele>565.0</ele><time>2026-04-19T20:02:38Z</time></trkpt><trkpt lat="37.88760804461798" lon="15.03922310728345"><ele>565.0</ele><time>2026-04-19T20:02:39Z</time></trkpt><trkpt lat="37.88766751997301" lon="15.039317101143705"><ele>565.0</ele><time>2026-04-19T20:02:40Z</time></trkpt><trkpt lat="37.88770676209605" lon="15.039414576661239"><ele>564.1666666666667</ele><time>2026-04-19T20:02:41Z</time></trkpt><trkpt lat="37.88774830110127" lon="15.039500683976673"><ele>563.3333333333334</ele><time>2026-04-19T20:02:42Z</time></trkpt><trkpt lat="37.8877664911629" lon="15.039599808671053"><ele>562.5</ele><time>2026-04-19T20:02:43Z</time></trkpt><trkpt lat="37.887759200813825" lon="15.039701313950818"><ele>561.6666666666666</ele><time>2026-04-19T20:02:44Z</time></trkpt><trkpt lat="37.887727591817274" lon="15.039795114594085"><ele>560.8333333333333</ele><time>2026-04-19T20:02:45Z</time></trkpt><trkpt lat="37.887678169780315" lon="15.039878182984792"><ele>560.0</ele><time>2026-04-19T20:02:46Z</time></trkpt><trkpt lat="37.88761405928432" lon="15.039960823941145"><ele>562.2</ele><time>2026-04-19T20:02:47Z</time></trkpt><trkpt lat="37.88754473399518" lon="15.040050814460644"><ele>564.4</ele><time>2026-04-19T20:02:48Z</time></trkpt><trkpt lat="37.88747930829736" lon="15.040145143158574"><ele>566.6</ele><time>2026-04-19T20:02:49Z</time></trkpt><trkpt lat="37.8874136203392" lon="15.040239849661102"><ele>568.8</ele><time>2026-04-19T20:02:50Z</time></trkpt><trkpt lat="37.88734778469152" lon="15.040336164691796"><ele>571.0</ele><time>2026-04-19T20:02:51Z</time></trkpt><trkpt lat="37.88728565678105" lon="15.040434261349152"><ele>571.0</ele><time>2026-04-19T20:02:52Z</time></trkpt><trkpt lat="37.887236713423725" lon="15.040544948724493"><ele>571.0</ele><time>2026-04-19T20:02:53Z</time></trkpt><trkpt lat="37.887183429938375" lon="15.040665832554456"><ele>571.0</ele><time>2026-04-19T20:02:54Z</time></trkpt><trkpt lat="37.88715771088168" lon="15.040838155881271"><ele>571.0</ele><time>2026-04-19T20:02:55Z</time></trkpt><trkpt lat="37.88712170171732" lon="15.040995117811983"><ele>571.0</ele><time>2026-04-19T20:02:56Z</time></trkpt><trkpt lat="37.88708577116922" lon="15.041146693693449"><ele>571.0</ele><time>2026-04-19T20:02:57Z</time></trkpt><trkpt lat="37.88704575635851" lon="15.041310004514983"><ele>571.0</ele><time>2026-04-19T20:02:58Z</time></trkpt><trkpt lat="37.887002999040085" lon="15.041484508248953"><ele>571.0</ele><time>2026-04-19T20:02:59Z</time></trkpt><trkpt lat="37.886959312228605" lon="15.04166280736622"><ele>571.0</ele><time>2026-04-19T20:03:00Z</time></trkpt><trkpt lat="37.88691523061725" lon="15.041848377934874"><ele>571.0</ele><time>2026-04-19T20:03:01Z</time></trkpt><trkpt lat="37.88686761018876" lon="15.042047630033643"><ele>571.0</ele><time>2026-04-19T20:03:02Z</time></trkpt><trkpt lat="37.88682248233714" lon="15.042236409927371"><ele>571.0</ele><time>2026-04-19T20:03:03Z</time></trkpt><trkpt lat="37.886779632196856" lon="15.042414556003282"><ele>571.0</ele><time>2026-04-19T20:03:04Z</time></trkpt><trkpt lat="37.88673684684652" lon="15.042590428970922"><ele>571.0</ele><time>2026-04-19T20:03:05Z</time></trkpt><trkpt lat="37.886694052853464" lon="15.042766337494255"><ele>571.0</ele><time>2026-04-19T20:03:06Z</time></trkpt><trkpt lat="37.88665005624752" lon="15.042947189516875"><ele>571.3333333333334</ele><time>2026-04-19T20:03:07.001Z</time></trkpt><trkpt lat="37.88660440374655" lon="15.04313484826346"><ele>571.6666666666666</ele><time>2026-04-19T20:03:08.001Z</time></trkpt><trkpt lat="37.886556676810194" lon="15.043331034135973"><ele>572.0</ele><time>2026-04-19T20:03:09.001Z</time></trkpt><trkpt lat="37.88650342814386" lon="15.04354991746371"><ele>572.0</ele><time>2026-04-19T20:03:10.001Z</time></trkpt><trkpt lat="37.88644771296448" lon="15.043778939718877"><ele>572.0</ele><time>2026-04-19T20:03:11.001Z</time></trkpt><trkpt lat="37.88639602686164" lon="15.043991400039488"><ele>572.0</ele><time>2026-04-19T20:03:12.001Z</time></trkpt><trkpt lat="37.88634845214183" lon="15.044186960287895"><ele>571.75</ele><time>2026-04-19T20:03:13.001Z</time></trkpt><trkpt lat="37.88630425570378" lon="15.044368633727446"><ele>571.5</ele><time>2026-04-19T20:03:14.001Z</time></trkpt><trkpt lat="37.88626153593722" lon="15.04454622247982"><ele>571.25</ele><time>2026-04-19T20:03:15.001Z</time></trkpt><trkpt lat="37.88621914794502" lon="15.044722409092364"><ele>571.0</ele><time>2026-04-19T20:03:16.001Z</time></trkpt><trkpt lat="37.88617748322927" lon="15.044895589392642"><ele>571.5</ele><time>2026-04-19T20:03:17.001Z</time></trkpt><trkpt lat="37.886135105290656" lon="15.045071734206434"><ele>572.0</ele><time>2026-04-19T20:03:18.001Z</time></trkpt><trkpt lat="37.88609304130445" lon="15.045246574093303"><ele>572.5</ele><time>2026-04-19T20:03:19.001Z</time></trkpt><trkpt lat="37.88605220074514" lon="15.045416328736987"><ele>573.0</ele><time>2026-04-19T20:03:20.001Z</time></trkpt><trkpt lat="37.8860131385397" lon="15.045575944923696"><ele>573.0</ele><time>2026-04-19T20:03:21.001Z</time></trkpt><trkpt lat="37.88597686823501" lon="15.045724124152505"><ele>573.0</ele><time>2026-04-19T20:03:22.001Z</time></trkpt><trkpt lat="37.885942339754884" lon="15.045865187278638"><ele>573.0</ele><time>2026-04-19T20:03:23.001Z</time></trkpt><trkpt lat="37.88590906932451" lon="15.046001377889793"><ele>573.0</ele><time>2026-04-19T20:03:24.001Z</time></trkpt><trkpt lat="37.88587941133342" lon="15.046123305294175"><ele>573.6</ele><time>2026-04-19T20:03:25.001Z</time></trkpt><trkpt lat="37.88585582555152" lon="15.0462202691676"><ele>574.1999999999999</ele><time>2026-04-19T20:03:26.001Z</time></trkpt><trkpt lat="37.88583653472789" lon="15.0463001484911"><ele>574.8</ele><time>2026-04-19T20:03:27.001Z</time></trkpt><trkpt lat="37.88580210890829" lon="15.046446484565722"><ele>575.4</ele><time>2026-04-19T20:03:29.001Z</time></trkpt><trkpt lat="37.8857213884676" lon="15.046543772462721"><ele>576.0</ele><time>2026-04-19T20:03:31.001Z</time></trkpt><trkpt lat="37.885655761107294" lon="15.046661962121247"><ele>576.2</ele><time>2026-04-19T20:03:33.001Z</time></trkpt><trkpt lat="37.885575962989265" lon="15.04672075481134"><ele>576.4000000000001</ele><time>2026-04-19T20:03:34.001Z</time></trkpt><trkpt lat="37.8855407171822" lon="15.046823480781446"><ele>576.6</ele><time>2026-04-19T20:03:35.001Z</time></trkpt><trkpt lat="37.885502082817" lon="15.04692825740304"><ele>576.8000000000001</ele><time>2026-04-19T20:03:36.001Z</time></trkpt><trkpt lat="37.88546341654792" lon="15.047028989603728"><ele>577.0</ele><time>2026-04-19T20:03:37.001Z</time></trkpt><trkpt lat="37.88542332661079" lon="15.047133430618041"><ele>577.0</ele><time>2026-04-19T20:03:38.001Z</time></trkpt><trkpt lat="37.885382490690866" lon="15.047239815081433"><ele>577.0</ele><time>2026-04-19T20:03:39.001Z</time></trkpt><trkpt lat="37.885342758650346" lon="15.047343323724554"><ele>577.0</ele><time>2026-04-19T20:03:40.001Z</time></trkpt><trkpt lat="37.8853040684929" lon="15.047444117975996"><ele>577.0</ele><time>2026-04-19T20:03:41.001Z</time></trkpt><trkpt lat="37.885265153746225" lon="15.047545497532132"><ele>577.0</ele><time>2026-04-19T20:03:42.001Z</time></trkpt><trkpt lat="37.885224045957465" lon="15.047652590219336"><ele>576.8333333333334</ele><time>2026-04-19T20:03:43.001Z</time></trkpt><trkpt lat="37.88518224598282" lon="15.047761486156872"><ele>576.6666666666667</ele><time>2026-04-19T20:03:44.001Z</time></trkpt><trkpt lat="37.885140923039756" lon="15.04787026180162"><ele>576.5</ele><time>2026-04-19T20:03:45.001Z</time></trkpt><trkpt lat="37.885102924285405" lon="15.047971880954112"><ele>576.3333333333334</ele><time>2026-04-19T20:03:46.001Z</time></trkpt><trkpt lat="37.88506877515874" lon="15.048065551833904"><ele>576.1666666666666</ele><time>2026-04-19T20:03:47.001Z</time></trkpt><trkpt lat="37.88503844068367" lon="15.048155811272018"><ele>576.0</ele><time>2026-04-19T20:03:48.001Z</time></trkpt><trkpt lat="37.885027797739255" lon="15.048252139188099"><ele>576.5</ele><time>2026-04-19T20:03:49.001Z</time></trkpt><trkpt lat="37.88503656176371" lon="15.048331607685881"><ele>577.0</ele><time>2026-04-19T20:03:50.001Z</time></trkpt><trkpt lat="37.88510441104248" lon="15.048388763209376"><ele>577.5</ele><time>2026-04-19T20:03:51.001Z</time></trkpt><trkpt lat="37.8851532836318" lon="15.048439930684827"><ele>578.0</ele><time>2026-04-19T20:03:52.001Z</time></trkpt><trkpt lat="37.88522781099437" lon="15.048560588795393"><ele>578.5</ele><time>2026-04-19T20:03:54.001Z</time></trkpt><trkpt lat="37.885227132319464" lon="15.048642015453712"><ele>579.0</ele><time>2026-04-19T20:03:55.001Z</time></trkpt><trkpt lat="37.88519769570041" lon="15.048712701149459"><ele>579.0</ele><time>2026-04-19T20:03:56.001Z</time></trkpt><trkpt lat="37.885115942281686" lon="15.048718338468618"><ele>579.0</ele><time>2026-04-19T20:03:57.001Z</time></trkpt><trkpt lat="37.88500221864188" lon="15.048778508156538"><ele>579.0</ele><time>2026-04-19T20:03:59.001Z</time></trkpt><trkpt lat="37.884942401801055" lon="15.048829991204505"><ele>579.0</ele><time>2026-04-19T20:04:00.001Z</time></trkpt><trkpt lat="37.88490206540663" lon="15.048919794916277"><ele>579.0</ele><time>2026-04-19T20:04:01.001Z</time></trkpt><trkpt lat="37.88490993403639" lon="15.049039681141274"><ele>581.5</ele><time>2026-04-19T20:04:02.001Z</time></trkpt><trkpt lat="37.88495279723105" lon="15.049148599629483"><ele>584.0</ele><time>2026-04-19T20:04:03.001Z</time></trkpt><trkpt lat="37.88493513110801" lon="15.04924914857094"><ele>586.5</ele><time>2026-04-19T20:04:04.001Z</time></trkpt><trkpt lat="37.88491163653945" lon="15.049343741366808"><ele>589.0</ele><time>2026-04-19T20:04:05.001Z</time></trkpt><trkpt lat="37.88488129194669" lon="15.049439218659122"><ele>591.5</ele><time>2026-04-19T20:04:06.001Z</time></trkpt><trkpt lat="37.88485319359774" lon="15.049538280848047"><ele>594.0</ele><time>2026-04-19T20:04:07.001Z</time></trkpt><trkpt lat="37.884825479160654" lon="15.049632592737261"><ele>594.0</ele><time>2026-04-19T20:04:08.001Z</time></trkpt><trkpt lat="37.88480011833057" lon="15.049727867260206"><ele>594.0</ele><time>2026-04-19T20:04:09.001Z</time></trkpt><trkpt lat="37.8847788744764" lon="15.04982160502584"><ele>594.0</ele><time>2026-04-19T20:04:10.001Z</time></trkpt><trkpt lat="37.88477559096376" lon="15.049923613964141"><ele>594.0</ele><time>2026-04-19T20:04:11.001Z</time></trkpt><trkpt lat="37.884791206827394" lon="15.050026069241097"><ele>594.0</ele><time>2026-04-19T20:04:12.001Z</time></trkpt><trkpt lat="37.884802575167605" lon="15.050126247299518"><ele>594.0</ele><time>2026-04-19T20:04:13.001Z</time></trkpt><trkpt lat="37.88481151879771" lon="15.050230335400999"><ele>594.0</ele><time>2026-04-19T20:04:14Z</time></trkpt><trkpt lat="37.88482057636021" lon="15.050335511199831"><ele>594.0</ele><time>2026-04-19T20:04:15Z</time></trkpt><trkpt lat="37.88482958447173" lon="15.050440112996531"><ele>594.0</ele><time>2026-04-19T20:04:16Z</time></trkpt><trkpt lat="37.884838369292346" lon="15.050542121870256"><ele>594.0</ele><time>2026-04-19T20:04:17Z</time></trkpt><trkpt lat="37.8848468509048" lon="15.0506406097842"><ele>594.0</ele><time>2026-04-19T20:04:18Z</time></trkpt><trkpt lat="37.8848544212196" lon="15.050735159632735"><ele>594.0</ele><time>2026-04-19T20:04:19Z</time></trkpt><trkpt lat="37.88485019150728" lon="15.05082352307733"><ele>593.5</ele><time>2026-04-19T20:04:20Z</time></trkpt><trkpt lat="37.884828435125584" lon="15.05090564756807"><ele>593.0</ele><time>2026-04-19T20:04:21Z</time></trkpt><trkpt lat="37.884800662880004" lon="15.050988382126532"><ele>592.5</ele><time>2026-04-19T20:04:22Z</time></trkpt><trkpt lat="37.88477268112788" lon="15.051074023385445"><ele>592.0</ele><time>2026-04-19T20:04:23Z</time></trkpt><trkpt lat="37.88474927566015" lon="15.051158318303749"><ele>591.5</ele><time>2026-04-19T20:04:24Z</time></trkpt><trkpt lat="37.884764107787845" lon="15.051273496402409"><ele>591.0</ele><time>2026-04-19T20:04:25Z</time></trkpt><trkpt lat="37.88478011979709" lon="15.051367064687522"><ele>591.0</ele><time>2026-04-19T20:04:26Z</time></trkpt><trkpt lat="37.884784284058924" lon="15.051464566743126"><ele>591.0</ele><time>2026-04-19T20:04:27Z</time></trkpt><trkpt lat="37.88477410751597" lon="15.051564759512333"><ele>591.0</ele><time>2026-04-19T20:04:28Z</time></trkpt><trkpt lat="37.884764169577416" lon="15.05167079878965"><ele>591.0</ele><time>2026-04-19T20:04:29Z</time></trkpt><trkpt lat="37.884752543453864" lon="15.051777943958978"><ele>591.0</ele><time>2026-04-19T20:04:30Z</time></trkpt><trkpt lat="37.884732123754205" lon="15.051881649094252"><ele>591.0</ele><time>2026-04-19T20:04:31Z</time></trkpt><trkpt lat="37.884705672027636" lon="15.051984828329685"><ele>590.5</ele><time>2026-04-19T20:04:32Z</time></trkpt><trkpt lat="37.88467065443671" lon="15.052084252988921"><ele>590.0</ele><time>2026-04-19T20:04:33Z</time></trkpt><trkpt lat="37.88463603442443" lon="15.052182570190839"><ele>589.5</ele><time>2026-04-19T20:04:34Z</time></trkpt><trkpt lat="37.88460311024062" lon="15.0522760714543"><ele>589.0</ele><time>2026-04-19T20:04:35Z</time></trkpt><trkpt lat="37.88457281028769" lon="15.052368859708274"><ele>588.5</ele><time>2026-04-19T20:04:36Z</time></trkpt><trkpt lat="37.88454984587126" lon="15.052454323275246"><ele>588.0</ele><time>2026-04-19T20:04:37Z</time></trkpt><trkpt lat="37.884547246352554" lon="15.052540660558597"><ele>587.5</ele><time>2026-04-19T20:04:38Z</time></trkpt><trkpt lat="37.88459786503895" lon="15.052624633415729"><ele>587.0</ele><time>2026-04-19T20:04:39Z</time></trkpt><trkpt lat="37.88466944248634" lon="15.052669917151416"><ele>586.5</ele><time>2026-04-19T20:04:40Z</time></trkpt><trkpt lat="37.88470169349504" lon="15.052751335348612"><ele>586.0</ele><time>2026-04-19T20:04:41Z</time></trkpt><trkpt lat="37.88472870652725" lon="15.052839913601856"><ele>585.5</ele><time>2026-04-19T20:04:42Z</time></trkpt><trkpt lat="37.88474867566841" lon="15.052937524745312"><ele>585.0</ele><time>2026-04-19T20:04:43Z</time></trkpt><trkpt lat="37.88476525142096" lon="15.05303294504804"><ele>585.0</ele><time>2026-04-19T20:04:44Z</time></trkpt><trkpt lat="37.8847728658967" lon="15.05312542574414"><ele>585.0</ele><time>2026-04-19T20:04:45Z</time></trkpt><trkpt lat="37.88476033408254" lon="15.05320991029256"><ele>585.0</ele><time>2026-04-19T20:04:46Z</time></trkpt><trkpt lat="37.884730550088356" lon="15.053291951450113"><ele>585.0</ele><time>2026-04-19T20:04:47Z</time></trkpt><trkpt lat="37.88469850132487" lon="15.053376361752386"><ele>585.0</ele><time>2026-04-19T20:04:48Z</time></trkpt><trkpt lat="37.884665093243406" lon="15.053458998815328"><ele>585.0</ele><time>2026-04-19T20:04:49Z</time></trkpt><trkpt lat="37.88463221776501" lon="15.05354031852449"><ele>585.0</ele><time>2026-04-19T20:04:50Z</time></trkpt><trkpt lat="37.88460024014167" lon="15.053622829602476"><ele>584.6666666666666</ele><time>2026-04-19T20:04:51Z</time></trkpt><trkpt lat="37.884572129754964" lon="15.053714049238952"><ele>584.3333333333334</ele><time>2026-04-19T20:04:52Z</time></trkpt><trkpt lat="37.884548699574765" lon="15.053813595287016"><ele>584.0</ele><time>2026-04-19T20:04:53.001Z</time></trkpt><trkpt lat="37.884549850600685" lon="15.053928692610159"><ele>583.6666666666667</ele><time>2026-04-19T20:04:54.001Z</time></trkpt><trkpt lat="37.88455379482197" lon="15.054031539429625"><ele>583.3333333333334</ele><time>2026-04-19T20:04:55.001Z</time></trkpt><trkpt lat="37.8845618780394" lon="15.05413004648763"><ele>583.0</ele><time>2026-04-19T20:04:56.001Z</time></trkpt><trkpt lat="37.88457214039508" lon="15.054226455864532"><ele>582.1666666666667</ele><time>2026-04-19T20:04:57.001Z</time></trkpt><trkpt lat="37.884591985122164" lon="15.054323553982856"><ele>581.3333333333334</ele><time>2026-04-19T20:04:58.001Z</time></trkpt><trkpt lat="37.884635806471394" lon="15.054407953793003"><ele>580.5</ele><time>2026-04-19T20:04:59.001Z</time></trkpt><trkpt lat="37.884717871694384" lon="15.054450026026874"><ele>579.6666666666666</ele><time>2026-04-19T20:05:00.001Z</time></trkpt><trkpt lat="37.88479577546573" lon="15.05448828410025"><ele>578.8333333333333</ele><time>2026-04-19T20:05:01.001Z</time></trkpt><trkpt lat="37.88487637432526" lon="15.05454298966232"><ele>578.0</ele><time>2026-04-19T20:05:02.001Z</time></trkpt><trkpt lat="37.884949348155835" lon="15.054608284736258"><ele>578.0</ele><time>2026-04-19T20:05:03.001Z</time></trkpt><trkpt lat="37.88502479486287" lon="15.054674182364915"><ele>578.0</ele><time>2026-04-19T20:05:04.001Z</time></trkpt><trkpt lat="37.88509793428789" lon="15.054738064758652"><ele>578.0</ele><time>2026-04-19T20:05:05.001Z</time></trkpt><trkpt lat="37.88517106919503" lon="15.054801943115503"><ele>578.0</ele><time>2026-04-19T20:05:06.001Z</time></trkpt><trkpt lat="37.88524216123524" lon="15.054866988884417"><ele>578.0</ele><time>2026-04-19T20:05:07.001Z</time></trkpt><trkpt lat="37.885309971279156" lon="15.054937962433858"><ele>578.0</ele><time>2026-04-19T20:05:08.001Z</time></trkpt><trkpt lat="37.885361005798515" lon="15.055018098648809"><ele>577.0</ele><time>2026-04-19T20:05:09.001Z</time></trkpt><trkpt lat="37.88538685327681" lon="15.05511124153411"><ele>576.0</ele><time>2026-04-19T20:05:10.001Z</time></trkpt><trkpt lat="37.885396823418276" lon="15.055208730417952"><ele>575.0</ele><time>2026-04-19T20:05:11.001Z</time></trkpt><trkpt lat="37.8853899344427" lon="15.055301422382744"><ele>574.0</ele><time>2026-04-19T20:05:12.001Z</time></trkpt><trkpt lat="37.88538544521151" lon="15.055412170704168"><ele>573.0</ele><time>2026-04-19T20:05:13.001Z</time></trkpt><trkpt lat="37.88538109273482" lon="15.05551997237304"><ele>572.0</ele><time>2026-04-19T20:05:14.001Z</time></trkpt><trkpt lat="37.885376150659845" lon="15.055626132966857"><ele>572.0</ele><time>2026-04-19T20:05:15.001Z</time></trkpt><trkpt lat="37.8853713281128" lon="15.055729726141978"><ele>572.0</ele><time>2026-04-19T20:05:16.001Z</time></trkpt><trkpt lat="37.88536665081011" lon="15.055830199397365"><ele>572.0</ele><time>2026-04-19T20:05:17.001Z</time></trkpt><trkpt lat="37.88535604422607" lon="15.055919934206468"><ele>572.0</ele><time>2026-04-19T20:05:18.001Z</time></trkpt><trkpt lat="37.88532890369703" lon="15.05600988746308"><ele>572.0</ele><time>2026-04-19T20:05:19.001Z</time></trkpt><trkpt lat="37.88528501721025" lon="15.056081132193974"><ele>572.0</ele><time>2026-04-19T20:05:20.001Z</time></trkpt><trkpt lat="37.88523583827041" lon="15.056157388663639"><ele>571.3333333333333</ele><time>2026-04-19T20:05:21.001Z</time></trkpt><trkpt lat="37.88518456705235" lon="15.056238058292207"><ele>570.6666666666666</ele><time>2026-04-19T20:05:22.001Z</time></trkpt><trkpt lat="37.88513268218617" lon="15.056319693173624"><ele>570.0</ele><time>2026-04-19T20:05:23.001Z</time></trkpt><trkpt lat="37.88507959392638" lon="15.056404361779284"><ele>569.3333333333334</ele><time>2026-04-19T20:05:24.001Z</time></trkpt><trkpt lat="37.88502790431871" lon="15.05649437594794"><ele>568.6666666666667</ele><time>2026-04-19T20:05:25.001Z</time></trkpt><trkpt lat="37.88498175123296" lon="15.056598950678541"><ele>568.0</ele><time>2026-04-19T20:05:26.001Z</time></trkpt><trkpt lat="37.88495961045466" lon="15.05672381223085"><ele>567.6</ele><time>2026-04-19T20:05:27.001Z</time></trkpt><trkpt lat="37.884941126495065" lon="15.05684298723428"><ele>567.1999999999999</ele><time>2026-04-19T20:05:28.001Z</time></trkpt><trkpt lat="37.88492640235188" lon="15.056960581712385"><ele>566.8</ele><time>2026-04-19T20:05:29.001Z</time></trkpt><trkpt lat="37.88491169097276" lon="15.057078074448576"><ele>566.4</ele><time>2026-04-19T20:05:30.001Z</time></trkpt><trkpt lat="37.88489697424567" lon="15.057194891475485"><ele>566.0</ele><time>2026-04-19T20:05:31.001Z</time></trkpt><trkpt lat="37.88487704585935" lon="15.057305434744155"><ele>566.0</ele><time>2026-04-19T20:05:32.001Z</time></trkpt><trkpt lat="37.88484321256585" lon="15.057417278771318"><ele>566.0</ele><time>2026-04-19T20:05:33.001Z</time></trkpt><trkpt lat="37.884824118585485" lon="15.057542792964217"><ele>566.0</ele><time>2026-04-19T20:05:34.001Z</time></trkpt><trkpt lat="37.88483086514032" lon="15.05767822940265"><ele>566.0</ele><time>2026-04-19T20:05:35.001Z</time></trkpt><trkpt lat="37.884835958527475" lon="15.057809219606584"><ele>566.0</ele><time>2026-04-19T20:05:36.001Z</time></trkpt><trkpt lat="37.88484374502609" lon="15.05794154383484"><ele>566.0</ele><time>2026-04-19T20:05:37.001Z</time></trkpt><trkpt lat="37.88485082752965" lon="15.05806264572068"><ele>566.0</ele><time>2026-04-19T20:05:38.001Z</time></trkpt><trkpt lat="37.88485753708498" lon="15.058177370349549"><ele>566.0</ele><time>2026-04-19T20:05:39.001Z</time></trkpt><trkpt lat="37.88486239549252" lon="15.058281495617258"><ele>566.0</ele><time>2026-04-19T20:05:40.001Z</time></trkpt><trkpt lat="37.884863333952005" lon="15.058377070476485"><ele>566.0</ele><time>2026-04-19T20:05:41.001Z</time></trkpt><trkpt lat="37.88481747763684" lon="15.058517812343615"><ele>566.1666666666666</ele><time>2026-04-19T20:05:43.001Z</time></trkpt><trkpt lat="37.88476533472019" lon="15.058571061179899"><ele>566.3333333333333</ele><time>2026-04-19T20:05:44.001Z</time></trkpt><trkpt lat="37.88470427647363" lon="15.058639539050679"><ele>566.5</ele><time>2026-04-19T20:05:45.001Z</time></trkpt><trkpt lat="37.884642260633406" lon="15.058707618411747"><ele>566.6666666666666</ele><time>2026-04-19T20:05:46.001Z</time></trkpt><trkpt lat="37.88457660900481" lon="15.058774481187882"><ele>566.8333333333334</ele><time>2026-04-19T20:05:47.001Z</time></trkpt><trkpt lat="37.8845111084486" lon="15.058834997493527"><ele>567.0</ele><time>2026-04-19T20:05:48.001Z</time></trkpt><trkpt lat="37.884443663133396" lon="15.058884366093865"><ele>567.0</ele><time>2026-04-19T20:05:49.001Z</time></trkpt><trkpt lat="37.88436681605465" lon="15.058926945234708"><ele>567.0</ele><time>2026-04-19T20:05:50.001Z</time></trkpt><trkpt lat="37.8842794126108" lon="15.05894325407634"><ele>567.0</ele><time>2026-04-19T20:05:51.001Z</time></trkpt><trkpt lat="37.88418935040177" lon="15.058986050269429"><ele>567.0</ele><time>2026-04-19T20:05:52.001Z</time></trkpt><trkpt lat="37.88410895816099" lon="15.059065735579095"><ele>567.0</ele><time>2026-04-19T20:05:53.001Z</time></trkpt><trkpt lat="37.88404603494414" lon="15.05915537382713"><ele>567.4</ele><time>2026-04-19T20:05:54.001Z</time></trkpt><trkpt lat="37.883979426278415" lon="15.059238722030639"><ele>567.8000000000001</ele><time>2026-04-19T20:05:55.001Z</time></trkpt><trkpt lat="37.88391444461611" lon="15.059320034352387"><ele>568.2</ele><time>2026-04-19T20:05:56.001Z</time></trkpt><trkpt lat="37.883850068684886" lon="15.05940727322178"><ele>568.6</ele><time>2026-04-19T20:05:57.001Z</time></trkpt><trkpt lat="37.88379134206514" lon="15.059494904589467"><ele>569.0</ele><time>2026-04-19T20:05:58.001Z</time></trkpt><trkpt lat="37.88374174621394" lon="15.059605342482824"><ele>569.0</ele><time>2026-04-19T20:05:59.001Z</time></trkpt><trkpt lat="37.88369690319758" lon="15.059719533414961"><ele>569.0</ele><time>2026-04-19T20:06:00.001Z</time></trkpt><trkpt lat="37.88365691031255" lon="15.059840120096661"><ele>569.0</ele><time>2026-04-19T20:06:01.001Z</time></trkpt><trkpt lat="37.88362097948578" lon="15.059961239685821"><ele>569.0</ele><time>2026-04-19T20:06:02.001Z</time></trkpt><trkpt lat="37.8835959633554" lon="15.060081560009843"><ele>569.0</ele><time>2026-04-19T20:06:03.001Z</time></trkpt><trkpt lat="37.88357836856894" lon="15.060199056698076"><ele>568.3333333333333</ele><time>2026-04-19T20:06:04.001Z</time></trkpt><trkpt lat="37.88356317014212" lon="15.060312050808202"><ele>567.6666666666666</ele><time>2026-04-19T20:06:05.001Z</time></trkpt><trkpt lat="37.88354910089515" lon="15.06042087220108"><ele>567.0</ele><time>2026-04-19T20:06:06.001Z</time></trkpt><trkpt lat="37.88353517499463" lon="15.060528584812571"><ele>566.3333333333334</ele><time>2026-04-19T20:06:07.001Z</time></trkpt><trkpt lat="37.88352394018242" lon="15.060640975478124"><ele>565.6666666666667</ele><time>2026-04-19T20:06:08.001Z</time></trkpt><trkpt lat="37.883515223221686" lon="15.060756969360595"><ele>565.0</ele><time>2026-04-19T20:06:09.001Z</time></trkpt><trkpt lat="37.88350654187112" lon="15.060874052706325"><ele>564.6</ele><time>2026-04-19T20:06:10.001Z</time></trkpt><trkpt lat="37.88350172722153" lon="15.060994910040582"><ele>564.2</ele><time>2026-04-19T20:06:11.001Z</time></trkpt><trkpt lat="37.883501193627794" lon="15.06111835577757"><ele>563.8</ele><time>2026-04-19T20:06:12.001Z</time></trkpt><trkpt lat="37.88350222877669" lon="15.061240504883632"><ele>563.4</ele><time>2026-04-19T20:06:13.001Z</time></trkpt><trkpt lat="37.883507361284494" lon="15.061365310609416"><ele>563.0</ele><time>2026-04-19T20:06:14.001Z</time></trkpt><trkpt lat="37.883512573148536" lon="15.06149012377286"><ele>563.0</ele><time>2026-04-19T20:06:15.001Z</time></trkpt><trkpt lat="37.88351833877349" lon="15.06161181533561"><ele>563.0</ele><time>2026-04-19T20:06:16Z</time></trkpt><trkpt lat="37.88352493719111" lon="15.061723369839541"><ele>563.0</ele><time>2026-04-19T20:06:17Z</time></trkpt><trkpt lat="37.88353257479881" lon="15.061826975396142"><ele>563.0</ele><time>2026-04-19T20:06:18Z</time></trkpt><trkpt lat="37.883539783601265" lon="15.061919082377015"><ele>563.0</ele><time>2026-04-19T20:06:19Z</time></trkpt><trkpt lat="37.88354973643643" lon="15.062007506753238"><ele>563.0</ele><time>2026-04-19T20:06:19.999Z</time></trkpt><trkpt lat="37.8835631143218" lon="15.06209063108643"><ele>563.0</ele><time>2026-04-19T20:06:20.999Z</time></trkpt><trkpt lat="37.88358419250065" lon="15.062178301207378"><ele>563.0</ele><time>2026-04-19T20:06:21.999Z</time></trkpt><trkpt lat="37.883611058187746" lon="15.062263492449526"><ele>563.0</ele><time>2026-04-19T20:06:22.999Z</time></trkpt><trkpt lat="37.883643747074316" lon="15.062346545789344"><ele>563.0</ele><time>2026-04-19T20:06:23.999Z</time></trkpt><trkpt lat="37.88368918106031" lon="15.062419652370727"><ele>563.0</ele><time>2026-04-19T20:06:24.999Z</time></trkpt><trkpt lat="37.88375234937125" lon="15.062461443245303"><ele>563.0</ele><time>2026-04-19T20:06:25.999Z</time></trkpt><trkpt lat="37.88379303966612" lon="15.062530694965325"><ele>563.0</ele><time>2026-04-19T20:06:26.999Z</time></trkpt><trkpt lat="37.883843577914256" lon="15.062585430221976"><ele>563.0</ele><time>2026-04-19T20:06:27.999Z</time></trkpt><trkpt lat="37.88390105765582" lon="15.062634657480976"><ele>563.0</ele><time>2026-04-19T20:06:28.999Z</time></trkpt><trkpt lat="37.88392820663294" lon="15.062711665873186"><ele>563.0</ele><time>2026-04-19T20:06:29.999Z</time></trkpt><trkpt lat="37.883915038161966" lon="15.06279771757321"><ele>563.0</ele><time>2026-04-19T20:06:31Z</time></trkpt><trkpt lat="37.88389638779085" lon="15.062883623704206"><ele>563.0</ele><time>2026-04-19T20:06:32Z</time></trkpt><trkpt lat="37.88388069223609" lon="15.062982463593519"><ele>563.0</ele><time>2026-04-19T20:06:32.999Z</time></trkpt><trkpt lat="37.88385976209289" lon="15.063088350324207"><ele>563.0</ele><time>2026-04-19T20:06:34Z</time></trkpt><trkpt lat="37.883831093752995" lon="15.06320385869138"><ele>563.0</ele><time>2026-04-19T20:06:35Z</time></trkpt><trkpt lat="37.88380073040297" lon="15.0633167660765"><ele>563.0</ele><time>2026-04-19T20:06:36Z</time></trkpt><trkpt lat="37.8837695410851" lon="15.063431630795066"><ele>563.0</ele><time>2026-04-19T20:06:37Z</time></trkpt><trkpt lat="37.88374179904439" lon="15.063541914756671"><ele>563.0</ele><time>2026-04-19T20:06:38Z</time></trkpt><trkpt lat="37.883718873484106" lon="15.06365526367954"><ele>563.0</ele><time>2026-04-19T20:06:39Z</time></trkpt><trkpt lat="37.8836989076261" lon="15.063763518580751"><ele>563.0</ele><time>2026-04-19T20:06:40Z</time></trkpt><trkpt lat="37.883679305408215" lon="15.063868525685438"><ele>563.0</ele><time>2026-04-19T20:06:41Z</time></trkpt><trkpt lat="37.88365868354931" lon="15.063974052707454"><ele>563.0</ele><time>2026-04-19T20:06:42Z</time></trkpt><trkpt lat="37.88363733272487" lon="15.064080633140755"><ele>563.0</ele><time>2026-04-19T20:06:43Z</time></trkpt><trkpt lat="37.8836083790205" lon="15.064184769114393"><ele>563.0</ele><time>2026-04-19T20:06:44Z</time></trkpt><trkpt lat="37.88358164752844" lon="15.064296606598933"><ele>563.0</ele><time>2026-04-19T20:06:45Z</time></trkpt><trkpt lat="37.883586826552325" lon="15.064416273311851"><ele>562.3333333333333</ele><time>2026-04-19T20:06:46Z</time></trkpt><trkpt lat="37.88361274158708" lon="15.064531293298899"><ele>561.6666666666666</ele><time>2026-04-19T20:06:47Z</time></trkpt><trkpt lat="37.883666278899554" lon="15.064633858068134"><ele>561.0</ele><time>2026-04-19T20:06:48Z</time></trkpt><trkpt lat="37.883725524680194" lon="15.06471361934829"><ele>560.3333333333334</ele><time>2026-04-19T20:06:49Z</time></trkpt><trkpt lat="37.88376100334481" lon="15.06480349285534"><ele>559.6666666666667</ele><time>2026-04-19T20:06:50Z</time></trkpt><trkpt lat="37.883757388271555" lon="15.06489577072886"><ele>559.0</ele><time>2026-04-19T20:06:51Z</time></trkpt><trkpt lat="37.88370487558916" lon="15.065045634516052"><ele>558.8571428571429</ele><time>2026-04-19T20:06:53Z</time></trkpt><trkpt lat="37.8836713522491" lon="15.065122557808213"><ele>558.7142857142858</ele><time>2026-04-19T20:06:54Z</time></trkpt><trkpt lat="37.8836397128748" lon="15.065199710896788"><ele>558.5714285714286</ele><time>2026-04-19T20:06:55Z</time></trkpt><trkpt lat="37.883611349054945" lon="15.065278802423439"><ele>558.4285714285714</ele><time>2026-04-19T20:06:56Z</time></trkpt><trkpt lat="37.88359653340408" lon="15.065368469845087"><ele>558.2857142857142</ele><time>2026-04-19T20:06:57Z</time></trkpt><trkpt lat="37.88361319868217" lon="15.065470650041796"><ele>558.1428571428571</ele><time>2026-04-19T20:06:58Z</time></trkpt><trkpt lat="37.88365333337558" lon="15.065560233414852"><ele>558.0</ele><time>2026-04-19T20:06:59Z</time></trkpt><trkpt lat="37.88366062759448" lon="15.065656164311505"><ele>557.9999999999999</ele><time>2026-04-19T20:07:00Z</time></trkpt><trkpt lat="37.88368366007928" lon="15.065746554719608"><ele>558.0</ele><time>2026-04-19T20:07:01Z</time></trkpt><trkpt lat="37.88370619385308" lon="15.06583645377217"><ele>558.0</ele><time>2026-04-19T20:07:02Z</time></trkpt><trkpt lat="37.88372621597979" lon="15.065925867327888"><ele>558.0</ele><time>2026-04-19T20:07:03Z</time></trkpt><trkpt lat="37.88374463555211" lon="15.066018161993044"><ele>558.0</ele><time>2026-04-19T20:07:04Z</time></trkpt><trkpt lat="37.88375360349082" lon="15.066108876673344"><ele>557.9999999999999</ele><time>2026-04-19T20:07:05Z</time></trkpt><trkpt lat="37.88375920398269" lon="15.06620322953001"><ele>558.0</ele><time>2026-04-19T20:07:06Z</time></trkpt><trkpt lat="37.88370870307741" lon="15.066281197058268"><ele>557.8</ele><time>2026-04-19T20:07:07Z</time></trkpt><trkpt lat="37.88366877432855" lon="15.066380627285021"><ele>557.5999999999999</ele><time>2026-04-19T20:07:08Z</time></trkpt><trkpt lat="37.88358255035448" lon="15.066436875772009"><ele>557.4000000000001</ele><time>2026-04-19T20:07:09Z</time></trkpt><trkpt lat="37.88351656393581" lon="15.066519440792604"><ele>557.2</ele><time>2026-04-19T20:07:10Z</time></trkpt><trkpt lat="37.88345777011207" lon="15.066626061732082"><ele>557.0</ele><time>2026-04-19T20:07:11Z</time></trkpt><trkpt lat="37.88341559747294" lon="15.06674062447865"><ele>557.4</ele><time>2026-04-19T20:07:12Z</time></trkpt><trkpt lat="37.8833749095543" lon="15.066856091001645"><ele>557.8000000000001</ele><time>2026-04-19T20:07:13Z</time></trkpt><trkpt lat="37.883332648776495" lon="15.066973888739078"><ele>558.2</ele><time>2026-04-19T20:07:14Z</time></trkpt><trkpt lat="37.88329163923211" lon="15.067094178388007"><ele>558.6</ele><time>2026-04-19T20:07:15Z</time></trkpt><trkpt lat="37.88325697808292" lon="15.067223682635262"><ele>559.0</ele><time>2026-04-19T20:07:16Z</time></trkpt><trkpt lat="37.88324264889062" lon="15.067361062258882"><ele>558.2</ele><time>2026-04-19T20:07:17Z</time></trkpt><trkpt lat="37.88324668295631" lon="15.067500284377571"><ele>557.4</ele><time>2026-04-19T20:07:18Z</time></trkpt><trkpt lat="37.88325632106203" lon="15.067638054390201"><ele>556.6</ele><time>2026-04-19T20:07:19Z</time></trkpt><trkpt lat="37.88326600807547" lon="15.067776437182234"><ele>555.8</ele><time>2026-04-19T20:07:20Z</time></trkpt><trkpt lat="37.883275548823725" lon="15.067912730485427"><ele>555.0</ele><time>2026-04-19T20:07:21Z</time></trkpt><trkpt lat="37.88328546861525" lon="15.068054438588293"><ele>555.0</ele><time>2026-04-19T20:07:22Z</time></trkpt><trkpt lat="37.883293774875305" lon="15.06819787487792"><ele>555.0</ele><time>2026-04-19T20:07:23Z</time></trkpt><trkpt lat="37.88329964601848" lon="15.068342276995516"><ele>555.0</ele><time>2026-04-19T20:07:24Z</time></trkpt><trkpt lat="37.88330069486482" lon="15.068485772904214"><ele>555.0</ele><time>2026-04-19T20:07:25Z</time></trkpt><trkpt lat="37.883299235875846" lon="15.068631515746768"><ele>555.0</ele><time>2026-04-19T20:07:26Z</time></trkpt><trkpt lat="37.883294303063366" lon="15.068774568108571"><ele>555.0</ele><time>2026-04-19T20:07:27Z</time></trkpt><trkpt lat="37.88328839367535" lon="15.06891558539509"><ele>555.0</ele><time>2026-04-19T20:07:28Z</time></trkpt><trkpt lat="37.88328311698104" lon="15.06905520373707"><ele>555.0</ele><time>2026-04-19T20:07:29Z</time></trkpt><trkpt lat="37.883277909133795" lon="15.069193000733833"><ele>555.0</ele><time>2026-04-19T20:07:30Z</time></trkpt><trkpt lat="37.88327250090117" lon="15.069320737524075"><ele>555.0</ele><time>2026-04-19T20:07:31Z</time></trkpt><trkpt lat="37.88326551218781" lon="15.06944794895711"><ele>555.0</ele><time>2026-04-19T20:07:32Z</time></trkpt><trkpt lat="37.88325005308677" lon="15.0695629284514"><ele>555.0</ele><time>2026-04-19T20:07:33Z</time></trkpt><trkpt lat="37.88322237857143" lon="15.069672537439029"><ele>555.0</ele><time>2026-04-19T20:07:34Z</time></trkpt><trkpt lat="37.883189857980895" lon="15.069777813845837"><ele>555.0</ele><time>2026-04-19T20:07:35Z</time></trkpt><trkpt lat="37.88315144257755" lon="15.06987854943364"><ele>554.3333333333334</ele><time>2026-04-19T20:07:36Z</time></trkpt><trkpt lat="37.883110105259306" lon="15.069975698465614"><ele>553.6666666666666</ele><time>2026-04-19T20:07:37Z</time></trkpt><trkpt lat="37.88306801985075" lon="15.070069037463087"><ele>553.0</ele><time>2026-04-19T20:07:38Z</time></trkpt><trkpt lat="37.8830295614042" lon="15.070165986460527"><ele>552.3333333333333</ele><time>2026-04-19T20:07:39Z</time></trkpt><trkpt lat="37.88301753447895" lon="15.070284192527375"><ele>551.6666666666666</ele><time>2026-04-19T20:07:40Z</time></trkpt><trkpt lat="37.88300448035617" lon="15.070383097032607"><ele>551.0</ele><time>2026-04-19T20:07:41Z</time></trkpt><trkpt lat="37.882985914418505" lon="15.070483637982427"><ele>551.0</ele><time>2026-04-19T20:07:42Z</time></trkpt><trkpt lat="37.88294582820676" lon="15.070566659507124"><ele>551.0</ele><time>2026-04-19T20:07:43Z</time></trkpt><trkpt lat="37.88290111375566" lon="15.070656597348096"><ele>551.0</ele><time>2026-04-19T20:07:44Z</time></trkpt><trkpt lat="37.882849930942044" lon="15.07074046238127"><ele>551.0</ele><time>2026-04-19T20:07:45Z</time></trkpt><trkpt lat="37.88279098337495" lon="15.070824488476521"><ele>551.0</ele><time>2026-04-19T20:07:46Z</time></trkpt><trkpt lat="37.882728792254824" lon="15.070898755767189"><ele>551.0</ele><time>2026-04-19T20:07:47Z</time></trkpt><trkpt lat="37.88266604412755" lon="15.070980403147523"><ele>550.8</ele><time>2026-04-19T20:07:48Z</time></trkpt><trkpt lat="37.88260901857704" lon="15.071071274146908"><ele>550.6</ele><time>2026-04-19T20:07:49Z</time></trkpt><trkpt lat="37.8825642042703" lon="15.071165106257785"><ele>550.4</ele><time>2026-04-19T20:07:50Z</time></trkpt><trkpt lat="37.88254052354513" lon="15.071277090165756"><ele>550.2</ele><time>2026-04-19T20:07:51Z</time></trkpt><trkpt lat="37.88254104267664" lon="15.071392190533635"><ele>550.0</ele><time>2026-04-19T20:07:52Z</time></trkpt><trkpt lat="37.88254814865094" lon="15.071509333905158"><ele>549.6</ele><time>2026-04-19T20:07:53Z</time></trkpt><trkpt lat="37.882578514301926" lon="15.071635063530262"><ele>549.2</ele><time>2026-04-19T20:07:54Z</time></trkpt><trkpt lat="37.88261719389147" lon="15.071756132601687"><ele>548.8</ele><time>2026-04-19T20:07:55Z</time></trkpt><trkpt lat="37.882654934306565" lon="15.071876580127283"><ele>548.4</ele><time>2026-04-19T20:07:56Z</time></trkpt><trkpt lat="37.88269806088632" lon="15.072009611434966"><ele>548.0</ele><time>2026-04-19T20:07:57Z</time></trkpt><trkpt lat="37.882738233582295" lon="15.072133531010074"><ele>548.0</ele><time>2026-04-19T20:07:58Z</time></trkpt><trkpt lat="37.882778040688834" lon="15.072252515449755"><ele>548.0</ele><time>2026-04-19T20:07:59Z</time></trkpt><trkpt lat="37.88282124006332" lon="15.072372322904359"><ele>548.0</ele><time>2026-04-19T20:08:00Z</time></trkpt><trkpt lat="37.88287352750955" lon="15.072489252226516"><ele>548.0</ele><time>2026-04-19T20:08:01Z</time></trkpt><trkpt lat="37.8829332698323" lon="15.072602724084682"><ele>548.0</ele><time>2026-04-19T20:08:02Z</time></trkpt><trkpt lat="37.88299740473252" lon="15.072704796893627"><ele>548.5</ele><time>2026-04-19T20:08:03Z</time></trkpt><trkpt lat="37.88305862700978" lon="15.072798552717007"><ele>549.0</ele><time>2026-04-19T20:08:04Z</time></trkpt><trkpt lat="37.88311609820726" lon="15.072885816144094"><ele>549.5</ele><time>2026-04-19T20:08:05Z</time></trkpt><trkpt lat="37.88316781462347" lon="15.072970259457822"><ele>550.0</ele><time>2026-04-19T20:08:06Z</time></trkpt><trkpt lat="37.88320187251284" lon="15.073058704290197"><ele>550.5</ele><time>2026-04-19T20:08:07Z</time></trkpt><trkpt lat="37.883213062241154" lon="15.073157455545367"><ele>551.0</ele><time>2026-04-19T20:08:08Z</time></trkpt><trkpt lat="37.883187927602705" lon="15.07325959412348"><ele>551.4</ele><time>2026-04-19T20:08:09Z</time></trkpt><trkpt lat="37.883170770987064" lon="15.073377625666264"><ele>551.8</ele><time>2026-04-19T20:08:10Z</time></trkpt><trkpt lat="37.88315372732797" lon="15.073494880763265"><ele>552.1999999999999</ele><time>2026-04-19T20:08:11Z</time></trkpt><trkpt lat="37.88313663078986" lon="15.07361096049358"><ele>552.6</ele><time>2026-04-19T20:08:12Z</time></trkpt><trkpt lat="37.88312148169598" lon="15.073726991463188"><ele>553.0</ele><time>2026-04-19T20:08:13Z</time></trkpt><trkpt lat="37.88311103483167" lon="15.07384546766604"><ele>553.0</ele><time>2026-04-19T20:08:14Z</time></trkpt><trkpt lat="37.8831038148898" lon="15.073965794789002"><ele>553.0</ele><time>2026-04-19T20:08:15Z</time></trkpt><trkpt lat="37.88310036227809" lon="15.074084828020593"><ele>553.0</ele><time>2026-04-19T20:08:16Z</time></trkpt><trkpt lat="37.88310138680912" lon="15.074205787131895"><ele>553.0</ele><time>2026-04-19T20:08:17Z</time></trkpt><trkpt lat="37.8831050727154" lon="15.074323308459281"><ele>553.0</ele><time>2026-04-19T20:08:18Z</time></trkpt><trkpt lat="37.88311085652503" lon="15.074439691590245"><ele>552.6666666666667</ele><time>2026-04-19T20:08:19Z</time></trkpt><trkpt lat="37.883116380708344" lon="15.074550850449889"><ele>552.3333333333334</ele><time>2026-04-19T20:08:20Z</time></trkpt><trkpt lat="37.88312219291577" lon="15.074658050876108"><ele>552.0</ele><time>2026-04-19T20:08:21Z</time></trkpt><trkpt lat="37.88313175489091" lon="15.074757762964506"><ele>551.6666666666666</ele><time>2026-04-19T20:08:22Z</time></trkpt><trkpt lat="37.88315997151002" lon="15.074855709729295"><ele>551.3333333333333</ele><time>2026-04-19T20:08:23Z</time></trkpt><trkpt lat="37.88322052528278" lon="15.074928905749319"><ele>551.0</ele><time>2026-04-19T20:08:24Z</time></trkpt><trkpt lat="37.88332227282462" lon="15.074954285307346"><ele>550.8</ele><time>2026-04-19T20:08:25Z</time></trkpt><trkpt lat="37.88341640791936" lon="15.074999764567936"><ele>550.6</ele><time>2026-04-19T20:08:26Z</time></trkpt><trkpt lat="37.88351933491912" lon="15.075052035964227"><ele>550.4</ele><time>2026-04-19T20:08:27Z</time></trkpt><trkpt lat="37.883616862064365" lon="15.075102738697694"><ele>550.2</ele><time>2026-04-19T20:08:28Z</time></trkpt><trkpt lat="37.88371898578535" lon="15.075159909306445"><ele>550.0</ele><time>2026-04-19T20:08:29Z</time></trkpt><trkpt lat="37.8838166022736" lon="15.075236129957437"><ele>548.5</ele><time>2026-04-19T20:08:30Z</time></trkpt><trkpt lat="37.88389630606225" lon="15.075344495617683"><ele>547.0</ele><time>2026-04-19T20:08:31Z</time></trkpt><trkpt lat="37.88400567957505" lon="15.0754013063"><ele>545.5</ele><time>2026-04-19T20:08:32Z</time></trkpt><trkpt lat="37.8841059546184" lon="15.075480822414413"><ele>544.0</ele><time>2026-04-19T20:08:33Z</time></trkpt><trkpt lat="37.88418758945217" lon="15.07558859499853"><ele>544.0</ele><time>2026-04-19T20:08:34Z</time></trkpt><trkpt lat="37.88426167864768" lon="15.075696719311104"><ele>544.0</ele><time>2026-04-19T20:08:35Z</time></trkpt><trkpt lat="37.884339588743245" lon="15.075801240785383"><ele>544.0</ele><time>2026-04-19T20:08:36Z</time></trkpt><trkpt lat="37.88441451274622" lon="15.075904521212426"><ele>544.0</ele><time>2026-04-19T20:08:37Z</time></trkpt><trkpt lat="37.884465407453916" lon="15.076027825639416"><ele>544.0</ele><time>2026-04-19T20:08:38Z</time></trkpt><trkpt lat="37.88450139021702" lon="15.076161119761485"><ele>544.0</ele><time>2026-04-19T20:08:39Z</time></trkpt><trkpt lat="37.884507602988094" lon="15.076303815582921"><ele>544.0</ele><time>2026-04-19T20:08:40Z</time></trkpt><trkpt lat="37.88451861839654" lon="15.076442837629575"><ele>544.0</ele><time>2026-04-19T20:08:41Z</time></trkpt><trkpt lat="37.88452033387803" lon="15.076586793070286"><ele>544.0</ele><time>2026-04-19T20:08:42Z</time></trkpt><trkpt lat="37.88452032021209" lon="15.076735107663234"><ele>544.25</ele><time>2026-04-19T20:08:43Z</time></trkpt><trkpt lat="37.88453481944822" lon="15.076885802275353"><ele>544.5</ele><time>2026-04-19T20:08:44Z</time></trkpt><trkpt lat="37.88452875564337" lon="15.07703068217505"><ele>544.75</ele><time>2026-04-19T20:08:45Z</time></trkpt><trkpt lat="37.88453976701343" lon="15.077173433467246"><ele>545.0</ele><time>2026-04-19T20:08:46Z</time></trkpt><trkpt lat="37.88455285326848" lon="15.077312465064278"><ele>543.6</ele><time>2026-04-19T20:08:47Z</time></trkpt><trkpt lat="37.884578039846566" lon="15.077446162378385"><ele>542.2</ele><time>2026-04-19T20:08:48Z</time></trkpt><trkpt lat="37.88461641936227" lon="15.077575958717054"><ele>540.8</ele><time>2026-04-19T20:08:49Z</time></trkpt><trkpt lat="37.88466529784978" lon="15.077698569978557"><ele>539.4</ele><time>2026-04-19T20:08:50Z</time></trkpt><trkpt lat="37.8847205705303" lon="15.077820526149523"><ele>538.0</ele><time>2026-04-19T20:08:51Z</time></trkpt><trkpt lat="37.88478648329372" lon="15.077944957014022"><ele>538.0</ele><time>2026-04-19T20:08:52Z</time></trkpt><trkpt lat="37.88486283188911" lon="15.07807113385146"><ele>538.0</ele><time>2026-04-19T20:08:53Z</time></trkpt><trkpt lat="37.88493869861545" lon="15.07820758474842"><ele>538.0</ele><time>2026-04-19T20:08:54Z</time></trkpt><trkpt lat="37.8850042932157" lon="15.078354498045647"><ele>538.0</ele><time>2026-04-19T20:08:55Z</time></trkpt><trkpt lat="37.8850445619495" lon="15.078511500610942"><ele>536.25</ele><time>2026-04-19T20:08:56Z</time></trkpt><trkpt lat="37.88506179829444" lon="15.078677794322179"><ele>534.5</ele><time>2026-04-19T20:08:57Z</time></trkpt><trkpt lat="37.88506362823904" lon="15.078849030880715"><ele>532.75</ele><time>2026-04-19T20:08:58Z</time></trkpt><trkpt lat="37.885048955998485" lon="15.079018636815189"><ele>531.0</ele><time>2026-04-19T20:08:59Z</time></trkpt><trkpt lat="37.88502964115614" lon="15.0791832482328"><ele>530.25</ele><time>2026-04-19T20:09:00Z</time></trkpt><trkpt lat="37.88502262379623" lon="15.079351954950956"><ele>529.5</ele><time>2026-04-19T20:09:01Z</time></trkpt><trkpt lat="37.88504209765495" lon="15.079519657571746"><ele>528.75</ele><time>2026-04-19T20:09:02Z</time></trkpt><trkpt lat="37.885094729915465" lon="15.079685468279632"><ele>528.0</ele><time>2026-04-19T20:09:03Z</time></trkpt><trkpt lat="37.885171822461984" lon="15.079834364331623"><ele>525.5</ele><time>2026-04-19T20:09:04Z</time></trkpt><trkpt lat="37.88525517638188" lon="15.079974848505962"><ele>523.0</ele><time>2026-04-19T20:09:05Z</time></trkpt><trkpt lat="37.88533200169147" lon="15.080121346680821"><ele>520.5</ele><time>2026-04-19T20:09:06Z</time></trkpt><trkpt lat="37.885396863086136" lon="15.080278179839272"><ele>518.0</ele><time>2026-04-19T20:09:07Z</time></trkpt><trkpt lat="37.88544332432321" lon="15.080447173059861"><ele>518.0</ele><time>2026-04-19T20:09:08Z</time></trkpt><trkpt lat="37.885452517745755" lon="15.08062570724788"><ele>518.0</ele><time>2026-04-19T20:09:09Z</time></trkpt><trkpt lat="37.8854536236093" lon="15.080797601267566"><ele>518.0</ele><time>2026-04-19T20:09:10Z</time></trkpt><trkpt lat="37.88543586658258" lon="15.080971360466206"><ele>518.0</ele><time>2026-04-19T20:09:11Z</time></trkpt><trkpt lat="37.885407585216775" lon="15.081141413597816"><ele>517.75</ele><time>2026-04-19T20:09:12Z</time></trkpt><trkpt lat="37.88538834256564" lon="15.081313660890016"><ele>517.5</ele><time>2026-04-19T20:09:13Z</time></trkpt><trkpt lat="37.88535065028759" lon="15.0814797553161"><ele>517.25</ele><time>2026-04-19T20:09:14Z</time></trkpt><trkpt lat="37.88531718700646" lon="15.081649848935307"><ele>517.0</ele><time>2026-04-19T20:09:15Z</time></trkpt><trkpt lat="37.88528847981901" lon="15.08182311219453"><ele>516.75</ele><time>2026-04-19T20:09:16Z</time></trkpt><trkpt lat="37.885244903615074" lon="15.081991185787139"><ele>516.5</ele><time>2026-04-19T20:09:17Z</time></trkpt><trkpt lat="37.88522449444856" lon="15.082164068450808"><ele>516.25</ele><time>2026-04-19T20:09:18Z</time></trkpt><trkpt lat="37.88520821789021" lon="15.082332506950461"><ele>516.0</ele><time>2026-04-19T20:09:19Z</time></trkpt><trkpt lat="37.88521787151967" lon="15.082505245290402"><ele>515.75</ele><time>2026-04-19T20:09:20Z</time></trkpt><trkpt lat="37.8852196767972" lon="15.08268274921954"><ele>515.5</ele><time>2026-04-19T20:09:21Z</time></trkpt><trkpt lat="37.885234115133" lon="15.082858342088922"><ele>515.25</ele><time>2026-04-19T20:09:22Z</time></trkpt><trkpt lat="37.88525374442662" lon="15.083031578849521"><ele>515.0</ele><time>2026-04-19T20:09:23Z</time></trkpt><trkpt lat="37.88526809010516" lon="15.083207339931565"><ele>514.5</ele><time>2026-04-19T20:09:24Z</time></trkpt><trkpt lat="37.88527473738566" lon="15.083384410388815"><ele>514.0</ele><time>2026-04-19T20:09:25Z</time></trkpt><trkpt lat="37.88527137148708" lon="15.083560452992806"><ele>513.5</ele><time>2026-04-19T20:09:26Z</time></trkpt><trkpt lat="37.885260190224535" lon="15.083733246554388"><ele>513.0</ele><time>2026-04-19T20:09:27Z</time></trkpt><trkpt lat="37.88523564246245" lon="15.083897557672993"><ele>513.0</ele><time>2026-04-19T20:09:28Z</time></trkpt><trkpt lat="37.885220030564035" lon="15.084066366579492"><ele>513.0</ele><time>2026-04-19T20:09:29Z</time></trkpt><trkpt lat="37.8852044403393" lon="15.08423176347816"><ele>513.0</ele><time>2026-04-19T20:09:30Z</time></trkpt><trkpt lat="37.88518156967039" lon="15.084391652858962"><ele>513.0</ele><time>2026-04-19T20:09:31Z</time></trkpt><trkpt lat="37.885147959091064" lon="15.084553502173861"><ele>513.5</ele><time>2026-04-19T20:09:32Z</time></trkpt><trkpt lat="37.88510674783948" lon="15.0847103717378"><ele>514.0</ele><time>2026-04-19T20:09:33Z</time></trkpt><trkpt lat="37.88505853843033" lon="15.084862500461503"><ele>514.5</ele><time>2026-04-19T20:09:34Z</time></trkpt><trkpt lat="37.885003873978654" lon="15.085017172890566"><ele>515.0</ele><time>2026-04-19T20:09:35Z</time></trkpt><trkpt lat="37.88494104010371" lon="15.085169958911"><ele>516.0</ele><time>2026-04-19T20:09:36Z</time></trkpt><trkpt lat="37.88486863268119" lon="15.085316990552451"><ele>517.0</ele><time>2026-04-19T20:09:37Z</time></trkpt><trkpt lat="37.88478412211273" lon="15.085458244958943"><ele>518.0</ele><time>2026-04-19T20:09:38Z</time></trkpt><trkpt lat="37.884691261768246" lon="15.085597844486959"><ele>519.0</ele><time>2026-04-19T20:09:39Z</time></trkpt><trkpt lat="37.88458139055743" lon="15.085723315692272"><ele>518.5</ele><time>2026-04-19T20:09:40Z</time></trkpt><trkpt lat="37.88448322182489" lon="15.085859645845675"><ele>518.0</ele><time>2026-04-19T20:09:41Z</time></trkpt><trkpt lat="37.884385342039764" lon="15.085991862104818"><ele>517.5</ele><time>2026-04-19T20:09:42Z</time></trkpt><trkpt lat="37.88428365705173" lon="15.086119410912735"><ele>517.0</ele><time>2026-04-19T20:09:43Z</time></trkpt><trkpt lat="37.88417972588061" lon="15.08624917004052"><ele>517.0</ele><time>2026-04-19T20:09:44Z</time></trkpt><trkpt lat="37.884079297174075" lon="15.0863846157852"><ele>517.0</ele><time>2026-04-19T20:09:45Z</time></trkpt><trkpt lat="37.88398804690934" lon="15.086536450847445"><ele>517.0</ele><time>2026-04-19T20:09:46Z</time></trkpt><trkpt lat="37.8839129879017" lon="15.086697553100223"><ele>517.0</ele><time>2026-04-19T20:09:47Z</time></trkpt><trkpt lat="37.88384509541549" lon="15.086866155532888"><ele>514.0</ele><time>2026-04-19T20:09:48Z</time></trkpt><trkpt lat="37.8837778474202" lon="15.087045243465939"><ele>511.0</ele><time>2026-04-19T20:09:49Z</time></trkpt><trkpt lat="37.88371320765135" lon="15.087229064579905"><ele>508.0</ele><time>2026-04-19T20:09:50Z</time></trkpt><trkpt lat="37.88364748850231" lon="15.0874139571097"><ele>505.33333333333337</ele><time>2026-04-19T20:09:51Z</time></trkpt><trkpt lat="37.88357949910141" lon="15.087601161901842"><ele>502.66666666666663</ele><time>2026-04-19T20:09:52Z</time></trkpt><trkpt lat="37.88351070878313" lon="15.08779057214305"><ele>500.0</ele><time>2026-04-19T20:09:53Z</time></trkpt><trkpt lat="37.88344509111214" lon="15.087974985010785"><ele>500.0</ele><time>2026-04-19T20:09:54Z</time></trkpt><trkpt lat="37.88337882639866" lon="15.08815628528036"><ele>500.0</ele><time>2026-04-19T20:09:55Z</time></trkpt><trkpt lat="37.88330959944138" lon="15.088331734102804"><ele>500.0</ele><time>2026-04-19T20:09:56Z</time></trkpt><trkpt lat="37.88323190351318" lon="15.088497901745614"><ele>500.0</ele><time>2026-04-19T20:09:57Z</time></trkpt><trkpt lat="37.88314939485351" lon="15.088656163802279"><ele>500.0</ele><time>2026-04-19T20:09:58Z</time></trkpt><trkpt lat="37.883065806812695" lon="15.088816868821029"><ele>500.0</ele><time>2026-04-19T20:09:59Z</time></trkpt><trkpt lat="37.882962548469266" lon="15.088956265936313"><ele>500.0</ele><time>2026-04-19T20:10:00Z</time></trkpt><trkpt lat="37.88285642749821" lon="15.089092333422503"><ele>500.0</ele><time>2026-04-19T20:10:01Z</time></trkpt><trkpt lat="37.88275016051604" lon="15.089219234405252"><ele>500.0</ele><time>2026-04-19T20:10:02Z</time></trkpt><trkpt lat="37.882664819709" lon="15.089372536585762"><ele>500.0</ele><time>2026-04-19T20:10:03Z</time></trkpt><trkpt lat="37.88260435858293" lon="15.089547147282513"><ele>499.25</ele><time>2026-04-19T20:10:04Z</time></trkpt><trkpt lat="37.88255885080346" lon="15.089725826469335"><ele>498.5</ele><time>2026-04-19T20:10:05Z</time></trkpt><trkpt lat="37.88255518458144" lon="15.089917400126776"><ele>497.75</ele><time>2026-04-19T20:10:06Z</time></trkpt><trkpt lat="37.882567772543304" lon="15.090098867088102"><ele>497.0</ele><time>2026-04-19T20:10:07Z</time></trkpt><trkpt lat="37.882590302136755" lon="15.090278669499343"><ele>495.25</ele><time>2026-04-19T20:10:08Z</time></trkpt><trkpt lat="37.8826135031186" lon="15.090461303627247"><ele>493.5</ele><time>2026-04-19T20:10:09Z</time></trkpt><trkpt lat="37.88263740433937" lon="15.090649450436242"><ele>491.75</ele><time>2026-04-19T20:10:10Z</time></trkpt><trkpt lat="37.882661596928536" lon="15.090839890601462"><ele>490.0</ele><time>2026-04-19T20:10:11Z</time></trkpt><trkpt lat="37.88268625581605" lon="15.091034001394616"><ele>487.0</ele><time>2026-04-19T20:10:12Z</time></trkpt><trkpt lat="37.88271226213251" lon="15.091231944121098"><ele>484.0</ele><time>2026-04-19T20:10:13Z</time></trkpt><trkpt lat="37.88276332156565" lon="15.091426609462712"><ele>481.0</ele><time>2026-04-19T20:10:14Z</time></trkpt><trkpt lat="37.882807839622075" lon="15.091622544155387"><ele>478.33333333333337</ele><time>2026-04-19T20:10:15Z</time></trkpt><trkpt lat="37.88286755543653" lon="15.091817511566603"><ele>475.66666666666663</ele><time>2026-04-19T20:10:16Z</time></trkpt><trkpt lat="37.88294035716402" lon="15.09200588096887"><ele>473.0</ele><time>2026-04-19T20:10:17Z</time></trkpt><trkpt lat="37.88302758704085" lon="15.092189496783282"><ele>473.0</ele><time>2026-04-19T20:10:18Z</time></trkpt><trkpt lat="37.8831232253592" lon="15.09237019758429"><ele>473.0</ele><time>2026-04-19T20:10:19Z</time></trkpt><trkpt lat="37.88321905435235" lon="15.092549954500404"><ele>473.0</ele><time>2026-04-19T20:10:20Z</time></trkpt><trkpt lat="37.883307737540186" lon="15.09273541424888"><ele>472.0</ele><time>2026-04-19T20:10:21Z</time></trkpt><trkpt lat="37.88338316861996" lon="15.092930626070546"><ele>471.0</ele><time>2026-04-19T20:10:22Z</time></trkpt><trkpt lat="37.88345824264584" lon="15.093125008061687"><ele>470.0</ele><time>2026-04-19T20:10:23Z</time></trkpt><trkpt lat="37.883512316515606" lon="15.093332663693838"><ele>467.66666666666663</ele><time>2026-04-19T20:10:24Z</time></trkpt><trkpt lat="37.88356318578131" lon="15.0935450213694"><ele>465.33333333333337</ele><time>2026-04-19T20:10:25Z</time></trkpt><trkpt lat="37.883619064787524" lon="15.093756871564482"><ele>463.0</ele><time>2026-04-19T20:10:26Z</time></trkpt><trkpt lat="37.88368590187454" lon="15.093962110121035"><ele>461.33333333333337</ele><time>2026-04-19T20:10:27Z</time></trkpt><trkpt lat="37.88377855128291" lon="15.094149650364992"><ele>459.66666666666663</ele><time>2026-04-19T20:10:28Z</time></trkpt><trkpt lat="37.88386020021123" lon="15.094341957138475"><ele>458.0</ele><time>2026-04-19T20:10:29Z</time></trkpt><trkpt lat="37.88394556507438" lon="15.094527986135612"><ele>458.0</ele><time>2026-04-19T20:10:30Z</time></trkpt><trkpt lat="37.88399701139905" lon="15.094727146671808"><ele>458.0</ele><time>2026-04-19T20:10:31Z</time></trkpt><trkpt lat="37.88403789748384" lon="15.094926542090631"><ele>458.0</ele><time>2026-04-19T20:10:32Z</time></trkpt><trkpt lat="37.88407865843148" lon="15.09513355123872"><ele>456.66666666666663</ele><time>2026-04-19T20:10:33Z</time></trkpt><trkpt lat="37.88414546302409" lon="15.095329445408948"><ele>455.33333333333337</ele><time>2026-04-19T20:10:34Z</time></trkpt><trkpt lat="37.88421339020123" lon="15.09552841558499"><ele>454.0</ele><time>2026-04-19T20:10:35Z</time></trkpt><trkpt lat="37.884297766604746" lon="15.095718601954271"><ele>452.6666666666667</ele><time>2026-04-19T20:10:36Z</time></trkpt><trkpt lat="37.88438599679286" lon="15.095910884891316"><ele>451.33333333333337</ele><time>2026-04-19T20:10:37Z</time></trkpt><trkpt lat="37.884449470535415" lon="15.096111512005765"><ele>450.0</ele><time>2026-04-19T20:10:38Z</time></trkpt><trkpt lat="37.88451516610343" lon="15.096307596225644"><ele>450.0</ele><time>2026-04-19T20:10:39Z</time></trkpt><trkpt lat="37.884566075399675" lon="15.096513431383048"><ele>450.0</ele><time>2026-04-19T20:10:40Z</time></trkpt><trkpt lat="37.88460612567389" lon="15.096722198874755"><ele>450.0</ele><time>2026-04-19T20:10:41Z</time></trkpt><trkpt lat="37.884640822887526" lon="15.09693371117792"><ele>449.33333333333337</ele><time>2026-04-19T20:10:42Z</time></trkpt><trkpt lat="37.8846797660507" lon="15.097149113177002"><ele>448.6666666666667</ele><time>2026-04-19T20:10:43Z</time></trkpt><trkpt lat="37.88472060570704" lon="15.097370338975228"><ele>448.0</ele><time>2026-04-19T20:10:44Z</time></trkpt><trkpt lat="37.8847596464234" lon="15.097595548632407"><ele>446.6666666666667</ele><time>2026-04-19T20:10:45Z</time></trkpt><trkpt lat="37.88479829715173" lon="15.097820752925694"><ele>445.33333333333337</ele><time>2026-04-19T20:10:46Z</time></trkpt><trkpt lat="37.88483769880591" lon="15.098050332328283"><ele>444.0</ele><time>2026-04-19T20:10:47Z</time></trkpt><trkpt lat="37.884891526132094" lon="15.0982696724396"><ele>443.66666666666663</ele><time>2026-04-19T20:10:48Z</time></trkpt><trkpt lat="37.884929029123015" lon="15.098497760773254"><ele>443.3333333333333</ele><time>2026-04-19T20:10:49Z</time></trkpt><trkpt lat="37.88497090429717" lon="15.098720364476835"><ele>443.0</ele><time>2026-04-19T20:10:50Z</time></trkpt><trkpt lat="37.88501442491645" lon="15.098944171092194"><ele>442.3333333333333</ele><time>2026-04-19T20:10:51Z</time></trkpt><trkpt lat="37.88506144405563" lon="15.099161933640952"><ele>441.66666666666663</ele><time>2026-04-19T20:10:52Z</time></trkpt><trkpt lat="37.885092571202776" lon="15.099387014751843"><ele>441.0</ele><time>2026-04-19T20:10:53Z</time></trkpt><trkpt lat="37.885142639681895" lon="15.099606415825244"><ele>440.66666666666663</ele><time>2026-04-19T20:10:54Z</time></trkpt><trkpt lat="37.88519517957592" lon="15.09981945366928"><ele>440.3333333333333</ele><time>2026-04-19T20:10:55Z</time></trkpt><trkpt lat="37.88524475675546" lon="15.100031701938395"><ele>440.0</ele><time>2026-04-19T20:10:56Z</time></trkpt><trkpt lat="37.885304796918305" lon="15.10024092223406"><ele>439.3333333333333</ele><time>2026-04-19T20:10:57Z</time></trkpt><trkpt lat="37.88531644441066" lon="15.100463026057765"><ele>438.66666666666663</ele><time>2026-04-19T20:10:58Z</time></trkpt><trkpt lat="37.88534055589603" lon="15.100685394391398"><ele>438.0</ele><time>2026-04-19T20:10:59Z</time></trkpt><trkpt lat="37.885328412561094" lon="15.10090894398788"><ele>437.33333333333337</ele><time>2026-04-19T20:11:00Z</time></trkpt><trkpt lat="37.88530040364082" lon="15.10112485886776"><ele>436.6666666666667</ele><time>2026-04-19T20:11:01Z</time></trkpt><trkpt lat="37.88523487579407" lon="15.101320485637455"><ele>436.0</ele><time>2026-04-19T20:11:02Z</time></trkpt><trkpt lat="37.885162680854116" lon="15.101504457586065"><ele>435.33333333333337</ele><time>2026-04-19T20:11:03Z</time></trkpt><trkpt lat="37.885077004747906" lon="15.101682429688188"><ele>434.66666666666663</ele><time>2026-04-19T20:11:04Z</time></trkpt><trkpt lat="37.8849807250982" lon="15.101855986378766"><ele>434.0</ele><time>2026-04-19T20:11:05Z</time></trkpt><trkpt lat="37.88487479865213" lon="15.102031137925636"><ele>434.0</ele><time>2026-04-19T20:11:06Z</time></trkpt><trkpt lat="37.884771132022486" lon="15.102205112189116"><ele>434.0</ele><time>2026-04-19T20:11:07Z</time></trkpt><trkpt lat="37.884667956473216" lon="15.102382674737513"><ele>434.0</ele><time>2026-04-19T20:11:08Z</time></trkpt><trkpt lat="37.88456366881675" lon="15.10256215130324"><ele>434.3333333333333</ele><time>2026-04-19T20:11:09Z</time></trkpt><trkpt lat="37.88445752694677" lon="15.102743007179887"><ele>434.66666666666663</ele><time>2026-04-19T20:11:10Z</time></trkpt><trkpt lat="37.88435122617827" lon="15.102923842498658"><ele>435.0</ele><time>2026-04-19T20:11:11Z</time></trkpt><trkpt lat="37.88424731186865" lon="15.103104395394443"><ele>433.66666666666663</ele><time>2026-04-19T20:11:12Z</time></trkpt><trkpt lat="37.884151082129854" lon="15.103286451961502"><ele>432.3333333333333</ele><time>2026-04-19T20:11:13Z</time></trkpt><trkpt lat="37.88406300657684" lon="15.103477826418985"><ele>431.0</ele><time>2026-04-19T20:11:14Z</time></trkpt><trkpt lat="37.88398442561828" lon="15.103678736916672"><ele>431.0</ele><time>2026-04-19T20:11:15Z</time></trkpt><trkpt lat="37.88391689588846" lon="15.103883292410918"><ele>431.0</ele><time>2026-04-19T20:11:16Z</time></trkpt><trkpt lat="37.88385237310357" lon="15.104088405791746"><ele>431.0</ele><time>2026-04-19T20:11:17Z</time></trkpt><trkpt lat="37.88378889937107" lon="15.104296606563784"><ele>430.0</ele><time>2026-04-19T20:11:18Z</time></trkpt><trkpt lat="37.88372528706636" lon="15.104507034557233"><ele>429.0</ele><time>2026-04-19T20:11:19Z</time></trkpt><trkpt lat="37.8836620680889" lon="15.104714862503817"><ele>428.0</ele><time>2026-04-19T20:11:20Z</time></trkpt><trkpt lat="37.883597271791416" lon="15.104923013812098"><ele>428.0</ele><time>2026-04-19T20:11:21Z</time></trkpt><trkpt lat="37.883532337391436" lon="15.105131608736528"><ele>428.0</ele><time>2026-04-19T20:11:22Z</time></trkpt><trkpt lat="37.88346837811788" lon="15.105340931148133"><ele>428.0</ele><time>2026-04-19T20:11:23Z</time></trkpt><trkpt lat="37.88340477461028" lon="15.105551559145653"><ele>427.0</ele><time>2026-04-19T20:11:24Z</time></trkpt><trkpt lat="37.88334108372814" lon="15.105762544850657"><ele>426.0</ele><time>2026-04-19T20:11:25Z</time></trkpt><trkpt lat="37.883277525666756" lon="15.105973090593757"><ele>425.0</ele><time>2026-04-19T20:11:26Z</time></trkpt><trkpt lat="37.88321363840517" lon="15.106184726872549"><ele>425.0</ele><time>2026-04-19T20:11:27Z</time></trkpt><trkpt lat="37.88315011114332" lon="15.106397501711463"><ele>425.0</ele><time>2026-04-19T20:11:28Z</time></trkpt><trkpt lat="37.88308889891489" lon="15.106606248542581"><ele>425.0</ele><time>2026-04-19T20:11:29Z</time></trkpt><trkpt lat="37.88303087393627" lon="15.106815176900684"><ele>425.0</ele><time>2026-04-19T20:11:30Z</time></trkpt><trkpt lat="37.882977167297675" lon="15.107024998758543"><ele>425.0</ele><time>2026-04-19T20:11:31Z</time></trkpt><trkpt lat="37.88292727151387" lon="15.107238604999944"><ele>425.0</ele><time>2026-04-19T20:11:32Z</time></trkpt><trkpt lat="37.88287907977682" lon="15.107457413195835"><ele>425.0</ele><time>2026-04-19T20:11:33Z</time></trkpt><trkpt lat="37.88283151995926" lon="15.107673352176125"><ele>425.0</ele><time>2026-04-19T20:11:34Z</time></trkpt><trkpt lat="37.88278499994057" lon="15.107891838885836"><ele>425.0</ele><time>2026-04-19T20:11:35Z</time></trkpt><trkpt lat="37.88273855537914" lon="15.108110924078126"><ele>426.0</ele><time>2026-04-19T20:11:36Z</time></trkpt><trkpt lat="37.88269298332133" lon="15.108325893563068"><ele>427.0</ele><time>2026-04-19T20:11:37Z</time></trkpt><trkpt lat="37.88264788759978" lon="15.10853861605038"><ele>428.0</ele><time>2026-04-19T20:11:38Z</time></trkpt><trkpt lat="37.88260346840132" lon="15.108747531444635"><ele>430.0</ele><time>2026-04-19T20:11:39Z</time></trkpt><trkpt lat="37.8825585239235" lon="15.10895722525609"><ele>432.0</ele><time>2026-04-19T20:11:40Z</time></trkpt><trkpt lat="37.88251403596149" lon="15.109163699102972"><ele>434.0</ele><time>2026-04-19T20:11:41Z</time></trkpt><trkpt lat="37.882471753019516" lon="15.10936146264818"><ele>434.0</ele><time>2026-04-19T20:11:42Z</time></trkpt><trkpt lat="37.88242908082514" lon="15.109550439435473"><ele>434.0</ele><time>2026-04-19T20:11:43Z</time></trkpt><trkpt lat="37.88239603049411" lon="15.109731192215364"><ele>434.0</ele><time>2026-04-19T20:11:44Z</time></trkpt><trkpt lat="37.88237789985596" lon="15.109912610492309"><ele>434.0</ele><time>2026-04-19T20:11:45Z</time></trkpt><trkpt lat="37.88237275187412" lon="15.110085174739213"><ele>433.5</ele><time>2026-04-19T20:11:46Z</time></trkpt><trkpt lat="37.882376579099834" lon="15.11024937038768"><ele>433.0</ele><time>2026-04-19T20:11:47Z</time></trkpt><trkpt lat="37.88238976404344" lon="15.110400431206838"><ele>432.5</ele><time>2026-04-19T20:11:48Z</time></trkpt><trkpt lat="37.882408591020365" lon="15.110550585894305"><ele>432.0</ele><time>2026-04-19T20:11:49Z</time></trkpt><trkpt lat="37.882425809071755" lon="15.110695686506771"><ele>431.8</ele><time>2026-04-19T20:11:50Z</time></trkpt><trkpt lat="37.882453320298055" lon="15.110833435896788"><ele>431.6</ele><time>2026-04-19T20:11:51Z</time></trkpt><trkpt lat="37.88244736665863" lon="15.110970467152454"><ele>431.40000000000003</ele><time>2026-04-19T20:11:52Z</time></trkpt><trkpt lat="37.88245523350217" lon="15.111105001430511"><ele>431.20000000000005</ele><time>2026-04-19T20:11:53Z</time></trkpt><trkpt lat="37.882461957693565" lon="15.111232468847295"><ele>431.0</ele><time>2026-04-19T20:11:54Z</time></trkpt><trkpt lat="37.8824682650444" lon="15.111355856634635"><ele>431.0</ele><time>2026-04-19T20:11:55Z</time></trkpt><trkpt lat="37.88247424217318" lon="15.111475342801123"><ele>431.0</ele><time>2026-04-19T20:11:56Z</time></trkpt><trkpt lat="37.88247843133774" lon="15.111587662745892"><ele>431.0</ele><time>2026-04-19T20:11:57Z</time></trkpt><trkpt lat="37.88248244240203" lon="15.11170284832302"><ele>431.0</ele><time>2026-04-19T20:11:58Z</time></trkpt><trkpt lat="37.882501662459184" lon="15.11182085066793"><ele>431.0</ele><time>2026-04-19T20:11:59Z</time></trkpt><trkpt lat="37.882504254076714" lon="15.111942145737906"><ele>431.4</ele><time>2026-04-19T20:12:00Z</time></trkpt><trkpt lat="37.88250945450107" lon="15.112061696843856"><ele>431.8</ele><time>2026-04-19T20:12:01Z</time></trkpt><trkpt lat="37.88251417198483" lon="15.112181227977585"><ele>432.19999999999993</ele><time>2026-04-19T20:12:02Z</time></trkpt><trkpt lat="37.88250105809053" lon="15.112300383790304"><ele>432.59999999999997</ele><time>2026-04-19T20:12:03Z</time></trkpt><trkpt lat="37.88250404995661" lon="15.112419268120584"><ele>433.0</ele><time>2026-04-19T20:12:04Z</time></trkpt><trkpt lat="37.88250695124845" lon="15.112534553197245"><ele>433.6666666666667</ele><time>2026-04-19T20:12:05Z</time></trkpt><trkpt lat="37.88250973467968" lon="15.112648645165509"><ele>434.33333333333337</ele><time>2026-04-19T20:12:06Z</time></trkpt><trkpt lat="37.88252667448504" lon="15.112752309180276"><ele>435.0</ele><time>2026-04-19T20:12:07Z</time></trkpt><trkpt lat="37.88252269373075" lon="15.112844214920337"><ele>435.66666666666663</ele><time>2026-04-19T20:12:08Z</time></trkpt><trkpt lat="37.88252686830796" lon="15.112939367400985"><ele>436.3333333333333</ele><time>2026-04-19T20:12:09Z</time></trkpt><trkpt lat="37.88254325431637" lon="15.113035895431414"><ele>437.0</ele><time>2026-04-19T20:12:10Z</time></trkpt><trkpt lat="37.88256647123268" lon="15.113137532617978"><ele>437.99999999999994</ele><time>2026-04-19T20:12:11Z</time></trkpt><trkpt lat="37.88259889035102" lon="15.113233964842781"><ele>439.0</ele><time>2026-04-19T20:12:12Z</time></trkpt><trkpt lat="37.88263767820543" lon="15.11333077589834"><ele>440.0</ele><time>2026-04-19T20:12:13Z</time></trkpt><trkpt lat="37.88268572352706" lon="15.11342277461322"><ele>441.0</ele><time>2026-04-19T20:12:14Z</time></trkpt><trkpt lat="37.88273431336989" lon="15.11350504753746"><ele>441.99999999999994</ele><time>2026-04-19T20:12:15Z</time></trkpt><trkpt lat="37.88279179984808" lon="15.113585338731342"><ele>443.0</ele><time>2026-04-19T20:12:16Z</time></trkpt><trkpt lat="37.88284744611331" lon="15.113659013623767"><ele>442.66666666666663</ele><time>2026-04-19T20:12:17Z</time></trkpt><trkpt lat="37.88289797586964" lon="15.113729946700563"><ele>442.3333333333333</ele><time>2026-04-19T20:12:18Z</time></trkpt><trkpt lat="37.88293122808005" lon="15.113799587047614"><ele>442.0</ele><time>2026-04-19T20:12:19Z</time></trkpt><trkpt lat="37.88294334713196" lon="15.113941401953472"><ele>441.66666666666663</ele><time>2026-04-19T20:12:21Z</time></trkpt><trkpt lat="37.882915489065645" lon="15.11405162680795"><ele>441.3333333333333</ele><time>2026-04-19T20:12:23Z</time></trkpt><trkpt lat="37.882865860307525" lon="15.11414915953282"><ele>441.0</ele><time>2026-04-19T20:12:25Z</time></trkpt><trkpt lat="37.88283303338276" lon="15.114247790813845"><ele>441.0</ele><time>2026-04-19T20:12:27Z</time></trkpt><trkpt lat="37.88279188018706" lon="15.114334907873369"><ele>441.0</ele><time>2026-04-19T20:12:30Z</time></trkpt><trkpt lat="37.88287656832361" lon="15.1144381851077"><ele>441.0</ele><time>2026-04-19T20:12:32Z</time></trkpt><trkpt lat="37.882933573353434" lon="15.114479852400297"><ele>441.0</ele><time>2026-04-19T20:12:34Z</time></trkpt><trkpt lat="37.88301864084846" lon="15.114365148993405"><ele>441.0</ele><time>2026-04-19T20:12:40Z</time></trkpt><trkpt lat="37.882947825651286" lon="15.114339980621134"><ele>441.0</ele><time>2026-04-19T20:17:49Z</time></trkpt><trkpt lat="37.88284869802964" lon="15.114311036392548"><ele>441.0</ele><time>2026-04-19T20:17:53Z</time></trkpt><trkpt lat="37.8827455317285" lon="15.114227309086319"><ele>441.0</ele><time>2026-04-19T20:17:55Z</time></trkpt><trkpt lat="37.88263965252908" lon="15.114156114373918"><ele>441.0</ele><time>2026-04-19T20:17:57Z</time></trkpt><trkpt lat="37.88257912504701" lon="15.11411874527762"><ele>441.0</ele><time>2026-04-19T20:17:58.001Z</time></trkpt><trkpt lat="37.8825162720008" lon="15.114079212809477"><ele>441.20000000000005</ele><time>2026-04-19T20:17:59.001Z</time></trkpt><trkpt lat="37.88244143926135" lon="15.1140507437998"><ele>441.40000000000003</ele><time>2026-04-19T20:18:00.001Z</time></trkpt><trkpt lat="37.88235247997475" lon="15.11404509062082"><ele>441.6</ele><time>2026-04-19T20:18:01.001Z</time></trkpt><trkpt lat="37.882256105700314" lon="15.114061205102516"><ele>441.8</ele><time>2026-04-19T20:18:02.001Z</time></trkpt><trkpt lat="37.882161391888516" lon="15.114083580113032"><ele>442.0</ele><time>2026-04-19T20:18:03.001Z</time></trkpt><trkpt lat="37.88206815623731" lon="15.114108540021455"><ele>442.1666666666667</ele><time>2026-04-19T20:18:04.001Z</time></trkpt><trkpt lat="37.881980919013806" lon="15.114129750918488"><ele>442.33333333333337</ele><time>2026-04-19T20:18:05.001Z</time></trkpt><trkpt lat="37.88189803544963" lon="15.114143031834017"><ele>442.5</ele><time>2026-04-19T20:18:06.001Z</time></trkpt><trkpt lat="37.881817307626314" lon="15.114144831676695"><ele>442.66666666666663</ele><time>2026-04-19T20:18:07.001Z</time></trkpt><trkpt lat="37.881734787419106" lon="15.114127315919395"><ele>442.8333333333333</ele><time>2026-04-19T20:18:08.001Z</time></trkpt><trkpt lat="37.88165731687747" lon="15.114082254254102"><ele>443.0</ele><time>2026-04-19T20:18:09.001Z</time></trkpt><trkpt lat="37.881587132388" lon="15.114027601123919"><ele>442.99999999999994</ele><time>2026-04-19T20:18:10.001Z</time></trkpt><trkpt lat="37.88151975531845" lon="15.11397568115351"><ele>443.0</ele><time>2026-04-19T20:18:11.001Z</time></trkpt><trkpt lat="37.88145172819455" lon="15.113925792195529"><ele>443.0</ele><time>2026-04-19T20:18:12.001Z</time></trkpt><trkpt lat="37.88138589124135" lon="15.113886494935237"><ele>443.0</ele><time>2026-04-19T20:18:13.001Z</time></trkpt><trkpt lat="37.881325034253074" lon="15.113856547544993"><ele>442.99999999999994</ele><time>2026-04-19T20:18:14.001Z</time></trkpt><trkpt lat="37.88123449089358" lon="15.113851695482573"><ele>443.0</ele><time>2026-04-19T20:18:16.001Z</time></trkpt><trkpt lat="37.88118034478417" lon="15.113933393903151"><ele>443.0</ele><time>2026-04-19T20:18:18.001Z</time></trkpt><trkpt lat="37.88122514814337" lon="15.114056818455701"><ele>442.99999999999994</ele><time>2026-04-19T20:18:20.001Z</time></trkpt><trkpt lat="37.88130334082721" lon="15.114114227158794"><ele>442.99999999999994</ele><time>2026-04-19T20:18:22.001Z</time></trkpt><trkpt lat="37.88140228391475" lon="15.114179884742235"><ele>443.0</ele><time>2026-04-19T20:18:24.001Z</time></trkpt><trkpt lat="37.881467178493985" lon="15.114229166885602"><ele>443.0</ele><time>2026-04-19T20:18:25.001Z</time></trkpt><trkpt lat="37.88152424807063" lon="15.114270569975334"><ele>444.66666666666663</ele><time>2026-04-19T20:18:26.001Z</time></trkpt><trkpt lat="37.88158739208611" lon="15.114318680165866"><ele>446.3333333333333</ele><time>2026-04-19T20:18:27.001Z</time></trkpt><trkpt lat="37.88165603359033" lon="15.114369189350551"><ele>448.0</ele><time>2026-04-19T20:18:28.001Z</time></trkpt><trkpt lat="37.881729399419335" lon="15.114420735378829"><ele>449.66666666666663</ele><time>2026-04-19T20:18:29.001Z</time></trkpt><trkpt lat="37.881803583292275" lon="15.114479200727846"><ele>451.3333333333333</ele><time>2026-04-19T20:18:30.001Z</time></trkpt><trkpt lat="37.881877056544496" lon="15.114541317038968"><ele>453.0</ele><time>2026-04-19T20:18:31.001Z</time></trkpt><trkpt lat="37.881951157370864" lon="15.114606088904285"><ele>453.0</ele><time>2026-04-19T20:18:32.001Z</time></trkpt><trkpt lat="37.88201184983605" lon="15.114694072991652"><ele>453.0</ele><time>2026-04-19T20:18:33.001Z</time></trkpt><trkpt lat="37.88208019974501" lon="15.11477141912167"><ele>453.0</ele><time>2026-04-19T20:18:34.001Z</time></trkpt><trkpt lat="37.88215084656562" lon="15.114835220451523"><ele>453.0</ele><time>2026-04-19T20:18:35.001Z</time></trkpt><trkpt lat="37.882199908551044" lon="15.114926463326341"><ele>453.0</ele><time>2026-04-19T20:18:36.001Z</time></trkpt><trkpt lat="37.88222760901697" lon="15.115034979023116"><ele>453.0</ele><time>2026-04-19T20:18:37.001Z</time></trkpt><trkpt lat="37.88221517128983" lon="15.115153850755728"><ele>455.2</ele><time>2026-04-19T20:18:38.001Z</time></trkpt><trkpt lat="37.882207972077296" lon="15.11526881585373"><ele>457.4</ele><time>2026-04-19T20:18:39.001Z</time></trkpt><trkpt lat="37.88219939909653" lon="15.115385138910343"><ele>459.59999999999997</ele><time>2026-04-19T20:18:40.001Z</time></trkpt><trkpt lat="37.882210560375306" lon="15.11551001747646"><ele>461.79999999999995</ele><time>2026-04-19T20:18:41.001Z</time></trkpt><trkpt lat="37.88221352957563" lon="15.115638235498242"><ele>464.0</ele><time>2026-04-19T20:18:42.001Z</time></trkpt><trkpt lat="37.882234145234975" lon="15.115760035119374"><ele>466.0</ele><time>2026-04-19T20:18:43.001Z</time></trkpt><trkpt lat="37.8822724582935" lon="15.115878656399783"><ele>468.0</ele><time>2026-04-19T20:18:44.001Z</time></trkpt><trkpt lat="37.88232304774607" lon="15.115994290299067"><ele>470.0</ele><time>2026-04-19T20:18:45.001Z</time></trkpt><trkpt lat="37.88237343378574" lon="15.116110409094842"><ele>472.0</ele><time>2026-04-19T20:18:46.001Z</time></trkpt><trkpt lat="37.88242257272691" lon="15.116226550001619"><ele>474.0</ele><time>2026-04-19T20:18:47.001Z</time></trkpt><trkpt lat="37.88244508157445" lon="15.116357636311804"><ele>474.0</ele><time>2026-04-19T20:18:48.001Z</time></trkpt><trkpt lat="37.882469615469944" lon="15.116485374456815"><ele>474.0</ele><time>2026-04-19T20:18:49.001Z</time></trkpt><trkpt lat="37.88250416680444" lon="15.116613476228409"><ele>474.0</ele><time>2026-04-19T20:18:50.001Z</time></trkpt><trkpt lat="37.882525711123314" lon="15.11674557897229"><ele>474.0</ele><time>2026-04-19T20:18:51.001Z</time></trkpt><trkpt lat="37.882552793956336" lon="15.116874550038528"><ele>474.0</ele><time>2026-04-19T20:18:52.001Z</time></trkpt><trkpt lat="37.88258709624374" lon="15.117000229524054"><ele>474.79999999999995</ele><time>2026-04-19T20:18:53.001Z</time></trkpt><trkpt lat="37.88263092562455" lon="15.11711961526834"><ele>475.59999999999997</ele><time>2026-04-19T20:18:54.001Z</time></trkpt><trkpt lat="37.88267279845681" lon="15.117229518541091"><ele>476.4</ele><time>2026-04-19T20:18:55Z</time></trkpt><trkpt lat="37.88271603830324" lon="15.117328745741974"><ele>477.2</ele><time>2026-04-19T20:18:56Z</time></trkpt><trkpt lat="37.882775469050635" lon="15.117408254469266"><ele>478.0</ele><time>2026-04-19T20:18:57Z</time></trkpt><trkpt lat="37.88286472396394" lon="15.11744309629272"><ele>478.0</ele><time>2026-04-19T20:18:58Z</time></trkpt><trkpt lat="37.88296585720896" lon="15.117438887364383"><ele>477.99999999999994</ele><time>2026-04-19T20:18:59.001Z</time></trkpt><trkpt lat="37.88306553280198" lon="15.11740944001551"><ele>477.99999999999994</ele><time>2026-04-19T20:19:00.001Z</time></trkpt><trkpt lat="37.883162697081886" lon="15.11737402998238"><ele>478.0</ele><time>2026-04-19T20:19:01.001Z</time></trkpt><trkpt lat="37.88326207435849" lon="15.117330521040476"><ele>478.0</ele><time>2026-04-19T20:19:02Z</time></trkpt><trkpt lat="37.883355192070816" lon="15.117264664285603"><ele>478.79999999999995</ele><time>2026-04-19T20:19:03Z</time></trkpt><trkpt lat="37.88345279977925" lon="15.117210053575505"><ele>479.59999999999997</ele><time>2026-04-19T20:19:04Z</time></trkpt><trkpt lat="37.88355207110358" lon="15.11716562131311"><ele>480.40000000000003</ele><time>2026-04-19T20:19:05Z</time></trkpt><trkpt lat="37.883648091155315" lon="15.117130058787822"><ele>481.20000000000005</ele><time>2026-04-19T20:19:06Z</time></trkpt><trkpt lat="37.883737226665446" lon="15.117091083754586"><ele>482.0</ele><time>2026-04-19T20:19:07Z</time></trkpt><trkpt lat="37.88381509965972" lon="15.11705910169625"><ele>482.0</ele><time>2026-04-19T20:19:08Z</time></trkpt><trkpt lat="37.883889026392644" lon="15.117032850935022"><ele>482.00000000000006</ele><time>2026-04-19T20:19:09Z</time></trkpt><trkpt lat="37.88395560885286" lon="15.117034246438482"><ele>482.0</ele><time>2026-04-19T20:19:10Z</time></trkpt><trkpt lat="37.88401065237715" lon="15.117075738476684"><ele>482.0</ele><time>2026-04-19T20:19:11Z</time></trkpt><trkpt lat="37.88403950998751" lon="15.117153934691315"><ele>482.00000000000006</ele><time>2026-04-19T20:19:12Z</time></trkpt><trkpt lat="37.88402243094169" lon="15.117261497340323"><ele>482.0</ele><time>2026-04-19T20:19:13Z</time></trkpt><trkpt lat="37.88405628671511" lon="15.117356639747097"><ele>482.0</ele><time>2026-04-19T20:19:14Z</time></trkpt><trkpt lat="37.88410914274589" lon="15.117438495718124"><ele>483.8333333333333</ele><time>2026-04-19T20:19:15Z</time></trkpt><trkpt lat="37.88416989069888" lon="15.11751692842899"><ele>485.66666666666663</ele><time>2026-04-19T20:19:16Z</time></trkpt><trkpt lat="37.8842482741402" lon="15.117569878042907"><ele>487.5</ele><time>2026-04-19T20:19:17Z</time></trkpt><trkpt lat="37.884335749687175" lon="15.117593634518082"><ele>489.33333333333337</ele><time>2026-04-19T20:19:18Z</time></trkpt><trkpt lat="37.884419562615015" lon="15.117572744864535"><ele>491.1666666666667</ele><time>2026-04-19T20:19:19Z</time></trkpt><trkpt lat="37.88450084036499" lon="15.117513792041377"><ele>493.0</ele><time>2026-04-19T20:19:20Z</time></trkpt><trkpt lat="37.88457963659942" lon="15.117461528288619"><ele>493.00000000000006</ele><time>2026-04-19T20:19:21Z</time></trkpt><trkpt lat="37.884650471117126" lon="15.117449938456422"><ele>493.0</ele><time>2026-04-19T20:19:22Z</time></trkpt><trkpt lat="37.88473517224091" lon="15.117493903794639"><ele>493.0</ele><time>2026-04-19T20:19:23Z</time></trkpt><trkpt lat="37.88478352605916" lon="15.117590393303795"><ele>493.0</ele><time>2026-04-19T20:19:24Z</time></trkpt><trkpt lat="37.88476072314042" lon="15.117681888733854"><ele>493.00000000000006</ele><time>2026-04-19T20:19:25Z</time></trkpt><trkpt lat="37.88471989648034" lon="15.117744957057393"><ele>493.0</ele><time>2026-04-19T20:19:26Z</time></trkpt><trkpt lat="37.884657098294916" lon="15.11777533749392"><ele>493.00000000000006</ele><time>2026-04-19T20:19:27Z</time></trkpt><trkpt lat="37.884589758158775" lon="15.11775703430559"><ele>493.0</ele><time>2026-04-19T20:19:28Z</time></trkpt><trkpt lat="37.88450318801558" lon="15.117767637023093"><ele>493.0</ele><time>2026-04-19T20:19:29Z</time></trkpt><trkpt lat="37.88442351568845" lon="15.117774965754176"><ele>493.0</ele><time>2026-04-19T20:19:30Z</time></trkpt><trkpt lat="37.88432586891326" lon="15.117775496855842"><ele>493.00000000000006</ele><time>2026-04-19T20:19:31Z</time></trkpt><trkpt lat="37.88421716347458" lon="15.11777118932772"><ele>493.0</ele><time>2026-04-19T20:19:32Z</time></trkpt><trkpt lat="37.88411940251917" lon="15.117766319453619"><ele>495.0</ele><time>2026-04-19T20:19:33Z</time></trkpt><trkpt lat="37.88401759956635" lon="15.117763201996958"><ele>496.99999999999994</ele><time>2026-04-19T20:19:34Z</time></trkpt><trkpt lat="37.883912051867476" lon="15.117763556989141"><ele>498.99999999999994</ele><time>2026-04-19T20:19:35Z</time></trkpt><trkpt lat="37.883802715575484" lon="15.11777214982141"><ele>501.0</ele><time>2026-04-19T20:19:36Z</time></trkpt><trkpt lat="37.88370930225648" lon="15.11781380403344"><ele>503.0</ele><time>2026-04-19T20:19:37Z</time></trkpt><trkpt lat="37.88364202785543" lon="15.11787840429003"><ele>503.0</ele><time>2026-04-19T20:19:38Z</time></trkpt><trkpt lat="37.88357913911898" lon="15.11799412337212"><ele>502.99999999999994</ele><time>2026-04-19T20:19:39Z</time></trkpt><trkpt lat="37.88352439502327" lon="15.11813856467523"><ele>502.99999999999994</ele><time>2026-04-19T20:19:40Z</time></trkpt><trkpt lat="37.883478492411065" lon="15.118256336161934"><ele>503.0</ele><time>2026-04-19T20:19:41Z</time></trkpt><trkpt lat="37.883431289980216" lon="15.118368718683808"><ele>503.0</ele><time>2026-04-19T20:19:42Z</time></trkpt><trkpt lat="37.88337953329978" lon="15.118476881900005"><ele>505.66666666666663</ele><time>2026-04-19T20:19:43Z</time></trkpt><trkpt lat="37.8833250122564" lon="15.118579886330991"><ele>508.3333333333333</ele><time>2026-04-19T20:19:44Z</time></trkpt><trkpt lat="37.883267263831804" lon="15.118672735259727"><ele>511.0</ele><time>2026-04-19T20:19:45Z</time></trkpt><trkpt lat="37.8832091870277" lon="15.118738775594428"><ele>513.6666666666666</ele><time>2026-04-19T20:19:46Z</time></trkpt><trkpt lat="37.88313088808422" lon="15.118773514190842"><ele>516.3333333333334</ele><time>2026-04-19T20:19:47Z</time></trkpt><trkpt lat="37.883042491278395" lon="15.118759569984732"><ele>519.0</ele><time>2026-04-19T20:19:48Z</time></trkpt><trkpt lat="37.88293864008286" lon="15.118752207209477"><ele>519.0</ele><time>2026-04-19T20:19:49Z</time></trkpt><trkpt lat="37.88282488486637" lon="15.118701522644644"><ele>519.0</ele><time>2026-04-19T20:19:50Z</time></trkpt><trkpt lat="37.88272597130873" lon="15.118656627689601"><ele>519.0</ele><time>2026-04-19T20:19:51Z</time></trkpt><trkpt lat="37.882614245177116" lon="15.1185754071673"><ele>519.0</ele><time>2026-04-19T20:19:52Z</time></trkpt><trkpt lat="37.88248657591554" lon="15.118485712111005"><ele>520.5</ele><time>2026-04-19T20:19:53Z</time></trkpt><trkpt lat="37.88235943723767" lon="15.118397296306066"><ele>522.0</ele><time>2026-04-19T20:19:54Z</time></trkpt><trkpt lat="37.88226337844361" lon="15.118335884060643"><ele>523.5</ele><time>2026-04-19T20:19:55.001Z</time></trkpt><trkpt lat="37.88217429450104" lon="15.118297764803279"><ele>525.0</ele><time>2026-04-19T20:19:56.001Z</time></trkpt><trkpt lat="37.8820559060268" lon="15.118262524067264"><ele>525.0</ele><time>2026-04-19T20:19:57.001Z</time></trkpt><trkpt lat="37.88195229983579" lon="15.118264291696399"><ele>525.0</ele><time>2026-04-19T20:19:58.001Z</time></trkpt><trkpt lat="37.88190714065943" lon="15.118361852656568"><ele>525.0</ele><time>2026-04-19T20:19:59.001Z</time></trkpt><trkpt lat="37.881882299525806" lon="15.118450643645849"><ele>525.0</ele><time>2026-04-19T20:20:00.001Z</time></trkpt><trkpt lat="37.88187748792855" lon="15.118570741797068"><ele>525.0</ele><time>2026-04-19T20:20:01.001Z</time></trkpt><trkpt lat="37.881857001984216" lon="15.118725259824515"><ele>525.0</ele><time>2026-04-19T20:20:02.001Z</time></trkpt><trkpt lat="37.881829376974295" lon="15.118883286866097"><ele>525.0</ele><time>2026-04-19T20:20:03.001Z</time></trkpt><trkpt lat="37.88179662445734" lon="15.11907421214588"><ele>525.0</ele><time>2026-04-19T20:20:04.001Z</time></trkpt><trkpt lat="37.88175827635587" lon="15.119294930384145"><ele>527.0</ele><time>2026-04-19T20:20:05.001Z</time></trkpt><trkpt lat="37.881715817898126" lon="15.119539306370744"><ele>529.0</ele><time>2026-04-19T20:20:06.001Z</time></trkpt><trkpt lat="37.881677330746754" lon="15.119760825425633"><ele>531.0</ele><time>2026-04-19T20:20:07.001Z</time></trkpt><trkpt lat="37.88163512047903" lon="15.120010301967048"><ele>535.0</ele><time>2026-04-19T20:20:08.001Z</time></trkpt><trkpt lat="37.88159359129121" lon="15.120250962332864"><ele>539.0</ele><time>2026-04-19T20:20:09.001Z</time></trkpt><trkpt lat="37.881557142654906" lon="15.120457158319498"><ele>543.0</ele><time>2026-04-19T20:20:10.001Z</time></trkpt><trkpt lat="37.88156221376432" lon="15.120657853871293"><ele>547.6666666666666</ele><time>2026-04-19T20:20:11.001Z</time></trkpt><trkpt lat="37.881556416214835" lon="15.120856620461929"><ele>552.3333333333333</ele><time>2026-04-19T20:20:12.001Z</time></trkpt><trkpt lat="37.88156655474804" lon="15.121096397781484"><ele>557.0</ele><time>2026-04-19T20:20:13.001Z</time></trkpt><trkpt lat="37.88157232554787" lon="15.121344914537708"><ele>557.0</ele><time>2026-04-19T20:20:14.001Z</time></trkpt><trkpt lat="37.88157313390147" lon="15.121555167111087"><ele>557.0</ele><time>2026-04-19T20:20:15.001Z</time></trkpt><trkpt lat="37.88156622672968" lon="15.121738537407522"><ele>557.0</ele><time>2026-04-19T20:20:16.001Z</time></trkpt><trkpt lat="37.88155059114525" lon="15.121908883056834"><ele>557.0</ele><time>2026-04-19T20:20:17.001Z</time></trkpt><trkpt lat="37.881523503572474" lon="15.122054352881802"><ele>557.6666666666666</ele><time>2026-04-19T20:20:18.001Z</time></trkpt><trkpt lat="37.88145024928343" lon="15.122161900766567"><ele>558.3333333333333</ele><time>2026-04-19T20:20:19.001Z</time></trkpt><trkpt lat="37.8814180495693" lon="15.122258040097625"><ele>559.0</ele><time>2026-04-19T20:20:20.001Z</time></trkpt><trkpt lat="37.88140133647079" lon="15.122340435982123"><ele>559.6666666666666</ele><time>2026-04-19T20:20:21.001Z</time></trkpt><trkpt lat="37.8814057543939" lon="15.122442552615928"><ele>560.3333333333334</ele><time>2026-04-19T20:20:22.001Z</time></trkpt><trkpt lat="37.88141062303637" lon="15.12252970364545"><ele>561.0</ele><time>2026-04-19T20:20:23.001Z</time></trkpt><trkpt lat="37.88140211655984" lon="15.122627205869813"><ele>563.25</ele><time>2026-04-19T20:20:24.001Z</time></trkpt><trkpt lat="37.88138180260657" lon="15.122750553539678"><ele>565.5</ele><time>2026-04-19T20:20:25.001Z</time></trkpt><trkpt lat="37.88133721598913" lon="15.122878912185309"><ele>567.75</ele><time>2026-04-19T20:20:26.001Z</time></trkpt><trkpt lat="37.88127804903369" lon="15.123043852643928"><ele>570.0</ele><time>2026-04-19T20:20:27.001Z</time></trkpt><trkpt lat="37.881215759569436" lon="15.12322138080135"><ele>571.4</ele><time>2026-04-19T20:20:28.001Z</time></trkpt><trkpt lat="37.881170869048255" lon="15.123388197778988"><ele>572.8</ele><time>2026-04-19T20:20:29.001Z</time></trkpt><trkpt lat="37.881136605458245" lon="15.123541395210172"><ele>574.2</ele><time>2026-04-19T20:20:30.001Z</time></trkpt><trkpt lat="37.88110723521424" lon="15.123661718124596"><ele>575.6</ele><time>2026-04-19T20:20:31.001Z</time></trkpt><trkpt lat="37.88107452056542" lon="15.12374773103017"><ele>577.0</ele><time>2026-04-19T20:20:32.001Z</time></trkpt><trkpt lat="37.88104207833256" lon="15.123825053880285"><ele>577.0</ele><time>2026-04-19T20:20:33.001Z</time></trkpt><trkpt lat="37.88099819080295" lon="15.123886839305026"><ele>577.0</ele><time>2026-04-19T20:20:34.001Z</time></trkpt><trkpt lat="37.88095169307857" lon="15.123960331259864"><ele>577.0</ele><time>2026-04-19T20:20:35.001Z</time></trkpt><trkpt lat="37.88091064078429" lon="15.124032335153094"><ele>577.0</ele><time>2026-04-19T20:20:36.001Z</time></trkpt><trkpt lat="37.88088060972837" lon="15.124104266032"><ele>577.0</ele><time>2026-04-19T20:20:37.001Z</time></trkpt><trkpt lat="37.88082400832131" lon="15.124173071648528"><ele>577.0</ele><time>2026-04-19T20:20:39.001Z</time></trkpt><trkpt lat="37.880673873582715" lon="15.124138272794482"><ele>574.2</ele><time>2026-04-19T20:20:41.001Z</time></trkpt><trkpt lat="37.88059945986541" lon="15.1241462480465"><ele>571.4000000000001</ele><time>2026-04-19T20:20:42.001Z</time></trkpt><trkpt lat="37.88052812260261" lon="15.124125564136753"><ele>568.5999999999999</ele><time>2026-04-19T20:20:43.001Z</time></trkpt><trkpt lat="37.88042612804409" lon="15.124294257035402"><ele>565.8</ele><time>2026-04-19T20:20:45.001Z</time></trkpt><trkpt lat="37.88035287852656" lon="15.12438655789601"><ele>563.0</ele><time>2026-04-19T20:20:47.001Z</time></trkpt><trkpt lat="37.88026617228629" lon="15.124494188549592"><ele>563.0</ele><time>2026-04-19T20:20:49.001Z</time></trkpt><trkpt lat="37.88021308456692" lon="15.124566896505161"><ele>563.0</ele><time>2026-04-19T20:20:50.001Z</time></trkpt><trkpt lat="37.880159254063834" lon="15.124609318492814"><ele>563.0</ele><time>2026-04-19T20:20:51.001Z</time></trkpt><trkpt lat="37.88010965720289" lon="15.124687041634305"><ele>563.0</ele><time>2026-04-19T20:20:52.001Z</time></trkpt><trkpt lat="37.88005502442466" lon="15.124750306731977"><ele>563.0</ele><time>2026-04-19T20:20:53.001Z</time></trkpt><trkpt lat="37.87997144809668" lon="15.12481980097228"><ele>563.0</ele><time>2026-04-19T20:20:55.001Z</time></trkpt><trkpt lat="37.880078315776984" lon="15.124972511310643"><ele>562.1666666666666</ele><time>2026-04-19T20:20:58.001Z</time></trkpt><trkpt lat="37.88015068360189" lon="15.124988928846452"><ele>561.3333333333333</ele><time>2026-04-19T20:20:59.001Z</time></trkpt><trkpt lat="37.88021333282008" lon="15.12504310659606"><ele>560.5</ele><time>2026-04-19T20:21:00Z</time></trkpt><trkpt lat="37.88026848267172" lon="15.125124390669791"><ele>559.6666666666666</ele><time>2026-04-19T20:21:01Z</time></trkpt><trkpt lat="37.88029499008397" lon="15.125240559889743"><ele>558.8333333333334</ele><time>2026-04-19T20:21:02Z</time></trkpt><trkpt lat="37.880384991964654" lon="15.125197801526916"><ele>558.0</ele><time>2026-04-19T20:21:03Z</time></trkpt><trkpt lat="37.88030986416648" lon="15.125547556161472"><ele>558.0</ele><time>2026-04-19T20:21:05Z</time></trkpt><trkpt lat="37.88027830411864" lon="15.125627495506832"><ele>558.0</ele><time>2026-04-19T20:21:06Z</time></trkpt><trkpt lat="37.88024802515437" lon="15.12570423942262"><ele>558.0</ele><time>2026-04-19T20:21:07Z</time></trkpt><trkpt lat="37.8802170916912" lon="15.125782642228936"><ele>558.0</ele><time>2026-04-19T20:21:08Z</time></trkpt><trkpt lat="37.88016611602936" lon="15.125931262326665"><ele>558.0</ele><time>2026-04-19T20:21:10Z</time></trkpt><trkpt lat="37.880136103110374" lon="15.126012376533456"><ele>558.0</ele><time>2026-04-19T20:21:11Z</time></trkpt><trkpt lat="37.88010514454533" lon="15.126089966829943"><ele>557.8333333333334</ele><time>2026-04-19T20:21:12Z</time></trkpt><trkpt lat="37.88007500161073" lon="15.12616948880537"><ele>557.6666666666666</ele><time>2026-04-19T20:21:13Z</time></trkpt><trkpt lat="37.88004452210401" lon="15.126244315786886"><ele>557.5</ele><time>2026-04-19T20:21:14Z</time></trkpt><trkpt lat="37.8800299993702" lon="15.126323526389337"><ele>557.3333333333333</ele><time>2026-04-19T20:21:15Z</time></trkpt><trkpt lat="37.88005517158185" lon="15.126479182235405"><ele>557.1666666666666</ele><time>2026-04-19T20:21:17Z</time></trkpt><trkpt lat="37.88008138766086" lon="15.126628431157695"><ele>557.0</ele><time>2026-04-19T20:21:19Z</time></trkpt><trkpt lat="37.880090226385605" lon="15.126722045955137"><ele>555.0</ele><time>2026-04-19T20:21:21Z</time></trkpt><trkpt lat="37.880266285868515" lon="15.12677966798995"><ele>524.0</ele><time>2026-04-19T20:21:27Z</time></trkpt><trkpt lat="37.880073733192724" lon="15.126558161084208"><ele>557.0</ele><time>2026-04-19T20:21:28Z</time></trkpt></trkseg></trk></gpx>